<?xml version="1.0" encoding="UTF-8" standalone="no" ?>
<gpx xmlns="http://www.topografix.com/GPX/1/1" xmlns:xsi="http://www.w3.org/2001/XMLSchema-instance" xsi:schemaLocation="http://www.topografix.com/GPX/1/1 http://www.topografix.com/GPX/1/1/gpx.xsd" version="1.1" creator="VisuGPX - https://www.visugpx.com">
  <metadata>
    <name>20220127_135423.gpx</name>
  </metadata>
  <trk>
    <name><![CDATA[20220127_135423.gpx]]></name>
    <trkseg>
      <trkpt lat="47.27943" lon="-1.59537">
        <ele>125</ele>
        <time>2022-01-27T12:54:25Z</time>
      </trkpt>
      <trkpt lat="47.27948" lon="-1.59537">
        <ele>110</ele>
        <time>2022-01-27T12:54:27Z</time>
      </trkpt>
      <trkpt lat="47.27948" lon="-1.59538">
        <ele>112</ele>
        <time>2022-01-27T12:54:28Z</time>
      </trkpt>
      <trkpt lat="47.27948" lon="-1.59539">
        <ele>111</ele>
        <time>2022-01-27T12:54:29Z</time>
      </trkpt>
      <trkpt lat="47.27948" lon="-1.59539">
        <ele>111</ele>
        <time>2022-01-27T12:54:30Z</time>
      </trkpt>
      <trkpt lat="47.27948" lon="-1.59539">
        <ele>111</ele>
        <time>2022-01-27T12:54:31Z</time>
      </trkpt>
      <trkpt lat="47.27948" lon="-1.59539">
        <ele>111</ele>
        <time>2022-01-27T12:54:32Z</time>
      </trkpt>
      <trkpt lat="47.27948" lon="-1.5954">
        <ele>106</ele>
        <time>2022-01-27T12:54:33Z</time>
      </trkpt>
      <trkpt lat="47.27948" lon="-1.5954">
        <ele>106</ele>
        <time>2022-01-27T12:54:34Z</time>
      </trkpt>
      <trkpt lat="47.27948" lon="-1.5954">
        <ele>106</ele>
        <time>2022-01-27T12:54:35Z</time>
      </trkpt>
      <trkpt lat="47.27948" lon="-1.5954">
        <ele>106</ele>
        <time>2022-01-27T12:54:36Z</time>
      </trkpt>
      <trkpt lat="47.27948" lon="-1.5954">
        <ele>106</ele>
        <time>2022-01-27T12:54:37Z</time>
      </trkpt>
      <trkpt lat="47.27948" lon="-1.5954">
        <ele>106</ele>
        <time>2022-01-27T12:54:37Z</time>
      </trkpt>
      <trkpt lat="47.27948" lon="-1.5954">
        <ele>106</ele>
        <time>2022-01-27T12:54:37Z</time>
      </trkpt>
      <trkpt lat="47.27955" lon="-1.59543">
        <ele>99</ele>
        <time>2022-01-27T12:56:39Z</time>
      </trkpt>
      <trkpt lat="47.27955" lon="-1.59543">
        <ele>99</ele>
        <time>2022-01-27T12:56:40Z</time>
      </trkpt>
      <trkpt lat="47.27955" lon="-1.59543">
        <ele>98</ele>
        <time>2022-01-27T12:56:41Z</time>
      </trkpt>
      <trkpt lat="47.27955" lon="-1.59543">
        <ele>98</ele>
        <time>2022-01-27T12:56:42Z</time>
      </trkpt>
      <trkpt lat="47.27956" lon="-1.59542">
        <ele>99</ele>
        <time>2022-01-27T12:56:43Z</time>
      </trkpt>
      <trkpt lat="47.27956" lon="-1.59542">
        <ele>99</ele>
        <time>2022-01-27T12:56:44Z</time>
      </trkpt>
      <trkpt lat="47.27956" lon="-1.59542">
        <ele>99</ele>
        <time>2022-01-27T12:56:44Z</time>
      </trkpt>
      <trkpt lat="47.27956" lon="-1.59542">
        <ele>99</ele>
        <time>2022-01-27T12:56:44Z</time>
      </trkpt>
      <trkpt lat="47.27959" lon="-1.59535">
        <ele>99</ele>
        <time>2022-01-27T12:57:18Z</time>
      </trkpt>
      <trkpt lat="47.27959" lon="-1.59534">
        <ele>98</ele>
        <time>2022-01-27T12:57:19Z</time>
      </trkpt>
      <trkpt lat="47.27961" lon="-1.59535">
        <ele>98</ele>
        <time>2022-01-27T12:57:21Z</time>
      </trkpt>
      <trkpt lat="47.27963" lon="-1.59534">
        <ele>98</ele>
        <time>2022-01-27T12:57:22Z</time>
      </trkpt>
      <trkpt lat="47.27964" lon="-1.59535">
        <ele>98</ele>
        <time>2022-01-27T12:57:23Z</time>
      </trkpt>
      <trkpt lat="47.27964" lon="-1.59535">
        <ele>98</ele>
        <time>2022-01-27T12:57:24Z</time>
      </trkpt>
      <trkpt lat="47.27965" lon="-1.59534">
        <ele>97</ele>
        <time>2022-01-27T12:57:25Z</time>
      </trkpt>
      <trkpt lat="47.27966" lon="-1.59533">
        <ele>98</ele>
        <time>2022-01-27T12:57:26Z</time>
      </trkpt>
      <trkpt lat="47.27966" lon="-1.59532">
        <ele>98</ele>
        <time>2022-01-27T12:57:27Z</time>
      </trkpt>
      <trkpt lat="47.27967" lon="-1.59532">
        <ele>98</ele>
        <time>2022-01-27T12:57:28Z</time>
      </trkpt>
      <trkpt lat="47.27968" lon="-1.59531">
        <ele>99</ele>
        <time>2022-01-27T12:57:29Z</time>
      </trkpt>
      <trkpt lat="47.27968" lon="-1.59531">
        <ele>99</ele>
        <time>2022-01-27T12:57:30Z</time>
      </trkpt>
      <trkpt lat="47.27968" lon="-1.5953">
        <ele>99</ele>
        <time>2022-01-27T12:57:31Z</time>
      </trkpt>
      <trkpt lat="47.27967" lon="-1.59528">
        <ele>99</ele>
        <time>2022-01-27T12:57:32Z</time>
      </trkpt>
      <trkpt lat="47.27967" lon="-1.59526">
        <ele>99</ele>
        <time>2022-01-27T12:57:33Z</time>
      </trkpt>
      <trkpt lat="47.27968" lon="-1.59526">
        <ele>99</ele>
        <time>2022-01-27T12:57:34Z</time>
      </trkpt>
      <trkpt lat="47.27968" lon="-1.59524">
        <ele>99</ele>
        <time>2022-01-27T12:57:35Z</time>
      </trkpt>
      <trkpt lat="47.27969" lon="-1.59523">
        <ele>99</ele>
        <time>2022-01-27T12:57:36Z</time>
      </trkpt>
      <trkpt lat="47.27969" lon="-1.59522">
        <ele>98</ele>
        <time>2022-01-27T12:57:37Z</time>
      </trkpt>
      <trkpt lat="47.2797" lon="-1.59521">
        <ele>98</ele>
        <time>2022-01-27T12:57:38Z</time>
      </trkpt>
      <trkpt lat="47.27971" lon="-1.5952">
        <ele>98</ele>
        <time>2022-01-27T12:57:39Z</time>
      </trkpt>
      <trkpt lat="47.27971" lon="-1.59519">
        <ele>96</ele>
        <time>2022-01-27T12:57:40Z</time>
      </trkpt>
      <trkpt lat="47.27971" lon="-1.59518">
        <ele>96</ele>
        <time>2022-01-27T12:57:41Z</time>
      </trkpt>
      <trkpt lat="47.27972" lon="-1.59517">
        <ele>96</ele>
        <time>2022-01-27T12:57:42Z</time>
      </trkpt>
      <trkpt lat="47.27972" lon="-1.59516">
        <ele>96</ele>
        <time>2022-01-27T12:57:43Z</time>
      </trkpt>
      <trkpt lat="47.27973" lon="-1.59515">
        <ele>96</ele>
        <time>2022-01-27T12:57:44Z</time>
      </trkpt>
      <trkpt lat="47.27974" lon="-1.59515">
        <ele>96</ele>
        <time>2022-01-27T12:57:45Z</time>
      </trkpt>
      <trkpt lat="47.27976" lon="-1.59514">
        <ele>96</ele>
        <time>2022-01-27T12:57:47Z</time>
      </trkpt>
      <trkpt lat="47.27977" lon="-1.59513">
        <ele>97</ele>
        <time>2022-01-27T12:57:49Z</time>
      </trkpt>
      <trkpt lat="47.27978" lon="-1.59511">
        <ele>97</ele>
        <time>2022-01-27T12:57:50Z</time>
      </trkpt>
      <trkpt lat="47.27979" lon="-1.59509">
        <ele>96</ele>
        <time>2022-01-27T12:57:51Z</time>
      </trkpt>
      <trkpt lat="47.27979" lon="-1.59507">
        <ele>96</ele>
        <time>2022-01-27T12:57:52Z</time>
      </trkpt>
      <trkpt lat="47.27979" lon="-1.59506">
        <ele>96</ele>
        <time>2022-01-27T12:57:53Z</time>
      </trkpt>
      <trkpt lat="47.2798" lon="-1.59504">
        <ele>96</ele>
        <time>2022-01-27T12:57:54Z</time>
      </trkpt>
      <trkpt lat="47.2798" lon="-1.59503">
        <ele>96</ele>
        <time>2022-01-27T12:57:55Z</time>
      </trkpt>
      <trkpt lat="47.2798" lon="-1.59502">
        <ele>96</ele>
        <time>2022-01-27T12:57:56Z</time>
      </trkpt>
      <trkpt lat="47.27981" lon="-1.59501">
        <ele>97</ele>
        <time>2022-01-27T12:57:57Z</time>
      </trkpt>
      <trkpt lat="47.27981" lon="-1.595">
        <ele>97</ele>
        <time>2022-01-27T12:57:58Z</time>
      </trkpt>
      <trkpt lat="47.27981" lon="-1.59501">
        <ele>97</ele>
        <time>2022-01-27T12:57:59Z</time>
      </trkpt>
      <trkpt lat="47.27981" lon="-1.59501">
        <ele>97</ele>
        <time>2022-01-27T12:58:00Z</time>
      </trkpt>
      <trkpt lat="47.27981" lon="-1.59501">
        <ele>97</ele>
        <time>2022-01-27T12:58:01Z</time>
      </trkpt>
      <trkpt lat="47.27981" lon="-1.59501">
        <ele>97</ele>
        <time>2022-01-27T12:58:02Z</time>
      </trkpt>
      <trkpt lat="47.27981" lon="-1.59502">
        <ele>97</ele>
        <time>2022-01-27T12:58:03Z</time>
      </trkpt>
      <trkpt lat="47.27982" lon="-1.59502">
        <ele>97</ele>
        <time>2022-01-27T12:58:04Z</time>
      </trkpt>
      <trkpt lat="47.27982" lon="-1.59502">
        <ele>97</ele>
        <time>2022-01-27T12:58:05Z</time>
      </trkpt>
      <trkpt lat="47.27982" lon="-1.59502">
        <ele>97</ele>
        <time>2022-01-27T12:58:06Z</time>
      </trkpt>
      <trkpt lat="47.27982" lon="-1.59501">
        <ele>97</ele>
        <time>2022-01-27T12:58:07Z</time>
      </trkpt>
      <trkpt lat="47.27982" lon="-1.59501">
        <ele>97</ele>
        <time>2022-01-27T12:58:07Z</time>
      </trkpt>
      <trkpt lat="47.27982" lon="-1.59501">
        <ele>97</ele>
        <time>2022-01-27T12:58:07Z</time>
      </trkpt>
      <trkpt lat="47.27984" lon="-1.59492">
        <ele>100</ele>
        <time>2022-01-27T12:58:20Z</time>
      </trkpt>
      <trkpt lat="47.27983" lon="-1.59492">
        <ele>99</ele>
        <time>2022-01-27T12:58:21Z</time>
      </trkpt>
      <trkpt lat="47.27982" lon="-1.59493">
        <ele>98</ele>
        <time>2022-01-27T12:58:22Z</time>
      </trkpt>
      <trkpt lat="47.27982" lon="-1.59493">
        <ele>98</ele>
        <time>2022-01-27T12:58:22Z</time>
      </trkpt>
      <trkpt lat="47.27982" lon="-1.59493">
        <ele>98</ele>
        <time>2022-01-27T12:58:22Z</time>
      </trkpt>
      <trkpt lat="47.27984" lon="-1.5948">
        <ele>96</ele>
        <time>2022-01-27T12:59:36Z</time>
      </trkpt>
      <trkpt lat="47.27985" lon="-1.59479">
        <ele>96</ele>
        <time>2022-01-27T12:59:37Z</time>
      </trkpt>
      <trkpt lat="47.27985" lon="-1.59478">
        <ele>94</ele>
        <time>2022-01-27T12:59:38Z</time>
      </trkpt>
      <trkpt lat="47.27986" lon="-1.59477">
        <ele>94</ele>
        <time>2022-01-27T12:59:39Z</time>
      </trkpt>
      <trkpt lat="47.27987" lon="-1.59476">
        <ele>93</ele>
        <time>2022-01-27T12:59:40Z</time>
      </trkpt>
      <trkpt lat="47.27988" lon="-1.59474">
        <ele>93</ele>
        <time>2022-01-27T12:59:41Z</time>
      </trkpt>
      <trkpt lat="47.27988" lon="-1.59473">
        <ele>94</ele>
        <time>2022-01-27T12:59:42Z</time>
      </trkpt>
      <trkpt lat="47.27988" lon="-1.59471">
        <ele>94</ele>
        <time>2022-01-27T12:59:43Z</time>
      </trkpt>
      <trkpt lat="47.2799" lon="-1.59469">
        <ele>94</ele>
        <time>2022-01-27T12:59:44Z</time>
      </trkpt>
      <trkpt lat="47.2799" lon="-1.59468">
        <ele>94</ele>
        <time>2022-01-27T12:59:45Z</time>
      </trkpt>
      <trkpt lat="47.27993" lon="-1.59466">
        <ele>94</ele>
        <time>2022-01-27T12:59:47Z</time>
      </trkpt>
      <trkpt lat="47.27995" lon="-1.59464">
        <ele>94</ele>
        <time>2022-01-27T12:59:49Z</time>
      </trkpt>
      <trkpt lat="47.27996" lon="-1.59461">
        <ele>95</ele>
        <time>2022-01-27T12:59:51Z</time>
      </trkpt>
      <trkpt lat="47.27998" lon="-1.59461">
        <ele>95</ele>
        <time>2022-01-27T12:59:52Z</time>
      </trkpt>
      <trkpt lat="47.27999" lon="-1.5946">
        <ele>95</ele>
        <time>2022-01-27T12:59:53Z</time>
      </trkpt>
      <trkpt lat="47.28" lon="-1.5946">
        <ele>95</ele>
        <time>2022-01-27T12:59:54Z</time>
      </trkpt>
      <trkpt lat="47.28001" lon="-1.59459">
        <ele>95</ele>
        <time>2022-01-27T12:59:55Z</time>
      </trkpt>
      <trkpt lat="47.28002" lon="-1.59458">
        <ele>95</ele>
        <time>2022-01-27T12:59:56Z</time>
      </trkpt>
      <trkpt lat="47.28003" lon="-1.59458">
        <ele>95</ele>
        <time>2022-01-27T12:59:57Z</time>
      </trkpt>
      <trkpt lat="47.28003" lon="-1.59457">
        <ele>94</ele>
        <time>2022-01-27T12:59:58Z</time>
      </trkpt>
      <trkpt lat="47.28005" lon="-1.59457">
        <ele>94</ele>
        <time>2022-01-27T12:59:59Z</time>
      </trkpt>
      <trkpt lat="47.28006" lon="-1.59456">
        <ele>94</ele>
        <time>2022-01-27T13:00:00Z</time>
      </trkpt>
      <trkpt lat="47.28006" lon="-1.59456">
        <ele>94</ele>
        <time>2022-01-27T13:00:01Z</time>
      </trkpt>
      <trkpt lat="47.28007" lon="-1.59455">
        <ele>94</ele>
        <time>2022-01-27T13:00:02Z</time>
      </trkpt>
      <trkpt lat="47.28008" lon="-1.59454">
        <ele>93</ele>
        <time>2022-01-27T13:00:03Z</time>
      </trkpt>
      <trkpt lat="47.28009" lon="-1.59453">
        <ele>94</ele>
        <time>2022-01-27T13:00:04Z</time>
      </trkpt>
      <trkpt lat="47.28011" lon="-1.59453">
        <ele>94</ele>
        <time>2022-01-27T13:00:05Z</time>
      </trkpt>
      <trkpt lat="47.28012" lon="-1.59452">
        <ele>94</ele>
        <time>2022-01-27T13:00:06Z</time>
      </trkpt>
      <trkpt lat="47.28013" lon="-1.59452">
        <ele>94</ele>
        <time>2022-01-27T13:00:07Z</time>
      </trkpt>
      <trkpt lat="47.28014" lon="-1.59451">
        <ele>94</ele>
        <time>2022-01-27T13:00:08Z</time>
      </trkpt>
      <trkpt lat="47.28016" lon="-1.5945">
        <ele>94</ele>
        <time>2022-01-27T13:00:09Z</time>
      </trkpt>
      <trkpt lat="47.28016" lon="-1.59449">
        <ele>94</ele>
        <time>2022-01-27T13:00:10Z</time>
      </trkpt>
      <trkpt lat="47.28017" lon="-1.59447">
        <ele>94</ele>
        <time>2022-01-27T13:00:11Z</time>
      </trkpt>
      <trkpt lat="47.28018" lon="-1.59446">
        <ele>94</ele>
        <time>2022-01-27T13:00:12Z</time>
      </trkpt>
      <trkpt lat="47.28019" lon="-1.59445">
        <ele>94</ele>
        <time>2022-01-27T13:00:13Z</time>
      </trkpt>
      <trkpt lat="47.2802" lon="-1.59444">
        <ele>94</ele>
        <time>2022-01-27T13:00:14Z</time>
      </trkpt>
      <trkpt lat="47.28021" lon="-1.59442">
        <ele>94</ele>
        <time>2022-01-27T13:00:15Z</time>
      </trkpt>
      <trkpt lat="47.28022" lon="-1.59442">
        <ele>94</ele>
        <time>2022-01-27T13:00:16Z</time>
      </trkpt>
      <trkpt lat="47.28023" lon="-1.59441">
        <ele>93</ele>
        <time>2022-01-27T13:00:17Z</time>
      </trkpt>
      <trkpt lat="47.28024" lon="-1.59439">
        <ele>93</ele>
        <time>2022-01-27T13:00:18Z</time>
      </trkpt>
      <trkpt lat="47.28024" lon="-1.59438">
        <ele>93</ele>
        <time>2022-01-27T13:00:19Z</time>
      </trkpt>
      <trkpt lat="47.28025" lon="-1.59436">
        <ele>93</ele>
        <time>2022-01-27T13:00:20Z</time>
      </trkpt>
      <trkpt lat="47.28026" lon="-1.59434">
        <ele>93</ele>
        <time>2022-01-27T13:00:21Z</time>
      </trkpt>
      <trkpt lat="47.28027" lon="-1.59432">
        <ele>93</ele>
        <time>2022-01-27T13:00:22Z</time>
      </trkpt>
      <trkpt lat="47.28028" lon="-1.5943">
        <ele>93</ele>
        <time>2022-01-27T13:00:23Z</time>
      </trkpt>
      <trkpt lat="47.28029" lon="-1.59428">
        <ele>94</ele>
        <time>2022-01-27T13:00:24Z</time>
      </trkpt>
      <trkpt lat="47.2803" lon="-1.59427">
        <ele>93</ele>
        <time>2022-01-27T13:00:25Z</time>
      </trkpt>
      <trkpt lat="47.28031" lon="-1.59425">
        <ele>93</ele>
        <time>2022-01-27T13:00:26Z</time>
      </trkpt>
      <trkpt lat="47.28033" lon="-1.59424">
        <ele>94</ele>
        <time>2022-01-27T13:00:27Z</time>
      </trkpt>
      <trkpt lat="47.28034" lon="-1.59422">
        <ele>94</ele>
        <time>2022-01-27T13:00:28Z</time>
      </trkpt>
      <trkpt lat="47.28035" lon="-1.59421">
        <ele>94</ele>
        <time>2022-01-27T13:00:29Z</time>
      </trkpt>
      <trkpt lat="47.28036" lon="-1.5942">
        <ele>94</ele>
        <time>2022-01-27T13:00:30Z</time>
      </trkpt>
      <trkpt lat="47.28037" lon="-1.59418">
        <ele>94</ele>
        <time>2022-01-27T13:00:31Z</time>
      </trkpt>
      <trkpt lat="47.28037" lon="-1.59417">
        <ele>94</ele>
        <time>2022-01-27T13:00:32Z</time>
      </trkpt>
      <trkpt lat="47.28038" lon="-1.59416">
        <ele>94</ele>
        <time>2022-01-27T13:00:33Z</time>
      </trkpt>
      <trkpt lat="47.28039" lon="-1.59415">
        <ele>94</ele>
        <time>2022-01-27T13:00:34Z</time>
      </trkpt>
      <trkpt lat="47.2804" lon="-1.59414">
        <ele>94</ele>
        <time>2022-01-27T13:00:35Z</time>
      </trkpt>
      <trkpt lat="47.28041" lon="-1.59413">
        <ele>94</ele>
        <time>2022-01-27T13:00:36Z</time>
      </trkpt>
      <trkpt lat="47.28042" lon="-1.59411">
        <ele>94</ele>
        <time>2022-01-27T13:00:37Z</time>
      </trkpt>
      <trkpt lat="47.28043" lon="-1.5941">
        <ele>94</ele>
        <time>2022-01-27T13:00:38Z</time>
      </trkpt>
      <trkpt lat="47.28044" lon="-1.5941">
        <ele>94</ele>
        <time>2022-01-27T13:00:39Z</time>
      </trkpt>
      <trkpt lat="47.28045" lon="-1.59409">
        <ele>93</ele>
        <time>2022-01-27T13:00:40Z</time>
      </trkpt>
      <trkpt lat="47.28046" lon="-1.59407">
        <ele>93</ele>
        <time>2022-01-27T13:00:41Z</time>
      </trkpt>
      <trkpt lat="47.28047" lon="-1.59406">
        <ele>94</ele>
        <time>2022-01-27T13:00:42Z</time>
      </trkpt>
      <trkpt lat="47.28048" lon="-1.59404">
        <ele>94</ele>
        <time>2022-01-27T13:00:43Z</time>
      </trkpt>
      <trkpt lat="47.28048" lon="-1.59402">
        <ele>94</ele>
        <time>2022-01-27T13:00:44Z</time>
      </trkpt>
      <trkpt lat="47.28049" lon="-1.594">
        <ele>94</ele>
        <time>2022-01-27T13:00:45Z</time>
      </trkpt>
      <trkpt lat="47.2805" lon="-1.59399">
        <ele>94</ele>
        <time>2022-01-27T13:00:46Z</time>
      </trkpt>
      <trkpt lat="47.28051" lon="-1.59396">
        <ele>93</ele>
        <time>2022-01-27T13:00:47Z</time>
      </trkpt>
      <trkpt lat="47.28051" lon="-1.59395">
        <ele>94</ele>
        <time>2022-01-27T13:00:48Z</time>
      </trkpt>
      <trkpt lat="47.28052" lon="-1.59393">
        <ele>94</ele>
        <time>2022-01-27T13:00:49Z</time>
      </trkpt>
      <trkpt lat="47.28052" lon="-1.59391">
        <ele>94</ele>
        <time>2022-01-27T13:00:50Z</time>
      </trkpt>
      <trkpt lat="47.28053" lon="-1.59389">
        <ele>94</ele>
        <time>2022-01-27T13:00:51Z</time>
      </trkpt>
      <trkpt lat="47.28053" lon="-1.59388">
        <ele>93</ele>
        <time>2022-01-27T13:00:52Z</time>
      </trkpt>
      <trkpt lat="47.28054" lon="-1.59386">
        <ele>93</ele>
        <time>2022-01-27T13:00:53Z</time>
      </trkpt>
      <trkpt lat="47.28054" lon="-1.59385">
        <ele>93</ele>
        <time>2022-01-27T13:00:54Z</time>
      </trkpt>
      <trkpt lat="47.28055" lon="-1.59383">
        <ele>93</ele>
        <time>2022-01-27T13:00:55Z</time>
      </trkpt>
      <trkpt lat="47.28056" lon="-1.59381">
        <ele>93</ele>
        <time>2022-01-27T13:00:56Z</time>
      </trkpt>
      <trkpt lat="47.28056" lon="-1.59379">
        <ele>93</ele>
        <time>2022-01-27T13:00:57Z</time>
      </trkpt>
      <trkpt lat="47.28057" lon="-1.59377">
        <ele>93</ele>
        <time>2022-01-27T13:00:58Z</time>
      </trkpt>
      <trkpt lat="47.28058" lon="-1.59376">
        <ele>93</ele>
        <time>2022-01-27T13:00:59Z</time>
      </trkpt>
      <trkpt lat="47.28059" lon="-1.59374">
        <ele>93</ele>
        <time>2022-01-27T13:01:00Z</time>
      </trkpt>
      <trkpt lat="47.2806" lon="-1.59372">
        <ele>93</ele>
        <time>2022-01-27T13:01:01Z</time>
      </trkpt>
      <trkpt lat="47.28061" lon="-1.5937">
        <ele>93</ele>
        <time>2022-01-27T13:01:02Z</time>
      </trkpt>
      <trkpt lat="47.28062" lon="-1.59367">
        <ele>92</ele>
        <time>2022-01-27T13:01:04Z</time>
      </trkpt>
      <trkpt lat="47.28063" lon="-1.59365">
        <ele>92</ele>
        <time>2022-01-27T13:01:05Z</time>
      </trkpt>
      <trkpt lat="47.28064" lon="-1.59364">
        <ele>92</ele>
        <time>2022-01-27T13:01:06Z</time>
      </trkpt>
      <trkpt lat="47.28065" lon="-1.59363">
        <ele>92</ele>
        <time>2022-01-27T13:01:07Z</time>
      </trkpt>
      <trkpt lat="47.28066" lon="-1.59361">
        <ele>91</ele>
        <time>2022-01-27T13:01:08Z</time>
      </trkpt>
      <trkpt lat="47.28066" lon="-1.5936">
        <ele>91</ele>
        <time>2022-01-27T13:01:09Z</time>
      </trkpt>
      <trkpt lat="47.28067" lon="-1.59359">
        <ele>91</ele>
        <time>2022-01-27T13:01:10Z</time>
      </trkpt>
      <trkpt lat="47.28068" lon="-1.59359">
        <ele>91</ele>
        <time>2022-01-27T13:01:11Z</time>
      </trkpt>
      <trkpt lat="47.28069" lon="-1.59357">
        <ele>91</ele>
        <time>2022-01-27T13:01:12Z</time>
      </trkpt>
      <trkpt lat="47.2807" lon="-1.59355">
        <ele>91</ele>
        <time>2022-01-27T13:01:13Z</time>
      </trkpt>
      <trkpt lat="47.2807" lon="-1.59353">
        <ele>91</ele>
        <time>2022-01-27T13:01:14Z</time>
      </trkpt>
      <trkpt lat="47.28071" lon="-1.59351">
        <ele>91</ele>
        <time>2022-01-27T13:01:15Z</time>
      </trkpt>
      <trkpt lat="47.28072" lon="-1.5935">
        <ele>91</ele>
        <time>2022-01-27T13:01:16Z</time>
      </trkpt>
      <trkpt lat="47.28072" lon="-1.59348">
        <ele>91</ele>
        <time>2022-01-27T13:01:17Z</time>
      </trkpt>
      <trkpt lat="47.28073" lon="-1.59346">
        <ele>91</ele>
        <time>2022-01-27T13:01:18Z</time>
      </trkpt>
      <trkpt lat="47.28074" lon="-1.59345">
        <ele>91</ele>
        <time>2022-01-27T13:01:19Z</time>
      </trkpt>
      <trkpt lat="47.28075" lon="-1.59343">
        <ele>91</ele>
        <time>2022-01-27T13:01:20Z</time>
      </trkpt>
      <trkpt lat="47.28076" lon="-1.59342">
        <ele>91</ele>
        <time>2022-01-27T13:01:21Z</time>
      </trkpt>
      <trkpt lat="47.28077" lon="-1.5934">
        <ele>91</ele>
        <time>2022-01-27T13:01:22Z</time>
      </trkpt>
      <trkpt lat="47.28078" lon="-1.59338">
        <ele>91</ele>
        <time>2022-01-27T13:01:23Z</time>
      </trkpt>
      <trkpt lat="47.28079" lon="-1.59336">
        <ele>92</ele>
        <time>2022-01-27T13:01:24Z</time>
      </trkpt>
      <trkpt lat="47.28079" lon="-1.59334">
        <ele>92</ele>
        <time>2022-01-27T13:01:25Z</time>
      </trkpt>
      <trkpt lat="47.2808" lon="-1.59332">
        <ele>92</ele>
        <time>2022-01-27T13:01:26Z</time>
      </trkpt>
      <trkpt lat="47.2808" lon="-1.5933">
        <ele>92</ele>
        <time>2022-01-27T13:01:27Z</time>
      </trkpt>
      <trkpt lat="47.28081" lon="-1.59329">
        <ele>92</ele>
        <time>2022-01-27T13:01:28Z</time>
      </trkpt>
      <trkpt lat="47.28082" lon="-1.59327">
        <ele>92</ele>
        <time>2022-01-27T13:01:29Z</time>
      </trkpt>
      <trkpt lat="47.28082" lon="-1.59325">
        <ele>93</ele>
        <time>2022-01-27T13:01:30Z</time>
      </trkpt>
      <trkpt lat="47.28083" lon="-1.59323">
        <ele>93</ele>
        <time>2022-01-27T13:01:31Z</time>
      </trkpt>
      <trkpt lat="47.28083" lon="-1.59321">
        <ele>92</ele>
        <time>2022-01-27T13:01:32Z</time>
      </trkpt>
      <trkpt lat="47.28084" lon="-1.5932">
        <ele>92</ele>
        <time>2022-01-27T13:01:33Z</time>
      </trkpt>
      <trkpt lat="47.28085" lon="-1.59318">
        <ele>92</ele>
        <time>2022-01-27T13:01:34Z</time>
      </trkpt>
      <trkpt lat="47.28086" lon="-1.59317">
        <ele>92</ele>
        <time>2022-01-27T13:01:35Z</time>
      </trkpt>
      <trkpt lat="47.28087" lon="-1.59315">
        <ele>92</ele>
        <time>2022-01-27T13:01:36Z</time>
      </trkpt>
      <trkpt lat="47.28087" lon="-1.59313">
        <ele>92</ele>
        <time>2022-01-27T13:01:37Z</time>
      </trkpt>
      <trkpt lat="47.28088" lon="-1.59312">
        <ele>92</ele>
        <time>2022-01-27T13:01:38Z</time>
      </trkpt>
      <trkpt lat="47.28088" lon="-1.5931">
        <ele>92</ele>
        <time>2022-01-27T13:01:39Z</time>
      </trkpt>
      <trkpt lat="47.28089" lon="-1.59309">
        <ele>92</ele>
        <time>2022-01-27T13:01:40Z</time>
      </trkpt>
      <trkpt lat="47.2809" lon="-1.59307">
        <ele>92</ele>
        <time>2022-01-27T13:01:41Z</time>
      </trkpt>
      <trkpt lat="47.28091" lon="-1.59306">
        <ele>92</ele>
        <time>2022-01-27T13:01:42Z</time>
      </trkpt>
      <trkpt lat="47.28093" lon="-1.59305">
        <ele>92</ele>
        <time>2022-01-27T13:01:43Z</time>
      </trkpt>
      <trkpt lat="47.28094" lon="-1.59304">
        <ele>92</ele>
        <time>2022-01-27T13:01:44Z</time>
      </trkpt>
      <trkpt lat="47.28095" lon="-1.59302">
        <ele>92</ele>
        <time>2022-01-27T13:01:45Z</time>
      </trkpt>
      <trkpt lat="47.28096" lon="-1.593">
        <ele>92</ele>
        <time>2022-01-27T13:01:46Z</time>
      </trkpt>
      <trkpt lat="47.28096" lon="-1.59299">
        <ele>92</ele>
        <time>2022-01-27T13:01:47Z</time>
      </trkpt>
      <trkpt lat="47.28097" lon="-1.59297">
        <ele>92</ele>
        <time>2022-01-27T13:01:48Z</time>
      </trkpt>
      <trkpt lat="47.28098" lon="-1.59296">
        <ele>92</ele>
        <time>2022-01-27T13:01:49Z</time>
      </trkpt>
      <trkpt lat="47.28099" lon="-1.59294">
        <ele>92</ele>
        <time>2022-01-27T13:01:50Z</time>
      </trkpt>
      <trkpt lat="47.28099" lon="-1.59293">
        <ele>91</ele>
        <time>2022-01-27T13:01:51Z</time>
      </trkpt>
      <trkpt lat="47.28101" lon="-1.59291">
        <ele>92</ele>
        <time>2022-01-27T13:01:52Z</time>
      </trkpt>
      <trkpt lat="47.28102" lon="-1.5929">
        <ele>92</ele>
        <time>2022-01-27T13:01:53Z</time>
      </trkpt>
      <trkpt lat="47.28103" lon="-1.59288">
        <ele>92</ele>
        <time>2022-01-27T13:01:54Z</time>
      </trkpt>
      <trkpt lat="47.28104" lon="-1.59287">
        <ele>92</ele>
        <time>2022-01-27T13:01:55Z</time>
      </trkpt>
      <trkpt lat="47.28105" lon="-1.59285">
        <ele>93</ele>
        <time>2022-01-27T13:01:56Z</time>
      </trkpt>
      <trkpt lat="47.28106" lon="-1.59282">
        <ele>93</ele>
        <time>2022-01-27T13:01:57Z</time>
      </trkpt>
      <trkpt lat="47.28107" lon="-1.5928">
        <ele>94</ele>
        <time>2022-01-27T13:01:58Z</time>
      </trkpt>
      <trkpt lat="47.28108" lon="-1.59278">
        <ele>94</ele>
        <time>2022-01-27T13:01:59Z</time>
      </trkpt>
      <trkpt lat="47.28109" lon="-1.59273">
        <ele>94</ele>
        <time>2022-01-27T13:02:01Z</time>
      </trkpt>
      <trkpt lat="47.28109" lon="-1.59271">
        <ele>94</ele>
        <time>2022-01-27T13:02:02Z</time>
      </trkpt>
      <trkpt lat="47.28109" lon="-1.59269">
        <ele>95</ele>
        <time>2022-01-27T13:02:03Z</time>
      </trkpt>
      <trkpt lat="47.2811" lon="-1.59267">
        <ele>95</ele>
        <time>2022-01-27T13:02:04Z</time>
      </trkpt>
      <trkpt lat="47.28111" lon="-1.59265">
        <ele>95</ele>
        <time>2022-01-27T13:02:05Z</time>
      </trkpt>
      <trkpt lat="47.28111" lon="-1.59264">
        <ele>94</ele>
        <time>2022-01-27T13:02:06Z</time>
      </trkpt>
      <trkpt lat="47.28112" lon="-1.59262">
        <ele>94</ele>
        <time>2022-01-27T13:02:07Z</time>
      </trkpt>
      <trkpt lat="47.28112" lon="-1.5926">
        <ele>95</ele>
        <time>2022-01-27T13:02:08Z</time>
      </trkpt>
      <trkpt lat="47.28113" lon="-1.59258">
        <ele>94</ele>
        <time>2022-01-27T13:02:09Z</time>
      </trkpt>
      <trkpt lat="47.28114" lon="-1.59256">
        <ele>94</ele>
        <time>2022-01-27T13:02:10Z</time>
      </trkpt>
      <trkpt lat="47.28115" lon="-1.59254">
        <ele>94</ele>
        <time>2022-01-27T13:02:11Z</time>
      </trkpt>
      <trkpt lat="47.28116" lon="-1.59252">
        <ele>93</ele>
        <time>2022-01-27T13:02:12Z</time>
      </trkpt>
      <trkpt lat="47.28116" lon="-1.5925">
        <ele>93</ele>
        <time>2022-01-27T13:02:13Z</time>
      </trkpt>
      <trkpt lat="47.28116" lon="-1.59248">
        <ele>93</ele>
        <time>2022-01-27T13:02:14Z</time>
      </trkpt>
      <trkpt lat="47.28117" lon="-1.59246">
        <ele>93</ele>
        <time>2022-01-27T13:02:15Z</time>
      </trkpt>
      <trkpt lat="47.28117" lon="-1.59245">
        <ele>93</ele>
        <time>2022-01-27T13:02:16Z</time>
      </trkpt>
      <trkpt lat="47.28118" lon="-1.59243">
        <ele>94</ele>
        <time>2022-01-27T13:02:17Z</time>
      </trkpt>
      <trkpt lat="47.28119" lon="-1.59242">
        <ele>94</ele>
        <time>2022-01-27T13:02:18Z</time>
      </trkpt>
      <trkpt lat="47.2812" lon="-1.5924">
        <ele>94</ele>
        <time>2022-01-27T13:02:19Z</time>
      </trkpt>
      <trkpt lat="47.28121" lon="-1.59238">
        <ele>94</ele>
        <time>2022-01-27T13:02:20Z</time>
      </trkpt>
      <trkpt lat="47.28121" lon="-1.59236">
        <ele>94</ele>
        <time>2022-01-27T13:02:21Z</time>
      </trkpt>
      <trkpt lat="47.28122" lon="-1.59236">
        <ele>94</ele>
        <time>2022-01-27T13:02:22Z</time>
      </trkpt>
      <trkpt lat="47.28122" lon="-1.59235">
        <ele>93</ele>
        <time>2022-01-27T13:02:23Z</time>
      </trkpt>
      <trkpt lat="47.28122" lon="-1.59234">
        <ele>93</ele>
        <time>2022-01-27T13:02:24Z</time>
      </trkpt>
      <trkpt lat="47.28123" lon="-1.59233">
        <ele>94</ele>
        <time>2022-01-27T13:02:25Z</time>
      </trkpt>
      <trkpt lat="47.28124" lon="-1.59231">
        <ele>94</ele>
        <time>2022-01-27T13:02:26Z</time>
      </trkpt>
      <trkpt lat="47.28124" lon="-1.5923">
        <ele>94</ele>
        <time>2022-01-27T13:02:27Z</time>
      </trkpt>
      <trkpt lat="47.28125" lon="-1.59229">
        <ele>95</ele>
        <time>2022-01-27T13:02:28Z</time>
      </trkpt>
      <trkpt lat="47.28126" lon="-1.59228">
        <ele>94</ele>
        <time>2022-01-27T13:02:29Z</time>
      </trkpt>
      <trkpt lat="47.28127" lon="-1.59227">
        <ele>94</ele>
        <time>2022-01-27T13:02:30Z</time>
      </trkpt>
      <trkpt lat="47.28128" lon="-1.59228">
        <ele>94</ele>
        <time>2022-01-27T13:02:31Z</time>
      </trkpt>
      <trkpt lat="47.28129" lon="-1.59228">
        <ele>94</ele>
        <time>2022-01-27T13:02:32Z</time>
      </trkpt>
      <trkpt lat="47.2813" lon="-1.59228">
        <ele>94</ele>
        <time>2022-01-27T13:02:33Z</time>
      </trkpt>
      <trkpt lat="47.2813" lon="-1.59229">
        <ele>94</ele>
        <time>2022-01-27T13:02:34Z</time>
      </trkpt>
      <trkpt lat="47.28131" lon="-1.59229">
        <ele>94</ele>
        <time>2022-01-27T13:02:35Z</time>
      </trkpt>
      <trkpt lat="47.28132" lon="-1.5923">
        <ele>94</ele>
        <time>2022-01-27T13:02:36Z</time>
      </trkpt>
      <trkpt lat="47.28133" lon="-1.5923">
        <ele>94</ele>
        <time>2022-01-27T13:02:37Z</time>
      </trkpt>
      <trkpt lat="47.28134" lon="-1.5923">
        <ele>94</ele>
        <time>2022-01-27T13:02:38Z</time>
      </trkpt>
      <trkpt lat="47.28135" lon="-1.5923">
        <ele>95</ele>
        <time>2022-01-27T13:02:39Z</time>
      </trkpt>
      <trkpt lat="47.28135" lon="-1.59231">
        <ele>95</ele>
        <time>2022-01-27T13:02:40Z</time>
      </trkpt>
      <trkpt lat="47.28136" lon="-1.59232">
        <ele>95</ele>
        <time>2022-01-27T13:02:41Z</time>
      </trkpt>
      <trkpt lat="47.28137" lon="-1.59233">
        <ele>95</ele>
        <time>2022-01-27T13:02:42Z</time>
      </trkpt>
      <trkpt lat="47.28138" lon="-1.59233">
        <ele>95</ele>
        <time>2022-01-27T13:02:43Z</time>
      </trkpt>
      <trkpt lat="47.28138" lon="-1.59235">
        <ele>95</ele>
        <time>2022-01-27T13:02:44Z</time>
      </trkpt>
      <trkpt lat="47.28139" lon="-1.59235">
        <ele>95</ele>
        <time>2022-01-27T13:02:45Z</time>
      </trkpt>
      <trkpt lat="47.2814" lon="-1.59237">
        <ele>94</ele>
        <time>2022-01-27T13:02:46Z</time>
      </trkpt>
      <trkpt lat="47.2814" lon="-1.59238">
        <ele>94</ele>
        <time>2022-01-27T13:02:47Z</time>
      </trkpt>
      <trkpt lat="47.28141" lon="-1.59239">
        <ele>94</ele>
        <time>2022-01-27T13:02:48Z</time>
      </trkpt>
      <trkpt lat="47.28142" lon="-1.5924">
        <ele>94</ele>
        <time>2022-01-27T13:02:49Z</time>
      </trkpt>
      <trkpt lat="47.28143" lon="-1.59241">
        <ele>94</ele>
        <time>2022-01-27T13:02:50Z</time>
      </trkpt>
      <trkpt lat="47.28143" lon="-1.59242">
        <ele>94</ele>
        <time>2022-01-27T13:02:51Z</time>
      </trkpt>
      <trkpt lat="47.28144" lon="-1.59243">
        <ele>94</ele>
        <time>2022-01-27T13:02:52Z</time>
      </trkpt>
      <trkpt lat="47.28145" lon="-1.59244">
        <ele>94</ele>
        <time>2022-01-27T13:02:53Z</time>
      </trkpt>
      <trkpt lat="47.28146" lon="-1.59246">
        <ele>93</ele>
        <time>2022-01-27T13:02:54Z</time>
      </trkpt>
      <trkpt lat="47.28147" lon="-1.59247">
        <ele>93</ele>
        <time>2022-01-27T13:02:55Z</time>
      </trkpt>
      <trkpt lat="47.28148" lon="-1.59247">
        <ele>93</ele>
        <time>2022-01-27T13:02:56Z</time>
      </trkpt>
      <trkpt lat="47.28149" lon="-1.59248">
        <ele>93</ele>
        <time>2022-01-27T13:02:57Z</time>
      </trkpt>
      <trkpt lat="47.28149" lon="-1.59249">
        <ele>92</ele>
        <time>2022-01-27T13:02:58Z</time>
      </trkpt>
      <trkpt lat="47.2815" lon="-1.5925">
        <ele>93</ele>
        <time>2022-01-27T13:02:59Z</time>
      </trkpt>
      <trkpt lat="47.28151" lon="-1.59251">
        <ele>93</ele>
        <time>2022-01-27T13:03:00Z</time>
      </trkpt>
      <trkpt lat="47.28152" lon="-1.59253">
        <ele>92</ele>
        <time>2022-01-27T13:03:01Z</time>
      </trkpt>
      <trkpt lat="47.28153" lon="-1.59254">
        <ele>92</ele>
        <time>2022-01-27T13:03:02Z</time>
      </trkpt>
      <trkpt lat="47.28153" lon="-1.59255">
        <ele>92</ele>
        <time>2022-01-27T13:03:03Z</time>
      </trkpt>
      <trkpt lat="47.28154" lon="-1.59256">
        <ele>92</ele>
        <time>2022-01-27T13:03:04Z</time>
      </trkpt>
      <trkpt lat="47.28154" lon="-1.59257">
        <ele>92</ele>
        <time>2022-01-27T13:03:05Z</time>
      </trkpt>
      <trkpt lat="47.28156" lon="-1.59258">
        <ele>92</ele>
        <time>2022-01-27T13:03:06Z</time>
      </trkpt>
      <trkpt lat="47.28156" lon="-1.59259">
        <ele>91</ele>
        <time>2022-01-27T13:03:07Z</time>
      </trkpt>
      <trkpt lat="47.28157" lon="-1.5926">
        <ele>91</ele>
        <time>2022-01-27T13:03:08Z</time>
      </trkpt>
      <trkpt lat="47.28158" lon="-1.59261">
        <ele>92</ele>
        <time>2022-01-27T13:03:09Z</time>
      </trkpt>
      <trkpt lat="47.28158" lon="-1.59262">
        <ele>91</ele>
        <time>2022-01-27T13:03:10Z</time>
      </trkpt>
      <trkpt lat="47.28159" lon="-1.59263">
        <ele>91</ele>
        <time>2022-01-27T13:03:11Z</time>
      </trkpt>
      <trkpt lat="47.28161" lon="-1.59264">
        <ele>91</ele>
        <time>2022-01-27T13:03:12Z</time>
      </trkpt>
      <trkpt lat="47.28161" lon="-1.59265">
        <ele>91</ele>
        <time>2022-01-27T13:03:13Z</time>
      </trkpt>
      <trkpt lat="47.28162" lon="-1.59266">
        <ele>91</ele>
        <time>2022-01-27T13:03:14Z</time>
      </trkpt>
      <trkpt lat="47.28163" lon="-1.59267">
        <ele>91</ele>
        <time>2022-01-27T13:03:15Z</time>
      </trkpt>
      <trkpt lat="47.28164" lon="-1.59268">
        <ele>91</ele>
        <time>2022-01-27T13:03:16Z</time>
      </trkpt>
      <trkpt lat="47.28164" lon="-1.59269">
        <ele>91</ele>
        <time>2022-01-27T13:03:17Z</time>
      </trkpt>
      <trkpt lat="47.28165" lon="-1.5927">
        <ele>91</ele>
        <time>2022-01-27T13:03:18Z</time>
      </trkpt>
      <trkpt lat="47.28166" lon="-1.59271">
        <ele>91</ele>
        <time>2022-01-27T13:03:19Z</time>
      </trkpt>
      <trkpt lat="47.28167" lon="-1.59272">
        <ele>90</ele>
        <time>2022-01-27T13:03:20Z</time>
      </trkpt>
      <trkpt lat="47.28168" lon="-1.59274">
        <ele>90</ele>
        <time>2022-01-27T13:03:21Z</time>
      </trkpt>
      <trkpt lat="47.28168" lon="-1.59275">
        <ele>90</ele>
        <time>2022-01-27T13:03:22Z</time>
      </trkpt>
      <trkpt lat="47.28169" lon="-1.59276">
        <ele>89</ele>
        <time>2022-01-27T13:03:23Z</time>
      </trkpt>
      <trkpt lat="47.28169" lon="-1.59278">
        <ele>89</ele>
        <time>2022-01-27T13:03:24Z</time>
      </trkpt>
      <trkpt lat="47.2817" lon="-1.5928">
        <ele>88</ele>
        <time>2022-01-27T13:03:25Z</time>
      </trkpt>
      <trkpt lat="47.2817" lon="-1.59282">
        <ele>87</ele>
        <time>2022-01-27T13:03:26Z</time>
      </trkpt>
      <trkpt lat="47.28171" lon="-1.59283">
        <ele>87</ele>
        <time>2022-01-27T13:03:27Z</time>
      </trkpt>
      <trkpt lat="47.28172" lon="-1.59285">
        <ele>86</ele>
        <time>2022-01-27T13:03:28Z</time>
      </trkpt>
      <trkpt lat="47.28173" lon="-1.59286">
        <ele>86</ele>
        <time>2022-01-27T13:03:29Z</time>
      </trkpt>
      <trkpt lat="47.28174" lon="-1.59288">
        <ele>86</ele>
        <time>2022-01-27T13:03:30Z</time>
      </trkpt>
      <trkpt lat="47.28175" lon="-1.59289">
        <ele>86</ele>
        <time>2022-01-27T13:03:31Z</time>
      </trkpt>
      <trkpt lat="47.28177" lon="-1.59291">
        <ele>86</ele>
        <time>2022-01-27T13:03:32Z</time>
      </trkpt>
      <trkpt lat="47.28177" lon="-1.59293">
        <ele>85</ele>
        <time>2022-01-27T13:03:33Z</time>
      </trkpt>
      <trkpt lat="47.28179" lon="-1.59294">
        <ele>85</ele>
        <time>2022-01-27T13:03:34Z</time>
      </trkpt>
      <trkpt lat="47.2818" lon="-1.59296">
        <ele>85</ele>
        <time>2022-01-27T13:03:35Z</time>
      </trkpt>
      <trkpt lat="47.28181" lon="-1.59297">
        <ele>85</ele>
        <time>2022-01-27T13:03:36Z</time>
      </trkpt>
      <trkpt lat="47.28181" lon="-1.59299">
        <ele>84</ele>
        <time>2022-01-27T13:03:37Z</time>
      </trkpt>
      <trkpt lat="47.28183" lon="-1.593">
        <ele>84</ele>
        <time>2022-01-27T13:03:38Z</time>
      </trkpt>
      <trkpt lat="47.28183" lon="-1.59302">
        <ele>84</ele>
        <time>2022-01-27T13:03:39Z</time>
      </trkpt>
      <trkpt lat="47.28184" lon="-1.59304">
        <ele>83</ele>
        <time>2022-01-27T13:03:40Z</time>
      </trkpt>
      <trkpt lat="47.28185" lon="-1.59305">
        <ele>83</ele>
        <time>2022-01-27T13:03:41Z</time>
      </trkpt>
      <trkpt lat="47.28186" lon="-1.59307">
        <ele>83</ele>
        <time>2022-01-27T13:03:42Z</time>
      </trkpt>
      <trkpt lat="47.28187" lon="-1.59309">
        <ele>83</ele>
        <time>2022-01-27T13:03:43Z</time>
      </trkpt>
      <trkpt lat="47.28188" lon="-1.5931">
        <ele>83</ele>
        <time>2022-01-27T13:03:44Z</time>
      </trkpt>
      <trkpt lat="47.28188" lon="-1.59312">
        <ele>83</ele>
        <time>2022-01-27T13:03:45Z</time>
      </trkpt>
      <trkpt lat="47.28188" lon="-1.59313">
        <ele>82</ele>
        <time>2022-01-27T13:03:46Z</time>
      </trkpt>
      <trkpt lat="47.28189" lon="-1.59315">
        <ele>82</ele>
        <time>2022-01-27T13:03:47Z</time>
      </trkpt>
      <trkpt lat="47.28189" lon="-1.59317">
        <ele>82</ele>
        <time>2022-01-27T13:03:48Z</time>
      </trkpt>
      <trkpt lat="47.2819" lon="-1.59318">
        <ele>82</ele>
        <time>2022-01-27T13:03:49Z</time>
      </trkpt>
      <trkpt lat="47.28191" lon="-1.5932">
        <ele>82</ele>
        <time>2022-01-27T13:03:50Z</time>
      </trkpt>
      <trkpt lat="47.28192" lon="-1.59321">
        <ele>82</ele>
        <time>2022-01-27T13:03:51Z</time>
      </trkpt>
      <trkpt lat="47.28193" lon="-1.59323">
        <ele>82</ele>
        <time>2022-01-27T13:03:52Z</time>
      </trkpt>
      <trkpt lat="47.28194" lon="-1.59325">
        <ele>83</ele>
        <time>2022-01-27T13:03:53Z</time>
      </trkpt>
      <trkpt lat="47.28197" lon="-1.59328">
        <ele>83</ele>
        <time>2022-01-27T13:03:55Z</time>
      </trkpt>
      <trkpt lat="47.28198" lon="-1.59329">
        <ele>84</ele>
        <time>2022-01-27T13:03:56Z</time>
      </trkpt>
      <trkpt lat="47.28199" lon="-1.59331">
        <ele>84</ele>
        <time>2022-01-27T13:03:57Z</time>
      </trkpt>
      <trkpt lat="47.282" lon="-1.59332">
        <ele>84</ele>
        <time>2022-01-27T13:03:58Z</time>
      </trkpt>
      <trkpt lat="47.28201" lon="-1.59333">
        <ele>84</ele>
        <time>2022-01-27T13:03:59Z</time>
      </trkpt>
      <trkpt lat="47.28202" lon="-1.59335">
        <ele>85</ele>
        <time>2022-01-27T13:04:00Z</time>
      </trkpt>
      <trkpt lat="47.28202" lon="-1.59336">
        <ele>85</ele>
        <time>2022-01-27T13:04:01Z</time>
      </trkpt>
      <trkpt lat="47.28203" lon="-1.59337">
        <ele>85</ele>
        <time>2022-01-27T13:04:02Z</time>
      </trkpt>
      <trkpt lat="47.28204" lon="-1.59338">
        <ele>85</ele>
        <time>2022-01-27T13:04:03Z</time>
      </trkpt>
      <trkpt lat="47.28205" lon="-1.59339">
        <ele>85</ele>
        <time>2022-01-27T13:04:04Z</time>
      </trkpt>
      <trkpt lat="47.28207" lon="-1.59341">
        <ele>86</ele>
        <time>2022-01-27T13:04:05Z</time>
      </trkpt>
      <trkpt lat="47.28208" lon="-1.59342">
        <ele>86</ele>
        <time>2022-01-27T13:04:06Z</time>
      </trkpt>
      <trkpt lat="47.28209" lon="-1.59343">
        <ele>86</ele>
        <time>2022-01-27T13:04:07Z</time>
      </trkpt>
      <trkpt lat="47.2821" lon="-1.59343">
        <ele>86</ele>
        <time>2022-01-27T13:04:08Z</time>
      </trkpt>
      <trkpt lat="47.28211" lon="-1.59344">
        <ele>86</ele>
        <time>2022-01-27T13:04:09Z</time>
      </trkpt>
      <trkpt lat="47.28212" lon="-1.59345">
        <ele>86</ele>
        <time>2022-01-27T13:04:10Z</time>
      </trkpt>
      <trkpt lat="47.28213" lon="-1.59346">
        <ele>86</ele>
        <time>2022-01-27T13:04:11Z</time>
      </trkpt>
      <trkpt lat="47.28215" lon="-1.59347">
        <ele>86</ele>
        <time>2022-01-27T13:04:12Z</time>
      </trkpt>
      <trkpt lat="47.28216" lon="-1.59348">
        <ele>86</ele>
        <time>2022-01-27T13:04:13Z</time>
      </trkpt>
      <trkpt lat="47.28217" lon="-1.59349">
        <ele>86</ele>
        <time>2022-01-27T13:04:14Z</time>
      </trkpt>
      <trkpt lat="47.28218" lon="-1.5935">
        <ele>86</ele>
        <time>2022-01-27T13:04:15Z</time>
      </trkpt>
      <trkpt lat="47.28219" lon="-1.59351">
        <ele>86</ele>
        <time>2022-01-27T13:04:16Z</time>
      </trkpt>
      <trkpt lat="47.2822" lon="-1.59352">
        <ele>86</ele>
        <time>2022-01-27T13:04:17Z</time>
      </trkpt>
      <trkpt lat="47.2822" lon="-1.59354">
        <ele>86</ele>
        <time>2022-01-27T13:04:18Z</time>
      </trkpt>
      <trkpt lat="47.28222" lon="-1.59355">
        <ele>86</ele>
        <time>2022-01-27T13:04:19Z</time>
      </trkpt>
      <trkpt lat="47.28222" lon="-1.59356">
        <ele>86</ele>
        <time>2022-01-27T13:04:20Z</time>
      </trkpt>
      <trkpt lat="47.28223" lon="-1.59358">
        <ele>86</ele>
        <time>2022-01-27T13:04:21Z</time>
      </trkpt>
      <trkpt lat="47.28224" lon="-1.59359">
        <ele>86</ele>
        <time>2022-01-27T13:04:22Z</time>
      </trkpt>
      <trkpt lat="47.28225" lon="-1.5936">
        <ele>85</ele>
        <time>2022-01-27T13:04:23Z</time>
      </trkpt>
      <trkpt lat="47.28226" lon="-1.59361">
        <ele>85</ele>
        <time>2022-01-27T13:04:24Z</time>
      </trkpt>
      <trkpt lat="47.28227" lon="-1.59362">
        <ele>85</ele>
        <time>2022-01-27T13:04:25Z</time>
      </trkpt>
      <trkpt lat="47.28228" lon="-1.59363">
        <ele>85</ele>
        <time>2022-01-27T13:04:26Z</time>
      </trkpt>
      <trkpt lat="47.28229" lon="-1.59363">
        <ele>85</ele>
        <time>2022-01-27T13:04:27Z</time>
      </trkpt>
      <trkpt lat="47.2823" lon="-1.59364">
        <ele>85</ele>
        <time>2022-01-27T13:04:28Z</time>
      </trkpt>
      <trkpt lat="47.28231" lon="-1.59365">
        <ele>85</ele>
        <time>2022-01-27T13:04:29Z</time>
      </trkpt>
      <trkpt lat="47.28232" lon="-1.59366">
        <ele>85</ele>
        <time>2022-01-27T13:04:30Z</time>
      </trkpt>
      <trkpt lat="47.28233" lon="-1.59367">
        <ele>85</ele>
        <time>2022-01-27T13:04:31Z</time>
      </trkpt>
      <trkpt lat="47.28234" lon="-1.59367">
        <ele>84</ele>
        <time>2022-01-27T13:04:32Z</time>
      </trkpt>
      <trkpt lat="47.28235" lon="-1.59368">
        <ele>84</ele>
        <time>2022-01-27T13:04:33Z</time>
      </trkpt>
      <trkpt lat="47.28236" lon="-1.59369">
        <ele>85</ele>
        <time>2022-01-27T13:04:34Z</time>
      </trkpt>
      <trkpt lat="47.28237" lon="-1.5937">
        <ele>85</ele>
        <time>2022-01-27T13:04:35Z</time>
      </trkpt>
      <trkpt lat="47.28238" lon="-1.5937">
        <ele>84</ele>
        <time>2022-01-27T13:04:36Z</time>
      </trkpt>
      <trkpt lat="47.28239" lon="-1.59371">
        <ele>84</ele>
        <time>2022-01-27T13:04:37Z</time>
      </trkpt>
      <trkpt lat="47.2824" lon="-1.59371">
        <ele>84</ele>
        <time>2022-01-27T13:04:38Z</time>
      </trkpt>
      <trkpt lat="47.28241" lon="-1.59372">
        <ele>84</ele>
        <time>2022-01-27T13:04:39Z</time>
      </trkpt>
      <trkpt lat="47.28241" lon="-1.59373">
        <ele>84</ele>
        <time>2022-01-27T13:04:40Z</time>
      </trkpt>
      <trkpt lat="47.28243" lon="-1.59374">
        <ele>83</ele>
        <time>2022-01-27T13:04:41Z</time>
      </trkpt>
      <trkpt lat="47.28243" lon="-1.59375">
        <ele>83</ele>
        <time>2022-01-27T13:04:42Z</time>
      </trkpt>
      <trkpt lat="47.28244" lon="-1.59376">
        <ele>83</ele>
        <time>2022-01-27T13:04:43Z</time>
      </trkpt>
      <trkpt lat="47.28245" lon="-1.59377">
        <ele>84</ele>
        <time>2022-01-27T13:04:44Z</time>
      </trkpt>
      <trkpt lat="47.28246" lon="-1.59377">
        <ele>84</ele>
        <time>2022-01-27T13:04:45Z</time>
      </trkpt>
      <trkpt lat="47.28248" lon="-1.59378">
        <ele>83</ele>
        <time>2022-01-27T13:04:46Z</time>
      </trkpt>
      <trkpt lat="47.28249" lon="-1.59379">
        <ele>83</ele>
        <time>2022-01-27T13:04:47Z</time>
      </trkpt>
      <trkpt lat="47.2825" lon="-1.5938">
        <ele>83</ele>
        <time>2022-01-27T13:04:48Z</time>
      </trkpt>
      <trkpt lat="47.28251" lon="-1.59381">
        <ele>83</ele>
        <time>2022-01-27T13:04:49Z</time>
      </trkpt>
      <trkpt lat="47.28252" lon="-1.59382">
        <ele>84</ele>
        <time>2022-01-27T13:04:50Z</time>
      </trkpt>
      <trkpt lat="47.28254" lon="-1.59383">
        <ele>84</ele>
        <time>2022-01-27T13:04:51Z</time>
      </trkpt>
      <trkpt lat="47.28256" lon="-1.59384">
        <ele>85</ele>
        <time>2022-01-27T13:04:52Z</time>
      </trkpt>
      <trkpt lat="47.28257" lon="-1.59384">
        <ele>85</ele>
        <time>2022-01-27T13:04:53Z</time>
      </trkpt>
      <trkpt lat="47.28259" lon="-1.59385">
        <ele>85</ele>
        <time>2022-01-27T13:04:54Z</time>
      </trkpt>
      <trkpt lat="47.2826" lon="-1.59386">
        <ele>85</ele>
        <time>2022-01-27T13:04:55Z</time>
      </trkpt>
      <trkpt lat="47.28261" lon="-1.59387">
        <ele>84</ele>
        <time>2022-01-27T13:04:56Z</time>
      </trkpt>
      <trkpt lat="47.28263" lon="-1.59388">
        <ele>84</ele>
        <time>2022-01-27T13:04:57Z</time>
      </trkpt>
      <trkpt lat="47.28264" lon="-1.5939">
        <ele>84</ele>
        <time>2022-01-27T13:04:58Z</time>
      </trkpt>
      <trkpt lat="47.28266" lon="-1.5939">
        <ele>84</ele>
        <time>2022-01-27T13:04:59Z</time>
      </trkpt>
      <trkpt lat="47.28267" lon="-1.59391">
        <ele>84</ele>
        <time>2022-01-27T13:05:00Z</time>
      </trkpt>
      <trkpt lat="47.28268" lon="-1.59392">
        <ele>84</ele>
        <time>2022-01-27T13:05:01Z</time>
      </trkpt>
      <trkpt lat="47.28269" lon="-1.59393">
        <ele>84</ele>
        <time>2022-01-27T13:05:02Z</time>
      </trkpt>
      <trkpt lat="47.2827" lon="-1.59394">
        <ele>84</ele>
        <time>2022-01-27T13:05:03Z</time>
      </trkpt>
      <trkpt lat="47.28271" lon="-1.59395">
        <ele>84</ele>
        <time>2022-01-27T13:05:04Z</time>
      </trkpt>
      <trkpt lat="47.28272" lon="-1.59397">
        <ele>84</ele>
        <time>2022-01-27T13:05:05Z</time>
      </trkpt>
      <trkpt lat="47.28273" lon="-1.59398">
        <ele>83</ele>
        <time>2022-01-27T13:05:06Z</time>
      </trkpt>
      <trkpt lat="47.28275" lon="-1.594">
        <ele>83</ele>
        <time>2022-01-27T13:05:07Z</time>
      </trkpt>
      <trkpt lat="47.28276" lon="-1.59401">
        <ele>83</ele>
        <time>2022-01-27T13:05:08Z</time>
      </trkpt>
      <trkpt lat="47.28277" lon="-1.59402">
        <ele>82</ele>
        <time>2022-01-27T13:05:09Z</time>
      </trkpt>
      <trkpt lat="47.28278" lon="-1.59403">
        <ele>82</ele>
        <time>2022-01-27T13:05:10Z</time>
      </trkpt>
      <trkpt lat="47.2828" lon="-1.59404">
        <ele>82</ele>
        <time>2022-01-27T13:05:11Z</time>
      </trkpt>
      <trkpt lat="47.28281" lon="-1.59405">
        <ele>82</ele>
        <time>2022-01-27T13:05:12Z</time>
      </trkpt>
      <trkpt lat="47.28283" lon="-1.59406">
        <ele>82</ele>
        <time>2022-01-27T13:05:13Z</time>
      </trkpt>
      <trkpt lat="47.28285" lon="-1.59407">
        <ele>83</ele>
        <time>2022-01-27T13:05:14Z</time>
      </trkpt>
      <trkpt lat="47.28286" lon="-1.59408">
        <ele>83</ele>
        <time>2022-01-27T13:05:15Z</time>
      </trkpt>
      <trkpt lat="47.28287" lon="-1.59409">
        <ele>83</ele>
        <time>2022-01-27T13:05:16Z</time>
      </trkpt>
      <trkpt lat="47.28289" lon="-1.5941">
        <ele>83</ele>
        <time>2022-01-27T13:05:17Z</time>
      </trkpt>
      <trkpt lat="47.28291" lon="-1.59411">
        <ele>83</ele>
        <time>2022-01-27T13:05:18Z</time>
      </trkpt>
      <trkpt lat="47.28292" lon="-1.59412">
        <ele>83</ele>
        <time>2022-01-27T13:05:19Z</time>
      </trkpt>
      <trkpt lat="47.28294" lon="-1.59414">
        <ele>83</ele>
        <time>2022-01-27T13:05:20Z</time>
      </trkpt>
      <trkpt lat="47.28295" lon="-1.59414">
        <ele>83</ele>
        <time>2022-01-27T13:05:21Z</time>
      </trkpt>
      <trkpt lat="47.28296" lon="-1.59415">
        <ele>83</ele>
        <time>2022-01-27T13:05:22Z</time>
      </trkpt>
      <trkpt lat="47.28298" lon="-1.59416">
        <ele>83</ele>
        <time>2022-01-27T13:05:23Z</time>
      </trkpt>
      <trkpt lat="47.28299" lon="-1.59417">
        <ele>83</ele>
        <time>2022-01-27T13:05:24Z</time>
      </trkpt>
      <trkpt lat="47.28301" lon="-1.59418">
        <ele>83</ele>
        <time>2022-01-27T13:05:25Z</time>
      </trkpt>
      <trkpt lat="47.28302" lon="-1.59419">
        <ele>83</ele>
        <time>2022-01-27T13:05:26Z</time>
      </trkpt>
      <trkpt lat="47.28304" lon="-1.59419">
        <ele>83</ele>
        <time>2022-01-27T13:05:27Z</time>
      </trkpt>
      <trkpt lat="47.28305" lon="-1.5942">
        <ele>84</ele>
        <time>2022-01-27T13:05:28Z</time>
      </trkpt>
      <trkpt lat="47.28307" lon="-1.5942">
        <ele>84</ele>
        <time>2022-01-27T13:05:29Z</time>
      </trkpt>
      <trkpt lat="47.28308" lon="-1.5942">
        <ele>84</ele>
        <time>2022-01-27T13:05:30Z</time>
      </trkpt>
      <trkpt lat="47.2831" lon="-1.5942">
        <ele>84</ele>
        <time>2022-01-27T13:05:31Z</time>
      </trkpt>
      <trkpt lat="47.28311" lon="-1.59421">
        <ele>84</ele>
        <time>2022-01-27T13:05:32Z</time>
      </trkpt>
      <trkpt lat="47.28313" lon="-1.59422">
        <ele>84</ele>
        <time>2022-01-27T13:05:33Z</time>
      </trkpt>
      <trkpt lat="47.28314" lon="-1.59423">
        <ele>84</ele>
        <time>2022-01-27T13:05:34Z</time>
      </trkpt>
      <trkpt lat="47.28315" lon="-1.59424">
        <ele>84</ele>
        <time>2022-01-27T13:05:35Z</time>
      </trkpt>
      <trkpt lat="47.28317" lon="-1.59424">
        <ele>84</ele>
        <time>2022-01-27T13:05:36Z</time>
      </trkpt>
      <trkpt lat="47.28318" lon="-1.59424">
        <ele>85</ele>
        <time>2022-01-27T13:05:37Z</time>
      </trkpt>
      <trkpt lat="47.28319" lon="-1.59425">
        <ele>85</ele>
        <time>2022-01-27T13:05:38Z</time>
      </trkpt>
      <trkpt lat="47.2832" lon="-1.59425">
        <ele>84</ele>
        <time>2022-01-27T13:05:39Z</time>
      </trkpt>
      <trkpt lat="47.28322" lon="-1.59425">
        <ele>85</ele>
        <time>2022-01-27T13:05:40Z</time>
      </trkpt>
      <trkpt lat="47.28323" lon="-1.59425">
        <ele>84</ele>
        <time>2022-01-27T13:05:41Z</time>
      </trkpt>
      <trkpt lat="47.28324" lon="-1.59425">
        <ele>85</ele>
        <time>2022-01-27T13:05:42Z</time>
      </trkpt>
      <trkpt lat="47.28325" lon="-1.59426">
        <ele>85</ele>
        <time>2022-01-27T13:05:43Z</time>
      </trkpt>
      <trkpt lat="47.28326" lon="-1.59426">
        <ele>85</ele>
        <time>2022-01-27T13:05:44Z</time>
      </trkpt>
      <trkpt lat="47.28328" lon="-1.59426">
        <ele>85</ele>
        <time>2022-01-27T13:05:45Z</time>
      </trkpt>
      <trkpt lat="47.28328" lon="-1.59426">
        <ele>85</ele>
        <time>2022-01-27T13:05:46Z</time>
      </trkpt>
      <trkpt lat="47.28329" lon="-1.59427">
        <ele>85</ele>
        <time>2022-01-27T13:05:47Z</time>
      </trkpt>
      <trkpt lat="47.2833" lon="-1.59427">
        <ele>86</ele>
        <time>2022-01-27T13:05:48Z</time>
      </trkpt>
      <trkpt lat="47.28331" lon="-1.59428">
        <ele>85</ele>
        <time>2022-01-27T13:05:49Z</time>
      </trkpt>
      <trkpt lat="47.28333" lon="-1.59428">
        <ele>85</ele>
        <time>2022-01-27T13:05:50Z</time>
      </trkpt>
      <trkpt lat="47.28334" lon="-1.59428">
        <ele>85</ele>
        <time>2022-01-27T13:05:51Z</time>
      </trkpt>
      <trkpt lat="47.28335" lon="-1.59429">
        <ele>85</ele>
        <time>2022-01-27T13:05:52Z</time>
      </trkpt>
      <trkpt lat="47.28336" lon="-1.5943">
        <ele>85</ele>
        <time>2022-01-27T13:05:53Z</time>
      </trkpt>
      <trkpt lat="47.28337" lon="-1.5943">
        <ele>85</ele>
        <time>2022-01-27T13:05:54Z</time>
      </trkpt>
      <trkpt lat="47.28338" lon="-1.59431">
        <ele>85</ele>
        <time>2022-01-27T13:05:55Z</time>
      </trkpt>
      <trkpt lat="47.2834" lon="-1.59432">
        <ele>85</ele>
        <time>2022-01-27T13:05:56Z</time>
      </trkpt>
      <trkpt lat="47.28341" lon="-1.59432">
        <ele>85</ele>
        <time>2022-01-27T13:05:57Z</time>
      </trkpt>
      <trkpt lat="47.28342" lon="-1.59433">
        <ele>84</ele>
        <time>2022-01-27T13:05:58Z</time>
      </trkpt>
      <trkpt lat="47.28344" lon="-1.59433">
        <ele>84</ele>
        <time>2022-01-27T13:05:59Z</time>
      </trkpt>
      <trkpt lat="47.28345" lon="-1.59433">
        <ele>84</ele>
        <time>2022-01-27T13:06:00Z</time>
      </trkpt>
      <trkpt lat="47.28346" lon="-1.59434">
        <ele>84</ele>
        <time>2022-01-27T13:06:01Z</time>
      </trkpt>
      <trkpt lat="47.28347" lon="-1.59434">
        <ele>83</ele>
        <time>2022-01-27T13:06:02Z</time>
      </trkpt>
      <trkpt lat="47.28349" lon="-1.59435">
        <ele>83</ele>
        <time>2022-01-27T13:06:03Z</time>
      </trkpt>
      <trkpt lat="47.2835" lon="-1.59435">
        <ele>83</ele>
        <time>2022-01-27T13:06:04Z</time>
      </trkpt>
      <trkpt lat="47.28351" lon="-1.59435">
        <ele>83</ele>
        <time>2022-01-27T13:06:05Z</time>
      </trkpt>
      <trkpt lat="47.28352" lon="-1.59435">
        <ele>83</ele>
        <time>2022-01-27T13:06:06Z</time>
      </trkpt>
      <trkpt lat="47.28353" lon="-1.59435">
        <ele>83</ele>
        <time>2022-01-27T13:06:07Z</time>
      </trkpt>
      <trkpt lat="47.28354" lon="-1.59435">
        <ele>82</ele>
        <time>2022-01-27T13:06:08Z</time>
      </trkpt>
      <trkpt lat="47.28355" lon="-1.59436">
        <ele>82</ele>
        <time>2022-01-27T13:06:09Z</time>
      </trkpt>
      <trkpt lat="47.28357" lon="-1.59436">
        <ele>82</ele>
        <time>2022-01-27T13:06:10Z</time>
      </trkpt>
      <trkpt lat="47.28359" lon="-1.59436">
        <ele>82</ele>
        <time>2022-01-27T13:06:11Z</time>
      </trkpt>
      <trkpt lat="47.2836" lon="-1.59436">
        <ele>82</ele>
        <time>2022-01-27T13:06:12Z</time>
      </trkpt>
      <trkpt lat="47.28361" lon="-1.59437">
        <ele>82</ele>
        <time>2022-01-27T13:06:13Z</time>
      </trkpt>
      <trkpt lat="47.28363" lon="-1.59437">
        <ele>81</ele>
        <time>2022-01-27T13:06:14Z</time>
      </trkpt>
      <trkpt lat="47.28364" lon="-1.59437">
        <ele>82</ele>
        <time>2022-01-27T13:06:15Z</time>
      </trkpt>
      <trkpt lat="47.28365" lon="-1.59438">
        <ele>82</ele>
        <time>2022-01-27T13:06:16Z</time>
      </trkpt>
      <trkpt lat="47.28367" lon="-1.59438">
        <ele>82</ele>
        <time>2022-01-27T13:06:17Z</time>
      </trkpt>
      <trkpt lat="47.28368" lon="-1.59439">
        <ele>82</ele>
        <time>2022-01-27T13:06:18Z</time>
      </trkpt>
      <trkpt lat="47.28369" lon="-1.59439">
        <ele>82</ele>
        <time>2022-01-27T13:06:19Z</time>
      </trkpt>
      <trkpt lat="47.28371" lon="-1.5944">
        <ele>82</ele>
        <time>2022-01-27T13:06:20Z</time>
      </trkpt>
      <trkpt lat="47.28373" lon="-1.59441">
        <ele>82</ele>
        <time>2022-01-27T13:06:21Z</time>
      </trkpt>
      <trkpt lat="47.28375" lon="-1.59442">
        <ele>82</ele>
        <time>2022-01-27T13:06:22Z</time>
      </trkpt>
      <trkpt lat="47.28376" lon="-1.59443">
        <ele>82</ele>
        <time>2022-01-27T13:06:23Z</time>
      </trkpt>
      <trkpt lat="47.28378" lon="-1.59444">
        <ele>82</ele>
        <time>2022-01-27T13:06:24Z</time>
      </trkpt>
      <trkpt lat="47.2838" lon="-1.59443">
        <ele>83</ele>
        <time>2022-01-27T13:06:25Z</time>
      </trkpt>
      <trkpt lat="47.28383" lon="-1.59443">
        <ele>84</ele>
        <time>2022-01-27T13:06:26Z</time>
      </trkpt>
      <trkpt lat="47.28386" lon="-1.59443">
        <ele>85</ele>
        <time>2022-01-27T13:06:27Z</time>
      </trkpt>
      <trkpt lat="47.28389" lon="-1.59443">
        <ele>86</ele>
        <time>2022-01-27T13:06:28Z</time>
      </trkpt>
      <trkpt lat="47.28391" lon="-1.59443">
        <ele>87</ele>
        <time>2022-01-27T13:06:29Z</time>
      </trkpt>
      <trkpt lat="47.28392" lon="-1.59441">
        <ele>87</ele>
        <time>2022-01-27T13:06:30Z</time>
      </trkpt>
      <trkpt lat="47.28394" lon="-1.59441">
        <ele>88</ele>
        <time>2022-01-27T13:06:31Z</time>
      </trkpt>
      <trkpt lat="47.28396" lon="-1.59441">
        <ele>88</ele>
        <time>2022-01-27T13:06:32Z</time>
      </trkpt>
      <trkpt lat="47.28397" lon="-1.59441">
        <ele>89</ele>
        <time>2022-01-27T13:06:33Z</time>
      </trkpt>
      <trkpt lat="47.28399" lon="-1.59441">
        <ele>89</ele>
        <time>2022-01-27T13:06:34Z</time>
      </trkpt>
      <trkpt lat="47.284" lon="-1.59441">
        <ele>89</ele>
        <time>2022-01-27T13:06:35Z</time>
      </trkpt>
      <trkpt lat="47.28401" lon="-1.59441">
        <ele>90</ele>
        <time>2022-01-27T13:06:36Z</time>
      </trkpt>
      <trkpt lat="47.28402" lon="-1.59441">
        <ele>90</ele>
        <time>2022-01-27T13:06:37Z</time>
      </trkpt>
      <trkpt lat="47.28402" lon="-1.59441">
        <ele>90</ele>
        <time>2022-01-27T13:06:38Z</time>
      </trkpt>
      <trkpt lat="47.28402" lon="-1.59442">
        <ele>90</ele>
        <time>2022-01-27T13:06:39Z</time>
      </trkpt>
      <trkpt lat="47.28402" lon="-1.59442">
        <ele>90</ele>
        <time>2022-01-27T13:06:40Z</time>
      </trkpt>
      <trkpt lat="47.28402" lon="-1.59442">
        <ele>90</ele>
        <time>2022-01-27T13:06:40Z</time>
      </trkpt>
      <trkpt lat="47.28402" lon="-1.59442">
        <ele>90</ele>
        <time>2022-01-27T13:06:40Z</time>
      </trkpt>
      <trkpt lat="47.28412" lon="-1.59446">
        <ele>92</ele>
        <time>2022-01-27T13:06:55Z</time>
      </trkpt>
      <trkpt lat="47.28413" lon="-1.59446">
        <ele>92</ele>
        <time>2022-01-27T13:06:56Z</time>
      </trkpt>
      <trkpt lat="47.28414" lon="-1.59447">
        <ele>92</ele>
        <time>2022-01-27T13:06:57Z</time>
      </trkpt>
      <trkpt lat="47.28417" lon="-1.59448">
        <ele>92</ele>
        <time>2022-01-27T13:06:59Z</time>
      </trkpt>
      <trkpt lat="47.28419" lon="-1.59449">
        <ele>92</ele>
        <time>2022-01-27T13:07:01Z</time>
      </trkpt>
      <trkpt lat="47.2842" lon="-1.59449">
        <ele>92</ele>
        <time>2022-01-27T13:07:02Z</time>
      </trkpt>
      <trkpt lat="47.28421" lon="-1.5945">
        <ele>93</ele>
        <time>2022-01-27T13:07:03Z</time>
      </trkpt>
      <trkpt lat="47.28422" lon="-1.5945">
        <ele>92</ele>
        <time>2022-01-27T13:07:04Z</time>
      </trkpt>
      <trkpt lat="47.28423" lon="-1.59451">
        <ele>92</ele>
        <time>2022-01-27T13:07:05Z</time>
      </trkpt>
      <trkpt lat="47.28424" lon="-1.59452">
        <ele>92</ele>
        <time>2022-01-27T13:07:06Z</time>
      </trkpt>
      <trkpt lat="47.28425" lon="-1.59453">
        <ele>92</ele>
        <time>2022-01-27T13:07:07Z</time>
      </trkpt>
      <trkpt lat="47.28426" lon="-1.59453">
        <ele>92</ele>
        <time>2022-01-27T13:07:08Z</time>
      </trkpt>
      <trkpt lat="47.28428" lon="-1.59453">
        <ele>92</ele>
        <time>2022-01-27T13:07:09Z</time>
      </trkpt>
      <trkpt lat="47.28428" lon="-1.59452">
        <ele>92</ele>
        <time>2022-01-27T13:07:10Z</time>
      </trkpt>
      <trkpt lat="47.2843" lon="-1.59453">
        <ele>92</ele>
        <time>2022-01-27T13:07:11Z</time>
      </trkpt>
      <trkpt lat="47.28431" lon="-1.59453">
        <ele>92</ele>
        <time>2022-01-27T13:07:12Z</time>
      </trkpt>
      <trkpt lat="47.28432" lon="-1.59453">
        <ele>92</ele>
        <time>2022-01-27T13:07:13Z</time>
      </trkpt>
      <trkpt lat="47.28434" lon="-1.59453">
        <ele>92</ele>
        <time>2022-01-27T13:07:14Z</time>
      </trkpt>
      <trkpt lat="47.28435" lon="-1.59454">
        <ele>92</ele>
        <time>2022-01-27T13:07:15Z</time>
      </trkpt>
      <trkpt lat="47.28437" lon="-1.59454">
        <ele>92</ele>
        <time>2022-01-27T13:07:16Z</time>
      </trkpt>
      <trkpt lat="47.28438" lon="-1.59454">
        <ele>92</ele>
        <time>2022-01-27T13:07:17Z</time>
      </trkpt>
      <trkpt lat="47.28439" lon="-1.59454">
        <ele>92</ele>
        <time>2022-01-27T13:07:18Z</time>
      </trkpt>
      <trkpt lat="47.2844" lon="-1.59455">
        <ele>92</ele>
        <time>2022-01-27T13:07:19Z</time>
      </trkpt>
      <trkpt lat="47.28441" lon="-1.59455">
        <ele>92</ele>
        <time>2022-01-27T13:07:20Z</time>
      </trkpt>
      <trkpt lat="47.28442" lon="-1.59455">
        <ele>91</ele>
        <time>2022-01-27T13:07:21Z</time>
      </trkpt>
      <trkpt lat="47.28444" lon="-1.59455">
        <ele>91</ele>
        <time>2022-01-27T13:07:22Z</time>
      </trkpt>
      <trkpt lat="47.28445" lon="-1.59456">
        <ele>91</ele>
        <time>2022-01-27T13:07:23Z</time>
      </trkpt>
      <trkpt lat="47.28446" lon="-1.59456">
        <ele>91</ele>
        <time>2022-01-27T13:07:24Z</time>
      </trkpt>
      <trkpt lat="47.28447" lon="-1.59456">
        <ele>91</ele>
        <time>2022-01-27T13:07:25Z</time>
      </trkpt>
      <trkpt lat="47.28449" lon="-1.59457">
        <ele>90</ele>
        <time>2022-01-27T13:07:26Z</time>
      </trkpt>
      <trkpt lat="47.28449" lon="-1.59457">
        <ele>90</ele>
        <time>2022-01-27T13:07:27Z</time>
      </trkpt>
      <trkpt lat="47.28451" lon="-1.59458">
        <ele>90</ele>
        <time>2022-01-27T13:07:28Z</time>
      </trkpt>
      <trkpt lat="47.28452" lon="-1.59458">
        <ele>90</ele>
        <time>2022-01-27T13:07:29Z</time>
      </trkpt>
      <trkpt lat="47.28453" lon="-1.59459">
        <ele>90</ele>
        <time>2022-01-27T13:07:30Z</time>
      </trkpt>
      <trkpt lat="47.28454" lon="-1.59459">
        <ele>90</ele>
        <time>2022-01-27T13:07:31Z</time>
      </trkpt>
      <trkpt lat="47.28455" lon="-1.5946">
        <ele>90</ele>
        <time>2022-01-27T13:07:32Z</time>
      </trkpt>
      <trkpt lat="47.28457" lon="-1.5946">
        <ele>90</ele>
        <time>2022-01-27T13:07:33Z</time>
      </trkpt>
      <trkpt lat="47.28458" lon="-1.59461">
        <ele>90</ele>
        <time>2022-01-27T13:07:34Z</time>
      </trkpt>
      <trkpt lat="47.28459" lon="-1.59461">
        <ele>90</ele>
        <time>2022-01-27T13:07:35Z</time>
      </trkpt>
      <trkpt lat="47.28461" lon="-1.59462">
        <ele>90</ele>
        <time>2022-01-27T13:07:36Z</time>
      </trkpt>
      <trkpt lat="47.28462" lon="-1.59462">
        <ele>90</ele>
        <time>2022-01-27T13:07:37Z</time>
      </trkpt>
      <trkpt lat="47.28463" lon="-1.59462">
        <ele>90</ele>
        <time>2022-01-27T13:07:38Z</time>
      </trkpt>
      <trkpt lat="47.28465" lon="-1.59462">
        <ele>90</ele>
        <time>2022-01-27T13:07:39Z</time>
      </trkpt>
      <trkpt lat="47.28466" lon="-1.59462">
        <ele>90</ele>
        <time>2022-01-27T13:07:40Z</time>
      </trkpt>
      <trkpt lat="47.28467" lon="-1.59463">
        <ele>90</ele>
        <time>2022-01-27T13:07:41Z</time>
      </trkpt>
      <trkpt lat="47.28468" lon="-1.59463">
        <ele>90</ele>
        <time>2022-01-27T13:07:42Z</time>
      </trkpt>
      <trkpt lat="47.2847" lon="-1.59463">
        <ele>90</ele>
        <time>2022-01-27T13:07:43Z</time>
      </trkpt>
      <trkpt lat="47.28471" lon="-1.59464">
        <ele>90</ele>
        <time>2022-01-27T13:07:44Z</time>
      </trkpt>
      <trkpt lat="47.28472" lon="-1.59464">
        <ele>90</ele>
        <time>2022-01-27T13:07:45Z</time>
      </trkpt>
      <trkpt lat="47.28473" lon="-1.59464">
        <ele>90</ele>
        <time>2022-01-27T13:07:46Z</time>
      </trkpt>
      <trkpt lat="47.28474" lon="-1.59465">
        <ele>90</ele>
        <time>2022-01-27T13:07:47Z</time>
      </trkpt>
      <trkpt lat="47.28475" lon="-1.59466">
        <ele>90</ele>
        <time>2022-01-27T13:07:48Z</time>
      </trkpt>
      <trkpt lat="47.28476" lon="-1.59466">
        <ele>90</ele>
        <time>2022-01-27T13:07:49Z</time>
      </trkpt>
      <trkpt lat="47.28478" lon="-1.59466">
        <ele>90</ele>
        <time>2022-01-27T13:07:50Z</time>
      </trkpt>
      <trkpt lat="47.28479" lon="-1.59466">
        <ele>90</ele>
        <time>2022-01-27T13:07:51Z</time>
      </trkpt>
      <trkpt lat="47.28481" lon="-1.59466">
        <ele>89</ele>
        <time>2022-01-27T13:07:52Z</time>
      </trkpt>
      <trkpt lat="47.28481" lon="-1.59467">
        <ele>89</ele>
        <time>2022-01-27T13:07:53Z</time>
      </trkpt>
      <trkpt lat="47.28483" lon="-1.59467">
        <ele>89</ele>
        <time>2022-01-27T13:07:54Z</time>
      </trkpt>
      <trkpt lat="47.28484" lon="-1.59468">
        <ele>89</ele>
        <time>2022-01-27T13:07:55Z</time>
      </trkpt>
      <trkpt lat="47.28486" lon="-1.59468">
        <ele>89</ele>
        <time>2022-01-27T13:07:56Z</time>
      </trkpt>
      <trkpt lat="47.28487" lon="-1.59469">
        <ele>89</ele>
        <time>2022-01-27T13:07:57Z</time>
      </trkpt>
      <trkpt lat="47.28488" lon="-1.59469">
        <ele>89</ele>
        <time>2022-01-27T13:07:58Z</time>
      </trkpt>
      <trkpt lat="47.2849" lon="-1.59469">
        <ele>90</ele>
        <time>2022-01-27T13:07:59Z</time>
      </trkpt>
      <trkpt lat="47.28491" lon="-1.5947">
        <ele>89</ele>
        <time>2022-01-27T13:08:00Z</time>
      </trkpt>
      <trkpt lat="47.28492" lon="-1.5947">
        <ele>89</ele>
        <time>2022-01-27T13:08:01Z</time>
      </trkpt>
      <trkpt lat="47.28494" lon="-1.5947">
        <ele>89</ele>
        <time>2022-01-27T13:08:02Z</time>
      </trkpt>
      <trkpt lat="47.28495" lon="-1.5947">
        <ele>88</ele>
        <time>2022-01-27T13:08:03Z</time>
      </trkpt>
      <trkpt lat="47.28497" lon="-1.5947">
        <ele>88</ele>
        <time>2022-01-27T13:08:04Z</time>
      </trkpt>
      <trkpt lat="47.28498" lon="-1.59471">
        <ele>88</ele>
        <time>2022-01-27T13:08:05Z</time>
      </trkpt>
      <trkpt lat="47.28499" lon="-1.59471">
        <ele>88</ele>
        <time>2022-01-27T13:08:06Z</time>
      </trkpt>
      <trkpt lat="47.28501" lon="-1.59472">
        <ele>88</ele>
        <time>2022-01-27T13:08:07Z</time>
      </trkpt>
      <trkpt lat="47.28502" lon="-1.59472">
        <ele>88</ele>
        <time>2022-01-27T13:08:08Z</time>
      </trkpt>
      <trkpt lat="47.28503" lon="-1.59472">
        <ele>88</ele>
        <time>2022-01-27T13:08:09Z</time>
      </trkpt>
      <trkpt lat="47.28505" lon="-1.59472">
        <ele>88</ele>
        <time>2022-01-27T13:08:10Z</time>
      </trkpt>
      <trkpt lat="47.28507" lon="-1.59472">
        <ele>88</ele>
        <time>2022-01-27T13:08:11Z</time>
      </trkpt>
      <trkpt lat="47.28508" lon="-1.59473">
        <ele>88</ele>
        <time>2022-01-27T13:08:12Z</time>
      </trkpt>
      <trkpt lat="47.28509" lon="-1.59473">
        <ele>88</ele>
        <time>2022-01-27T13:08:13Z</time>
      </trkpt>
      <trkpt lat="47.2851" lon="-1.59473">
        <ele>88</ele>
        <time>2022-01-27T13:08:14Z</time>
      </trkpt>
      <trkpt lat="47.28511" lon="-1.59473">
        <ele>88</ele>
        <time>2022-01-27T13:08:15Z</time>
      </trkpt>
      <trkpt lat="47.28513" lon="-1.59474">
        <ele>88</ele>
        <time>2022-01-27T13:08:16Z</time>
      </trkpt>
      <trkpt lat="47.28514" lon="-1.59474">
        <ele>88</ele>
        <time>2022-01-27T13:08:17Z</time>
      </trkpt>
      <trkpt lat="47.28515" lon="-1.59474">
        <ele>88</ele>
        <time>2022-01-27T13:08:18Z</time>
      </trkpt>
      <trkpt lat="47.28516" lon="-1.59475">
        <ele>89</ele>
        <time>2022-01-27T13:08:19Z</time>
      </trkpt>
      <trkpt lat="47.28518" lon="-1.59475">
        <ele>89</ele>
        <time>2022-01-27T13:08:20Z</time>
      </trkpt>
      <trkpt lat="47.28519" lon="-1.59475">
        <ele>88</ele>
        <time>2022-01-27T13:08:21Z</time>
      </trkpt>
      <trkpt lat="47.28521" lon="-1.59476">
        <ele>88</ele>
        <time>2022-01-27T13:08:22Z</time>
      </trkpt>
      <trkpt lat="47.28523" lon="-1.59476">
        <ele>88</ele>
        <time>2022-01-27T13:08:23Z</time>
      </trkpt>
      <trkpt lat="47.28524" lon="-1.59477">
        <ele>88</ele>
        <time>2022-01-27T13:08:24Z</time>
      </trkpt>
      <trkpt lat="47.28525" lon="-1.59477">
        <ele>87</ele>
        <time>2022-01-27T13:08:25Z</time>
      </trkpt>
      <trkpt lat="47.28527" lon="-1.59477">
        <ele>88</ele>
        <time>2022-01-27T13:08:26Z</time>
      </trkpt>
      <trkpt lat="47.28528" lon="-1.59476">
        <ele>88</ele>
        <time>2022-01-27T13:08:27Z</time>
      </trkpt>
      <trkpt lat="47.28529" lon="-1.59477">
        <ele>88</ele>
        <time>2022-01-27T13:08:28Z</time>
      </trkpt>
      <trkpt lat="47.28531" lon="-1.59477">
        <ele>88</ele>
        <time>2022-01-27T13:08:29Z</time>
      </trkpt>
      <trkpt lat="47.28532" lon="-1.59477">
        <ele>88</ele>
        <time>2022-01-27T13:08:30Z</time>
      </trkpt>
      <trkpt lat="47.28533" lon="-1.59477">
        <ele>88</ele>
        <time>2022-01-27T13:08:31Z</time>
      </trkpt>
      <trkpt lat="47.28534" lon="-1.59478">
        <ele>88</ele>
        <time>2022-01-27T13:08:32Z</time>
      </trkpt>
      <trkpt lat="47.28536" lon="-1.59478">
        <ele>88</ele>
        <time>2022-01-27T13:08:33Z</time>
      </trkpt>
      <trkpt lat="47.28537" lon="-1.59478">
        <ele>87</ele>
        <time>2022-01-27T13:08:34Z</time>
      </trkpt>
      <trkpt lat="47.28537" lon="-1.59478">
        <ele>88</ele>
        <time>2022-01-27T13:08:35Z</time>
      </trkpt>
      <trkpt lat="47.28538" lon="-1.59478">
        <ele>87</ele>
        <time>2022-01-27T13:08:36Z</time>
      </trkpt>
      <trkpt lat="47.28539" lon="-1.59478">
        <ele>87</ele>
        <time>2022-01-27T13:08:37Z</time>
      </trkpt>
      <trkpt lat="47.2854" lon="-1.59478">
        <ele>87</ele>
        <time>2022-01-27T13:08:38Z</time>
      </trkpt>
      <trkpt lat="47.2854" lon="-1.59478">
        <ele>87</ele>
        <time>2022-01-27T13:08:39Z</time>
      </trkpt>
      <trkpt lat="47.28542" lon="-1.59479">
        <ele>87</ele>
        <time>2022-01-27T13:08:40Z</time>
      </trkpt>
      <trkpt lat="47.28543" lon="-1.5948">
        <ele>87</ele>
        <time>2022-01-27T13:08:41Z</time>
      </trkpt>
      <trkpt lat="47.28544" lon="-1.59481">
        <ele>87</ele>
        <time>2022-01-27T13:08:42Z</time>
      </trkpt>
      <trkpt lat="47.28545" lon="-1.59482">
        <ele>87</ele>
        <time>2022-01-27T13:08:43Z</time>
      </trkpt>
      <trkpt lat="47.28546" lon="-1.59483">
        <ele>87</ele>
        <time>2022-01-27T13:08:44Z</time>
      </trkpt>
      <trkpt lat="47.28547" lon="-1.59484">
        <ele>87</ele>
        <time>2022-01-27T13:08:45Z</time>
      </trkpt>
      <trkpt lat="47.28548" lon="-1.59485">
        <ele>87</ele>
        <time>2022-01-27T13:08:46Z</time>
      </trkpt>
      <trkpt lat="47.28548" lon="-1.59486">
        <ele>87</ele>
        <time>2022-01-27T13:08:47Z</time>
      </trkpt>
      <trkpt lat="47.2855" lon="-1.59486">
        <ele>87</ele>
        <time>2022-01-27T13:08:48Z</time>
      </trkpt>
      <trkpt lat="47.2855" lon="-1.59486">
        <ele>87</ele>
        <time>2022-01-27T13:08:49Z</time>
      </trkpt>
      <trkpt lat="47.28552" lon="-1.59486">
        <ele>87</ele>
        <time>2022-01-27T13:08:50Z</time>
      </trkpt>
      <trkpt lat="47.28553" lon="-1.59487">
        <ele>86</ele>
        <time>2022-01-27T13:08:51Z</time>
      </trkpt>
      <trkpt lat="47.28554" lon="-1.59487">
        <ele>86</ele>
        <time>2022-01-27T13:08:52Z</time>
      </trkpt>
      <trkpt lat="47.28555" lon="-1.59488">
        <ele>86</ele>
        <time>2022-01-27T13:08:53Z</time>
      </trkpt>
      <trkpt lat="47.28556" lon="-1.59489">
        <ele>86</ele>
        <time>2022-01-27T13:08:54Z</time>
      </trkpt>
      <trkpt lat="47.28558" lon="-1.5949">
        <ele>86</ele>
        <time>2022-01-27T13:08:55Z</time>
      </trkpt>
      <trkpt lat="47.28559" lon="-1.59491">
        <ele>86</ele>
        <time>2022-01-27T13:08:56Z</time>
      </trkpt>
      <trkpt lat="47.28561" lon="-1.59491">
        <ele>85</ele>
        <time>2022-01-27T13:08:57Z</time>
      </trkpt>
      <trkpt lat="47.28562" lon="-1.59492">
        <ele>85</ele>
        <time>2022-01-27T13:08:58Z</time>
      </trkpt>
      <trkpt lat="47.28563" lon="-1.59492">
        <ele>85</ele>
        <time>2022-01-27T13:08:59Z</time>
      </trkpt>
      <trkpt lat="47.28565" lon="-1.59493">
        <ele>85</ele>
        <time>2022-01-27T13:09:00Z</time>
      </trkpt>
      <trkpt lat="47.28566" lon="-1.59493">
        <ele>85</ele>
        <time>2022-01-27T13:09:01Z</time>
      </trkpt>
      <trkpt lat="47.28567" lon="-1.59494">
        <ele>85</ele>
        <time>2022-01-27T13:09:02Z</time>
      </trkpt>
      <trkpt lat="47.28568" lon="-1.59495">
        <ele>85</ele>
        <time>2022-01-27T13:09:03Z</time>
      </trkpt>
      <trkpt lat="47.28569" lon="-1.59496">
        <ele>85</ele>
        <time>2022-01-27T13:09:04Z</time>
      </trkpt>
      <trkpt lat="47.28571" lon="-1.59496">
        <ele>85</ele>
        <time>2022-01-27T13:09:05Z</time>
      </trkpt>
      <trkpt lat="47.28573" lon="-1.59496">
        <ele>85</ele>
        <time>2022-01-27T13:09:06Z</time>
      </trkpt>
      <trkpt lat="47.28574" lon="-1.59496">
        <ele>84</ele>
        <time>2022-01-27T13:09:07Z</time>
      </trkpt>
      <trkpt lat="47.28576" lon="-1.59495">
        <ele>84</ele>
        <time>2022-01-27T13:09:08Z</time>
      </trkpt>
      <trkpt lat="47.28577" lon="-1.59495">
        <ele>84</ele>
        <time>2022-01-27T13:09:09Z</time>
      </trkpt>
      <trkpt lat="47.28579" lon="-1.59495">
        <ele>83</ele>
        <time>2022-01-27T13:09:10Z</time>
      </trkpt>
      <trkpt lat="47.2858" lon="-1.59496">
        <ele>83</ele>
        <time>2022-01-27T13:09:11Z</time>
      </trkpt>
      <trkpt lat="47.28581" lon="-1.59496">
        <ele>83</ele>
        <time>2022-01-27T13:09:12Z</time>
      </trkpt>
      <trkpt lat="47.28582" lon="-1.59497">
        <ele>83</ele>
        <time>2022-01-27T13:09:13Z</time>
      </trkpt>
      <trkpt lat="47.28584" lon="-1.59497">
        <ele>83</ele>
        <time>2022-01-27T13:09:14Z</time>
      </trkpt>
      <trkpt lat="47.28585" lon="-1.59498">
        <ele>83</ele>
        <time>2022-01-27T13:09:15Z</time>
      </trkpt>
      <trkpt lat="47.28585" lon="-1.59498">
        <ele>83</ele>
        <time>2022-01-27T13:09:16Z</time>
      </trkpt>
      <trkpt lat="47.28587" lon="-1.59498">
        <ele>83</ele>
        <time>2022-01-27T13:09:17Z</time>
      </trkpt>
      <trkpt lat="47.28588" lon="-1.59498">
        <ele>83</ele>
        <time>2022-01-27T13:09:18Z</time>
      </trkpt>
      <trkpt lat="47.2859" lon="-1.59498">
        <ele>83</ele>
        <time>2022-01-27T13:09:19Z</time>
      </trkpt>
      <trkpt lat="47.28591" lon="-1.59498">
        <ele>83</ele>
        <time>2022-01-27T13:09:20Z</time>
      </trkpt>
      <trkpt lat="47.28592" lon="-1.59499">
        <ele>83</ele>
        <time>2022-01-27T13:09:21Z</time>
      </trkpt>
      <trkpt lat="47.28593" lon="-1.59499">
        <ele>83</ele>
        <time>2022-01-27T13:09:22Z</time>
      </trkpt>
      <trkpt lat="47.28595" lon="-1.59499">
        <ele>83</ele>
        <time>2022-01-27T13:09:23Z</time>
      </trkpt>
      <trkpt lat="47.28596" lon="-1.59499">
        <ele>83</ele>
        <time>2022-01-27T13:09:24Z</time>
      </trkpt>
      <trkpt lat="47.28598" lon="-1.59499">
        <ele>82</ele>
        <time>2022-01-27T13:09:25Z</time>
      </trkpt>
      <trkpt lat="47.28599" lon="-1.595">
        <ele>82</ele>
        <time>2022-01-27T13:09:26Z</time>
      </trkpt>
      <trkpt lat="47.286" lon="-1.595">
        <ele>82</ele>
        <time>2022-01-27T13:09:27Z</time>
      </trkpt>
      <trkpt lat="47.28602" lon="-1.595">
        <ele>82</ele>
        <time>2022-01-27T13:09:28Z</time>
      </trkpt>
      <trkpt lat="47.28603" lon="-1.59501">
        <ele>82</ele>
        <time>2022-01-27T13:09:29Z</time>
      </trkpt>
      <trkpt lat="47.28605" lon="-1.59501">
        <ele>82</ele>
        <time>2022-01-27T13:09:30Z</time>
      </trkpt>
      <trkpt lat="47.28606" lon="-1.59501">
        <ele>82</ele>
        <time>2022-01-27T13:09:31Z</time>
      </trkpt>
      <trkpt lat="47.28607" lon="-1.59502">
        <ele>82</ele>
        <time>2022-01-27T13:09:32Z</time>
      </trkpt>
      <trkpt lat="47.28609" lon="-1.59502">
        <ele>81</ele>
        <time>2022-01-27T13:09:33Z</time>
      </trkpt>
      <trkpt lat="47.2861" lon="-1.59502">
        <ele>81</ele>
        <time>2022-01-27T13:09:34Z</time>
      </trkpt>
      <trkpt lat="47.28611" lon="-1.59503">
        <ele>81</ele>
        <time>2022-01-27T13:09:35Z</time>
      </trkpt>
      <trkpt lat="47.28613" lon="-1.59503">
        <ele>81</ele>
        <time>2022-01-27T13:09:36Z</time>
      </trkpt>
      <trkpt lat="47.28614" lon="-1.59504">
        <ele>81</ele>
        <time>2022-01-27T13:09:37Z</time>
      </trkpt>
      <trkpt lat="47.28615" lon="-1.59504">
        <ele>81</ele>
        <time>2022-01-27T13:09:38Z</time>
      </trkpt>
      <trkpt lat="47.28616" lon="-1.59504">
        <ele>81</ele>
        <time>2022-01-27T13:09:39Z</time>
      </trkpt>
      <trkpt lat="47.28617" lon="-1.59505">
        <ele>81</ele>
        <time>2022-01-27T13:09:40Z</time>
      </trkpt>
      <trkpt lat="47.28618" lon="-1.59506">
        <ele>81</ele>
        <time>2022-01-27T13:09:41Z</time>
      </trkpt>
      <trkpt lat="47.2862" lon="-1.59507">
        <ele>81</ele>
        <time>2022-01-27T13:09:42Z</time>
      </trkpt>
      <trkpt lat="47.28621" lon="-1.59507">
        <ele>80</ele>
        <time>2022-01-27T13:09:43Z</time>
      </trkpt>
      <trkpt lat="47.28622" lon="-1.59508">
        <ele>80</ele>
        <time>2022-01-27T13:09:44Z</time>
      </trkpt>
      <trkpt lat="47.28624" lon="-1.59508">
        <ele>80</ele>
        <time>2022-01-27T13:09:45Z</time>
      </trkpt>
      <trkpt lat="47.28625" lon="-1.59509">
        <ele>79</ele>
        <time>2022-01-27T13:09:46Z</time>
      </trkpt>
      <trkpt lat="47.28627" lon="-1.59509">
        <ele>79</ele>
        <time>2022-01-27T13:09:47Z</time>
      </trkpt>
      <trkpt lat="47.28628" lon="-1.59509">
        <ele>79</ele>
        <time>2022-01-27T13:09:48Z</time>
      </trkpt>
      <trkpt lat="47.28629" lon="-1.59509">
        <ele>79</ele>
        <time>2022-01-27T13:09:49Z</time>
      </trkpt>
      <trkpt lat="47.2863" lon="-1.5951">
        <ele>79</ele>
        <time>2022-01-27T13:09:50Z</time>
      </trkpt>
      <trkpt lat="47.28631" lon="-1.5951">
        <ele>79</ele>
        <time>2022-01-27T13:09:51Z</time>
      </trkpt>
      <trkpt lat="47.28632" lon="-1.59511">
        <ele>78</ele>
        <time>2022-01-27T13:09:52Z</time>
      </trkpt>
      <trkpt lat="47.28634" lon="-1.59511">
        <ele>78</ele>
        <time>2022-01-27T13:09:53Z</time>
      </trkpt>
      <trkpt lat="47.28635" lon="-1.59511">
        <ele>78</ele>
        <time>2022-01-27T13:09:54Z</time>
      </trkpt>
      <trkpt lat="47.28636" lon="-1.59512">
        <ele>78</ele>
        <time>2022-01-27T13:09:55Z</time>
      </trkpt>
      <trkpt lat="47.28637" lon="-1.59511">
        <ele>77</ele>
        <time>2022-01-27T13:09:56Z</time>
      </trkpt>
      <trkpt lat="47.28639" lon="-1.59511">
        <ele>77</ele>
        <time>2022-01-27T13:09:57Z</time>
      </trkpt>
      <trkpt lat="47.2864" lon="-1.59511">
        <ele>78</ele>
        <time>2022-01-27T13:09:58Z</time>
      </trkpt>
      <trkpt lat="47.28642" lon="-1.59512">
        <ele>78</ele>
        <time>2022-01-27T13:09:59Z</time>
      </trkpt>
      <trkpt lat="47.28644" lon="-1.59512">
        <ele>78</ele>
        <time>2022-01-27T13:10:00Z</time>
      </trkpt>
      <trkpt lat="47.28645" lon="-1.59512">
        <ele>78</ele>
        <time>2022-01-27T13:10:01Z</time>
      </trkpt>
      <trkpt lat="47.28647" lon="-1.59513">
        <ele>78</ele>
        <time>2022-01-27T13:10:02Z</time>
      </trkpt>
      <trkpt lat="47.28648" lon="-1.59513">
        <ele>78</ele>
        <time>2022-01-27T13:10:03Z</time>
      </trkpt>
      <trkpt lat="47.2865" lon="-1.59513">
        <ele>78</ele>
        <time>2022-01-27T13:10:04Z</time>
      </trkpt>
      <trkpt lat="47.28651" lon="-1.59514">
        <ele>78</ele>
        <time>2022-01-27T13:10:05Z</time>
      </trkpt>
      <trkpt lat="47.28652" lon="-1.59514">
        <ele>78</ele>
        <time>2022-01-27T13:10:06Z</time>
      </trkpt>
      <trkpt lat="47.28653" lon="-1.59514">
        <ele>78</ele>
        <time>2022-01-27T13:10:07Z</time>
      </trkpt>
      <trkpt lat="47.28655" lon="-1.59514">
        <ele>78</ele>
        <time>2022-01-27T13:10:08Z</time>
      </trkpt>
      <trkpt lat="47.28656" lon="-1.59514">
        <ele>78</ele>
        <time>2022-01-27T13:10:09Z</time>
      </trkpt>
      <trkpt lat="47.28657" lon="-1.59515">
        <ele>78</ele>
        <time>2022-01-27T13:10:10Z</time>
      </trkpt>
      <trkpt lat="47.28658" lon="-1.59515">
        <ele>78</ele>
        <time>2022-01-27T13:10:11Z</time>
      </trkpt>
      <trkpt lat="47.28659" lon="-1.59515">
        <ele>78</ele>
        <time>2022-01-27T13:10:12Z</time>
      </trkpt>
      <trkpt lat="47.28661" lon="-1.59516">
        <ele>78</ele>
        <time>2022-01-27T13:10:13Z</time>
      </trkpt>
      <trkpt lat="47.28661" lon="-1.59516">
        <ele>78</ele>
        <time>2022-01-27T13:10:14Z</time>
      </trkpt>
      <trkpt lat="47.28663" lon="-1.59517">
        <ele>78</ele>
        <time>2022-01-27T13:10:15Z</time>
      </trkpt>
      <trkpt lat="47.28664" lon="-1.59518">
        <ele>78</ele>
        <time>2022-01-27T13:10:16Z</time>
      </trkpt>
      <trkpt lat="47.28666" lon="-1.59519">
        <ele>78</ele>
        <time>2022-01-27T13:10:17Z</time>
      </trkpt>
      <trkpt lat="47.28667" lon="-1.5952">
        <ele>78</ele>
        <time>2022-01-27T13:10:18Z</time>
      </trkpt>
      <trkpt lat="47.28668" lon="-1.59521">
        <ele>78</ele>
        <time>2022-01-27T13:10:19Z</time>
      </trkpt>
      <trkpt lat="47.28669" lon="-1.59522">
        <ele>78</ele>
        <time>2022-01-27T13:10:20Z</time>
      </trkpt>
      <trkpt lat="47.2867" lon="-1.59522">
        <ele>78</ele>
        <time>2022-01-27T13:10:21Z</time>
      </trkpt>
      <trkpt lat="47.28671" lon="-1.59523">
        <ele>78</ele>
        <time>2022-01-27T13:10:22Z</time>
      </trkpt>
      <trkpt lat="47.28673" lon="-1.59523">
        <ele>78</ele>
        <time>2022-01-27T13:10:23Z</time>
      </trkpt>
      <trkpt lat="47.28674" lon="-1.59524">
        <ele>78</ele>
        <time>2022-01-27T13:10:24Z</time>
      </trkpt>
      <trkpt lat="47.28676" lon="-1.59525">
        <ele>78</ele>
        <time>2022-01-27T13:10:25Z</time>
      </trkpt>
      <trkpt lat="47.28677" lon="-1.59526">
        <ele>78</ele>
        <time>2022-01-27T13:10:26Z</time>
      </trkpt>
      <trkpt lat="47.28679" lon="-1.59527">
        <ele>78</ele>
        <time>2022-01-27T13:10:27Z</time>
      </trkpt>
      <trkpt lat="47.28679" lon="-1.59528">
        <ele>78</ele>
        <time>2022-01-27T13:10:28Z</time>
      </trkpt>
      <trkpt lat="47.2868" lon="-1.59528">
        <ele>78</ele>
        <time>2022-01-27T13:10:29Z</time>
      </trkpt>
      <trkpt lat="47.28681" lon="-1.59529">
        <ele>78</ele>
        <time>2022-01-27T13:10:30Z</time>
      </trkpt>
      <trkpt lat="47.28682" lon="-1.5953">
        <ele>78</ele>
        <time>2022-01-27T13:10:31Z</time>
      </trkpt>
      <trkpt lat="47.28684" lon="-1.59532">
        <ele>78</ele>
        <time>2022-01-27T13:10:32Z</time>
      </trkpt>
      <trkpt lat="47.28685" lon="-1.59532">
        <ele>78</ele>
        <time>2022-01-27T13:10:33Z</time>
      </trkpt>
      <trkpt lat="47.28686" lon="-1.59532">
        <ele>78</ele>
        <time>2022-01-27T13:10:34Z</time>
      </trkpt>
      <trkpt lat="47.28688" lon="-1.59533">
        <ele>78</ele>
        <time>2022-01-27T13:10:35Z</time>
      </trkpt>
      <trkpt lat="47.28688" lon="-1.59534">
        <ele>78</ele>
        <time>2022-01-27T13:10:36Z</time>
      </trkpt>
      <trkpt lat="47.28689" lon="-1.59535">
        <ele>78</ele>
        <time>2022-01-27T13:10:37Z</time>
      </trkpt>
      <trkpt lat="47.2869" lon="-1.59536">
        <ele>78</ele>
        <time>2022-01-27T13:10:38Z</time>
      </trkpt>
      <trkpt lat="47.28692" lon="-1.59537">
        <ele>78</ele>
        <time>2022-01-27T13:10:39Z</time>
      </trkpt>
      <trkpt lat="47.28693" lon="-1.59538">
        <ele>78</ele>
        <time>2022-01-27T13:10:40Z</time>
      </trkpt>
      <trkpt lat="47.28694" lon="-1.59539">
        <ele>78</ele>
        <time>2022-01-27T13:10:41Z</time>
      </trkpt>
      <trkpt lat="47.28695" lon="-1.59541">
        <ele>77</ele>
        <time>2022-01-27T13:10:42Z</time>
      </trkpt>
      <trkpt lat="47.28696" lon="-1.59542">
        <ele>77</ele>
        <time>2022-01-27T13:10:43Z</time>
      </trkpt>
      <trkpt lat="47.28698" lon="-1.59544">
        <ele>77</ele>
        <time>2022-01-27T13:10:44Z</time>
      </trkpt>
      <trkpt lat="47.287" lon="-1.59545">
        <ele>77</ele>
        <time>2022-01-27T13:10:45Z</time>
      </trkpt>
      <trkpt lat="47.28701" lon="-1.59547">
        <ele>78</ele>
        <time>2022-01-27T13:10:46Z</time>
      </trkpt>
      <trkpt lat="47.28702" lon="-1.59548">
        <ele>78</ele>
        <time>2022-01-27T13:10:47Z</time>
      </trkpt>
      <trkpt lat="47.28703" lon="-1.59549">
        <ele>78</ele>
        <time>2022-01-27T13:10:48Z</time>
      </trkpt>
      <trkpt lat="47.28705" lon="-1.5955">
        <ele>78</ele>
        <time>2022-01-27T13:10:49Z</time>
      </trkpt>
      <trkpt lat="47.28706" lon="-1.59552">
        <ele>78</ele>
        <time>2022-01-27T13:10:50Z</time>
      </trkpt>
      <trkpt lat="47.28707" lon="-1.59553">
        <ele>78</ele>
        <time>2022-01-27T13:10:51Z</time>
      </trkpt>
      <trkpt lat="47.28709" lon="-1.59554">
        <ele>78</ele>
        <time>2022-01-27T13:10:52Z</time>
      </trkpt>
      <trkpt lat="47.2871" lon="-1.59554">
        <ele>78</ele>
        <time>2022-01-27T13:10:53Z</time>
      </trkpt>
      <trkpt lat="47.28711" lon="-1.59555">
        <ele>78</ele>
        <time>2022-01-27T13:10:54Z</time>
      </trkpt>
      <trkpt lat="47.28712" lon="-1.59556">
        <ele>78</ele>
        <time>2022-01-27T13:10:55Z</time>
      </trkpt>
      <trkpt lat="47.28714" lon="-1.59557">
        <ele>78</ele>
        <time>2022-01-27T13:10:56Z</time>
      </trkpt>
      <trkpt lat="47.28715" lon="-1.59558">
        <ele>78</ele>
        <time>2022-01-27T13:10:57Z</time>
      </trkpt>
      <trkpt lat="47.28716" lon="-1.59559">
        <ele>78</ele>
        <time>2022-01-27T13:10:58Z</time>
      </trkpt>
      <trkpt lat="47.28718" lon="-1.5956">
        <ele>78</ele>
        <time>2022-01-27T13:10:59Z</time>
      </trkpt>
      <trkpt lat="47.28719" lon="-1.59561">
        <ele>78</ele>
        <time>2022-01-27T13:11:00Z</time>
      </trkpt>
      <trkpt lat="47.2872" lon="-1.59561">
        <ele>78</ele>
        <time>2022-01-27T13:11:01Z</time>
      </trkpt>
      <trkpt lat="47.28722" lon="-1.59561">
        <ele>78</ele>
        <time>2022-01-27T13:11:02Z</time>
      </trkpt>
      <trkpt lat="47.28723" lon="-1.59562">
        <ele>78</ele>
        <time>2022-01-27T13:11:03Z</time>
      </trkpt>
      <trkpt lat="47.28725" lon="-1.59564">
        <ele>78</ele>
        <time>2022-01-27T13:11:04Z</time>
      </trkpt>
      <trkpt lat="47.28727" lon="-1.59565">
        <ele>78</ele>
        <time>2022-01-27T13:11:05Z</time>
      </trkpt>
      <trkpt lat="47.28728" lon="-1.59565">
        <ele>78</ele>
        <time>2022-01-27T13:11:06Z</time>
      </trkpt>
      <trkpt lat="47.2873" lon="-1.59567">
        <ele>78</ele>
        <time>2022-01-27T13:11:07Z</time>
      </trkpt>
      <trkpt lat="47.28733" lon="-1.59569">
        <ele>79</ele>
        <time>2022-01-27T13:11:09Z</time>
      </trkpt>
      <trkpt lat="47.28735" lon="-1.59571">
        <ele>79</ele>
        <time>2022-01-27T13:11:11Z</time>
      </trkpt>
      <trkpt lat="47.28737" lon="-1.59573">
        <ele>79</ele>
        <time>2022-01-27T13:11:12Z</time>
      </trkpt>
      <trkpt lat="47.28738" lon="-1.59574">
        <ele>79</ele>
        <time>2022-01-27T13:11:13Z</time>
      </trkpt>
      <trkpt lat="47.28739" lon="-1.59576">
        <ele>79</ele>
        <time>2022-01-27T13:11:14Z</time>
      </trkpt>
      <trkpt lat="47.2874" lon="-1.59577">
        <ele>79</ele>
        <time>2022-01-27T13:11:15Z</time>
      </trkpt>
      <trkpt lat="47.28742" lon="-1.59579">
        <ele>79</ele>
        <time>2022-01-27T13:11:16Z</time>
      </trkpt>
      <trkpt lat="47.28742" lon="-1.5958">
        <ele>79</ele>
        <time>2022-01-27T13:11:17Z</time>
      </trkpt>
      <trkpt lat="47.28743" lon="-1.59581">
        <ele>79</ele>
        <time>2022-01-27T13:11:18Z</time>
      </trkpt>
      <trkpt lat="47.28744" lon="-1.59582">
        <ele>79</ele>
        <time>2022-01-27T13:11:19Z</time>
      </trkpt>
      <trkpt lat="47.28745" lon="-1.59583">
        <ele>79</ele>
        <time>2022-01-27T13:11:20Z</time>
      </trkpt>
      <trkpt lat="47.28746" lon="-1.59584">
        <ele>79</ele>
        <time>2022-01-27T13:11:21Z</time>
      </trkpt>
      <trkpt lat="47.28748" lon="-1.59586">
        <ele>79</ele>
        <time>2022-01-27T13:11:22Z</time>
      </trkpt>
      <trkpt lat="47.28749" lon="-1.59587">
        <ele>80</ele>
        <time>2022-01-27T13:11:23Z</time>
      </trkpt>
      <trkpt lat="47.2875" lon="-1.59588">
        <ele>80</ele>
        <time>2022-01-27T13:11:24Z</time>
      </trkpt>
      <trkpt lat="47.28751" lon="-1.5959">
        <ele>81</ele>
        <time>2022-01-27T13:11:25Z</time>
      </trkpt>
      <trkpt lat="47.28753" lon="-1.59591">
        <ele>81</ele>
        <time>2022-01-27T13:11:26Z</time>
      </trkpt>
      <trkpt lat="47.28753" lon="-1.59592">
        <ele>81</ele>
        <time>2022-01-27T13:11:27Z</time>
      </trkpt>
      <trkpt lat="47.28754" lon="-1.59593">
        <ele>81</ele>
        <time>2022-01-27T13:11:28Z</time>
      </trkpt>
      <trkpt lat="47.28756" lon="-1.59594">
        <ele>81</ele>
        <time>2022-01-27T13:11:29Z</time>
      </trkpt>
      <trkpt lat="47.28758" lon="-1.59596">
        <ele>82</ele>
        <time>2022-01-27T13:11:30Z</time>
      </trkpt>
      <trkpt lat="47.28758" lon="-1.59597">
        <ele>82</ele>
        <time>2022-01-27T13:11:31Z</time>
      </trkpt>
      <trkpt lat="47.28759" lon="-1.59598">
        <ele>82</ele>
        <time>2022-01-27T13:11:32Z</time>
      </trkpt>
      <trkpt lat="47.2876" lon="-1.596">
        <ele>82</ele>
        <time>2022-01-27T13:11:33Z</time>
      </trkpt>
      <trkpt lat="47.28761" lon="-1.59602">
        <ele>83</ele>
        <time>2022-01-27T13:11:34Z</time>
      </trkpt>
      <trkpt lat="47.28762" lon="-1.59603">
        <ele>82</ele>
        <time>2022-01-27T13:11:35Z</time>
      </trkpt>
      <trkpt lat="47.28763" lon="-1.59604">
        <ele>82</ele>
        <time>2022-01-27T13:11:36Z</time>
      </trkpt>
      <trkpt lat="47.28764" lon="-1.59606">
        <ele>83</ele>
        <time>2022-01-27T13:11:37Z</time>
      </trkpt>
      <trkpt lat="47.28766" lon="-1.59607">
        <ele>83</ele>
        <time>2022-01-27T13:11:38Z</time>
      </trkpt>
      <trkpt lat="47.28767" lon="-1.59609">
        <ele>83</ele>
        <time>2022-01-27T13:11:39Z</time>
      </trkpt>
      <trkpt lat="47.28767" lon="-1.5961">
        <ele>83</ele>
        <time>2022-01-27T13:11:40Z</time>
      </trkpt>
      <trkpt lat="47.28769" lon="-1.59611">
        <ele>83</ele>
        <time>2022-01-27T13:11:41Z</time>
      </trkpt>
      <trkpt lat="47.2877" lon="-1.59612">
        <ele>83</ele>
        <time>2022-01-27T13:11:42Z</time>
      </trkpt>
      <trkpt lat="47.28771" lon="-1.59614">
        <ele>83</ele>
        <time>2022-01-27T13:11:43Z</time>
      </trkpt>
      <trkpt lat="47.28772" lon="-1.59615">
        <ele>83</ele>
        <time>2022-01-27T13:11:44Z</time>
      </trkpt>
      <trkpt lat="47.28774" lon="-1.59616">
        <ele>83</ele>
        <time>2022-01-27T13:11:45Z</time>
      </trkpt>
      <trkpt lat="47.28774" lon="-1.59618">
        <ele>83</ele>
        <time>2022-01-27T13:11:46Z</time>
      </trkpt>
      <trkpt lat="47.28776" lon="-1.59619">
        <ele>82</ele>
        <time>2022-01-27T13:11:47Z</time>
      </trkpt>
      <trkpt lat="47.28777" lon="-1.5962">
        <ele>82</ele>
        <time>2022-01-27T13:11:48Z</time>
      </trkpt>
      <trkpt lat="47.28778" lon="-1.59621">
        <ele>82</ele>
        <time>2022-01-27T13:11:49Z</time>
      </trkpt>
      <trkpt lat="47.28779" lon="-1.59622">
        <ele>82</ele>
        <time>2022-01-27T13:11:50Z</time>
      </trkpt>
      <trkpt lat="47.2878" lon="-1.59624">
        <ele>82</ele>
        <time>2022-01-27T13:11:51Z</time>
      </trkpt>
      <trkpt lat="47.28781" lon="-1.59626">
        <ele>82</ele>
        <time>2022-01-27T13:11:52Z</time>
      </trkpt>
      <trkpt lat="47.28782" lon="-1.59627">
        <ele>82</ele>
        <time>2022-01-27T13:11:53Z</time>
      </trkpt>
      <trkpt lat="47.28783" lon="-1.59628">
        <ele>82</ele>
        <time>2022-01-27T13:11:54Z</time>
      </trkpt>
      <trkpt lat="47.28784" lon="-1.59629">
        <ele>82</ele>
        <time>2022-01-27T13:11:55Z</time>
      </trkpt>
      <trkpt lat="47.28785" lon="-1.5963">
        <ele>82</ele>
        <time>2022-01-27T13:11:56Z</time>
      </trkpt>
      <trkpt lat="47.28787" lon="-1.59631">
        <ele>82</ele>
        <time>2022-01-27T13:11:57Z</time>
      </trkpt>
      <trkpt lat="47.28788" lon="-1.59632">
        <ele>82</ele>
        <time>2022-01-27T13:11:58Z</time>
      </trkpt>
      <trkpt lat="47.28789" lon="-1.59633">
        <ele>82</ele>
        <time>2022-01-27T13:11:59Z</time>
      </trkpt>
      <trkpt lat="47.2879" lon="-1.59633">
        <ele>82</ele>
        <time>2022-01-27T13:12:00Z</time>
      </trkpt>
      <trkpt lat="47.28791" lon="-1.59634">
        <ele>83</ele>
        <time>2022-01-27T13:12:01Z</time>
      </trkpt>
      <trkpt lat="47.28793" lon="-1.59636">
        <ele>82</ele>
        <time>2022-01-27T13:12:02Z</time>
      </trkpt>
      <trkpt lat="47.28793" lon="-1.59637">
        <ele>82</ele>
        <time>2022-01-27T13:12:03Z</time>
      </trkpt>
      <trkpt lat="47.28795" lon="-1.59637">
        <ele>82</ele>
        <time>2022-01-27T13:12:04Z</time>
      </trkpt>
      <trkpt lat="47.28796" lon="-1.59638">
        <ele>82</ele>
        <time>2022-01-27T13:12:05Z</time>
      </trkpt>
      <trkpt lat="47.28797" lon="-1.59639">
        <ele>82</ele>
        <time>2022-01-27T13:12:06Z</time>
      </trkpt>
      <trkpt lat="47.28799" lon="-1.5964">
        <ele>82</ele>
        <time>2022-01-27T13:12:07Z</time>
      </trkpt>
      <trkpt lat="47.288" lon="-1.5964">
        <ele>82</ele>
        <time>2022-01-27T13:12:08Z</time>
      </trkpt>
      <trkpt lat="47.28801" lon="-1.59642">
        <ele>83</ele>
        <time>2022-01-27T13:12:09Z</time>
      </trkpt>
      <trkpt lat="47.28802" lon="-1.59643">
        <ele>83</ele>
        <time>2022-01-27T13:12:10Z</time>
      </trkpt>
      <trkpt lat="47.28803" lon="-1.59644">
        <ele>83</ele>
        <time>2022-01-27T13:12:11Z</time>
      </trkpt>
      <trkpt lat="47.28804" lon="-1.59646">
        <ele>83</ele>
        <time>2022-01-27T13:12:12Z</time>
      </trkpt>
      <trkpt lat="47.28805" lon="-1.59647">
        <ele>83</ele>
        <time>2022-01-27T13:12:13Z</time>
      </trkpt>
      <trkpt lat="47.28806" lon="-1.59648">
        <ele>83</ele>
        <time>2022-01-27T13:12:14Z</time>
      </trkpt>
      <trkpt lat="47.28807" lon="-1.59649">
        <ele>83</ele>
        <time>2022-01-27T13:12:15Z</time>
      </trkpt>
      <trkpt lat="47.28808" lon="-1.5965">
        <ele>83</ele>
        <time>2022-01-27T13:12:16Z</time>
      </trkpt>
      <trkpt lat="47.2881" lon="-1.5965">
        <ele>82</ele>
        <time>2022-01-27T13:12:17Z</time>
      </trkpt>
      <trkpt lat="47.28811" lon="-1.59651">
        <ele>82</ele>
        <time>2022-01-27T13:12:18Z</time>
      </trkpt>
      <trkpt lat="47.28812" lon="-1.59651">
        <ele>82</ele>
        <time>2022-01-27T13:12:19Z</time>
      </trkpt>
      <trkpt lat="47.28814" lon="-1.59652">
        <ele>83</ele>
        <time>2022-01-27T13:12:20Z</time>
      </trkpt>
      <trkpt lat="47.28815" lon="-1.59653">
        <ele>82</ele>
        <time>2022-01-27T13:12:21Z</time>
      </trkpt>
      <trkpt lat="47.28816" lon="-1.59653">
        <ele>82</ele>
        <time>2022-01-27T13:12:22Z</time>
      </trkpt>
      <trkpt lat="47.28817" lon="-1.59653">
        <ele>83</ele>
        <time>2022-01-27T13:12:23Z</time>
      </trkpt>
      <trkpt lat="47.28819" lon="-1.59653">
        <ele>83</ele>
        <time>2022-01-27T13:12:24Z</time>
      </trkpt>
      <trkpt lat="47.2882" lon="-1.59654">
        <ele>83</ele>
        <time>2022-01-27T13:12:25Z</time>
      </trkpt>
      <trkpt lat="47.28822" lon="-1.59654">
        <ele>83</ele>
        <time>2022-01-27T13:12:26Z</time>
      </trkpt>
      <trkpt lat="47.28823" lon="-1.59655">
        <ele>83</ele>
        <time>2022-01-27T13:12:27Z</time>
      </trkpt>
      <trkpt lat="47.28825" lon="-1.59655">
        <ele>83</ele>
        <time>2022-01-27T13:12:28Z</time>
      </trkpt>
      <trkpt lat="47.28826" lon="-1.59655">
        <ele>84</ele>
        <time>2022-01-27T13:12:29Z</time>
      </trkpt>
      <trkpt lat="47.28828" lon="-1.59655">
        <ele>84</ele>
        <time>2022-01-27T13:12:30Z</time>
      </trkpt>
      <trkpt lat="47.28829" lon="-1.59655">
        <ele>85</ele>
        <time>2022-01-27T13:12:31Z</time>
      </trkpt>
      <trkpt lat="47.28831" lon="-1.59655">
        <ele>85</ele>
        <time>2022-01-27T13:12:32Z</time>
      </trkpt>
      <trkpt lat="47.28832" lon="-1.59655">
        <ele>85</ele>
        <time>2022-01-27T13:12:33Z</time>
      </trkpt>
      <trkpt lat="47.28834" lon="-1.59655">
        <ele>86</ele>
        <time>2022-01-27T13:12:34Z</time>
      </trkpt>
      <trkpt lat="47.28835" lon="-1.59655">
        <ele>86</ele>
        <time>2022-01-27T13:12:35Z</time>
      </trkpt>
      <trkpt lat="47.28836" lon="-1.59655">
        <ele>86</ele>
        <time>2022-01-27T13:12:36Z</time>
      </trkpt>
      <trkpt lat="47.28838" lon="-1.59655">
        <ele>87</ele>
        <time>2022-01-27T13:12:37Z</time>
      </trkpt>
      <trkpt lat="47.2884" lon="-1.59655">
        <ele>88</ele>
        <time>2022-01-27T13:12:38Z</time>
      </trkpt>
      <trkpt lat="47.28841" lon="-1.59656">
        <ele>88</ele>
        <time>2022-01-27T13:12:39Z</time>
      </trkpt>
      <trkpt lat="47.28843" lon="-1.59655">
        <ele>89</ele>
        <time>2022-01-27T13:12:40Z</time>
      </trkpt>
      <trkpt lat="47.28844" lon="-1.59656">
        <ele>89</ele>
        <time>2022-01-27T13:12:41Z</time>
      </trkpt>
      <trkpt lat="47.28846" lon="-1.59656">
        <ele>90</ele>
        <time>2022-01-27T13:12:42Z</time>
      </trkpt>
      <trkpt lat="47.28848" lon="-1.59656">
        <ele>90</ele>
        <time>2022-01-27T13:12:43Z</time>
      </trkpt>
      <trkpt lat="47.28849" lon="-1.59655">
        <ele>90</ele>
        <time>2022-01-27T13:12:44Z</time>
      </trkpt>
      <trkpt lat="47.28851" lon="-1.59655">
        <ele>91</ele>
        <time>2022-01-27T13:12:45Z</time>
      </trkpt>
      <trkpt lat="47.28852" lon="-1.59655">
        <ele>91</ele>
        <time>2022-01-27T13:12:46Z</time>
      </trkpt>
      <trkpt lat="47.28853" lon="-1.59655">
        <ele>91</ele>
        <time>2022-01-27T13:12:47Z</time>
      </trkpt>
      <trkpt lat="47.28855" lon="-1.59655">
        <ele>92</ele>
        <time>2022-01-27T13:12:48Z</time>
      </trkpt>
      <trkpt lat="47.28856" lon="-1.59655">
        <ele>92</ele>
        <time>2022-01-27T13:12:49Z</time>
      </trkpt>
      <trkpt lat="47.28859" lon="-1.59655">
        <ele>93</ele>
        <time>2022-01-27T13:12:51Z</time>
      </trkpt>
      <trkpt lat="47.28861" lon="-1.59654">
        <ele>92</ele>
        <time>2022-01-27T13:12:52Z</time>
      </trkpt>
      <trkpt lat="47.28862" lon="-1.59654">
        <ele>92</ele>
        <time>2022-01-27T13:12:53Z</time>
      </trkpt>
      <trkpt lat="47.28863" lon="-1.59654">
        <ele>92</ele>
        <time>2022-01-27T13:12:54Z</time>
      </trkpt>
      <trkpt lat="47.28865" lon="-1.59655">
        <ele>93</ele>
        <time>2022-01-27T13:12:55Z</time>
      </trkpt>
      <trkpt lat="47.28866" lon="-1.59654">
        <ele>93</ele>
        <time>2022-01-27T13:12:56Z</time>
      </trkpt>
      <trkpt lat="47.28868" lon="-1.59654">
        <ele>93</ele>
        <time>2022-01-27T13:12:57Z</time>
      </trkpt>
      <trkpt lat="47.28869" lon="-1.59653">
        <ele>93</ele>
        <time>2022-01-27T13:12:58Z</time>
      </trkpt>
      <trkpt lat="47.2887" lon="-1.59653">
        <ele>93</ele>
        <time>2022-01-27T13:12:59Z</time>
      </trkpt>
      <trkpt lat="47.28872" lon="-1.59653">
        <ele>93</ele>
        <time>2022-01-27T13:13:00Z</time>
      </trkpt>
      <trkpt lat="47.28873" lon="-1.59652">
        <ele>93</ele>
        <time>2022-01-27T13:13:01Z</time>
      </trkpt>
      <trkpt lat="47.28874" lon="-1.59652">
        <ele>93</ele>
        <time>2022-01-27T13:13:02Z</time>
      </trkpt>
      <trkpt lat="47.28876" lon="-1.59653">
        <ele>94</ele>
        <time>2022-01-27T13:13:03Z</time>
      </trkpt>
      <trkpt lat="47.28877" lon="-1.59653">
        <ele>93</ele>
        <time>2022-01-27T13:13:04Z</time>
      </trkpt>
      <trkpt lat="47.28878" lon="-1.59653">
        <ele>93</ele>
        <time>2022-01-27T13:13:05Z</time>
      </trkpt>
      <trkpt lat="47.2888" lon="-1.59653">
        <ele>93</ele>
        <time>2022-01-27T13:13:06Z</time>
      </trkpt>
      <trkpt lat="47.28881" lon="-1.59653">
        <ele>93</ele>
        <time>2022-01-27T13:13:07Z</time>
      </trkpt>
      <trkpt lat="47.28883" lon="-1.59652">
        <ele>94</ele>
        <time>2022-01-27T13:13:08Z</time>
      </trkpt>
      <trkpt lat="47.28884" lon="-1.59652">
        <ele>94</ele>
        <time>2022-01-27T13:13:09Z</time>
      </trkpt>
      <trkpt lat="47.28885" lon="-1.59652">
        <ele>93</ele>
        <time>2022-01-27T13:13:10Z</time>
      </trkpt>
      <trkpt lat="47.28887" lon="-1.59652">
        <ele>94</ele>
        <time>2022-01-27T13:13:11Z</time>
      </trkpt>
      <trkpt lat="47.28888" lon="-1.59652">
        <ele>94</ele>
        <time>2022-01-27T13:13:12Z</time>
      </trkpt>
      <trkpt lat="47.28889" lon="-1.59651">
        <ele>94</ele>
        <time>2022-01-27T13:13:13Z</time>
      </trkpt>
      <trkpt lat="47.2889" lon="-1.59652">
        <ele>94</ele>
        <time>2022-01-27T13:13:14Z</time>
      </trkpt>
      <trkpt lat="47.28891" lon="-1.59652">
        <ele>94</ele>
        <time>2022-01-27T13:13:15Z</time>
      </trkpt>
      <trkpt lat="47.28893" lon="-1.59652">
        <ele>94</ele>
        <time>2022-01-27T13:13:16Z</time>
      </trkpt>
      <trkpt lat="47.28894" lon="-1.59653">
        <ele>94</ele>
        <time>2022-01-27T13:13:17Z</time>
      </trkpt>
      <trkpt lat="47.28896" lon="-1.59653">
        <ele>95</ele>
        <time>2022-01-27T13:13:18Z</time>
      </trkpt>
      <trkpt lat="47.28897" lon="-1.59653">
        <ele>95</ele>
        <time>2022-01-27T13:13:19Z</time>
      </trkpt>
      <trkpt lat="47.28898" lon="-1.59653">
        <ele>95</ele>
        <time>2022-01-27T13:13:20Z</time>
      </trkpt>
      <trkpt lat="47.289" lon="-1.59653">
        <ele>95</ele>
        <time>2022-01-27T13:13:21Z</time>
      </trkpt>
      <trkpt lat="47.28901" lon="-1.59653">
        <ele>95</ele>
        <time>2022-01-27T13:13:22Z</time>
      </trkpt>
      <trkpt lat="47.28902" lon="-1.59653">
        <ele>96</ele>
        <time>2022-01-27T13:13:23Z</time>
      </trkpt>
      <trkpt lat="47.28904" lon="-1.59653">
        <ele>96</ele>
        <time>2022-01-27T13:13:24Z</time>
      </trkpt>
      <trkpt lat="47.28905" lon="-1.59653">
        <ele>96</ele>
        <time>2022-01-27T13:13:25Z</time>
      </trkpt>
      <trkpt lat="47.28907" lon="-1.59653">
        <ele>96</ele>
        <time>2022-01-27T13:13:26Z</time>
      </trkpt>
      <trkpt lat="47.28908" lon="-1.59652">
        <ele>96</ele>
        <time>2022-01-27T13:13:27Z</time>
      </trkpt>
      <trkpt lat="47.28909" lon="-1.59652">
        <ele>96</ele>
        <time>2022-01-27T13:13:28Z</time>
      </trkpt>
      <trkpt lat="47.2891" lon="-1.59652">
        <ele>96</ele>
        <time>2022-01-27T13:13:29Z</time>
      </trkpt>
      <trkpt lat="47.28912" lon="-1.59651">
        <ele>96</ele>
        <time>2022-01-27T13:13:30Z</time>
      </trkpt>
      <trkpt lat="47.28914" lon="-1.59651">
        <ele>97</ele>
        <time>2022-01-27T13:13:31Z</time>
      </trkpt>
      <trkpt lat="47.28915" lon="-1.59651">
        <ele>97</ele>
        <time>2022-01-27T13:13:32Z</time>
      </trkpt>
      <trkpt lat="47.28917" lon="-1.59651">
        <ele>98</ele>
        <time>2022-01-27T13:13:33Z</time>
      </trkpt>
      <trkpt lat="47.28918" lon="-1.59651">
        <ele>98</ele>
        <time>2022-01-27T13:13:34Z</time>
      </trkpt>
      <trkpt lat="47.2892" lon="-1.59651">
        <ele>98</ele>
        <time>2022-01-27T13:13:35Z</time>
      </trkpt>
      <trkpt lat="47.28921" lon="-1.59651">
        <ele>98</ele>
        <time>2022-01-27T13:13:36Z</time>
      </trkpt>
      <trkpt lat="47.28922" lon="-1.59651">
        <ele>99</ele>
        <time>2022-01-27T13:13:37Z</time>
      </trkpt>
      <trkpt lat="47.28922" lon="-1.59651">
        <ele>99</ele>
        <time>2022-01-27T13:13:37Z</time>
      </trkpt>
      <trkpt lat="47.28924" lon="-1.59651">
        <ele>99</ele>
        <time>2022-01-27T13:13:39Z</time>
      </trkpt>
      <trkpt lat="47.28925" lon="-1.59652">
        <ele>99</ele>
        <time>2022-01-27T13:13:40Z</time>
      </trkpt>
      <trkpt lat="47.28926" lon="-1.59652">
        <ele>99</ele>
        <time>2022-01-27T13:13:41Z</time>
      </trkpt>
      <trkpt lat="47.28927" lon="-1.59652">
        <ele>99</ele>
        <time>2022-01-27T13:13:42Z</time>
      </trkpt>
      <trkpt lat="47.28929" lon="-1.59653">
        <ele>99</ele>
        <time>2022-01-27T13:13:43Z</time>
      </trkpt>
      <trkpt lat="47.2893" lon="-1.59652">
        <ele>100</ele>
        <time>2022-01-27T13:13:44Z</time>
      </trkpt>
      <trkpt lat="47.28931" lon="-1.59653">
        <ele>100</ele>
        <time>2022-01-27T13:13:45Z</time>
      </trkpt>
      <trkpt lat="47.28932" lon="-1.59653">
        <ele>100</ele>
        <time>2022-01-27T13:13:46Z</time>
      </trkpt>
      <trkpt lat="47.28934" lon="-1.59653">
        <ele>100</ele>
        <time>2022-01-27T13:13:47Z</time>
      </trkpt>
      <trkpt lat="47.28935" lon="-1.59653">
        <ele>100</ele>
        <time>2022-01-27T13:13:48Z</time>
      </trkpt>
      <trkpt lat="47.28937" lon="-1.59653">
        <ele>100</ele>
        <time>2022-01-27T13:13:49Z</time>
      </trkpt>
      <trkpt lat="47.28938" lon="-1.59654">
        <ele>100</ele>
        <time>2022-01-27T13:13:50Z</time>
      </trkpt>
      <trkpt lat="47.28939" lon="-1.59654">
        <ele>100</ele>
        <time>2022-01-27T13:13:51Z</time>
      </trkpt>
      <trkpt lat="47.28941" lon="-1.59655">
        <ele>100</ele>
        <time>2022-01-27T13:13:52Z</time>
      </trkpt>
      <trkpt lat="47.28942" lon="-1.59656">
        <ele>100</ele>
        <time>2022-01-27T13:13:53Z</time>
      </trkpt>
      <trkpt lat="47.28944" lon="-1.59656">
        <ele>100</ele>
        <time>2022-01-27T13:13:54Z</time>
      </trkpt>
      <trkpt lat="47.28945" lon="-1.59656">
        <ele>100</ele>
        <time>2022-01-27T13:13:55Z</time>
      </trkpt>
      <trkpt lat="47.28947" lon="-1.59657">
        <ele>100</ele>
        <time>2022-01-27T13:13:56Z</time>
      </trkpt>
      <trkpt lat="47.28948" lon="-1.59657">
        <ele>100</ele>
        <time>2022-01-27T13:13:57Z</time>
      </trkpt>
      <trkpt lat="47.2895" lon="-1.59658">
        <ele>99</ele>
        <time>2022-01-27T13:13:58Z</time>
      </trkpt>
      <trkpt lat="47.28951" lon="-1.59658">
        <ele>99</ele>
        <time>2022-01-27T13:13:59Z</time>
      </trkpt>
      <trkpt lat="47.28952" lon="-1.59658">
        <ele>99</ele>
        <time>2022-01-27T13:14:00Z</time>
      </trkpt>
      <trkpt lat="47.28954" lon="-1.59658">
        <ele>99</ele>
        <time>2022-01-27T13:14:01Z</time>
      </trkpt>
      <trkpt lat="47.28955" lon="-1.59658">
        <ele>99</ele>
        <time>2022-01-27T13:14:02Z</time>
      </trkpt>
      <trkpt lat="47.28956" lon="-1.59658">
        <ele>99</ele>
        <time>2022-01-27T13:14:03Z</time>
      </trkpt>
      <trkpt lat="47.28957" lon="-1.59658">
        <ele>99</ele>
        <time>2022-01-27T13:14:04Z</time>
      </trkpt>
      <trkpt lat="47.28959" lon="-1.59659">
        <ele>99</ele>
        <time>2022-01-27T13:14:05Z</time>
      </trkpt>
      <trkpt lat="47.2896" lon="-1.5966">
        <ele>99</ele>
        <time>2022-01-27T13:14:06Z</time>
      </trkpt>
      <trkpt lat="47.2896" lon="-1.59659">
        <ele>99</ele>
        <time>2022-01-27T13:14:07Z</time>
      </trkpt>
      <trkpt lat="47.28962" lon="-1.59659">
        <ele>99</ele>
        <time>2022-01-27T13:14:08Z</time>
      </trkpt>
      <trkpt lat="47.28963" lon="-1.59659">
        <ele>99</ele>
        <time>2022-01-27T13:14:09Z</time>
      </trkpt>
      <trkpt lat="47.28964" lon="-1.59659">
        <ele>99</ele>
        <time>2022-01-27T13:14:10Z</time>
      </trkpt>
      <trkpt lat="47.28965" lon="-1.5966">
        <ele>99</ele>
        <time>2022-01-27T13:14:11Z</time>
      </trkpt>
      <trkpt lat="47.28966" lon="-1.5966">
        <ele>99</ele>
        <time>2022-01-27T13:14:12Z</time>
      </trkpt>
      <trkpt lat="47.28967" lon="-1.59661">
        <ele>99</ele>
        <time>2022-01-27T13:14:13Z</time>
      </trkpt>
      <trkpt lat="47.28968" lon="-1.59662">
        <ele>98</ele>
        <time>2022-01-27T13:14:14Z</time>
      </trkpt>
      <trkpt lat="47.2897" lon="-1.59662">
        <ele>98</ele>
        <time>2022-01-27T13:14:15Z</time>
      </trkpt>
      <trkpt lat="47.28971" lon="-1.59662">
        <ele>98</ele>
        <time>2022-01-27T13:14:16Z</time>
      </trkpt>
      <trkpt lat="47.28973" lon="-1.59662">
        <ele>98</ele>
        <time>2022-01-27T13:14:17Z</time>
      </trkpt>
      <trkpt lat="47.28974" lon="-1.59663">
        <ele>97</ele>
        <time>2022-01-27T13:14:18Z</time>
      </trkpt>
      <trkpt lat="47.28975" lon="-1.59663">
        <ele>97</ele>
        <time>2022-01-27T13:14:19Z</time>
      </trkpt>
      <trkpt lat="47.28976" lon="-1.59663">
        <ele>97</ele>
        <time>2022-01-27T13:14:20Z</time>
      </trkpt>
      <trkpt lat="47.28978" lon="-1.59664">
        <ele>97</ele>
        <time>2022-01-27T13:14:21Z</time>
      </trkpt>
      <trkpt lat="47.28979" lon="-1.59665">
        <ele>97</ele>
        <time>2022-01-27T13:14:22Z</time>
      </trkpt>
      <trkpt lat="47.2898" lon="-1.59665">
        <ele>97</ele>
        <time>2022-01-27T13:14:23Z</time>
      </trkpt>
      <trkpt lat="47.28982" lon="-1.59666">
        <ele>97</ele>
        <time>2022-01-27T13:14:24Z</time>
      </trkpt>
      <trkpt lat="47.28983" lon="-1.59666">
        <ele>97</ele>
        <time>2022-01-27T13:14:25Z</time>
      </trkpt>
      <trkpt lat="47.28984" lon="-1.59666">
        <ele>97</ele>
        <time>2022-01-27T13:14:26Z</time>
      </trkpt>
      <trkpt lat="47.28985" lon="-1.59667">
        <ele>97</ele>
        <time>2022-01-27T13:14:27Z</time>
      </trkpt>
      <trkpt lat="47.28987" lon="-1.59667">
        <ele>97</ele>
        <time>2022-01-27T13:14:28Z</time>
      </trkpt>
      <trkpt lat="47.28989" lon="-1.59667">
        <ele>97</ele>
        <time>2022-01-27T13:14:29Z</time>
      </trkpt>
      <trkpt lat="47.2899" lon="-1.59668">
        <ele>97</ele>
        <time>2022-01-27T13:14:30Z</time>
      </trkpt>
      <trkpt lat="47.28991" lon="-1.59669">
        <ele>97</ele>
        <time>2022-01-27T13:14:31Z</time>
      </trkpt>
      <trkpt lat="47.28993" lon="-1.59669">
        <ele>97</ele>
        <time>2022-01-27T13:14:32Z</time>
      </trkpt>
      <trkpt lat="47.28994" lon="-1.5967">
        <ele>97</ele>
        <time>2022-01-27T13:14:33Z</time>
      </trkpt>
      <trkpt lat="47.28995" lon="-1.5967">
        <ele>97</ele>
        <time>2022-01-27T13:14:34Z</time>
      </trkpt>
      <trkpt lat="47.28997" lon="-1.59671">
        <ele>97</ele>
        <time>2022-01-27T13:14:35Z</time>
      </trkpt>
      <trkpt lat="47.28998" lon="-1.59671">
        <ele>96</ele>
        <time>2022-01-27T13:14:36Z</time>
      </trkpt>
      <trkpt lat="47.28999" lon="-1.59672">
        <ele>96</ele>
        <time>2022-01-27T13:14:37Z</time>
      </trkpt>
      <trkpt lat="47.29" lon="-1.59671">
        <ele>96</ele>
        <time>2022-01-27T13:14:38Z</time>
      </trkpt>
      <trkpt lat="47.29001" lon="-1.59672">
        <ele>96</ele>
        <time>2022-01-27T13:14:39Z</time>
      </trkpt>
      <trkpt lat="47.29002" lon="-1.59672">
        <ele>96</ele>
        <time>2022-01-27T13:14:40Z</time>
      </trkpt>
      <trkpt lat="47.29004" lon="-1.59673">
        <ele>96</ele>
        <time>2022-01-27T13:14:41Z</time>
      </trkpt>
      <trkpt lat="47.29004" lon="-1.59674">
        <ele>96</ele>
        <time>2022-01-27T13:14:42Z</time>
      </trkpt>
      <trkpt lat="47.29005" lon="-1.59674">
        <ele>96</ele>
        <time>2022-01-27T13:14:43Z</time>
      </trkpt>
      <trkpt lat="47.29006" lon="-1.59675">
        <ele>96</ele>
        <time>2022-01-27T13:14:44Z</time>
      </trkpt>
      <trkpt lat="47.29007" lon="-1.59676">
        <ele>96</ele>
        <time>2022-01-27T13:14:45Z</time>
      </trkpt>
      <trkpt lat="47.29009" lon="-1.59677">
        <ele>96</ele>
        <time>2022-01-27T13:14:46Z</time>
      </trkpt>
      <trkpt lat="47.2901" lon="-1.59677">
        <ele>96</ele>
        <time>2022-01-27T13:14:47Z</time>
      </trkpt>
      <trkpt lat="47.29011" lon="-1.59678">
        <ele>96</ele>
        <time>2022-01-27T13:14:48Z</time>
      </trkpt>
      <trkpt lat="47.29013" lon="-1.59678">
        <ele>96</ele>
        <time>2022-01-27T13:14:49Z</time>
      </trkpt>
      <trkpt lat="47.29015" lon="-1.59679">
        <ele>96</ele>
        <time>2022-01-27T13:14:50Z</time>
      </trkpt>
      <trkpt lat="47.29016" lon="-1.59679">
        <ele>96</ele>
        <time>2022-01-27T13:14:51Z</time>
      </trkpt>
      <trkpt lat="47.29017" lon="-1.59679">
        <ele>95</ele>
        <time>2022-01-27T13:14:52Z</time>
      </trkpt>
      <trkpt lat="47.29018" lon="-1.5968">
        <ele>95</ele>
        <time>2022-01-27T13:14:53Z</time>
      </trkpt>
      <trkpt lat="47.2902" lon="-1.5968">
        <ele>95</ele>
        <time>2022-01-27T13:14:54Z</time>
      </trkpt>
      <trkpt lat="47.29021" lon="-1.59681">
        <ele>95</ele>
        <time>2022-01-27T13:14:55Z</time>
      </trkpt>
      <trkpt lat="47.29023" lon="-1.59681">
        <ele>95</ele>
        <time>2022-01-27T13:14:56Z</time>
      </trkpt>
      <trkpt lat="47.29024" lon="-1.59681">
        <ele>95</ele>
        <time>2022-01-27T13:14:57Z</time>
      </trkpt>
      <trkpt lat="47.29025" lon="-1.59682">
        <ele>94</ele>
        <time>2022-01-27T13:14:58Z</time>
      </trkpt>
      <trkpt lat="47.29026" lon="-1.59682">
        <ele>94</ele>
        <time>2022-01-27T13:14:59Z</time>
      </trkpt>
      <trkpt lat="47.29028" lon="-1.59683">
        <ele>94</ele>
        <time>2022-01-27T13:15:00Z</time>
      </trkpt>
      <trkpt lat="47.29029" lon="-1.59683">
        <ele>94</ele>
        <time>2022-01-27T13:15:01Z</time>
      </trkpt>
      <trkpt lat="47.2903" lon="-1.59683">
        <ele>93</ele>
        <time>2022-01-27T13:15:02Z</time>
      </trkpt>
      <trkpt lat="47.29031" lon="-1.59683">
        <ele>93</ele>
        <time>2022-01-27T13:15:03Z</time>
      </trkpt>
      <trkpt lat="47.29032" lon="-1.59683">
        <ele>93</ele>
        <time>2022-01-27T13:15:04Z</time>
      </trkpt>
      <trkpt lat="47.29033" lon="-1.59683">
        <ele>93</ele>
        <time>2022-01-27T13:15:05Z</time>
      </trkpt>
      <trkpt lat="47.29034" lon="-1.59683">
        <ele>93</ele>
        <time>2022-01-27T13:15:06Z</time>
      </trkpt>
      <trkpt lat="47.29036" lon="-1.59684">
        <ele>93</ele>
        <time>2022-01-27T13:15:07Z</time>
      </trkpt>
      <trkpt lat="47.29037" lon="-1.59685">
        <ele>93</ele>
        <time>2022-01-27T13:15:08Z</time>
      </trkpt>
      <trkpt lat="47.29038" lon="-1.59686">
        <ele>93</ele>
        <time>2022-01-27T13:15:09Z</time>
      </trkpt>
      <trkpt lat="47.29039" lon="-1.59686">
        <ele>93</ele>
        <time>2022-01-27T13:15:10Z</time>
      </trkpt>
      <trkpt lat="47.2904" lon="-1.59686">
        <ele>93</ele>
        <time>2022-01-27T13:15:11Z</time>
      </trkpt>
      <trkpt lat="47.29041" lon="-1.59687">
        <ele>93</ele>
        <time>2022-01-27T13:15:12Z</time>
      </trkpt>
      <trkpt lat="47.29042" lon="-1.59688">
        <ele>93</ele>
        <time>2022-01-27T13:15:13Z</time>
      </trkpt>
      <trkpt lat="47.29043" lon="-1.59688">
        <ele>93</ele>
        <time>2022-01-27T13:15:14Z</time>
      </trkpt>
      <trkpt lat="47.29045" lon="-1.59689">
        <ele>93</ele>
        <time>2022-01-27T13:15:15Z</time>
      </trkpt>
      <trkpt lat="47.29046" lon="-1.59689">
        <ele>93</ele>
        <time>2022-01-27T13:15:16Z</time>
      </trkpt>
      <trkpt lat="47.29047" lon="-1.59689">
        <ele>92</ele>
        <time>2022-01-27T13:15:17Z</time>
      </trkpt>
      <trkpt lat="47.29049" lon="-1.5969">
        <ele>92</ele>
        <time>2022-01-27T13:15:18Z</time>
      </trkpt>
      <trkpt lat="47.2905" lon="-1.5969">
        <ele>91</ele>
        <time>2022-01-27T13:15:19Z</time>
      </trkpt>
      <trkpt lat="47.29051" lon="-1.5969">
        <ele>91</ele>
        <time>2022-01-27T13:15:20Z</time>
      </trkpt>
      <trkpt lat="47.29052" lon="-1.59691">
        <ele>91</ele>
        <time>2022-01-27T13:15:21Z</time>
      </trkpt>
      <trkpt lat="47.29053" lon="-1.59691">
        <ele>90</ele>
        <time>2022-01-27T13:15:22Z</time>
      </trkpt>
      <trkpt lat="47.29054" lon="-1.59691">
        <ele>90</ele>
        <time>2022-01-27T13:15:23Z</time>
      </trkpt>
      <trkpt lat="47.29056" lon="-1.59691">
        <ele>90</ele>
        <time>2022-01-27T13:15:24Z</time>
      </trkpt>
      <trkpt lat="47.29057" lon="-1.59691">
        <ele>90</ele>
        <time>2022-01-27T13:15:25Z</time>
      </trkpt>
      <trkpt lat="47.29058" lon="-1.59692">
        <ele>90</ele>
        <time>2022-01-27T13:15:26Z</time>
      </trkpt>
      <trkpt lat="47.29059" lon="-1.59692">
        <ele>89</ele>
        <time>2022-01-27T13:15:27Z</time>
      </trkpt>
      <trkpt lat="47.2906" lon="-1.59693">
        <ele>89</ele>
        <time>2022-01-27T13:15:28Z</time>
      </trkpt>
      <trkpt lat="47.2906" lon="-1.59693">
        <ele>89</ele>
        <time>2022-01-27T13:15:29Z</time>
      </trkpt>
      <trkpt lat="47.29062" lon="-1.59694">
        <ele>89</ele>
        <time>2022-01-27T13:15:30Z</time>
      </trkpt>
      <trkpt lat="47.29063" lon="-1.59695">
        <ele>88</ele>
        <time>2022-01-27T13:15:31Z</time>
      </trkpt>
      <trkpt lat="47.29064" lon="-1.59696">
        <ele>88</ele>
        <time>2022-01-27T13:15:32Z</time>
      </trkpt>
      <trkpt lat="47.29065" lon="-1.59696">
        <ele>88</ele>
        <time>2022-01-27T13:15:33Z</time>
      </trkpt>
      <trkpt lat="47.29067" lon="-1.59696">
        <ele>88</ele>
        <time>2022-01-27T13:15:34Z</time>
      </trkpt>
      <trkpt lat="47.29068" lon="-1.59697">
        <ele>87</ele>
        <time>2022-01-27T13:15:35Z</time>
      </trkpt>
      <trkpt lat="47.29069" lon="-1.59698">
        <ele>87</ele>
        <time>2022-01-27T13:15:36Z</time>
      </trkpt>
      <trkpt lat="47.2907" lon="-1.59699">
        <ele>87</ele>
        <time>2022-01-27T13:15:37Z</time>
      </trkpt>
      <trkpt lat="47.29071" lon="-1.597">
        <ele>87</ele>
        <time>2022-01-27T13:15:38Z</time>
      </trkpt>
      <trkpt lat="47.29072" lon="-1.59701">
        <ele>87</ele>
        <time>2022-01-27T13:15:39Z</time>
      </trkpt>
      <trkpt lat="47.29073" lon="-1.59701">
        <ele>87</ele>
        <time>2022-01-27T13:15:40Z</time>
      </trkpt>
      <trkpt lat="47.29074" lon="-1.59701">
        <ele>86</ele>
        <time>2022-01-27T13:15:41Z</time>
      </trkpt>
      <trkpt lat="47.29075" lon="-1.59702">
        <ele>86</ele>
        <time>2022-01-27T13:15:42Z</time>
      </trkpt>
      <trkpt lat="47.29077" lon="-1.59702">
        <ele>86</ele>
        <time>2022-01-27T13:15:43Z</time>
      </trkpt>
      <trkpt lat="47.29078" lon="-1.59702">
        <ele>86</ele>
        <time>2022-01-27T13:15:44Z</time>
      </trkpt>
      <trkpt lat="47.2908" lon="-1.59702">
        <ele>86</ele>
        <time>2022-01-27T13:15:45Z</time>
      </trkpt>
      <trkpt lat="47.29081" lon="-1.59702">
        <ele>85</ele>
        <time>2022-01-27T13:15:46Z</time>
      </trkpt>
      <trkpt lat="47.29083" lon="-1.59703">
        <ele>85</ele>
        <time>2022-01-27T13:15:47Z</time>
      </trkpt>
      <trkpt lat="47.29084" lon="-1.59703">
        <ele>85</ele>
        <time>2022-01-27T13:15:48Z</time>
      </trkpt>
      <trkpt lat="47.29086" lon="-1.59703">
        <ele>84</ele>
        <time>2022-01-27T13:15:49Z</time>
      </trkpt>
      <trkpt lat="47.29087" lon="-1.59704">
        <ele>84</ele>
        <time>2022-01-27T13:15:50Z</time>
      </trkpt>
      <trkpt lat="47.29088" lon="-1.59704">
        <ele>84</ele>
        <time>2022-01-27T13:15:51Z</time>
      </trkpt>
      <trkpt lat="47.2909" lon="-1.59704">
        <ele>84</ele>
        <time>2022-01-27T13:15:52Z</time>
      </trkpt>
      <trkpt lat="47.29091" lon="-1.59705">
        <ele>84</ele>
        <time>2022-01-27T13:15:53Z</time>
      </trkpt>
      <trkpt lat="47.29092" lon="-1.59705">
        <ele>84</ele>
        <time>2022-01-27T13:15:54Z</time>
      </trkpt>
      <trkpt lat="47.29094" lon="-1.59705">
        <ele>84</ele>
        <time>2022-01-27T13:15:55Z</time>
      </trkpt>
      <trkpt lat="47.29096" lon="-1.59706">
        <ele>84</ele>
        <time>2022-01-27T13:15:56Z</time>
      </trkpt>
      <trkpt lat="47.29097" lon="-1.59706">
        <ele>83</ele>
        <time>2022-01-27T13:15:57Z</time>
      </trkpt>
      <trkpt lat="47.29098" lon="-1.59706">
        <ele>83</ele>
        <time>2022-01-27T13:15:58Z</time>
      </trkpt>
      <trkpt lat="47.291" lon="-1.59706">
        <ele>82</ele>
        <time>2022-01-27T13:15:59Z</time>
      </trkpt>
      <trkpt lat="47.29101" lon="-1.59706">
        <ele>82</ele>
        <time>2022-01-27T13:16:00Z</time>
      </trkpt>
      <trkpt lat="47.29103" lon="-1.59706">
        <ele>82</ele>
        <time>2022-01-27T13:16:01Z</time>
      </trkpt>
      <trkpt lat="47.29105" lon="-1.59706">
        <ele>82</ele>
        <time>2022-01-27T13:16:02Z</time>
      </trkpt>
      <trkpt lat="47.29106" lon="-1.59706">
        <ele>82</ele>
        <time>2022-01-27T13:16:03Z</time>
      </trkpt>
      <trkpt lat="47.29107" lon="-1.59705">
        <ele>82</ele>
        <time>2022-01-27T13:16:04Z</time>
      </trkpt>
      <trkpt lat="47.29108" lon="-1.59705">
        <ele>82</ele>
        <time>2022-01-27T13:16:05Z</time>
      </trkpt>
      <trkpt lat="47.29108" lon="-1.59705">
        <ele>82</ele>
        <time>2022-01-27T13:16:05Z</time>
      </trkpt>
      <trkpt lat="47.29112" lon="-1.59704">
        <ele>82</ele>
        <time>2022-01-27T13:16:07Z</time>
      </trkpt>
      <trkpt lat="47.29113" lon="-1.59704">
        <ele>82</ele>
        <time>2022-01-27T13:16:08Z</time>
      </trkpt>
      <trkpt lat="47.29113" lon="-1.59704">
        <ele>82</ele>
        <time>2022-01-27T13:16:08Z</time>
      </trkpt>
      <trkpt lat="47.29115" lon="-1.59703">
        <ele>82</ele>
        <time>2022-01-27T13:16:10Z</time>
      </trkpt>
      <trkpt lat="47.29116" lon="-1.59702">
        <ele>82</ele>
        <time>2022-01-27T13:16:11Z</time>
      </trkpt>
      <trkpt lat="47.29118" lon="-1.59701">
        <ele>82</ele>
        <time>2022-01-27T13:16:12Z</time>
      </trkpt>
      <trkpt lat="47.29119" lon="-1.59701">
        <ele>82</ele>
        <time>2022-01-27T13:16:13Z</time>
      </trkpt>
      <trkpt lat="47.29119" lon="-1.59701">
        <ele>82</ele>
        <time>2022-01-27T13:16:13Z</time>
      </trkpt>
      <trkpt lat="47.29121" lon="-1.59701">
        <ele>82</ele>
        <time>2022-01-27T13:16:14Z</time>
      </trkpt>
      <trkpt lat="47.29121" lon="-1.59701">
        <ele>82</ele>
        <time>2022-01-27T13:16:15Z</time>
      </trkpt>
      <trkpt lat="47.29123" lon="-1.597">
        <ele>81</ele>
        <time>2022-01-27T13:16:17Z</time>
      </trkpt>
      <trkpt lat="47.29123" lon="-1.597">
        <ele>81</ele>
        <time>2022-01-27T13:16:17Z</time>
      </trkpt>
      <trkpt lat="47.29125" lon="-1.597">
        <ele>81</ele>
        <time>2022-01-27T13:16:18Z</time>
      </trkpt>
      <trkpt lat="47.29127" lon="-1.59698">
        <ele>80</ele>
        <time>2022-01-27T13:16:20Z</time>
      </trkpt>
      <trkpt lat="47.29127" lon="-1.59698">
        <ele>80</ele>
        <time>2022-01-27T13:16:20Z</time>
      </trkpt>
      <trkpt lat="47.29128" lon="-1.59697">
        <ele>80</ele>
        <time>2022-01-27T13:16:21Z</time>
      </trkpt>
      <trkpt lat="47.29128" lon="-1.59697">
        <ele>80</ele>
        <time>2022-01-27T13:16:22Z</time>
      </trkpt>
      <trkpt lat="47.2913" lon="-1.59697">
        <ele>80</ele>
        <time>2022-01-27T13:16:23Z</time>
      </trkpt>
      <trkpt lat="47.29131" lon="-1.59697">
        <ele>80</ele>
        <time>2022-01-27T13:16:24Z</time>
      </trkpt>
      <trkpt lat="47.29133" lon="-1.59697">
        <ele>80</ele>
        <time>2022-01-27T13:16:25Z</time>
      </trkpt>
      <trkpt lat="47.29134" lon="-1.59697">
        <ele>79</ele>
        <time>2022-01-27T13:16:26Z</time>
      </trkpt>
      <trkpt lat="47.29136" lon="-1.59696">
        <ele>79</ele>
        <time>2022-01-27T13:16:27Z</time>
      </trkpt>
      <trkpt lat="47.29137" lon="-1.59697">
        <ele>79</ele>
        <time>2022-01-27T13:16:28Z</time>
      </trkpt>
      <trkpt lat="47.29139" lon="-1.59697">
        <ele>78</ele>
        <time>2022-01-27T13:16:29Z</time>
      </trkpt>
      <trkpt lat="47.29141" lon="-1.59696">
        <ele>78</ele>
        <time>2022-01-27T13:16:30Z</time>
      </trkpt>
      <trkpt lat="47.29142" lon="-1.59696">
        <ele>78</ele>
        <time>2022-01-27T13:16:31Z</time>
      </trkpt>
      <trkpt lat="47.29144" lon="-1.59696">
        <ele>78</ele>
        <time>2022-01-27T13:16:32Z</time>
      </trkpt>
      <trkpt lat="47.29146" lon="-1.59696">
        <ele>78</ele>
        <time>2022-01-27T13:16:33Z</time>
      </trkpt>
      <trkpt lat="47.29149" lon="-1.59697">
        <ele>78</ele>
        <time>2022-01-27T13:16:35Z</time>
      </trkpt>
      <trkpt lat="47.2915" lon="-1.59697">
        <ele>78</ele>
        <time>2022-01-27T13:16:36Z</time>
      </trkpt>
      <trkpt lat="47.29151" lon="-1.59697">
        <ele>78</ele>
        <time>2022-01-27T13:16:37Z</time>
      </trkpt>
      <trkpt lat="47.29153" lon="-1.59698">
        <ele>78</ele>
        <time>2022-01-27T13:16:38Z</time>
      </trkpt>
      <trkpt lat="47.29153" lon="-1.59698">
        <ele>78</ele>
        <time>2022-01-27T13:16:38Z</time>
      </trkpt>
      <trkpt lat="47.29155" lon="-1.59698">
        <ele>78</ele>
        <time>2022-01-27T13:16:40Z</time>
      </trkpt>
      <trkpt lat="47.29156" lon="-1.59697">
        <ele>79</ele>
        <time>2022-01-27T13:16:41Z</time>
      </trkpt>
      <trkpt lat="47.29158" lon="-1.59697">
        <ele>79</ele>
        <time>2022-01-27T13:16:42Z</time>
      </trkpt>
      <trkpt lat="47.29159" lon="-1.59697">
        <ele>79</ele>
        <time>2022-01-27T13:16:43Z</time>
      </trkpt>
      <trkpt lat="47.29159" lon="-1.59697">
        <ele>79</ele>
        <time>2022-01-27T13:16:43Z</time>
      </trkpt>
      <trkpt lat="47.2916" lon="-1.59698">
        <ele>79</ele>
        <time>2022-01-27T13:16:44Z</time>
      </trkpt>
      <trkpt lat="47.29162" lon="-1.59698">
        <ele>79</ele>
        <time>2022-01-27T13:16:45Z</time>
      </trkpt>
      <trkpt lat="47.29163" lon="-1.59699">
        <ele>79</ele>
        <time>2022-01-27T13:16:46Z</time>
      </trkpt>
      <trkpt lat="47.29164" lon="-1.59699">
        <ele>78</ele>
        <time>2022-01-27T13:16:47Z</time>
      </trkpt>
      <trkpt lat="47.29166" lon="-1.59699">
        <ele>78</ele>
        <time>2022-01-27T13:16:48Z</time>
      </trkpt>
      <trkpt lat="47.29167" lon="-1.59699">
        <ele>79</ele>
        <time>2022-01-27T13:16:49Z</time>
      </trkpt>
      <trkpt lat="47.29169" lon="-1.59699">
        <ele>79</ele>
        <time>2022-01-27T13:16:50Z</time>
      </trkpt>
      <trkpt lat="47.29171" lon="-1.59699">
        <ele>79</ele>
        <time>2022-01-27T13:16:51Z</time>
      </trkpt>
      <trkpt lat="47.29172" lon="-1.59699">
        <ele>79</ele>
        <time>2022-01-27T13:16:52Z</time>
      </trkpt>
      <trkpt lat="47.29173" lon="-1.59698">
        <ele>78</ele>
        <time>2022-01-27T13:16:53Z</time>
      </trkpt>
      <trkpt lat="47.29173" lon="-1.59698">
        <ele>78</ele>
        <time>2022-01-27T13:16:54Z</time>
      </trkpt>
      <trkpt lat="47.29174" lon="-1.59698">
        <ele>78</ele>
        <time>2022-01-27T13:16:55Z</time>
      </trkpt>
      <trkpt lat="47.29175" lon="-1.59698">
        <ele>78</ele>
        <time>2022-01-27T13:16:56Z</time>
      </trkpt>
      <trkpt lat="47.29175" lon="-1.59698">
        <ele>78</ele>
        <time>2022-01-27T13:16:57Z</time>
      </trkpt>
      <trkpt lat="47.29177" lon="-1.59698">
        <ele>78</ele>
        <time>2022-01-27T13:16:58Z</time>
      </trkpt>
      <trkpt lat="47.2918" lon="-1.59697">
        <ele>78</ele>
        <time>2022-01-27T13:17:00Z</time>
      </trkpt>
      <trkpt lat="47.2918" lon="-1.59697">
        <ele>78</ele>
        <time>2022-01-27T13:17:00Z</time>
      </trkpt>
      <trkpt lat="47.29181" lon="-1.59697">
        <ele>78</ele>
        <time>2022-01-27T13:17:01Z</time>
      </trkpt>
      <trkpt lat="47.29182" lon="-1.59697">
        <ele>77</ele>
        <time>2022-01-27T13:17:02Z</time>
      </trkpt>
      <trkpt lat="47.29183" lon="-1.59697">
        <ele>77</ele>
        <time>2022-01-27T13:17:03Z</time>
      </trkpt>
      <trkpt lat="47.29185" lon="-1.59698">
        <ele>77</ele>
        <time>2022-01-27T13:17:04Z</time>
      </trkpt>
      <trkpt lat="47.29186" lon="-1.59698">
        <ele>77</ele>
        <time>2022-01-27T13:17:05Z</time>
      </trkpt>
      <trkpt lat="47.29187" lon="-1.59699">
        <ele>76</ele>
        <time>2022-01-27T13:17:06Z</time>
      </trkpt>
      <trkpt lat="47.29188" lon="-1.59699">
        <ele>76</ele>
        <time>2022-01-27T13:17:07Z</time>
      </trkpt>
      <trkpt lat="47.29189" lon="-1.597">
        <ele>76</ele>
        <time>2022-01-27T13:17:08Z</time>
      </trkpt>
      <trkpt lat="47.29191" lon="-1.597">
        <ele>76</ele>
        <time>2022-01-27T13:17:09Z</time>
      </trkpt>
      <trkpt lat="47.29192" lon="-1.597">
        <ele>75</ele>
        <time>2022-01-27T13:17:10Z</time>
      </trkpt>
      <trkpt lat="47.29193" lon="-1.59701">
        <ele>75</ele>
        <time>2022-01-27T13:17:11Z</time>
      </trkpt>
      <trkpt lat="47.29194" lon="-1.59701">
        <ele>75</ele>
        <time>2022-01-27T13:17:12Z</time>
      </trkpt>
      <trkpt lat="47.29196" lon="-1.59701">
        <ele>75</ele>
        <time>2022-01-27T13:17:13Z</time>
      </trkpt>
      <trkpt lat="47.29197" lon="-1.59701">
        <ele>75</ele>
        <time>2022-01-27T13:17:14Z</time>
      </trkpt>
      <trkpt lat="47.29199" lon="-1.59701">
        <ele>74</ele>
        <time>2022-01-27T13:17:15Z</time>
      </trkpt>
      <trkpt lat="47.29201" lon="-1.59701">
        <ele>74</ele>
        <time>2022-01-27T13:17:16Z</time>
      </trkpt>
      <trkpt lat="47.29202" lon="-1.59702">
        <ele>74</ele>
        <time>2022-01-27T13:17:17Z</time>
      </trkpt>
      <trkpt lat="47.29203" lon="-1.59702">
        <ele>74</ele>
        <time>2022-01-27T13:17:18Z</time>
      </trkpt>
      <trkpt lat="47.29205" lon="-1.59702">
        <ele>74</ele>
        <time>2022-01-27T13:17:19Z</time>
      </trkpt>
      <trkpt lat="47.29205" lon="-1.59702">
        <ele>74</ele>
        <time>2022-01-27T13:17:20Z</time>
      </trkpt>
      <trkpt lat="47.29207" lon="-1.59702">
        <ele>73</ele>
        <time>2022-01-27T13:17:21Z</time>
      </trkpt>
      <trkpt lat="47.29208" lon="-1.59702">
        <ele>73</ele>
        <time>2022-01-27T13:17:22Z</time>
      </trkpt>
      <trkpt lat="47.2921" lon="-1.59703">
        <ele>73</ele>
        <time>2022-01-27T13:17:23Z</time>
      </trkpt>
      <trkpt lat="47.29211" lon="-1.59703">
        <ele>73</ele>
        <time>2022-01-27T13:17:24Z</time>
      </trkpt>
      <trkpt lat="47.29213" lon="-1.59703">
        <ele>73</ele>
        <time>2022-01-27T13:17:25Z</time>
      </trkpt>
      <trkpt lat="47.29214" lon="-1.59703">
        <ele>73</ele>
        <time>2022-01-27T13:17:26Z</time>
      </trkpt>
      <trkpt lat="47.29216" lon="-1.59703">
        <ele>73</ele>
        <time>2022-01-27T13:17:27Z</time>
      </trkpt>
      <trkpt lat="47.29217" lon="-1.59703">
        <ele>73</ele>
        <time>2022-01-27T13:17:28Z</time>
      </trkpt>
      <trkpt lat="47.29219" lon="-1.59703">
        <ele>73</ele>
        <time>2022-01-27T13:17:29Z</time>
      </trkpt>
      <trkpt lat="47.29221" lon="-1.59704">
        <ele>73</ele>
        <time>2022-01-27T13:17:30Z</time>
      </trkpt>
      <trkpt lat="47.29223" lon="-1.59704">
        <ele>72</ele>
        <time>2022-01-27T13:17:31Z</time>
      </trkpt>
      <trkpt lat="47.29224" lon="-1.59704">
        <ele>72</ele>
        <time>2022-01-27T13:17:32Z</time>
      </trkpt>
      <trkpt lat="47.29225" lon="-1.59703">
        <ele>72</ele>
        <time>2022-01-27T13:17:33Z</time>
      </trkpt>
      <trkpt lat="47.29227" lon="-1.59704">
        <ele>72</ele>
        <time>2022-01-27T13:17:34Z</time>
      </trkpt>
      <trkpt lat="47.29229" lon="-1.59704">
        <ele>72</ele>
        <time>2022-01-27T13:17:35Z</time>
      </trkpt>
      <trkpt lat="47.2923" lon="-1.59704">
        <ele>72</ele>
        <time>2022-01-27T13:17:36Z</time>
      </trkpt>
      <trkpt lat="47.29232" lon="-1.59705">
        <ele>72</ele>
        <time>2022-01-27T13:17:37Z</time>
      </trkpt>
      <trkpt lat="47.29233" lon="-1.59705">
        <ele>72</ele>
        <time>2022-01-27T13:17:38Z</time>
      </trkpt>
      <trkpt lat="47.29235" lon="-1.59705">
        <ele>72</ele>
        <time>2022-01-27T13:17:39Z</time>
      </trkpt>
      <trkpt lat="47.29236" lon="-1.59705">
        <ele>72</ele>
        <time>2022-01-27T13:17:40Z</time>
      </trkpt>
      <trkpt lat="47.29237" lon="-1.59706">
        <ele>73</ele>
        <time>2022-01-27T13:17:41Z</time>
      </trkpt>
      <trkpt lat="47.29239" lon="-1.59706">
        <ele>72</ele>
        <time>2022-01-27T13:17:42Z</time>
      </trkpt>
      <trkpt lat="47.29241" lon="-1.59706">
        <ele>72</ele>
        <time>2022-01-27T13:17:43Z</time>
      </trkpt>
      <trkpt lat="47.29242" lon="-1.59706">
        <ele>72</ele>
        <time>2022-01-27T13:17:44Z</time>
      </trkpt>
      <trkpt lat="47.29244" lon="-1.59706">
        <ele>72</ele>
        <time>2022-01-27T13:17:45Z</time>
      </trkpt>
      <trkpt lat="47.29246" lon="-1.59706">
        <ele>73</ele>
        <time>2022-01-27T13:17:46Z</time>
      </trkpt>
      <trkpt lat="47.29247" lon="-1.59706">
        <ele>73</ele>
        <time>2022-01-27T13:17:47Z</time>
      </trkpt>
      <trkpt lat="47.29249" lon="-1.59706">
        <ele>73</ele>
        <time>2022-01-27T13:17:48Z</time>
      </trkpt>
      <trkpt lat="47.29251" lon="-1.59707">
        <ele>74</ele>
        <time>2022-01-27T13:17:49Z</time>
      </trkpt>
      <trkpt lat="47.29252" lon="-1.59706">
        <ele>74</ele>
        <time>2022-01-27T13:17:50Z</time>
      </trkpt>
      <trkpt lat="47.29254" lon="-1.59706">
        <ele>74</ele>
        <time>2022-01-27T13:17:51Z</time>
      </trkpt>
      <trkpt lat="47.29256" lon="-1.59706">
        <ele>74</ele>
        <time>2022-01-27T13:17:52Z</time>
      </trkpt>
      <trkpt lat="47.29258" lon="-1.59705">
        <ele>75</ele>
        <time>2022-01-27T13:17:53Z</time>
      </trkpt>
      <trkpt lat="47.2926" lon="-1.59704">
        <ele>75</ele>
        <time>2022-01-27T13:17:54Z</time>
      </trkpt>
      <trkpt lat="47.29264" lon="-1.59704">
        <ele>76</ele>
        <time>2022-01-27T13:17:56Z</time>
      </trkpt>
      <trkpt lat="47.29267" lon="-1.59704">
        <ele>76</ele>
        <time>2022-01-27T13:17:58Z</time>
      </trkpt>
      <trkpt lat="47.29269" lon="-1.59704">
        <ele>76</ele>
        <time>2022-01-27T13:17:59Z</time>
      </trkpt>
      <trkpt lat="47.2927" lon="-1.59704">
        <ele>76</ele>
        <time>2022-01-27T13:18:00Z</time>
      </trkpt>
      <trkpt lat="47.29271" lon="-1.59704">
        <ele>77</ele>
        <time>2022-01-27T13:18:01Z</time>
      </trkpt>
      <trkpt lat="47.29273" lon="-1.59703">
        <ele>77</ele>
        <time>2022-01-27T13:18:02Z</time>
      </trkpt>
      <trkpt lat="47.29274" lon="-1.59703">
        <ele>77</ele>
        <time>2022-01-27T13:18:03Z</time>
      </trkpt>
      <trkpt lat="47.29275" lon="-1.59703">
        <ele>78</ele>
        <time>2022-01-27T13:18:04Z</time>
      </trkpt>
      <trkpt lat="47.29276" lon="-1.59704">
        <ele>78</ele>
        <time>2022-01-27T13:18:05Z</time>
      </trkpt>
      <trkpt lat="47.29278" lon="-1.59704">
        <ele>78</ele>
        <time>2022-01-27T13:18:06Z</time>
      </trkpt>
      <trkpt lat="47.2928" lon="-1.59704">
        <ele>79</ele>
        <time>2022-01-27T13:18:07Z</time>
      </trkpt>
      <trkpt lat="47.29281" lon="-1.59704">
        <ele>79</ele>
        <time>2022-01-27T13:18:08Z</time>
      </trkpt>
      <trkpt lat="47.29282" lon="-1.59704">
        <ele>80</ele>
        <time>2022-01-27T13:18:09Z</time>
      </trkpt>
      <trkpt lat="47.29284" lon="-1.59705">
        <ele>80</ele>
        <time>2022-01-27T13:18:10Z</time>
      </trkpt>
      <trkpt lat="47.29285" lon="-1.59705">
        <ele>80</ele>
        <time>2022-01-27T13:18:11Z</time>
      </trkpt>
      <trkpt lat="47.29286" lon="-1.59705">
        <ele>81</ele>
        <time>2022-01-27T13:18:12Z</time>
      </trkpt>
      <trkpt lat="47.29287" lon="-1.59705">
        <ele>81</ele>
        <time>2022-01-27T13:18:13Z</time>
      </trkpt>
      <trkpt lat="47.29289" lon="-1.59705">
        <ele>81</ele>
        <time>2022-01-27T13:18:14Z</time>
      </trkpt>
      <trkpt lat="47.29289" lon="-1.59705">
        <ele>81</ele>
        <time>2022-01-27T13:18:15Z</time>
      </trkpt>
      <trkpt lat="47.29291" lon="-1.59705">
        <ele>81</ele>
        <time>2022-01-27T13:18:16Z</time>
      </trkpt>
      <trkpt lat="47.29293" lon="-1.59706">
        <ele>81</ele>
        <time>2022-01-27T13:18:17Z</time>
      </trkpt>
      <trkpt lat="47.29294" lon="-1.59706">
        <ele>82</ele>
        <time>2022-01-27T13:18:18Z</time>
      </trkpt>
      <trkpt lat="47.29295" lon="-1.59706">
        <ele>82</ele>
        <time>2022-01-27T13:18:19Z</time>
      </trkpt>
      <trkpt lat="47.29297" lon="-1.59706">
        <ele>82</ele>
        <time>2022-01-27T13:18:20Z</time>
      </trkpt>
      <trkpt lat="47.29298" lon="-1.59705">
        <ele>83</ele>
        <time>2022-01-27T13:18:21Z</time>
      </trkpt>
      <trkpt lat="47.293" lon="-1.59705">
        <ele>83</ele>
        <time>2022-01-27T13:18:22Z</time>
      </trkpt>
      <trkpt lat="47.29302" lon="-1.59705">
        <ele>83</ele>
        <time>2022-01-27T13:18:23Z</time>
      </trkpt>
      <trkpt lat="47.29303" lon="-1.59705">
        <ele>84</ele>
        <time>2022-01-27T13:18:24Z</time>
      </trkpt>
      <trkpt lat="47.29305" lon="-1.59705">
        <ele>83</ele>
        <time>2022-01-27T13:18:25Z</time>
      </trkpt>
      <trkpt lat="47.29306" lon="-1.59705">
        <ele>84</ele>
        <time>2022-01-27T13:18:26Z</time>
      </trkpt>
      <trkpt lat="47.29307" lon="-1.59705">
        <ele>84</ele>
        <time>2022-01-27T13:18:27Z</time>
      </trkpt>
      <trkpt lat="47.29309" lon="-1.59704">
        <ele>84</ele>
        <time>2022-01-27T13:18:28Z</time>
      </trkpt>
      <trkpt lat="47.2931" lon="-1.59704">
        <ele>84</ele>
        <time>2022-01-27T13:18:29Z</time>
      </trkpt>
      <trkpt lat="47.29311" lon="-1.59704">
        <ele>84</ele>
        <time>2022-01-27T13:18:30Z</time>
      </trkpt>
      <trkpt lat="47.29312" lon="-1.59704">
        <ele>84</ele>
        <time>2022-01-27T13:18:31Z</time>
      </trkpt>
      <trkpt lat="47.29313" lon="-1.59705">
        <ele>84</ele>
        <time>2022-01-27T13:18:32Z</time>
      </trkpt>
      <trkpt lat="47.29314" lon="-1.59705">
        <ele>84</ele>
        <time>2022-01-27T13:18:33Z</time>
      </trkpt>
      <trkpt lat="47.29316" lon="-1.59705">
        <ele>85</ele>
        <time>2022-01-27T13:18:34Z</time>
      </trkpt>
      <trkpt lat="47.29317" lon="-1.59706">
        <ele>85</ele>
        <time>2022-01-27T13:18:35Z</time>
      </trkpt>
      <trkpt lat="47.29319" lon="-1.59706">
        <ele>85</ele>
        <time>2022-01-27T13:18:36Z</time>
      </trkpt>
      <trkpt lat="47.2932" lon="-1.59706">
        <ele>85</ele>
        <time>2022-01-27T13:18:37Z</time>
      </trkpt>
      <trkpt lat="47.29321" lon="-1.59706">
        <ele>86</ele>
        <time>2022-01-27T13:18:38Z</time>
      </trkpt>
      <trkpt lat="47.29322" lon="-1.59707">
        <ele>86</ele>
        <time>2022-01-27T13:18:39Z</time>
      </trkpt>
      <trkpt lat="47.29324" lon="-1.59706">
        <ele>86</ele>
        <time>2022-01-27T13:18:40Z</time>
      </trkpt>
      <trkpt lat="47.29324" lon="-1.59706">
        <ele>86</ele>
        <time>2022-01-27T13:18:41Z</time>
      </trkpt>
      <trkpt lat="47.29326" lon="-1.59707">
        <ele>86</ele>
        <time>2022-01-27T13:18:42Z</time>
      </trkpt>
      <trkpt lat="47.29327" lon="-1.59707">
        <ele>86</ele>
        <time>2022-01-27T13:18:43Z</time>
      </trkpt>
      <trkpt lat="47.29328" lon="-1.59707">
        <ele>86</ele>
        <time>2022-01-27T13:18:44Z</time>
      </trkpt>
      <trkpt lat="47.29329" lon="-1.59707">
        <ele>86</ele>
        <time>2022-01-27T13:18:45Z</time>
      </trkpt>
      <trkpt lat="47.2933" lon="-1.59707">
        <ele>85</ele>
        <time>2022-01-27T13:18:46Z</time>
      </trkpt>
      <trkpt lat="47.29332" lon="-1.59706">
        <ele>85</ele>
        <time>2022-01-27T13:18:47Z</time>
      </trkpt>
      <trkpt lat="47.29334" lon="-1.59706">
        <ele>86</ele>
        <time>2022-01-27T13:18:48Z</time>
      </trkpt>
      <trkpt lat="47.29337" lon="-1.59707">
        <ele>86</ele>
        <time>2022-01-27T13:18:49Z</time>
      </trkpt>
      <trkpt lat="47.29338" lon="-1.59707">
        <ele>86</ele>
        <time>2022-01-27T13:18:50Z</time>
      </trkpt>
      <trkpt lat="47.2934" lon="-1.59708">
        <ele>86</ele>
        <time>2022-01-27T13:18:51Z</time>
      </trkpt>
      <trkpt lat="47.2934" lon="-1.59708">
        <ele>86</ele>
        <time>2022-01-27T13:18:52Z</time>
      </trkpt>
      <trkpt lat="47.29342" lon="-1.59708">
        <ele>86</ele>
        <time>2022-01-27T13:18:53Z</time>
      </trkpt>
      <trkpt lat="47.29343" lon="-1.59708">
        <ele>86</ele>
        <time>2022-01-27T13:18:54Z</time>
      </trkpt>
      <trkpt lat="47.29344" lon="-1.59708">
        <ele>86</ele>
        <time>2022-01-27T13:18:55Z</time>
      </trkpt>
      <trkpt lat="47.29345" lon="-1.59708">
        <ele>86</ele>
        <time>2022-01-27T13:18:56Z</time>
      </trkpt>
      <trkpt lat="47.29347" lon="-1.59708">
        <ele>86</ele>
        <time>2022-01-27T13:18:57Z</time>
      </trkpt>
      <trkpt lat="47.29349" lon="-1.59708">
        <ele>86</ele>
        <time>2022-01-27T13:18:58Z</time>
      </trkpt>
      <trkpt lat="47.29351" lon="-1.59709">
        <ele>86</ele>
        <time>2022-01-27T13:18:59Z</time>
      </trkpt>
      <trkpt lat="47.29353" lon="-1.5971">
        <ele>86</ele>
        <time>2022-01-27T13:19:00Z</time>
      </trkpt>
      <trkpt lat="47.29354" lon="-1.5971">
        <ele>87</ele>
        <time>2022-01-27T13:19:01Z</time>
      </trkpt>
      <trkpt lat="47.29355" lon="-1.59711">
        <ele>87</ele>
        <time>2022-01-27T13:19:02Z</time>
      </trkpt>
      <trkpt lat="47.29356" lon="-1.59711">
        <ele>87</ele>
        <time>2022-01-27T13:19:03Z</time>
      </trkpt>
      <trkpt lat="47.29358" lon="-1.59712">
        <ele>88</ele>
        <time>2022-01-27T13:19:04Z</time>
      </trkpt>
      <trkpt lat="47.2936" lon="-1.59712">
        <ele>88</ele>
        <time>2022-01-27T13:19:05Z</time>
      </trkpt>
      <trkpt lat="47.29361" lon="-1.59713">
        <ele>88</ele>
        <time>2022-01-27T13:19:06Z</time>
      </trkpt>
      <trkpt lat="47.29363" lon="-1.59713">
        <ele>88</ele>
        <time>2022-01-27T13:19:07Z</time>
      </trkpt>
      <trkpt lat="47.29364" lon="-1.59713">
        <ele>88</ele>
        <time>2022-01-27T13:19:08Z</time>
      </trkpt>
      <trkpt lat="47.29366" lon="-1.59713">
        <ele>88</ele>
        <time>2022-01-27T13:19:09Z</time>
      </trkpt>
      <trkpt lat="47.29367" lon="-1.59714">
        <ele>88</ele>
        <time>2022-01-27T13:19:10Z</time>
      </trkpt>
      <trkpt lat="47.29368" lon="-1.59714">
        <ele>88</ele>
        <time>2022-01-27T13:19:11Z</time>
      </trkpt>
      <trkpt lat="47.29369" lon="-1.59715">
        <ele>88</ele>
        <time>2022-01-27T13:19:12Z</time>
      </trkpt>
      <trkpt lat="47.29371" lon="-1.59715">
        <ele>88</ele>
        <time>2022-01-27T13:19:13Z</time>
      </trkpt>
      <trkpt lat="47.29372" lon="-1.59714">
        <ele>89</ele>
        <time>2022-01-27T13:19:14Z</time>
      </trkpt>
      <trkpt lat="47.29373" lon="-1.59714">
        <ele>88</ele>
        <time>2022-01-27T13:19:15Z</time>
      </trkpt>
      <trkpt lat="47.29374" lon="-1.59714">
        <ele>88</ele>
        <time>2022-01-27T13:19:16Z</time>
      </trkpt>
      <trkpt lat="47.29375" lon="-1.59713">
        <ele>88</ele>
        <time>2022-01-27T13:19:17Z</time>
      </trkpt>
      <trkpt lat="47.29376" lon="-1.59713">
        <ele>88</ele>
        <time>2022-01-27T13:19:18Z</time>
      </trkpt>
      <trkpt lat="47.29377" lon="-1.59712">
        <ele>88</ele>
        <time>2022-01-27T13:19:19Z</time>
      </trkpt>
      <trkpt lat="47.29378" lon="-1.59712">
        <ele>88</ele>
        <time>2022-01-27T13:19:20Z</time>
      </trkpt>
      <trkpt lat="47.29379" lon="-1.59712">
        <ele>88</ele>
        <time>2022-01-27T13:19:21Z</time>
      </trkpt>
      <trkpt lat="47.29381" lon="-1.59711">
        <ele>88</ele>
        <time>2022-01-27T13:19:22Z</time>
      </trkpt>
      <trkpt lat="47.29382" lon="-1.59711">
        <ele>88</ele>
        <time>2022-01-27T13:19:23Z</time>
      </trkpt>
      <trkpt lat="47.29385" lon="-1.59711">
        <ele>88</ele>
        <time>2022-01-27T13:19:25Z</time>
      </trkpt>
      <trkpt lat="47.29387" lon="-1.59711">
        <ele>88</ele>
        <time>2022-01-27T13:19:26Z</time>
      </trkpt>
      <trkpt lat="47.29388" lon="-1.59712">
        <ele>89</ele>
        <time>2022-01-27T13:19:27Z</time>
      </trkpt>
      <trkpt lat="47.29389" lon="-1.59712">
        <ele>88</ele>
        <time>2022-01-27T13:19:28Z</time>
      </trkpt>
      <trkpt lat="47.29391" lon="-1.59712">
        <ele>88</ele>
        <time>2022-01-27T13:19:29Z</time>
      </trkpt>
      <trkpt lat="47.29392" lon="-1.59712">
        <ele>89</ele>
        <time>2022-01-27T13:19:30Z</time>
      </trkpt>
      <trkpt lat="47.29393" lon="-1.59711">
        <ele>89</ele>
        <time>2022-01-27T13:19:31Z</time>
      </trkpt>
      <trkpt lat="47.29395" lon="-1.59711">
        <ele>89</ele>
        <time>2022-01-27T13:19:32Z</time>
      </trkpt>
      <trkpt lat="47.29396" lon="-1.59712">
        <ele>89</ele>
        <time>2022-01-27T13:19:33Z</time>
      </trkpt>
      <trkpt lat="47.29398" lon="-1.59712">
        <ele>89</ele>
        <time>2022-01-27T13:19:34Z</time>
      </trkpt>
      <trkpt lat="47.294" lon="-1.59711">
        <ele>89</ele>
        <time>2022-01-27T13:19:35Z</time>
      </trkpt>
      <trkpt lat="47.29401" lon="-1.59711">
        <ele>89</ele>
        <time>2022-01-27T13:19:36Z</time>
      </trkpt>
      <trkpt lat="47.29402" lon="-1.59711">
        <ele>89</ele>
        <time>2022-01-27T13:19:37Z</time>
      </trkpt>
      <trkpt lat="47.29404" lon="-1.5971">
        <ele>89</ele>
        <time>2022-01-27T13:19:38Z</time>
      </trkpt>
      <trkpt lat="47.29406" lon="-1.59711">
        <ele>90</ele>
        <time>2022-01-27T13:19:39Z</time>
      </trkpt>
      <trkpt lat="47.29407" lon="-1.59711">
        <ele>90</ele>
        <time>2022-01-27T13:19:40Z</time>
      </trkpt>
      <trkpt lat="47.29409" lon="-1.59713">
        <ele>89</ele>
        <time>2022-01-27T13:19:41Z</time>
      </trkpt>
      <trkpt lat="47.29409" lon="-1.59714">
        <ele>89</ele>
        <time>2022-01-27T13:19:42Z</time>
      </trkpt>
      <trkpt lat="47.2941" lon="-1.59715">
        <ele>89</ele>
        <time>2022-01-27T13:19:43Z</time>
      </trkpt>
      <trkpt lat="47.29411" lon="-1.59717">
        <ele>88</ele>
        <time>2022-01-27T13:19:44Z</time>
      </trkpt>
      <trkpt lat="47.29412" lon="-1.59718">
        <ele>88</ele>
        <time>2022-01-27T13:19:45Z</time>
      </trkpt>
      <trkpt lat="47.29412" lon="-1.5972">
        <ele>88</ele>
        <time>2022-01-27T13:19:46Z</time>
      </trkpt>
      <trkpt lat="47.29413" lon="-1.59722">
        <ele>88</ele>
        <time>2022-01-27T13:19:47Z</time>
      </trkpt>
      <trkpt lat="47.29413" lon="-1.59724">
        <ele>88</ele>
        <time>2022-01-27T13:19:48Z</time>
      </trkpt>
      <trkpt lat="47.29412" lon="-1.59726">
        <ele>88</ele>
        <time>2022-01-27T13:19:49Z</time>
      </trkpt>
      <trkpt lat="47.29412" lon="-1.59728">
        <ele>88</ele>
        <time>2022-01-27T13:19:50Z</time>
      </trkpt>
      <trkpt lat="47.29412" lon="-1.5973">
        <ele>88</ele>
        <time>2022-01-27T13:19:51Z</time>
      </trkpt>
      <trkpt lat="47.29413" lon="-1.59732">
        <ele>88</ele>
        <time>2022-01-27T13:19:52Z</time>
      </trkpt>
      <trkpt lat="47.29413" lon="-1.59733">
        <ele>89</ele>
        <time>2022-01-27T13:19:53Z</time>
      </trkpt>
      <trkpt lat="47.29413" lon="-1.59735">
        <ele>89</ele>
        <time>2022-01-27T13:19:54Z</time>
      </trkpt>
      <trkpt lat="47.29413" lon="-1.59737">
        <ele>89</ele>
        <time>2022-01-27T13:19:55Z</time>
      </trkpt>
      <trkpt lat="47.29413" lon="-1.59738">
        <ele>89</ele>
        <time>2022-01-27T13:19:56Z</time>
      </trkpt>
      <trkpt lat="47.29413" lon="-1.5974">
        <ele>89</ele>
        <time>2022-01-27T13:19:57Z</time>
      </trkpt>
      <trkpt lat="47.29413" lon="-1.59742">
        <ele>89</ele>
        <time>2022-01-27T13:19:58Z</time>
      </trkpt>
      <trkpt lat="47.29414" lon="-1.59744">
        <ele>89</ele>
        <time>2022-01-27T13:19:59Z</time>
      </trkpt>
      <trkpt lat="47.29414" lon="-1.59746">
        <ele>89</ele>
        <time>2022-01-27T13:20:00Z</time>
      </trkpt>
      <trkpt lat="47.29414" lon="-1.59747">
        <ele>89</ele>
        <time>2022-01-27T13:20:01Z</time>
      </trkpt>
      <trkpt lat="47.29414" lon="-1.59749">
        <ele>90</ele>
        <time>2022-01-27T13:20:02Z</time>
      </trkpt>
      <trkpt lat="47.29414" lon="-1.59751">
        <ele>89</ele>
        <time>2022-01-27T13:20:03Z</time>
      </trkpt>
      <trkpt lat="47.29414" lon="-1.59753">
        <ele>90</ele>
        <time>2022-01-27T13:20:04Z</time>
      </trkpt>
      <trkpt lat="47.29414" lon="-1.59755">
        <ele>89</ele>
        <time>2022-01-27T13:20:05Z</time>
      </trkpt>
      <trkpt lat="47.29414" lon="-1.59757">
        <ele>89</ele>
        <time>2022-01-27T13:20:06Z</time>
      </trkpt>
      <trkpt lat="47.29415" lon="-1.5976">
        <ele>90</ele>
        <time>2022-01-27T13:20:07Z</time>
      </trkpt>
      <trkpt lat="47.29415" lon="-1.59761">
        <ele>90</ele>
        <time>2022-01-27T13:20:08Z</time>
      </trkpt>
      <trkpt lat="47.29415" lon="-1.59764">
        <ele>90</ele>
        <time>2022-01-27T13:20:09Z</time>
      </trkpt>
      <trkpt lat="47.29416" lon="-1.59766">
        <ele>90</ele>
        <time>2022-01-27T13:20:10Z</time>
      </trkpt>
      <trkpt lat="47.29416" lon="-1.59768">
        <ele>90</ele>
        <time>2022-01-27T13:20:11Z</time>
      </trkpt>
      <trkpt lat="47.29416" lon="-1.5977">
        <ele>90</ele>
        <time>2022-01-27T13:20:12Z</time>
      </trkpt>
      <trkpt lat="47.29416" lon="-1.59771">
        <ele>90</ele>
        <time>2022-01-27T13:20:13Z</time>
      </trkpt>
      <trkpt lat="47.29416" lon="-1.59773">
        <ele>90</ele>
        <time>2022-01-27T13:20:14Z</time>
      </trkpt>
      <trkpt lat="47.29416" lon="-1.59775">
        <ele>90</ele>
        <time>2022-01-27T13:20:15Z</time>
      </trkpt>
      <trkpt lat="47.29417" lon="-1.59776">
        <ele>90</ele>
        <time>2022-01-27T13:20:16Z</time>
      </trkpt>
      <trkpt lat="47.29417" lon="-1.59778">
        <ele>90</ele>
        <time>2022-01-27T13:20:17Z</time>
      </trkpt>
      <trkpt lat="47.29417" lon="-1.5978">
        <ele>90</ele>
        <time>2022-01-27T13:20:18Z</time>
      </trkpt>
      <trkpt lat="47.29417" lon="-1.59782">
        <ele>90</ele>
        <time>2022-01-27T13:20:19Z</time>
      </trkpt>
      <trkpt lat="47.29418" lon="-1.59783">
        <ele>90</ele>
        <time>2022-01-27T13:20:20Z</time>
      </trkpt>
      <trkpt lat="47.29419" lon="-1.59785">
        <ele>90</ele>
        <time>2022-01-27T13:20:21Z</time>
      </trkpt>
      <trkpt lat="47.29419" lon="-1.59788">
        <ele>90</ele>
        <time>2022-01-27T13:20:22Z</time>
      </trkpt>
      <trkpt lat="47.29419" lon="-1.5979">
        <ele>90</ele>
        <time>2022-01-27T13:20:23Z</time>
      </trkpt>
      <trkpt lat="47.29421" lon="-1.59792">
        <ele>90</ele>
        <time>2022-01-27T13:20:24Z</time>
      </trkpt>
      <trkpt lat="47.29421" lon="-1.59794">
        <ele>90</ele>
        <time>2022-01-27T13:20:25Z</time>
      </trkpt>
      <trkpt lat="47.29421" lon="-1.59796">
        <ele>90</ele>
        <time>2022-01-27T13:20:26Z</time>
      </trkpt>
      <trkpt lat="47.29421" lon="-1.59798">
        <ele>90</ele>
        <time>2022-01-27T13:20:27Z</time>
      </trkpt>
      <trkpt lat="47.29421" lon="-1.598">
        <ele>90</ele>
        <time>2022-01-27T13:20:28Z</time>
      </trkpt>
      <trkpt lat="47.29422" lon="-1.59801">
        <ele>91</ele>
        <time>2022-01-27T13:20:29Z</time>
      </trkpt>
      <trkpt lat="47.29422" lon="-1.59803">
        <ele>91</ele>
        <time>2022-01-27T13:20:30Z</time>
      </trkpt>
      <trkpt lat="47.29422" lon="-1.59805">
        <ele>90</ele>
        <time>2022-01-27T13:20:31Z</time>
      </trkpt>
      <trkpt lat="47.29422" lon="-1.59807">
        <ele>90</ele>
        <time>2022-01-27T13:20:32Z</time>
      </trkpt>
      <trkpt lat="47.29422" lon="-1.59809">
        <ele>90</ele>
        <time>2022-01-27T13:20:33Z</time>
      </trkpt>
      <trkpt lat="47.29422" lon="-1.59812">
        <ele>90</ele>
        <time>2022-01-27T13:20:34Z</time>
      </trkpt>
      <trkpt lat="47.29422" lon="-1.59814">
        <ele>91</ele>
        <time>2022-01-27T13:20:35Z</time>
      </trkpt>
      <trkpt lat="47.29422" lon="-1.59816">
        <ele>91</ele>
        <time>2022-01-27T13:20:36Z</time>
      </trkpt>
      <trkpt lat="47.29423" lon="-1.59818">
        <ele>91</ele>
        <time>2022-01-27T13:20:37Z</time>
      </trkpt>
      <trkpt lat="47.29423" lon="-1.5982">
        <ele>91</ele>
        <time>2022-01-27T13:20:38Z</time>
      </trkpt>
      <trkpt lat="47.29424" lon="-1.59822">
        <ele>91</ele>
        <time>2022-01-27T13:20:39Z</time>
      </trkpt>
      <trkpt lat="47.29424" lon="-1.59823">
        <ele>91</ele>
        <time>2022-01-27T13:20:40Z</time>
      </trkpt>
      <trkpt lat="47.29424" lon="-1.59825">
        <ele>90</ele>
        <time>2022-01-27T13:20:41Z</time>
      </trkpt>
      <trkpt lat="47.29424" lon="-1.59826">
        <ele>90</ele>
        <time>2022-01-27T13:20:42Z</time>
      </trkpt>
      <trkpt lat="47.29425" lon="-1.59828">
        <ele>90</ele>
        <time>2022-01-27T13:20:43Z</time>
      </trkpt>
      <trkpt lat="47.29425" lon="-1.5983">
        <ele>90</ele>
        <time>2022-01-27T13:20:44Z</time>
      </trkpt>
      <trkpt lat="47.29425" lon="-1.59832">
        <ele>90</ele>
        <time>2022-01-27T13:20:45Z</time>
      </trkpt>
      <trkpt lat="47.29425" lon="-1.59833">
        <ele>90</ele>
        <time>2022-01-27T13:20:46Z</time>
      </trkpt>
      <trkpt lat="47.29425" lon="-1.59835">
        <ele>90</ele>
        <time>2022-01-27T13:20:47Z</time>
      </trkpt>
      <trkpt lat="47.29425" lon="-1.59838">
        <ele>90</ele>
        <time>2022-01-27T13:20:48Z</time>
      </trkpt>
      <trkpt lat="47.29424" lon="-1.5984">
        <ele>90</ele>
        <time>2022-01-27T13:20:49Z</time>
      </trkpt>
      <trkpt lat="47.29425" lon="-1.59842">
        <ele>90</ele>
        <time>2022-01-27T13:20:50Z</time>
      </trkpt>
      <trkpt lat="47.29425" lon="-1.59845">
        <ele>91</ele>
        <time>2022-01-27T13:20:51Z</time>
      </trkpt>
      <trkpt lat="47.29425" lon="-1.59847">
        <ele>91</ele>
        <time>2022-01-27T13:20:52Z</time>
      </trkpt>
      <trkpt lat="47.29424" lon="-1.59849">
        <ele>91</ele>
        <time>2022-01-27T13:20:53Z</time>
      </trkpt>
      <trkpt lat="47.29424" lon="-1.59851">
        <ele>91</ele>
        <time>2022-01-27T13:20:54Z</time>
      </trkpt>
      <trkpt lat="47.29424" lon="-1.59854">
        <ele>91</ele>
        <time>2022-01-27T13:20:55Z</time>
      </trkpt>
      <trkpt lat="47.29423" lon="-1.59855">
        <ele>91</ele>
        <time>2022-01-27T13:20:56Z</time>
      </trkpt>
      <trkpt lat="47.29423" lon="-1.59856">
        <ele>90</ele>
        <time>2022-01-27T13:20:57Z</time>
      </trkpt>
      <trkpt lat="47.29424" lon="-1.59858">
        <ele>90</ele>
        <time>2022-01-27T13:20:58Z</time>
      </trkpt>
      <trkpt lat="47.29424" lon="-1.5986">
        <ele>90</ele>
        <time>2022-01-27T13:20:59Z</time>
      </trkpt>
      <trkpt lat="47.29424" lon="-1.59862">
        <ele>89</ele>
        <time>2022-01-27T13:21:00Z</time>
      </trkpt>
      <trkpt lat="47.29424" lon="-1.59864">
        <ele>89</ele>
        <time>2022-01-27T13:21:01Z</time>
      </trkpt>
      <trkpt lat="47.29423" lon="-1.59866">
        <ele>89</ele>
        <time>2022-01-27T13:21:02Z</time>
      </trkpt>
      <trkpt lat="47.29423" lon="-1.59867">
        <ele>89</ele>
        <time>2022-01-27T13:21:03Z</time>
      </trkpt>
      <trkpt lat="47.29424" lon="-1.59869">
        <ele>89</ele>
        <time>2022-01-27T13:21:04Z</time>
      </trkpt>
      <trkpt lat="47.29423" lon="-1.59871">
        <ele>89</ele>
        <time>2022-01-27T13:21:05Z</time>
      </trkpt>
      <trkpt lat="47.29424" lon="-1.59873">
        <ele>89</ele>
        <time>2022-01-27T13:21:06Z</time>
      </trkpt>
      <trkpt lat="47.29424" lon="-1.59874">
        <ele>88</ele>
        <time>2022-01-27T13:21:07Z</time>
      </trkpt>
      <trkpt lat="47.29424" lon="-1.59876">
        <ele>88</ele>
        <time>2022-01-27T13:21:08Z</time>
      </trkpt>
      <trkpt lat="47.29425" lon="-1.59877">
        <ele>88</ele>
        <time>2022-01-27T13:21:09Z</time>
      </trkpt>
      <trkpt lat="47.29425" lon="-1.59879">
        <ele>88</ele>
        <time>2022-01-27T13:21:10Z</time>
      </trkpt>
      <trkpt lat="47.29425" lon="-1.59882">
        <ele>88</ele>
        <time>2022-01-27T13:21:11Z</time>
      </trkpt>
      <trkpt lat="47.29425" lon="-1.59883">
        <ele>88</ele>
        <time>2022-01-27T13:21:12Z</time>
      </trkpt>
      <trkpt lat="47.29425" lon="-1.59884">
        <ele>88</ele>
        <time>2022-01-27T13:21:13Z</time>
      </trkpt>
      <trkpt lat="47.29425" lon="-1.59885">
        <ele>88</ele>
        <time>2022-01-27T13:21:14Z</time>
      </trkpt>
      <trkpt lat="47.29425" lon="-1.59887">
        <ele>88</ele>
        <time>2022-01-27T13:21:15Z</time>
      </trkpt>
      <trkpt lat="47.29425" lon="-1.59889">
        <ele>88</ele>
        <time>2022-01-27T13:21:16Z</time>
      </trkpt>
      <trkpt lat="47.29425" lon="-1.59892">
        <ele>88</ele>
        <time>2022-01-27T13:21:17Z</time>
      </trkpt>
      <trkpt lat="47.29425" lon="-1.59895">
        <ele>88</ele>
        <time>2022-01-27T13:21:18Z</time>
      </trkpt>
      <trkpt lat="47.29425" lon="-1.59897">
        <ele>88</ele>
        <time>2022-01-27T13:21:19Z</time>
      </trkpt>
      <trkpt lat="47.29425" lon="-1.59899">
        <ele>88</ele>
        <time>2022-01-27T13:21:20Z</time>
      </trkpt>
      <trkpt lat="47.29425" lon="-1.59901">
        <ele>88</ele>
        <time>2022-01-27T13:21:21Z</time>
      </trkpt>
      <trkpt lat="47.29425" lon="-1.59903">
        <ele>88</ele>
        <time>2022-01-27T13:21:22Z</time>
      </trkpt>
      <trkpt lat="47.29425" lon="-1.59905">
        <ele>88</ele>
        <time>2022-01-27T13:21:23Z</time>
      </trkpt>
      <trkpt lat="47.29426" lon="-1.59908">
        <ele>88</ele>
        <time>2022-01-27T13:21:24Z</time>
      </trkpt>
      <trkpt lat="47.29427" lon="-1.5991">
        <ele>88</ele>
        <time>2022-01-27T13:21:25Z</time>
      </trkpt>
      <trkpt lat="47.29427" lon="-1.59912">
        <ele>88</ele>
        <time>2022-01-27T13:21:26Z</time>
      </trkpt>
      <trkpt lat="47.29427" lon="-1.59913">
        <ele>88</ele>
        <time>2022-01-27T13:21:27Z</time>
      </trkpt>
      <trkpt lat="47.29428" lon="-1.59916">
        <ele>88</ele>
        <time>2022-01-27T13:21:28Z</time>
      </trkpt>
      <trkpt lat="47.29428" lon="-1.59918">
        <ele>88</ele>
        <time>2022-01-27T13:21:29Z</time>
      </trkpt>
      <trkpt lat="47.29428" lon="-1.5992">
        <ele>88</ele>
        <time>2022-01-27T13:21:30Z</time>
      </trkpt>
      <trkpt lat="47.29428" lon="-1.59923">
        <ele>88</ele>
        <time>2022-01-27T13:21:31Z</time>
      </trkpt>
      <trkpt lat="47.29428" lon="-1.59925">
        <ele>88</ele>
        <time>2022-01-27T13:21:32Z</time>
      </trkpt>
      <trkpt lat="47.29429" lon="-1.59927">
        <ele>88</ele>
        <time>2022-01-27T13:21:33Z</time>
      </trkpt>
      <trkpt lat="47.29429" lon="-1.59929">
        <ele>89</ele>
        <time>2022-01-27T13:21:34Z</time>
      </trkpt>
      <trkpt lat="47.2943" lon="-1.59931">
        <ele>89</ele>
        <time>2022-01-27T13:21:35Z</time>
      </trkpt>
      <trkpt lat="47.2943" lon="-1.59933">
        <ele>89</ele>
        <time>2022-01-27T13:21:36Z</time>
      </trkpt>
      <trkpt lat="47.2943" lon="-1.59934">
        <ele>89</ele>
        <time>2022-01-27T13:21:37Z</time>
      </trkpt>
      <trkpt lat="47.2943" lon="-1.59936">
        <ele>89</ele>
        <time>2022-01-27T13:21:38Z</time>
      </trkpt>
      <trkpt lat="47.29431" lon="-1.59938">
        <ele>89</ele>
        <time>2022-01-27T13:21:39Z</time>
      </trkpt>
      <trkpt lat="47.29432" lon="-1.5994">
        <ele>89</ele>
        <time>2022-01-27T13:21:40Z</time>
      </trkpt>
      <trkpt lat="47.29432" lon="-1.59943">
        <ele>90</ele>
        <time>2022-01-27T13:21:41Z</time>
      </trkpt>
      <trkpt lat="47.29432" lon="-1.59944">
        <ele>89</ele>
        <time>2022-01-27T13:21:42Z</time>
      </trkpt>
      <trkpt lat="47.29432" lon="-1.59946">
        <ele>89</ele>
        <time>2022-01-27T13:21:43Z</time>
      </trkpt>
      <trkpt lat="47.29432" lon="-1.59948">
        <ele>89</ele>
        <time>2022-01-27T13:21:44Z</time>
      </trkpt>
      <trkpt lat="47.29433" lon="-1.59951">
        <ele>90</ele>
        <time>2022-01-27T13:21:45Z</time>
      </trkpt>
      <trkpt lat="47.29433" lon="-1.59952">
        <ele>90</ele>
        <time>2022-01-27T13:21:46Z</time>
      </trkpt>
      <trkpt lat="47.29433" lon="-1.59954">
        <ele>90</ele>
        <time>2022-01-27T13:21:47Z</time>
      </trkpt>
      <trkpt lat="47.29433" lon="-1.59956">
        <ele>90</ele>
        <time>2022-01-27T13:21:48Z</time>
      </trkpt>
      <trkpt lat="47.29433" lon="-1.59957">
        <ele>90</ele>
        <time>2022-01-27T13:21:49Z</time>
      </trkpt>
      <trkpt lat="47.29433" lon="-1.59959">
        <ele>89</ele>
        <time>2022-01-27T13:21:50Z</time>
      </trkpt>
      <trkpt lat="47.29433" lon="-1.59961">
        <ele>89</ele>
        <time>2022-01-27T13:21:51Z</time>
      </trkpt>
      <trkpt lat="47.29433" lon="-1.59963">
        <ele>89</ele>
        <time>2022-01-27T13:21:52Z</time>
      </trkpt>
      <trkpt lat="47.29433" lon="-1.59964">
        <ele>89</ele>
        <time>2022-01-27T13:21:53Z</time>
      </trkpt>
      <trkpt lat="47.29434" lon="-1.59968">
        <ele>89</ele>
        <time>2022-01-27T13:21:54Z</time>
      </trkpt>
      <trkpt lat="47.29434" lon="-1.59968">
        <ele>89</ele>
        <time>2022-01-27T13:21:54Z</time>
      </trkpt>
      <trkpt lat="47.29434" lon="-1.5997">
        <ele>90</ele>
        <time>2022-01-27T13:21:56Z</time>
      </trkpt>
      <trkpt lat="47.29434" lon="-1.59972">
        <ele>90</ele>
        <time>2022-01-27T13:21:57Z</time>
      </trkpt>
      <trkpt lat="47.29434" lon="-1.59974">
        <ele>90</ele>
        <time>2022-01-27T13:21:58Z</time>
      </trkpt>
      <trkpt lat="47.29435" lon="-1.59976">
        <ele>90</ele>
        <time>2022-01-27T13:21:59Z</time>
      </trkpt>
      <trkpt lat="47.29435" lon="-1.59978">
        <ele>90</ele>
        <time>2022-01-27T13:22:00Z</time>
      </trkpt>
      <trkpt lat="47.29435" lon="-1.5998">
        <ele>90</ele>
        <time>2022-01-27T13:22:01Z</time>
      </trkpt>
      <trkpt lat="47.29435" lon="-1.59982">
        <ele>90</ele>
        <time>2022-01-27T13:22:02Z</time>
      </trkpt>
      <trkpt lat="47.29435" lon="-1.59984">
        <ele>90</ele>
        <time>2022-01-27T13:22:03Z</time>
      </trkpt>
      <trkpt lat="47.29435" lon="-1.59987">
        <ele>90</ele>
        <time>2022-01-27T13:22:04Z</time>
      </trkpt>
      <trkpt lat="47.29435" lon="-1.59989">
        <ele>90</ele>
        <time>2022-01-27T13:22:05Z</time>
      </trkpt>
      <trkpt lat="47.29435" lon="-1.59992">
        <ele>90</ele>
        <time>2022-01-27T13:22:06Z</time>
      </trkpt>
      <trkpt lat="47.29435" lon="-1.59994">
        <ele>90</ele>
        <time>2022-01-27T13:22:07Z</time>
      </trkpt>
      <trkpt lat="47.29435" lon="-1.59996">
        <ele>90</ele>
        <time>2022-01-27T13:22:08Z</time>
      </trkpt>
      <trkpt lat="47.29435" lon="-1.59998">
        <ele>90</ele>
        <time>2022-01-27T13:22:09Z</time>
      </trkpt>
      <trkpt lat="47.29435" lon="-1.6">
        <ele>90</ele>
        <time>2022-01-27T13:22:10Z</time>
      </trkpt>
      <trkpt lat="47.29435" lon="-1.60002">
        <ele>90</ele>
        <time>2022-01-27T13:22:11Z</time>
      </trkpt>
      <trkpt lat="47.29436" lon="-1.60005">
        <ele>90</ele>
        <time>2022-01-27T13:22:12Z</time>
      </trkpt>
      <trkpt lat="47.29435" lon="-1.60008">
        <ele>90</ele>
        <time>2022-01-27T13:22:13Z</time>
      </trkpt>
      <trkpt lat="47.29436" lon="-1.6001">
        <ele>90</ele>
        <time>2022-01-27T13:22:14Z</time>
      </trkpt>
      <trkpt lat="47.29436" lon="-1.60012">
        <ele>91</ele>
        <time>2022-01-27T13:22:15Z</time>
      </trkpt>
      <trkpt lat="47.29436" lon="-1.60014">
        <ele>91</ele>
        <time>2022-01-27T13:22:16Z</time>
      </trkpt>
      <trkpt lat="47.29437" lon="-1.60016">
        <ele>91</ele>
        <time>2022-01-27T13:22:17Z</time>
      </trkpt>
      <trkpt lat="47.29437" lon="-1.60018">
        <ele>91</ele>
        <time>2022-01-27T13:22:18Z</time>
      </trkpt>
      <trkpt lat="47.29437" lon="-1.6002">
        <ele>91</ele>
        <time>2022-01-27T13:22:19Z</time>
      </trkpt>
      <trkpt lat="47.29437" lon="-1.60022">
        <ele>91</ele>
        <time>2022-01-27T13:22:20Z</time>
      </trkpt>
      <trkpt lat="47.29437" lon="-1.60025">
        <ele>91</ele>
        <time>2022-01-27T13:22:21Z</time>
      </trkpt>
      <trkpt lat="47.29437" lon="-1.60027">
        <ele>92</ele>
        <time>2022-01-27T13:22:22Z</time>
      </trkpt>
      <trkpt lat="47.29437" lon="-1.6003">
        <ele>92</ele>
        <time>2022-01-27T13:22:23Z</time>
      </trkpt>
      <trkpt lat="47.29437" lon="-1.60034">
        <ele>92</ele>
        <time>2022-01-27T13:22:24Z</time>
      </trkpt>
      <trkpt lat="47.29437" lon="-1.60034">
        <ele>92</ele>
        <time>2022-01-27T13:22:24Z</time>
      </trkpt>
      <trkpt lat="47.29436" lon="-1.60036">
        <ele>92</ele>
        <time>2022-01-27T13:22:26Z</time>
      </trkpt>
      <trkpt lat="47.29436" lon="-1.60038">
        <ele>92</ele>
        <time>2022-01-27T13:22:27Z</time>
      </trkpt>
      <trkpt lat="47.29436" lon="-1.6004">
        <ele>92</ele>
        <time>2022-01-27T13:22:28Z</time>
      </trkpt>
      <trkpt lat="47.29436" lon="-1.60043">
        <ele>94</ele>
        <time>2022-01-27T13:22:29Z</time>
      </trkpt>
      <trkpt lat="47.29436" lon="-1.60045">
        <ele>94</ele>
        <time>2022-01-27T13:22:30Z</time>
      </trkpt>
      <trkpt lat="47.29436" lon="-1.60047">
        <ele>94</ele>
        <time>2022-01-27T13:22:32Z</time>
      </trkpt>
      <trkpt lat="47.29436" lon="-1.60051">
        <ele>94</ele>
        <time>2022-01-27T13:22:33Z</time>
      </trkpt>
      <trkpt lat="47.29436" lon="-1.60053">
        <ele>94</ele>
        <time>2022-01-27T13:22:34Z</time>
      </trkpt>
      <trkpt lat="47.29435" lon="-1.60055">
        <ele>94</ele>
        <time>2022-01-27T13:22:35Z</time>
      </trkpt>
      <trkpt lat="47.29435" lon="-1.60056">
        <ele>93</ele>
        <time>2022-01-27T13:22:36Z</time>
      </trkpt>
      <trkpt lat="47.29436" lon="-1.60058">
        <ele>93</ele>
        <time>2022-01-27T13:22:37Z</time>
      </trkpt>
      <trkpt lat="47.29436" lon="-1.6006">
        <ele>93</ele>
        <time>2022-01-27T13:22:38Z</time>
      </trkpt>
      <trkpt lat="47.29436" lon="-1.60062">
        <ele>93</ele>
        <time>2022-01-27T13:22:39Z</time>
      </trkpt>
      <trkpt lat="47.29436" lon="-1.60064">
        <ele>94</ele>
        <time>2022-01-27T13:22:40Z</time>
      </trkpt>
      <trkpt lat="47.29437" lon="-1.60066">
        <ele>94</ele>
        <time>2022-01-27T13:22:41Z</time>
      </trkpt>
      <trkpt lat="47.29437" lon="-1.60068">
        <ele>94</ele>
        <time>2022-01-27T13:22:42Z</time>
      </trkpt>
      <trkpt lat="47.29437" lon="-1.60071">
        <ele>94</ele>
        <time>2022-01-27T13:22:43Z</time>
      </trkpt>
      <trkpt lat="47.29437" lon="-1.60073">
        <ele>94</ele>
        <time>2022-01-27T13:22:44Z</time>
      </trkpt>
      <trkpt lat="47.29437" lon="-1.60075">
        <ele>94</ele>
        <time>2022-01-27T13:22:45Z</time>
      </trkpt>
      <trkpt lat="47.29437" lon="-1.60077">
        <ele>94</ele>
        <time>2022-01-27T13:22:46Z</time>
      </trkpt>
      <trkpt lat="47.29437" lon="-1.60079">
        <ele>94</ele>
        <time>2022-01-27T13:22:47Z</time>
      </trkpt>
      <trkpt lat="47.29437" lon="-1.60081">
        <ele>94</ele>
        <time>2022-01-27T13:22:48Z</time>
      </trkpt>
      <trkpt lat="47.29437" lon="-1.60083">
        <ele>94</ele>
        <time>2022-01-27T13:22:49Z</time>
      </trkpt>
      <trkpt lat="47.29437" lon="-1.60085">
        <ele>94</ele>
        <time>2022-01-27T13:22:50Z</time>
      </trkpt>
      <trkpt lat="47.29437" lon="-1.60086">
        <ele>94</ele>
        <time>2022-01-27T13:22:51Z</time>
      </trkpt>
      <trkpt lat="47.29436" lon="-1.60088">
        <ele>94</ele>
        <time>2022-01-27T13:22:52Z</time>
      </trkpt>
      <trkpt lat="47.29436" lon="-1.6009">
        <ele>94</ele>
        <time>2022-01-27T13:22:53Z</time>
      </trkpt>
      <trkpt lat="47.29436" lon="-1.60092">
        <ele>94</ele>
        <time>2022-01-27T13:22:54Z</time>
      </trkpt>
      <trkpt lat="47.29436" lon="-1.60094">
        <ele>94</ele>
        <time>2022-01-27T13:22:55Z</time>
      </trkpt>
      <trkpt lat="47.29436" lon="-1.60096">
        <ele>94</ele>
        <time>2022-01-27T13:22:56Z</time>
      </trkpt>
      <trkpt lat="47.29436" lon="-1.60098">
        <ele>94</ele>
        <time>2022-01-27T13:22:57Z</time>
      </trkpt>
      <trkpt lat="47.29436" lon="-1.601">
        <ele>94</ele>
        <time>2022-01-27T13:22:58Z</time>
      </trkpt>
      <trkpt lat="47.29436" lon="-1.60102">
        <ele>95</ele>
        <time>2022-01-27T13:22:59Z</time>
      </trkpt>
      <trkpt lat="47.29436" lon="-1.60104">
        <ele>94</ele>
        <time>2022-01-27T13:23:00Z</time>
      </trkpt>
      <trkpt lat="47.29436" lon="-1.60106">
        <ele>94</ele>
        <time>2022-01-27T13:23:01Z</time>
      </trkpt>
      <trkpt lat="47.29436" lon="-1.60108">
        <ele>94</ele>
        <time>2022-01-27T13:23:02Z</time>
      </trkpt>
      <trkpt lat="47.29436" lon="-1.6011">
        <ele>94</ele>
        <time>2022-01-27T13:23:03Z</time>
      </trkpt>
      <trkpt lat="47.29436" lon="-1.60112">
        <ele>94</ele>
        <time>2022-01-27T13:23:04Z</time>
      </trkpt>
      <trkpt lat="47.29436" lon="-1.60114">
        <ele>94</ele>
        <time>2022-01-27T13:23:05Z</time>
      </trkpt>
      <trkpt lat="47.29436" lon="-1.60116">
        <ele>94</ele>
        <time>2022-01-27T13:23:06Z</time>
      </trkpt>
      <trkpt lat="47.29437" lon="-1.60119">
        <ele>94</ele>
        <time>2022-01-27T13:23:07Z</time>
      </trkpt>
      <trkpt lat="47.29437" lon="-1.60121">
        <ele>94</ele>
        <time>2022-01-27T13:23:08Z</time>
      </trkpt>
      <trkpt lat="47.29437" lon="-1.60123">
        <ele>94</ele>
        <time>2022-01-27T13:23:09Z</time>
      </trkpt>
      <trkpt lat="47.29437" lon="-1.60125">
        <ele>94</ele>
        <time>2022-01-27T13:23:10Z</time>
      </trkpt>
      <trkpt lat="47.29437" lon="-1.60127">
        <ele>94</ele>
        <time>2022-01-27T13:23:11Z</time>
      </trkpt>
      <trkpt lat="47.29437" lon="-1.60129">
        <ele>94</ele>
        <time>2022-01-27T13:23:12Z</time>
      </trkpt>
      <trkpt lat="47.29437" lon="-1.60131">
        <ele>94</ele>
        <time>2022-01-27T13:23:13Z</time>
      </trkpt>
      <trkpt lat="47.29437" lon="-1.60133">
        <ele>95</ele>
        <time>2022-01-27T13:23:14Z</time>
      </trkpt>
      <trkpt lat="47.29437" lon="-1.60135">
        <ele>95</ele>
        <time>2022-01-27T13:23:15Z</time>
      </trkpt>
      <trkpt lat="47.29437" lon="-1.60137">
        <ele>95</ele>
        <time>2022-01-27T13:23:16Z</time>
      </trkpt>
      <trkpt lat="47.29437" lon="-1.60138">
        <ele>95</ele>
        <time>2022-01-27T13:23:17Z</time>
      </trkpt>
      <trkpt lat="47.29437" lon="-1.6014">
        <ele>95</ele>
        <time>2022-01-27T13:23:18Z</time>
      </trkpt>
      <trkpt lat="47.29437" lon="-1.60142">
        <ele>96</ele>
        <time>2022-01-27T13:23:19Z</time>
      </trkpt>
      <trkpt lat="47.29437" lon="-1.60144">
        <ele>96</ele>
        <time>2022-01-27T13:23:20Z</time>
      </trkpt>
      <trkpt lat="47.29437" lon="-1.60146">
        <ele>96</ele>
        <time>2022-01-27T13:23:21Z</time>
      </trkpt>
      <trkpt lat="47.29437" lon="-1.60148">
        <ele>96</ele>
        <time>2022-01-27T13:23:22Z</time>
      </trkpt>
      <trkpt lat="47.29437" lon="-1.6015">
        <ele>96</ele>
        <time>2022-01-27T13:23:23Z</time>
      </trkpt>
      <trkpt lat="47.29437" lon="-1.60152">
        <ele>95</ele>
        <time>2022-01-27T13:23:24Z</time>
      </trkpt>
      <trkpt lat="47.29438" lon="-1.60154">
        <ele>96</ele>
        <time>2022-01-27T13:23:25Z</time>
      </trkpt>
      <trkpt lat="47.29438" lon="-1.60156">
        <ele>96</ele>
        <time>2022-01-27T13:23:26Z</time>
      </trkpt>
      <trkpt lat="47.29438" lon="-1.60159">
        <ele>96</ele>
        <time>2022-01-27T13:23:27Z</time>
      </trkpt>
      <trkpt lat="47.29439" lon="-1.60161">
        <ele>96</ele>
        <time>2022-01-27T13:23:28Z</time>
      </trkpt>
      <trkpt lat="47.29439" lon="-1.60163">
        <ele>96</ele>
        <time>2022-01-27T13:23:29Z</time>
      </trkpt>
      <trkpt lat="47.2944" lon="-1.60165">
        <ele>96</ele>
        <time>2022-01-27T13:23:30Z</time>
      </trkpt>
      <trkpt lat="47.2944" lon="-1.60167">
        <ele>96</ele>
        <time>2022-01-27T13:23:31Z</time>
      </trkpt>
      <trkpt lat="47.29439" lon="-1.60169">
        <ele>96</ele>
        <time>2022-01-27T13:23:32Z</time>
      </trkpt>
      <trkpt lat="47.2944" lon="-1.6017">
        <ele>96</ele>
        <time>2022-01-27T13:23:33Z</time>
      </trkpt>
      <trkpt lat="47.2944" lon="-1.60172">
        <ele>96</ele>
        <time>2022-01-27T13:23:34Z</time>
      </trkpt>
      <trkpt lat="47.29441" lon="-1.60174">
        <ele>96</ele>
        <time>2022-01-27T13:23:35Z</time>
      </trkpt>
      <trkpt lat="47.29441" lon="-1.60176">
        <ele>96</ele>
        <time>2022-01-27T13:23:36Z</time>
      </trkpt>
      <trkpt lat="47.29441" lon="-1.60178">
        <ele>96</ele>
        <time>2022-01-27T13:23:37Z</time>
      </trkpt>
      <trkpt lat="47.29442" lon="-1.6018">
        <ele>96</ele>
        <time>2022-01-27T13:23:38Z</time>
      </trkpt>
      <trkpt lat="47.29442" lon="-1.60182">
        <ele>96</ele>
        <time>2022-01-27T13:23:39Z</time>
      </trkpt>
      <trkpt lat="47.29442" lon="-1.60183">
        <ele>96</ele>
        <time>2022-01-27T13:23:40Z</time>
      </trkpt>
      <trkpt lat="47.29442" lon="-1.60185">
        <ele>97</ele>
        <time>2022-01-27T13:23:41Z</time>
      </trkpt>
      <trkpt lat="47.29443" lon="-1.60187">
        <ele>98</ele>
        <time>2022-01-27T13:23:42Z</time>
      </trkpt>
      <trkpt lat="47.29443" lon="-1.60189">
        <ele>98</ele>
        <time>2022-01-27T13:23:43Z</time>
      </trkpt>
      <trkpt lat="47.29443" lon="-1.60191">
        <ele>98</ele>
        <time>2022-01-27T13:23:44Z</time>
      </trkpt>
      <trkpt lat="47.29443" lon="-1.60193">
        <ele>98</ele>
        <time>2022-01-27T13:23:45Z</time>
      </trkpt>
      <trkpt lat="47.29444" lon="-1.60194">
        <ele>98</ele>
        <time>2022-01-27T13:23:46Z</time>
      </trkpt>
      <trkpt lat="47.29444" lon="-1.60197">
        <ele>98</ele>
        <time>2022-01-27T13:23:47Z</time>
      </trkpt>
      <trkpt lat="47.29444" lon="-1.60199">
        <ele>99</ele>
        <time>2022-01-27T13:23:48Z</time>
      </trkpt>
      <trkpt lat="47.29444" lon="-1.60201">
        <ele>99</ele>
        <time>2022-01-27T13:23:49Z</time>
      </trkpt>
      <trkpt lat="47.29444" lon="-1.60203">
        <ele>99</ele>
        <time>2022-01-27T13:23:50Z</time>
      </trkpt>
      <trkpt lat="47.29445" lon="-1.60205">
        <ele>100</ele>
        <time>2022-01-27T13:23:51Z</time>
      </trkpt>
      <trkpt lat="47.29445" lon="-1.60207">
        <ele>100</ele>
        <time>2022-01-27T13:23:52Z</time>
      </trkpt>
      <trkpt lat="47.29445" lon="-1.60209">
        <ele>100</ele>
        <time>2022-01-27T13:23:53Z</time>
      </trkpt>
      <trkpt lat="47.29445" lon="-1.60211">
        <ele>101</ele>
        <time>2022-01-27T13:23:54Z</time>
      </trkpt>
      <trkpt lat="47.29445" lon="-1.60213">
        <ele>101</ele>
        <time>2022-01-27T13:23:55Z</time>
      </trkpt>
      <trkpt lat="47.29445" lon="-1.60215">
        <ele>101</ele>
        <time>2022-01-27T13:23:56Z</time>
      </trkpt>
      <trkpt lat="47.29445" lon="-1.60217">
        <ele>101</ele>
        <time>2022-01-27T13:23:57Z</time>
      </trkpt>
      <trkpt lat="47.29444" lon="-1.60219">
        <ele>101</ele>
        <time>2022-01-27T13:23:58Z</time>
      </trkpt>
      <trkpt lat="47.29444" lon="-1.60222">
        <ele>101</ele>
        <time>2022-01-27T13:23:59Z</time>
      </trkpt>
      <trkpt lat="47.29443" lon="-1.60224">
        <ele>101</ele>
        <time>2022-01-27T13:24:00Z</time>
      </trkpt>
      <trkpt lat="47.29442" lon="-1.60224">
        <ele>102</ele>
        <time>2022-01-27T13:24:01Z</time>
      </trkpt>
      <trkpt lat="47.29442" lon="-1.60225">
        <ele>102</ele>
        <time>2022-01-27T13:24:02Z</time>
      </trkpt>
      <trkpt lat="47.29441" lon="-1.60226">
        <ele>101</ele>
        <time>2022-01-27T13:24:03Z</time>
      </trkpt>
      <trkpt lat="47.2944" lon="-1.60228">
        <ele>102</ele>
        <time>2022-01-27T13:24:04Z</time>
      </trkpt>
      <trkpt lat="47.29439" lon="-1.60229">
        <ele>102</ele>
        <time>2022-01-27T13:24:05Z</time>
      </trkpt>
      <trkpt lat="47.29438" lon="-1.60231">
        <ele>102</ele>
        <time>2022-01-27T13:24:06Z</time>
      </trkpt>
      <trkpt lat="47.29437" lon="-1.60232">
        <ele>102</ele>
        <time>2022-01-27T13:24:07Z</time>
      </trkpt>
      <trkpt lat="47.29437" lon="-1.60232">
        <ele>102</ele>
        <time>2022-01-27T13:24:08Z</time>
      </trkpt>
      <trkpt lat="47.29435" lon="-1.60233">
        <ele>101</ele>
        <time>2022-01-27T13:24:09Z</time>
      </trkpt>
      <trkpt lat="47.29435" lon="-1.60234">
        <ele>102</ele>
        <time>2022-01-27T13:24:10Z</time>
      </trkpt>
      <trkpt lat="47.29434" lon="-1.60236">
        <ele>102</ele>
        <time>2022-01-27T13:24:11Z</time>
      </trkpt>
      <trkpt lat="47.29433" lon="-1.60237">
        <ele>102</ele>
        <time>2022-01-27T13:24:12Z</time>
      </trkpt>
      <trkpt lat="47.29433" lon="-1.60238">
        <ele>102</ele>
        <time>2022-01-27T13:24:13Z</time>
      </trkpt>
      <trkpt lat="47.29431" lon="-1.6024">
        <ele>101</ele>
        <time>2022-01-27T13:24:14Z</time>
      </trkpt>
      <trkpt lat="47.2943" lon="-1.60241">
        <ele>101</ele>
        <time>2022-01-27T13:24:15Z</time>
      </trkpt>
      <trkpt lat="47.29429" lon="-1.60243">
        <ele>102</ele>
        <time>2022-01-27T13:24:16Z</time>
      </trkpt>
      <trkpt lat="47.29428" lon="-1.60243">
        <ele>102</ele>
        <time>2022-01-27T13:24:17Z</time>
      </trkpt>
      <trkpt lat="47.29427" lon="-1.60245">
        <ele>102</ele>
        <time>2022-01-27T13:24:18Z</time>
      </trkpt>
      <trkpt lat="47.29427" lon="-1.60246">
        <ele>102</ele>
        <time>2022-01-27T13:24:19Z</time>
      </trkpt>
      <trkpt lat="47.29426" lon="-1.60247">
        <ele>102</ele>
        <time>2022-01-27T13:24:20Z</time>
      </trkpt>
      <trkpt lat="47.29425" lon="-1.60248">
        <ele>102</ele>
        <time>2022-01-27T13:24:21Z</time>
      </trkpt>
      <trkpt lat="47.29424" lon="-1.6025">
        <ele>102</ele>
        <time>2022-01-27T13:24:22Z</time>
      </trkpt>
      <trkpt lat="47.29423" lon="-1.60252">
        <ele>102</ele>
        <time>2022-01-27T13:24:23Z</time>
      </trkpt>
      <trkpt lat="47.29422" lon="-1.60253">
        <ele>101</ele>
        <time>2022-01-27T13:24:24Z</time>
      </trkpt>
      <trkpt lat="47.29421" lon="-1.60255">
        <ele>101</ele>
        <time>2022-01-27T13:24:25Z</time>
      </trkpt>
      <trkpt lat="47.2942" lon="-1.60256">
        <ele>101</ele>
        <time>2022-01-27T13:24:26Z</time>
      </trkpt>
      <trkpt lat="47.29419" lon="-1.60257">
        <ele>101</ele>
        <time>2022-01-27T13:24:27Z</time>
      </trkpt>
      <trkpt lat="47.29417" lon="-1.60259">
        <ele>101</ele>
        <time>2022-01-27T13:24:28Z</time>
      </trkpt>
      <trkpt lat="47.29417" lon="-1.6026">
        <ele>101</ele>
        <time>2022-01-27T13:24:29Z</time>
      </trkpt>
      <trkpt lat="47.29416" lon="-1.60262">
        <ele>101</ele>
        <time>2022-01-27T13:24:30Z</time>
      </trkpt>
      <trkpt lat="47.29415" lon="-1.60263">
        <ele>101</ele>
        <time>2022-01-27T13:24:31Z</time>
      </trkpt>
      <trkpt lat="47.29414" lon="-1.60265">
        <ele>100</ele>
        <time>2022-01-27T13:24:32Z</time>
      </trkpt>
      <trkpt lat="47.29413" lon="-1.60266">
        <ele>100</ele>
        <time>2022-01-27T13:24:33Z</time>
      </trkpt>
      <trkpt lat="47.29413" lon="-1.60268">
        <ele>100</ele>
        <time>2022-01-27T13:24:34Z</time>
      </trkpt>
      <trkpt lat="47.29412" lon="-1.60269">
        <ele>100</ele>
        <time>2022-01-27T13:24:35Z</time>
      </trkpt>
      <trkpt lat="47.29411" lon="-1.6027">
        <ele>100</ele>
        <time>2022-01-27T13:24:36Z</time>
      </trkpt>
      <trkpt lat="47.2941" lon="-1.60271">
        <ele>100</ele>
        <time>2022-01-27T13:24:37Z</time>
      </trkpt>
      <trkpt lat="47.29409" lon="-1.60273">
        <ele>101</ele>
        <time>2022-01-27T13:24:38Z</time>
      </trkpt>
      <trkpt lat="47.29408" lon="-1.60275">
        <ele>101</ele>
        <time>2022-01-27T13:24:39Z</time>
      </trkpt>
      <trkpt lat="47.29407" lon="-1.60277">
        <ele>101</ele>
        <time>2022-01-27T13:24:40Z</time>
      </trkpt>
      <trkpt lat="47.29406" lon="-1.60278">
        <ele>101</ele>
        <time>2022-01-27T13:24:41Z</time>
      </trkpt>
      <trkpt lat="47.29404" lon="-1.6028">
        <ele>101</ele>
        <time>2022-01-27T13:24:42Z</time>
      </trkpt>
      <trkpt lat="47.29403" lon="-1.60282">
        <ele>102</ele>
        <time>2022-01-27T13:24:43Z</time>
      </trkpt>
      <trkpt lat="47.29402" lon="-1.60283">
        <ele>102</ele>
        <time>2022-01-27T13:24:44Z</time>
      </trkpt>
      <trkpt lat="47.29401" lon="-1.60285">
        <ele>102</ele>
        <time>2022-01-27T13:24:45Z</time>
      </trkpt>
      <trkpt lat="47.294" lon="-1.60286">
        <ele>102</ele>
        <time>2022-01-27T13:24:46Z</time>
      </trkpt>
      <trkpt lat="47.29399" lon="-1.60287">
        <ele>102</ele>
        <time>2022-01-27T13:24:47Z</time>
      </trkpt>
      <trkpt lat="47.29398" lon="-1.60289">
        <ele>102</ele>
        <time>2022-01-27T13:24:48Z</time>
      </trkpt>
      <trkpt lat="47.29397" lon="-1.6029">
        <ele>101</ele>
        <time>2022-01-27T13:24:49Z</time>
      </trkpt>
      <trkpt lat="47.29396" lon="-1.60291">
        <ele>101</ele>
        <time>2022-01-27T13:24:50Z</time>
      </trkpt>
      <trkpt lat="47.29395" lon="-1.60292">
        <ele>100</ele>
        <time>2022-01-27T13:24:51Z</time>
      </trkpt>
      <trkpt lat="47.29395" lon="-1.60293">
        <ele>100</ele>
        <time>2022-01-27T13:24:52Z</time>
      </trkpt>
      <trkpt lat="47.29394" lon="-1.60294">
        <ele>100</ele>
        <time>2022-01-27T13:24:53Z</time>
      </trkpt>
      <trkpt lat="47.29393" lon="-1.60296">
        <ele>100</ele>
        <time>2022-01-27T13:24:54Z</time>
      </trkpt>
      <trkpt lat="47.29392" lon="-1.60298">
        <ele>100</ele>
        <time>2022-01-27T13:24:55Z</time>
      </trkpt>
      <trkpt lat="47.29391" lon="-1.603">
        <ele>100</ele>
        <time>2022-01-27T13:24:56Z</time>
      </trkpt>
      <trkpt lat="47.2939" lon="-1.60301">
        <ele>100</ele>
        <time>2022-01-27T13:24:57Z</time>
      </trkpt>
      <trkpt lat="47.29389" lon="-1.60303">
        <ele>100</ele>
        <time>2022-01-27T13:24:58Z</time>
      </trkpt>
      <trkpt lat="47.29388" lon="-1.60304">
        <ele>100</ele>
        <time>2022-01-27T13:24:59Z</time>
      </trkpt>
      <trkpt lat="47.29387" lon="-1.60305">
        <ele>100</ele>
        <time>2022-01-27T13:25:00Z</time>
      </trkpt>
      <trkpt lat="47.29387" lon="-1.60307">
        <ele>100</ele>
        <time>2022-01-27T13:25:01Z</time>
      </trkpt>
      <trkpt lat="47.29385" lon="-1.60309">
        <ele>100</ele>
        <time>2022-01-27T13:25:02Z</time>
      </trkpt>
      <trkpt lat="47.29385" lon="-1.60311">
        <ele>100</ele>
        <time>2022-01-27T13:25:03Z</time>
      </trkpt>
      <trkpt lat="47.29384" lon="-1.60313">
        <ele>100</ele>
        <time>2022-01-27T13:25:04Z</time>
      </trkpt>
      <trkpt lat="47.29382" lon="-1.60315">
        <ele>100</ele>
        <time>2022-01-27T13:25:05Z</time>
      </trkpt>
      <trkpt lat="47.29382" lon="-1.60317">
        <ele>100</ele>
        <time>2022-01-27T13:25:06Z</time>
      </trkpt>
      <trkpt lat="47.2938" lon="-1.60318">
        <ele>100</ele>
        <time>2022-01-27T13:25:07Z</time>
      </trkpt>
      <trkpt lat="47.2938" lon="-1.6032">
        <ele>100</ele>
        <time>2022-01-27T13:25:08Z</time>
      </trkpt>
      <trkpt lat="47.29379" lon="-1.60322">
        <ele>100</ele>
        <time>2022-01-27T13:25:09Z</time>
      </trkpt>
      <trkpt lat="47.29377" lon="-1.60323">
        <ele>100</ele>
        <time>2022-01-27T13:25:10Z</time>
      </trkpt>
      <trkpt lat="47.29376" lon="-1.60325">
        <ele>100</ele>
        <time>2022-01-27T13:25:11Z</time>
      </trkpt>
      <trkpt lat="47.29375" lon="-1.60327">
        <ele>100</ele>
        <time>2022-01-27T13:25:12Z</time>
      </trkpt>
      <trkpt lat="47.29374" lon="-1.60328">
        <ele>100</ele>
        <time>2022-01-27T13:25:13Z</time>
      </trkpt>
      <trkpt lat="47.29373" lon="-1.6033">
        <ele>100</ele>
        <time>2022-01-27T13:25:14Z</time>
      </trkpt>
      <trkpt lat="47.29372" lon="-1.60331">
        <ele>100</ele>
        <time>2022-01-27T13:25:15Z</time>
      </trkpt>
      <trkpt lat="47.29371" lon="-1.60333">
        <ele>100</ele>
        <time>2022-01-27T13:25:16Z</time>
      </trkpt>
      <trkpt lat="47.2937" lon="-1.60334">
        <ele>100</ele>
        <time>2022-01-27T13:25:17Z</time>
      </trkpt>
      <trkpt lat="47.29369" lon="-1.60335">
        <ele>100</ele>
        <time>2022-01-27T13:25:18Z</time>
      </trkpt>
      <trkpt lat="47.29369" lon="-1.60336">
        <ele>100</ele>
        <time>2022-01-27T13:25:19Z</time>
      </trkpt>
      <trkpt lat="47.29368" lon="-1.60337">
        <ele>100</ele>
        <time>2022-01-27T13:25:20Z</time>
      </trkpt>
      <trkpt lat="47.29367" lon="-1.60339">
        <ele>100</ele>
        <time>2022-01-27T13:25:21Z</time>
      </trkpt>
      <trkpt lat="47.29366" lon="-1.6034">
        <ele>100</ele>
        <time>2022-01-27T13:25:22Z</time>
      </trkpt>
      <trkpt lat="47.29365" lon="-1.60342">
        <ele>100</ele>
        <time>2022-01-27T13:25:23Z</time>
      </trkpt>
      <trkpt lat="47.29364" lon="-1.60344">
        <ele>100</ele>
        <time>2022-01-27T13:25:24Z</time>
      </trkpt>
      <trkpt lat="47.29363" lon="-1.60346">
        <ele>100</ele>
        <time>2022-01-27T13:25:25Z</time>
      </trkpt>
      <trkpt lat="47.29363" lon="-1.60348">
        <ele>100</ele>
        <time>2022-01-27T13:25:26Z</time>
      </trkpt>
      <trkpt lat="47.29363" lon="-1.6035">
        <ele>100</ele>
        <time>2022-01-27T13:25:27Z</time>
      </trkpt>
      <trkpt lat="47.29361" lon="-1.60351">
        <ele>100</ele>
        <time>2022-01-27T13:25:28Z</time>
      </trkpt>
      <trkpt lat="47.2936" lon="-1.60352">
        <ele>99</ele>
        <time>2022-01-27T13:25:29Z</time>
      </trkpt>
      <trkpt lat="47.29359" lon="-1.60353">
        <ele>99</ele>
        <time>2022-01-27T13:25:30Z</time>
      </trkpt>
      <trkpt lat="47.29358" lon="-1.60354">
        <ele>99</ele>
        <time>2022-01-27T13:25:31Z</time>
      </trkpt>
      <trkpt lat="47.29357" lon="-1.60355">
        <ele>99</ele>
        <time>2022-01-27T13:25:32Z</time>
      </trkpt>
      <trkpt lat="47.29355" lon="-1.60357">
        <ele>98</ele>
        <time>2022-01-27T13:25:33Z</time>
      </trkpt>
      <trkpt lat="47.29354" lon="-1.60358">
        <ele>98</ele>
        <time>2022-01-27T13:25:34Z</time>
      </trkpt>
      <trkpt lat="47.29353" lon="-1.6036">
        <ele>98</ele>
        <time>2022-01-27T13:25:35Z</time>
      </trkpt>
      <trkpt lat="47.29352" lon="-1.60362">
        <ele>98</ele>
        <time>2022-01-27T13:25:36Z</time>
      </trkpt>
      <trkpt lat="47.29351" lon="-1.60363">
        <ele>98</ele>
        <time>2022-01-27T13:25:37Z</time>
      </trkpt>
      <trkpt lat="47.2935" lon="-1.60364">
        <ele>99</ele>
        <time>2022-01-27T13:25:38Z</time>
      </trkpt>
      <trkpt lat="47.29348" lon="-1.60365">
        <ele>99</ele>
        <time>2022-01-27T13:25:39Z</time>
      </trkpt>
      <trkpt lat="47.29347" lon="-1.60366">
        <ele>99</ele>
        <time>2022-01-27T13:25:40Z</time>
      </trkpt>
      <trkpt lat="47.29345" lon="-1.60368">
        <ele>99</ele>
        <time>2022-01-27T13:25:41Z</time>
      </trkpt>
      <trkpt lat="47.29345" lon="-1.6037">
        <ele>99</ele>
        <time>2022-01-27T13:25:42Z</time>
      </trkpt>
      <trkpt lat="47.29343" lon="-1.60371">
        <ele>99</ele>
        <time>2022-01-27T13:25:43Z</time>
      </trkpt>
      <trkpt lat="47.29343" lon="-1.60373">
        <ele>99</ele>
        <time>2022-01-27T13:25:44Z</time>
      </trkpt>
      <trkpt lat="47.29341" lon="-1.60374">
        <ele>98</ele>
        <time>2022-01-27T13:25:45Z</time>
      </trkpt>
      <trkpt lat="47.2934" lon="-1.60376">
        <ele>98</ele>
        <time>2022-01-27T13:25:46Z</time>
      </trkpt>
      <trkpt lat="47.29339" lon="-1.60377">
        <ele>98</ele>
        <time>2022-01-27T13:25:47Z</time>
      </trkpt>
      <trkpt lat="47.29338" lon="-1.60379">
        <ele>99</ele>
        <time>2022-01-27T13:25:48Z</time>
      </trkpt>
      <trkpt lat="47.29337" lon="-1.6038">
        <ele>99</ele>
        <time>2022-01-27T13:25:49Z</time>
      </trkpt>
      <trkpt lat="47.29336" lon="-1.60381">
        <ele>99</ele>
        <time>2022-01-27T13:25:50Z</time>
      </trkpt>
      <trkpt lat="47.29335" lon="-1.60382">
        <ele>99</ele>
        <time>2022-01-27T13:25:51Z</time>
      </trkpt>
      <trkpt lat="47.29334" lon="-1.60383">
        <ele>99</ele>
        <time>2022-01-27T13:25:52Z</time>
      </trkpt>
      <trkpt lat="47.29333" lon="-1.60385">
        <ele>99</ele>
        <time>2022-01-27T13:25:53Z</time>
      </trkpt>
      <trkpt lat="47.29332" lon="-1.60387">
        <ele>99</ele>
        <time>2022-01-27T13:25:54Z</time>
      </trkpt>
      <trkpt lat="47.29331" lon="-1.60388">
        <ele>99</ele>
        <time>2022-01-27T13:25:55Z</time>
      </trkpt>
      <trkpt lat="47.2933" lon="-1.60389">
        <ele>99</ele>
        <time>2022-01-27T13:25:56Z</time>
      </trkpt>
      <trkpt lat="47.29329" lon="-1.60391">
        <ele>99</ele>
        <time>2022-01-27T13:25:57Z</time>
      </trkpt>
      <trkpt lat="47.29328" lon="-1.60392">
        <ele>99</ele>
        <time>2022-01-27T13:25:58Z</time>
      </trkpt>
      <trkpt lat="47.29327" lon="-1.60393">
        <ele>99</ele>
        <time>2022-01-27T13:25:59Z</time>
      </trkpt>
      <trkpt lat="47.29326" lon="-1.60395">
        <ele>99</ele>
        <time>2022-01-27T13:26:00Z</time>
      </trkpt>
      <trkpt lat="47.29325" lon="-1.60397">
        <ele>99</ele>
        <time>2022-01-27T13:26:01Z</time>
      </trkpt>
      <trkpt lat="47.29324" lon="-1.60399">
        <ele>99</ele>
        <time>2022-01-27T13:26:02Z</time>
      </trkpt>
      <trkpt lat="47.29323" lon="-1.60401">
        <ele>99</ele>
        <time>2022-01-27T13:26:03Z</time>
      </trkpt>
      <trkpt lat="47.29322" lon="-1.60401">
        <ele>99</ele>
        <time>2022-01-27T13:26:04Z</time>
      </trkpt>
      <trkpt lat="47.29321" lon="-1.60402">
        <ele>99</ele>
        <time>2022-01-27T13:26:05Z</time>
      </trkpt>
      <trkpt lat="47.2932" lon="-1.60403">
        <ele>99</ele>
        <time>2022-01-27T13:26:06Z</time>
      </trkpt>
      <trkpt lat="47.29319" lon="-1.60404">
        <ele>100</ele>
        <time>2022-01-27T13:26:07Z</time>
      </trkpt>
      <trkpt lat="47.29318" lon="-1.60405">
        <ele>100</ele>
        <time>2022-01-27T13:26:08Z</time>
      </trkpt>
      <trkpt lat="47.29317" lon="-1.60407">
        <ele>100</ele>
        <time>2022-01-27T13:26:09Z</time>
      </trkpt>
      <trkpt lat="47.29316" lon="-1.60408">
        <ele>100</ele>
        <time>2022-01-27T13:26:10Z</time>
      </trkpt>
      <trkpt lat="47.29315" lon="-1.6041">
        <ele>99</ele>
        <time>2022-01-27T13:26:11Z</time>
      </trkpt>
      <trkpt lat="47.29314" lon="-1.60412">
        <ele>99</ele>
        <time>2022-01-27T13:26:12Z</time>
      </trkpt>
      <trkpt lat="47.29313" lon="-1.60413">
        <ele>100</ele>
        <time>2022-01-27T13:26:13Z</time>
      </trkpt>
      <trkpt lat="47.29311" lon="-1.60415">
        <ele>100</ele>
        <time>2022-01-27T13:26:14Z</time>
      </trkpt>
      <trkpt lat="47.29311" lon="-1.60416">
        <ele>100</ele>
        <time>2022-01-27T13:26:15Z</time>
      </trkpt>
      <trkpt lat="47.2931" lon="-1.60418">
        <ele>100</ele>
        <time>2022-01-27T13:26:16Z</time>
      </trkpt>
      <trkpt lat="47.29309" lon="-1.60419">
        <ele>100</ele>
        <time>2022-01-27T13:26:17Z</time>
      </trkpt>
      <trkpt lat="47.29308" lon="-1.60421">
        <ele>100</ele>
        <time>2022-01-27T13:26:18Z</time>
      </trkpt>
      <trkpt lat="47.29307" lon="-1.60422">
        <ele>100</ele>
        <time>2022-01-27T13:26:19Z</time>
      </trkpt>
      <trkpt lat="47.29306" lon="-1.60424">
        <ele>100</ele>
        <time>2022-01-27T13:26:20Z</time>
      </trkpt>
      <trkpt lat="47.29305" lon="-1.60426">
        <ele>100</ele>
        <time>2022-01-27T13:26:21Z</time>
      </trkpt>
      <trkpt lat="47.29304" lon="-1.60427">
        <ele>100</ele>
        <time>2022-01-27T13:26:22Z</time>
      </trkpt>
      <trkpt lat="47.29303" lon="-1.60428">
        <ele>100</ele>
        <time>2022-01-27T13:26:23Z</time>
      </trkpt>
      <trkpt lat="47.29302" lon="-1.60429">
        <ele>101</ele>
        <time>2022-01-27T13:26:24Z</time>
      </trkpt>
      <trkpt lat="47.29301" lon="-1.60431">
        <ele>100</ele>
        <time>2022-01-27T13:26:25Z</time>
      </trkpt>
      <trkpt lat="47.293" lon="-1.60432">
        <ele>100</ele>
        <time>2022-01-27T13:26:26Z</time>
      </trkpt>
      <trkpt lat="47.29299" lon="-1.60433">
        <ele>100</ele>
        <time>2022-01-27T13:26:27Z</time>
      </trkpt>
      <trkpt lat="47.29298" lon="-1.60434">
        <ele>100</ele>
        <time>2022-01-27T13:26:28Z</time>
      </trkpt>
      <trkpt lat="47.29298" lon="-1.60435">
        <ele>100</ele>
        <time>2022-01-27T13:26:29Z</time>
      </trkpt>
      <trkpt lat="47.29297" lon="-1.60436">
        <ele>100</ele>
        <time>2022-01-27T13:26:30Z</time>
      </trkpt>
      <trkpt lat="47.29297" lon="-1.60438">
        <ele>100</ele>
        <time>2022-01-27T13:26:31Z</time>
      </trkpt>
      <trkpt lat="47.29296" lon="-1.60439">
        <ele>100</ele>
        <time>2022-01-27T13:26:32Z</time>
      </trkpt>
      <trkpt lat="47.29295" lon="-1.6044">
        <ele>100</ele>
        <time>2022-01-27T13:26:33Z</time>
      </trkpt>
      <trkpt lat="47.29294" lon="-1.60441">
        <ele>99</ele>
        <time>2022-01-27T13:26:34Z</time>
      </trkpt>
      <trkpt lat="47.29293" lon="-1.60442">
        <ele>100</ele>
        <time>2022-01-27T13:26:35Z</time>
      </trkpt>
      <trkpt lat="47.29292" lon="-1.60443">
        <ele>99</ele>
        <time>2022-01-27T13:26:36Z</time>
      </trkpt>
      <trkpt lat="47.2929" lon="-1.60445">
        <ele>99</ele>
        <time>2022-01-27T13:26:37Z</time>
      </trkpt>
      <trkpt lat="47.29289" lon="-1.60446">
        <ele>99</ele>
        <time>2022-01-27T13:26:38Z</time>
      </trkpt>
      <trkpt lat="47.29288" lon="-1.60447">
        <ele>99</ele>
        <time>2022-01-27T13:26:39Z</time>
      </trkpt>
      <trkpt lat="47.29287" lon="-1.60448">
        <ele>99</ele>
        <time>2022-01-27T13:26:40Z</time>
      </trkpt>
      <trkpt lat="47.29285" lon="-1.60449">
        <ele>99</ele>
        <time>2022-01-27T13:26:41Z</time>
      </trkpt>
      <trkpt lat="47.29284" lon="-1.6045">
        <ele>99</ele>
        <time>2022-01-27T13:26:42Z</time>
      </trkpt>
      <trkpt lat="47.29282" lon="-1.60451">
        <ele>99</ele>
        <time>2022-01-27T13:26:43Z</time>
      </trkpt>
      <trkpt lat="47.29281" lon="-1.60452">
        <ele>99</ele>
        <time>2022-01-27T13:26:44Z</time>
      </trkpt>
      <trkpt lat="47.2928" lon="-1.60452">
        <ele>100</ele>
        <time>2022-01-27T13:26:45Z</time>
      </trkpt>
      <trkpt lat="47.29279" lon="-1.60453">
        <ele>100</ele>
        <time>2022-01-27T13:26:46Z</time>
      </trkpt>
      <trkpt lat="47.29278" lon="-1.60455">
        <ele>100</ele>
        <time>2022-01-27T13:26:47Z</time>
      </trkpt>
      <trkpt lat="47.29277" lon="-1.60456">
        <ele>99</ele>
        <time>2022-01-27T13:26:48Z</time>
      </trkpt>
      <trkpt lat="47.29276" lon="-1.60457">
        <ele>99</ele>
        <time>2022-01-27T13:26:49Z</time>
      </trkpt>
      <trkpt lat="47.29274" lon="-1.60457">
        <ele>100</ele>
        <time>2022-01-27T13:26:50Z</time>
      </trkpt>
      <trkpt lat="47.29273" lon="-1.60459">
        <ele>100</ele>
        <time>2022-01-27T13:26:51Z</time>
      </trkpt>
      <trkpt lat="47.29271" lon="-1.6046">
        <ele>100</ele>
        <time>2022-01-27T13:26:52Z</time>
      </trkpt>
      <trkpt lat="47.2927" lon="-1.6046">
        <ele>100</ele>
        <time>2022-01-27T13:26:53Z</time>
      </trkpt>
      <trkpt lat="47.29268" lon="-1.60461">
        <ele>100</ele>
        <time>2022-01-27T13:26:54Z</time>
      </trkpt>
      <trkpt lat="47.29267" lon="-1.60461">
        <ele>100</ele>
        <time>2022-01-27T13:26:55Z</time>
      </trkpt>
      <trkpt lat="47.29266" lon="-1.60462">
        <ele>100</ele>
        <time>2022-01-27T13:26:56Z</time>
      </trkpt>
      <trkpt lat="47.29265" lon="-1.60463">
        <ele>101</ele>
        <time>2022-01-27T13:26:57Z</time>
      </trkpt>
      <trkpt lat="47.29263" lon="-1.60463">
        <ele>101</ele>
        <time>2022-01-27T13:26:58Z</time>
      </trkpt>
      <trkpt lat="47.29261" lon="-1.60464">
        <ele>102</ele>
        <time>2022-01-27T13:26:59Z</time>
      </trkpt>
      <trkpt lat="47.2926" lon="-1.60465">
        <ele>101</ele>
        <time>2022-01-27T13:27:00Z</time>
      </trkpt>
      <trkpt lat="47.29259" lon="-1.60465">
        <ele>101</ele>
        <time>2022-01-27T13:27:01Z</time>
      </trkpt>
      <trkpt lat="47.29258" lon="-1.60466">
        <ele>101</ele>
        <time>2022-01-27T13:27:02Z</time>
      </trkpt>
      <trkpt lat="47.29257" lon="-1.60466">
        <ele>101</ele>
        <time>2022-01-27T13:27:03Z</time>
      </trkpt>
      <trkpt lat="47.29255" lon="-1.60467">
        <ele>101</ele>
        <time>2022-01-27T13:27:04Z</time>
      </trkpt>
      <trkpt lat="47.29254" lon="-1.60467">
        <ele>101</ele>
        <time>2022-01-27T13:27:05Z</time>
      </trkpt>
      <trkpt lat="47.29253" lon="-1.60468">
        <ele>101</ele>
        <time>2022-01-27T13:27:06Z</time>
      </trkpt>
      <trkpt lat="47.29251" lon="-1.60469">
        <ele>101</ele>
        <time>2022-01-27T13:27:07Z</time>
      </trkpt>
      <trkpt lat="47.2925" lon="-1.6047">
        <ele>100</ele>
        <time>2022-01-27T13:27:08Z</time>
      </trkpt>
      <trkpt lat="47.29249" lon="-1.6047">
        <ele>100</ele>
        <time>2022-01-27T13:27:09Z</time>
      </trkpt>
      <trkpt lat="47.29247" lon="-1.60471">
        <ele>100</ele>
        <time>2022-01-27T13:27:10Z</time>
      </trkpt>
      <trkpt lat="47.29246" lon="-1.60472">
        <ele>100</ele>
        <time>2022-01-27T13:27:11Z</time>
      </trkpt>
      <trkpt lat="47.29245" lon="-1.60473">
        <ele>100</ele>
        <time>2022-01-27T13:27:12Z</time>
      </trkpt>
      <trkpt lat="47.29244" lon="-1.60474">
        <ele>100</ele>
        <time>2022-01-27T13:27:13Z</time>
      </trkpt>
      <trkpt lat="47.29242" lon="-1.60476">
        <ele>100</ele>
        <time>2022-01-27T13:27:14Z</time>
      </trkpt>
      <trkpt lat="47.29241" lon="-1.60477">
        <ele>100</ele>
        <time>2022-01-27T13:27:15Z</time>
      </trkpt>
      <trkpt lat="47.29239" lon="-1.60477">
        <ele>100</ele>
        <time>2022-01-27T13:27:16Z</time>
      </trkpt>
      <trkpt lat="47.29238" lon="-1.60478">
        <ele>100</ele>
        <time>2022-01-27T13:27:17Z</time>
      </trkpt>
      <trkpt lat="47.29237" lon="-1.60479">
        <ele>100</ele>
        <time>2022-01-27T13:27:18Z</time>
      </trkpt>
      <trkpt lat="47.29236" lon="-1.60479">
        <ele>100</ele>
        <time>2022-01-27T13:27:19Z</time>
      </trkpt>
      <trkpt lat="47.29235" lon="-1.6048">
        <ele>101</ele>
        <time>2022-01-27T13:27:20Z</time>
      </trkpt>
      <trkpt lat="47.29234" lon="-1.60481">
        <ele>101</ele>
        <time>2022-01-27T13:27:21Z</time>
      </trkpt>
      <trkpt lat="47.29233" lon="-1.60483">
        <ele>101</ele>
        <time>2022-01-27T13:27:22Z</time>
      </trkpt>
      <trkpt lat="47.29232" lon="-1.60484">
        <ele>101</ele>
        <time>2022-01-27T13:27:23Z</time>
      </trkpt>
      <trkpt lat="47.29231" lon="-1.60485">
        <ele>101</ele>
        <time>2022-01-27T13:27:24Z</time>
      </trkpt>
      <trkpt lat="47.2923" lon="-1.60486">
        <ele>101</ele>
        <time>2022-01-27T13:27:25Z</time>
      </trkpt>
      <trkpt lat="47.29229" lon="-1.60488">
        <ele>102</ele>
        <time>2022-01-27T13:27:26Z</time>
      </trkpt>
      <trkpt lat="47.29228" lon="-1.60489">
        <ele>102</ele>
        <time>2022-01-27T13:27:27Z</time>
      </trkpt>
      <trkpt lat="47.29227" lon="-1.6049">
        <ele>102</ele>
        <time>2022-01-27T13:27:28Z</time>
      </trkpt>
      <trkpt lat="47.29226" lon="-1.60492">
        <ele>101</ele>
        <time>2022-01-27T13:27:29Z</time>
      </trkpt>
      <trkpt lat="47.29225" lon="-1.60494">
        <ele>101</ele>
        <time>2022-01-27T13:27:30Z</time>
      </trkpt>
      <trkpt lat="47.29224" lon="-1.60495">
        <ele>101</ele>
        <time>2022-01-27T13:27:31Z</time>
      </trkpt>
      <trkpt lat="47.29224" lon="-1.60497">
        <ele>101</ele>
        <time>2022-01-27T13:27:32Z</time>
      </trkpt>
      <trkpt lat="47.29223" lon="-1.60498">
        <ele>101</ele>
        <time>2022-01-27T13:27:33Z</time>
      </trkpt>
      <trkpt lat="47.29222" lon="-1.605">
        <ele>101</ele>
        <time>2022-01-27T13:27:34Z</time>
      </trkpt>
      <trkpt lat="47.29221" lon="-1.60501">
        <ele>102</ele>
        <time>2022-01-27T13:27:35Z</time>
      </trkpt>
      <trkpt lat="47.2922" lon="-1.60503">
        <ele>102</ele>
        <time>2022-01-27T13:27:36Z</time>
      </trkpt>
      <trkpt lat="47.2922" lon="-1.60505">
        <ele>102</ele>
        <time>2022-01-27T13:27:37Z</time>
      </trkpt>
      <trkpt lat="47.29219" lon="-1.60506">
        <ele>102</ele>
        <time>2022-01-27T13:27:38Z</time>
      </trkpt>
      <trkpt lat="47.29218" lon="-1.60508">
        <ele>102</ele>
        <time>2022-01-27T13:27:39Z</time>
      </trkpt>
      <trkpt lat="47.29218" lon="-1.60509">
        <ele>102</ele>
        <time>2022-01-27T13:27:40Z</time>
      </trkpt>
      <trkpt lat="47.29217" lon="-1.60511">
        <ele>101</ele>
        <time>2022-01-27T13:27:41Z</time>
      </trkpt>
      <trkpt lat="47.29216" lon="-1.60512">
        <ele>102</ele>
        <time>2022-01-27T13:27:42Z</time>
      </trkpt>
      <trkpt lat="47.29216" lon="-1.60514">
        <ele>101</ele>
        <time>2022-01-27T13:27:43Z</time>
      </trkpt>
      <trkpt lat="47.29215" lon="-1.60516">
        <ele>101</ele>
        <time>2022-01-27T13:27:44Z</time>
      </trkpt>
      <trkpt lat="47.29214" lon="-1.60518">
        <ele>101</ele>
        <time>2022-01-27T13:27:45Z</time>
      </trkpt>
      <trkpt lat="47.29213" lon="-1.6052">
        <ele>101</ele>
        <time>2022-01-27T13:27:46Z</time>
      </trkpt>
      <trkpt lat="47.29213" lon="-1.60521">
        <ele>101</ele>
        <time>2022-01-27T13:27:47Z</time>
      </trkpt>
      <trkpt lat="47.29212" lon="-1.60523">
        <ele>102</ele>
        <time>2022-01-27T13:27:48Z</time>
      </trkpt>
      <trkpt lat="47.29211" lon="-1.60525">
        <ele>102</ele>
        <time>2022-01-27T13:27:49Z</time>
      </trkpt>
      <trkpt lat="47.29211" lon="-1.60527">
        <ele>102</ele>
        <time>2022-01-27T13:27:50Z</time>
      </trkpt>
      <trkpt lat="47.2921" lon="-1.60529">
        <ele>102</ele>
        <time>2022-01-27T13:27:51Z</time>
      </trkpt>
      <trkpt lat="47.2921" lon="-1.6053">
        <ele>102</ele>
        <time>2022-01-27T13:27:52Z</time>
      </trkpt>
      <trkpt lat="47.29209" lon="-1.60532">
        <ele>102</ele>
        <time>2022-01-27T13:27:53Z</time>
      </trkpt>
      <trkpt lat="47.29208" lon="-1.60534">
        <ele>102</ele>
        <time>2022-01-27T13:27:54Z</time>
      </trkpt>
      <trkpt lat="47.29207" lon="-1.60536">
        <ele>102</ele>
        <time>2022-01-27T13:27:55Z</time>
      </trkpt>
      <trkpt lat="47.29207" lon="-1.60537">
        <ele>101</ele>
        <time>2022-01-27T13:27:56Z</time>
      </trkpt>
      <trkpt lat="47.29207" lon="-1.60539">
        <ele>101</ele>
        <time>2022-01-27T13:27:57Z</time>
      </trkpt>
      <trkpt lat="47.29207" lon="-1.6054">
        <ele>101</ele>
        <time>2022-01-27T13:27:58Z</time>
      </trkpt>
      <trkpt lat="47.29206" lon="-1.60541">
        <ele>101</ele>
        <time>2022-01-27T13:27:59Z</time>
      </trkpt>
      <trkpt lat="47.29205" lon="-1.60543">
        <ele>101</ele>
        <time>2022-01-27T13:28:00Z</time>
      </trkpt>
      <trkpt lat="47.29204" lon="-1.60545">
        <ele>101</ele>
        <time>2022-01-27T13:28:01Z</time>
      </trkpt>
      <trkpt lat="47.29203" lon="-1.60547">
        <ele>101</ele>
        <time>2022-01-27T13:28:02Z</time>
      </trkpt>
      <trkpt lat="47.29202" lon="-1.60549">
        <ele>101</ele>
        <time>2022-01-27T13:28:03Z</time>
      </trkpt>
      <trkpt lat="47.29201" lon="-1.6055">
        <ele>101</ele>
        <time>2022-01-27T13:28:04Z</time>
      </trkpt>
      <trkpt lat="47.292" lon="-1.60552">
        <ele>101</ele>
        <time>2022-01-27T13:28:05Z</time>
      </trkpt>
      <trkpt lat="47.292" lon="-1.60553">
        <ele>101</ele>
        <time>2022-01-27T13:28:06Z</time>
      </trkpt>
      <trkpt lat="47.292" lon="-1.60555">
        <ele>101</ele>
        <time>2022-01-27T13:28:07Z</time>
      </trkpt>
      <trkpt lat="47.29199" lon="-1.60556">
        <ele>100</ele>
        <time>2022-01-27T13:28:08Z</time>
      </trkpt>
      <trkpt lat="47.29199" lon="-1.60558">
        <ele>100</ele>
        <time>2022-01-27T13:28:09Z</time>
      </trkpt>
      <trkpt lat="47.29198" lon="-1.6056">
        <ele>100</ele>
        <time>2022-01-27T13:28:10Z</time>
      </trkpt>
      <trkpt lat="47.29197" lon="-1.60561">
        <ele>100</ele>
        <time>2022-01-27T13:28:11Z</time>
      </trkpt>
      <trkpt lat="47.29197" lon="-1.60562">
        <ele>100</ele>
        <time>2022-01-27T13:28:12Z</time>
      </trkpt>
      <trkpt lat="47.29196" lon="-1.60563">
        <ele>100</ele>
        <time>2022-01-27T13:28:13Z</time>
      </trkpt>
      <trkpt lat="47.29195" lon="-1.60565">
        <ele>100</ele>
        <time>2022-01-27T13:28:14Z</time>
      </trkpt>
      <trkpt lat="47.29194" lon="-1.60567">
        <ele>100</ele>
        <time>2022-01-27T13:28:15Z</time>
      </trkpt>
      <trkpt lat="47.29193" lon="-1.6057">
        <ele>100</ele>
        <time>2022-01-27T13:28:16Z</time>
      </trkpt>
      <trkpt lat="47.29193" lon="-1.60572">
        <ele>100</ele>
        <time>2022-01-27T13:28:17Z</time>
      </trkpt>
      <trkpt lat="47.29192" lon="-1.60574">
        <ele>100</ele>
        <time>2022-01-27T13:28:18Z</time>
      </trkpt>
      <trkpt lat="47.29192" lon="-1.60575">
        <ele>100</ele>
        <time>2022-01-27T13:28:19Z</time>
      </trkpt>
      <trkpt lat="47.29191" lon="-1.60577">
        <ele>100</ele>
        <time>2022-01-27T13:28:20Z</time>
      </trkpt>
      <trkpt lat="47.2919" lon="-1.60579">
        <ele>100</ele>
        <time>2022-01-27T13:28:21Z</time>
      </trkpt>
      <trkpt lat="47.2919" lon="-1.60581">
        <ele>100</ele>
        <time>2022-01-27T13:28:22Z</time>
      </trkpt>
      <trkpt lat="47.29189" lon="-1.60583">
        <ele>100</ele>
        <time>2022-01-27T13:28:23Z</time>
      </trkpt>
      <trkpt lat="47.29188" lon="-1.60585">
        <ele>100</ele>
        <time>2022-01-27T13:28:24Z</time>
      </trkpt>
      <trkpt lat="47.29187" lon="-1.60587">
        <ele>100</ele>
        <time>2022-01-27T13:28:25Z</time>
      </trkpt>
      <trkpt lat="47.29186" lon="-1.60588">
        <ele>100</ele>
        <time>2022-01-27T13:28:26Z</time>
      </trkpt>
      <trkpt lat="47.29186" lon="-1.60589">
        <ele>100</ele>
        <time>2022-01-27T13:28:27Z</time>
      </trkpt>
      <trkpt lat="47.29186" lon="-1.6059">
        <ele>100</ele>
        <time>2022-01-27T13:28:28Z</time>
      </trkpt>
      <trkpt lat="47.29185" lon="-1.60592">
        <ele>100</ele>
        <time>2022-01-27T13:28:29Z</time>
      </trkpt>
      <trkpt lat="47.29184" lon="-1.60594">
        <ele>100</ele>
        <time>2022-01-27T13:28:30Z</time>
      </trkpt>
      <trkpt lat="47.29183" lon="-1.60596">
        <ele>100</ele>
        <time>2022-01-27T13:28:31Z</time>
      </trkpt>
      <trkpt lat="47.29182" lon="-1.60598">
        <ele>100</ele>
        <time>2022-01-27T13:28:32Z</time>
      </trkpt>
      <trkpt lat="47.29182" lon="-1.606">
        <ele>100</ele>
        <time>2022-01-27T13:28:33Z</time>
      </trkpt>
      <trkpt lat="47.29181" lon="-1.60602">
        <ele>100</ele>
        <time>2022-01-27T13:28:34Z</time>
      </trkpt>
      <trkpt lat="47.29181" lon="-1.60603">
        <ele>101</ele>
        <time>2022-01-27T13:28:35Z</time>
      </trkpt>
      <trkpt lat="47.2918" lon="-1.60606">
        <ele>101</ele>
        <time>2022-01-27T13:28:36Z</time>
      </trkpt>
      <trkpt lat="47.29179" lon="-1.60608">
        <ele>101</ele>
        <time>2022-01-27T13:28:37Z</time>
      </trkpt>
      <trkpt lat="47.29179" lon="-1.6061">
        <ele>101</ele>
        <time>2022-01-27T13:28:38Z</time>
      </trkpt>
      <trkpt lat="47.29178" lon="-1.60612">
        <ele>100</ele>
        <time>2022-01-27T13:28:39Z</time>
      </trkpt>
      <trkpt lat="47.29178" lon="-1.60613">
        <ele>101</ele>
        <time>2022-01-27T13:28:40Z</time>
      </trkpt>
      <trkpt lat="47.29178" lon="-1.60615">
        <ele>101</ele>
        <time>2022-01-27T13:28:41Z</time>
      </trkpt>
      <trkpt lat="47.29177" lon="-1.60617">
        <ele>100</ele>
        <time>2022-01-27T13:28:42Z</time>
      </trkpt>
      <trkpt lat="47.29177" lon="-1.60618">
        <ele>100</ele>
        <time>2022-01-27T13:28:43Z</time>
      </trkpt>
      <trkpt lat="47.29176" lon="-1.60619">
        <ele>101</ele>
        <time>2022-01-27T13:28:44Z</time>
      </trkpt>
      <trkpt lat="47.29175" lon="-1.60621">
        <ele>101</ele>
        <time>2022-01-27T13:28:45Z</time>
      </trkpt>
      <trkpt lat="47.29174" lon="-1.60622">
        <ele>101</ele>
        <time>2022-01-27T13:28:46Z</time>
      </trkpt>
      <trkpt lat="47.29174" lon="-1.60624">
        <ele>101</ele>
        <time>2022-01-27T13:28:47Z</time>
      </trkpt>
      <trkpt lat="47.29173" lon="-1.60626">
        <ele>101</ele>
        <time>2022-01-27T13:28:48Z</time>
      </trkpt>
      <trkpt lat="47.29172" lon="-1.60628">
        <ele>101</ele>
        <time>2022-01-27T13:28:49Z</time>
      </trkpt>
      <trkpt lat="47.29171" lon="-1.60629">
        <ele>101</ele>
        <time>2022-01-27T13:28:50Z</time>
      </trkpt>
      <trkpt lat="47.29171" lon="-1.60631">
        <ele>101</ele>
        <time>2022-01-27T13:28:51Z</time>
      </trkpt>
      <trkpt lat="47.2917" lon="-1.60633">
        <ele>101</ele>
        <time>2022-01-27T13:28:52Z</time>
      </trkpt>
      <trkpt lat="47.29169" lon="-1.60634">
        <ele>101</ele>
        <time>2022-01-27T13:28:53Z</time>
      </trkpt>
      <trkpt lat="47.29168" lon="-1.60636">
        <ele>101</ele>
        <time>2022-01-27T13:28:54Z</time>
      </trkpt>
      <trkpt lat="47.29167" lon="-1.60638">
        <ele>101</ele>
        <time>2022-01-27T13:28:55Z</time>
      </trkpt>
      <trkpt lat="47.29166" lon="-1.60639">
        <ele>101</ele>
        <time>2022-01-27T13:28:56Z</time>
      </trkpt>
      <trkpt lat="47.29165" lon="-1.60641">
        <ele>101</ele>
        <time>2022-01-27T13:28:57Z</time>
      </trkpt>
      <trkpt lat="47.29164" lon="-1.60643">
        <ele>101</ele>
        <time>2022-01-27T13:28:58Z</time>
      </trkpt>
      <trkpt lat="47.29163" lon="-1.60645">
        <ele>102</ele>
        <time>2022-01-27T13:28:59Z</time>
      </trkpt>
      <trkpt lat="47.29163" lon="-1.60647">
        <ele>103</ele>
        <time>2022-01-27T13:29:00Z</time>
      </trkpt>
      <trkpt lat="47.29162" lon="-1.60648">
        <ele>102</ele>
        <time>2022-01-27T13:29:01Z</time>
      </trkpt>
      <trkpt lat="47.29162" lon="-1.6065">
        <ele>102</ele>
        <time>2022-01-27T13:29:02Z</time>
      </trkpt>
      <trkpt lat="47.29161" lon="-1.60652">
        <ele>102</ele>
        <time>2022-01-27T13:29:03Z</time>
      </trkpt>
      <trkpt lat="47.2916" lon="-1.60653">
        <ele>102</ele>
        <time>2022-01-27T13:29:04Z</time>
      </trkpt>
      <trkpt lat="47.2916" lon="-1.60654">
        <ele>101</ele>
        <time>2022-01-27T13:29:05Z</time>
      </trkpt>
      <trkpt lat="47.29159" lon="-1.60656">
        <ele>101</ele>
        <time>2022-01-27T13:29:06Z</time>
      </trkpt>
      <trkpt lat="47.29158" lon="-1.60658">
        <ele>101</ele>
        <time>2022-01-27T13:29:07Z</time>
      </trkpt>
      <trkpt lat="47.29158" lon="-1.6066">
        <ele>100</ele>
        <time>2022-01-27T13:29:08Z</time>
      </trkpt>
      <trkpt lat="47.29157" lon="-1.60662">
        <ele>100</ele>
        <time>2022-01-27T13:29:09Z</time>
      </trkpt>
      <trkpt lat="47.29157" lon="-1.60664">
        <ele>100</ele>
        <time>2022-01-27T13:29:10Z</time>
      </trkpt>
      <trkpt lat="47.29156" lon="-1.60666">
        <ele>100</ele>
        <time>2022-01-27T13:29:11Z</time>
      </trkpt>
      <trkpt lat="47.29155" lon="-1.60668">
        <ele>100</ele>
        <time>2022-01-27T13:29:12Z</time>
      </trkpt>
      <trkpt lat="47.29154" lon="-1.6067">
        <ele>100</ele>
        <time>2022-01-27T13:29:13Z</time>
      </trkpt>
      <trkpt lat="47.29153" lon="-1.60671">
        <ele>100</ele>
        <time>2022-01-27T13:29:14Z</time>
      </trkpt>
      <trkpt lat="47.29153" lon="-1.60672">
        <ele>100</ele>
        <time>2022-01-27T13:29:15Z</time>
      </trkpt>
      <trkpt lat="47.29152" lon="-1.60673">
        <ele>100</ele>
        <time>2022-01-27T13:29:16Z</time>
      </trkpt>
      <trkpt lat="47.29151" lon="-1.60674">
        <ele>100</ele>
        <time>2022-01-27T13:29:17Z</time>
      </trkpt>
      <trkpt lat="47.29151" lon="-1.60675">
        <ele>100</ele>
        <time>2022-01-27T13:29:18Z</time>
      </trkpt>
      <trkpt lat="47.2915" lon="-1.60676">
        <ele>100</ele>
        <time>2022-01-27T13:29:19Z</time>
      </trkpt>
      <trkpt lat="47.29149" lon="-1.60678">
        <ele>101</ele>
        <time>2022-01-27T13:29:20Z</time>
      </trkpt>
      <trkpt lat="47.29147" lon="-1.60679">
        <ele>101</ele>
        <time>2022-01-27T13:29:21Z</time>
      </trkpt>
      <trkpt lat="47.29146" lon="-1.6068">
        <ele>101</ele>
        <time>2022-01-27T13:29:22Z</time>
      </trkpt>
      <trkpt lat="47.29145" lon="-1.60681">
        <ele>101</ele>
        <time>2022-01-27T13:29:23Z</time>
      </trkpt>
      <trkpt lat="47.29144" lon="-1.60683">
        <ele>101</ele>
        <time>2022-01-27T13:29:24Z</time>
      </trkpt>
      <trkpt lat="47.29144" lon="-1.60685">
        <ele>101</ele>
        <time>2022-01-27T13:29:25Z</time>
      </trkpt>
      <trkpt lat="47.29142" lon="-1.60687">
        <ele>101</ele>
        <time>2022-01-27T13:29:26Z</time>
      </trkpt>
      <trkpt lat="47.29142" lon="-1.60689">
        <ele>101</ele>
        <time>2022-01-27T13:29:27Z</time>
      </trkpt>
      <trkpt lat="47.29141" lon="-1.60691">
        <ele>101</ele>
        <time>2022-01-27T13:29:28Z</time>
      </trkpt>
      <trkpt lat="47.29139" lon="-1.60694">
        <ele>101</ele>
        <time>2022-01-27T13:29:29Z</time>
      </trkpt>
      <trkpt lat="47.29138" lon="-1.60695">
        <ele>101</ele>
        <time>2022-01-27T13:29:30Z</time>
      </trkpt>
      <trkpt lat="47.29137" lon="-1.60697">
        <ele>102</ele>
        <time>2022-01-27T13:29:31Z</time>
      </trkpt>
      <trkpt lat="47.29136" lon="-1.60699">
        <ele>102</ele>
        <time>2022-01-27T13:29:32Z</time>
      </trkpt>
      <trkpt lat="47.29134" lon="-1.607">
        <ele>102</ele>
        <time>2022-01-27T13:29:33Z</time>
      </trkpt>
      <trkpt lat="47.29133" lon="-1.60702">
        <ele>102</ele>
        <time>2022-01-27T13:29:34Z</time>
      </trkpt>
      <trkpt lat="47.29132" lon="-1.60703">
        <ele>102</ele>
        <time>2022-01-27T13:29:35Z</time>
      </trkpt>
      <trkpt lat="47.29131" lon="-1.60705">
        <ele>102</ele>
        <time>2022-01-27T13:29:36Z</time>
      </trkpt>
      <trkpt lat="47.2913" lon="-1.60706">
        <ele>102</ele>
        <time>2022-01-27T13:29:37Z</time>
      </trkpt>
      <trkpt lat="47.29129" lon="-1.60708">
        <ele>102</ele>
        <time>2022-01-27T13:29:38Z</time>
      </trkpt>
      <trkpt lat="47.29128" lon="-1.60711">
        <ele>103</ele>
        <time>2022-01-27T13:29:39Z</time>
      </trkpt>
      <trkpt lat="47.29127" lon="-1.60713">
        <ele>103</ele>
        <time>2022-01-27T13:29:40Z</time>
      </trkpt>
      <trkpt lat="47.29126" lon="-1.60715">
        <ele>104</ele>
        <time>2022-01-27T13:29:41Z</time>
      </trkpt>
      <trkpt lat="47.29126" lon="-1.60716">
        <ele>104</ele>
        <time>2022-01-27T13:29:42Z</time>
      </trkpt>
      <trkpt lat="47.29125" lon="-1.60718">
        <ele>104</ele>
        <time>2022-01-27T13:29:43Z</time>
      </trkpt>
      <trkpt lat="47.29123" lon="-1.60719">
        <ele>105</ele>
        <time>2022-01-27T13:29:44Z</time>
      </trkpt>
      <trkpt lat="47.29122" lon="-1.6072">
        <ele>105</ele>
        <time>2022-01-27T13:29:45Z</time>
      </trkpt>
      <trkpt lat="47.29121" lon="-1.60722">
        <ele>105</ele>
        <time>2022-01-27T13:29:46Z</time>
      </trkpt>
      <trkpt lat="47.2912" lon="-1.60724">
        <ele>105</ele>
        <time>2022-01-27T13:29:47Z</time>
      </trkpt>
      <trkpt lat="47.29119" lon="-1.60725">
        <ele>105</ele>
        <time>2022-01-27T13:29:48Z</time>
      </trkpt>
      <trkpt lat="47.29118" lon="-1.60727">
        <ele>106</ele>
        <time>2022-01-27T13:29:49Z</time>
      </trkpt>
      <trkpt lat="47.29117" lon="-1.60728">
        <ele>106</ele>
        <time>2022-01-27T13:29:50Z</time>
      </trkpt>
      <trkpt lat="47.29116" lon="-1.6073">
        <ele>106</ele>
        <time>2022-01-27T13:29:51Z</time>
      </trkpt>
      <trkpt lat="47.29115" lon="-1.6073">
        <ele>106</ele>
        <time>2022-01-27T13:29:52Z</time>
      </trkpt>
      <trkpt lat="47.29114" lon="-1.60731">
        <ele>106</ele>
        <time>2022-01-27T13:29:53Z</time>
      </trkpt>
      <trkpt lat="47.29112" lon="-1.60733">
        <ele>106</ele>
        <time>2022-01-27T13:29:54Z</time>
      </trkpt>
      <trkpt lat="47.29111" lon="-1.60734">
        <ele>106</ele>
        <time>2022-01-27T13:29:55Z</time>
      </trkpt>
      <trkpt lat="47.2911" lon="-1.60735">
        <ele>106</ele>
        <time>2022-01-27T13:29:56Z</time>
      </trkpt>
      <trkpt lat="47.29109" lon="-1.60736">
        <ele>106</ele>
        <time>2022-01-27T13:29:57Z</time>
      </trkpt>
      <trkpt lat="47.29108" lon="-1.60737">
        <ele>106</ele>
        <time>2022-01-27T13:29:58Z</time>
      </trkpt>
      <trkpt lat="47.29107" lon="-1.60739">
        <ele>106</ele>
        <time>2022-01-27T13:29:59Z</time>
      </trkpt>
      <trkpt lat="47.29107" lon="-1.60741">
        <ele>106</ele>
        <time>2022-01-27T13:30:00Z</time>
      </trkpt>
      <trkpt lat="47.29106" lon="-1.60743">
        <ele>107</ele>
        <time>2022-01-27T13:30:01Z</time>
      </trkpt>
      <trkpt lat="47.29105" lon="-1.60744">
        <ele>107</ele>
        <time>2022-01-27T13:30:02Z</time>
      </trkpt>
      <trkpt lat="47.29104" lon="-1.60746">
        <ele>107</ele>
        <time>2022-01-27T13:30:03Z</time>
      </trkpt>
      <trkpt lat="47.29103" lon="-1.60748">
        <ele>107</ele>
        <time>2022-01-27T13:30:04Z</time>
      </trkpt>
      <trkpt lat="47.29102" lon="-1.6075">
        <ele>107</ele>
        <time>2022-01-27T13:30:05Z</time>
      </trkpt>
      <trkpt lat="47.29101" lon="-1.60751">
        <ele>107</ele>
        <time>2022-01-27T13:30:06Z</time>
      </trkpt>
      <trkpt lat="47.291" lon="-1.60753">
        <ele>107</ele>
        <time>2022-01-27T13:30:07Z</time>
      </trkpt>
      <trkpt lat="47.29099" lon="-1.60755">
        <ele>107</ele>
        <time>2022-01-27T13:30:08Z</time>
      </trkpt>
      <trkpt lat="47.29098" lon="-1.60756">
        <ele>107</ele>
        <time>2022-01-27T13:30:09Z</time>
      </trkpt>
      <trkpt lat="47.29097" lon="-1.60757">
        <ele>107</ele>
        <time>2022-01-27T13:30:10Z</time>
      </trkpt>
      <trkpt lat="47.29096" lon="-1.60758">
        <ele>107</ele>
        <time>2022-01-27T13:30:11Z</time>
      </trkpt>
      <trkpt lat="47.29095" lon="-1.60759">
        <ele>107</ele>
        <time>2022-01-27T13:30:12Z</time>
      </trkpt>
      <trkpt lat="47.29094" lon="-1.60761">
        <ele>107</ele>
        <time>2022-01-27T13:30:13Z</time>
      </trkpt>
      <trkpt lat="47.29092" lon="-1.60762">
        <ele>108</ele>
        <time>2022-01-27T13:30:14Z</time>
      </trkpt>
      <trkpt lat="47.29091" lon="-1.60764">
        <ele>108</ele>
        <time>2022-01-27T13:30:15Z</time>
      </trkpt>
      <trkpt lat="47.2909" lon="-1.60765">
        <ele>108</ele>
        <time>2022-01-27T13:30:16Z</time>
      </trkpt>
      <trkpt lat="47.29089" lon="-1.60766">
        <ele>108</ele>
        <time>2022-01-27T13:30:17Z</time>
      </trkpt>
      <trkpt lat="47.29088" lon="-1.60768">
        <ele>108</ele>
        <time>2022-01-27T13:30:18Z</time>
      </trkpt>
      <trkpt lat="47.29087" lon="-1.60769">
        <ele>108</ele>
        <time>2022-01-27T13:30:19Z</time>
      </trkpt>
      <trkpt lat="47.29086" lon="-1.6077">
        <ele>108</ele>
        <time>2022-01-27T13:30:20Z</time>
      </trkpt>
      <trkpt lat="47.29084" lon="-1.60771">
        <ele>108</ele>
        <time>2022-01-27T13:30:21Z</time>
      </trkpt>
      <trkpt lat="47.29084" lon="-1.60773">
        <ele>108</ele>
        <time>2022-01-27T13:30:22Z</time>
      </trkpt>
      <trkpt lat="47.29083" lon="-1.60775">
        <ele>108</ele>
        <time>2022-01-27T13:30:23Z</time>
      </trkpt>
      <trkpt lat="47.29083" lon="-1.60776">
        <ele>108</ele>
        <time>2022-01-27T13:30:24Z</time>
      </trkpt>
      <trkpt lat="47.29082" lon="-1.60778">
        <ele>108</ele>
        <time>2022-01-27T13:30:25Z</time>
      </trkpt>
      <trkpt lat="47.29082" lon="-1.60779">
        <ele>108</ele>
        <time>2022-01-27T13:30:26Z</time>
      </trkpt>
      <trkpt lat="47.29082" lon="-1.60781">
        <ele>107</ele>
        <time>2022-01-27T13:30:27Z</time>
      </trkpt>
      <trkpt lat="47.29082" lon="-1.60782">
        <ele>107</ele>
        <time>2022-01-27T13:30:28Z</time>
      </trkpt>
      <trkpt lat="47.29082" lon="-1.60784">
        <ele>107</ele>
        <time>2022-01-27T13:30:29Z</time>
      </trkpt>
      <trkpt lat="47.29082" lon="-1.60786">
        <ele>107</ele>
        <time>2022-01-27T13:30:30Z</time>
      </trkpt>
      <trkpt lat="47.29083" lon="-1.60789">
        <ele>107</ele>
        <time>2022-01-27T13:30:31Z</time>
      </trkpt>
      <trkpt lat="47.29083" lon="-1.60791">
        <ele>106</ele>
        <time>2022-01-27T13:30:32Z</time>
      </trkpt>
      <trkpt lat="47.29083" lon="-1.60792">
        <ele>107</ele>
        <time>2022-01-27T13:30:33Z</time>
      </trkpt>
      <trkpt lat="47.29083" lon="-1.60793">
        <ele>107</ele>
        <time>2022-01-27T13:30:34Z</time>
      </trkpt>
      <trkpt lat="47.29082" lon="-1.60794">
        <ele>107</ele>
        <time>2022-01-27T13:30:35Z</time>
      </trkpt>
      <trkpt lat="47.29082" lon="-1.60796">
        <ele>107</ele>
        <time>2022-01-27T13:30:36Z</time>
      </trkpt>
      <trkpt lat="47.29081" lon="-1.60797">
        <ele>107</ele>
        <time>2022-01-27T13:30:37Z</time>
      </trkpt>
      <trkpt lat="47.2908" lon="-1.60799">
        <ele>107</ele>
        <time>2022-01-27T13:30:38Z</time>
      </trkpt>
      <trkpt lat="47.29079" lon="-1.60801">
        <ele>107</ele>
        <time>2022-01-27T13:30:39Z</time>
      </trkpt>
      <trkpt lat="47.29078" lon="-1.60802">
        <ele>107</ele>
        <time>2022-01-27T13:30:40Z</time>
      </trkpt>
      <trkpt lat="47.29077" lon="-1.60804">
        <ele>107</ele>
        <time>2022-01-27T13:30:41Z</time>
      </trkpt>
      <trkpt lat="47.29076" lon="-1.60806">
        <ele>107</ele>
        <time>2022-01-27T13:30:42Z</time>
      </trkpt>
      <trkpt lat="47.29073" lon="-1.60808">
        <ele>107</ele>
        <time>2022-01-27T13:30:44Z</time>
      </trkpt>
      <trkpt lat="47.29072" lon="-1.60808">
        <ele>107</ele>
        <time>2022-01-27T13:30:45Z</time>
      </trkpt>
      <trkpt lat="47.2907" lon="-1.60809">
        <ele>107</ele>
        <time>2022-01-27T13:30:46Z</time>
      </trkpt>
      <trkpt lat="47.29069" lon="-1.60809">
        <ele>108</ele>
        <time>2022-01-27T13:30:47Z</time>
      </trkpt>
      <trkpt lat="47.29068" lon="-1.6081">
        <ele>108</ele>
        <time>2022-01-27T13:30:48Z</time>
      </trkpt>
      <trkpt lat="47.29067" lon="-1.6081">
        <ele>108</ele>
        <time>2022-01-27T13:30:49Z</time>
      </trkpt>
      <trkpt lat="47.29066" lon="-1.60811">
        <ele>108</ele>
        <time>2022-01-27T13:30:50Z</time>
      </trkpt>
      <trkpt lat="47.29065" lon="-1.60812">
        <ele>108</ele>
        <time>2022-01-27T13:30:51Z</time>
      </trkpt>
      <trkpt lat="47.29063" lon="-1.60813">
        <ele>108</ele>
        <time>2022-01-27T13:30:52Z</time>
      </trkpt>
      <trkpt lat="47.29062" lon="-1.60814">
        <ele>108</ele>
        <time>2022-01-27T13:30:53Z</time>
      </trkpt>
      <trkpt lat="47.29061" lon="-1.60815">
        <ele>108</ele>
        <time>2022-01-27T13:30:54Z</time>
      </trkpt>
      <trkpt lat="47.29059" lon="-1.60816">
        <ele>107</ele>
        <time>2022-01-27T13:30:55Z</time>
      </trkpt>
      <trkpt lat="47.29058" lon="-1.60817">
        <ele>107</ele>
        <time>2022-01-27T13:30:56Z</time>
      </trkpt>
      <trkpt lat="47.29057" lon="-1.60818">
        <ele>106</ele>
        <time>2022-01-27T13:30:57Z</time>
      </trkpt>
      <trkpt lat="47.29055" lon="-1.60819">
        <ele>106</ele>
        <time>2022-01-27T13:30:58Z</time>
      </trkpt>
      <trkpt lat="47.29054" lon="-1.6082">
        <ele>106</ele>
        <time>2022-01-27T13:30:59Z</time>
      </trkpt>
      <trkpt lat="47.29053" lon="-1.60821">
        <ele>106</ele>
        <time>2022-01-27T13:31:00Z</time>
      </trkpt>
      <trkpt lat="47.29052" lon="-1.60823">
        <ele>106</ele>
        <time>2022-01-27T13:31:01Z</time>
      </trkpt>
      <trkpt lat="47.2905" lon="-1.60825">
        <ele>106</ele>
        <time>2022-01-27T13:31:02Z</time>
      </trkpt>
      <trkpt lat="47.2905" lon="-1.60827">
        <ele>106</ele>
        <time>2022-01-27T13:31:03Z</time>
      </trkpt>
      <trkpt lat="47.29048" lon="-1.60828">
        <ele>106</ele>
        <time>2022-01-27T13:31:04Z</time>
      </trkpt>
      <trkpt lat="47.29047" lon="-1.6083">
        <ele>106</ele>
        <time>2022-01-27T13:31:05Z</time>
      </trkpt>
      <trkpt lat="47.29046" lon="-1.60831">
        <ele>106</ele>
        <time>2022-01-27T13:31:06Z</time>
      </trkpt>
      <trkpt lat="47.29045" lon="-1.60833">
        <ele>106</ele>
        <time>2022-01-27T13:31:07Z</time>
      </trkpt>
      <trkpt lat="47.29044" lon="-1.60835">
        <ele>106</ele>
        <time>2022-01-27T13:31:08Z</time>
      </trkpt>
      <trkpt lat="47.29043" lon="-1.60836">
        <ele>106</ele>
        <time>2022-01-27T13:31:09Z</time>
      </trkpt>
      <trkpt lat="47.29042" lon="-1.60838">
        <ele>106</ele>
        <time>2022-01-27T13:31:10Z</time>
      </trkpt>
      <trkpt lat="47.29041" lon="-1.60839">
        <ele>106</ele>
        <time>2022-01-27T13:31:11Z</time>
      </trkpt>
      <trkpt lat="47.2904" lon="-1.60841">
        <ele>106</ele>
        <time>2022-01-27T13:31:12Z</time>
      </trkpt>
      <trkpt lat="47.29039" lon="-1.60842">
        <ele>106</ele>
        <time>2022-01-27T13:31:13Z</time>
      </trkpt>
      <trkpt lat="47.29038" lon="-1.60844">
        <ele>106</ele>
        <time>2022-01-27T13:31:14Z</time>
      </trkpt>
      <trkpt lat="47.29037" lon="-1.60846">
        <ele>106</ele>
        <time>2022-01-27T13:31:15Z</time>
      </trkpt>
      <trkpt lat="47.29036" lon="-1.60849">
        <ele>106</ele>
        <time>2022-01-27T13:31:16Z</time>
      </trkpt>
      <trkpt lat="47.29035" lon="-1.6085">
        <ele>106</ele>
        <time>2022-01-27T13:31:17Z</time>
      </trkpt>
      <trkpt lat="47.29034" lon="-1.60852">
        <ele>106</ele>
        <time>2022-01-27T13:31:18Z</time>
      </trkpt>
      <trkpt lat="47.29033" lon="-1.60854">
        <ele>106</ele>
        <time>2022-01-27T13:31:19Z</time>
      </trkpt>
      <trkpt lat="47.29031" lon="-1.60856">
        <ele>106</ele>
        <time>2022-01-27T13:31:20Z</time>
      </trkpt>
      <trkpt lat="47.2903" lon="-1.60858">
        <ele>106</ele>
        <time>2022-01-27T13:31:21Z</time>
      </trkpt>
      <trkpt lat="47.29029" lon="-1.6086">
        <ele>106</ele>
        <time>2022-01-27T13:31:22Z</time>
      </trkpt>
      <trkpt lat="47.29028" lon="-1.60862">
        <ele>106</ele>
        <time>2022-01-27T13:31:23Z</time>
      </trkpt>
      <trkpt lat="47.29027" lon="-1.60864">
        <ele>106</ele>
        <time>2022-01-27T13:31:24Z</time>
      </trkpt>
      <trkpt lat="47.29026" lon="-1.60865">
        <ele>106</ele>
        <time>2022-01-27T13:31:25Z</time>
      </trkpt>
      <trkpt lat="47.29025" lon="-1.60867">
        <ele>107</ele>
        <time>2022-01-27T13:31:26Z</time>
      </trkpt>
      <trkpt lat="47.29024" lon="-1.60869">
        <ele>107</ele>
        <time>2022-01-27T13:31:27Z</time>
      </trkpt>
      <trkpt lat="47.29023" lon="-1.6087">
        <ele>107</ele>
        <time>2022-01-27T13:31:28Z</time>
      </trkpt>
      <trkpt lat="47.29022" lon="-1.60872">
        <ele>107</ele>
        <time>2022-01-27T13:31:29Z</time>
      </trkpt>
      <trkpt lat="47.29021" lon="-1.60874">
        <ele>107</ele>
        <time>2022-01-27T13:31:30Z</time>
      </trkpt>
      <trkpt lat="47.2902" lon="-1.60875">
        <ele>108</ele>
        <time>2022-01-27T13:31:31Z</time>
      </trkpt>
      <trkpt lat="47.29019" lon="-1.60877">
        <ele>108</ele>
        <time>2022-01-27T13:31:32Z</time>
      </trkpt>
      <trkpt lat="47.29018" lon="-1.60879">
        <ele>108</ele>
        <time>2022-01-27T13:31:33Z</time>
      </trkpt>
      <trkpt lat="47.29017" lon="-1.60881">
        <ele>108</ele>
        <time>2022-01-27T13:31:34Z</time>
      </trkpt>
      <trkpt lat="47.29016" lon="-1.60883">
        <ele>108</ele>
        <time>2022-01-27T13:31:35Z</time>
      </trkpt>
      <trkpt lat="47.29016" lon="-1.60884">
        <ele>109</ele>
        <time>2022-01-27T13:31:36Z</time>
      </trkpt>
      <trkpt lat="47.29015" lon="-1.60886">
        <ele>109</ele>
        <time>2022-01-27T13:31:37Z</time>
      </trkpt>
      <trkpt lat="47.29014" lon="-1.60887">
        <ele>109</ele>
        <time>2022-01-27T13:31:38Z</time>
      </trkpt>
      <trkpt lat="47.29013" lon="-1.60889">
        <ele>109</ele>
        <time>2022-01-27T13:31:39Z</time>
      </trkpt>
      <trkpt lat="47.29012" lon="-1.6089">
        <ele>110</ele>
        <time>2022-01-27T13:31:40Z</time>
      </trkpt>
      <trkpt lat="47.29012" lon="-1.60891">
        <ele>110</ele>
        <time>2022-01-27T13:31:41Z</time>
      </trkpt>
      <trkpt lat="47.2901" lon="-1.60893">
        <ele>110</ele>
        <time>2022-01-27T13:31:42Z</time>
      </trkpt>
      <trkpt lat="47.29009" lon="-1.60894">
        <ele>110</ele>
        <time>2022-01-27T13:31:43Z</time>
      </trkpt>
      <trkpt lat="47.29009" lon="-1.60896">
        <ele>110</ele>
        <time>2022-01-27T13:31:44Z</time>
      </trkpt>
      <trkpt lat="47.29007" lon="-1.60897">
        <ele>110</ele>
        <time>2022-01-27T13:31:45Z</time>
      </trkpt>
      <trkpt lat="47.29007" lon="-1.60899">
        <ele>109</ele>
        <time>2022-01-27T13:31:46Z</time>
      </trkpt>
      <trkpt lat="47.29006" lon="-1.609">
        <ele>110</ele>
        <time>2022-01-27T13:31:47Z</time>
      </trkpt>
      <trkpt lat="47.29005" lon="-1.60901">
        <ele>110</ele>
        <time>2022-01-27T13:31:48Z</time>
      </trkpt>
      <trkpt lat="47.29004" lon="-1.60903">
        <ele>110</ele>
        <time>2022-01-27T13:31:49Z</time>
      </trkpt>
      <trkpt lat="47.29003" lon="-1.60905">
        <ele>110</ele>
        <time>2022-01-27T13:31:50Z</time>
      </trkpt>
      <trkpt lat="47.29002" lon="-1.60907">
        <ele>110</ele>
        <time>2022-01-27T13:31:51Z</time>
      </trkpt>
      <trkpt lat="47.29001" lon="-1.60909">
        <ele>110</ele>
        <time>2022-01-27T13:31:52Z</time>
      </trkpt>
      <trkpt lat="47.29" lon="-1.60911">
        <ele>110</ele>
        <time>2022-01-27T13:31:53Z</time>
      </trkpt>
      <trkpt lat="47.28999" lon="-1.60912">
        <ele>110</ele>
        <time>2022-01-27T13:31:54Z</time>
      </trkpt>
      <trkpt lat="47.28999" lon="-1.60914">
        <ele>110</ele>
        <time>2022-01-27T13:31:55Z</time>
      </trkpt>
      <trkpt lat="47.28998" lon="-1.60915">
        <ele>110</ele>
        <time>2022-01-27T13:31:56Z</time>
      </trkpt>
      <trkpt lat="47.28997" lon="-1.60917">
        <ele>110</ele>
        <time>2022-01-27T13:31:57Z</time>
      </trkpt>
      <trkpt lat="47.28996" lon="-1.60918">
        <ele>110</ele>
        <time>2022-01-27T13:31:58Z</time>
      </trkpt>
      <trkpt lat="47.28996" lon="-1.60919">
        <ele>110</ele>
        <time>2022-01-27T13:31:59Z</time>
      </trkpt>
      <trkpt lat="47.28995" lon="-1.6092">
        <ele>111</ele>
        <time>2022-01-27T13:32:00Z</time>
      </trkpt>
      <trkpt lat="47.28994" lon="-1.60921">
        <ele>110</ele>
        <time>2022-01-27T13:32:01Z</time>
      </trkpt>
      <trkpt lat="47.28993" lon="-1.60923">
        <ele>110</ele>
        <time>2022-01-27T13:32:02Z</time>
      </trkpt>
      <trkpt lat="47.28992" lon="-1.60925">
        <ele>110</ele>
        <time>2022-01-27T13:32:03Z</time>
      </trkpt>
      <trkpt lat="47.28991" lon="-1.60926">
        <ele>110</ele>
        <time>2022-01-27T13:32:04Z</time>
      </trkpt>
      <trkpt lat="47.2899" lon="-1.60928">
        <ele>110</ele>
        <time>2022-01-27T13:32:05Z</time>
      </trkpt>
      <trkpt lat="47.28989" lon="-1.60929">
        <ele>110</ele>
        <time>2022-01-27T13:32:06Z</time>
      </trkpt>
      <trkpt lat="47.28988" lon="-1.60931">
        <ele>110</ele>
        <time>2022-01-27T13:32:07Z</time>
      </trkpt>
      <trkpt lat="47.28987" lon="-1.60932">
        <ele>110</ele>
        <time>2022-01-27T13:32:08Z</time>
      </trkpt>
      <trkpt lat="47.28986" lon="-1.60934">
        <ele>110</ele>
        <time>2022-01-27T13:32:09Z</time>
      </trkpt>
      <trkpt lat="47.28985" lon="-1.60936">
        <ele>110</ele>
        <time>2022-01-27T13:32:10Z</time>
      </trkpt>
      <trkpt lat="47.28985" lon="-1.60938">
        <ele>109</ele>
        <time>2022-01-27T13:32:11Z</time>
      </trkpt>
      <trkpt lat="47.28984" lon="-1.60939">
        <ele>110</ele>
        <time>2022-01-27T13:32:12Z</time>
      </trkpt>
      <trkpt lat="47.28983" lon="-1.6094">
        <ele>110</ele>
        <time>2022-01-27T13:32:13Z</time>
      </trkpt>
      <trkpt lat="47.28982" lon="-1.60941">
        <ele>110</ele>
        <time>2022-01-27T13:32:14Z</time>
      </trkpt>
      <trkpt lat="47.28982" lon="-1.60943">
        <ele>111</ele>
        <time>2022-01-27T13:32:15Z</time>
      </trkpt>
      <trkpt lat="47.28981" lon="-1.60945">
        <ele>110</ele>
        <time>2022-01-27T13:32:16Z</time>
      </trkpt>
      <trkpt lat="47.2898" lon="-1.60946">
        <ele>110</ele>
        <time>2022-01-27T13:32:17Z</time>
      </trkpt>
      <trkpt lat="47.28979" lon="-1.60947">
        <ele>109</ele>
        <time>2022-01-27T13:32:18Z</time>
      </trkpt>
      <trkpt lat="47.28978" lon="-1.60949">
        <ele>109</ele>
        <time>2022-01-27T13:32:19Z</time>
      </trkpt>
      <trkpt lat="47.28977" lon="-1.60951">
        <ele>109</ele>
        <time>2022-01-27T13:32:20Z</time>
      </trkpt>
      <trkpt lat="47.28976" lon="-1.60952">
        <ele>109</ele>
        <time>2022-01-27T13:32:21Z</time>
      </trkpt>
      <trkpt lat="47.28975" lon="-1.60954">
        <ele>109</ele>
        <time>2022-01-27T13:32:22Z</time>
      </trkpt>
      <trkpt lat="47.28975" lon="-1.60956">
        <ele>109</ele>
        <time>2022-01-27T13:32:23Z</time>
      </trkpt>
      <trkpt lat="47.28974" lon="-1.60958">
        <ele>109</ele>
        <time>2022-01-27T13:32:24Z</time>
      </trkpt>
      <trkpt lat="47.28973" lon="-1.60959">
        <ele>109</ele>
        <time>2022-01-27T13:32:25Z</time>
      </trkpt>
      <trkpt lat="47.28972" lon="-1.6096">
        <ele>109</ele>
        <time>2022-01-27T13:32:26Z</time>
      </trkpt>
      <trkpt lat="47.28971" lon="-1.60962">
        <ele>109</ele>
        <time>2022-01-27T13:32:27Z</time>
      </trkpt>
      <trkpt lat="47.2897" lon="-1.60963">
        <ele>110</ele>
        <time>2022-01-27T13:32:28Z</time>
      </trkpt>
      <trkpt lat="47.28969" lon="-1.60964">
        <ele>110</ele>
        <time>2022-01-27T13:32:29Z</time>
      </trkpt>
      <trkpt lat="47.28968" lon="-1.60965">
        <ele>109</ele>
        <time>2022-01-27T13:32:30Z</time>
      </trkpt>
      <trkpt lat="47.28968" lon="-1.60966">
        <ele>110</ele>
        <time>2022-01-27T13:32:31Z</time>
      </trkpt>
      <trkpt lat="47.28967" lon="-1.60968">
        <ele>109</ele>
        <time>2022-01-27T13:32:32Z</time>
      </trkpt>
      <trkpt lat="47.28966" lon="-1.60969">
        <ele>109</ele>
        <time>2022-01-27T13:32:33Z</time>
      </trkpt>
      <trkpt lat="47.28966" lon="-1.60971">
        <ele>108</ele>
        <time>2022-01-27T13:32:34Z</time>
      </trkpt>
      <trkpt lat="47.28966" lon="-1.60973">
        <ele>108</ele>
        <time>2022-01-27T13:32:35Z</time>
      </trkpt>
      <trkpt lat="47.28965" lon="-1.60975">
        <ele>108</ele>
        <time>2022-01-27T13:32:36Z</time>
      </trkpt>
      <trkpt lat="47.28965" lon="-1.60978">
        <ele>107</ele>
        <time>2022-01-27T13:32:37Z</time>
      </trkpt>
      <trkpt lat="47.28965" lon="-1.60979">
        <ele>108</ele>
        <time>2022-01-27T13:32:38Z</time>
      </trkpt>
      <trkpt lat="47.28966" lon="-1.60981">
        <ele>107</ele>
        <time>2022-01-27T13:32:39Z</time>
      </trkpt>
      <trkpt lat="47.28966" lon="-1.60984">
        <ele>108</ele>
        <time>2022-01-27T13:32:40Z</time>
      </trkpt>
      <trkpt lat="47.28967" lon="-1.60986">
        <ele>108</ele>
        <time>2022-01-27T13:32:41Z</time>
      </trkpt>
      <trkpt lat="47.28968" lon="-1.60988">
        <ele>108</ele>
        <time>2022-01-27T13:32:42Z</time>
      </trkpt>
      <trkpt lat="47.28969" lon="-1.6099">
        <ele>108</ele>
        <time>2022-01-27T13:32:43Z</time>
      </trkpt>
      <trkpt lat="47.28969" lon="-1.60991">
        <ele>108</ele>
        <time>2022-01-27T13:32:44Z</time>
      </trkpt>
      <trkpt lat="47.2897" lon="-1.60993">
        <ele>108</ele>
        <time>2022-01-27T13:32:45Z</time>
      </trkpt>
      <trkpt lat="47.28971" lon="-1.60994">
        <ele>108</ele>
        <time>2022-01-27T13:32:46Z</time>
      </trkpt>
      <trkpt lat="47.28972" lon="-1.60996">
        <ele>107</ele>
        <time>2022-01-27T13:32:47Z</time>
      </trkpt>
      <trkpt lat="47.28973" lon="-1.60997">
        <ele>107</ele>
        <time>2022-01-27T13:32:48Z</time>
      </trkpt>
      <trkpt lat="47.28974" lon="-1.60999">
        <ele>107</ele>
        <time>2022-01-27T13:32:49Z</time>
      </trkpt>
      <trkpt lat="47.28975" lon="-1.61">
        <ele>108</ele>
        <time>2022-01-27T13:32:50Z</time>
      </trkpt>
      <trkpt lat="47.28976" lon="-1.61001">
        <ele>107</ele>
        <time>2022-01-27T13:32:51Z</time>
      </trkpt>
      <trkpt lat="47.28977" lon="-1.61003">
        <ele>108</ele>
        <time>2022-01-27T13:32:52Z</time>
      </trkpt>
      <trkpt lat="47.28978" lon="-1.61004">
        <ele>108</ele>
        <time>2022-01-27T13:32:53Z</time>
      </trkpt>
      <trkpt lat="47.28979" lon="-1.61006">
        <ele>108</ele>
        <time>2022-01-27T13:32:54Z</time>
      </trkpt>
      <trkpt lat="47.2898" lon="-1.61007">
        <ele>107</ele>
        <time>2022-01-27T13:32:55Z</time>
      </trkpt>
      <trkpt lat="47.28981" lon="-1.61008">
        <ele>108</ele>
        <time>2022-01-27T13:32:56Z</time>
      </trkpt>
      <trkpt lat="47.28982" lon="-1.6101">
        <ele>108</ele>
        <time>2022-01-27T13:32:57Z</time>
      </trkpt>
      <trkpt lat="47.28983" lon="-1.61011">
        <ele>107</ele>
        <time>2022-01-27T13:32:58Z</time>
      </trkpt>
      <trkpt lat="47.28985" lon="-1.61013">
        <ele>108</ele>
        <time>2022-01-27T13:32:59Z</time>
      </trkpt>
      <trkpt lat="47.28986" lon="-1.61014">
        <ele>108</ele>
        <time>2022-01-27T13:33:00Z</time>
      </trkpt>
      <trkpt lat="47.28987" lon="-1.61015">
        <ele>108</ele>
        <time>2022-01-27T13:33:01Z</time>
      </trkpt>
      <trkpt lat="47.28988" lon="-1.61016">
        <ele>108</ele>
        <time>2022-01-27T13:33:02Z</time>
      </trkpt>
      <trkpt lat="47.28989" lon="-1.61017">
        <ele>108</ele>
        <time>2022-01-27T13:33:03Z</time>
      </trkpt>
      <trkpt lat="47.2899" lon="-1.61018">
        <ele>108</ele>
        <time>2022-01-27T13:33:04Z</time>
      </trkpt>
      <trkpt lat="47.28991" lon="-1.6102">
        <ele>108</ele>
        <time>2022-01-27T13:33:05Z</time>
      </trkpt>
      <trkpt lat="47.28993" lon="-1.61021">
        <ele>107</ele>
        <time>2022-01-27T13:33:06Z</time>
      </trkpt>
      <trkpt lat="47.28994" lon="-1.61022">
        <ele>107</ele>
        <time>2022-01-27T13:33:07Z</time>
      </trkpt>
      <trkpt lat="47.28995" lon="-1.61023">
        <ele>107</ele>
        <time>2022-01-27T13:33:08Z</time>
      </trkpt>
      <trkpt lat="47.28996" lon="-1.61024">
        <ele>107</ele>
        <time>2022-01-27T13:33:09Z</time>
      </trkpt>
      <trkpt lat="47.28997" lon="-1.61026">
        <ele>106</ele>
        <time>2022-01-27T13:33:10Z</time>
      </trkpt>
      <trkpt lat="47.28999" lon="-1.61027">
        <ele>107</ele>
        <time>2022-01-27T13:33:11Z</time>
      </trkpt>
      <trkpt lat="47.29" lon="-1.61028">
        <ele>106</ele>
        <time>2022-01-27T13:33:12Z</time>
      </trkpt>
      <trkpt lat="47.29001" lon="-1.6103">
        <ele>106</ele>
        <time>2022-01-27T13:33:13Z</time>
      </trkpt>
      <trkpt lat="47.29002" lon="-1.61031">
        <ele>106</ele>
        <time>2022-01-27T13:33:14Z</time>
      </trkpt>
      <trkpt lat="47.29003" lon="-1.61032">
        <ele>106</ele>
        <time>2022-01-27T13:33:15Z</time>
      </trkpt>
      <trkpt lat="47.29004" lon="-1.61033">
        <ele>106</ele>
        <time>2022-01-27T13:33:16Z</time>
      </trkpt>
      <trkpt lat="47.29005" lon="-1.61034">
        <ele>106</ele>
        <time>2022-01-27T13:33:17Z</time>
      </trkpt>
      <trkpt lat="47.29006" lon="-1.61036">
        <ele>105</ele>
        <time>2022-01-27T13:33:18Z</time>
      </trkpt>
      <trkpt lat="47.29007" lon="-1.61037">
        <ele>105</ele>
        <time>2022-01-27T13:33:19Z</time>
      </trkpt>
      <trkpt lat="47.29008" lon="-1.61039">
        <ele>105</ele>
        <time>2022-01-27T13:33:20Z</time>
      </trkpt>
      <trkpt lat="47.29009" lon="-1.6104">
        <ele>105</ele>
        <time>2022-01-27T13:33:21Z</time>
      </trkpt>
      <trkpt lat="47.2901" lon="-1.61042">
        <ele>105</ele>
        <time>2022-01-27T13:33:22Z</time>
      </trkpt>
      <trkpt lat="47.29011" lon="-1.61043">
        <ele>105</ele>
        <time>2022-01-27T13:33:23Z</time>
      </trkpt>
      <trkpt lat="47.29012" lon="-1.61043">
        <ele>105</ele>
        <time>2022-01-27T13:33:24Z</time>
      </trkpt>
      <trkpt lat="47.29013" lon="-1.61045">
        <ele>105</ele>
        <time>2022-01-27T13:33:25Z</time>
      </trkpt>
      <trkpt lat="47.29014" lon="-1.61046">
        <ele>105</ele>
        <time>2022-01-27T13:33:26Z</time>
      </trkpt>
      <trkpt lat="47.29016" lon="-1.61047">
        <ele>105</ele>
        <time>2022-01-27T13:33:27Z</time>
      </trkpt>
      <trkpt lat="47.29017" lon="-1.61048">
        <ele>104</ele>
        <time>2022-01-27T13:33:28Z</time>
      </trkpt>
      <trkpt lat="47.29018" lon="-1.61049">
        <ele>104</ele>
        <time>2022-01-27T13:33:29Z</time>
      </trkpt>
      <trkpt lat="47.2902" lon="-1.61051">
        <ele>104</ele>
        <time>2022-01-27T13:33:30Z</time>
      </trkpt>
      <trkpt lat="47.2902" lon="-1.61052">
        <ele>104</ele>
        <time>2022-01-27T13:33:31Z</time>
      </trkpt>
      <trkpt lat="47.29021" lon="-1.61053">
        <ele>104</ele>
        <time>2022-01-27T13:33:32Z</time>
      </trkpt>
      <trkpt lat="47.29022" lon="-1.61054">
        <ele>104</ele>
        <time>2022-01-27T13:33:33Z</time>
      </trkpt>
      <trkpt lat="47.29023" lon="-1.61055">
        <ele>104</ele>
        <time>2022-01-27T13:33:34Z</time>
      </trkpt>
      <trkpt lat="47.29024" lon="-1.61057">
        <ele>104</ele>
        <time>2022-01-27T13:33:35Z</time>
      </trkpt>
      <trkpt lat="47.29025" lon="-1.61058">
        <ele>103</ele>
        <time>2022-01-27T13:33:36Z</time>
      </trkpt>
      <trkpt lat="47.29026" lon="-1.6106">
        <ele>103</ele>
        <time>2022-01-27T13:33:37Z</time>
      </trkpt>
      <trkpt lat="47.29028" lon="-1.61061">
        <ele>102</ele>
        <time>2022-01-27T13:33:38Z</time>
      </trkpt>
      <trkpt lat="47.29028" lon="-1.61062">
        <ele>102</ele>
        <time>2022-01-27T13:33:39Z</time>
      </trkpt>
      <trkpt lat="47.2903" lon="-1.61063">
        <ele>102</ele>
        <time>2022-01-27T13:33:40Z</time>
      </trkpt>
      <trkpt lat="47.29031" lon="-1.61064">
        <ele>102</ele>
        <time>2022-01-27T13:33:41Z</time>
      </trkpt>
      <trkpt lat="47.29032" lon="-1.61065">
        <ele>102</ele>
        <time>2022-01-27T13:33:42Z</time>
      </trkpt>
      <trkpt lat="47.29033" lon="-1.61066">
        <ele>102</ele>
        <time>2022-01-27T13:33:43Z</time>
      </trkpt>
      <trkpt lat="47.29034" lon="-1.61068">
        <ele>102</ele>
        <time>2022-01-27T13:33:44Z</time>
      </trkpt>
      <trkpt lat="47.29035" lon="-1.61069">
        <ele>102</ele>
        <time>2022-01-27T13:33:45Z</time>
      </trkpt>
      <trkpt lat="47.29036" lon="-1.6107">
        <ele>102</ele>
        <time>2022-01-27T13:33:46Z</time>
      </trkpt>
      <trkpt lat="47.29037" lon="-1.61071">
        <ele>101</ele>
        <time>2022-01-27T13:33:47Z</time>
      </trkpt>
      <trkpt lat="47.29038" lon="-1.61072">
        <ele>101</ele>
        <time>2022-01-27T13:33:48Z</time>
      </trkpt>
      <trkpt lat="47.29039" lon="-1.61074">
        <ele>101</ele>
        <time>2022-01-27T13:33:49Z</time>
      </trkpt>
      <trkpt lat="47.29041" lon="-1.61075">
        <ele>101</ele>
        <time>2022-01-27T13:33:50Z</time>
      </trkpt>
      <trkpt lat="47.29041" lon="-1.61076">
        <ele>101</ele>
        <time>2022-01-27T13:33:51Z</time>
      </trkpt>
      <trkpt lat="47.29042" lon="-1.61077">
        <ele>101</ele>
        <time>2022-01-27T13:33:52Z</time>
      </trkpt>
      <trkpt lat="47.29043" lon="-1.61079">
        <ele>100</ele>
        <time>2022-01-27T13:33:53Z</time>
      </trkpt>
      <trkpt lat="47.29044" lon="-1.6108">
        <ele>100</ele>
        <time>2022-01-27T13:33:54Z</time>
      </trkpt>
      <trkpt lat="47.29045" lon="-1.61082">
        <ele>100</ele>
        <time>2022-01-27T13:33:55Z</time>
      </trkpt>
      <trkpt lat="47.29046" lon="-1.61083">
        <ele>100</ele>
        <time>2022-01-27T13:33:56Z</time>
      </trkpt>
      <trkpt lat="47.29047" lon="-1.61085">
        <ele>100</ele>
        <time>2022-01-27T13:33:57Z</time>
      </trkpt>
      <trkpt lat="47.29048" lon="-1.61086">
        <ele>100</ele>
        <time>2022-01-27T13:33:58Z</time>
      </trkpt>
      <trkpt lat="47.29049" lon="-1.61088">
        <ele>100</ele>
        <time>2022-01-27T13:33:59Z</time>
      </trkpt>
      <trkpt lat="47.2905" lon="-1.61089">
        <ele>100</ele>
        <time>2022-01-27T13:34:00Z</time>
      </trkpt>
      <trkpt lat="47.29051" lon="-1.61091">
        <ele>100</ele>
        <time>2022-01-27T13:34:01Z</time>
      </trkpt>
      <trkpt lat="47.29052" lon="-1.61093">
        <ele>100</ele>
        <time>2022-01-27T13:34:02Z</time>
      </trkpt>
      <trkpt lat="47.29053" lon="-1.61095">
        <ele>100</ele>
        <time>2022-01-27T13:34:03Z</time>
      </trkpt>
      <trkpt lat="47.29054" lon="-1.61096">
        <ele>100</ele>
        <time>2022-01-27T13:34:04Z</time>
      </trkpt>
      <trkpt lat="47.29055" lon="-1.61098">
        <ele>100</ele>
        <time>2022-01-27T13:34:05Z</time>
      </trkpt>
      <trkpt lat="47.29056" lon="-1.61099">
        <ele>100</ele>
        <time>2022-01-27T13:34:06Z</time>
      </trkpt>
      <trkpt lat="47.29057" lon="-1.611">
        <ele>100</ele>
        <time>2022-01-27T13:34:07Z</time>
      </trkpt>
      <trkpt lat="47.29059" lon="-1.61102">
        <ele>100</ele>
        <time>2022-01-27T13:34:08Z</time>
      </trkpt>
      <trkpt lat="47.29059" lon="-1.61104">
        <ele>100</ele>
        <time>2022-01-27T13:34:09Z</time>
      </trkpt>
      <trkpt lat="47.2906" lon="-1.61105">
        <ele>100</ele>
        <time>2022-01-27T13:34:10Z</time>
      </trkpt>
      <trkpt lat="47.29062" lon="-1.61107">
        <ele>100</ele>
        <time>2022-01-27T13:34:11Z</time>
      </trkpt>
      <trkpt lat="47.29063" lon="-1.61107">
        <ele>101</ele>
        <time>2022-01-27T13:34:12Z</time>
      </trkpt>
      <trkpt lat="47.29064" lon="-1.61108">
        <ele>101</ele>
        <time>2022-01-27T13:34:13Z</time>
      </trkpt>
      <trkpt lat="47.29065" lon="-1.61108">
        <ele>101</ele>
        <time>2022-01-27T13:34:14Z</time>
      </trkpt>
      <trkpt lat="47.29067" lon="-1.6111">
        <ele>101</ele>
        <time>2022-01-27T13:34:15Z</time>
      </trkpt>
      <trkpt lat="47.29068" lon="-1.61111">
        <ele>101</ele>
        <time>2022-01-27T13:34:16Z</time>
      </trkpt>
      <trkpt lat="47.29069" lon="-1.61112">
        <ele>101</ele>
        <time>2022-01-27T13:34:17Z</time>
      </trkpt>
      <trkpt lat="47.2907" lon="-1.61114">
        <ele>101</ele>
        <time>2022-01-27T13:34:18Z</time>
      </trkpt>
      <trkpt lat="47.29072" lon="-1.61114">
        <ele>101</ele>
        <time>2022-01-27T13:34:19Z</time>
      </trkpt>
      <trkpt lat="47.29073" lon="-1.61115">
        <ele>101</ele>
        <time>2022-01-27T13:34:20Z</time>
      </trkpt>
      <trkpt lat="47.29074" lon="-1.61116">
        <ele>101</ele>
        <time>2022-01-27T13:34:21Z</time>
      </trkpt>
      <trkpt lat="47.29076" lon="-1.61117">
        <ele>101</ele>
        <time>2022-01-27T13:34:22Z</time>
      </trkpt>
      <trkpt lat="47.29076" lon="-1.61117">
        <ele>101</ele>
        <time>2022-01-27T13:34:23Z</time>
      </trkpt>
      <trkpt lat="47.29078" lon="-1.61117">
        <ele>100</ele>
        <time>2022-01-27T13:34:24Z</time>
      </trkpt>
      <trkpt lat="47.29079" lon="-1.61118">
        <ele>101</ele>
        <time>2022-01-27T13:34:25Z</time>
      </trkpt>
      <trkpt lat="47.2908" lon="-1.61119">
        <ele>100</ele>
        <time>2022-01-27T13:34:26Z</time>
      </trkpt>
      <trkpt lat="47.29081" lon="-1.61121">
        <ele>100</ele>
        <time>2022-01-27T13:34:27Z</time>
      </trkpt>
      <trkpt lat="47.29082" lon="-1.61123">
        <ele>100</ele>
        <time>2022-01-27T13:34:28Z</time>
      </trkpt>
      <trkpt lat="47.29083" lon="-1.61124">
        <ele>100</ele>
        <time>2022-01-27T13:34:29Z</time>
      </trkpt>
      <trkpt lat="47.29084" lon="-1.61126">
        <ele>100</ele>
        <time>2022-01-27T13:34:30Z</time>
      </trkpt>
      <trkpt lat="47.29085" lon="-1.61127">
        <ele>100</ele>
        <time>2022-01-27T13:34:31Z</time>
      </trkpt>
      <trkpt lat="47.29086" lon="-1.61129">
        <ele>100</ele>
        <time>2022-01-27T13:34:32Z</time>
      </trkpt>
      <trkpt lat="47.29087" lon="-1.61131">
        <ele>100</ele>
        <time>2022-01-27T13:34:33Z</time>
      </trkpt>
      <trkpt lat="47.29089" lon="-1.61133">
        <ele>100</ele>
        <time>2022-01-27T13:34:34Z</time>
      </trkpt>
      <trkpt lat="47.29091" lon="-1.61135">
        <ele>100</ele>
        <time>2022-01-27T13:34:35Z</time>
      </trkpt>
      <trkpt lat="47.29092" lon="-1.61136">
        <ele>100</ele>
        <time>2022-01-27T13:34:36Z</time>
      </trkpt>
      <trkpt lat="47.29093" lon="-1.61138">
        <ele>100</ele>
        <time>2022-01-27T13:34:37Z</time>
      </trkpt>
      <trkpt lat="47.29094" lon="-1.61139">
        <ele>100</ele>
        <time>2022-01-27T13:34:38Z</time>
      </trkpt>
      <trkpt lat="47.29095" lon="-1.61141">
        <ele>100</ele>
        <time>2022-01-27T13:34:39Z</time>
      </trkpt>
      <trkpt lat="47.29095" lon="-1.61143">
        <ele>99</ele>
        <time>2022-01-27T13:34:40Z</time>
      </trkpt>
      <trkpt lat="47.29096" lon="-1.61144">
        <ele>99</ele>
        <time>2022-01-27T13:34:41Z</time>
      </trkpt>
      <trkpt lat="47.29098" lon="-1.61146">
        <ele>99</ele>
        <time>2022-01-27T13:34:42Z</time>
      </trkpt>
      <trkpt lat="47.29099" lon="-1.61147">
        <ele>99</ele>
        <time>2022-01-27T13:34:43Z</time>
      </trkpt>
      <trkpt lat="47.291" lon="-1.61149">
        <ele>100</ele>
        <time>2022-01-27T13:34:44Z</time>
      </trkpt>
      <trkpt lat="47.29102" lon="-1.6115">
        <ele>99</ele>
        <time>2022-01-27T13:34:45Z</time>
      </trkpt>
      <trkpt lat="47.29103" lon="-1.61152">
        <ele>99</ele>
        <time>2022-01-27T13:34:46Z</time>
      </trkpt>
      <trkpt lat="47.29104" lon="-1.61154">
        <ele>99</ele>
        <time>2022-01-27T13:34:47Z</time>
      </trkpt>
      <trkpt lat="47.29105" lon="-1.61155">
        <ele>100</ele>
        <time>2022-01-27T13:34:48Z</time>
      </trkpt>
      <trkpt lat="47.29106" lon="-1.61157">
        <ele>100</ele>
        <time>2022-01-27T13:34:49Z</time>
      </trkpt>
      <trkpt lat="47.29107" lon="-1.61159">
        <ele>100</ele>
        <time>2022-01-27T13:34:50Z</time>
      </trkpt>
      <trkpt lat="47.29107" lon="-1.6116">
        <ele>99</ele>
        <time>2022-01-27T13:34:51Z</time>
      </trkpt>
      <trkpt lat="47.29108" lon="-1.61161">
        <ele>99</ele>
        <time>2022-01-27T13:34:52Z</time>
      </trkpt>
      <trkpt lat="47.29109" lon="-1.61163">
        <ele>99</ele>
        <time>2022-01-27T13:34:53Z</time>
      </trkpt>
      <trkpt lat="47.2911" lon="-1.61165">
        <ele>100</ele>
        <time>2022-01-27T13:34:54Z</time>
      </trkpt>
      <trkpt lat="47.2911" lon="-1.61166">
        <ele>100</ele>
        <time>2022-01-27T13:34:55Z</time>
      </trkpt>
      <trkpt lat="47.29111" lon="-1.61168">
        <ele>100</ele>
        <time>2022-01-27T13:34:56Z</time>
      </trkpt>
      <trkpt lat="47.29112" lon="-1.6117">
        <ele>100</ele>
        <time>2022-01-27T13:34:57Z</time>
      </trkpt>
      <trkpt lat="47.29113" lon="-1.61171">
        <ele>100</ele>
        <time>2022-01-27T13:34:58Z</time>
      </trkpt>
      <trkpt lat="47.29115" lon="-1.61173">
        <ele>100</ele>
        <time>2022-01-27T13:34:59Z</time>
      </trkpt>
      <trkpt lat="47.29115" lon="-1.61175">
        <ele>100</ele>
        <time>2022-01-27T13:35:00Z</time>
      </trkpt>
      <trkpt lat="47.29116" lon="-1.61177">
        <ele>100</ele>
        <time>2022-01-27T13:35:01Z</time>
      </trkpt>
      <trkpt lat="47.29117" lon="-1.61179">
        <ele>100</ele>
        <time>2022-01-27T13:35:02Z</time>
      </trkpt>
      <trkpt lat="47.29118" lon="-1.61181">
        <ele>100</ele>
        <time>2022-01-27T13:35:03Z</time>
      </trkpt>
      <trkpt lat="47.29118" lon="-1.61183">
        <ele>100</ele>
        <time>2022-01-27T13:35:04Z</time>
      </trkpt>
      <trkpt lat="47.29119" lon="-1.61185">
        <ele>100</ele>
        <time>2022-01-27T13:35:05Z</time>
      </trkpt>
      <trkpt lat="47.2912" lon="-1.61187">
        <ele>100</ele>
        <time>2022-01-27T13:35:06Z</time>
      </trkpt>
      <trkpt lat="47.29121" lon="-1.61189">
        <ele>100</ele>
        <time>2022-01-27T13:35:07Z</time>
      </trkpt>
      <trkpt lat="47.29122" lon="-1.6119">
        <ele>100</ele>
        <time>2022-01-27T13:35:08Z</time>
      </trkpt>
      <trkpt lat="47.29123" lon="-1.61192">
        <ele>100</ele>
        <time>2022-01-27T13:35:09Z</time>
      </trkpt>
      <trkpt lat="47.29124" lon="-1.61193">
        <ele>100</ele>
        <time>2022-01-27T13:35:10Z</time>
      </trkpt>
      <trkpt lat="47.29125" lon="-1.61195">
        <ele>100</ele>
        <time>2022-01-27T13:35:11Z</time>
      </trkpt>
      <trkpt lat="47.29126" lon="-1.61197">
        <ele>100</ele>
        <time>2022-01-27T13:35:12Z</time>
      </trkpt>
      <trkpt lat="47.29127" lon="-1.612">
        <ele>100</ele>
        <time>2022-01-27T13:35:13Z</time>
      </trkpt>
      <trkpt lat="47.29128" lon="-1.61201">
        <ele>100</ele>
        <time>2022-01-27T13:35:14Z</time>
      </trkpt>
      <trkpt lat="47.29129" lon="-1.61202">
        <ele>100</ele>
        <time>2022-01-27T13:35:15Z</time>
      </trkpt>
      <trkpt lat="47.2913" lon="-1.61204">
        <ele>100</ele>
        <time>2022-01-27T13:35:16Z</time>
      </trkpt>
      <trkpt lat="47.29131" lon="-1.61205">
        <ele>100</ele>
        <time>2022-01-27T13:35:17Z</time>
      </trkpt>
      <trkpt lat="47.29131" lon="-1.61207">
        <ele>100</ele>
        <time>2022-01-27T13:35:18Z</time>
      </trkpt>
      <trkpt lat="47.29132" lon="-1.61209">
        <ele>100</ele>
        <time>2022-01-27T13:35:19Z</time>
      </trkpt>
      <trkpt lat="47.29133" lon="-1.61211">
        <ele>100</ele>
        <time>2022-01-27T13:35:20Z</time>
      </trkpt>
      <trkpt lat="47.29133" lon="-1.61213">
        <ele>100</ele>
        <time>2022-01-27T13:35:21Z</time>
      </trkpt>
      <trkpt lat="47.29134" lon="-1.61214">
        <ele>100</ele>
        <time>2022-01-27T13:35:22Z</time>
      </trkpt>
      <trkpt lat="47.29134" lon="-1.61216">
        <ele>100</ele>
        <time>2022-01-27T13:35:23Z</time>
      </trkpt>
      <trkpt lat="47.29135" lon="-1.61218">
        <ele>100</ele>
        <time>2022-01-27T13:35:24Z</time>
      </trkpt>
      <trkpt lat="47.29136" lon="-1.61219">
        <ele>100</ele>
        <time>2022-01-27T13:35:25Z</time>
      </trkpt>
      <trkpt lat="47.29137" lon="-1.61221">
        <ele>101</ele>
        <time>2022-01-27T13:35:26Z</time>
      </trkpt>
      <trkpt lat="47.29138" lon="-1.61223">
        <ele>101</ele>
        <time>2022-01-27T13:35:27Z</time>
      </trkpt>
      <trkpt lat="47.29139" lon="-1.61224">
        <ele>101</ele>
        <time>2022-01-27T13:35:28Z</time>
      </trkpt>
      <trkpt lat="47.2914" lon="-1.61226">
        <ele>101</ele>
        <time>2022-01-27T13:35:29Z</time>
      </trkpt>
      <trkpt lat="47.29141" lon="-1.61228">
        <ele>101</ele>
        <time>2022-01-27T13:35:30Z</time>
      </trkpt>
      <trkpt lat="47.29142" lon="-1.6123">
        <ele>101</ele>
        <time>2022-01-27T13:35:31Z</time>
      </trkpt>
      <trkpt lat="47.29142" lon="-1.61231">
        <ele>101</ele>
        <time>2022-01-27T13:35:32Z</time>
      </trkpt>
      <trkpt lat="47.29143" lon="-1.61233">
        <ele>101</ele>
        <time>2022-01-27T13:35:33Z</time>
      </trkpt>
      <trkpt lat="47.29144" lon="-1.61234">
        <ele>101</ele>
        <time>2022-01-27T13:35:34Z</time>
      </trkpt>
      <trkpt lat="47.29145" lon="-1.61236">
        <ele>100</ele>
        <time>2022-01-27T13:35:35Z</time>
      </trkpt>
      <trkpt lat="47.29145" lon="-1.61238">
        <ele>101</ele>
        <time>2022-01-27T13:35:36Z</time>
      </trkpt>
      <trkpt lat="47.29147" lon="-1.6124">
        <ele>101</ele>
        <time>2022-01-27T13:35:37Z</time>
      </trkpt>
      <trkpt lat="47.29147" lon="-1.61243">
        <ele>100</ele>
        <time>2022-01-27T13:35:38Z</time>
      </trkpt>
      <trkpt lat="47.29148" lon="-1.61245">
        <ele>100</ele>
        <time>2022-01-27T13:35:39Z</time>
      </trkpt>
      <trkpt lat="47.29149" lon="-1.61246">
        <ele>101</ele>
        <time>2022-01-27T13:35:40Z</time>
      </trkpt>
      <trkpt lat="47.2915" lon="-1.61248">
        <ele>101</ele>
        <time>2022-01-27T13:35:41Z</time>
      </trkpt>
      <trkpt lat="47.2915" lon="-1.6125">
        <ele>101</ele>
        <time>2022-01-27T13:35:42Z</time>
      </trkpt>
      <trkpt lat="47.29151" lon="-1.61252">
        <ele>101</ele>
        <time>2022-01-27T13:35:43Z</time>
      </trkpt>
      <trkpt lat="47.29152" lon="-1.61253">
        <ele>101</ele>
        <time>2022-01-27T13:35:44Z</time>
      </trkpt>
      <trkpt lat="47.29153" lon="-1.61255">
        <ele>101</ele>
        <time>2022-01-27T13:35:45Z</time>
      </trkpt>
      <trkpt lat="47.29153" lon="-1.61257">
        <ele>101</ele>
        <time>2022-01-27T13:35:46Z</time>
      </trkpt>
      <trkpt lat="47.29154" lon="-1.61258">
        <ele>101</ele>
        <time>2022-01-27T13:35:47Z</time>
      </trkpt>
      <trkpt lat="47.29155" lon="-1.6126">
        <ele>101</ele>
        <time>2022-01-27T13:35:48Z</time>
      </trkpt>
      <trkpt lat="47.29155" lon="-1.61261">
        <ele>101</ele>
        <time>2022-01-27T13:35:49Z</time>
      </trkpt>
      <trkpt lat="47.29156" lon="-1.61263">
        <ele>101</ele>
        <time>2022-01-27T13:35:50Z</time>
      </trkpt>
      <trkpt lat="47.29157" lon="-1.61265">
        <ele>101</ele>
        <time>2022-01-27T13:35:51Z</time>
      </trkpt>
      <trkpt lat="47.29157" lon="-1.61267">
        <ele>101</ele>
        <time>2022-01-27T13:35:52Z</time>
      </trkpt>
      <trkpt lat="47.29158" lon="-1.61268">
        <ele>101</ele>
        <time>2022-01-27T13:35:53Z</time>
      </trkpt>
      <trkpt lat="47.29158" lon="-1.6127">
        <ele>102</ele>
        <time>2022-01-27T13:35:54Z</time>
      </trkpt>
      <trkpt lat="47.29159" lon="-1.61272">
        <ele>101</ele>
        <time>2022-01-27T13:35:55Z</time>
      </trkpt>
      <trkpt lat="47.2916" lon="-1.61273">
        <ele>101</ele>
        <time>2022-01-27T13:35:56Z</time>
      </trkpt>
      <trkpt lat="47.2916" lon="-1.61275">
        <ele>101</ele>
        <time>2022-01-27T13:35:57Z</time>
      </trkpt>
      <trkpt lat="47.29161" lon="-1.61277">
        <ele>101</ele>
        <time>2022-01-27T13:35:58Z</time>
      </trkpt>
      <trkpt lat="47.29162" lon="-1.61278">
        <ele>101</ele>
        <time>2022-01-27T13:35:59Z</time>
      </trkpt>
      <trkpt lat="47.29163" lon="-1.6128">
        <ele>101</ele>
        <time>2022-01-27T13:36:00Z</time>
      </trkpt>
      <trkpt lat="47.29163" lon="-1.61282">
        <ele>101</ele>
        <time>2022-01-27T13:36:01Z</time>
      </trkpt>
      <trkpt lat="47.29164" lon="-1.61283">
        <ele>100</ele>
        <time>2022-01-27T13:36:02Z</time>
      </trkpt>
      <trkpt lat="47.29165" lon="-1.61285">
        <ele>100</ele>
        <time>2022-01-27T13:36:03Z</time>
      </trkpt>
      <trkpt lat="47.29165" lon="-1.61286">
        <ele>100</ele>
        <time>2022-01-27T13:36:04Z</time>
      </trkpt>
      <trkpt lat="47.29166" lon="-1.61288">
        <ele>100</ele>
        <time>2022-01-27T13:36:05Z</time>
      </trkpt>
      <trkpt lat="47.29166" lon="-1.61289">
        <ele>99</ele>
        <time>2022-01-27T13:36:06Z</time>
      </trkpt>
      <trkpt lat="47.29167" lon="-1.61291">
        <ele>99</ele>
        <time>2022-01-27T13:36:07Z</time>
      </trkpt>
      <trkpt lat="47.29168" lon="-1.61293">
        <ele>99</ele>
        <time>2022-01-27T13:36:08Z</time>
      </trkpt>
      <trkpt lat="47.29169" lon="-1.61294">
        <ele>99</ele>
        <time>2022-01-27T13:36:09Z</time>
      </trkpt>
      <trkpt lat="47.2917" lon="-1.61296">
        <ele>99</ele>
        <time>2022-01-27T13:36:10Z</time>
      </trkpt>
      <trkpt lat="47.2917" lon="-1.61298">
        <ele>99</ele>
        <time>2022-01-27T13:36:11Z</time>
      </trkpt>
      <trkpt lat="47.29171" lon="-1.613">
        <ele>99</ele>
        <time>2022-01-27T13:36:12Z</time>
      </trkpt>
      <trkpt lat="47.29171" lon="-1.61302">
        <ele>99</ele>
        <time>2022-01-27T13:36:13Z</time>
      </trkpt>
      <trkpt lat="47.29172" lon="-1.61304">
        <ele>99</ele>
        <time>2022-01-27T13:36:14Z</time>
      </trkpt>
      <trkpt lat="47.29173" lon="-1.61306">
        <ele>99</ele>
        <time>2022-01-27T13:36:15Z</time>
      </trkpt>
      <trkpt lat="47.29174" lon="-1.61307">
        <ele>99</ele>
        <time>2022-01-27T13:36:16Z</time>
      </trkpt>
      <trkpt lat="47.29174" lon="-1.61308">
        <ele>99</ele>
        <time>2022-01-27T13:36:17Z</time>
      </trkpt>
      <trkpt lat="47.29175" lon="-1.6131">
        <ele>99</ele>
        <time>2022-01-27T13:36:18Z</time>
      </trkpt>
      <trkpt lat="47.29176" lon="-1.61312">
        <ele>99</ele>
        <time>2022-01-27T13:36:19Z</time>
      </trkpt>
      <trkpt lat="47.29178" lon="-1.61314">
        <ele>99</ele>
        <time>2022-01-27T13:36:20Z</time>
      </trkpt>
      <trkpt lat="47.29179" lon="-1.61316">
        <ele>99</ele>
        <time>2022-01-27T13:36:21Z</time>
      </trkpt>
      <trkpt lat="47.29179" lon="-1.61318">
        <ele>99</ele>
        <time>2022-01-27T13:36:22Z</time>
      </trkpt>
      <trkpt lat="47.29181" lon="-1.6132">
        <ele>99</ele>
        <time>2022-01-27T13:36:23Z</time>
      </trkpt>
      <trkpt lat="47.29181" lon="-1.61321">
        <ele>99</ele>
        <time>2022-01-27T13:36:24Z</time>
      </trkpt>
      <trkpt lat="47.29182" lon="-1.61323">
        <ele>99</ele>
        <time>2022-01-27T13:36:25Z</time>
      </trkpt>
      <trkpt lat="47.29183" lon="-1.61324">
        <ele>98</ele>
        <time>2022-01-27T13:36:26Z</time>
      </trkpt>
      <trkpt lat="47.29184" lon="-1.61326">
        <ele>98</ele>
        <time>2022-01-27T13:36:27Z</time>
      </trkpt>
      <trkpt lat="47.29185" lon="-1.61327">
        <ele>98</ele>
        <time>2022-01-27T13:36:28Z</time>
      </trkpt>
      <trkpt lat="47.29186" lon="-1.61328">
        <ele>98</ele>
        <time>2022-01-27T13:36:29Z</time>
      </trkpt>
      <trkpt lat="47.29187" lon="-1.61329">
        <ele>98</ele>
        <time>2022-01-27T13:36:30Z</time>
      </trkpt>
      <trkpt lat="47.29188" lon="-1.6133">
        <ele>98</ele>
        <time>2022-01-27T13:36:31Z</time>
      </trkpt>
      <trkpt lat="47.29189" lon="-1.61332">
        <ele>98</ele>
        <time>2022-01-27T13:36:32Z</time>
      </trkpt>
      <trkpt lat="47.29189" lon="-1.61334">
        <ele>98</ele>
        <time>2022-01-27T13:36:33Z</time>
      </trkpt>
      <trkpt lat="47.2919" lon="-1.61336">
        <ele>98</ele>
        <time>2022-01-27T13:36:34Z</time>
      </trkpt>
      <trkpt lat="47.29191" lon="-1.61338">
        <ele>98</ele>
        <time>2022-01-27T13:36:35Z</time>
      </trkpt>
      <trkpt lat="47.29192" lon="-1.61339">
        <ele>98</ele>
        <time>2022-01-27T13:36:36Z</time>
      </trkpt>
      <trkpt lat="47.29193" lon="-1.61341">
        <ele>98</ele>
        <time>2022-01-27T13:36:37Z</time>
      </trkpt>
      <trkpt lat="47.29194" lon="-1.61342">
        <ele>98</ele>
        <time>2022-01-27T13:36:38Z</time>
      </trkpt>
      <trkpt lat="47.29195" lon="-1.61344">
        <ele>98</ele>
        <time>2022-01-27T13:36:39Z</time>
      </trkpt>
      <trkpt lat="47.29195" lon="-1.61345">
        <ele>98</ele>
        <time>2022-01-27T13:36:40Z</time>
      </trkpt>
      <trkpt lat="47.29196" lon="-1.61347">
        <ele>98</ele>
        <time>2022-01-27T13:36:41Z</time>
      </trkpt>
      <trkpt lat="47.29197" lon="-1.61348">
        <ele>98</ele>
        <time>2022-01-27T13:36:42Z</time>
      </trkpt>
      <trkpt lat="47.29198" lon="-1.6135">
        <ele>98</ele>
        <time>2022-01-27T13:36:43Z</time>
      </trkpt>
      <trkpt lat="47.29199" lon="-1.61352">
        <ele>98</ele>
        <time>2022-01-27T13:36:44Z</time>
      </trkpt>
      <trkpt lat="47.292" lon="-1.61353">
        <ele>98</ele>
        <time>2022-01-27T13:36:45Z</time>
      </trkpt>
      <trkpt lat="47.29201" lon="-1.61355">
        <ele>98</ele>
        <time>2022-01-27T13:36:46Z</time>
      </trkpt>
      <trkpt lat="47.29202" lon="-1.61356">
        <ele>98</ele>
        <time>2022-01-27T13:36:47Z</time>
      </trkpt>
      <trkpt lat="47.29202" lon="-1.61358">
        <ele>98</ele>
        <time>2022-01-27T13:36:48Z</time>
      </trkpt>
      <trkpt lat="47.29203" lon="-1.61359">
        <ele>98</ele>
        <time>2022-01-27T13:36:49Z</time>
      </trkpt>
      <trkpt lat="47.29204" lon="-1.6136">
        <ele>98</ele>
        <time>2022-01-27T13:36:50Z</time>
      </trkpt>
      <trkpt lat="47.29205" lon="-1.61362">
        <ele>98</ele>
        <time>2022-01-27T13:36:51Z</time>
      </trkpt>
      <trkpt lat="47.29206" lon="-1.61363">
        <ele>97</ele>
        <time>2022-01-27T13:36:52Z</time>
      </trkpt>
      <trkpt lat="47.29207" lon="-1.61365">
        <ele>97</ele>
        <time>2022-01-27T13:36:53Z</time>
      </trkpt>
      <trkpt lat="47.29208" lon="-1.61367">
        <ele>97</ele>
        <time>2022-01-27T13:36:54Z</time>
      </trkpt>
      <trkpt lat="47.2921" lon="-1.61369">
        <ele>97</ele>
        <time>2022-01-27T13:36:55Z</time>
      </trkpt>
      <trkpt lat="47.29211" lon="-1.61371">
        <ele>97</ele>
        <time>2022-01-27T13:36:56Z</time>
      </trkpt>
      <trkpt lat="47.29211" lon="-1.61373">
        <ele>97</ele>
        <time>2022-01-27T13:36:57Z</time>
      </trkpt>
      <trkpt lat="47.29213" lon="-1.61375">
        <ele>97</ele>
        <time>2022-01-27T13:36:58Z</time>
      </trkpt>
      <trkpt lat="47.29214" lon="-1.61376">
        <ele>97</ele>
        <time>2022-01-27T13:36:59Z</time>
      </trkpt>
      <trkpt lat="47.29215" lon="-1.61378">
        <ele>98</ele>
        <time>2022-01-27T13:37:00Z</time>
      </trkpt>
      <trkpt lat="47.29216" lon="-1.61379">
        <ele>98</ele>
        <time>2022-01-27T13:37:01Z</time>
      </trkpt>
      <trkpt lat="47.29216" lon="-1.61381">
        <ele>98</ele>
        <time>2022-01-27T13:37:02Z</time>
      </trkpt>
      <trkpt lat="47.29217" lon="-1.61382">
        <ele>98</ele>
        <time>2022-01-27T13:37:03Z</time>
      </trkpt>
      <trkpt lat="47.29218" lon="-1.61384">
        <ele>98</ele>
        <time>2022-01-27T13:37:04Z</time>
      </trkpt>
      <trkpt lat="47.29219" lon="-1.61386">
        <ele>97</ele>
        <time>2022-01-27T13:37:05Z</time>
      </trkpt>
      <trkpt lat="47.2922" lon="-1.61388">
        <ele>97</ele>
        <time>2022-01-27T13:37:06Z</time>
      </trkpt>
      <trkpt lat="47.29221" lon="-1.61389">
        <ele>98</ele>
        <time>2022-01-27T13:37:07Z</time>
      </trkpt>
      <trkpt lat="47.29223" lon="-1.61391">
        <ele>98</ele>
        <time>2022-01-27T13:37:08Z</time>
      </trkpt>
      <trkpt lat="47.29224" lon="-1.61393">
        <ele>98</ele>
        <time>2022-01-27T13:37:09Z</time>
      </trkpt>
      <trkpt lat="47.29224" lon="-1.61395">
        <ele>98</ele>
        <time>2022-01-27T13:37:10Z</time>
      </trkpt>
      <trkpt lat="47.29225" lon="-1.61396">
        <ele>98</ele>
        <time>2022-01-27T13:37:11Z</time>
      </trkpt>
      <trkpt lat="47.29226" lon="-1.61398">
        <ele>97</ele>
        <time>2022-01-27T13:37:12Z</time>
      </trkpt>
      <trkpt lat="47.29227" lon="-1.614">
        <ele>97</ele>
        <time>2022-01-27T13:37:13Z</time>
      </trkpt>
      <trkpt lat="47.29227" lon="-1.61402">
        <ele>97</ele>
        <time>2022-01-27T13:37:14Z</time>
      </trkpt>
      <trkpt lat="47.29228" lon="-1.61404">
        <ele>97</ele>
        <time>2022-01-27T13:37:15Z</time>
      </trkpt>
      <trkpt lat="47.29229" lon="-1.61406">
        <ele>97</ele>
        <time>2022-01-27T13:37:16Z</time>
      </trkpt>
      <trkpt lat="47.2923" lon="-1.61408">
        <ele>97</ele>
        <time>2022-01-27T13:37:17Z</time>
      </trkpt>
      <trkpt lat="47.29231" lon="-1.6141">
        <ele>97</ele>
        <time>2022-01-27T13:37:18Z</time>
      </trkpt>
      <trkpt lat="47.29231" lon="-1.61412">
        <ele>97</ele>
        <time>2022-01-27T13:37:19Z</time>
      </trkpt>
      <trkpt lat="47.29232" lon="-1.61414">
        <ele>97</ele>
        <time>2022-01-27T13:37:20Z</time>
      </trkpt>
      <trkpt lat="47.29233" lon="-1.61416">
        <ele>97</ele>
        <time>2022-01-27T13:37:21Z</time>
      </trkpt>
      <trkpt lat="47.29234" lon="-1.61417">
        <ele>98</ele>
        <time>2022-01-27T13:37:22Z</time>
      </trkpt>
      <trkpt lat="47.29235" lon="-1.61419">
        <ele>98</ele>
        <time>2022-01-27T13:37:23Z</time>
      </trkpt>
      <trkpt lat="47.29235" lon="-1.61422">
        <ele>98</ele>
        <time>2022-01-27T13:37:24Z</time>
      </trkpt>
      <trkpt lat="47.29236" lon="-1.61424">
        <ele>97</ele>
        <time>2022-01-27T13:37:25Z</time>
      </trkpt>
      <trkpt lat="47.29237" lon="-1.61425">
        <ele>98</ele>
        <time>2022-01-27T13:37:26Z</time>
      </trkpt>
      <trkpt lat="47.29237" lon="-1.61427">
        <ele>97</ele>
        <time>2022-01-27T13:37:27Z</time>
      </trkpt>
      <trkpt lat="47.29238" lon="-1.61428">
        <ele>98</ele>
        <time>2022-01-27T13:37:28Z</time>
      </trkpt>
      <trkpt lat="47.29239" lon="-1.6143">
        <ele>98</ele>
        <time>2022-01-27T13:37:29Z</time>
      </trkpt>
      <trkpt lat="47.29239" lon="-1.61432">
        <ele>98</ele>
        <time>2022-01-27T13:37:30Z</time>
      </trkpt>
      <trkpt lat="47.2924" lon="-1.61434">
        <ele>98</ele>
        <time>2022-01-27T13:37:31Z</time>
      </trkpt>
      <trkpt lat="47.2924" lon="-1.61436">
        <ele>98</ele>
        <time>2022-01-27T13:37:32Z</time>
      </trkpt>
      <trkpt lat="47.29241" lon="-1.61438">
        <ele>99</ele>
        <time>2022-01-27T13:37:33Z</time>
      </trkpt>
      <trkpt lat="47.29242" lon="-1.6144">
        <ele>99</ele>
        <time>2022-01-27T13:37:34Z</time>
      </trkpt>
      <trkpt lat="47.29243" lon="-1.61441">
        <ele>99</ele>
        <time>2022-01-27T13:37:35Z</time>
      </trkpt>
      <trkpt lat="47.29244" lon="-1.61443">
        <ele>99</ele>
        <time>2022-01-27T13:37:36Z</time>
      </trkpt>
      <trkpt lat="47.29244" lon="-1.61445">
        <ele>99</ele>
        <time>2022-01-27T13:37:37Z</time>
      </trkpt>
      <trkpt lat="47.29245" lon="-1.61447">
        <ele>99</ele>
        <time>2022-01-27T13:37:38Z</time>
      </trkpt>
      <trkpt lat="47.29245" lon="-1.61449">
        <ele>99</ele>
        <time>2022-01-27T13:37:39Z</time>
      </trkpt>
      <trkpt lat="47.29246" lon="-1.61451">
        <ele>100</ele>
        <time>2022-01-27T13:37:40Z</time>
      </trkpt>
      <trkpt lat="47.29247" lon="-1.61452">
        <ele>99</ele>
        <time>2022-01-27T13:37:41Z</time>
      </trkpt>
      <trkpt lat="47.29248" lon="-1.61453">
        <ele>99</ele>
        <time>2022-01-27T13:37:42Z</time>
      </trkpt>
      <trkpt lat="47.29249" lon="-1.61454">
        <ele>99</ele>
        <time>2022-01-27T13:37:43Z</time>
      </trkpt>
      <trkpt lat="47.2925" lon="-1.61456">
        <ele>98</ele>
        <time>2022-01-27T13:37:44Z</time>
      </trkpt>
      <trkpt lat="47.29251" lon="-1.61458">
        <ele>98</ele>
        <time>2022-01-27T13:37:45Z</time>
      </trkpt>
      <trkpt lat="47.29252" lon="-1.61459">
        <ele>98</ele>
        <time>2022-01-27T13:37:46Z</time>
      </trkpt>
      <trkpt lat="47.29253" lon="-1.6146">
        <ele>98</ele>
        <time>2022-01-27T13:37:47Z</time>
      </trkpt>
      <trkpt lat="47.29254" lon="-1.61461">
        <ele>98</ele>
        <time>2022-01-27T13:37:48Z</time>
      </trkpt>
      <trkpt lat="47.29255" lon="-1.61463">
        <ele>97</ele>
        <time>2022-01-27T13:37:49Z</time>
      </trkpt>
      <trkpt lat="47.29256" lon="-1.61464">
        <ele>97</ele>
        <time>2022-01-27T13:37:50Z</time>
      </trkpt>
      <trkpt lat="47.29257" lon="-1.61465">
        <ele>97</ele>
        <time>2022-01-27T13:37:51Z</time>
      </trkpt>
      <trkpt lat="47.29258" lon="-1.61466">
        <ele>97</ele>
        <time>2022-01-27T13:37:52Z</time>
      </trkpt>
      <trkpt lat="47.29259" lon="-1.61468">
        <ele>97</ele>
        <time>2022-01-27T13:37:53Z</time>
      </trkpt>
      <trkpt lat="47.2926" lon="-1.61469">
        <ele>97</ele>
        <time>2022-01-27T13:37:54Z</time>
      </trkpt>
      <trkpt lat="47.29261" lon="-1.6147">
        <ele>97</ele>
        <time>2022-01-27T13:37:55Z</time>
      </trkpt>
      <trkpt lat="47.29262" lon="-1.61472">
        <ele>96</ele>
        <time>2022-01-27T13:37:56Z</time>
      </trkpt>
      <trkpt lat="47.29263" lon="-1.61474">
        <ele>97</ele>
        <time>2022-01-27T13:37:57Z</time>
      </trkpt>
      <trkpt lat="47.29264" lon="-1.61475">
        <ele>97</ele>
        <time>2022-01-27T13:37:58Z</time>
      </trkpt>
      <trkpt lat="47.29265" lon="-1.61477">
        <ele>97</ele>
        <time>2022-01-27T13:37:59Z</time>
      </trkpt>
      <trkpt lat="47.29266" lon="-1.61479">
        <ele>97</ele>
        <time>2022-01-27T13:38:00Z</time>
      </trkpt>
      <trkpt lat="47.29266" lon="-1.6148">
        <ele>96</ele>
        <time>2022-01-27T13:38:01Z</time>
      </trkpt>
      <trkpt lat="47.29267" lon="-1.61482">
        <ele>96</ele>
        <time>2022-01-27T13:38:02Z</time>
      </trkpt>
      <trkpt lat="47.29268" lon="-1.61485">
        <ele>97</ele>
        <time>2022-01-27T13:38:03Z</time>
      </trkpt>
      <trkpt lat="47.29269" lon="-1.61487">
        <ele>97</ele>
        <time>2022-01-27T13:38:04Z</time>
      </trkpt>
      <trkpt lat="47.29269" lon="-1.61489">
        <ele>97</ele>
        <time>2022-01-27T13:38:05Z</time>
      </trkpt>
      <trkpt lat="47.29269" lon="-1.6149">
        <ele>97</ele>
        <time>2022-01-27T13:38:06Z</time>
      </trkpt>
      <trkpt lat="47.29269" lon="-1.61493">
        <ele>97</ele>
        <time>2022-01-27T13:38:07Z</time>
      </trkpt>
      <trkpt lat="47.29269" lon="-1.61495">
        <ele>97</ele>
        <time>2022-01-27T13:38:08Z</time>
      </trkpt>
      <trkpt lat="47.29269" lon="-1.61496">
        <ele>98</ele>
        <time>2022-01-27T13:38:09Z</time>
      </trkpt>
      <trkpt lat="47.29268" lon="-1.61498">
        <ele>98</ele>
        <time>2022-01-27T13:38:10Z</time>
      </trkpt>
      <trkpt lat="47.29268" lon="-1.61499">
        <ele>98</ele>
        <time>2022-01-27T13:38:11Z</time>
      </trkpt>
      <trkpt lat="47.29268" lon="-1.61501">
        <ele>98</ele>
        <time>2022-01-27T13:38:12Z</time>
      </trkpt>
      <trkpt lat="47.29266" lon="-1.61502">
        <ele>98</ele>
        <time>2022-01-27T13:38:13Z</time>
      </trkpt>
      <trkpt lat="47.29265" lon="-1.61503">
        <ele>98</ele>
        <time>2022-01-27T13:38:14Z</time>
      </trkpt>
      <trkpt lat="47.29264" lon="-1.61504">
        <ele>99</ele>
        <time>2022-01-27T13:38:15Z</time>
      </trkpt>
      <trkpt lat="47.29263" lon="-1.61505">
        <ele>99</ele>
        <time>2022-01-27T13:38:16Z</time>
      </trkpt>
      <trkpt lat="47.29263" lon="-1.61507">
        <ele>99</ele>
        <time>2022-01-27T13:38:17Z</time>
      </trkpt>
      <trkpt lat="47.29262" lon="-1.61509">
        <ele>99</ele>
        <time>2022-01-27T13:38:18Z</time>
      </trkpt>
      <trkpt lat="47.29261" lon="-1.6151">
        <ele>99</ele>
        <time>2022-01-27T13:38:19Z</time>
      </trkpt>
      <trkpt lat="47.2926" lon="-1.61512">
        <ele>99</ele>
        <time>2022-01-27T13:38:20Z</time>
      </trkpt>
      <trkpt lat="47.29259" lon="-1.61513">
        <ele>99</ele>
        <time>2022-01-27T13:38:21Z</time>
      </trkpt>
      <trkpt lat="47.29258" lon="-1.61515">
        <ele>100</ele>
        <time>2022-01-27T13:38:22Z</time>
      </trkpt>
      <trkpt lat="47.29257" lon="-1.61517">
        <ele>101</ele>
        <time>2022-01-27T13:38:23Z</time>
      </trkpt>
      <trkpt lat="47.29256" lon="-1.61518">
        <ele>101</ele>
        <time>2022-01-27T13:38:24Z</time>
      </trkpt>
      <trkpt lat="47.29255" lon="-1.6152">
        <ele>101</ele>
        <time>2022-01-27T13:38:25Z</time>
      </trkpt>
      <trkpt lat="47.29254" lon="-1.61521">
        <ele>101</ele>
        <time>2022-01-27T13:38:26Z</time>
      </trkpt>
      <trkpt lat="47.29253" lon="-1.61523">
        <ele>101</ele>
        <time>2022-01-27T13:38:27Z</time>
      </trkpt>
      <trkpt lat="47.29252" lon="-1.61524">
        <ele>101</ele>
        <time>2022-01-27T13:38:28Z</time>
      </trkpt>
      <trkpt lat="47.29251" lon="-1.61525">
        <ele>100</ele>
        <time>2022-01-27T13:38:29Z</time>
      </trkpt>
      <trkpt lat="47.2925" lon="-1.61527">
        <ele>101</ele>
        <time>2022-01-27T13:38:30Z</time>
      </trkpt>
      <trkpt lat="47.29249" lon="-1.61529">
        <ele>101</ele>
        <time>2022-01-27T13:38:31Z</time>
      </trkpt>
      <trkpt lat="47.29248" lon="-1.6153">
        <ele>101</ele>
        <time>2022-01-27T13:38:32Z</time>
      </trkpt>
      <trkpt lat="47.29247" lon="-1.61532">
        <ele>101</ele>
        <time>2022-01-27T13:38:33Z</time>
      </trkpt>
      <trkpt lat="47.29247" lon="-1.61533">
        <ele>101</ele>
        <time>2022-01-27T13:38:34Z</time>
      </trkpt>
      <trkpt lat="47.29245" lon="-1.61535">
        <ele>101</ele>
        <time>2022-01-27T13:38:35Z</time>
      </trkpt>
      <trkpt lat="47.29245" lon="-1.61536">
        <ele>101</ele>
        <time>2022-01-27T13:38:36Z</time>
      </trkpt>
      <trkpt lat="47.29244" lon="-1.61537">
        <ele>101</ele>
        <time>2022-01-27T13:38:37Z</time>
      </trkpt>
      <trkpt lat="47.29242" lon="-1.61538">
        <ele>101</ele>
        <time>2022-01-27T13:38:38Z</time>
      </trkpt>
      <trkpt lat="47.29241" lon="-1.61539">
        <ele>101</ele>
        <time>2022-01-27T13:38:39Z</time>
      </trkpt>
      <trkpt lat="47.2924" lon="-1.6154">
        <ele>102</ele>
        <time>2022-01-27T13:38:40Z</time>
      </trkpt>
      <trkpt lat="47.29239" lon="-1.61541">
        <ele>101</ele>
        <time>2022-01-27T13:38:41Z</time>
      </trkpt>
      <trkpt lat="47.29239" lon="-1.61542">
        <ele>102</ele>
        <time>2022-01-27T13:38:42Z</time>
      </trkpt>
      <trkpt lat="47.29237" lon="-1.61543">
        <ele>102</ele>
        <time>2022-01-27T13:38:43Z</time>
      </trkpt>
      <trkpt lat="47.29237" lon="-1.61544">
        <ele>102</ele>
        <time>2022-01-27T13:38:44Z</time>
      </trkpt>
      <trkpt lat="47.29236" lon="-1.61545">
        <ele>102</ele>
        <time>2022-01-27T13:38:45Z</time>
      </trkpt>
      <trkpt lat="47.29235" lon="-1.61546">
        <ele>102</ele>
        <time>2022-01-27T13:38:46Z</time>
      </trkpt>
      <trkpt lat="47.29234" lon="-1.61548">
        <ele>102</ele>
        <time>2022-01-27T13:38:47Z</time>
      </trkpt>
      <trkpt lat="47.29232" lon="-1.61549">
        <ele>102</ele>
        <time>2022-01-27T13:38:48Z</time>
      </trkpt>
      <trkpt lat="47.29232" lon="-1.61551">
        <ele>102</ele>
        <time>2022-01-27T13:38:49Z</time>
      </trkpt>
      <trkpt lat="47.29231" lon="-1.61552">
        <ele>102</ele>
        <time>2022-01-27T13:38:50Z</time>
      </trkpt>
      <trkpt lat="47.29231" lon="-1.61553">
        <ele>102</ele>
        <time>2022-01-27T13:38:51Z</time>
      </trkpt>
      <trkpt lat="47.29229" lon="-1.61554">
        <ele>102</ele>
        <time>2022-01-27T13:38:52Z</time>
      </trkpt>
      <trkpt lat="47.29229" lon="-1.61555">
        <ele>101</ele>
        <time>2022-01-27T13:38:53Z</time>
      </trkpt>
      <trkpt lat="47.29227" lon="-1.61557">
        <ele>101</ele>
        <time>2022-01-27T13:38:54Z</time>
      </trkpt>
      <trkpt lat="47.29226" lon="-1.61559">
        <ele>100</ele>
        <time>2022-01-27T13:38:55Z</time>
      </trkpt>
      <trkpt lat="47.29226" lon="-1.61561">
        <ele>100</ele>
        <time>2022-01-27T13:38:56Z</time>
      </trkpt>
      <trkpt lat="47.29224" lon="-1.61563">
        <ele>101</ele>
        <time>2022-01-27T13:38:57Z</time>
      </trkpt>
      <trkpt lat="47.29223" lon="-1.61565">
        <ele>101</ele>
        <time>2022-01-27T13:38:58Z</time>
      </trkpt>
      <trkpt lat="47.29222" lon="-1.61567">
        <ele>101</ele>
        <time>2022-01-27T13:38:59Z</time>
      </trkpt>
      <trkpt lat="47.29221" lon="-1.61569">
        <ele>101</ele>
        <time>2022-01-27T13:39:00Z</time>
      </trkpt>
      <trkpt lat="47.2922" lon="-1.61571">
        <ele>101</ele>
        <time>2022-01-27T13:39:01Z</time>
      </trkpt>
      <trkpt lat="47.2922" lon="-1.61572">
        <ele>101</ele>
        <time>2022-01-27T13:39:02Z</time>
      </trkpt>
      <trkpt lat="47.29219" lon="-1.61574">
        <ele>101</ele>
        <time>2022-01-27T13:39:03Z</time>
      </trkpt>
      <trkpt lat="47.29218" lon="-1.61576">
        <ele>101</ele>
        <time>2022-01-27T13:39:04Z</time>
      </trkpt>
      <trkpt lat="47.29218" lon="-1.61578">
        <ele>101</ele>
        <time>2022-01-27T13:39:05Z</time>
      </trkpt>
      <trkpt lat="47.29217" lon="-1.61579">
        <ele>101</ele>
        <time>2022-01-27T13:39:06Z</time>
      </trkpt>
      <trkpt lat="47.29216" lon="-1.61581">
        <ele>101</ele>
        <time>2022-01-27T13:39:07Z</time>
      </trkpt>
      <trkpt lat="47.29215" lon="-1.61582">
        <ele>101</ele>
        <time>2022-01-27T13:39:08Z</time>
      </trkpt>
      <trkpt lat="47.29213" lon="-1.61584">
        <ele>101</ele>
        <time>2022-01-27T13:39:09Z</time>
      </trkpt>
      <trkpt lat="47.29212" lon="-1.61586">
        <ele>100</ele>
        <time>2022-01-27T13:39:10Z</time>
      </trkpt>
      <trkpt lat="47.29211" lon="-1.61587">
        <ele>100</ele>
        <time>2022-01-27T13:39:11Z</time>
      </trkpt>
      <trkpt lat="47.2921" lon="-1.61589">
        <ele>101</ele>
        <time>2022-01-27T13:39:12Z</time>
      </trkpt>
      <trkpt lat="47.29209" lon="-1.6159">
        <ele>100</ele>
        <time>2022-01-27T13:39:13Z</time>
      </trkpt>
      <trkpt lat="47.29208" lon="-1.61592">
        <ele>100</ele>
        <time>2022-01-27T13:39:14Z</time>
      </trkpt>
      <trkpt lat="47.29207" lon="-1.61593">
        <ele>101</ele>
        <time>2022-01-27T13:39:15Z</time>
      </trkpt>
      <trkpt lat="47.29205" lon="-1.61594">
        <ele>101</ele>
        <time>2022-01-27T13:39:16Z</time>
      </trkpt>
      <trkpt lat="47.29205" lon="-1.61596">
        <ele>101</ele>
        <time>2022-01-27T13:39:17Z</time>
      </trkpt>
      <trkpt lat="47.29203" lon="-1.61597">
        <ele>101</ele>
        <time>2022-01-27T13:39:18Z</time>
      </trkpt>
      <trkpt lat="47.29202" lon="-1.61599">
        <ele>101</ele>
        <time>2022-01-27T13:39:19Z</time>
      </trkpt>
      <trkpt lat="47.29201" lon="-1.616">
        <ele>101</ele>
        <time>2022-01-27T13:39:20Z</time>
      </trkpt>
      <trkpt lat="47.292" lon="-1.61601">
        <ele>100</ele>
        <time>2022-01-27T13:39:21Z</time>
      </trkpt>
      <trkpt lat="47.29199" lon="-1.61603">
        <ele>101</ele>
        <time>2022-01-27T13:39:22Z</time>
      </trkpt>
      <trkpt lat="47.29198" lon="-1.61605">
        <ele>101</ele>
        <time>2022-01-27T13:39:23Z</time>
      </trkpt>
      <trkpt lat="47.29197" lon="-1.61606">
        <ele>101</ele>
        <time>2022-01-27T13:39:24Z</time>
      </trkpt>
      <trkpt lat="47.29196" lon="-1.61607">
        <ele>100</ele>
        <time>2022-01-27T13:39:25Z</time>
      </trkpt>
      <trkpt lat="47.29195" lon="-1.61609">
        <ele>100</ele>
        <time>2022-01-27T13:39:26Z</time>
      </trkpt>
      <trkpt lat="47.29194" lon="-1.6161">
        <ele>100</ele>
        <time>2022-01-27T13:39:27Z</time>
      </trkpt>
      <trkpt lat="47.29193" lon="-1.61612">
        <ele>100</ele>
        <time>2022-01-27T13:39:28Z</time>
      </trkpt>
      <trkpt lat="47.29192" lon="-1.61613">
        <ele>100</ele>
        <time>2022-01-27T13:39:29Z</time>
      </trkpt>
      <trkpt lat="47.29191" lon="-1.61615">
        <ele>100</ele>
        <time>2022-01-27T13:39:30Z</time>
      </trkpt>
      <trkpt lat="47.2919" lon="-1.61616">
        <ele>100</ele>
        <time>2022-01-27T13:39:31Z</time>
      </trkpt>
      <trkpt lat="47.29189" lon="-1.61617">
        <ele>100</ele>
        <time>2022-01-27T13:39:32Z</time>
      </trkpt>
      <trkpt lat="47.29188" lon="-1.61618">
        <ele>100</ele>
        <time>2022-01-27T13:39:33Z</time>
      </trkpt>
      <trkpt lat="47.29187" lon="-1.6162">
        <ele>101</ele>
        <time>2022-01-27T13:39:34Z</time>
      </trkpt>
      <trkpt lat="47.29186" lon="-1.61621">
        <ele>101</ele>
        <time>2022-01-27T13:39:35Z</time>
      </trkpt>
      <trkpt lat="47.29186" lon="-1.61623">
        <ele>101</ele>
        <time>2022-01-27T13:39:36Z</time>
      </trkpt>
      <trkpt lat="47.29184" lon="-1.61624">
        <ele>101</ele>
        <time>2022-01-27T13:39:37Z</time>
      </trkpt>
      <trkpt lat="47.29183" lon="-1.61625">
        <ele>101</ele>
        <time>2022-01-27T13:39:38Z</time>
      </trkpt>
      <trkpt lat="47.29182" lon="-1.61627">
        <ele>101</ele>
        <time>2022-01-27T13:39:39Z</time>
      </trkpt>
      <trkpt lat="47.29181" lon="-1.61628">
        <ele>101</ele>
        <time>2022-01-27T13:39:40Z</time>
      </trkpt>
      <trkpt lat="47.29179" lon="-1.6163">
        <ele>102</ele>
        <time>2022-01-27T13:39:41Z</time>
      </trkpt>
      <trkpt lat="47.29178" lon="-1.61631">
        <ele>102</ele>
        <time>2022-01-27T13:39:42Z</time>
      </trkpt>
      <trkpt lat="47.29177" lon="-1.61632">
        <ele>102</ele>
        <time>2022-01-27T13:39:43Z</time>
      </trkpt>
      <trkpt lat="47.29176" lon="-1.61634">
        <ele>102</ele>
        <time>2022-01-27T13:39:44Z</time>
      </trkpt>
      <trkpt lat="47.29175" lon="-1.61635">
        <ele>102</ele>
        <time>2022-01-27T13:39:45Z</time>
      </trkpt>
      <trkpt lat="47.29174" lon="-1.61636">
        <ele>102</ele>
        <time>2022-01-27T13:39:46Z</time>
      </trkpt>
      <trkpt lat="47.29173" lon="-1.61638">
        <ele>102</ele>
        <time>2022-01-27T13:39:47Z</time>
      </trkpt>
      <trkpt lat="47.29171" lon="-1.61639">
        <ele>102</ele>
        <time>2022-01-27T13:39:48Z</time>
      </trkpt>
      <trkpt lat="47.29171" lon="-1.6164">
        <ele>102</ele>
        <time>2022-01-27T13:39:49Z</time>
      </trkpt>
      <trkpt lat="47.2917" lon="-1.61641">
        <ele>102</ele>
        <time>2022-01-27T13:39:50Z</time>
      </trkpt>
      <trkpt lat="47.29168" lon="-1.61642">
        <ele>102</ele>
        <time>2022-01-27T13:39:51Z</time>
      </trkpt>
      <trkpt lat="47.29167" lon="-1.61643">
        <ele>102</ele>
        <time>2022-01-27T13:39:52Z</time>
      </trkpt>
      <trkpt lat="47.29166" lon="-1.61644">
        <ele>102</ele>
        <time>2022-01-27T13:39:53Z</time>
      </trkpt>
      <trkpt lat="47.29165" lon="-1.61645">
        <ele>102</ele>
        <time>2022-01-27T13:39:54Z</time>
      </trkpt>
      <trkpt lat="47.29164" lon="-1.61647">
        <ele>102</ele>
        <time>2022-01-27T13:39:55Z</time>
      </trkpt>
      <trkpt lat="47.29163" lon="-1.61648">
        <ele>103</ele>
        <time>2022-01-27T13:39:56Z</time>
      </trkpt>
      <trkpt lat="47.29162" lon="-1.61649">
        <ele>103</ele>
        <time>2022-01-27T13:39:57Z</time>
      </trkpt>
      <trkpt lat="47.29161" lon="-1.6165">
        <ele>102</ele>
        <time>2022-01-27T13:39:58Z</time>
      </trkpt>
      <trkpt lat="47.2916" lon="-1.61652">
        <ele>103</ele>
        <time>2022-01-27T13:39:59Z</time>
      </trkpt>
      <trkpt lat="47.2916" lon="-1.61653">
        <ele>103</ele>
        <time>2022-01-27T13:40:00Z</time>
      </trkpt>
      <trkpt lat="47.29159" lon="-1.61654">
        <ele>103</ele>
        <time>2022-01-27T13:40:01Z</time>
      </trkpt>
      <trkpt lat="47.29158" lon="-1.61656">
        <ele>103</ele>
        <time>2022-01-27T13:40:02Z</time>
      </trkpt>
      <trkpt lat="47.29157" lon="-1.61658">
        <ele>103</ele>
        <time>2022-01-27T13:40:03Z</time>
      </trkpt>
      <trkpt lat="47.29156" lon="-1.61659">
        <ele>103</ele>
        <time>2022-01-27T13:40:04Z</time>
      </trkpt>
      <trkpt lat="47.29155" lon="-1.61661">
        <ele>104</ele>
        <time>2022-01-27T13:40:05Z</time>
      </trkpt>
      <trkpt lat="47.29154" lon="-1.61663">
        <ele>104</ele>
        <time>2022-01-27T13:40:06Z</time>
      </trkpt>
      <trkpt lat="47.29154" lon="-1.61664">
        <ele>104</ele>
        <time>2022-01-27T13:40:07Z</time>
      </trkpt>
      <trkpt lat="47.29153" lon="-1.61666">
        <ele>104</ele>
        <time>2022-01-27T13:40:08Z</time>
      </trkpt>
      <trkpt lat="47.29152" lon="-1.61668">
        <ele>104</ele>
        <time>2022-01-27T13:40:09Z</time>
      </trkpt>
      <trkpt lat="47.29152" lon="-1.6167">
        <ele>104</ele>
        <time>2022-01-27T13:40:10Z</time>
      </trkpt>
      <trkpt lat="47.29151" lon="-1.61671">
        <ele>104</ele>
        <time>2022-01-27T13:40:11Z</time>
      </trkpt>
      <trkpt lat="47.2915" lon="-1.61673">
        <ele>105</ele>
        <time>2022-01-27T13:40:12Z</time>
      </trkpt>
      <trkpt lat="47.2915" lon="-1.61675">
        <ele>105</ele>
        <time>2022-01-27T13:40:13Z</time>
      </trkpt>
      <trkpt lat="47.2915" lon="-1.61676">
        <ele>105</ele>
        <time>2022-01-27T13:40:14Z</time>
      </trkpt>
      <trkpt lat="47.29149" lon="-1.61678">
        <ele>105</ele>
        <time>2022-01-27T13:40:15Z</time>
      </trkpt>
      <trkpt lat="47.29148" lon="-1.6168">
        <ele>106</ele>
        <time>2022-01-27T13:40:16Z</time>
      </trkpt>
      <trkpt lat="47.29148" lon="-1.61682">
        <ele>106</ele>
        <time>2022-01-27T13:40:17Z</time>
      </trkpt>
      <trkpt lat="47.29147" lon="-1.61684">
        <ele>106</ele>
        <time>2022-01-27T13:40:18Z</time>
      </trkpt>
      <trkpt lat="47.29147" lon="-1.61686">
        <ele>106</ele>
        <time>2022-01-27T13:40:19Z</time>
      </trkpt>
      <trkpt lat="47.29147" lon="-1.61688">
        <ele>106</ele>
        <time>2022-01-27T13:40:20Z</time>
      </trkpt>
      <trkpt lat="47.29146" lon="-1.6169">
        <ele>106</ele>
        <time>2022-01-27T13:40:21Z</time>
      </trkpt>
      <trkpt lat="47.29145" lon="-1.61692">
        <ele>106</ele>
        <time>2022-01-27T13:40:22Z</time>
      </trkpt>
      <trkpt lat="47.29145" lon="-1.61693">
        <ele>107</ele>
        <time>2022-01-27T13:40:23Z</time>
      </trkpt>
      <trkpt lat="47.29145" lon="-1.61695">
        <ele>107</ele>
        <time>2022-01-27T13:40:24Z</time>
      </trkpt>
      <trkpt lat="47.29144" lon="-1.61696">
        <ele>107</ele>
        <time>2022-01-27T13:40:25Z</time>
      </trkpt>
      <trkpt lat="47.29144" lon="-1.61698">
        <ele>107</ele>
        <time>2022-01-27T13:40:26Z</time>
      </trkpt>
      <trkpt lat="47.29144" lon="-1.617">
        <ele>107</ele>
        <time>2022-01-27T13:40:27Z</time>
      </trkpt>
      <trkpt lat="47.29143" lon="-1.61702">
        <ele>107</ele>
        <time>2022-01-27T13:40:28Z</time>
      </trkpt>
      <trkpt lat="47.29142" lon="-1.61704">
        <ele>107</ele>
        <time>2022-01-27T13:40:29Z</time>
      </trkpt>
      <trkpt lat="47.29142" lon="-1.61705">
        <ele>107</ele>
        <time>2022-01-27T13:40:30Z</time>
      </trkpt>
      <trkpt lat="47.29141" lon="-1.61707">
        <ele>107</ele>
        <time>2022-01-27T13:40:31Z</time>
      </trkpt>
      <trkpt lat="47.29141" lon="-1.61709">
        <ele>107</ele>
        <time>2022-01-27T13:40:32Z</time>
      </trkpt>
      <trkpt lat="47.2914" lon="-1.61711">
        <ele>107</ele>
        <time>2022-01-27T13:40:33Z</time>
      </trkpt>
      <trkpt lat="47.2914" lon="-1.61713">
        <ele>107</ele>
        <time>2022-01-27T13:40:34Z</time>
      </trkpt>
      <trkpt lat="47.29139" lon="-1.61715">
        <ele>107</ele>
        <time>2022-01-27T13:40:35Z</time>
      </trkpt>
      <trkpt lat="47.29138" lon="-1.61716">
        <ele>107</ele>
        <time>2022-01-27T13:40:36Z</time>
      </trkpt>
      <trkpt lat="47.29137" lon="-1.61718">
        <ele>107</ele>
        <time>2022-01-27T13:40:37Z</time>
      </trkpt>
      <trkpt lat="47.29136" lon="-1.6172">
        <ele>107</ele>
        <time>2022-01-27T13:40:38Z</time>
      </trkpt>
      <trkpt lat="47.29136" lon="-1.61722">
        <ele>107</ele>
        <time>2022-01-27T13:40:39Z</time>
      </trkpt>
      <trkpt lat="47.29136" lon="-1.61724">
        <ele>106</ele>
        <time>2022-01-27T13:40:40Z</time>
      </trkpt>
      <trkpt lat="47.29135" lon="-1.61725">
        <ele>106</ele>
        <time>2022-01-27T13:40:41Z</time>
      </trkpt>
      <trkpt lat="47.29135" lon="-1.61727">
        <ele>106</ele>
        <time>2022-01-27T13:40:42Z</time>
      </trkpt>
      <trkpt lat="47.29134" lon="-1.61729">
        <ele>106</ele>
        <time>2022-01-27T13:40:43Z</time>
      </trkpt>
      <trkpt lat="47.29134" lon="-1.6173">
        <ele>106</ele>
        <time>2022-01-27T13:40:44Z</time>
      </trkpt>
      <trkpt lat="47.29133" lon="-1.61732">
        <ele>106</ele>
        <time>2022-01-27T13:40:45Z</time>
      </trkpt>
      <trkpt lat="47.29133" lon="-1.61733">
        <ele>106</ele>
        <time>2022-01-27T13:40:46Z</time>
      </trkpt>
      <trkpt lat="47.29132" lon="-1.61735">
        <ele>107</ele>
        <time>2022-01-27T13:40:47Z</time>
      </trkpt>
      <trkpt lat="47.29131" lon="-1.61736">
        <ele>106</ele>
        <time>2022-01-27T13:40:48Z</time>
      </trkpt>
      <trkpt lat="47.29131" lon="-1.61738">
        <ele>106</ele>
        <time>2022-01-27T13:40:49Z</time>
      </trkpt>
      <trkpt lat="47.2913" lon="-1.6174">
        <ele>106</ele>
        <time>2022-01-27T13:40:50Z</time>
      </trkpt>
      <trkpt lat="47.29129" lon="-1.61742">
        <ele>106</ele>
        <time>2022-01-27T13:40:51Z</time>
      </trkpt>
      <trkpt lat="47.29128" lon="-1.61744">
        <ele>106</ele>
        <time>2022-01-27T13:40:52Z</time>
      </trkpt>
      <trkpt lat="47.29128" lon="-1.61745">
        <ele>106</ele>
        <time>2022-01-27T13:40:53Z</time>
      </trkpt>
      <trkpt lat="47.29127" lon="-1.61747">
        <ele>106</ele>
        <time>2022-01-27T13:40:54Z</time>
      </trkpt>
      <trkpt lat="47.29126" lon="-1.61748">
        <ele>106</ele>
        <time>2022-01-27T13:40:55Z</time>
      </trkpt>
      <trkpt lat="47.29127" lon="-1.61749">
        <ele>106</ele>
        <time>2022-01-27T13:40:56Z</time>
      </trkpt>
      <trkpt lat="47.29128" lon="-1.6175">
        <ele>106</ele>
        <time>2022-01-27T13:40:57Z</time>
      </trkpt>
      <trkpt lat="47.29128" lon="-1.61751">
        <ele>106</ele>
        <time>2022-01-27T13:40:58Z</time>
      </trkpt>
      <trkpt lat="47.29128" lon="-1.61752">
        <ele>106</ele>
        <time>2022-01-27T13:40:59Z</time>
      </trkpt>
      <trkpt lat="47.29128" lon="-1.61753">
        <ele>106</ele>
        <time>2022-01-27T13:41:00Z</time>
      </trkpt>
      <trkpt lat="47.29128" lon="-1.61754">
        <ele>107</ele>
        <time>2022-01-27T13:41:01Z</time>
      </trkpt>
      <trkpt lat="47.29128" lon="-1.61754">
        <ele>107</ele>
        <time>2022-01-27T13:41:02Z</time>
      </trkpt>
      <trkpt lat="47.29128" lon="-1.61754">
        <ele>107</ele>
        <time>2022-01-27T13:41:02Z</time>
      </trkpt>
      <trkpt lat="47.29128" lon="-1.61754">
        <ele>107</ele>
        <time>2022-01-27T13:41:02Z</time>
      </trkpt>
      <trkpt lat="47.29127" lon="-1.61756">
        <ele>108</ele>
        <time>2022-01-27T13:41:08Z</time>
      </trkpt>
      <trkpt lat="47.29128" lon="-1.61756">
        <ele>107</ele>
        <time>2022-01-27T13:41:09Z</time>
      </trkpt>
      <trkpt lat="47.29128" lon="-1.61756">
        <ele>107</ele>
        <time>2022-01-27T13:41:10Z</time>
      </trkpt>
      <trkpt lat="47.29128" lon="-1.61756">
        <ele>107</ele>
        <time>2022-01-27T13:41:11Z</time>
      </trkpt>
      <trkpt lat="47.29129" lon="-1.61758">
        <ele>108</ele>
        <time>2022-01-27T13:41:12Z</time>
      </trkpt>
      <trkpt lat="47.29129" lon="-1.61759">
        <ele>107</ele>
        <time>2022-01-27T13:41:13Z</time>
      </trkpt>
      <trkpt lat="47.29129" lon="-1.61759">
        <ele>107</ele>
        <time>2022-01-27T13:41:14Z</time>
      </trkpt>
      <trkpt lat="47.2913" lon="-1.6176">
        <ele>107</ele>
        <time>2022-01-27T13:41:15Z</time>
      </trkpt>
      <trkpt lat="47.29131" lon="-1.6176">
        <ele>107</ele>
        <time>2022-01-27T13:41:16Z</time>
      </trkpt>
      <trkpt lat="47.29131" lon="-1.6176">
        <ele>107</ele>
        <time>2022-01-27T13:41:17Z</time>
      </trkpt>
      <trkpt lat="47.29131" lon="-1.61759">
        <ele>107</ele>
        <time>2022-01-27T13:41:18Z</time>
      </trkpt>
      <trkpt lat="47.29131" lon="-1.61759">
        <ele>107</ele>
        <time>2022-01-27T13:41:19Z</time>
      </trkpt>
      <trkpt lat="47.29131" lon="-1.61759">
        <ele>107</ele>
        <time>2022-01-27T13:41:20Z</time>
      </trkpt>
      <trkpt lat="47.29133" lon="-1.61758">
        <ele>107</ele>
        <time>2022-01-27T13:41:21Z</time>
      </trkpt>
      <trkpt lat="47.29133" lon="-1.61758">
        <ele>108</ele>
        <time>2022-01-27T13:41:22Z</time>
      </trkpt>
      <trkpt lat="47.29133" lon="-1.61758">
        <ele>108</ele>
        <time>2022-01-27T13:41:23Z</time>
      </trkpt>
      <trkpt lat="47.29133" lon="-1.61758">
        <ele>109</ele>
        <time>2022-01-27T13:41:24Z</time>
      </trkpt>
      <trkpt lat="47.29133" lon="-1.61758">
        <ele>109</ele>
        <time>2022-01-27T13:41:25Z</time>
      </trkpt>
      <trkpt lat="47.29133" lon="-1.61758">
        <ele>109</ele>
        <time>2022-01-27T13:41:26Z</time>
      </trkpt>
      <trkpt lat="47.29133" lon="-1.61758">
        <ele>109</ele>
        <time>2022-01-27T13:41:26Z</time>
      </trkpt>
      <trkpt lat="47.29133" lon="-1.61758">
        <ele>109</ele>
        <time>2022-01-27T13:41:26Z</time>
      </trkpt>
      <trkpt lat="47.29131" lon="-1.61762">
        <ele>109</ele>
        <time>2022-01-27T13:41:58Z</time>
      </trkpt>
      <trkpt lat="47.2913" lon="-1.61762">
        <ele>109</ele>
        <time>2022-01-27T13:41:59Z</time>
      </trkpt>
      <trkpt lat="47.29129" lon="-1.6176">
        <ele>109</ele>
        <time>2022-01-27T13:42:00Z</time>
      </trkpt>
      <trkpt lat="47.29129" lon="-1.61759">
        <ele>109</ele>
        <time>2022-01-27T13:42:01Z</time>
      </trkpt>
      <trkpt lat="47.29128" lon="-1.61759">
        <ele>109</ele>
        <time>2022-01-27T13:42:02Z</time>
      </trkpt>
      <trkpt lat="47.29127" lon="-1.61759">
        <ele>108</ele>
        <time>2022-01-27T13:42:03Z</time>
      </trkpt>
      <trkpt lat="47.29126" lon="-1.61759">
        <ele>108</ele>
        <time>2022-01-27T13:42:04Z</time>
      </trkpt>
      <trkpt lat="47.29125" lon="-1.6176">
        <ele>108</ele>
        <time>2022-01-27T13:42:05Z</time>
      </trkpt>
      <trkpt lat="47.29124" lon="-1.6176">
        <ele>109</ele>
        <time>2022-01-27T13:42:06Z</time>
      </trkpt>
      <trkpt lat="47.29123" lon="-1.61761">
        <ele>108</ele>
        <time>2022-01-27T13:42:07Z</time>
      </trkpt>
      <trkpt lat="47.29122" lon="-1.61761">
        <ele>108</ele>
        <time>2022-01-27T13:42:08Z</time>
      </trkpt>
      <trkpt lat="47.29122" lon="-1.61762">
        <ele>108</ele>
        <time>2022-01-27T13:42:09Z</time>
      </trkpt>
      <trkpt lat="47.29121" lon="-1.61763">
        <ele>108</ele>
        <time>2022-01-27T13:42:10Z</time>
      </trkpt>
      <trkpt lat="47.2912" lon="-1.61764">
        <ele>108</ele>
        <time>2022-01-27T13:42:11Z</time>
      </trkpt>
      <trkpt lat="47.29119" lon="-1.61765">
        <ele>107</ele>
        <time>2022-01-27T13:42:12Z</time>
      </trkpt>
      <trkpt lat="47.29118" lon="-1.61766">
        <ele>108</ele>
        <time>2022-01-27T13:42:13Z</time>
      </trkpt>
      <trkpt lat="47.29118" lon="-1.61767">
        <ele>108</ele>
        <time>2022-01-27T13:42:14Z</time>
      </trkpt>
      <trkpt lat="47.29116" lon="-1.61768">
        <ele>108</ele>
        <time>2022-01-27T13:42:15Z</time>
      </trkpt>
      <trkpt lat="47.29116" lon="-1.61768">
        <ele>108</ele>
        <time>2022-01-27T13:42:16Z</time>
      </trkpt>
      <trkpt lat="47.29115" lon="-1.61769">
        <ele>108</ele>
        <time>2022-01-27T13:42:17Z</time>
      </trkpt>
      <trkpt lat="47.29115" lon="-1.6177">
        <ele>108</ele>
        <time>2022-01-27T13:42:18Z</time>
      </trkpt>
      <trkpt lat="47.29115" lon="-1.6177">
        <ele>107</ele>
        <time>2022-01-27T13:42:19Z</time>
      </trkpt>
      <trkpt lat="47.29113" lon="-1.61772">
        <ele>108</ele>
        <time>2022-01-27T13:42:20Z</time>
      </trkpt>
      <trkpt lat="47.29113" lon="-1.61773">
        <ele>108</ele>
        <time>2022-01-27T13:42:21Z</time>
      </trkpt>
      <trkpt lat="47.29112" lon="-1.61774">
        <ele>108</ele>
        <time>2022-01-27T13:42:22Z</time>
      </trkpt>
      <trkpt lat="47.29111" lon="-1.61774">
        <ele>107</ele>
        <time>2022-01-27T13:42:23Z</time>
      </trkpt>
      <trkpt lat="47.2911" lon="-1.61776">
        <ele>107</ele>
        <time>2022-01-27T13:42:24Z</time>
      </trkpt>
      <trkpt lat="47.29109" lon="-1.61778">
        <ele>107</ele>
        <time>2022-01-27T13:42:25Z</time>
      </trkpt>
      <trkpt lat="47.29108" lon="-1.6178">
        <ele>107</ele>
        <time>2022-01-27T13:42:26Z</time>
      </trkpt>
      <trkpt lat="47.29107" lon="-1.61781">
        <ele>106</ele>
        <time>2022-01-27T13:42:27Z</time>
      </trkpt>
      <trkpt lat="47.29107" lon="-1.61783">
        <ele>106</ele>
        <time>2022-01-27T13:42:28Z</time>
      </trkpt>
      <trkpt lat="47.29106" lon="-1.61784">
        <ele>106</ele>
        <time>2022-01-27T13:42:29Z</time>
      </trkpt>
      <trkpt lat="47.29105" lon="-1.61785">
        <ele>106</ele>
        <time>2022-01-27T13:42:30Z</time>
      </trkpt>
      <trkpt lat="47.29105" lon="-1.61787">
        <ele>106</ele>
        <time>2022-01-27T13:42:31Z</time>
      </trkpt>
      <trkpt lat="47.29104" lon="-1.61788">
        <ele>105</ele>
        <time>2022-01-27T13:42:32Z</time>
      </trkpt>
      <trkpt lat="47.29104" lon="-1.6179">
        <ele>105</ele>
        <time>2022-01-27T13:42:33Z</time>
      </trkpt>
      <trkpt lat="47.29104" lon="-1.61792">
        <ele>106</ele>
        <time>2022-01-27T13:42:34Z</time>
      </trkpt>
      <trkpt lat="47.29104" lon="-1.61793">
        <ele>106</ele>
        <time>2022-01-27T13:42:35Z</time>
      </trkpt>
      <trkpt lat="47.29104" lon="-1.61795">
        <ele>106</ele>
        <time>2022-01-27T13:42:36Z</time>
      </trkpt>
      <trkpt lat="47.29104" lon="-1.61797">
        <ele>106</ele>
        <time>2022-01-27T13:42:37Z</time>
      </trkpt>
      <trkpt lat="47.29104" lon="-1.61799">
        <ele>106</ele>
        <time>2022-01-27T13:42:38Z</time>
      </trkpt>
      <trkpt lat="47.29103" lon="-1.61801">
        <ele>106</ele>
        <time>2022-01-27T13:42:39Z</time>
      </trkpt>
      <trkpt lat="47.29102" lon="-1.61803">
        <ele>106</ele>
        <time>2022-01-27T13:42:40Z</time>
      </trkpt>
      <trkpt lat="47.29101" lon="-1.61805">
        <ele>106</ele>
        <time>2022-01-27T13:42:41Z</time>
      </trkpt>
      <trkpt lat="47.29101" lon="-1.61807">
        <ele>106</ele>
        <time>2022-01-27T13:42:42Z</time>
      </trkpt>
      <trkpt lat="47.291" lon="-1.61808">
        <ele>106</ele>
        <time>2022-01-27T13:42:43Z</time>
      </trkpt>
      <trkpt lat="47.291" lon="-1.61809">
        <ele>106</ele>
        <time>2022-01-27T13:42:44Z</time>
      </trkpt>
      <trkpt lat="47.291" lon="-1.6181">
        <ele>106</ele>
        <time>2022-01-27T13:42:45Z</time>
      </trkpt>
      <trkpt lat="47.29099" lon="-1.61812">
        <ele>106</ele>
        <time>2022-01-27T13:42:46Z</time>
      </trkpt>
      <trkpt lat="47.29099" lon="-1.61813">
        <ele>106</ele>
        <time>2022-01-27T13:42:47Z</time>
      </trkpt>
      <trkpt lat="47.29098" lon="-1.61814">
        <ele>106</ele>
        <time>2022-01-27T13:42:48Z</time>
      </trkpt>
      <trkpt lat="47.29098" lon="-1.61816">
        <ele>105</ele>
        <time>2022-01-27T13:42:49Z</time>
      </trkpt>
      <trkpt lat="47.29098" lon="-1.61817">
        <ele>106</ele>
        <time>2022-01-27T13:42:50Z</time>
      </trkpt>
      <trkpt lat="47.29098" lon="-1.61818">
        <ele>106</ele>
        <time>2022-01-27T13:42:51Z</time>
      </trkpt>
      <trkpt lat="47.29097" lon="-1.61819">
        <ele>105</ele>
        <time>2022-01-27T13:42:52Z</time>
      </trkpt>
      <trkpt lat="47.29097" lon="-1.61821">
        <ele>105</ele>
        <time>2022-01-27T13:42:53Z</time>
      </trkpt>
      <trkpt lat="47.29096" lon="-1.61822">
        <ele>105</ele>
        <time>2022-01-27T13:42:54Z</time>
      </trkpt>
      <trkpt lat="47.29097" lon="-1.61824">
        <ele>105</ele>
        <time>2022-01-27T13:42:55Z</time>
      </trkpt>
      <trkpt lat="47.29096" lon="-1.61826">
        <ele>106</ele>
        <time>2022-01-27T13:42:56Z</time>
      </trkpt>
      <trkpt lat="47.29096" lon="-1.61826">
        <ele>106</ele>
        <time>2022-01-27T13:42:57Z</time>
      </trkpt>
      <trkpt lat="47.29096" lon="-1.61826">
        <ele>106</ele>
        <time>2022-01-27T13:42:58Z</time>
      </trkpt>
      <trkpt lat="47.29096" lon="-1.61829">
        <ele>106</ele>
        <time>2022-01-27T13:42:59Z</time>
      </trkpt>
      <trkpt lat="47.29096" lon="-1.61831">
        <ele>106</ele>
        <time>2022-01-27T13:43:00Z</time>
      </trkpt>
      <trkpt lat="47.29095" lon="-1.61832">
        <ele>106</ele>
        <time>2022-01-27T13:43:01Z</time>
      </trkpt>
      <trkpt lat="47.29095" lon="-1.61833">
        <ele>106</ele>
        <time>2022-01-27T13:43:02Z</time>
      </trkpt>
      <trkpt lat="47.29095" lon="-1.61835">
        <ele>106</ele>
        <time>2022-01-27T13:43:03Z</time>
      </trkpt>
      <trkpt lat="47.29095" lon="-1.61837">
        <ele>105</ele>
        <time>2022-01-27T13:43:04Z</time>
      </trkpt>
      <trkpt lat="47.29094" lon="-1.61838">
        <ele>105</ele>
        <time>2022-01-27T13:43:05Z</time>
      </trkpt>
      <trkpt lat="47.29094" lon="-1.6184">
        <ele>105</ele>
        <time>2022-01-27T13:43:06Z</time>
      </trkpt>
      <trkpt lat="47.29093" lon="-1.61842">
        <ele>105</ele>
        <time>2022-01-27T13:43:07Z</time>
      </trkpt>
      <trkpt lat="47.29093" lon="-1.61845">
        <ele>105</ele>
        <time>2022-01-27T13:43:08Z</time>
      </trkpt>
      <trkpt lat="47.29092" lon="-1.61846">
        <ele>104</ele>
        <time>2022-01-27T13:43:09Z</time>
      </trkpt>
      <trkpt lat="47.29092" lon="-1.61848">
        <ele>105</ele>
        <time>2022-01-27T13:43:10Z</time>
      </trkpt>
      <trkpt lat="47.29091" lon="-1.6185">
        <ele>104</ele>
        <time>2022-01-27T13:43:11Z</time>
      </trkpt>
      <trkpt lat="47.29091" lon="-1.61851">
        <ele>104</ele>
        <time>2022-01-27T13:43:12Z</time>
      </trkpt>
      <trkpt lat="47.2909" lon="-1.61853">
        <ele>105</ele>
        <time>2022-01-27T13:43:13Z</time>
      </trkpt>
      <trkpt lat="47.29089" lon="-1.61854">
        <ele>104</ele>
        <time>2022-01-27T13:43:14Z</time>
      </trkpt>
      <trkpt lat="47.29089" lon="-1.61855">
        <ele>104</ele>
        <time>2022-01-27T13:43:15Z</time>
      </trkpt>
      <trkpt lat="47.29089" lon="-1.61857">
        <ele>104</ele>
        <time>2022-01-27T13:43:16Z</time>
      </trkpt>
      <trkpt lat="47.29089" lon="-1.61859">
        <ele>104</ele>
        <time>2022-01-27T13:43:17Z</time>
      </trkpt>
      <trkpt lat="47.29089" lon="-1.6186">
        <ele>103</ele>
        <time>2022-01-27T13:43:18Z</time>
      </trkpt>
      <trkpt lat="47.29089" lon="-1.61862">
        <ele>103</ele>
        <time>2022-01-27T13:43:19Z</time>
      </trkpt>
      <trkpt lat="47.29089" lon="-1.61863">
        <ele>103</ele>
        <time>2022-01-27T13:43:20Z</time>
      </trkpt>
      <trkpt lat="47.29088" lon="-1.61863">
        <ele>104</ele>
        <time>2022-01-27T13:43:21Z</time>
      </trkpt>
      <trkpt lat="47.29088" lon="-1.61864">
        <ele>104</ele>
        <time>2022-01-27T13:43:22Z</time>
      </trkpt>
      <trkpt lat="47.29087" lon="-1.61865">
        <ele>104</ele>
        <time>2022-01-27T13:43:23Z</time>
      </trkpt>
      <trkpt lat="47.29087" lon="-1.61867">
        <ele>104</ele>
        <time>2022-01-27T13:43:24Z</time>
      </trkpt>
      <trkpt lat="47.29087" lon="-1.61867">
        <ele>104</ele>
        <time>2022-01-27T13:43:25Z</time>
      </trkpt>
      <trkpt lat="47.29087" lon="-1.6187">
        <ele>104</ele>
        <time>2022-01-27T13:43:26Z</time>
      </trkpt>
      <trkpt lat="47.29086" lon="-1.61871">
        <ele>103</ele>
        <time>2022-01-27T13:43:27Z</time>
      </trkpt>
      <trkpt lat="47.29086" lon="-1.61873">
        <ele>103</ele>
        <time>2022-01-27T13:43:28Z</time>
      </trkpt>
      <trkpt lat="47.29085" lon="-1.61875">
        <ele>103</ele>
        <time>2022-01-27T13:43:29Z</time>
      </trkpt>
      <trkpt lat="47.29085" lon="-1.61876">
        <ele>102</ele>
        <time>2022-01-27T13:43:30Z</time>
      </trkpt>
      <trkpt lat="47.29085" lon="-1.61878">
        <ele>102</ele>
        <time>2022-01-27T13:43:31Z</time>
      </trkpt>
      <trkpt lat="47.29084" lon="-1.6188">
        <ele>102</ele>
        <time>2022-01-27T13:43:32Z</time>
      </trkpt>
      <trkpt lat="47.29084" lon="-1.61881">
        <ele>102</ele>
        <time>2022-01-27T13:43:33Z</time>
      </trkpt>
      <trkpt lat="47.29084" lon="-1.61883">
        <ele>102</ele>
        <time>2022-01-27T13:43:34Z</time>
      </trkpt>
      <trkpt lat="47.29083" lon="-1.61884">
        <ele>102</ele>
        <time>2022-01-27T13:43:35Z</time>
      </trkpt>
      <trkpt lat="47.29084" lon="-1.61886">
        <ele>102</ele>
        <time>2022-01-27T13:43:36Z</time>
      </trkpt>
      <trkpt lat="47.29083" lon="-1.61887">
        <ele>102</ele>
        <time>2022-01-27T13:43:37Z</time>
      </trkpt>
      <trkpt lat="47.29083" lon="-1.61889">
        <ele>101</ele>
        <time>2022-01-27T13:43:38Z</time>
      </trkpt>
      <trkpt lat="47.29082" lon="-1.6189">
        <ele>101</ele>
        <time>2022-01-27T13:43:39Z</time>
      </trkpt>
      <trkpt lat="47.29081" lon="-1.61892">
        <ele>100</ele>
        <time>2022-01-27T13:43:40Z</time>
      </trkpt>
      <trkpt lat="47.2908" lon="-1.61894">
        <ele>100</ele>
        <time>2022-01-27T13:43:41Z</time>
      </trkpt>
      <trkpt lat="47.29079" lon="-1.61896">
        <ele>100</ele>
        <time>2022-01-27T13:43:42Z</time>
      </trkpt>
      <trkpt lat="47.29079" lon="-1.61898">
        <ele>100</ele>
        <time>2022-01-27T13:43:43Z</time>
      </trkpt>
      <trkpt lat="47.29078" lon="-1.61901">
        <ele>99</ele>
        <time>2022-01-27T13:43:44Z</time>
      </trkpt>
      <trkpt lat="47.29078" lon="-1.61903">
        <ele>99</ele>
        <time>2022-01-27T13:43:45Z</time>
      </trkpt>
      <trkpt lat="47.29078" lon="-1.61905">
        <ele>99</ele>
        <time>2022-01-27T13:43:46Z</time>
      </trkpt>
      <trkpt lat="47.29078" lon="-1.61907">
        <ele>99</ele>
        <time>2022-01-27T13:43:47Z</time>
      </trkpt>
      <trkpt lat="47.29078" lon="-1.61909">
        <ele>100</ele>
        <time>2022-01-27T13:43:48Z</time>
      </trkpt>
      <trkpt lat="47.29077" lon="-1.61911">
        <ele>100</ele>
        <time>2022-01-27T13:43:49Z</time>
      </trkpt>
      <trkpt lat="47.29077" lon="-1.61912">
        <ele>100</ele>
        <time>2022-01-27T13:43:50Z</time>
      </trkpt>
      <trkpt lat="47.29077" lon="-1.61914">
        <ele>100</ele>
        <time>2022-01-27T13:43:51Z</time>
      </trkpt>
      <trkpt lat="47.29076" lon="-1.61915">
        <ele>100</ele>
        <time>2022-01-27T13:43:52Z</time>
      </trkpt>
      <trkpt lat="47.29076" lon="-1.61917">
        <ele>99</ele>
        <time>2022-01-27T13:43:53Z</time>
      </trkpt>
      <trkpt lat="47.29075" lon="-1.61919">
        <ele>99</ele>
        <time>2022-01-27T13:43:54Z</time>
      </trkpt>
      <trkpt lat="47.29075" lon="-1.61921">
        <ele>99</ele>
        <time>2022-01-27T13:43:55Z</time>
      </trkpt>
      <trkpt lat="47.29074" lon="-1.61922">
        <ele>99</ele>
        <time>2022-01-27T13:43:56Z</time>
      </trkpt>
      <trkpt lat="47.29073" lon="-1.61924">
        <ele>99</ele>
        <time>2022-01-27T13:43:57Z</time>
      </trkpt>
      <trkpt lat="47.29072" lon="-1.61926">
        <ele>99</ele>
        <time>2022-01-27T13:43:58Z</time>
      </trkpt>
      <trkpt lat="47.29071" lon="-1.61928">
        <ele>98</ele>
        <time>2022-01-27T13:43:59Z</time>
      </trkpt>
      <trkpt lat="47.2907" lon="-1.6193">
        <ele>98</ele>
        <time>2022-01-27T13:44:00Z</time>
      </trkpt>
      <trkpt lat="47.29069" lon="-1.61931">
        <ele>98</ele>
        <time>2022-01-27T13:44:01Z</time>
      </trkpt>
      <trkpt lat="47.29067" lon="-1.61932">
        <ele>97</ele>
        <time>2022-01-27T13:44:02Z</time>
      </trkpt>
      <trkpt lat="47.29066" lon="-1.61934">
        <ele>98</ele>
        <time>2022-01-27T13:44:03Z</time>
      </trkpt>
      <trkpt lat="47.29065" lon="-1.61935">
        <ele>97</ele>
        <time>2022-01-27T13:44:04Z</time>
      </trkpt>
      <trkpt lat="47.29064" lon="-1.61936">
        <ele>97</ele>
        <time>2022-01-27T13:44:05Z</time>
      </trkpt>
      <trkpt lat="47.29063" lon="-1.61937">
        <ele>97</ele>
        <time>2022-01-27T13:44:06Z</time>
      </trkpt>
      <trkpt lat="47.29062" lon="-1.61938">
        <ele>97</ele>
        <time>2022-01-27T13:44:07Z</time>
      </trkpt>
      <trkpt lat="47.29061" lon="-1.6194">
        <ele>97</ele>
        <time>2022-01-27T13:44:08Z</time>
      </trkpt>
      <trkpt lat="47.2906" lon="-1.61942">
        <ele>97</ele>
        <time>2022-01-27T13:44:09Z</time>
      </trkpt>
      <trkpt lat="47.29059" lon="-1.61942">
        <ele>97</ele>
        <time>2022-01-27T13:44:10Z</time>
      </trkpt>
      <trkpt lat="47.29058" lon="-1.61943">
        <ele>97</ele>
        <time>2022-01-27T13:44:11Z</time>
      </trkpt>
      <trkpt lat="47.29057" lon="-1.61944">
        <ele>98</ele>
        <time>2022-01-27T13:44:12Z</time>
      </trkpt>
      <trkpt lat="47.29055" lon="-1.61945">
        <ele>98</ele>
        <time>2022-01-27T13:44:13Z</time>
      </trkpt>
      <trkpt lat="47.29054" lon="-1.61946">
        <ele>97</ele>
        <time>2022-01-27T13:44:14Z</time>
      </trkpt>
      <trkpt lat="47.29053" lon="-1.61947">
        <ele>97</ele>
        <time>2022-01-27T13:44:15Z</time>
      </trkpt>
      <trkpt lat="47.29052" lon="-1.61948">
        <ele>97</ele>
        <time>2022-01-27T13:44:16Z</time>
      </trkpt>
      <trkpt lat="47.29051" lon="-1.61949">
        <ele>97</ele>
        <time>2022-01-27T13:44:17Z</time>
      </trkpt>
      <trkpt lat="47.29051" lon="-1.61949">
        <ele>97</ele>
        <time>2022-01-27T13:44:18Z</time>
      </trkpt>
      <trkpt lat="47.2905" lon="-1.6195">
        <ele>96</ele>
        <time>2022-01-27T13:44:19Z</time>
      </trkpt>
      <trkpt lat="47.29049" lon="-1.61951">
        <ele>96</ele>
        <time>2022-01-27T13:44:20Z</time>
      </trkpt>
      <trkpt lat="47.29048" lon="-1.61951">
        <ele>96</ele>
        <time>2022-01-27T13:44:21Z</time>
      </trkpt>
      <trkpt lat="47.29047" lon="-1.61953">
        <ele>96</ele>
        <time>2022-01-27T13:44:22Z</time>
      </trkpt>
      <trkpt lat="47.29046" lon="-1.61954">
        <ele>96</ele>
        <time>2022-01-27T13:44:23Z</time>
      </trkpt>
      <trkpt lat="47.29045" lon="-1.61956">
        <ele>95</ele>
        <time>2022-01-27T13:44:24Z</time>
      </trkpt>
      <trkpt lat="47.29043" lon="-1.61957">
        <ele>95</ele>
        <time>2022-01-27T13:44:25Z</time>
      </trkpt>
      <trkpt lat="47.29042" lon="-1.61958">
        <ele>95</ele>
        <time>2022-01-27T13:44:26Z</time>
      </trkpt>
      <trkpt lat="47.29041" lon="-1.6196">
        <ele>94</ele>
        <time>2022-01-27T13:44:27Z</time>
      </trkpt>
      <trkpt lat="47.2904" lon="-1.61961">
        <ele>94</ele>
        <time>2022-01-27T13:44:28Z</time>
      </trkpt>
      <trkpt lat="47.29039" lon="-1.61962">
        <ele>94</ele>
        <time>2022-01-27T13:44:29Z</time>
      </trkpt>
      <trkpt lat="47.29038" lon="-1.61963">
        <ele>94</ele>
        <time>2022-01-27T13:44:30Z</time>
      </trkpt>
      <trkpt lat="47.29036" lon="-1.61964">
        <ele>95</ele>
        <time>2022-01-27T13:44:31Z</time>
      </trkpt>
      <trkpt lat="47.29036" lon="-1.61966">
        <ele>95</ele>
        <time>2022-01-27T13:44:32Z</time>
      </trkpt>
      <trkpt lat="47.29034" lon="-1.61967">
        <ele>95</ele>
        <time>2022-01-27T13:44:33Z</time>
      </trkpt>
      <trkpt lat="47.29034" lon="-1.61968">
        <ele>95</ele>
        <time>2022-01-27T13:44:34Z</time>
      </trkpt>
      <trkpt lat="47.29033" lon="-1.61969">
        <ele>95</ele>
        <time>2022-01-27T13:44:35Z</time>
      </trkpt>
      <trkpt lat="47.29032" lon="-1.6197">
        <ele>95</ele>
        <time>2022-01-27T13:44:36Z</time>
      </trkpt>
      <trkpt lat="47.29031" lon="-1.61971">
        <ele>95</ele>
        <time>2022-01-27T13:44:37Z</time>
      </trkpt>
      <trkpt lat="47.2903" lon="-1.61971">
        <ele>95</ele>
        <time>2022-01-27T13:44:38Z</time>
      </trkpt>
      <trkpt lat="47.29029" lon="-1.61972">
        <ele>95</ele>
        <time>2022-01-27T13:44:39Z</time>
      </trkpt>
      <trkpt lat="47.29028" lon="-1.61972">
        <ele>95</ele>
        <time>2022-01-27T13:44:40Z</time>
      </trkpt>
      <trkpt lat="47.29027" lon="-1.61974">
        <ele>95</ele>
        <time>2022-01-27T13:44:41Z</time>
      </trkpt>
      <trkpt lat="47.29026" lon="-1.61975">
        <ele>95</ele>
        <time>2022-01-27T13:44:42Z</time>
      </trkpt>
      <trkpt lat="47.29025" lon="-1.61976">
        <ele>95</ele>
        <time>2022-01-27T13:44:43Z</time>
      </trkpt>
      <trkpt lat="47.29023" lon="-1.61977">
        <ele>95</ele>
        <time>2022-01-27T13:44:44Z</time>
      </trkpt>
      <trkpt lat="47.29022" lon="-1.61978">
        <ele>95</ele>
        <time>2022-01-27T13:44:45Z</time>
      </trkpt>
      <trkpt lat="47.29021" lon="-1.61979">
        <ele>95</ele>
        <time>2022-01-27T13:44:46Z</time>
      </trkpt>
      <trkpt lat="47.2902" lon="-1.61979">
        <ele>95</ele>
        <time>2022-01-27T13:44:47Z</time>
      </trkpt>
      <trkpt lat="47.29019" lon="-1.6198">
        <ele>95</ele>
        <time>2022-01-27T13:44:48Z</time>
      </trkpt>
      <trkpt lat="47.29018" lon="-1.6198">
        <ele>95</ele>
        <time>2022-01-27T13:44:49Z</time>
      </trkpt>
      <trkpt lat="47.29017" lon="-1.61981">
        <ele>94</ele>
        <time>2022-01-27T13:44:50Z</time>
      </trkpt>
      <trkpt lat="47.29016" lon="-1.61982">
        <ele>94</ele>
        <time>2022-01-27T13:44:51Z</time>
      </trkpt>
      <trkpt lat="47.29014" lon="-1.61983">
        <ele>95</ele>
        <time>2022-01-27T13:44:52Z</time>
      </trkpt>
      <trkpt lat="47.29013" lon="-1.61984">
        <ele>94</ele>
        <time>2022-01-27T13:44:53Z</time>
      </trkpt>
      <trkpt lat="47.29012" lon="-1.61985">
        <ele>94</ele>
        <time>2022-01-27T13:44:54Z</time>
      </trkpt>
      <trkpt lat="47.2901" lon="-1.61985">
        <ele>94</ele>
        <time>2022-01-27T13:44:55Z</time>
      </trkpt>
      <trkpt lat="47.29009" lon="-1.61986">
        <ele>94</ele>
        <time>2022-01-27T13:44:56Z</time>
      </trkpt>
      <trkpt lat="47.29008" lon="-1.61987">
        <ele>94</ele>
        <time>2022-01-27T13:44:57Z</time>
      </trkpt>
      <trkpt lat="47.29007" lon="-1.61988">
        <ele>94</ele>
        <time>2022-01-27T13:44:58Z</time>
      </trkpt>
      <trkpt lat="47.29006" lon="-1.61988">
        <ele>93</ele>
        <time>2022-01-27T13:44:59Z</time>
      </trkpt>
      <trkpt lat="47.29005" lon="-1.61989">
        <ele>94</ele>
        <time>2022-01-27T13:45:00Z</time>
      </trkpt>
      <trkpt lat="47.29004" lon="-1.6199">
        <ele>94</ele>
        <time>2022-01-27T13:45:01Z</time>
      </trkpt>
      <trkpt lat="47.29003" lon="-1.61991">
        <ele>94</ele>
        <time>2022-01-27T13:45:02Z</time>
      </trkpt>
      <trkpt lat="47.29002" lon="-1.61991">
        <ele>93</ele>
        <time>2022-01-27T13:45:03Z</time>
      </trkpt>
      <trkpt lat="47.29001" lon="-1.61992">
        <ele>93</ele>
        <time>2022-01-27T13:45:04Z</time>
      </trkpt>
      <trkpt lat="47.28999" lon="-1.61993">
        <ele>93</ele>
        <time>2022-01-27T13:45:05Z</time>
      </trkpt>
      <trkpt lat="47.28999" lon="-1.61994">
        <ele>93</ele>
        <time>2022-01-27T13:45:06Z</time>
      </trkpt>
      <trkpt lat="47.28997" lon="-1.61995">
        <ele>93</ele>
        <time>2022-01-27T13:45:07Z</time>
      </trkpt>
      <trkpt lat="47.28996" lon="-1.61995">
        <ele>93</ele>
        <time>2022-01-27T13:45:08Z</time>
      </trkpt>
      <trkpt lat="47.28995" lon="-1.61996">
        <ele>93</ele>
        <time>2022-01-27T13:45:09Z</time>
      </trkpt>
      <trkpt lat="47.28994" lon="-1.61997">
        <ele>94</ele>
        <time>2022-01-27T13:45:10Z</time>
      </trkpt>
      <trkpt lat="47.28993" lon="-1.61998">
        <ele>93</ele>
        <time>2022-01-27T13:45:11Z</time>
      </trkpt>
      <trkpt lat="47.28992" lon="-1.61999">
        <ele>93</ele>
        <time>2022-01-27T13:45:12Z</time>
      </trkpt>
      <trkpt lat="47.28991" lon="-1.61999">
        <ele>93</ele>
        <time>2022-01-27T13:45:13Z</time>
      </trkpt>
      <trkpt lat="47.28989" lon="-1.61999">
        <ele>92</ele>
        <time>2022-01-27T13:45:14Z</time>
      </trkpt>
      <trkpt lat="47.28988" lon="-1.62">
        <ele>92</ele>
        <time>2022-01-27T13:45:15Z</time>
      </trkpt>
      <trkpt lat="47.28986" lon="-1.62">
        <ele>92</ele>
        <time>2022-01-27T13:45:16Z</time>
      </trkpt>
      <trkpt lat="47.28985" lon="-1.62">
        <ele>92</ele>
        <time>2022-01-27T13:45:17Z</time>
      </trkpt>
      <trkpt lat="47.28984" lon="-1.62001">
        <ele>93</ele>
        <time>2022-01-27T13:45:18Z</time>
      </trkpt>
      <trkpt lat="47.28983" lon="-1.62001">
        <ele>93</ele>
        <time>2022-01-27T13:45:19Z</time>
      </trkpt>
      <trkpt lat="47.28981" lon="-1.62001">
        <ele>93</ele>
        <time>2022-01-27T13:45:20Z</time>
      </trkpt>
      <trkpt lat="47.2898" lon="-1.62002">
        <ele>93</ele>
        <time>2022-01-27T13:45:21Z</time>
      </trkpt>
      <trkpt lat="47.2898" lon="-1.62002">
        <ele>93</ele>
        <time>2022-01-27T13:45:22Z</time>
      </trkpt>
      <trkpt lat="47.28978" lon="-1.62002">
        <ele>93</ele>
        <time>2022-01-27T13:45:23Z</time>
      </trkpt>
      <trkpt lat="47.28977" lon="-1.62002">
        <ele>93</ele>
        <time>2022-01-27T13:45:24Z</time>
      </trkpt>
      <trkpt lat="47.28976" lon="-1.62002">
        <ele>93</ele>
        <time>2022-01-27T13:45:25Z</time>
      </trkpt>
      <trkpt lat="47.28976" lon="-1.62002">
        <ele>93</ele>
        <time>2022-01-27T13:45:26Z</time>
      </trkpt>
      <trkpt lat="47.28975" lon="-1.62002">
        <ele>93</ele>
        <time>2022-01-27T13:45:27Z</time>
      </trkpt>
      <trkpt lat="47.28974" lon="-1.62003">
        <ele>93</ele>
        <time>2022-01-27T13:45:28Z</time>
      </trkpt>
      <trkpt lat="47.28973" lon="-1.62003">
        <ele>93</ele>
        <time>2022-01-27T13:45:29Z</time>
      </trkpt>
      <trkpt lat="47.28972" lon="-1.62004">
        <ele>93</ele>
        <time>2022-01-27T13:45:30Z</time>
      </trkpt>
      <trkpt lat="47.2897" lon="-1.62004">
        <ele>94</ele>
        <time>2022-01-27T13:45:31Z</time>
      </trkpt>
      <trkpt lat="47.28969" lon="-1.62005">
        <ele>93</ele>
        <time>2022-01-27T13:45:32Z</time>
      </trkpt>
      <trkpt lat="47.28968" lon="-1.62005">
        <ele>93</ele>
        <time>2022-01-27T13:45:33Z</time>
      </trkpt>
      <trkpt lat="47.28967" lon="-1.62006">
        <ele>94</ele>
        <time>2022-01-27T13:45:34Z</time>
      </trkpt>
      <trkpt lat="47.28966" lon="-1.62007">
        <ele>93</ele>
        <time>2022-01-27T13:45:35Z</time>
      </trkpt>
      <trkpt lat="47.28965" lon="-1.62007">
        <ele>93</ele>
        <time>2022-01-27T13:45:36Z</time>
      </trkpt>
      <trkpt lat="47.28963" lon="-1.62007">
        <ele>93</ele>
        <time>2022-01-27T13:45:37Z</time>
      </trkpt>
      <trkpt lat="47.28962" lon="-1.62007">
        <ele>93</ele>
        <time>2022-01-27T13:45:38Z</time>
      </trkpt>
      <trkpt lat="47.28961" lon="-1.62007">
        <ele>93</ele>
        <time>2022-01-27T13:45:39Z</time>
      </trkpt>
      <trkpt lat="47.2896" lon="-1.62007">
        <ele>93</ele>
        <time>2022-01-27T13:45:40Z</time>
      </trkpt>
      <trkpt lat="47.28959" lon="-1.62008">
        <ele>93</ele>
        <time>2022-01-27T13:45:41Z</time>
      </trkpt>
      <trkpt lat="47.28958" lon="-1.62008">
        <ele>93</ele>
        <time>2022-01-27T13:45:42Z</time>
      </trkpt>
      <trkpt lat="47.28957" lon="-1.62008">
        <ele>92</ele>
        <time>2022-01-27T13:45:43Z</time>
      </trkpt>
      <trkpt lat="47.28956" lon="-1.62008">
        <ele>92</ele>
        <time>2022-01-27T13:45:44Z</time>
      </trkpt>
      <trkpt lat="47.28954" lon="-1.62008">
        <ele>92</ele>
        <time>2022-01-27T13:45:45Z</time>
      </trkpt>
      <trkpt lat="47.28953" lon="-1.62008">
        <ele>92</ele>
        <time>2022-01-27T13:45:46Z</time>
      </trkpt>
      <trkpt lat="47.28952" lon="-1.62008">
        <ele>92</ele>
        <time>2022-01-27T13:45:47Z</time>
      </trkpt>
      <trkpt lat="47.28951" lon="-1.62009">
        <ele>92</ele>
        <time>2022-01-27T13:45:48Z</time>
      </trkpt>
      <trkpt lat="47.28949" lon="-1.62009">
        <ele>92</ele>
        <time>2022-01-27T13:45:49Z</time>
      </trkpt>
      <trkpt lat="47.28948" lon="-1.62009">
        <ele>92</ele>
        <time>2022-01-27T13:45:50Z</time>
      </trkpt>
      <trkpt lat="47.28947" lon="-1.62008">
        <ele>92</ele>
        <time>2022-01-27T13:45:51Z</time>
      </trkpt>
      <trkpt lat="47.28947" lon="-1.62008">
        <ele>91</ele>
        <time>2022-01-27T13:45:52Z</time>
      </trkpt>
      <trkpt lat="47.28946" lon="-1.62008">
        <ele>91</ele>
        <time>2022-01-27T13:45:53Z</time>
      </trkpt>
      <trkpt lat="47.28945" lon="-1.62008">
        <ele>91</ele>
        <time>2022-01-27T13:45:54Z</time>
      </trkpt>
      <trkpt lat="47.28944" lon="-1.62008">
        <ele>91</ele>
        <time>2022-01-27T13:45:55Z</time>
      </trkpt>
      <trkpt lat="47.28943" lon="-1.62008">
        <ele>91</ele>
        <time>2022-01-27T13:45:56Z</time>
      </trkpt>
      <trkpt lat="47.28942" lon="-1.62008">
        <ele>91</ele>
        <time>2022-01-27T13:45:57Z</time>
      </trkpt>
      <trkpt lat="47.28941" lon="-1.62008">
        <ele>91</ele>
        <time>2022-01-27T13:45:58Z</time>
      </trkpt>
      <trkpt lat="47.2894" lon="-1.62009">
        <ele>91</ele>
        <time>2022-01-27T13:45:59Z</time>
      </trkpt>
      <trkpt lat="47.28939" lon="-1.62009">
        <ele>91</ele>
        <time>2022-01-27T13:46:00Z</time>
      </trkpt>
      <trkpt lat="47.28938" lon="-1.62009">
        <ele>91</ele>
        <time>2022-01-27T13:46:01Z</time>
      </trkpt>
      <trkpt lat="47.28937" lon="-1.62009">
        <ele>90</ele>
        <time>2022-01-27T13:46:02Z</time>
      </trkpt>
      <trkpt lat="47.28936" lon="-1.62009">
        <ele>91</ele>
        <time>2022-01-27T13:46:03Z</time>
      </trkpt>
      <trkpt lat="47.28935" lon="-1.62009">
        <ele>91</ele>
        <time>2022-01-27T13:46:04Z</time>
      </trkpt>
      <trkpt lat="47.28933" lon="-1.6201">
        <ele>91</ele>
        <time>2022-01-27T13:46:05Z</time>
      </trkpt>
      <trkpt lat="47.28932" lon="-1.6201">
        <ele>90</ele>
        <time>2022-01-27T13:46:06Z</time>
      </trkpt>
      <trkpt lat="47.28931" lon="-1.62011">
        <ele>90</ele>
        <time>2022-01-27T13:46:07Z</time>
      </trkpt>
      <trkpt lat="47.2893" lon="-1.62011">
        <ele>90</ele>
        <time>2022-01-27T13:46:08Z</time>
      </trkpt>
      <trkpt lat="47.28928" lon="-1.62011">
        <ele>90</ele>
        <time>2022-01-27T13:46:09Z</time>
      </trkpt>
      <trkpt lat="47.28928" lon="-1.62011">
        <ele>90</ele>
        <time>2022-01-27T13:46:10Z</time>
      </trkpt>
      <trkpt lat="47.28927" lon="-1.62012">
        <ele>90</ele>
        <time>2022-01-27T13:46:11Z</time>
      </trkpt>
      <trkpt lat="47.28926" lon="-1.62013">
        <ele>90</ele>
        <time>2022-01-27T13:46:12Z</time>
      </trkpt>
      <trkpt lat="47.28924" lon="-1.62013">
        <ele>90</ele>
        <time>2022-01-27T13:46:13Z</time>
      </trkpt>
      <trkpt lat="47.28923" lon="-1.62013">
        <ele>90</ele>
        <time>2022-01-27T13:46:14Z</time>
      </trkpt>
      <trkpt lat="47.28922" lon="-1.62014">
        <ele>89</ele>
        <time>2022-01-27T13:46:15Z</time>
      </trkpt>
      <trkpt lat="47.2892" lon="-1.62014">
        <ele>89</ele>
        <time>2022-01-27T13:46:16Z</time>
      </trkpt>
      <trkpt lat="47.28919" lon="-1.62014">
        <ele>88</ele>
        <time>2022-01-27T13:46:17Z</time>
      </trkpt>
      <trkpt lat="47.28917" lon="-1.62015">
        <ele>88</ele>
        <time>2022-01-27T13:46:18Z</time>
      </trkpt>
      <trkpt lat="47.28916" lon="-1.62015">
        <ele>88</ele>
        <time>2022-01-27T13:46:19Z</time>
      </trkpt>
      <trkpt lat="47.28915" lon="-1.62016">
        <ele>88</ele>
        <time>2022-01-27T13:46:20Z</time>
      </trkpt>
      <trkpt lat="47.28914" lon="-1.62016">
        <ele>88</ele>
        <time>2022-01-27T13:46:21Z</time>
      </trkpt>
      <trkpt lat="47.28913" lon="-1.62016">
        <ele>88</ele>
        <time>2022-01-27T13:46:22Z</time>
      </trkpt>
      <trkpt lat="47.28912" lon="-1.62017">
        <ele>88</ele>
        <time>2022-01-27T13:46:23Z</time>
      </trkpt>
      <trkpt lat="47.2891" lon="-1.62017">
        <ele>87</ele>
        <time>2022-01-27T13:46:24Z</time>
      </trkpt>
      <trkpt lat="47.2891" lon="-1.62017">
        <ele>87</ele>
        <time>2022-01-27T13:46:25Z</time>
      </trkpt>
      <trkpt lat="47.2891" lon="-1.62017">
        <ele>87</ele>
        <time>2022-01-27T13:46:26Z</time>
      </trkpt>
      <trkpt lat="47.28907" lon="-1.62018">
        <ele>87</ele>
        <time>2022-01-27T13:46:27Z</time>
      </trkpt>
      <trkpt lat="47.28906" lon="-1.62019">
        <ele>87</ele>
        <time>2022-01-27T13:46:28Z</time>
      </trkpt>
      <trkpt lat="47.28905" lon="-1.6202">
        <ele>87</ele>
        <time>2022-01-27T13:46:29Z</time>
      </trkpt>
      <trkpt lat="47.28904" lon="-1.62021">
        <ele>87</ele>
        <time>2022-01-27T13:46:30Z</time>
      </trkpt>
      <trkpt lat="47.28904" lon="-1.62021">
        <ele>87</ele>
        <time>2022-01-27T13:46:31Z</time>
      </trkpt>
      <trkpt lat="47.28904" lon="-1.62021">
        <ele>87</ele>
        <time>2022-01-27T13:46:32Z</time>
      </trkpt>
      <trkpt lat="47.28902" lon="-1.62021">
        <ele>87</ele>
        <time>2022-01-27T13:46:33Z</time>
      </trkpt>
      <trkpt lat="47.28901" lon="-1.62022">
        <ele>87</ele>
        <time>2022-01-27T13:46:34Z</time>
      </trkpt>
      <trkpt lat="47.289" lon="-1.62022">
        <ele>87</ele>
        <time>2022-01-27T13:46:35Z</time>
      </trkpt>
      <trkpt lat="47.28899" lon="-1.62023">
        <ele>87</ele>
        <time>2022-01-27T13:46:36Z</time>
      </trkpt>
      <trkpt lat="47.28899" lon="-1.62023">
        <ele>87</ele>
        <time>2022-01-27T13:46:37Z</time>
      </trkpt>
      <trkpt lat="47.28898" lon="-1.62024">
        <ele>87</ele>
        <time>2022-01-27T13:46:38Z</time>
      </trkpt>
      <trkpt lat="47.28897" lon="-1.62024">
        <ele>87</ele>
        <time>2022-01-27T13:46:39Z</time>
      </trkpt>
      <trkpt lat="47.28896" lon="-1.62026">
        <ele>87</ele>
        <time>2022-01-27T13:46:40Z</time>
      </trkpt>
      <trkpt lat="47.28896" lon="-1.62026">
        <ele>87</ele>
        <time>2022-01-27T13:46:41Z</time>
      </trkpt>
      <trkpt lat="47.28896" lon="-1.62026">
        <ele>87</ele>
        <time>2022-01-27T13:46:42Z</time>
      </trkpt>
      <trkpt lat="47.28894" lon="-1.62028">
        <ele>87</ele>
        <time>2022-01-27T13:46:43Z</time>
      </trkpt>
      <trkpt lat="47.28892" lon="-1.62029">
        <ele>87</ele>
        <time>2022-01-27T13:46:44Z</time>
      </trkpt>
      <trkpt lat="47.28891" lon="-1.62029">
        <ele>87</ele>
        <time>2022-01-27T13:46:45Z</time>
      </trkpt>
      <trkpt lat="47.2889" lon="-1.62029">
        <ele>86</ele>
        <time>2022-01-27T13:46:46Z</time>
      </trkpt>
      <trkpt lat="47.2889" lon="-1.62029">
        <ele>86</ele>
        <time>2022-01-27T13:46:47Z</time>
      </trkpt>
      <trkpt lat="47.28889" lon="-1.62029">
        <ele>86</ele>
        <time>2022-01-27T13:46:48Z</time>
      </trkpt>
      <trkpt lat="47.28888" lon="-1.6203">
        <ele>86</ele>
        <time>2022-01-27T13:46:49Z</time>
      </trkpt>
      <trkpt lat="47.28887" lon="-1.6203">
        <ele>86</ele>
        <time>2022-01-27T13:46:50Z</time>
      </trkpt>
      <trkpt lat="47.28887" lon="-1.6203">
        <ele>86</ele>
        <time>2022-01-27T13:46:51Z</time>
      </trkpt>
      <trkpt lat="47.28887" lon="-1.6203">
        <ele>86</ele>
        <time>2022-01-27T13:46:52Z</time>
      </trkpt>
      <trkpt lat="47.28885" lon="-1.62032">
        <ele>86</ele>
        <time>2022-01-27T13:46:53Z</time>
      </trkpt>
      <trkpt lat="47.28883" lon="-1.62033">
        <ele>85</ele>
        <time>2022-01-27T13:46:54Z</time>
      </trkpt>
      <trkpt lat="47.28883" lon="-1.62034">
        <ele>85</ele>
        <time>2022-01-27T13:46:55Z</time>
      </trkpt>
      <trkpt lat="47.28882" lon="-1.62034">
        <ele>85</ele>
        <time>2022-01-27T13:46:56Z</time>
      </trkpt>
      <trkpt lat="47.28881" lon="-1.62035">
        <ele>85</ele>
        <time>2022-01-27T13:46:57Z</time>
      </trkpt>
      <trkpt lat="47.2888" lon="-1.62036">
        <ele>85</ele>
        <time>2022-01-27T13:46:58Z</time>
      </trkpt>
      <trkpt lat="47.28878" lon="-1.62037">
        <ele>85</ele>
        <time>2022-01-27T13:46:59Z</time>
      </trkpt>
      <trkpt lat="47.28877" lon="-1.62038">
        <ele>85</ele>
        <time>2022-01-27T13:47:00Z</time>
      </trkpt>
      <trkpt lat="47.28876" lon="-1.62039">
        <ele>85</ele>
        <time>2022-01-27T13:47:01Z</time>
      </trkpt>
      <trkpt lat="47.28875" lon="-1.62041">
        <ele>84</ele>
        <time>2022-01-27T13:47:02Z</time>
      </trkpt>
      <trkpt lat="47.28874" lon="-1.62043">
        <ele>85</ele>
        <time>2022-01-27T13:47:03Z</time>
      </trkpt>
      <trkpt lat="47.28873" lon="-1.62044">
        <ele>85</ele>
        <time>2022-01-27T13:47:04Z</time>
      </trkpt>
      <trkpt lat="47.28872" lon="-1.62045">
        <ele>85</ele>
        <time>2022-01-27T13:47:05Z</time>
      </trkpt>
      <trkpt lat="47.28871" lon="-1.62046">
        <ele>85</ele>
        <time>2022-01-27T13:47:06Z</time>
      </trkpt>
      <trkpt lat="47.2887" lon="-1.62047">
        <ele>85</ele>
        <time>2022-01-27T13:47:07Z</time>
      </trkpt>
      <trkpt lat="47.28869" lon="-1.62047">
        <ele>86</ele>
        <time>2022-01-27T13:47:08Z</time>
      </trkpt>
      <trkpt lat="47.28867" lon="-1.62048">
        <ele>86</ele>
        <time>2022-01-27T13:47:09Z</time>
      </trkpt>
      <trkpt lat="47.28867" lon="-1.62048">
        <ele>86</ele>
        <time>2022-01-27T13:47:10Z</time>
      </trkpt>
      <trkpt lat="47.28866" lon="-1.62049">
        <ele>86</ele>
        <time>2022-01-27T13:47:11Z</time>
      </trkpt>
      <trkpt lat="47.28865" lon="-1.6205">
        <ele>86</ele>
        <time>2022-01-27T13:47:12Z</time>
      </trkpt>
      <trkpt lat="47.28864" lon="-1.62051">
        <ele>86</ele>
        <time>2022-01-27T13:47:13Z</time>
      </trkpt>
      <trkpt lat="47.28862" lon="-1.62053">
        <ele>86</ele>
        <time>2022-01-27T13:47:14Z</time>
      </trkpt>
      <trkpt lat="47.28861" lon="-1.62054">
        <ele>86</ele>
        <time>2022-01-27T13:47:15Z</time>
      </trkpt>
      <trkpt lat="47.28859" lon="-1.62055">
        <ele>85</ele>
        <time>2022-01-27T13:47:16Z</time>
      </trkpt>
      <trkpt lat="47.28857" lon="-1.62056">
        <ele>85</ele>
        <time>2022-01-27T13:47:17Z</time>
      </trkpt>
      <trkpt lat="47.28855" lon="-1.62057">
        <ele>85</ele>
        <time>2022-01-27T13:47:18Z</time>
      </trkpt>
      <trkpt lat="47.28854" lon="-1.62058">
        <ele>85</ele>
        <time>2022-01-27T13:47:19Z</time>
      </trkpt>
      <trkpt lat="47.28853" lon="-1.62059">
        <ele>85</ele>
        <time>2022-01-27T13:47:20Z</time>
      </trkpt>
      <trkpt lat="47.28851" lon="-1.62059">
        <ele>85</ele>
        <time>2022-01-27T13:47:21Z</time>
      </trkpt>
      <trkpt lat="47.28851" lon="-1.62059">
        <ele>85</ele>
        <time>2022-01-27T13:47:22Z</time>
      </trkpt>
      <trkpt lat="47.28851" lon="-1.62059">
        <ele>85</ele>
        <time>2022-01-27T13:47:23Z</time>
      </trkpt>
      <trkpt lat="47.28851" lon="-1.62059">
        <ele>85</ele>
        <time>2022-01-27T13:47:24Z</time>
      </trkpt>
      <trkpt lat="47.28851" lon="-1.62059">
        <ele>85</ele>
        <time>2022-01-27T13:47:24Z</time>
      </trkpt>
      <trkpt lat="47.28851" lon="-1.62059">
        <ele>85</ele>
        <time>2022-01-27T13:47:24Z</time>
      </trkpt>
      <trkpt lat="47.28846" lon="-1.62061">
        <ele>86</ele>
        <time>2022-01-27T13:47:33Z</time>
      </trkpt>
      <trkpt lat="47.28845" lon="-1.62061">
        <ele>86</ele>
        <time>2022-01-27T13:47:34Z</time>
      </trkpt>
      <trkpt lat="47.28843" lon="-1.62062">
        <ele>85</ele>
        <time>2022-01-27T13:47:35Z</time>
      </trkpt>
      <trkpt lat="47.28842" lon="-1.62062">
        <ele>85</ele>
        <time>2022-01-27T13:47:36Z</time>
      </trkpt>
      <trkpt lat="47.2884" lon="-1.62062">
        <ele>85</ele>
        <time>2022-01-27T13:47:37Z</time>
      </trkpt>
      <trkpt lat="47.2884" lon="-1.62062">
        <ele>85</ele>
        <time>2022-01-27T13:47:38Z</time>
      </trkpt>
      <trkpt lat="47.28839" lon="-1.62063">
        <ele>85</ele>
        <time>2022-01-27T13:47:39Z</time>
      </trkpt>
      <trkpt lat="47.28838" lon="-1.62064">
        <ele>85</ele>
        <time>2022-01-27T13:47:40Z</time>
      </trkpt>
      <trkpt lat="47.28838" lon="-1.62065">
        <ele>85</ele>
        <time>2022-01-27T13:47:41Z</time>
      </trkpt>
      <trkpt lat="47.28837" lon="-1.62066">
        <ele>85</ele>
        <time>2022-01-27T13:47:42Z</time>
      </trkpt>
      <trkpt lat="47.28836" lon="-1.62067">
        <ele>86</ele>
        <time>2022-01-27T13:47:43Z</time>
      </trkpt>
      <trkpt lat="47.28835" lon="-1.62069">
        <ele>86</ele>
        <time>2022-01-27T13:47:44Z</time>
      </trkpt>
      <trkpt lat="47.28835" lon="-1.62069">
        <ele>86</ele>
        <time>2022-01-27T13:47:45Z</time>
      </trkpt>
      <trkpt lat="47.28834" lon="-1.62071">
        <ele>85</ele>
        <time>2022-01-27T13:47:46Z</time>
      </trkpt>
      <trkpt lat="47.28833" lon="-1.62071">
        <ele>85</ele>
        <time>2022-01-27T13:47:47Z</time>
      </trkpt>
      <trkpt lat="47.28832" lon="-1.62071">
        <ele>84</ele>
        <time>2022-01-27T13:47:48Z</time>
      </trkpt>
      <trkpt lat="47.28832" lon="-1.62071">
        <ele>84</ele>
        <time>2022-01-27T13:47:49Z</time>
      </trkpt>
      <trkpt lat="47.28832" lon="-1.62071">
        <ele>84</ele>
        <time>2022-01-27T13:47:50Z</time>
      </trkpt>
      <trkpt lat="47.28832" lon="-1.62071">
        <ele>84</ele>
        <time>2022-01-27T13:47:51Z</time>
      </trkpt>
      <trkpt lat="47.28832" lon="-1.62071">
        <ele>84</ele>
        <time>2022-01-27T13:47:51Z</time>
      </trkpt>
      <trkpt lat="47.28827" lon="-1.62077">
        <ele>81</ele>
        <time>2022-01-27T13:48:13Z</time>
      </trkpt>
      <trkpt lat="47.28827" lon="-1.62077">
        <ele>81</ele>
        <time>2022-01-27T13:48:14Z</time>
      </trkpt>
      <trkpt lat="47.28827" lon="-1.62078">
        <ele>81</ele>
        <time>2022-01-27T13:48:15Z</time>
      </trkpt>
      <trkpt lat="47.28827" lon="-1.62078">
        <ele>81</ele>
        <time>2022-01-27T13:48:16Z</time>
      </trkpt>
      <trkpt lat="47.28827" lon="-1.62078">
        <ele>81</ele>
        <time>2022-01-27T13:48:17Z</time>
      </trkpt>
      <trkpt lat="47.28827" lon="-1.62078">
        <ele>81</ele>
        <time>2022-01-27T13:48:18Z</time>
      </trkpt>
      <trkpt lat="47.28827" lon="-1.62078">
        <ele>81</ele>
        <time>2022-01-27T13:48:19Z</time>
      </trkpt>
      <trkpt lat="47.28827" lon="-1.62078">
        <ele>81</ele>
        <time>2022-01-27T13:48:19Z</time>
      </trkpt>
      <trkpt lat="47.28822" lon="-1.62082">
        <ele>84</ele>
        <time>2022-01-27T13:48:39Z</time>
      </trkpt>
      <trkpt lat="47.28822" lon="-1.62083">
        <ele>84</ele>
        <time>2022-01-27T13:48:40Z</time>
      </trkpt>
      <trkpt lat="47.28822" lon="-1.62084">
        <ele>84</ele>
        <time>2022-01-27T13:48:41Z</time>
      </trkpt>
      <trkpt lat="47.28821" lon="-1.62086">
        <ele>84</ele>
        <time>2022-01-27T13:48:42Z</time>
      </trkpt>
      <trkpt lat="47.2882" lon="-1.62088">
        <ele>84</ele>
        <time>2022-01-27T13:48:43Z</time>
      </trkpt>
      <trkpt lat="47.2882" lon="-1.62089">
        <ele>84</ele>
        <time>2022-01-27T13:48:44Z</time>
      </trkpt>
      <trkpt lat="47.2882" lon="-1.62091">
        <ele>84</ele>
        <time>2022-01-27T13:48:45Z</time>
      </trkpt>
      <trkpt lat="47.2882" lon="-1.62091">
        <ele>84</ele>
        <time>2022-01-27T13:48:46Z</time>
      </trkpt>
      <trkpt lat="47.2882" lon="-1.62091">
        <ele>84</ele>
        <time>2022-01-27T13:48:47Z</time>
      </trkpt>
      <trkpt lat="47.28819" lon="-1.62095">
        <ele>84</ele>
        <time>2022-01-27T13:48:48Z</time>
      </trkpt>
      <trkpt lat="47.28818" lon="-1.62096">
        <ele>84</ele>
        <time>2022-01-27T13:48:49Z</time>
      </trkpt>
      <trkpt lat="47.28818" lon="-1.62097">
        <ele>84</ele>
        <time>2022-01-27T13:48:50Z</time>
      </trkpt>
      <trkpt lat="47.28818" lon="-1.62099">
        <ele>84</ele>
        <time>2022-01-27T13:48:51Z</time>
      </trkpt>
      <trkpt lat="47.28817" lon="-1.621">
        <ele>84</ele>
        <time>2022-01-27T13:48:52Z</time>
      </trkpt>
      <trkpt lat="47.28817" lon="-1.62102">
        <ele>84</ele>
        <time>2022-01-27T13:48:53Z</time>
      </trkpt>
      <trkpt lat="47.28817" lon="-1.62104">
        <ele>84</ele>
        <time>2022-01-27T13:48:54Z</time>
      </trkpt>
      <trkpt lat="47.28817" lon="-1.62106">
        <ele>84</ele>
        <time>2022-01-27T13:48:55Z</time>
      </trkpt>
      <trkpt lat="47.28816" lon="-1.62108">
        <ele>83</ele>
        <time>2022-01-27T13:48:56Z</time>
      </trkpt>
      <trkpt lat="47.28816" lon="-1.6211">
        <ele>83</ele>
        <time>2022-01-27T13:48:57Z</time>
      </trkpt>
      <trkpt lat="47.28816" lon="-1.62111">
        <ele>83</ele>
        <time>2022-01-27T13:48:58Z</time>
      </trkpt>
      <trkpt lat="47.28815" lon="-1.62113">
        <ele>83</ele>
        <time>2022-01-27T13:48:59Z</time>
      </trkpt>
      <trkpt lat="47.28815" lon="-1.62114">
        <ele>83</ele>
        <time>2022-01-27T13:49:00Z</time>
      </trkpt>
      <trkpt lat="47.28814" lon="-1.62116">
        <ele>84</ele>
        <time>2022-01-27T13:49:01Z</time>
      </trkpt>
      <trkpt lat="47.28813" lon="-1.62118">
        <ele>84</ele>
        <time>2022-01-27T13:49:02Z</time>
      </trkpt>
      <trkpt lat="47.28813" lon="-1.6212">
        <ele>84</ele>
        <time>2022-01-27T13:49:03Z</time>
      </trkpt>
      <trkpt lat="47.28812" lon="-1.62121">
        <ele>84</ele>
        <time>2022-01-27T13:49:04Z</time>
      </trkpt>
      <trkpt lat="47.28812" lon="-1.62123">
        <ele>84</ele>
        <time>2022-01-27T13:49:05Z</time>
      </trkpt>
      <trkpt lat="47.28811" lon="-1.62126">
        <ele>84</ele>
        <time>2022-01-27T13:49:06Z</time>
      </trkpt>
      <trkpt lat="47.28811" lon="-1.62128">
        <ele>84</ele>
        <time>2022-01-27T13:49:07Z</time>
      </trkpt>
      <trkpt lat="47.28811" lon="-1.6213">
        <ele>84</ele>
        <time>2022-01-27T13:49:08Z</time>
      </trkpt>
      <trkpt lat="47.2881" lon="-1.62132">
        <ele>84</ele>
        <time>2022-01-27T13:49:09Z</time>
      </trkpt>
      <trkpt lat="47.28809" lon="-1.62134">
        <ele>84</ele>
        <time>2022-01-27T13:49:10Z</time>
      </trkpt>
      <trkpt lat="47.28809" lon="-1.62136">
        <ele>84</ele>
        <time>2022-01-27T13:49:11Z</time>
      </trkpt>
      <trkpt lat="47.28808" lon="-1.62137">
        <ele>84</ele>
        <time>2022-01-27T13:49:12Z</time>
      </trkpt>
      <trkpt lat="47.28807" lon="-1.62139">
        <ele>84</ele>
        <time>2022-01-27T13:49:13Z</time>
      </trkpt>
      <trkpt lat="47.28807" lon="-1.62141">
        <ele>84</ele>
        <time>2022-01-27T13:49:14Z</time>
      </trkpt>
      <trkpt lat="47.28806" lon="-1.62142">
        <ele>85</ele>
        <time>2022-01-27T13:49:15Z</time>
      </trkpt>
      <trkpt lat="47.28806" lon="-1.62144">
        <ele>85</ele>
        <time>2022-01-27T13:49:16Z</time>
      </trkpt>
      <trkpt lat="47.28805" lon="-1.62145">
        <ele>84</ele>
        <time>2022-01-27T13:49:17Z</time>
      </trkpt>
      <trkpt lat="47.28805" lon="-1.62147">
        <ele>84</ele>
        <time>2022-01-27T13:49:18Z</time>
      </trkpt>
      <trkpt lat="47.28805" lon="-1.62148">
        <ele>84</ele>
        <time>2022-01-27T13:49:19Z</time>
      </trkpt>
      <trkpt lat="47.28805" lon="-1.62148">
        <ele>84</ele>
        <time>2022-01-27T13:49:20Z</time>
      </trkpt>
      <trkpt lat="47.28805" lon="-1.62148">
        <ele>84</ele>
        <time>2022-01-27T13:49:21Z</time>
      </trkpt>
      <trkpt lat="47.28803" lon="-1.62152">
        <ele>84</ele>
        <time>2022-01-27T13:49:22Z</time>
      </trkpt>
      <trkpt lat="47.28803" lon="-1.62153">
        <ele>84</ele>
        <time>2022-01-27T13:49:23Z</time>
      </trkpt>
      <trkpt lat="47.28802" lon="-1.62155">
        <ele>84</ele>
        <time>2022-01-27T13:49:24Z</time>
      </trkpt>
      <trkpt lat="47.28802" lon="-1.62157">
        <ele>85</ele>
        <time>2022-01-27T13:49:25Z</time>
      </trkpt>
      <trkpt lat="47.28801" lon="-1.62159">
        <ele>84</ele>
        <time>2022-01-27T13:49:26Z</time>
      </trkpt>
      <trkpt lat="47.28801" lon="-1.62161">
        <ele>85</ele>
        <time>2022-01-27T13:49:27Z</time>
      </trkpt>
      <trkpt lat="47.288" lon="-1.62163">
        <ele>85</ele>
        <time>2022-01-27T13:49:28Z</time>
      </trkpt>
      <trkpt lat="47.28799" lon="-1.62165">
        <ele>85</ele>
        <time>2022-01-27T13:49:29Z</time>
      </trkpt>
      <trkpt lat="47.28798" lon="-1.62166">
        <ele>85</ele>
        <time>2022-01-27T13:49:30Z</time>
      </trkpt>
      <trkpt lat="47.28798" lon="-1.62168">
        <ele>85</ele>
        <time>2022-01-27T13:49:31Z</time>
      </trkpt>
      <trkpt lat="47.28797" lon="-1.62169">
        <ele>85</ele>
        <time>2022-01-27T13:49:32Z</time>
      </trkpt>
      <trkpt lat="47.28797" lon="-1.62171">
        <ele>85</ele>
        <time>2022-01-27T13:49:33Z</time>
      </trkpt>
      <trkpt lat="47.28796" lon="-1.62172">
        <ele>85</ele>
        <time>2022-01-27T13:49:34Z</time>
      </trkpt>
      <trkpt lat="47.28796" lon="-1.62174">
        <ele>85</ele>
        <time>2022-01-27T13:49:35Z</time>
      </trkpt>
      <trkpt lat="47.28796" lon="-1.62175">
        <ele>85</ele>
        <time>2022-01-27T13:49:36Z</time>
      </trkpt>
      <trkpt lat="47.28795" lon="-1.62177">
        <ele>85</ele>
        <time>2022-01-27T13:49:37Z</time>
      </trkpt>
      <trkpt lat="47.28795" lon="-1.62179">
        <ele>85</ele>
        <time>2022-01-27T13:49:38Z</time>
      </trkpt>
      <trkpt lat="47.28795" lon="-1.62181">
        <ele>85</ele>
        <time>2022-01-27T13:49:39Z</time>
      </trkpt>
      <trkpt lat="47.28794" lon="-1.62183">
        <ele>85</ele>
        <time>2022-01-27T13:49:40Z</time>
      </trkpt>
      <trkpt lat="47.28794" lon="-1.62185">
        <ele>85</ele>
        <time>2022-01-27T13:49:41Z</time>
      </trkpt>
      <trkpt lat="47.28794" lon="-1.62187">
        <ele>86</ele>
        <time>2022-01-27T13:49:42Z</time>
      </trkpt>
      <trkpt lat="47.28793" lon="-1.62189">
        <ele>86</ele>
        <time>2022-01-27T13:49:43Z</time>
      </trkpt>
      <trkpt lat="47.28793" lon="-1.62191">
        <ele>86</ele>
        <time>2022-01-27T13:49:44Z</time>
      </trkpt>
      <trkpt lat="47.28793" lon="-1.62193">
        <ele>86</ele>
        <time>2022-01-27T13:49:45Z</time>
      </trkpt>
      <trkpt lat="47.28793" lon="-1.62195">
        <ele>86</ele>
        <time>2022-01-27T13:49:46Z</time>
      </trkpt>
      <trkpt lat="47.28794" lon="-1.62196">
        <ele>86</ele>
        <time>2022-01-27T13:49:47Z</time>
      </trkpt>
      <trkpt lat="47.28795" lon="-1.62197">
        <ele>86</ele>
        <time>2022-01-27T13:49:48Z</time>
      </trkpt>
      <trkpt lat="47.28795" lon="-1.62199">
        <ele>86</ele>
        <time>2022-01-27T13:49:49Z</time>
      </trkpt>
      <trkpt lat="47.28795" lon="-1.622">
        <ele>86</ele>
        <time>2022-01-27T13:49:50Z</time>
      </trkpt>
      <trkpt lat="47.28796" lon="-1.62201">
        <ele>85</ele>
        <time>2022-01-27T13:49:51Z</time>
      </trkpt>
      <trkpt lat="47.28796" lon="-1.62202">
        <ele>86</ele>
        <time>2022-01-27T13:49:52Z</time>
      </trkpt>
      <trkpt lat="47.28797" lon="-1.62203">
        <ele>86</ele>
        <time>2022-01-27T13:49:53Z</time>
      </trkpt>
      <trkpt lat="47.28798" lon="-1.62203">
        <ele>86</ele>
        <time>2022-01-27T13:49:54Z</time>
      </trkpt>
      <trkpt lat="47.28798" lon="-1.62204">
        <ele>86</ele>
        <time>2022-01-27T13:49:55Z</time>
      </trkpt>
      <trkpt lat="47.28799" lon="-1.62204">
        <ele>86</ele>
        <time>2022-01-27T13:49:56Z</time>
      </trkpt>
      <trkpt lat="47.28799" lon="-1.62204">
        <ele>86</ele>
        <time>2022-01-27T13:49:57Z</time>
      </trkpt>
      <trkpt lat="47.288" lon="-1.62206">
        <ele>86</ele>
        <time>2022-01-27T13:49:58Z</time>
      </trkpt>
      <trkpt lat="47.288" lon="-1.62206">
        <ele>86</ele>
        <time>2022-01-27T13:49:59Z</time>
      </trkpt>
      <trkpt lat="47.288" lon="-1.62206">
        <ele>86</ele>
        <time>2022-01-27T13:50:00Z</time>
      </trkpt>
      <trkpt lat="47.28801" lon="-1.62208">
        <ele>86</ele>
        <time>2022-01-27T13:50:01Z</time>
      </trkpt>
      <trkpt lat="47.28802" lon="-1.62209">
        <ele>86</ele>
        <time>2022-01-27T13:50:02Z</time>
      </trkpt>
      <trkpt lat="47.28803" lon="-1.6221">
        <ele>86</ele>
        <time>2022-01-27T13:50:03Z</time>
      </trkpt>
      <trkpt lat="47.28803" lon="-1.62211">
        <ele>86</ele>
        <time>2022-01-27T13:50:04Z</time>
      </trkpt>
      <trkpt lat="47.28804" lon="-1.62212">
        <ele>85</ele>
        <time>2022-01-27T13:50:05Z</time>
      </trkpt>
      <trkpt lat="47.28804" lon="-1.62212">
        <ele>85</ele>
        <time>2022-01-27T13:50:06Z</time>
      </trkpt>
      <trkpt lat="47.28805" lon="-1.62213">
        <ele>85</ele>
        <time>2022-01-27T13:50:07Z</time>
      </trkpt>
      <trkpt lat="47.28805" lon="-1.62213">
        <ele>85</ele>
        <time>2022-01-27T13:50:08Z</time>
      </trkpt>
      <trkpt lat="47.28805" lon="-1.62213">
        <ele>85</ele>
        <time>2022-01-27T13:50:09Z</time>
      </trkpt>
      <trkpt lat="47.28807" lon="-1.62215">
        <ele>85</ele>
        <time>2022-01-27T13:50:10Z</time>
      </trkpt>
      <trkpt lat="47.28807" lon="-1.62216">
        <ele>85</ele>
        <time>2022-01-27T13:50:11Z</time>
      </trkpt>
      <trkpt lat="47.28808" lon="-1.62218">
        <ele>85</ele>
        <time>2022-01-27T13:50:12Z</time>
      </trkpt>
      <trkpt lat="47.28808" lon="-1.62219">
        <ele>85</ele>
        <time>2022-01-27T13:50:13Z</time>
      </trkpt>
      <trkpt lat="47.28809" lon="-1.6222">
        <ele>85</ele>
        <time>2022-01-27T13:50:14Z</time>
      </trkpt>
      <trkpt lat="47.2881" lon="-1.62221">
        <ele>85</ele>
        <time>2022-01-27T13:50:15Z</time>
      </trkpt>
      <trkpt lat="47.28811" lon="-1.62222">
        <ele>85</ele>
        <time>2022-01-27T13:50:16Z</time>
      </trkpt>
      <trkpt lat="47.28812" lon="-1.62223">
        <ele>85</ele>
        <time>2022-01-27T13:50:17Z</time>
      </trkpt>
      <trkpt lat="47.28812" lon="-1.62224">
        <ele>85</ele>
        <time>2022-01-27T13:50:18Z</time>
      </trkpt>
      <trkpt lat="47.28814" lon="-1.62225">
        <ele>85</ele>
        <time>2022-01-27T13:50:19Z</time>
      </trkpt>
      <trkpt lat="47.28814" lon="-1.62225">
        <ele>85</ele>
        <time>2022-01-27T13:50:20Z</time>
      </trkpt>
      <trkpt lat="47.28815" lon="-1.62226">
        <ele>84</ele>
        <time>2022-01-27T13:50:21Z</time>
      </trkpt>
      <trkpt lat="47.28816" lon="-1.62226">
        <ele>85</ele>
        <time>2022-01-27T13:50:22Z</time>
      </trkpt>
      <trkpt lat="47.28816" lon="-1.62227">
        <ele>85</ele>
        <time>2022-01-27T13:50:23Z</time>
      </trkpt>
      <trkpt lat="47.28817" lon="-1.62228">
        <ele>85</ele>
        <time>2022-01-27T13:50:24Z</time>
      </trkpt>
      <trkpt lat="47.28818" lon="-1.62229">
        <ele>85</ele>
        <time>2022-01-27T13:50:25Z</time>
      </trkpt>
      <trkpt lat="47.2882" lon="-1.62231">
        <ele>84</ele>
        <time>2022-01-27T13:50:26Z</time>
      </trkpt>
      <trkpt lat="47.28821" lon="-1.62232">
        <ele>84</ele>
        <time>2022-01-27T13:50:27Z</time>
      </trkpt>
      <trkpt lat="47.28823" lon="-1.62234">
        <ele>84</ele>
        <time>2022-01-27T13:50:28Z</time>
      </trkpt>
      <trkpt lat="47.28824" lon="-1.62234">
        <ele>84</ele>
        <time>2022-01-27T13:50:29Z</time>
      </trkpt>
      <trkpt lat="47.28826" lon="-1.62235">
        <ele>83</ele>
        <time>2022-01-27T13:50:30Z</time>
      </trkpt>
      <trkpt lat="47.28827" lon="-1.62236">
        <ele>83</ele>
        <time>2022-01-27T13:50:31Z</time>
      </trkpt>
      <trkpt lat="47.28828" lon="-1.62237">
        <ele>83</ele>
        <time>2022-01-27T13:50:32Z</time>
      </trkpt>
      <trkpt lat="47.28829" lon="-1.62237">
        <ele>82</ele>
        <time>2022-01-27T13:50:33Z</time>
      </trkpt>
      <trkpt lat="47.2883" lon="-1.62237">
        <ele>83</ele>
        <time>2022-01-27T13:50:34Z</time>
      </trkpt>
      <trkpt lat="47.2883" lon="-1.62237">
        <ele>83</ele>
        <time>2022-01-27T13:50:35Z</time>
      </trkpt>
      <trkpt lat="47.2883" lon="-1.62237">
        <ele>83</ele>
        <time>2022-01-27T13:50:36Z</time>
      </trkpt>
      <trkpt lat="47.28833" lon="-1.62239">
        <ele>83</ele>
        <time>2022-01-27T13:50:37Z</time>
      </trkpt>
      <trkpt lat="47.28834" lon="-1.62239">
        <ele>83</ele>
        <time>2022-01-27T13:50:38Z</time>
      </trkpt>
      <trkpt lat="47.28836" lon="-1.6224">
        <ele>83</ele>
        <time>2022-01-27T13:50:39Z</time>
      </trkpt>
      <trkpt lat="47.28838" lon="-1.62241">
        <ele>83</ele>
        <time>2022-01-27T13:50:40Z</time>
      </trkpt>
      <trkpt lat="47.28839" lon="-1.62242">
        <ele>83</ele>
        <time>2022-01-27T13:50:41Z</time>
      </trkpt>
      <trkpt lat="47.2884" lon="-1.62242">
        <ele>82</ele>
        <time>2022-01-27T13:50:42Z</time>
      </trkpt>
      <trkpt lat="47.28841" lon="-1.62242">
        <ele>83</ele>
        <time>2022-01-27T13:50:43Z</time>
      </trkpt>
      <trkpt lat="47.28843" lon="-1.62243">
        <ele>83</ele>
        <time>2022-01-27T13:50:44Z</time>
      </trkpt>
      <trkpt lat="47.28843" lon="-1.62243">
        <ele>83</ele>
        <time>2022-01-27T13:50:45Z</time>
      </trkpt>
      <trkpt lat="47.28843" lon="-1.62243">
        <ele>83</ele>
        <time>2022-01-27T13:50:46Z</time>
      </trkpt>
      <trkpt lat="47.28845" lon="-1.62244">
        <ele>83</ele>
        <time>2022-01-27T13:50:47Z</time>
      </trkpt>
      <trkpt lat="47.28846" lon="-1.62244">
        <ele>84</ele>
        <time>2022-01-27T13:50:48Z</time>
      </trkpt>
      <trkpt lat="47.28846" lon="-1.62244">
        <ele>84</ele>
        <time>2022-01-27T13:50:49Z</time>
      </trkpt>
      <trkpt lat="47.28847" lon="-1.62245">
        <ele>84</ele>
        <time>2022-01-27T13:50:50Z</time>
      </trkpt>
      <trkpt lat="47.28848" lon="-1.62246">
        <ele>84</ele>
        <time>2022-01-27T13:50:51Z</time>
      </trkpt>
      <trkpt lat="47.28849" lon="-1.62247">
        <ele>84</ele>
        <time>2022-01-27T13:50:52Z</time>
      </trkpt>
      <trkpt lat="47.28851" lon="-1.62249">
        <ele>84</ele>
        <time>2022-01-27T13:50:53Z</time>
      </trkpt>
      <trkpt lat="47.28851" lon="-1.62249">
        <ele>84</ele>
        <time>2022-01-27T13:50:54Z</time>
      </trkpt>
      <trkpt lat="47.28853" lon="-1.6225">
        <ele>84</ele>
        <time>2022-01-27T13:50:55Z</time>
      </trkpt>
      <trkpt lat="47.28854" lon="-1.6225">
        <ele>83</ele>
        <time>2022-01-27T13:50:56Z</time>
      </trkpt>
      <trkpt lat="47.28856" lon="-1.62251">
        <ele>83</ele>
        <time>2022-01-27T13:50:57Z</time>
      </trkpt>
      <trkpt lat="47.28857" lon="-1.62251">
        <ele>83</ele>
        <time>2022-01-27T13:50:58Z</time>
      </trkpt>
      <trkpt lat="47.28857" lon="-1.62251">
        <ele>82</ele>
        <time>2022-01-27T13:50:59Z</time>
      </trkpt>
      <trkpt lat="47.28859" lon="-1.62251">
        <ele>83</ele>
        <time>2022-01-27T13:51:00Z</time>
      </trkpt>
      <trkpt lat="47.2886" lon="-1.62252">
        <ele>83</ele>
        <time>2022-01-27T13:51:01Z</time>
      </trkpt>
      <trkpt lat="47.28861" lon="-1.62253">
        <ele>84</ele>
        <time>2022-01-27T13:51:02Z</time>
      </trkpt>
      <trkpt lat="47.28862" lon="-1.62254">
        <ele>84</ele>
        <time>2022-01-27T13:51:03Z</time>
      </trkpt>
      <trkpt lat="47.28863" lon="-1.62255">
        <ele>83</ele>
        <time>2022-01-27T13:51:04Z</time>
      </trkpt>
      <trkpt lat="47.28864" lon="-1.62255">
        <ele>83</ele>
        <time>2022-01-27T13:51:05Z</time>
      </trkpt>
      <trkpt lat="47.28864" lon="-1.62255">
        <ele>83</ele>
        <time>2022-01-27T13:51:06Z</time>
      </trkpt>
      <trkpt lat="47.28867" lon="-1.62257">
        <ele>84</ele>
        <time>2022-01-27T13:51:07Z</time>
      </trkpt>
      <trkpt lat="47.28868" lon="-1.62258">
        <ele>83</ele>
        <time>2022-01-27T13:51:08Z</time>
      </trkpt>
      <trkpt lat="47.28869" lon="-1.62258">
        <ele>83</ele>
        <time>2022-01-27T13:51:09Z</time>
      </trkpt>
      <trkpt lat="47.2887" lon="-1.62259">
        <ele>83</ele>
        <time>2022-01-27T13:51:10Z</time>
      </trkpt>
      <trkpt lat="47.28872" lon="-1.6226">
        <ele>83</ele>
        <time>2022-01-27T13:51:11Z</time>
      </trkpt>
      <trkpt lat="47.28873" lon="-1.62261">
        <ele>84</ele>
        <time>2022-01-27T13:51:12Z</time>
      </trkpt>
      <trkpt lat="47.28874" lon="-1.62261">
        <ele>84</ele>
        <time>2022-01-27T13:51:13Z</time>
      </trkpt>
      <trkpt lat="47.28875" lon="-1.62262">
        <ele>84</ele>
        <time>2022-01-27T13:51:14Z</time>
      </trkpt>
      <trkpt lat="47.28876" lon="-1.62262">
        <ele>84</ele>
        <time>2022-01-27T13:51:15Z</time>
      </trkpt>
      <trkpt lat="47.28876" lon="-1.62262">
        <ele>84</ele>
        <time>2022-01-27T13:51:16Z</time>
      </trkpt>
      <trkpt lat="47.28876" lon="-1.62262">
        <ele>84</ele>
        <time>2022-01-27T13:51:17Z</time>
      </trkpt>
      <trkpt lat="47.28878" lon="-1.62264">
        <ele>84</ele>
        <time>2022-01-27T13:51:18Z</time>
      </trkpt>
      <trkpt lat="47.28879" lon="-1.62265">
        <ele>84</ele>
        <time>2022-01-27T13:51:19Z</time>
      </trkpt>
      <trkpt lat="47.28881" lon="-1.62266">
        <ele>84</ele>
        <time>2022-01-27T13:51:20Z</time>
      </trkpt>
      <trkpt lat="47.28882" lon="-1.62267">
        <ele>84</ele>
        <time>2022-01-27T13:51:21Z</time>
      </trkpt>
      <trkpt lat="47.28884" lon="-1.62269">
        <ele>85</ele>
        <time>2022-01-27T13:51:22Z</time>
      </trkpt>
      <trkpt lat="47.28885" lon="-1.6227">
        <ele>85</ele>
        <time>2022-01-27T13:51:23Z</time>
      </trkpt>
      <trkpt lat="47.28886" lon="-1.62271">
        <ele>84</ele>
        <time>2022-01-27T13:51:24Z</time>
      </trkpt>
      <trkpt lat="47.28888" lon="-1.62272">
        <ele>84</ele>
        <time>2022-01-27T13:51:25Z</time>
      </trkpt>
      <trkpt lat="47.2889" lon="-1.62273">
        <ele>84</ele>
        <time>2022-01-27T13:51:26Z</time>
      </trkpt>
      <trkpt lat="47.28891" lon="-1.62274">
        <ele>84</ele>
        <time>2022-01-27T13:51:27Z</time>
      </trkpt>
      <trkpt lat="47.28893" lon="-1.62275">
        <ele>83</ele>
        <time>2022-01-27T13:51:28Z</time>
      </trkpt>
      <trkpt lat="47.28894" lon="-1.62276">
        <ele>83</ele>
        <time>2022-01-27T13:51:29Z</time>
      </trkpt>
      <trkpt lat="47.28896" lon="-1.62277">
        <ele>83</ele>
        <time>2022-01-27T13:51:30Z</time>
      </trkpt>
      <trkpt lat="47.28897" lon="-1.62277">
        <ele>83</ele>
        <time>2022-01-27T13:51:31Z</time>
      </trkpt>
      <trkpt lat="47.28898" lon="-1.62277">
        <ele>83</ele>
        <time>2022-01-27T13:51:32Z</time>
      </trkpt>
      <trkpt lat="47.28899" lon="-1.62278">
        <ele>83</ele>
        <time>2022-01-27T13:51:33Z</time>
      </trkpt>
      <trkpt lat="47.28901" lon="-1.62278">
        <ele>84</ele>
        <time>2022-01-27T13:51:34Z</time>
      </trkpt>
      <trkpt lat="47.28902" lon="-1.62279">
        <ele>84</ele>
        <time>2022-01-27T13:51:35Z</time>
      </trkpt>
      <trkpt lat="47.28903" lon="-1.62279">
        <ele>83</ele>
        <time>2022-01-27T13:51:36Z</time>
      </trkpt>
      <trkpt lat="47.28904" lon="-1.6228">
        <ele>83</ele>
        <time>2022-01-27T13:51:37Z</time>
      </trkpt>
      <trkpt lat="47.28905" lon="-1.62279">
        <ele>83</ele>
        <time>2022-01-27T13:51:38Z</time>
      </trkpt>
      <trkpt lat="47.28906" lon="-1.62279">
        <ele>83</ele>
        <time>2022-01-27T13:51:39Z</time>
      </trkpt>
      <trkpt lat="47.28906" lon="-1.62279">
        <ele>83</ele>
        <time>2022-01-27T13:51:40Z</time>
      </trkpt>
      <trkpt lat="47.28908" lon="-1.6228">
        <ele>83</ele>
        <time>2022-01-27T13:51:41Z</time>
      </trkpt>
      <trkpt lat="47.28909" lon="-1.6228">
        <ele>83</ele>
        <time>2022-01-27T13:51:42Z</time>
      </trkpt>
      <trkpt lat="47.2891" lon="-1.62281">
        <ele>83</ele>
        <time>2022-01-27T13:51:43Z</time>
      </trkpt>
      <trkpt lat="47.28911" lon="-1.62281">
        <ele>83</ele>
        <time>2022-01-27T13:51:44Z</time>
      </trkpt>
      <trkpt lat="47.28911" lon="-1.62281">
        <ele>83</ele>
        <time>2022-01-27T13:51:45Z</time>
      </trkpt>
      <trkpt lat="47.28911" lon="-1.62281">
        <ele>83</ele>
        <time>2022-01-27T13:51:46Z</time>
      </trkpt>
      <trkpt lat="47.28914" lon="-1.62282">
        <ele>81</ele>
        <time>2022-01-27T13:51:47Z</time>
      </trkpt>
      <trkpt lat="47.28915" lon="-1.62282">
        <ele>82</ele>
        <time>2022-01-27T13:51:48Z</time>
      </trkpt>
      <trkpt lat="47.28916" lon="-1.62282">
        <ele>82</ele>
        <time>2022-01-27T13:51:49Z</time>
      </trkpt>
      <trkpt lat="47.28917" lon="-1.62283">
        <ele>82</ele>
        <time>2022-01-27T13:51:50Z</time>
      </trkpt>
      <trkpt lat="47.28919" lon="-1.62284">
        <ele>82</ele>
        <time>2022-01-27T13:51:51Z</time>
      </trkpt>
      <trkpt lat="47.2892" lon="-1.62284">
        <ele>82</ele>
        <time>2022-01-27T13:51:52Z</time>
      </trkpt>
      <trkpt lat="47.28922" lon="-1.62285">
        <ele>82</ele>
        <time>2022-01-27T13:51:53Z</time>
      </trkpt>
      <trkpt lat="47.28923" lon="-1.62285">
        <ele>82</ele>
        <time>2022-01-27T13:51:54Z</time>
      </trkpt>
      <trkpt lat="47.28924" lon="-1.62286">
        <ele>82</ele>
        <time>2022-01-27T13:51:55Z</time>
      </trkpt>
      <trkpt lat="47.28925" lon="-1.62287">
        <ele>82</ele>
        <time>2022-01-27T13:51:56Z</time>
      </trkpt>
      <trkpt lat="47.28926" lon="-1.62287">
        <ele>82</ele>
        <time>2022-01-27T13:51:57Z</time>
      </trkpt>
      <trkpt lat="47.28927" lon="-1.62287">
        <ele>83</ele>
        <time>2022-01-27T13:51:58Z</time>
      </trkpt>
      <trkpt lat="47.28928" lon="-1.62287">
        <ele>83</ele>
        <time>2022-01-27T13:51:59Z</time>
      </trkpt>
      <trkpt lat="47.28929" lon="-1.62288">
        <ele>84</ele>
        <time>2022-01-27T13:52:00Z</time>
      </trkpt>
      <trkpt lat="47.28929" lon="-1.62288">
        <ele>84</ele>
        <time>2022-01-27T13:52:01Z</time>
      </trkpt>
      <trkpt lat="47.28929" lon="-1.62288">
        <ele>84</ele>
        <time>2022-01-27T13:52:02Z</time>
      </trkpt>
      <trkpt lat="47.28933" lon="-1.6229">
        <ele>85</ele>
        <time>2022-01-27T13:52:03Z</time>
      </trkpt>
      <trkpt lat="47.28933" lon="-1.6229">
        <ele>85</ele>
        <time>2022-01-27T13:52:04Z</time>
      </trkpt>
      <trkpt lat="47.28935" lon="-1.62291">
        <ele>85</ele>
        <time>2022-01-27T13:52:05Z</time>
      </trkpt>
      <trkpt lat="47.28936" lon="-1.62291">
        <ele>85</ele>
        <time>2022-01-27T13:52:06Z</time>
      </trkpt>
      <trkpt lat="47.28936" lon="-1.62291">
        <ele>85</ele>
        <time>2022-01-27T13:52:07Z</time>
      </trkpt>
      <trkpt lat="47.28936" lon="-1.62291">
        <ele>85</ele>
        <time>2022-01-27T13:52:08Z</time>
      </trkpt>
      <trkpt lat="47.2894" lon="-1.62294">
        <ele>85</ele>
        <time>2022-01-27T13:52:09Z</time>
      </trkpt>
      <trkpt lat="47.28942" lon="-1.62295">
        <ele>84</ele>
        <time>2022-01-27T13:52:10Z</time>
      </trkpt>
      <trkpt lat="47.28943" lon="-1.62296">
        <ele>84</ele>
        <time>2022-01-27T13:52:11Z</time>
      </trkpt>
      <trkpt lat="47.28944" lon="-1.62297">
        <ele>85</ele>
        <time>2022-01-27T13:52:12Z</time>
      </trkpt>
      <trkpt lat="47.28945" lon="-1.62298">
        <ele>85</ele>
        <time>2022-01-27T13:52:13Z</time>
      </trkpt>
      <trkpt lat="47.28947" lon="-1.62298">
        <ele>85</ele>
        <time>2022-01-27T13:52:14Z</time>
      </trkpt>
      <trkpt lat="47.28948" lon="-1.62299">
        <ele>85</ele>
        <time>2022-01-27T13:52:15Z</time>
      </trkpt>
      <trkpt lat="47.2895" lon="-1.623">
        <ele>85</ele>
        <time>2022-01-27T13:52:16Z</time>
      </trkpt>
      <trkpt lat="47.28951" lon="-1.62301">
        <ele>85</ele>
        <time>2022-01-27T13:52:17Z</time>
      </trkpt>
      <trkpt lat="47.28952" lon="-1.62302">
        <ele>85</ele>
        <time>2022-01-27T13:52:18Z</time>
      </trkpt>
      <trkpt lat="47.28953" lon="-1.62302">
        <ele>85</ele>
        <time>2022-01-27T13:52:19Z</time>
      </trkpt>
      <trkpt lat="47.28954" lon="-1.62302">
        <ele>86</ele>
        <time>2022-01-27T13:52:20Z</time>
      </trkpt>
      <trkpt lat="47.28955" lon="-1.62302">
        <ele>86</ele>
        <time>2022-01-27T13:52:21Z</time>
      </trkpt>
      <trkpt lat="47.28957" lon="-1.62303">
        <ele>86</ele>
        <time>2022-01-27T13:52:22Z</time>
      </trkpt>
      <trkpt lat="47.28958" lon="-1.62304">
        <ele>86</ele>
        <time>2022-01-27T13:52:23Z</time>
      </trkpt>
      <trkpt lat="47.28959" lon="-1.62305">
        <ele>85</ele>
        <time>2022-01-27T13:52:24Z</time>
      </trkpt>
      <trkpt lat="47.2896" lon="-1.62306">
        <ele>86</ele>
        <time>2022-01-27T13:52:25Z</time>
      </trkpt>
      <trkpt lat="47.28962" lon="-1.62307">
        <ele>86</ele>
        <time>2022-01-27T13:52:26Z</time>
      </trkpt>
      <trkpt lat="47.28963" lon="-1.62307">
        <ele>87</ele>
        <time>2022-01-27T13:52:27Z</time>
      </trkpt>
      <trkpt lat="47.28965" lon="-1.62308">
        <ele>86</ele>
        <time>2022-01-27T13:52:28Z</time>
      </trkpt>
      <trkpt lat="47.28967" lon="-1.62309">
        <ele>86</ele>
        <time>2022-01-27T13:52:29Z</time>
      </trkpt>
      <trkpt lat="47.28968" lon="-1.62309">
        <ele>86</ele>
        <time>2022-01-27T13:52:30Z</time>
      </trkpt>
      <trkpt lat="47.28969" lon="-1.6231">
        <ele>86</ele>
        <time>2022-01-27T13:52:31Z</time>
      </trkpt>
      <trkpt lat="47.2897" lon="-1.6231">
        <ele>87</ele>
        <time>2022-01-27T13:52:32Z</time>
      </trkpt>
      <trkpt lat="47.28971" lon="-1.62311">
        <ele>87</ele>
        <time>2022-01-27T13:52:33Z</time>
      </trkpt>
      <trkpt lat="47.28972" lon="-1.62312">
        <ele>87</ele>
        <time>2022-01-27T13:52:34Z</time>
      </trkpt>
      <trkpt lat="47.28973" lon="-1.62312">
        <ele>87</ele>
        <time>2022-01-27T13:52:35Z</time>
      </trkpt>
      <trkpt lat="47.28973" lon="-1.62312">
        <ele>87</ele>
        <time>2022-01-27T13:52:36Z</time>
      </trkpt>
      <trkpt lat="47.28973" lon="-1.62312">
        <ele>87</ele>
        <time>2022-01-27T13:52:37Z</time>
      </trkpt>
      <trkpt lat="47.28976" lon="-1.62314">
        <ele>87</ele>
        <time>2022-01-27T13:52:38Z</time>
      </trkpt>
      <trkpt lat="47.28976" lon="-1.62316">
        <ele>86</ele>
        <time>2022-01-27T13:52:39Z</time>
      </trkpt>
      <trkpt lat="47.28978" lon="-1.62316">
        <ele>86</ele>
        <time>2022-01-27T13:52:40Z</time>
      </trkpt>
      <trkpt lat="47.28979" lon="-1.62316">
        <ele>85</ele>
        <time>2022-01-27T13:52:41Z</time>
      </trkpt>
      <trkpt lat="47.2898" lon="-1.62316">
        <ele>85</ele>
        <time>2022-01-27T13:52:42Z</time>
      </trkpt>
      <trkpt lat="47.28981" lon="-1.62316">
        <ele>85</ele>
        <time>2022-01-27T13:52:43Z</time>
      </trkpt>
      <trkpt lat="47.28983" lon="-1.62316">
        <ele>84</ele>
        <time>2022-01-27T13:52:44Z</time>
      </trkpt>
      <trkpt lat="47.28983" lon="-1.62316">
        <ele>84</ele>
        <time>2022-01-27T13:52:45Z</time>
      </trkpt>
      <trkpt lat="47.28983" lon="-1.62316">
        <ele>84</ele>
        <time>2022-01-27T13:52:46Z</time>
      </trkpt>
      <trkpt lat="47.28985" lon="-1.62316">
        <ele>84</ele>
        <time>2022-01-27T13:52:47Z</time>
      </trkpt>
      <trkpt lat="47.28987" lon="-1.62316">
        <ele>84</ele>
        <time>2022-01-27T13:52:48Z</time>
      </trkpt>
      <trkpt lat="47.28988" lon="-1.62315">
        <ele>84</ele>
        <time>2022-01-27T13:52:49Z</time>
      </trkpt>
      <trkpt lat="47.2899" lon="-1.62315">
        <ele>85</ele>
        <time>2022-01-27T13:52:50Z</time>
      </trkpt>
      <trkpt lat="47.28991" lon="-1.62314">
        <ele>85</ele>
        <time>2022-01-27T13:52:51Z</time>
      </trkpt>
      <trkpt lat="47.28992" lon="-1.62314">
        <ele>85</ele>
        <time>2022-01-27T13:52:52Z</time>
      </trkpt>
      <trkpt lat="47.28993" lon="-1.62314">
        <ele>84</ele>
        <time>2022-01-27T13:52:53Z</time>
      </trkpt>
      <trkpt lat="47.28993" lon="-1.62314">
        <ele>84</ele>
        <time>2022-01-27T13:52:54Z</time>
      </trkpt>
      <trkpt lat="47.28993" lon="-1.62314">
        <ele>84</ele>
        <time>2022-01-27T13:52:55Z</time>
      </trkpt>
      <trkpt lat="47.28995" lon="-1.62314">
        <ele>84</ele>
        <time>2022-01-27T13:52:56Z</time>
      </trkpt>
      <trkpt lat="47.28996" lon="-1.62314">
        <ele>83</ele>
        <time>2022-01-27T13:52:57Z</time>
      </trkpt>
      <trkpt lat="47.28997" lon="-1.62314">
        <ele>83</ele>
        <time>2022-01-27T13:52:58Z</time>
      </trkpt>
      <trkpt lat="47.28998" lon="-1.62315">
        <ele>83</ele>
        <time>2022-01-27T13:52:59Z</time>
      </trkpt>
      <trkpt lat="47.28999" lon="-1.62316">
        <ele>83</ele>
        <time>2022-01-27T13:53:00Z</time>
      </trkpt>
      <trkpt lat="47.28999" lon="-1.62316">
        <ele>83</ele>
        <time>2022-01-27T13:53:01Z</time>
      </trkpt>
      <trkpt lat="47.29" lon="-1.62318">
        <ele>82</ele>
        <time>2022-01-27T13:53:02Z</time>
      </trkpt>
      <trkpt lat="47.29" lon="-1.62319">
        <ele>82</ele>
        <time>2022-01-27T13:53:03Z</time>
      </trkpt>
      <trkpt lat="47.29001" lon="-1.6232">
        <ele>81</ele>
        <time>2022-01-27T13:53:04Z</time>
      </trkpt>
      <trkpt lat="47.29002" lon="-1.62322">
        <ele>81</ele>
        <time>2022-01-27T13:53:05Z</time>
      </trkpt>
      <trkpt lat="47.29002" lon="-1.62323">
        <ele>81</ele>
        <time>2022-01-27T13:53:06Z</time>
      </trkpt>
      <trkpt lat="47.29003" lon="-1.62324">
        <ele>81</ele>
        <time>2022-01-27T13:53:07Z</time>
      </trkpt>
      <trkpt lat="47.29004" lon="-1.62325">
        <ele>81</ele>
        <time>2022-01-27T13:53:08Z</time>
      </trkpt>
      <trkpt lat="47.29004" lon="-1.62325">
        <ele>81</ele>
        <time>2022-01-27T13:53:09Z</time>
      </trkpt>
      <trkpt lat="47.29006" lon="-1.62326">
        <ele>81</ele>
        <time>2022-01-27T13:53:10Z</time>
      </trkpt>
      <trkpt lat="47.29007" lon="-1.62327">
        <ele>80</ele>
        <time>2022-01-27T13:53:11Z</time>
      </trkpt>
      <trkpt lat="47.29007" lon="-1.62328">
        <ele>80</ele>
        <time>2022-01-27T13:53:12Z</time>
      </trkpt>
      <trkpt lat="47.29009" lon="-1.62328">
        <ele>79</ele>
        <time>2022-01-27T13:53:13Z</time>
      </trkpt>
      <trkpt lat="47.29009" lon="-1.62328">
        <ele>79</ele>
        <time>2022-01-27T13:53:14Z</time>
      </trkpt>
      <trkpt lat="47.29009" lon="-1.62328">
        <ele>79</ele>
        <time>2022-01-27T13:53:15Z</time>
      </trkpt>
      <trkpt lat="47.2901" lon="-1.62331">
        <ele>79</ele>
        <time>2022-01-27T13:53:16Z</time>
      </trkpt>
      <trkpt lat="47.29011" lon="-1.62332">
        <ele>78</ele>
        <time>2022-01-27T13:53:17Z</time>
      </trkpt>
      <trkpt lat="47.29012" lon="-1.62333">
        <ele>78</ele>
        <time>2022-01-27T13:53:18Z</time>
      </trkpt>
      <trkpt lat="47.29012" lon="-1.62334">
        <ele>78</ele>
        <time>2022-01-27T13:53:19Z</time>
      </trkpt>
      <trkpt lat="47.29012" lon="-1.62334">
        <ele>78</ele>
        <time>2022-01-27T13:53:20Z</time>
      </trkpt>
      <trkpt lat="47.29012" lon="-1.62334">
        <ele>78</ele>
        <time>2022-01-27T13:53:21Z</time>
      </trkpt>
      <trkpt lat="47.29014" lon="-1.62338">
        <ele>77</ele>
        <time>2022-01-27T13:53:22Z</time>
      </trkpt>
      <trkpt lat="47.29015" lon="-1.62339">
        <ele>76</ele>
        <time>2022-01-27T13:53:23Z</time>
      </trkpt>
      <trkpt lat="47.29015" lon="-1.62341">
        <ele>76</ele>
        <time>2022-01-27T13:53:24Z</time>
      </trkpt>
      <trkpt lat="47.29016" lon="-1.62343">
        <ele>75</ele>
        <time>2022-01-27T13:53:25Z</time>
      </trkpt>
      <trkpt lat="47.29016" lon="-1.62344">
        <ele>75</ele>
        <time>2022-01-27T13:53:26Z</time>
      </trkpt>
      <trkpt lat="47.29017" lon="-1.62346">
        <ele>75</ele>
        <time>2022-01-27T13:53:27Z</time>
      </trkpt>
      <trkpt lat="47.29017" lon="-1.62347">
        <ele>75</ele>
        <time>2022-01-27T13:53:28Z</time>
      </trkpt>
      <trkpt lat="47.29018" lon="-1.62349">
        <ele>74</ele>
        <time>2022-01-27T13:53:29Z</time>
      </trkpt>
      <trkpt lat="47.29018" lon="-1.62351">
        <ele>74</ele>
        <time>2022-01-27T13:53:30Z</time>
      </trkpt>
      <trkpt lat="47.29019" lon="-1.62352">
        <ele>74</ele>
        <time>2022-01-27T13:53:31Z</time>
      </trkpt>
      <trkpt lat="47.2902" lon="-1.62354">
        <ele>74</ele>
        <time>2022-01-27T13:53:32Z</time>
      </trkpt>
      <trkpt lat="47.2902" lon="-1.62355">
        <ele>74</ele>
        <time>2022-01-27T13:53:33Z</time>
      </trkpt>
      <trkpt lat="47.29021" lon="-1.62356">
        <ele>74</ele>
        <time>2022-01-27T13:53:34Z</time>
      </trkpt>
      <trkpt lat="47.29022" lon="-1.62358">
        <ele>74</ele>
        <time>2022-01-27T13:53:35Z</time>
      </trkpt>
      <trkpt lat="47.29022" lon="-1.6236">
        <ele>74</ele>
        <time>2022-01-27T13:53:36Z</time>
      </trkpt>
      <trkpt lat="47.29022" lon="-1.62362">
        <ele>74</ele>
        <time>2022-01-27T13:53:37Z</time>
      </trkpt>
      <trkpt lat="47.29023" lon="-1.62363">
        <ele>74</ele>
        <time>2022-01-27T13:53:38Z</time>
      </trkpt>
      <trkpt lat="47.29023" lon="-1.62365">
        <ele>74</ele>
        <time>2022-01-27T13:53:39Z</time>
      </trkpt>
      <trkpt lat="47.29023" lon="-1.62367">
        <ele>74</ele>
        <time>2022-01-27T13:53:40Z</time>
      </trkpt>
      <trkpt lat="47.29023" lon="-1.62369">
        <ele>74</ele>
        <time>2022-01-27T13:53:41Z</time>
      </trkpt>
      <trkpt lat="47.29023" lon="-1.62371">
        <ele>74</ele>
        <time>2022-01-27T13:53:42Z</time>
      </trkpt>
      <trkpt lat="47.29023" lon="-1.62372">
        <ele>73</ele>
        <time>2022-01-27T13:53:43Z</time>
      </trkpt>
      <trkpt lat="47.29023" lon="-1.62374">
        <ele>73</ele>
        <time>2022-01-27T13:53:44Z</time>
      </trkpt>
      <trkpt lat="47.29023" lon="-1.62376">
        <ele>73</ele>
        <time>2022-01-27T13:53:45Z</time>
      </trkpt>
      <trkpt lat="47.29023" lon="-1.62378">
        <ele>73</ele>
        <time>2022-01-27T13:53:46Z</time>
      </trkpt>
      <trkpt lat="47.29024" lon="-1.6238">
        <ele>73</ele>
        <time>2022-01-27T13:53:47Z</time>
      </trkpt>
      <trkpt lat="47.29025" lon="-1.62381">
        <ele>73</ele>
        <time>2022-01-27T13:53:48Z</time>
      </trkpt>
      <trkpt lat="47.29025" lon="-1.62383">
        <ele>72</ele>
        <time>2022-01-27T13:53:49Z</time>
      </trkpt>
      <trkpt lat="47.29025" lon="-1.62385">
        <ele>72</ele>
        <time>2022-01-27T13:53:50Z</time>
      </trkpt>
      <trkpt lat="47.29025" lon="-1.62386">
        <ele>72</ele>
        <time>2022-01-27T13:53:51Z</time>
      </trkpt>
      <trkpt lat="47.29026" lon="-1.62388">
        <ele>72</ele>
        <time>2022-01-27T13:53:52Z</time>
      </trkpt>
      <trkpt lat="47.29026" lon="-1.6239">
        <ele>72</ele>
        <time>2022-01-27T13:53:53Z</time>
      </trkpt>
      <trkpt lat="47.29026" lon="-1.62391">
        <ele>72</ele>
        <time>2022-01-27T13:53:54Z</time>
      </trkpt>
      <trkpt lat="47.29027" lon="-1.62393">
        <ele>72</ele>
        <time>2022-01-27T13:53:55Z</time>
      </trkpt>
      <trkpt lat="47.29028" lon="-1.62395">
        <ele>72</ele>
        <time>2022-01-27T13:53:56Z</time>
      </trkpt>
      <trkpt lat="47.29028" lon="-1.62397">
        <ele>72</ele>
        <time>2022-01-27T13:53:57Z</time>
      </trkpt>
      <trkpt lat="47.29029" lon="-1.62398">
        <ele>72</ele>
        <time>2022-01-27T13:53:58Z</time>
      </trkpt>
      <trkpt lat="47.29029" lon="-1.624">
        <ele>72</ele>
        <time>2022-01-27T13:53:59Z</time>
      </trkpt>
      <trkpt lat="47.29029" lon="-1.62402">
        <ele>72</ele>
        <time>2022-01-27T13:54:00Z</time>
      </trkpt>
      <trkpt lat="47.29028" lon="-1.62403">
        <ele>72</ele>
        <time>2022-01-27T13:54:01Z</time>
      </trkpt>
      <trkpt lat="47.29028" lon="-1.62405">
        <ele>73</ele>
        <time>2022-01-27T13:54:02Z</time>
      </trkpt>
      <trkpt lat="47.29028" lon="-1.62406">
        <ele>73</ele>
        <time>2022-01-27T13:54:03Z</time>
      </trkpt>
      <trkpt lat="47.29028" lon="-1.62408">
        <ele>73</ele>
        <time>2022-01-27T13:54:04Z</time>
      </trkpt>
      <trkpt lat="47.29028" lon="-1.6241">
        <ele>73</ele>
        <time>2022-01-27T13:54:05Z</time>
      </trkpt>
      <trkpt lat="47.29028" lon="-1.62412">
        <ele>73</ele>
        <time>2022-01-27T13:54:06Z</time>
      </trkpt>
      <trkpt lat="47.29029" lon="-1.62413">
        <ele>73</ele>
        <time>2022-01-27T13:54:07Z</time>
      </trkpt>
      <trkpt lat="47.29029" lon="-1.62415">
        <ele>73</ele>
        <time>2022-01-27T13:54:08Z</time>
      </trkpt>
      <trkpt lat="47.2903" lon="-1.62417">
        <ele>73</ele>
        <time>2022-01-27T13:54:09Z</time>
      </trkpt>
      <trkpt lat="47.2903" lon="-1.62419">
        <ele>72</ele>
        <time>2022-01-27T13:54:10Z</time>
      </trkpt>
      <trkpt lat="47.2903" lon="-1.62421">
        <ele>72</ele>
        <time>2022-01-27T13:54:11Z</time>
      </trkpt>
      <trkpt lat="47.2903" lon="-1.62423">
        <ele>72</ele>
        <time>2022-01-27T13:54:12Z</time>
      </trkpt>
      <trkpt lat="47.2903" lon="-1.62424">
        <ele>73</ele>
        <time>2022-01-27T13:54:13Z</time>
      </trkpt>
      <trkpt lat="47.2903" lon="-1.62426">
        <ele>73</ele>
        <time>2022-01-27T13:54:14Z</time>
      </trkpt>
      <trkpt lat="47.2903" lon="-1.62428">
        <ele>73</ele>
        <time>2022-01-27T13:54:15Z</time>
      </trkpt>
      <trkpt lat="47.2903" lon="-1.6243">
        <ele>73</ele>
        <time>2022-01-27T13:54:16Z</time>
      </trkpt>
      <trkpt lat="47.2903" lon="-1.62432">
        <ele>73</ele>
        <time>2022-01-27T13:54:17Z</time>
      </trkpt>
      <trkpt lat="47.29029" lon="-1.62434">
        <ele>73</ele>
        <time>2022-01-27T13:54:18Z</time>
      </trkpt>
      <trkpt lat="47.29029" lon="-1.62436">
        <ele>72</ele>
        <time>2022-01-27T13:54:19Z</time>
      </trkpt>
      <trkpt lat="47.29029" lon="-1.62438">
        <ele>72</ele>
        <time>2022-01-27T13:54:20Z</time>
      </trkpt>
      <trkpt lat="47.29028" lon="-1.6244">
        <ele>72</ele>
        <time>2022-01-27T13:54:21Z</time>
      </trkpt>
      <trkpt lat="47.29028" lon="-1.62442">
        <ele>72</ele>
        <time>2022-01-27T13:54:22Z</time>
      </trkpt>
      <trkpt lat="47.29028" lon="-1.62443">
        <ele>72</ele>
        <time>2022-01-27T13:54:23Z</time>
      </trkpt>
      <trkpt lat="47.29028" lon="-1.62445">
        <ele>72</ele>
        <time>2022-01-27T13:54:24Z</time>
      </trkpt>
      <trkpt lat="47.29028" lon="-1.62446">
        <ele>71</ele>
        <time>2022-01-27T13:54:25Z</time>
      </trkpt>
      <trkpt lat="47.29028" lon="-1.62448">
        <ele>72</ele>
        <time>2022-01-27T13:54:26Z</time>
      </trkpt>
      <trkpt lat="47.29027" lon="-1.62449">
        <ele>72</ele>
        <time>2022-01-27T13:54:27Z</time>
      </trkpt>
      <trkpt lat="47.29027" lon="-1.62449">
        <ele>72</ele>
        <time>2022-01-27T13:54:28Z</time>
      </trkpt>
      <trkpt lat="47.29027" lon="-1.62449">
        <ele>72</ele>
        <time>2022-01-27T13:54:29Z</time>
      </trkpt>
      <trkpt lat="47.29027" lon="-1.62449">
        <ele>72</ele>
        <time>2022-01-27T13:54:30Z</time>
      </trkpt>
      <trkpt lat="47.29027" lon="-1.62449">
        <ele>72</ele>
        <time>2022-01-27T13:54:31Z</time>
      </trkpt>
      <trkpt lat="47.29027" lon="-1.62449">
        <ele>72</ele>
        <time>2022-01-27T13:54:31Z</time>
      </trkpt>
      <trkpt lat="47.29027" lon="-1.62449">
        <ele>72</ele>
        <time>2022-01-27T13:54:31Z</time>
      </trkpt>
      <trkpt lat="47.29024" lon="-1.6246">
        <ele>71</ele>
        <time>2022-01-27T13:54:43Z</time>
      </trkpt>
      <trkpt lat="47.29023" lon="-1.62461">
        <ele>71</ele>
        <time>2022-01-27T13:54:44Z</time>
      </trkpt>
      <trkpt lat="47.29023" lon="-1.62463">
        <ele>71</ele>
        <time>2022-01-27T13:54:45Z</time>
      </trkpt>
      <trkpt lat="47.29022" lon="-1.62465">
        <ele>71</ele>
        <time>2022-01-27T13:54:46Z</time>
      </trkpt>
      <trkpt lat="47.29022" lon="-1.62466">
        <ele>71</ele>
        <time>2022-01-27T13:54:47Z</time>
      </trkpt>
      <trkpt lat="47.29021" lon="-1.62467">
        <ele>71</ele>
        <time>2022-01-27T13:54:48Z</time>
      </trkpt>
      <trkpt lat="47.2902" lon="-1.62468">
        <ele>72</ele>
        <time>2022-01-27T13:54:49Z</time>
      </trkpt>
      <trkpt lat="47.29019" lon="-1.62469">
        <ele>72</ele>
        <time>2022-01-27T13:54:50Z</time>
      </trkpt>
      <trkpt lat="47.29019" lon="-1.62471">
        <ele>72</ele>
        <time>2022-01-27T13:54:51Z</time>
      </trkpt>
      <trkpt lat="47.29018" lon="-1.62471">
        <ele>73</ele>
        <time>2022-01-27T13:54:52Z</time>
      </trkpt>
      <trkpt lat="47.29018" lon="-1.62472">
        <ele>73</ele>
        <time>2022-01-27T13:54:53Z</time>
      </trkpt>
      <trkpt lat="47.29017" lon="-1.62473">
        <ele>73</ele>
        <time>2022-01-27T13:54:54Z</time>
      </trkpt>
      <trkpt lat="47.29016" lon="-1.62474">
        <ele>74</ele>
        <time>2022-01-27T13:54:55Z</time>
      </trkpt>
      <trkpt lat="47.29015" lon="-1.62475">
        <ele>74</ele>
        <time>2022-01-27T13:54:56Z</time>
      </trkpt>
      <trkpt lat="47.29014" lon="-1.62476">
        <ele>74</ele>
        <time>2022-01-27T13:54:57Z</time>
      </trkpt>
      <trkpt lat="47.29012" lon="-1.62477">
        <ele>74</ele>
        <time>2022-01-27T13:54:58Z</time>
      </trkpt>
      <trkpt lat="47.29012" lon="-1.62478">
        <ele>75</ele>
        <time>2022-01-27T13:54:59Z</time>
      </trkpt>
      <trkpt lat="47.2901" lon="-1.6248">
        <ele>75</ele>
        <time>2022-01-27T13:55:00Z</time>
      </trkpt>
      <trkpt lat="47.29009" lon="-1.62481">
        <ele>75</ele>
        <time>2022-01-27T13:55:01Z</time>
      </trkpt>
      <trkpt lat="47.29009" lon="-1.62483">
        <ele>75</ele>
        <time>2022-01-27T13:55:02Z</time>
      </trkpt>
      <trkpt lat="47.29007" lon="-1.62484">
        <ele>76</ele>
        <time>2022-01-27T13:55:03Z</time>
      </trkpt>
      <trkpt lat="47.29006" lon="-1.62486">
        <ele>76</ele>
        <time>2022-01-27T13:55:04Z</time>
      </trkpt>
      <trkpt lat="47.29005" lon="-1.62488">
        <ele>76</ele>
        <time>2022-01-27T13:55:05Z</time>
      </trkpt>
      <trkpt lat="47.29005" lon="-1.62489">
        <ele>76</ele>
        <time>2022-01-27T13:55:06Z</time>
      </trkpt>
      <trkpt lat="47.29003" lon="-1.6249">
        <ele>77</ele>
        <time>2022-01-27T13:55:07Z</time>
      </trkpt>
      <trkpt lat="47.29002" lon="-1.62491">
        <ele>78</ele>
        <time>2022-01-27T13:55:08Z</time>
      </trkpt>
      <trkpt lat="47.29001" lon="-1.62492">
        <ele>78</ele>
        <time>2022-01-27T13:55:09Z</time>
      </trkpt>
      <trkpt lat="47.28999" lon="-1.62493">
        <ele>78</ele>
        <time>2022-01-27T13:55:10Z</time>
      </trkpt>
      <trkpt lat="47.28998" lon="-1.62494">
        <ele>79</ele>
        <time>2022-01-27T13:55:11Z</time>
      </trkpt>
      <trkpt lat="47.28997" lon="-1.62496">
        <ele>79</ele>
        <time>2022-01-27T13:55:12Z</time>
      </trkpt>
      <trkpt lat="47.28996" lon="-1.62497">
        <ele>80</ele>
        <time>2022-01-27T13:55:13Z</time>
      </trkpt>
      <trkpt lat="47.28994" lon="-1.62498">
        <ele>80</ele>
        <time>2022-01-27T13:55:14Z</time>
      </trkpt>
      <trkpt lat="47.28993" lon="-1.62499">
        <ele>80</ele>
        <time>2022-01-27T13:55:15Z</time>
      </trkpt>
      <trkpt lat="47.28992" lon="-1.62499">
        <ele>81</ele>
        <time>2022-01-27T13:55:16Z</time>
      </trkpt>
      <trkpt lat="47.2899" lon="-1.625">
        <ele>81</ele>
        <time>2022-01-27T13:55:17Z</time>
      </trkpt>
      <trkpt lat="47.28989" lon="-1.62501">
        <ele>82</ele>
        <time>2022-01-27T13:55:18Z</time>
      </trkpt>
      <trkpt lat="47.28988" lon="-1.62503">
        <ele>82</ele>
        <time>2022-01-27T13:55:19Z</time>
      </trkpt>
      <trkpt lat="47.28987" lon="-1.62504">
        <ele>83</ele>
        <time>2022-01-27T13:55:20Z</time>
      </trkpt>
      <trkpt lat="47.28985" lon="-1.62505">
        <ele>83</ele>
        <time>2022-01-27T13:55:21Z</time>
      </trkpt>
      <trkpt lat="47.28984" lon="-1.62506">
        <ele>83</ele>
        <time>2022-01-27T13:55:22Z</time>
      </trkpt>
      <trkpt lat="47.28983" lon="-1.62507">
        <ele>84</ele>
        <time>2022-01-27T13:55:23Z</time>
      </trkpt>
      <trkpt lat="47.28982" lon="-1.62508">
        <ele>84</ele>
        <time>2022-01-27T13:55:24Z</time>
      </trkpt>
      <trkpt lat="47.28981" lon="-1.62509">
        <ele>84</ele>
        <time>2022-01-27T13:55:25Z</time>
      </trkpt>
      <trkpt lat="47.2898" lon="-1.6251">
        <ele>84</ele>
        <time>2022-01-27T13:55:26Z</time>
      </trkpt>
      <trkpt lat="47.28978" lon="-1.62511">
        <ele>85</ele>
        <time>2022-01-27T13:55:27Z</time>
      </trkpt>
      <trkpt lat="47.28977" lon="-1.62513">
        <ele>86</ele>
        <time>2022-01-27T13:55:28Z</time>
      </trkpt>
      <trkpt lat="47.28976" lon="-1.62513">
        <ele>86</ele>
        <time>2022-01-27T13:55:29Z</time>
      </trkpt>
      <trkpt lat="47.28975" lon="-1.62514">
        <ele>86</ele>
        <time>2022-01-27T13:55:30Z</time>
      </trkpt>
      <trkpt lat="47.28974" lon="-1.62514">
        <ele>86</ele>
        <time>2022-01-27T13:55:31Z</time>
      </trkpt>
      <trkpt lat="47.28973" lon="-1.62514">
        <ele>86</ele>
        <time>2022-01-27T13:55:32Z</time>
      </trkpt>
      <trkpt lat="47.28972" lon="-1.62515">
        <ele>86</ele>
        <time>2022-01-27T13:55:33Z</time>
      </trkpt>
      <trkpt lat="47.28971" lon="-1.62516">
        <ele>86</ele>
        <time>2022-01-27T13:55:34Z</time>
      </trkpt>
      <trkpt lat="47.2897" lon="-1.62516">
        <ele>86</ele>
        <time>2022-01-27T13:55:35Z</time>
      </trkpt>
      <trkpt lat="47.28968" lon="-1.62517">
        <ele>86</ele>
        <time>2022-01-27T13:55:36Z</time>
      </trkpt>
      <trkpt lat="47.28967" lon="-1.62518">
        <ele>87</ele>
        <time>2022-01-27T13:55:37Z</time>
      </trkpt>
      <trkpt lat="47.28965" lon="-1.62519">
        <ele>87</ele>
        <time>2022-01-27T13:55:38Z</time>
      </trkpt>
      <trkpt lat="47.28965" lon="-1.6252">
        <ele>87</ele>
        <time>2022-01-27T13:55:39Z</time>
      </trkpt>
      <trkpt lat="47.28964" lon="-1.62521">
        <ele>88</ele>
        <time>2022-01-27T13:55:40Z</time>
      </trkpt>
      <trkpt lat="47.28962" lon="-1.62522">
        <ele>88</ele>
        <time>2022-01-27T13:55:41Z</time>
      </trkpt>
      <trkpt lat="47.28962" lon="-1.62523">
        <ele>88</ele>
        <time>2022-01-27T13:55:42Z</time>
      </trkpt>
      <trkpt lat="47.28961" lon="-1.62524">
        <ele>89</ele>
        <time>2022-01-27T13:55:43Z</time>
      </trkpt>
      <trkpt lat="47.2896" lon="-1.62525">
        <ele>89</ele>
        <time>2022-01-27T13:55:44Z</time>
      </trkpt>
      <trkpt lat="47.28959" lon="-1.62526">
        <ele>89</ele>
        <time>2022-01-27T13:55:45Z</time>
      </trkpt>
      <trkpt lat="47.28958" lon="-1.62526">
        <ele>89</ele>
        <time>2022-01-27T13:55:46Z</time>
      </trkpt>
      <trkpt lat="47.28957" lon="-1.62527">
        <ele>89</ele>
        <time>2022-01-27T13:55:47Z</time>
      </trkpt>
      <trkpt lat="47.28956" lon="-1.62527">
        <ele>89</ele>
        <time>2022-01-27T13:55:48Z</time>
      </trkpt>
      <trkpt lat="47.28954" lon="-1.62528">
        <ele>89</ele>
        <time>2022-01-27T13:55:49Z</time>
      </trkpt>
      <trkpt lat="47.28952" lon="-1.62529">
        <ele>88</ele>
        <time>2022-01-27T13:55:50Z</time>
      </trkpt>
      <trkpt lat="47.28951" lon="-1.6253">
        <ele>88</ele>
        <time>2022-01-27T13:55:51Z</time>
      </trkpt>
      <trkpt lat="47.2895" lon="-1.6253">
        <ele>88</ele>
        <time>2022-01-27T13:55:52Z</time>
      </trkpt>
      <trkpt lat="47.28949" lon="-1.62531">
        <ele>89</ele>
        <time>2022-01-27T13:55:53Z</time>
      </trkpt>
      <trkpt lat="47.28947" lon="-1.62532">
        <ele>88</ele>
        <time>2022-01-27T13:55:54Z</time>
      </trkpt>
      <trkpt lat="47.28946" lon="-1.62532">
        <ele>89</ele>
        <time>2022-01-27T13:55:55Z</time>
      </trkpt>
      <trkpt lat="47.28945" lon="-1.62533">
        <ele>88</ele>
        <time>2022-01-27T13:55:56Z</time>
      </trkpt>
      <trkpt lat="47.28944" lon="-1.62534">
        <ele>89</ele>
        <time>2022-01-27T13:55:57Z</time>
      </trkpt>
      <trkpt lat="47.28943" lon="-1.62534">
        <ele>89</ele>
        <time>2022-01-27T13:55:58Z</time>
      </trkpt>
      <trkpt lat="47.28941" lon="-1.62535">
        <ele>89</ele>
        <time>2022-01-27T13:55:59Z</time>
      </trkpt>
      <trkpt lat="47.2894" lon="-1.62535">
        <ele>90</ele>
        <time>2022-01-27T13:56:00Z</time>
      </trkpt>
      <trkpt lat="47.28939" lon="-1.62536">
        <ele>89</ele>
        <time>2022-01-27T13:56:01Z</time>
      </trkpt>
      <trkpt lat="47.28938" lon="-1.62536">
        <ele>89</ele>
        <time>2022-01-27T13:56:02Z</time>
      </trkpt>
      <trkpt lat="47.28936" lon="-1.62537">
        <ele>89</ele>
        <time>2022-01-27T13:56:03Z</time>
      </trkpt>
      <trkpt lat="47.28935" lon="-1.62537">
        <ele>89</ele>
        <time>2022-01-27T13:56:04Z</time>
      </trkpt>
      <trkpt lat="47.28934" lon="-1.62537">
        <ele>89</ele>
        <time>2022-01-27T13:56:05Z</time>
      </trkpt>
      <trkpt lat="47.28933" lon="-1.62538">
        <ele>89</ele>
        <time>2022-01-27T13:56:06Z</time>
      </trkpt>
      <trkpt lat="47.28932" lon="-1.62538">
        <ele>89</ele>
        <time>2022-01-27T13:56:07Z</time>
      </trkpt>
      <trkpt lat="47.28931" lon="-1.62539">
        <ele>89</ele>
        <time>2022-01-27T13:56:08Z</time>
      </trkpt>
      <trkpt lat="47.2893" lon="-1.62539">
        <ele>90</ele>
        <time>2022-01-27T13:56:09Z</time>
      </trkpt>
      <trkpt lat="47.28929" lon="-1.6254">
        <ele>90</ele>
        <time>2022-01-27T13:56:10Z</time>
      </trkpt>
      <trkpt lat="47.28928" lon="-1.62541">
        <ele>91</ele>
        <time>2022-01-27T13:56:11Z</time>
      </trkpt>
      <trkpt lat="47.28927" lon="-1.62541">
        <ele>91</ele>
        <time>2022-01-27T13:56:12Z</time>
      </trkpt>
      <trkpt lat="47.28925" lon="-1.62541">
        <ele>91</ele>
        <time>2022-01-27T13:56:13Z</time>
      </trkpt>
      <trkpt lat="47.28924" lon="-1.62541">
        <ele>91</ele>
        <time>2022-01-27T13:56:14Z</time>
      </trkpt>
      <trkpt lat="47.28923" lon="-1.62541">
        <ele>91</ele>
        <time>2022-01-27T13:56:15Z</time>
      </trkpt>
      <trkpt lat="47.28922" lon="-1.62541">
        <ele>91</ele>
        <time>2022-01-27T13:56:16Z</time>
      </trkpt>
      <trkpt lat="47.2892" lon="-1.62542">
        <ele>92</ele>
        <time>2022-01-27T13:56:17Z</time>
      </trkpt>
      <trkpt lat="47.28919" lon="-1.62542">
        <ele>92</ele>
        <time>2022-01-27T13:56:18Z</time>
      </trkpt>
      <trkpt lat="47.28918" lon="-1.62543">
        <ele>92</ele>
        <time>2022-01-27T13:56:19Z</time>
      </trkpt>
      <trkpt lat="47.28916" lon="-1.62544">
        <ele>92</ele>
        <time>2022-01-27T13:56:20Z</time>
      </trkpt>
      <trkpt lat="47.28915" lon="-1.62545">
        <ele>91</ele>
        <time>2022-01-27T13:56:21Z</time>
      </trkpt>
      <trkpt lat="47.28914" lon="-1.62546">
        <ele>91</ele>
        <time>2022-01-27T13:56:22Z</time>
      </trkpt>
      <trkpt lat="47.28913" lon="-1.62546">
        <ele>91</ele>
        <time>2022-01-27T13:56:23Z</time>
      </trkpt>
      <trkpt lat="47.28912" lon="-1.62548">
        <ele>92</ele>
        <time>2022-01-27T13:56:24Z</time>
      </trkpt>
      <trkpt lat="47.28911" lon="-1.62549">
        <ele>92</ele>
        <time>2022-01-27T13:56:25Z</time>
      </trkpt>
      <trkpt lat="47.28909" lon="-1.62549">
        <ele>91</ele>
        <time>2022-01-27T13:56:26Z</time>
      </trkpt>
      <trkpt lat="47.28908" lon="-1.6255">
        <ele>91</ele>
        <time>2022-01-27T13:56:27Z</time>
      </trkpt>
      <trkpt lat="47.28907" lon="-1.62551">
        <ele>91</ele>
        <time>2022-01-27T13:56:28Z</time>
      </trkpt>
      <trkpt lat="47.28906" lon="-1.62552">
        <ele>91</ele>
        <time>2022-01-27T13:56:29Z</time>
      </trkpt>
      <trkpt lat="47.28905" lon="-1.62552">
        <ele>91</ele>
        <time>2022-01-27T13:56:30Z</time>
      </trkpt>
      <trkpt lat="47.28904" lon="-1.62553">
        <ele>91</ele>
        <time>2022-01-27T13:56:31Z</time>
      </trkpt>
      <trkpt lat="47.28903" lon="-1.62553">
        <ele>91</ele>
        <time>2022-01-27T13:56:32Z</time>
      </trkpt>
      <trkpt lat="47.28902" lon="-1.62554">
        <ele>91</ele>
        <time>2022-01-27T13:56:33Z</time>
      </trkpt>
      <trkpt lat="47.28901" lon="-1.62555">
        <ele>91</ele>
        <time>2022-01-27T13:56:34Z</time>
      </trkpt>
      <trkpt lat="47.28899" lon="-1.62555">
        <ele>91</ele>
        <time>2022-01-27T13:56:35Z</time>
      </trkpt>
      <trkpt lat="47.28898" lon="-1.62556">
        <ele>90</ele>
        <time>2022-01-27T13:56:36Z</time>
      </trkpt>
      <trkpt lat="47.28897" lon="-1.62557">
        <ele>90</ele>
        <time>2022-01-27T13:56:37Z</time>
      </trkpt>
      <trkpt lat="47.28896" lon="-1.62558">
        <ele>90</ele>
        <time>2022-01-27T13:56:38Z</time>
      </trkpt>
      <trkpt lat="47.28896" lon="-1.62558">
        <ele>91</ele>
        <time>2022-01-27T13:56:39Z</time>
      </trkpt>
      <trkpt lat="47.28895" lon="-1.62559">
        <ele>91</ele>
        <time>2022-01-27T13:56:40Z</time>
      </trkpt>
      <trkpt lat="47.28894" lon="-1.6256">
        <ele>91</ele>
        <time>2022-01-27T13:56:41Z</time>
      </trkpt>
      <trkpt lat="47.28894" lon="-1.6256">
        <ele>91</ele>
        <time>2022-01-27T13:56:42Z</time>
      </trkpt>
      <trkpt lat="47.28893" lon="-1.62561">
        <ele>91</ele>
        <time>2022-01-27T13:56:43Z</time>
      </trkpt>
      <trkpt lat="47.28892" lon="-1.62561">
        <ele>91</ele>
        <time>2022-01-27T13:56:44Z</time>
      </trkpt>
      <trkpt lat="47.28891" lon="-1.62562">
        <ele>91</ele>
        <time>2022-01-27T13:56:45Z</time>
      </trkpt>
      <trkpt lat="47.2889" lon="-1.62563">
        <ele>92</ele>
        <time>2022-01-27T13:56:46Z</time>
      </trkpt>
      <trkpt lat="47.2889" lon="-1.62563">
        <ele>92</ele>
        <time>2022-01-27T13:56:47Z</time>
      </trkpt>
      <trkpt lat="47.28889" lon="-1.62564">
        <ele>92</ele>
        <time>2022-01-27T13:56:48Z</time>
      </trkpt>
      <trkpt lat="47.28888" lon="-1.62564">
        <ele>92</ele>
        <time>2022-01-27T13:56:49Z</time>
      </trkpt>
      <trkpt lat="47.28887" lon="-1.62565">
        <ele>92</ele>
        <time>2022-01-27T13:56:50Z</time>
      </trkpt>
      <trkpt lat="47.28886" lon="-1.62566">
        <ele>93</ele>
        <time>2022-01-27T13:56:51Z</time>
      </trkpt>
      <trkpt lat="47.28885" lon="-1.62567">
        <ele>93</ele>
        <time>2022-01-27T13:56:52Z</time>
      </trkpt>
      <trkpt lat="47.28884" lon="-1.62569">
        <ele>93</ele>
        <time>2022-01-27T13:56:53Z</time>
      </trkpt>
      <trkpt lat="47.28882" lon="-1.6257">
        <ele>92</ele>
        <time>2022-01-27T13:56:54Z</time>
      </trkpt>
      <trkpt lat="47.28881" lon="-1.6257">
        <ele>92</ele>
        <time>2022-01-27T13:56:55Z</time>
      </trkpt>
      <trkpt lat="47.28879" lon="-1.62571">
        <ele>92</ele>
        <time>2022-01-27T13:56:56Z</time>
      </trkpt>
      <trkpt lat="47.28878" lon="-1.62572">
        <ele>92</ele>
        <time>2022-01-27T13:56:57Z</time>
      </trkpt>
      <trkpt lat="47.28877" lon="-1.62572">
        <ele>92</ele>
        <time>2022-01-27T13:56:58Z</time>
      </trkpt>
      <trkpt lat="47.28875" lon="-1.62573">
        <ele>92</ele>
        <time>2022-01-27T13:56:59Z</time>
      </trkpt>
      <trkpt lat="47.28874" lon="-1.62574">
        <ele>92</ele>
        <time>2022-01-27T13:57:00Z</time>
      </trkpt>
      <trkpt lat="47.28873" lon="-1.62574">
        <ele>92</ele>
        <time>2022-01-27T13:57:01Z</time>
      </trkpt>
      <trkpt lat="47.28872" lon="-1.62575">
        <ele>92</ele>
        <time>2022-01-27T13:57:02Z</time>
      </trkpt>
      <trkpt lat="47.28871" lon="-1.62575">
        <ele>92</ele>
        <time>2022-01-27T13:57:03Z</time>
      </trkpt>
      <trkpt lat="47.2887" lon="-1.62575">
        <ele>92</ele>
        <time>2022-01-27T13:57:04Z</time>
      </trkpt>
      <trkpt lat="47.28869" lon="-1.62575">
        <ele>92</ele>
        <time>2022-01-27T13:57:05Z</time>
      </trkpt>
      <trkpt lat="47.28868" lon="-1.62576">
        <ele>92</ele>
        <time>2022-01-27T13:57:06Z</time>
      </trkpt>
      <trkpt lat="47.28867" lon="-1.62577">
        <ele>92</ele>
        <time>2022-01-27T13:57:07Z</time>
      </trkpt>
      <trkpt lat="47.28866" lon="-1.62577">
        <ele>92</ele>
        <time>2022-01-27T13:57:08Z</time>
      </trkpt>
      <trkpt lat="47.28866" lon="-1.62578">
        <ele>92</ele>
        <time>2022-01-27T13:57:09Z</time>
      </trkpt>
      <trkpt lat="47.28865" lon="-1.62579">
        <ele>91</ele>
        <time>2022-01-27T13:57:10Z</time>
      </trkpt>
      <trkpt lat="47.28864" lon="-1.62579">
        <ele>91</ele>
        <time>2022-01-27T13:57:11Z</time>
      </trkpt>
      <trkpt lat="47.28862" lon="-1.6258">
        <ele>91</ele>
        <time>2022-01-27T13:57:12Z</time>
      </trkpt>
      <trkpt lat="47.28861" lon="-1.6258">
        <ele>91</ele>
        <time>2022-01-27T13:57:13Z</time>
      </trkpt>
      <trkpt lat="47.2886" lon="-1.62581">
        <ele>91</ele>
        <time>2022-01-27T13:57:14Z</time>
      </trkpt>
      <trkpt lat="47.28859" lon="-1.62582">
        <ele>92</ele>
        <time>2022-01-27T13:57:15Z</time>
      </trkpt>
      <trkpt lat="47.28858" lon="-1.62583">
        <ele>92</ele>
        <time>2022-01-27T13:57:16Z</time>
      </trkpt>
      <trkpt lat="47.28857" lon="-1.62584">
        <ele>92</ele>
        <time>2022-01-27T13:57:17Z</time>
      </trkpt>
      <trkpt lat="47.28856" lon="-1.62585">
        <ele>93</ele>
        <time>2022-01-27T13:57:18Z</time>
      </trkpt>
      <trkpt lat="47.28855" lon="-1.62586">
        <ele>93</ele>
        <time>2022-01-27T13:57:19Z</time>
      </trkpt>
      <trkpt lat="47.28854" lon="-1.62586">
        <ele>94</ele>
        <time>2022-01-27T13:57:20Z</time>
      </trkpt>
      <trkpt lat="47.28853" lon="-1.62586">
        <ele>94</ele>
        <time>2022-01-27T13:57:21Z</time>
      </trkpt>
      <trkpt lat="47.28851" lon="-1.62586">
        <ele>94</ele>
        <time>2022-01-27T13:57:22Z</time>
      </trkpt>
      <trkpt lat="47.2885" lon="-1.62587">
        <ele>94</ele>
        <time>2022-01-27T13:57:23Z</time>
      </trkpt>
      <trkpt lat="47.28848" lon="-1.62588">
        <ele>94</ele>
        <time>2022-01-27T13:57:24Z</time>
      </trkpt>
      <trkpt lat="47.28847" lon="-1.62589">
        <ele>94</ele>
        <time>2022-01-27T13:57:25Z</time>
      </trkpt>
      <trkpt lat="47.28846" lon="-1.62589">
        <ele>94</ele>
        <time>2022-01-27T13:57:26Z</time>
      </trkpt>
      <trkpt lat="47.28845" lon="-1.62589">
        <ele>94</ele>
        <time>2022-01-27T13:57:27Z</time>
      </trkpt>
      <trkpt lat="47.28844" lon="-1.62589">
        <ele>94</ele>
        <time>2022-01-27T13:57:28Z</time>
      </trkpt>
      <trkpt lat="47.28843" lon="-1.62588">
        <ele>93</ele>
        <time>2022-01-27T13:57:29Z</time>
      </trkpt>
      <trkpt lat="47.28841" lon="-1.62588">
        <ele>93</ele>
        <time>2022-01-27T13:57:30Z</time>
      </trkpt>
      <trkpt lat="47.28841" lon="-1.62588">
        <ele>93</ele>
        <time>2022-01-27T13:57:31Z</time>
      </trkpt>
      <trkpt lat="47.2884" lon="-1.62588">
        <ele>93</ele>
        <time>2022-01-27T13:57:32Z</time>
      </trkpt>
      <trkpt lat="47.28838" lon="-1.62588">
        <ele>93</ele>
        <time>2022-01-27T13:57:33Z</time>
      </trkpt>
      <trkpt lat="47.28838" lon="-1.62588">
        <ele>93</ele>
        <time>2022-01-27T13:57:34Z</time>
      </trkpt>
      <trkpt lat="47.28837" lon="-1.62587">
        <ele>92</ele>
        <time>2022-01-27T13:57:35Z</time>
      </trkpt>
      <trkpt lat="47.28837" lon="-1.62587">
        <ele>92</ele>
        <time>2022-01-27T13:57:36Z</time>
      </trkpt>
      <trkpt lat="47.28835" lon="-1.62586">
        <ele>92</ele>
        <time>2022-01-27T13:57:37Z</time>
      </trkpt>
      <trkpt lat="47.28834" lon="-1.62585">
        <ele>92</ele>
        <time>2022-01-27T13:57:38Z</time>
      </trkpt>
      <trkpt lat="47.28833" lon="-1.62584">
        <ele>92</ele>
        <time>2022-01-27T13:57:39Z</time>
      </trkpt>
      <trkpt lat="47.28833" lon="-1.62584">
        <ele>93</ele>
        <time>2022-01-27T13:57:40Z</time>
      </trkpt>
      <trkpt lat="47.28832" lon="-1.62583">
        <ele>93</ele>
        <time>2022-01-27T13:57:41Z</time>
      </trkpt>
      <trkpt lat="47.28831" lon="-1.62582">
        <ele>94</ele>
        <time>2022-01-27T13:57:42Z</time>
      </trkpt>
      <trkpt lat="47.2883" lon="-1.6258">
        <ele>95</ele>
        <time>2022-01-27T13:57:43Z</time>
      </trkpt>
      <trkpt lat="47.28829" lon="-1.62578">
        <ele>95</ele>
        <time>2022-01-27T13:57:44Z</time>
      </trkpt>
      <trkpt lat="47.28829" lon="-1.62578">
        <ele>95</ele>
        <time>2022-01-27T13:57:44Z</time>
      </trkpt>
      <trkpt lat="47.28828" lon="-1.62577">
        <ele>95</ele>
        <time>2022-01-27T13:57:46Z</time>
      </trkpt>
      <trkpt lat="47.28827" lon="-1.62576">
        <ele>95</ele>
        <time>2022-01-27T13:57:47Z</time>
      </trkpt>
      <trkpt lat="47.28826" lon="-1.62575">
        <ele>95</ele>
        <time>2022-01-27T13:57:48Z</time>
      </trkpt>
      <trkpt lat="47.28825" lon="-1.62574">
        <ele>94</ele>
        <time>2022-01-27T13:57:49Z</time>
      </trkpt>
      <trkpt lat="47.28825" lon="-1.62572">
        <ele>94</ele>
        <time>2022-01-27T13:57:50Z</time>
      </trkpt>
      <trkpt lat="47.28824" lon="-1.6257">
        <ele>94</ele>
        <time>2022-01-27T13:57:51Z</time>
      </trkpt>
      <trkpt lat="47.28823" lon="-1.62569">
        <ele>95</ele>
        <time>2022-01-27T13:57:52Z</time>
      </trkpt>
      <trkpt lat="47.28822" lon="-1.62567">
        <ele>95</ele>
        <time>2022-01-27T13:57:53Z</time>
      </trkpt>
      <trkpt lat="47.2882" lon="-1.62567">
        <ele>95</ele>
        <time>2022-01-27T13:57:54Z</time>
      </trkpt>
      <trkpt lat="47.28819" lon="-1.62566">
        <ele>95</ele>
        <time>2022-01-27T13:57:55Z</time>
      </trkpt>
      <trkpt lat="47.28816" lon="-1.62565">
        <ele>95</ele>
        <time>2022-01-27T13:57:56Z</time>
      </trkpt>
      <trkpt lat="47.28816" lon="-1.62565">
        <ele>95</ele>
        <time>2022-01-27T13:57:56Z</time>
      </trkpt>
      <trkpt lat="47.28815" lon="-1.62565">
        <ele>95</ele>
        <time>2022-01-27T13:57:58Z</time>
      </trkpt>
      <trkpt lat="47.28814" lon="-1.62565">
        <ele>95</ele>
        <time>2022-01-27T13:57:59Z</time>
      </trkpt>
      <trkpt lat="47.28813" lon="-1.62565">
        <ele>94</ele>
        <time>2022-01-27T13:58:00Z</time>
      </trkpt>
      <trkpt lat="47.28813" lon="-1.62565">
        <ele>94</ele>
        <time>2022-01-27T13:58:01Z</time>
      </trkpt>
      <trkpt lat="47.28813" lon="-1.62565">
        <ele>94</ele>
        <time>2022-01-27T13:58:01Z</time>
      </trkpt>
      <trkpt lat="47.28811" lon="-1.62565">
        <ele>94</ele>
        <time>2022-01-27T13:58:03Z</time>
      </trkpt>
      <trkpt lat="47.28811" lon="-1.62565">
        <ele>94</ele>
        <time>2022-01-27T13:58:03Z</time>
      </trkpt>
      <trkpt lat="47.28812" lon="-1.62565">
        <ele>94</ele>
        <time>2022-01-27T13:58:05Z</time>
      </trkpt>
      <trkpt lat="47.28812" lon="-1.62565">
        <ele>94</ele>
        <time>2022-01-27T13:58:07Z</time>
      </trkpt>
      <trkpt lat="47.28812" lon="-1.62565">
        <ele>94</ele>
        <time>2022-01-27T13:58:07Z</time>
      </trkpt>
      <trkpt lat="47.28812" lon="-1.62565">
        <ele>94</ele>
        <time>2022-01-27T13:58:07Z</time>
      </trkpt>
      <trkpt lat="47.28807" lon="-1.62565">
        <ele>98</ele>
        <time>2022-01-27T13:58:52Z</time>
      </trkpt>
      <trkpt lat="47.28807" lon="-1.62564">
        <ele>98</ele>
        <time>2022-01-27T13:58:54Z</time>
      </trkpt>
      <trkpt lat="47.28807" lon="-1.62564">
        <ele>98</ele>
        <time>2022-01-27T13:58:55Z</time>
      </trkpt>
      <trkpt lat="47.28807" lon="-1.62564">
        <ele>98</ele>
        <time>2022-01-27T13:58:55Z</time>
      </trkpt>
      <trkpt lat="47.28807" lon="-1.62564">
        <ele>98</ele>
        <time>2022-01-27T13:58:55Z</time>
      </trkpt>
      <trkpt lat="47.28801" lon="-1.62569">
        <ele>98</ele>
        <time>2022-01-27T13:59:14Z</time>
      </trkpt>
      <trkpt lat="47.288" lon="-1.6257">
        <ele>98</ele>
        <time>2022-01-27T13:59:15Z</time>
      </trkpt>
      <trkpt lat="47.28799" lon="-1.6257">
        <ele>98</ele>
        <time>2022-01-27T13:59:16Z</time>
      </trkpt>
      <trkpt lat="47.28798" lon="-1.62571">
        <ele>98</ele>
        <time>2022-01-27T13:59:17Z</time>
      </trkpt>
      <trkpt lat="47.28797" lon="-1.62571">
        <ele>99</ele>
        <time>2022-01-27T13:59:18Z</time>
      </trkpt>
      <trkpt lat="47.28796" lon="-1.62571">
        <ele>99</ele>
        <time>2022-01-27T13:59:19Z</time>
      </trkpt>
      <trkpt lat="47.28796" lon="-1.62571">
        <ele>99</ele>
        <time>2022-01-27T13:59:20Z</time>
      </trkpt>
      <trkpt lat="47.28795" lon="-1.62571">
        <ele>98</ele>
        <time>2022-01-27T13:59:21Z</time>
      </trkpt>
      <trkpt lat="47.28794" lon="-1.62571">
        <ele>99</ele>
        <time>2022-01-27T13:59:22Z</time>
      </trkpt>
      <trkpt lat="47.28793" lon="-1.62571">
        <ele>98</ele>
        <time>2022-01-27T13:59:23Z</time>
      </trkpt>
      <trkpt lat="47.28792" lon="-1.62572">
        <ele>99</ele>
        <time>2022-01-27T13:59:24Z</time>
      </trkpt>
      <trkpt lat="47.28791" lon="-1.62572">
        <ele>98</ele>
        <time>2022-01-27T13:59:25Z</time>
      </trkpt>
      <trkpt lat="47.28791" lon="-1.62572">
        <ele>99</ele>
        <time>2022-01-27T13:59:26Z</time>
      </trkpt>
      <trkpt lat="47.2879" lon="-1.62573">
        <ele>99</ele>
        <time>2022-01-27T13:59:27Z</time>
      </trkpt>
      <trkpt lat="47.28788" lon="-1.62573">
        <ele>100</ele>
        <time>2022-01-27T13:59:28Z</time>
      </trkpt>
      <trkpt lat="47.28787" lon="-1.62574">
        <ele>100</ele>
        <time>2022-01-27T13:59:29Z</time>
      </trkpt>
      <trkpt lat="47.28786" lon="-1.62574">
        <ele>100</ele>
        <time>2022-01-27T13:59:30Z</time>
      </trkpt>
      <trkpt lat="47.28784" lon="-1.62574">
        <ele>100</ele>
        <time>2022-01-27T13:59:31Z</time>
      </trkpt>
      <trkpt lat="47.28783" lon="-1.62575">
        <ele>100</ele>
        <time>2022-01-27T13:59:32Z</time>
      </trkpt>
      <trkpt lat="47.28782" lon="-1.62575">
        <ele>101</ele>
        <time>2022-01-27T13:59:33Z</time>
      </trkpt>
      <trkpt lat="47.28781" lon="-1.62575">
        <ele>101</ele>
        <time>2022-01-27T13:59:34Z</time>
      </trkpt>
      <trkpt lat="47.2878" lon="-1.62575">
        <ele>101</ele>
        <time>2022-01-27T13:59:35Z</time>
      </trkpt>
      <trkpt lat="47.28778" lon="-1.62574">
        <ele>101</ele>
        <time>2022-01-27T13:59:36Z</time>
      </trkpt>
      <trkpt lat="47.28777" lon="-1.62573">
        <ele>101</ele>
        <time>2022-01-27T13:59:37Z</time>
      </trkpt>
      <trkpt lat="47.28776" lon="-1.62573">
        <ele>101</ele>
        <time>2022-01-27T13:59:38Z</time>
      </trkpt>
      <trkpt lat="47.28775" lon="-1.62573">
        <ele>102</ele>
        <time>2022-01-27T13:59:39Z</time>
      </trkpt>
      <trkpt lat="47.28773" lon="-1.62574">
        <ele>101</ele>
        <time>2022-01-27T13:59:40Z</time>
      </trkpt>
      <trkpt lat="47.28772" lon="-1.62574">
        <ele>101</ele>
        <time>2022-01-27T13:59:41Z</time>
      </trkpt>
      <trkpt lat="47.28771" lon="-1.62574">
        <ele>102</ele>
        <time>2022-01-27T13:59:42Z</time>
      </trkpt>
      <trkpt lat="47.2877" lon="-1.62574">
        <ele>101</ele>
        <time>2022-01-27T13:59:43Z</time>
      </trkpt>
      <trkpt lat="47.2877" lon="-1.62574">
        <ele>101</ele>
        <time>2022-01-27T13:59:44Z</time>
      </trkpt>
      <trkpt lat="47.28769" lon="-1.62574">
        <ele>102</ele>
        <time>2022-01-27T13:59:45Z</time>
      </trkpt>
      <trkpt lat="47.28768" lon="-1.62574">
        <ele>101</ele>
        <time>2022-01-27T13:59:46Z</time>
      </trkpt>
      <trkpt lat="47.28767" lon="-1.62574">
        <ele>101</ele>
        <time>2022-01-27T13:59:47Z</time>
      </trkpt>
      <trkpt lat="47.28766" lon="-1.62574">
        <ele>101</ele>
        <time>2022-01-27T13:59:48Z</time>
      </trkpt>
      <trkpt lat="47.28765" lon="-1.62573">
        <ele>101</ele>
        <time>2022-01-27T13:59:49Z</time>
      </trkpt>
      <trkpt lat="47.28764" lon="-1.62572">
        <ele>101</ele>
        <time>2022-01-27T13:59:50Z</time>
      </trkpt>
      <trkpt lat="47.28762" lon="-1.62572">
        <ele>101</ele>
        <time>2022-01-27T13:59:51Z</time>
      </trkpt>
      <trkpt lat="47.28761" lon="-1.62571">
        <ele>100</ele>
        <time>2022-01-27T13:59:52Z</time>
      </trkpt>
      <trkpt lat="47.2876" lon="-1.62571">
        <ele>100</ele>
        <time>2022-01-27T13:59:53Z</time>
      </trkpt>
      <trkpt lat="47.28759" lon="-1.6257">
        <ele>100</ele>
        <time>2022-01-27T13:59:54Z</time>
      </trkpt>
      <trkpt lat="47.28758" lon="-1.6257">
        <ele>100</ele>
        <time>2022-01-27T13:59:55Z</time>
      </trkpt>
      <trkpt lat="47.28757" lon="-1.62569">
        <ele>100</ele>
        <time>2022-01-27T13:59:56Z</time>
      </trkpt>
      <trkpt lat="47.28756" lon="-1.62569">
        <ele>101</ele>
        <time>2022-01-27T13:59:57Z</time>
      </trkpt>
      <trkpt lat="47.28755" lon="-1.6257">
        <ele>101</ele>
        <time>2022-01-27T13:59:58Z</time>
      </trkpt>
      <trkpt lat="47.28754" lon="-1.6257">
        <ele>101</ele>
        <time>2022-01-27T13:59:59Z</time>
      </trkpt>
      <trkpt lat="47.28753" lon="-1.62571">
        <ele>101</ele>
        <time>2022-01-27T14:00:00Z</time>
      </trkpt>
      <trkpt lat="47.28752" lon="-1.62571">
        <ele>102</ele>
        <time>2022-01-27T14:00:01Z</time>
      </trkpt>
      <trkpt lat="47.28751" lon="-1.62571">
        <ele>102</ele>
        <time>2022-01-27T14:00:02Z</time>
      </trkpt>
      <trkpt lat="47.2875" lon="-1.6257">
        <ele>101</ele>
        <time>2022-01-27T14:00:03Z</time>
      </trkpt>
      <trkpt lat="47.2875" lon="-1.62569">
        <ele>101</ele>
        <time>2022-01-27T14:00:04Z</time>
      </trkpt>
      <trkpt lat="47.28748" lon="-1.62569">
        <ele>101</ele>
        <time>2022-01-27T14:00:05Z</time>
      </trkpt>
      <trkpt lat="47.28746" lon="-1.62569">
        <ele>101</ele>
        <time>2022-01-27T14:00:06Z</time>
      </trkpt>
      <trkpt lat="47.28746" lon="-1.62568">
        <ele>100</ele>
        <time>2022-01-27T14:00:07Z</time>
      </trkpt>
      <trkpt lat="47.28745" lon="-1.62568">
        <ele>100</ele>
        <time>2022-01-27T14:00:08Z</time>
      </trkpt>
      <trkpt lat="47.28743" lon="-1.62567">
        <ele>100</ele>
        <time>2022-01-27T14:00:09Z</time>
      </trkpt>
      <trkpt lat="47.28742" lon="-1.62566">
        <ele>99</ele>
        <time>2022-01-27T14:00:10Z</time>
      </trkpt>
      <trkpt lat="47.28742" lon="-1.62566">
        <ele>99</ele>
        <time>2022-01-27T14:00:11Z</time>
      </trkpt>
      <trkpt lat="47.28741" lon="-1.62566">
        <ele>99</ele>
        <time>2022-01-27T14:00:12Z</time>
      </trkpt>
      <trkpt lat="47.28741" lon="-1.62566">
        <ele>99</ele>
        <time>2022-01-27T14:00:13Z</time>
      </trkpt>
      <trkpt lat="47.28741" lon="-1.62566">
        <ele>99</ele>
        <time>2022-01-27T14:00:14Z</time>
      </trkpt>
      <trkpt lat="47.28738" lon="-1.62563">
        <ele>97</ele>
        <time>2022-01-27T14:00:15Z</time>
      </trkpt>
      <trkpt lat="47.28737" lon="-1.62562">
        <ele>97</ele>
        <time>2022-01-27T14:00:16Z</time>
      </trkpt>
      <trkpt lat="47.28736" lon="-1.62562">
        <ele>97</ele>
        <time>2022-01-27T14:00:17Z</time>
      </trkpt>
      <trkpt lat="47.28735" lon="-1.62561">
        <ele>97</ele>
        <time>2022-01-27T14:00:18Z</time>
      </trkpt>
      <trkpt lat="47.28734" lon="-1.6256">
        <ele>97</ele>
        <time>2022-01-27T14:00:19Z</time>
      </trkpt>
      <trkpt lat="47.28733" lon="-1.6256">
        <ele>97</ele>
        <time>2022-01-27T14:00:20Z</time>
      </trkpt>
      <trkpt lat="47.28732" lon="-1.62559">
        <ele>97</ele>
        <time>2022-01-27T14:00:21Z</time>
      </trkpt>
      <trkpt lat="47.28731" lon="-1.62559">
        <ele>97</ele>
        <time>2022-01-27T14:00:22Z</time>
      </trkpt>
      <trkpt lat="47.2873" lon="-1.62559">
        <ele>97</ele>
        <time>2022-01-27T14:00:23Z</time>
      </trkpt>
      <trkpt lat="47.28729" lon="-1.62559">
        <ele>97</ele>
        <time>2022-01-27T14:00:24Z</time>
      </trkpt>
      <trkpt lat="47.28727" lon="-1.62559">
        <ele>97</ele>
        <time>2022-01-27T14:00:25Z</time>
      </trkpt>
      <trkpt lat="47.28726" lon="-1.6256">
        <ele>97</ele>
        <time>2022-01-27T14:00:26Z</time>
      </trkpt>
      <trkpt lat="47.28725" lon="-1.6256">
        <ele>97</ele>
        <time>2022-01-27T14:00:27Z</time>
      </trkpt>
      <trkpt lat="47.28723" lon="-1.6256">
        <ele>97</ele>
        <time>2022-01-27T14:00:28Z</time>
      </trkpt>
      <trkpt lat="47.28722" lon="-1.62559">
        <ele>97</ele>
        <time>2022-01-27T14:00:29Z</time>
      </trkpt>
      <trkpt lat="47.28721" lon="-1.62559">
        <ele>97</ele>
        <time>2022-01-27T14:00:30Z</time>
      </trkpt>
      <trkpt lat="47.28719" lon="-1.62559">
        <ele>97</ele>
        <time>2022-01-27T14:00:31Z</time>
      </trkpt>
      <trkpt lat="47.28718" lon="-1.62558">
        <ele>97</ele>
        <time>2022-01-27T14:00:32Z</time>
      </trkpt>
      <trkpt lat="47.28717" lon="-1.62559">
        <ele>97</ele>
        <time>2022-01-27T14:00:33Z</time>
      </trkpt>
      <trkpt lat="47.28716" lon="-1.62559">
        <ele>96</ele>
        <time>2022-01-27T14:00:34Z</time>
      </trkpt>
      <trkpt lat="47.28714" lon="-1.62558">
        <ele>96</ele>
        <time>2022-01-27T14:00:35Z</time>
      </trkpt>
      <trkpt lat="47.28713" lon="-1.62557">
        <ele>96</ele>
        <time>2022-01-27T14:00:36Z</time>
      </trkpt>
      <trkpt lat="47.28712" lon="-1.62556">
        <ele>96</ele>
        <time>2022-01-27T14:00:37Z</time>
      </trkpt>
      <trkpt lat="47.2871" lon="-1.62556">
        <ele>96</ele>
        <time>2022-01-27T14:00:38Z</time>
      </trkpt>
      <trkpt lat="47.28709" lon="-1.62556">
        <ele>96</ele>
        <time>2022-01-27T14:00:39Z</time>
      </trkpt>
      <trkpt lat="47.28708" lon="-1.62556">
        <ele>96</ele>
        <time>2022-01-27T14:00:40Z</time>
      </trkpt>
      <trkpt lat="47.28706" lon="-1.62555">
        <ele>96</ele>
        <time>2022-01-27T14:00:41Z</time>
      </trkpt>
      <trkpt lat="47.28704" lon="-1.62554">
        <ele>96</ele>
        <time>2022-01-27T14:00:42Z</time>
      </trkpt>
      <trkpt lat="47.28703" lon="-1.62553">
        <ele>96</ele>
        <time>2022-01-27T14:00:43Z</time>
      </trkpt>
      <trkpt lat="47.28701" lon="-1.62553">
        <ele>96</ele>
        <time>2022-01-27T14:00:44Z</time>
      </trkpt>
      <trkpt lat="47.287" lon="-1.62553">
        <ele>96</ele>
        <time>2022-01-27T14:00:45Z</time>
      </trkpt>
      <trkpt lat="47.28699" lon="-1.62552">
        <ele>96</ele>
        <time>2022-01-27T14:00:46Z</time>
      </trkpt>
      <trkpt lat="47.28697" lon="-1.62552">
        <ele>96</ele>
        <time>2022-01-27T14:00:47Z</time>
      </trkpt>
      <trkpt lat="47.28696" lon="-1.62552">
        <ele>97</ele>
        <time>2022-01-27T14:00:48Z</time>
      </trkpt>
      <trkpt lat="47.28694" lon="-1.62553">
        <ele>97</ele>
        <time>2022-01-27T14:00:49Z</time>
      </trkpt>
      <trkpt lat="47.28693" lon="-1.62553">
        <ele>97</ele>
        <time>2022-01-27T14:00:50Z</time>
      </trkpt>
      <trkpt lat="47.28692" lon="-1.62552">
        <ele>98</ele>
        <time>2022-01-27T14:00:51Z</time>
      </trkpt>
      <trkpt lat="47.2869" lon="-1.62552">
        <ele>97</ele>
        <time>2022-01-27T14:00:52Z</time>
      </trkpt>
      <trkpt lat="47.28689" lon="-1.62551">
        <ele>97</ele>
        <time>2022-01-27T14:00:53Z</time>
      </trkpt>
      <trkpt lat="47.28688" lon="-1.62551">
        <ele>97</ele>
        <time>2022-01-27T14:00:54Z</time>
      </trkpt>
      <trkpt lat="47.28687" lon="-1.62551">
        <ele>97</ele>
        <time>2022-01-27T14:00:55Z</time>
      </trkpt>
      <trkpt lat="47.28686" lon="-1.6255">
        <ele>97</ele>
        <time>2022-01-27T14:00:56Z</time>
      </trkpt>
      <trkpt lat="47.28685" lon="-1.6255">
        <ele>97</ele>
        <time>2022-01-27T14:00:57Z</time>
      </trkpt>
      <trkpt lat="47.28684" lon="-1.6255">
        <ele>96</ele>
        <time>2022-01-27T14:00:58Z</time>
      </trkpt>
      <trkpt lat="47.28682" lon="-1.62549">
        <ele>96</ele>
        <time>2022-01-27T14:00:59Z</time>
      </trkpt>
      <trkpt lat="47.28681" lon="-1.62549">
        <ele>97</ele>
        <time>2022-01-27T14:01:00Z</time>
      </trkpt>
      <trkpt lat="47.2868" lon="-1.62549">
        <ele>96</ele>
        <time>2022-01-27T14:01:01Z</time>
      </trkpt>
      <trkpt lat="47.28679" lon="-1.62548">
        <ele>96</ele>
        <time>2022-01-27T14:01:02Z</time>
      </trkpt>
      <trkpt lat="47.28678" lon="-1.62548">
        <ele>96</ele>
        <time>2022-01-27T14:01:03Z</time>
      </trkpt>
      <trkpt lat="47.28677" lon="-1.62548">
        <ele>96</ele>
        <time>2022-01-27T14:01:04Z</time>
      </trkpt>
      <trkpt lat="47.28676" lon="-1.62548">
        <ele>96</ele>
        <time>2022-01-27T14:01:05Z</time>
      </trkpt>
      <trkpt lat="47.28674" lon="-1.62548">
        <ele>96</ele>
        <time>2022-01-27T14:01:06Z</time>
      </trkpt>
      <trkpt lat="47.28673" lon="-1.62548">
        <ele>96</ele>
        <time>2022-01-27T14:01:07Z</time>
      </trkpt>
      <trkpt lat="47.28672" lon="-1.62548">
        <ele>96</ele>
        <time>2022-01-27T14:01:08Z</time>
      </trkpt>
      <trkpt lat="47.28671" lon="-1.62548">
        <ele>95</ele>
        <time>2022-01-27T14:01:09Z</time>
      </trkpt>
      <trkpt lat="47.28669" lon="-1.62547">
        <ele>95</ele>
        <time>2022-01-27T14:01:10Z</time>
      </trkpt>
      <trkpt lat="47.28669" lon="-1.62547">
        <ele>95</ele>
        <time>2022-01-27T14:01:11Z</time>
      </trkpt>
      <trkpt lat="47.28667" lon="-1.62546">
        <ele>96</ele>
        <time>2022-01-27T14:01:12Z</time>
      </trkpt>
      <trkpt lat="47.28666" lon="-1.62546">
        <ele>96</ele>
        <time>2022-01-27T14:01:13Z</time>
      </trkpt>
      <trkpt lat="47.28665" lon="-1.62545">
        <ele>96</ele>
        <time>2022-01-27T14:01:14Z</time>
      </trkpt>
      <trkpt lat="47.28664" lon="-1.62545">
        <ele>95</ele>
        <time>2022-01-27T14:01:15Z</time>
      </trkpt>
      <trkpt lat="47.28663" lon="-1.62544">
        <ele>96</ele>
        <time>2022-01-27T14:01:16Z</time>
      </trkpt>
      <trkpt lat="47.28661" lon="-1.62544">
        <ele>96</ele>
        <time>2022-01-27T14:01:17Z</time>
      </trkpt>
      <trkpt lat="47.28661" lon="-1.62543">
        <ele>96</ele>
        <time>2022-01-27T14:01:18Z</time>
      </trkpt>
      <trkpt lat="47.28659" lon="-1.62543">
        <ele>95</ele>
        <time>2022-01-27T14:01:19Z</time>
      </trkpt>
      <trkpt lat="47.28659" lon="-1.62543">
        <ele>95</ele>
        <time>2022-01-27T14:01:20Z</time>
      </trkpt>
      <trkpt lat="47.28658" lon="-1.62542">
        <ele>95</ele>
        <time>2022-01-27T14:01:21Z</time>
      </trkpt>
      <trkpt lat="47.28657" lon="-1.62542">
        <ele>94</ele>
        <time>2022-01-27T14:01:22Z</time>
      </trkpt>
      <trkpt lat="47.28656" lon="-1.62542">
        <ele>94</ele>
        <time>2022-01-27T14:01:23Z</time>
      </trkpt>
      <trkpt lat="47.28654" lon="-1.62541">
        <ele>94</ele>
        <time>2022-01-27T14:01:24Z</time>
      </trkpt>
      <trkpt lat="47.28653" lon="-1.62541">
        <ele>94</ele>
        <time>2022-01-27T14:01:25Z</time>
      </trkpt>
      <trkpt lat="47.28651" lon="-1.62541">
        <ele>93</ele>
        <time>2022-01-27T14:01:26Z</time>
      </trkpt>
      <trkpt lat="47.2865" lon="-1.62541">
        <ele>93</ele>
        <time>2022-01-27T14:01:27Z</time>
      </trkpt>
      <trkpt lat="47.28648" lon="-1.62541">
        <ele>92</ele>
        <time>2022-01-27T14:01:28Z</time>
      </trkpt>
      <trkpt lat="47.28647" lon="-1.62541">
        <ele>92</ele>
        <time>2022-01-27T14:01:29Z</time>
      </trkpt>
      <trkpt lat="47.28646" lon="-1.62541">
        <ele>92</ele>
        <time>2022-01-27T14:01:30Z</time>
      </trkpt>
      <trkpt lat="47.28645" lon="-1.62541">
        <ele>93</ele>
        <time>2022-01-27T14:01:31Z</time>
      </trkpt>
      <trkpt lat="47.28643" lon="-1.62542">
        <ele>92</ele>
        <time>2022-01-27T14:01:32Z</time>
      </trkpt>
      <trkpt lat="47.28642" lon="-1.62541">
        <ele>93</ele>
        <time>2022-01-27T14:01:33Z</time>
      </trkpt>
      <trkpt lat="47.28641" lon="-1.62541">
        <ele>92</ele>
        <time>2022-01-27T14:01:34Z</time>
      </trkpt>
      <trkpt lat="47.28641" lon="-1.62541">
        <ele>92</ele>
        <time>2022-01-27T14:01:35Z</time>
      </trkpt>
      <trkpt lat="47.2864" lon="-1.62541">
        <ele>91</ele>
        <time>2022-01-27T14:01:36Z</time>
      </trkpt>
      <trkpt lat="47.2864" lon="-1.62541">
        <ele>90</ele>
        <time>2022-01-27T14:01:37Z</time>
      </trkpt>
      <trkpt lat="47.28639" lon="-1.62541">
        <ele>91</ele>
        <time>2022-01-27T14:01:38Z</time>
      </trkpt>
      <trkpt lat="47.28639" lon="-1.62541">
        <ele>91</ele>
        <time>2022-01-27T14:01:39Z</time>
      </trkpt>
      <trkpt lat="47.28639" lon="-1.62541">
        <ele>91</ele>
        <time>2022-01-27T14:01:40Z</time>
      </trkpt>
      <trkpt lat="47.28639" lon="-1.62541">
        <ele>91</ele>
        <time>2022-01-27T14:01:40Z</time>
      </trkpt>
      <trkpt lat="47.28632" lon="-1.62539">
        <ele>92</ele>
        <time>2022-01-27T14:01:50Z</time>
      </trkpt>
      <trkpt lat="47.28631" lon="-1.6254">
        <ele>92</ele>
        <time>2022-01-27T14:01:51Z</time>
      </trkpt>
      <trkpt lat="47.2863" lon="-1.62539">
        <ele>92</ele>
        <time>2022-01-27T14:01:52Z</time>
      </trkpt>
      <trkpt lat="47.28629" lon="-1.62539">
        <ele>92</ele>
        <time>2022-01-27T14:01:53Z</time>
      </trkpt>
      <trkpt lat="47.28627" lon="-1.62538">
        <ele>91</ele>
        <time>2022-01-27T14:01:54Z</time>
      </trkpt>
      <trkpt lat="47.28627" lon="-1.62538">
        <ele>91</ele>
        <time>2022-01-27T14:01:55Z</time>
      </trkpt>
      <trkpt lat="47.28627" lon="-1.62538">
        <ele>91</ele>
        <time>2022-01-27T14:01:56Z</time>
      </trkpt>
      <trkpt lat="47.28627" lon="-1.62538">
        <ele>91</ele>
        <time>2022-01-27T14:01:57Z</time>
      </trkpt>
      <trkpt lat="47.28625" lon="-1.62536">
        <ele>91</ele>
        <time>2022-01-27T14:01:58Z</time>
      </trkpt>
      <trkpt lat="47.28624" lon="-1.62537">
        <ele>91</ele>
        <time>2022-01-27T14:01:59Z</time>
      </trkpt>
      <trkpt lat="47.28622" lon="-1.62537">
        <ele>91</ele>
        <time>2022-01-27T14:02:00Z</time>
      </trkpt>
      <trkpt lat="47.28621" lon="-1.62537">
        <ele>90</ele>
        <time>2022-01-27T14:02:01Z</time>
      </trkpt>
      <trkpt lat="47.2862" lon="-1.62538">
        <ele>90</ele>
        <time>2022-01-27T14:02:02Z</time>
      </trkpt>
      <trkpt lat="47.28619" lon="-1.62538">
        <ele>90</ele>
        <time>2022-01-27T14:02:03Z</time>
      </trkpt>
      <trkpt lat="47.28619" lon="-1.62538">
        <ele>90</ele>
        <time>2022-01-27T14:02:04Z</time>
      </trkpt>
      <trkpt lat="47.28619" lon="-1.62538">
        <ele>90</ele>
        <time>2022-01-27T14:02:05Z</time>
      </trkpt>
      <trkpt lat="47.28616" lon="-1.62537">
        <ele>91</ele>
        <time>2022-01-27T14:02:06Z</time>
      </trkpt>
      <trkpt lat="47.28615" lon="-1.62536">
        <ele>90</ele>
        <time>2022-01-27T14:02:07Z</time>
      </trkpt>
      <trkpt lat="47.28614" lon="-1.62536">
        <ele>91</ele>
        <time>2022-01-27T14:02:08Z</time>
      </trkpt>
      <trkpt lat="47.28613" lon="-1.62534">
        <ele>90</ele>
        <time>2022-01-27T14:02:09Z</time>
      </trkpt>
      <trkpt lat="47.28612" lon="-1.62534">
        <ele>90</ele>
        <time>2022-01-27T14:02:10Z</time>
      </trkpt>
      <trkpt lat="47.28611" lon="-1.62533">
        <ele>90</ele>
        <time>2022-01-27T14:02:11Z</time>
      </trkpt>
      <trkpt lat="47.2861" lon="-1.62533">
        <ele>90</ele>
        <time>2022-01-27T14:02:12Z</time>
      </trkpt>
      <trkpt lat="47.28609" lon="-1.62532">
        <ele>90</ele>
        <time>2022-01-27T14:02:13Z</time>
      </trkpt>
      <trkpt lat="47.28607" lon="-1.62531">
        <ele>89</ele>
        <time>2022-01-27T14:02:14Z</time>
      </trkpt>
      <trkpt lat="47.28606" lon="-1.62531">
        <ele>89</ele>
        <time>2022-01-27T14:02:15Z</time>
      </trkpt>
      <trkpt lat="47.28605" lon="-1.6253">
        <ele>88</ele>
        <time>2022-01-27T14:02:16Z</time>
      </trkpt>
      <trkpt lat="47.28603" lon="-1.62529">
        <ele>88</ele>
        <time>2022-01-27T14:02:17Z</time>
      </trkpt>
      <trkpt lat="47.28601" lon="-1.62529">
        <ele>88</ele>
        <time>2022-01-27T14:02:18Z</time>
      </trkpt>
      <trkpt lat="47.286" lon="-1.62528">
        <ele>88</ele>
        <time>2022-01-27T14:02:19Z</time>
      </trkpt>
      <trkpt lat="47.28598" lon="-1.62528">
        <ele>88</ele>
        <time>2022-01-27T14:02:20Z</time>
      </trkpt>
      <trkpt lat="47.28597" lon="-1.62527">
        <ele>88</ele>
        <time>2022-01-27T14:02:21Z</time>
      </trkpt>
      <trkpt lat="47.28596" lon="-1.62527">
        <ele>88</ele>
        <time>2022-01-27T14:02:22Z</time>
      </trkpt>
      <trkpt lat="47.28594" lon="-1.62526">
        <ele>88</ele>
        <time>2022-01-27T14:02:23Z</time>
      </trkpt>
      <trkpt lat="47.28593" lon="-1.62526">
        <ele>88</ele>
        <time>2022-01-27T14:02:24Z</time>
      </trkpt>
      <trkpt lat="47.28592" lon="-1.62526">
        <ele>89</ele>
        <time>2022-01-27T14:02:25Z</time>
      </trkpt>
      <trkpt lat="47.28591" lon="-1.62525">
        <ele>89</ele>
        <time>2022-01-27T14:02:26Z</time>
      </trkpt>
      <trkpt lat="47.2859" lon="-1.62525">
        <ele>90</ele>
        <time>2022-01-27T14:02:27Z</time>
      </trkpt>
      <trkpt lat="47.2859" lon="-1.62525">
        <ele>90</ele>
        <time>2022-01-27T14:02:28Z</time>
      </trkpt>
      <trkpt lat="47.28589" lon="-1.62524">
        <ele>90</ele>
        <time>2022-01-27T14:02:29Z</time>
      </trkpt>
      <trkpt lat="47.28587" lon="-1.62524">
        <ele>89</ele>
        <time>2022-01-27T14:02:30Z</time>
      </trkpt>
      <trkpt lat="47.28587" lon="-1.62524">
        <ele>89</ele>
        <time>2022-01-27T14:02:31Z</time>
      </trkpt>
      <trkpt lat="47.28585" lon="-1.62523">
        <ele>89</ele>
        <time>2022-01-27T14:02:32Z</time>
      </trkpt>
      <trkpt lat="47.28584" lon="-1.62523">
        <ele>89</ele>
        <time>2022-01-27T14:02:33Z</time>
      </trkpt>
      <trkpt lat="47.28583" lon="-1.62522">
        <ele>90</ele>
        <time>2022-01-27T14:02:34Z</time>
      </trkpt>
      <trkpt lat="47.28582" lon="-1.62521">
        <ele>89</ele>
        <time>2022-01-27T14:02:35Z</time>
      </trkpt>
      <trkpt lat="47.28581" lon="-1.62521">
        <ele>89</ele>
        <time>2022-01-27T14:02:36Z</time>
      </trkpt>
      <trkpt lat="47.28579" lon="-1.6252">
        <ele>89</ele>
        <time>2022-01-27T14:02:37Z</time>
      </trkpt>
      <trkpt lat="47.28578" lon="-1.6252">
        <ele>89</ele>
        <time>2022-01-27T14:02:38Z</time>
      </trkpt>
      <trkpt lat="47.28577" lon="-1.6252">
        <ele>89</ele>
        <time>2022-01-27T14:02:39Z</time>
      </trkpt>
      <trkpt lat="47.28576" lon="-1.6252">
        <ele>90</ele>
        <time>2022-01-27T14:02:40Z</time>
      </trkpt>
      <trkpt lat="47.28575" lon="-1.62519">
        <ele>90</ele>
        <time>2022-01-27T14:02:41Z</time>
      </trkpt>
      <trkpt lat="47.28574" lon="-1.62519">
        <ele>90</ele>
        <time>2022-01-27T14:02:42Z</time>
      </trkpt>
      <trkpt lat="47.28573" lon="-1.62518">
        <ele>90</ele>
        <time>2022-01-27T14:02:43Z</time>
      </trkpt>
      <trkpt lat="47.28571" lon="-1.62517">
        <ele>90</ele>
        <time>2022-01-27T14:02:44Z</time>
      </trkpt>
      <trkpt lat="47.28569" lon="-1.62517">
        <ele>90</ele>
        <time>2022-01-27T14:02:45Z</time>
      </trkpt>
      <trkpt lat="47.28568" lon="-1.62517">
        <ele>90</ele>
        <time>2022-01-27T14:02:46Z</time>
      </trkpt>
      <trkpt lat="47.28567" lon="-1.62517">
        <ele>90</ele>
        <time>2022-01-27T14:02:47Z</time>
      </trkpt>
      <trkpt lat="47.28566" lon="-1.62516">
        <ele>90</ele>
        <time>2022-01-27T14:02:48Z</time>
      </trkpt>
      <trkpt lat="47.28564" lon="-1.62516">
        <ele>90</ele>
        <time>2022-01-27T14:02:49Z</time>
      </trkpt>
      <trkpt lat="47.28563" lon="-1.62515">
        <ele>90</ele>
        <time>2022-01-27T14:02:50Z</time>
      </trkpt>
      <trkpt lat="47.28561" lon="-1.62515">
        <ele>90</ele>
        <time>2022-01-27T14:02:51Z</time>
      </trkpt>
      <trkpt lat="47.2856" lon="-1.62515">
        <ele>89</ele>
        <time>2022-01-27T14:02:52Z</time>
      </trkpt>
      <trkpt lat="47.28559" lon="-1.62515">
        <ele>89</ele>
        <time>2022-01-27T14:02:53Z</time>
      </trkpt>
      <trkpt lat="47.28557" lon="-1.62515">
        <ele>89</ele>
        <time>2022-01-27T14:02:54Z</time>
      </trkpt>
      <trkpt lat="47.28556" lon="-1.62514">
        <ele>89</ele>
        <time>2022-01-27T14:02:55Z</time>
      </trkpt>
      <trkpt lat="47.28554" lon="-1.62514">
        <ele>88</ele>
        <time>2022-01-27T14:02:56Z</time>
      </trkpt>
      <trkpt lat="47.28553" lon="-1.62514">
        <ele>89</ele>
        <time>2022-01-27T14:02:57Z</time>
      </trkpt>
      <trkpt lat="47.28552" lon="-1.62513">
        <ele>88</ele>
        <time>2022-01-27T14:02:58Z</time>
      </trkpt>
      <trkpt lat="47.2855" lon="-1.62512">
        <ele>87</ele>
        <time>2022-01-27T14:02:59Z</time>
      </trkpt>
      <trkpt lat="47.28549" lon="-1.62512">
        <ele>87</ele>
        <time>2022-01-27T14:03:00Z</time>
      </trkpt>
      <trkpt lat="47.28548" lon="-1.62511">
        <ele>87</ele>
        <time>2022-01-27T14:03:01Z</time>
      </trkpt>
      <trkpt lat="47.28547" lon="-1.62512">
        <ele>87</ele>
        <time>2022-01-27T14:03:02Z</time>
      </trkpt>
      <trkpt lat="47.28545" lon="-1.62511">
        <ele>87</ele>
        <time>2022-01-27T14:03:03Z</time>
      </trkpt>
      <trkpt lat="47.28543" lon="-1.62512">
        <ele>87</ele>
        <time>2022-01-27T14:03:04Z</time>
      </trkpt>
      <trkpt lat="47.28542" lon="-1.62512">
        <ele>87</ele>
        <time>2022-01-27T14:03:05Z</time>
      </trkpt>
      <trkpt lat="47.2854" lon="-1.62511">
        <ele>87</ele>
        <time>2022-01-27T14:03:06Z</time>
      </trkpt>
      <trkpt lat="47.28539" lon="-1.62511">
        <ele>86</ele>
        <time>2022-01-27T14:03:07Z</time>
      </trkpt>
      <trkpt lat="47.28538" lon="-1.6251">
        <ele>86</ele>
        <time>2022-01-27T14:03:08Z</time>
      </trkpt>
      <trkpt lat="47.28537" lon="-1.62509">
        <ele>87</ele>
        <time>2022-01-27T14:03:09Z</time>
      </trkpt>
      <trkpt lat="47.28537" lon="-1.62509">
        <ele>87</ele>
        <time>2022-01-27T14:03:10Z</time>
      </trkpt>
      <trkpt lat="47.28536" lon="-1.62509">
        <ele>87</ele>
        <time>2022-01-27T14:03:11Z</time>
      </trkpt>
      <trkpt lat="47.28535" lon="-1.62508">
        <ele>87</ele>
        <time>2022-01-27T14:03:12Z</time>
      </trkpt>
      <trkpt lat="47.28534" lon="-1.62508">
        <ele>87</ele>
        <time>2022-01-27T14:03:13Z</time>
      </trkpt>
      <trkpt lat="47.28532" lon="-1.62508">
        <ele>87</ele>
        <time>2022-01-27T14:03:14Z</time>
      </trkpt>
      <trkpt lat="47.28531" lon="-1.62508">
        <ele>87</ele>
        <time>2022-01-27T14:03:15Z</time>
      </trkpt>
      <trkpt lat="47.28531" lon="-1.62508">
        <ele>87</ele>
        <time>2022-01-27T14:03:16Z</time>
      </trkpt>
      <trkpt lat="47.28529" lon="-1.62508">
        <ele>86</ele>
        <time>2022-01-27T14:03:17Z</time>
      </trkpt>
      <trkpt lat="47.28529" lon="-1.62508">
        <ele>86</ele>
        <time>2022-01-27T14:03:18Z</time>
      </trkpt>
      <trkpt lat="47.28528" lon="-1.62508">
        <ele>86</ele>
        <time>2022-01-27T14:03:19Z</time>
      </trkpt>
      <trkpt lat="47.28526" lon="-1.62508">
        <ele>86</ele>
        <time>2022-01-27T14:03:20Z</time>
      </trkpt>
      <trkpt lat="47.28525" lon="-1.62508">
        <ele>86</ele>
        <time>2022-01-27T14:03:21Z</time>
      </trkpt>
      <trkpt lat="47.28524" lon="-1.62507">
        <ele>86</ele>
        <time>2022-01-27T14:03:22Z</time>
      </trkpt>
      <trkpt lat="47.28523" lon="-1.62507">
        <ele>86</ele>
        <time>2022-01-27T14:03:23Z</time>
      </trkpt>
      <trkpt lat="47.28522" lon="-1.62506">
        <ele>85</ele>
        <time>2022-01-27T14:03:24Z</time>
      </trkpt>
      <trkpt lat="47.28521" lon="-1.62506">
        <ele>85</ele>
        <time>2022-01-27T14:03:25Z</time>
      </trkpt>
      <trkpt lat="47.2852" lon="-1.62505">
        <ele>85</ele>
        <time>2022-01-27T14:03:26Z</time>
      </trkpt>
      <trkpt lat="47.28519" lon="-1.62505">
        <ele>85</ele>
        <time>2022-01-27T14:03:27Z</time>
      </trkpt>
      <trkpt lat="47.28517" lon="-1.62505">
        <ele>85</ele>
        <time>2022-01-27T14:03:28Z</time>
      </trkpt>
      <trkpt lat="47.28516" lon="-1.62504">
        <ele>85</ele>
        <time>2022-01-27T14:03:29Z</time>
      </trkpt>
      <trkpt lat="47.28515" lon="-1.62503">
        <ele>85</ele>
        <time>2022-01-27T14:03:30Z</time>
      </trkpt>
      <trkpt lat="47.28514" lon="-1.62502">
        <ele>85</ele>
        <time>2022-01-27T14:03:31Z</time>
      </trkpt>
      <trkpt lat="47.28513" lon="-1.62502">
        <ele>84</ele>
        <time>2022-01-27T14:03:32Z</time>
      </trkpt>
      <trkpt lat="47.28512" lon="-1.62501">
        <ele>84</ele>
        <time>2022-01-27T14:03:33Z</time>
      </trkpt>
      <trkpt lat="47.28511" lon="-1.62501">
        <ele>84</ele>
        <time>2022-01-27T14:03:34Z</time>
      </trkpt>
      <trkpt lat="47.28509" lon="-1.625">
        <ele>84</ele>
        <time>2022-01-27T14:03:35Z</time>
      </trkpt>
      <trkpt lat="47.28508" lon="-1.625">
        <ele>84</ele>
        <time>2022-01-27T14:03:36Z</time>
      </trkpt>
      <trkpt lat="47.28507" lon="-1.625">
        <ele>84</ele>
        <time>2022-01-27T14:03:37Z</time>
      </trkpt>
      <trkpt lat="47.28505" lon="-1.62499">
        <ele>83</ele>
        <time>2022-01-27T14:03:38Z</time>
      </trkpt>
      <trkpt lat="47.28504" lon="-1.62499">
        <ele>84</ele>
        <time>2022-01-27T14:03:39Z</time>
      </trkpt>
      <trkpt lat="47.28503" lon="-1.62499">
        <ele>84</ele>
        <time>2022-01-27T14:03:40Z</time>
      </trkpt>
      <trkpt lat="47.28501" lon="-1.62499">
        <ele>83</ele>
        <time>2022-01-27T14:03:41Z</time>
      </trkpt>
      <trkpt lat="47.285" lon="-1.62499">
        <ele>83</ele>
        <time>2022-01-27T14:03:42Z</time>
      </trkpt>
      <trkpt lat="47.28498" lon="-1.62498">
        <ele>83</ele>
        <time>2022-01-27T14:03:43Z</time>
      </trkpt>
      <trkpt lat="47.28496" lon="-1.62498">
        <ele>83</ele>
        <time>2022-01-27T14:03:44Z</time>
      </trkpt>
      <trkpt lat="47.28495" lon="-1.62497">
        <ele>83</ele>
        <time>2022-01-27T14:03:45Z</time>
      </trkpt>
      <trkpt lat="47.28494" lon="-1.62497">
        <ele>83</ele>
        <time>2022-01-27T14:03:46Z</time>
      </trkpt>
      <trkpt lat="47.28492" lon="-1.62497">
        <ele>83</ele>
        <time>2022-01-27T14:03:47Z</time>
      </trkpt>
      <trkpt lat="47.28491" lon="-1.62496">
        <ele>83</ele>
        <time>2022-01-27T14:03:48Z</time>
      </trkpt>
      <trkpt lat="47.2849" lon="-1.62496">
        <ele>83</ele>
        <time>2022-01-27T14:03:49Z</time>
      </trkpt>
      <trkpt lat="47.28489" lon="-1.62496">
        <ele>83</ele>
        <time>2022-01-27T14:03:50Z</time>
      </trkpt>
      <trkpt lat="47.28487" lon="-1.62496">
        <ele>83</ele>
        <time>2022-01-27T14:03:51Z</time>
      </trkpt>
      <trkpt lat="47.28486" lon="-1.62496">
        <ele>83</ele>
        <time>2022-01-27T14:03:52Z</time>
      </trkpt>
      <trkpt lat="47.28484" lon="-1.62496">
        <ele>83</ele>
        <time>2022-01-27T14:03:53Z</time>
      </trkpt>
      <trkpt lat="47.28483" lon="-1.62495">
        <ele>83</ele>
        <time>2022-01-27T14:03:54Z</time>
      </trkpt>
      <trkpt lat="47.28481" lon="-1.62495">
        <ele>83</ele>
        <time>2022-01-27T14:03:55Z</time>
      </trkpt>
      <trkpt lat="47.28481" lon="-1.62494">
        <ele>83</ele>
        <time>2022-01-27T14:03:56Z</time>
      </trkpt>
      <trkpt lat="47.28479" lon="-1.62493">
        <ele>83</ele>
        <time>2022-01-27T14:03:57Z</time>
      </trkpt>
      <trkpt lat="47.28478" lon="-1.62492">
        <ele>83</ele>
        <time>2022-01-27T14:03:58Z</time>
      </trkpt>
      <trkpt lat="47.28476" lon="-1.62492">
        <ele>83</ele>
        <time>2022-01-27T14:03:59Z</time>
      </trkpt>
      <trkpt lat="47.28475" lon="-1.62491">
        <ele>83</ele>
        <time>2022-01-27T14:04:00Z</time>
      </trkpt>
      <trkpt lat="47.28473" lon="-1.62491">
        <ele>83</ele>
        <time>2022-01-27T14:04:01Z</time>
      </trkpt>
      <trkpt lat="47.28473" lon="-1.62491">
        <ele>82</ele>
        <time>2022-01-27T14:04:02Z</time>
      </trkpt>
      <trkpt lat="47.28471" lon="-1.6249">
        <ele>82</ele>
        <time>2022-01-27T14:04:03Z</time>
      </trkpt>
      <trkpt lat="47.2847" lon="-1.6249">
        <ele>82</ele>
        <time>2022-01-27T14:04:04Z</time>
      </trkpt>
      <trkpt lat="47.28468" lon="-1.62491">
        <ele>81</ele>
        <time>2022-01-27T14:04:05Z</time>
      </trkpt>
      <trkpt lat="47.28466" lon="-1.6249">
        <ele>82</ele>
        <time>2022-01-27T14:04:06Z</time>
      </trkpt>
      <trkpt lat="47.28465" lon="-1.6249">
        <ele>82</ele>
        <time>2022-01-27T14:04:07Z</time>
      </trkpt>
      <trkpt lat="47.28464" lon="-1.62489">
        <ele>82</ele>
        <time>2022-01-27T14:04:08Z</time>
      </trkpt>
      <trkpt lat="47.28462" lon="-1.62489">
        <ele>81</ele>
        <time>2022-01-27T14:04:09Z</time>
      </trkpt>
      <trkpt lat="47.28461" lon="-1.62489">
        <ele>82</ele>
        <time>2022-01-27T14:04:10Z</time>
      </trkpt>
      <trkpt lat="47.2846" lon="-1.62489">
        <ele>81</ele>
        <time>2022-01-27T14:04:11Z</time>
      </trkpt>
      <trkpt lat="47.28459" lon="-1.62489">
        <ele>81</ele>
        <time>2022-01-27T14:04:12Z</time>
      </trkpt>
      <trkpt lat="47.28458" lon="-1.62489">
        <ele>81</ele>
        <time>2022-01-27T14:04:13Z</time>
      </trkpt>
      <trkpt lat="47.28456" lon="-1.62488">
        <ele>81</ele>
        <time>2022-01-27T14:04:14Z</time>
      </trkpt>
      <trkpt lat="47.28454" lon="-1.62488">
        <ele>82</ele>
        <time>2022-01-27T14:04:15Z</time>
      </trkpt>
      <trkpt lat="47.28453" lon="-1.62487">
        <ele>81</ele>
        <time>2022-01-27T14:04:16Z</time>
      </trkpt>
      <trkpt lat="47.28451" lon="-1.62487">
        <ele>81</ele>
        <time>2022-01-27T14:04:17Z</time>
      </trkpt>
      <trkpt lat="47.2845" lon="-1.62487">
        <ele>81</ele>
        <time>2022-01-27T14:04:18Z</time>
      </trkpt>
      <trkpt lat="47.28448" lon="-1.62487">
        <ele>81</ele>
        <time>2022-01-27T14:04:19Z</time>
      </trkpt>
      <trkpt lat="47.28447" lon="-1.62486">
        <ele>81</ele>
        <time>2022-01-27T14:04:20Z</time>
      </trkpt>
      <trkpt lat="47.28445" lon="-1.62486">
        <ele>81</ele>
        <time>2022-01-27T14:04:21Z</time>
      </trkpt>
      <trkpt lat="47.28444" lon="-1.62486">
        <ele>81</ele>
        <time>2022-01-27T14:04:22Z</time>
      </trkpt>
      <trkpt lat="47.28442" lon="-1.62486">
        <ele>81</ele>
        <time>2022-01-27T14:04:23Z</time>
      </trkpt>
      <trkpt lat="47.28441" lon="-1.62486">
        <ele>81</ele>
        <time>2022-01-27T14:04:24Z</time>
      </trkpt>
      <trkpt lat="47.28439" lon="-1.62485">
        <ele>81</ele>
        <time>2022-01-27T14:04:25Z</time>
      </trkpt>
      <trkpt lat="47.28437" lon="-1.62485">
        <ele>81</ele>
        <time>2022-01-27T14:04:26Z</time>
      </trkpt>
      <trkpt lat="47.28435" lon="-1.62485">
        <ele>82</ele>
        <time>2022-01-27T14:04:27Z</time>
      </trkpt>
      <trkpt lat="47.28433" lon="-1.62485">
        <ele>82</ele>
        <time>2022-01-27T14:04:28Z</time>
      </trkpt>
      <trkpt lat="47.28432" lon="-1.62485">
        <ele>82</ele>
        <time>2022-01-27T14:04:29Z</time>
      </trkpt>
      <trkpt lat="47.28431" lon="-1.62486">
        <ele>83</ele>
        <time>2022-01-27T14:04:30Z</time>
      </trkpt>
      <trkpt lat="47.28429" lon="-1.62486">
        <ele>83</ele>
        <time>2022-01-27T14:04:31Z</time>
      </trkpt>
      <trkpt lat="47.28428" lon="-1.62486">
        <ele>83</ele>
        <time>2022-01-27T14:04:32Z</time>
      </trkpt>
      <trkpt lat="47.28426" lon="-1.62486">
        <ele>83</ele>
        <time>2022-01-27T14:04:33Z</time>
      </trkpt>
      <trkpt lat="47.28425" lon="-1.62486">
        <ele>83</ele>
        <time>2022-01-27T14:04:34Z</time>
      </trkpt>
      <trkpt lat="47.28423" lon="-1.62486">
        <ele>83</ele>
        <time>2022-01-27T14:04:35Z</time>
      </trkpt>
      <trkpt lat="47.28422" lon="-1.62486">
        <ele>84</ele>
        <time>2022-01-27T14:04:36Z</time>
      </trkpt>
      <trkpt lat="47.2842" lon="-1.62487">
        <ele>84</ele>
        <time>2022-01-27T14:04:37Z</time>
      </trkpt>
      <trkpt lat="47.28419" lon="-1.62486">
        <ele>84</ele>
        <time>2022-01-27T14:04:38Z</time>
      </trkpt>
      <trkpt lat="47.28418" lon="-1.62486">
        <ele>84</ele>
        <time>2022-01-27T14:04:39Z</time>
      </trkpt>
      <trkpt lat="47.28416" lon="-1.62487">
        <ele>84</ele>
        <time>2022-01-27T14:04:40Z</time>
      </trkpt>
      <trkpt lat="47.28415" lon="-1.62486">
        <ele>84</ele>
        <time>2022-01-27T14:04:41Z</time>
      </trkpt>
      <trkpt lat="47.28413" lon="-1.62486">
        <ele>84</ele>
        <time>2022-01-27T14:04:42Z</time>
      </trkpt>
      <trkpt lat="47.28412" lon="-1.62486">
        <ele>84</ele>
        <time>2022-01-27T14:04:43Z</time>
      </trkpt>
      <trkpt lat="47.28411" lon="-1.62486">
        <ele>85</ele>
        <time>2022-01-27T14:04:44Z</time>
      </trkpt>
      <trkpt lat="47.2841" lon="-1.62486">
        <ele>85</ele>
        <time>2022-01-27T14:04:45Z</time>
      </trkpt>
      <trkpt lat="47.28408" lon="-1.62486">
        <ele>85</ele>
        <time>2022-01-27T14:04:46Z</time>
      </trkpt>
      <trkpt lat="47.28407" lon="-1.62487">
        <ele>85</ele>
        <time>2022-01-27T14:04:47Z</time>
      </trkpt>
      <trkpt lat="47.28406" lon="-1.62487">
        <ele>84</ele>
        <time>2022-01-27T14:04:48Z</time>
      </trkpt>
      <trkpt lat="47.28404" lon="-1.62488">
        <ele>84</ele>
        <time>2022-01-27T14:04:49Z</time>
      </trkpt>
      <trkpt lat="47.28403" lon="-1.62488">
        <ele>84</ele>
        <time>2022-01-27T14:04:50Z</time>
      </trkpt>
      <trkpt lat="47.28402" lon="-1.62488">
        <ele>84</ele>
        <time>2022-01-27T14:04:51Z</time>
      </trkpt>
      <trkpt lat="47.284" lon="-1.62489">
        <ele>84</ele>
        <time>2022-01-27T14:04:52Z</time>
      </trkpt>
      <trkpt lat="47.28399" lon="-1.62489">
        <ele>84</ele>
        <time>2022-01-27T14:04:53Z</time>
      </trkpt>
      <trkpt lat="47.28398" lon="-1.6249">
        <ele>83</ele>
        <time>2022-01-27T14:04:54Z</time>
      </trkpt>
      <trkpt lat="47.28397" lon="-1.6249">
        <ele>84</ele>
        <time>2022-01-27T14:04:55Z</time>
      </trkpt>
      <trkpt lat="47.28396" lon="-1.62491">
        <ele>84</ele>
        <time>2022-01-27T14:04:56Z</time>
      </trkpt>
      <trkpt lat="47.28394" lon="-1.62491">
        <ele>84</ele>
        <time>2022-01-27T14:04:57Z</time>
      </trkpt>
      <trkpt lat="47.28392" lon="-1.62492">
        <ele>85</ele>
        <time>2022-01-27T14:04:58Z</time>
      </trkpt>
      <trkpt lat="47.28391" lon="-1.62492">
        <ele>85</ele>
        <time>2022-01-27T14:04:59Z</time>
      </trkpt>
      <trkpt lat="47.2839" lon="-1.62493">
        <ele>85</ele>
        <time>2022-01-27T14:05:00Z</time>
      </trkpt>
      <trkpt lat="47.28389" lon="-1.62493">
        <ele>85</ele>
        <time>2022-01-27T14:05:01Z</time>
      </trkpt>
      <trkpt lat="47.28388" lon="-1.62493">
        <ele>86</ele>
        <time>2022-01-27T14:05:02Z</time>
      </trkpt>
      <trkpt lat="47.28386" lon="-1.62493">
        <ele>85</ele>
        <time>2022-01-27T14:05:03Z</time>
      </trkpt>
      <trkpt lat="47.28384" lon="-1.62494">
        <ele>85</ele>
        <time>2022-01-27T14:05:04Z</time>
      </trkpt>
      <trkpt lat="47.28383" lon="-1.62494">
        <ele>85</ele>
        <time>2022-01-27T14:05:05Z</time>
      </trkpt>
      <trkpt lat="47.28381" lon="-1.62494">
        <ele>85</ele>
        <time>2022-01-27T14:05:06Z</time>
      </trkpt>
      <trkpt lat="47.2838" lon="-1.62494">
        <ele>85</ele>
        <time>2022-01-27T14:05:07Z</time>
      </trkpt>
      <trkpt lat="47.28378" lon="-1.62495">
        <ele>85</ele>
        <time>2022-01-27T14:05:08Z</time>
      </trkpt>
      <trkpt lat="47.28376" lon="-1.62496">
        <ele>85</ele>
        <time>2022-01-27T14:05:09Z</time>
      </trkpt>
      <trkpt lat="47.28375" lon="-1.62496">
        <ele>85</ele>
        <time>2022-01-27T14:05:10Z</time>
      </trkpt>
      <trkpt lat="47.28373" lon="-1.62497">
        <ele>85</ele>
        <time>2022-01-27T14:05:11Z</time>
      </trkpt>
      <trkpt lat="47.28371" lon="-1.62498">
        <ele>85</ele>
        <time>2022-01-27T14:05:12Z</time>
      </trkpt>
      <trkpt lat="47.2837" lon="-1.62498">
        <ele>85</ele>
        <time>2022-01-27T14:05:13Z</time>
      </trkpt>
      <trkpt lat="47.28368" lon="-1.62499">
        <ele>85</ele>
        <time>2022-01-27T14:05:14Z</time>
      </trkpt>
      <trkpt lat="47.28366" lon="-1.62499">
        <ele>86</ele>
        <time>2022-01-27T14:05:15Z</time>
      </trkpt>
      <trkpt lat="47.28365" lon="-1.62499">
        <ele>86</ele>
        <time>2022-01-27T14:05:16Z</time>
      </trkpt>
      <trkpt lat="47.28363" lon="-1.625">
        <ele>87</ele>
        <time>2022-01-27T14:05:17Z</time>
      </trkpt>
      <trkpt lat="47.28362" lon="-1.625">
        <ele>87</ele>
        <time>2022-01-27T14:05:18Z</time>
      </trkpt>
      <trkpt lat="47.2836" lon="-1.62501">
        <ele>87</ele>
        <time>2022-01-27T14:05:19Z</time>
      </trkpt>
      <trkpt lat="47.28359" lon="-1.62501">
        <ele>88</ele>
        <time>2022-01-27T14:05:20Z</time>
      </trkpt>
      <trkpt lat="47.28357" lon="-1.62502">
        <ele>88</ele>
        <time>2022-01-27T14:05:21Z</time>
      </trkpt>
      <trkpt lat="47.28355" lon="-1.62503">
        <ele>88</ele>
        <time>2022-01-27T14:05:22Z</time>
      </trkpt>
      <trkpt lat="47.28354" lon="-1.62504">
        <ele>88</ele>
        <time>2022-01-27T14:05:23Z</time>
      </trkpt>
      <trkpt lat="47.28352" lon="-1.62504">
        <ele>88</ele>
        <time>2022-01-27T14:05:24Z</time>
      </trkpt>
      <trkpt lat="47.28351" lon="-1.62504">
        <ele>88</ele>
        <time>2022-01-27T14:05:25Z</time>
      </trkpt>
      <trkpt lat="47.28349" lon="-1.62504">
        <ele>89</ele>
        <time>2022-01-27T14:05:26Z</time>
      </trkpt>
      <trkpt lat="47.28348" lon="-1.62505">
        <ele>89</ele>
        <time>2022-01-27T14:05:27Z</time>
      </trkpt>
      <trkpt lat="47.28346" lon="-1.62505">
        <ele>89</ele>
        <time>2022-01-27T14:05:28Z</time>
      </trkpt>
      <trkpt lat="47.28345" lon="-1.62506">
        <ele>89</ele>
        <time>2022-01-27T14:05:29Z</time>
      </trkpt>
      <trkpt lat="47.28344" lon="-1.62506">
        <ele>89</ele>
        <time>2022-01-27T14:05:30Z</time>
      </trkpt>
      <trkpt lat="47.28342" lon="-1.62506">
        <ele>89</ele>
        <time>2022-01-27T14:05:31Z</time>
      </trkpt>
      <trkpt lat="47.28341" lon="-1.62506">
        <ele>89</ele>
        <time>2022-01-27T14:05:32Z</time>
      </trkpt>
      <trkpt lat="47.2834" lon="-1.62507">
        <ele>89</ele>
        <time>2022-01-27T14:05:33Z</time>
      </trkpt>
      <trkpt lat="47.28339" lon="-1.62507">
        <ele>89</ele>
        <time>2022-01-27T14:05:34Z</time>
      </trkpt>
      <trkpt lat="47.28337" lon="-1.62507">
        <ele>89</ele>
        <time>2022-01-27T14:05:35Z</time>
      </trkpt>
      <trkpt lat="47.28336" lon="-1.62508">
        <ele>89</ele>
        <time>2022-01-27T14:05:36Z</time>
      </trkpt>
      <trkpt lat="47.28335" lon="-1.62508">
        <ele>88</ele>
        <time>2022-01-27T14:05:37Z</time>
      </trkpt>
      <trkpt lat="47.28334" lon="-1.62509">
        <ele>88</ele>
        <time>2022-01-27T14:05:38Z</time>
      </trkpt>
      <trkpt lat="47.28332" lon="-1.62509">
        <ele>88</ele>
        <time>2022-01-27T14:05:39Z</time>
      </trkpt>
      <trkpt lat="47.2833" lon="-1.6251">
        <ele>88</ele>
        <time>2022-01-27T14:05:40Z</time>
      </trkpt>
      <trkpt lat="47.28329" lon="-1.62511">
        <ele>87</ele>
        <time>2022-01-27T14:05:41Z</time>
      </trkpt>
      <trkpt lat="47.28327" lon="-1.62511">
        <ele>87</ele>
        <time>2022-01-27T14:05:42Z</time>
      </trkpt>
      <trkpt lat="47.28326" lon="-1.62512">
        <ele>86</ele>
        <time>2022-01-27T14:05:43Z</time>
      </trkpt>
      <trkpt lat="47.28325" lon="-1.62513">
        <ele>86</ele>
        <time>2022-01-27T14:05:44Z</time>
      </trkpt>
      <trkpt lat="47.28324" lon="-1.62513">
        <ele>86</ele>
        <time>2022-01-27T14:05:45Z</time>
      </trkpt>
      <trkpt lat="47.28323" lon="-1.62513">
        <ele>86</ele>
        <time>2022-01-27T14:05:46Z</time>
      </trkpt>
      <trkpt lat="47.28322" lon="-1.62514">
        <ele>86</ele>
        <time>2022-01-27T14:05:47Z</time>
      </trkpt>
      <trkpt lat="47.28321" lon="-1.62514">
        <ele>86</ele>
        <time>2022-01-27T14:05:48Z</time>
      </trkpt>
      <trkpt lat="47.2832" lon="-1.62515">
        <ele>85</ele>
        <time>2022-01-27T14:05:49Z</time>
      </trkpt>
      <trkpt lat="47.28318" lon="-1.62515">
        <ele>85</ele>
        <time>2022-01-27T14:05:50Z</time>
      </trkpt>
      <trkpt lat="47.28317" lon="-1.62515">
        <ele>85</ele>
        <time>2022-01-27T14:05:51Z</time>
      </trkpt>
      <trkpt lat="47.28316" lon="-1.62516">
        <ele>85</ele>
        <time>2022-01-27T14:05:52Z</time>
      </trkpt>
      <trkpt lat="47.28315" lon="-1.62516">
        <ele>85</ele>
        <time>2022-01-27T14:05:53Z</time>
      </trkpt>
      <trkpt lat="47.28313" lon="-1.62516">
        <ele>85</ele>
        <time>2022-01-27T14:05:54Z</time>
      </trkpt>
      <trkpt lat="47.28313" lon="-1.62516">
        <ele>85</ele>
        <time>2022-01-27T14:05:55Z</time>
      </trkpt>
      <trkpt lat="47.28312" lon="-1.62517">
        <ele>85</ele>
        <time>2022-01-27T14:05:56Z</time>
      </trkpt>
      <trkpt lat="47.28311" lon="-1.62517">
        <ele>85</ele>
        <time>2022-01-27T14:05:57Z</time>
      </trkpt>
      <trkpt lat="47.2831" lon="-1.62518">
        <ele>85</ele>
        <time>2022-01-27T14:05:58Z</time>
      </trkpt>
      <trkpt lat="47.28309" lon="-1.62518">
        <ele>85</ele>
        <time>2022-01-27T14:05:59Z</time>
      </trkpt>
      <trkpt lat="47.28308" lon="-1.62518">
        <ele>85</ele>
        <time>2022-01-27T14:06:00Z</time>
      </trkpt>
      <trkpt lat="47.28307" lon="-1.62519">
        <ele>85</ele>
        <time>2022-01-27T14:06:01Z</time>
      </trkpt>
      <trkpt lat="47.28306" lon="-1.6252">
        <ele>85</ele>
        <time>2022-01-27T14:06:02Z</time>
      </trkpt>
      <trkpt lat="47.28304" lon="-1.6252">
        <ele>85</ele>
        <time>2022-01-27T14:06:03Z</time>
      </trkpt>
      <trkpt lat="47.28303" lon="-1.6252">
        <ele>85</ele>
        <time>2022-01-27T14:06:04Z</time>
      </trkpt>
      <trkpt lat="47.28302" lon="-1.62521">
        <ele>85</ele>
        <time>2022-01-27T14:06:05Z</time>
      </trkpt>
      <trkpt lat="47.28301" lon="-1.62521">
        <ele>85</ele>
        <time>2022-01-27T14:06:06Z</time>
      </trkpt>
      <trkpt lat="47.28299" lon="-1.62521">
        <ele>85</ele>
        <time>2022-01-27T14:06:07Z</time>
      </trkpt>
      <trkpt lat="47.28298" lon="-1.62522">
        <ele>84</ele>
        <time>2022-01-27T14:06:08Z</time>
      </trkpt>
      <trkpt lat="47.28297" lon="-1.62522">
        <ele>84</ele>
        <time>2022-01-27T14:06:09Z</time>
      </trkpt>
      <trkpt lat="47.28296" lon="-1.62522">
        <ele>84</ele>
        <time>2022-01-27T14:06:10Z</time>
      </trkpt>
      <trkpt lat="47.28295" lon="-1.62523">
        <ele>84</ele>
        <time>2022-01-27T14:06:11Z</time>
      </trkpt>
      <trkpt lat="47.28294" lon="-1.62523">
        <ele>84</ele>
        <time>2022-01-27T14:06:12Z</time>
      </trkpt>
      <trkpt lat="47.28293" lon="-1.62524">
        <ele>84</ele>
        <time>2022-01-27T14:06:13Z</time>
      </trkpt>
      <trkpt lat="47.28292" lon="-1.62525">
        <ele>84</ele>
        <time>2022-01-27T14:06:14Z</time>
      </trkpt>
      <trkpt lat="47.28291" lon="-1.62526">
        <ele>84</ele>
        <time>2022-01-27T14:06:15Z</time>
      </trkpt>
      <trkpt lat="47.2829" lon="-1.62527">
        <ele>84</ele>
        <time>2022-01-27T14:06:16Z</time>
      </trkpt>
      <trkpt lat="47.28289" lon="-1.62528">
        <ele>84</ele>
        <time>2022-01-27T14:06:17Z</time>
      </trkpt>
      <trkpt lat="47.28288" lon="-1.62529">
        <ele>83</ele>
        <time>2022-01-27T14:06:18Z</time>
      </trkpt>
      <trkpt lat="47.28286" lon="-1.6253">
        <ele>83</ele>
        <time>2022-01-27T14:06:19Z</time>
      </trkpt>
      <trkpt lat="47.28286" lon="-1.62531">
        <ele>83</ele>
        <time>2022-01-27T14:06:20Z</time>
      </trkpt>
      <trkpt lat="47.28285" lon="-1.62532">
        <ele>83</ele>
        <time>2022-01-27T14:06:21Z</time>
      </trkpt>
      <trkpt lat="47.28285" lon="-1.62534">
        <ele>83</ele>
        <time>2022-01-27T14:06:22Z</time>
      </trkpt>
      <trkpt lat="47.28284" lon="-1.62535">
        <ele>83</ele>
        <time>2022-01-27T14:06:23Z</time>
      </trkpt>
      <trkpt lat="47.28283" lon="-1.62535">
        <ele>84</ele>
        <time>2022-01-27T14:06:24Z</time>
      </trkpt>
      <trkpt lat="47.28282" lon="-1.62536">
        <ele>84</ele>
        <time>2022-01-27T14:06:25Z</time>
      </trkpt>
      <trkpt lat="47.28281" lon="-1.62537">
        <ele>84</ele>
        <time>2022-01-27T14:06:26Z</time>
      </trkpt>
      <trkpt lat="47.2828" lon="-1.62538">
        <ele>84</ele>
        <time>2022-01-27T14:06:27Z</time>
      </trkpt>
      <trkpt lat="47.28278" lon="-1.6254">
        <ele>85</ele>
        <time>2022-01-27T14:06:28Z</time>
      </trkpt>
      <trkpt lat="47.28277" lon="-1.62541">
        <ele>85</ele>
        <time>2022-01-27T14:06:29Z</time>
      </trkpt>
      <trkpt lat="47.28276" lon="-1.62543">
        <ele>85</ele>
        <time>2022-01-27T14:06:30Z</time>
      </trkpt>
      <trkpt lat="47.28274" lon="-1.62544">
        <ele>86</ele>
        <time>2022-01-27T14:06:31Z</time>
      </trkpt>
      <trkpt lat="47.28273" lon="-1.62546">
        <ele>86</ele>
        <time>2022-01-27T14:06:32Z</time>
      </trkpt>
      <trkpt lat="47.28272" lon="-1.62546">
        <ele>86</ele>
        <time>2022-01-27T14:06:33Z</time>
      </trkpt>
      <trkpt lat="47.28271" lon="-1.62547">
        <ele>86</ele>
        <time>2022-01-27T14:06:34Z</time>
      </trkpt>
      <trkpt lat="47.2827" lon="-1.62549">
        <ele>86</ele>
        <time>2022-01-27T14:06:35Z</time>
      </trkpt>
      <trkpt lat="47.28268" lon="-1.6255">
        <ele>86</ele>
        <time>2022-01-27T14:06:36Z</time>
      </trkpt>
      <trkpt lat="47.28267" lon="-1.62551">
        <ele>86</ele>
        <time>2022-01-27T14:06:37Z</time>
      </trkpt>
      <trkpt lat="47.28265" lon="-1.62552">
        <ele>86</ele>
        <time>2022-01-27T14:06:38Z</time>
      </trkpt>
      <trkpt lat="47.28264" lon="-1.62553">
        <ele>86</ele>
        <time>2022-01-27T14:06:39Z</time>
      </trkpt>
      <trkpt lat="47.28263" lon="-1.62554">
        <ele>87</ele>
        <time>2022-01-27T14:06:40Z</time>
      </trkpt>
      <trkpt lat="47.28262" lon="-1.62555">
        <ele>87</ele>
        <time>2022-01-27T14:06:41Z</time>
      </trkpt>
      <trkpt lat="47.28261" lon="-1.62557">
        <ele>87</ele>
        <time>2022-01-27T14:06:42Z</time>
      </trkpt>
      <trkpt lat="47.2826" lon="-1.62558">
        <ele>87</ele>
        <time>2022-01-27T14:06:43Z</time>
      </trkpt>
      <trkpt lat="47.28259" lon="-1.62559">
        <ele>88</ele>
        <time>2022-01-27T14:06:44Z</time>
      </trkpt>
      <trkpt lat="47.28258" lon="-1.6256">
        <ele>88</ele>
        <time>2022-01-27T14:06:45Z</time>
      </trkpt>
      <trkpt lat="47.28257" lon="-1.62561">
        <ele>88</ele>
        <time>2022-01-27T14:06:46Z</time>
      </trkpt>
      <trkpt lat="47.28257" lon="-1.62562">
        <ele>88</ele>
        <time>2022-01-27T14:06:47Z</time>
      </trkpt>
      <trkpt lat="47.28256" lon="-1.62563">
        <ele>88</ele>
        <time>2022-01-27T14:06:48Z</time>
      </trkpt>
      <trkpt lat="47.28254" lon="-1.62564">
        <ele>88</ele>
        <time>2022-01-27T14:06:49Z</time>
      </trkpt>
      <trkpt lat="47.28253" lon="-1.62566">
        <ele>87</ele>
        <time>2022-01-27T14:06:50Z</time>
      </trkpt>
      <trkpt lat="47.28252" lon="-1.62567">
        <ele>87</ele>
        <time>2022-01-27T14:06:51Z</time>
      </trkpt>
      <trkpt lat="47.28251" lon="-1.62568">
        <ele>87</ele>
        <time>2022-01-27T14:06:52Z</time>
      </trkpt>
      <trkpt lat="47.2825" lon="-1.62569">
        <ele>88</ele>
        <time>2022-01-27T14:06:53Z</time>
      </trkpt>
      <trkpt lat="47.2825" lon="-1.6257">
        <ele>88</ele>
        <time>2022-01-27T14:06:54Z</time>
      </trkpt>
      <trkpt lat="47.28249" lon="-1.62571">
        <ele>88</ele>
        <time>2022-01-27T14:06:55Z</time>
      </trkpt>
      <trkpt lat="47.28248" lon="-1.62572">
        <ele>88</ele>
        <time>2022-01-27T14:06:56Z</time>
      </trkpt>
      <trkpt lat="47.28247" lon="-1.62574">
        <ele>88</ele>
        <time>2022-01-27T14:06:57Z</time>
      </trkpt>
      <trkpt lat="47.28246" lon="-1.62575">
        <ele>88</ele>
        <time>2022-01-27T14:06:58Z</time>
      </trkpt>
      <trkpt lat="47.28245" lon="-1.62575">
        <ele>88</ele>
        <time>2022-01-27T14:06:59Z</time>
      </trkpt>
      <trkpt lat="47.28244" lon="-1.62577">
        <ele>88</ele>
        <time>2022-01-27T14:07:00Z</time>
      </trkpt>
      <trkpt lat="47.28243" lon="-1.62578">
        <ele>88</ele>
        <time>2022-01-27T14:07:01Z</time>
      </trkpt>
      <trkpt lat="47.28241" lon="-1.6258">
        <ele>89</ele>
        <time>2022-01-27T14:07:02Z</time>
      </trkpt>
      <trkpt lat="47.28241" lon="-1.62581">
        <ele>88</ele>
        <time>2022-01-27T14:07:03Z</time>
      </trkpt>
      <trkpt lat="47.2824" lon="-1.62582">
        <ele>88</ele>
        <time>2022-01-27T14:07:04Z</time>
      </trkpt>
      <trkpt lat="47.2824" lon="-1.62582">
        <ele>88</ele>
        <time>2022-01-27T14:07:05Z</time>
      </trkpt>
      <trkpt lat="47.2824" lon="-1.62582">
        <ele>88</ele>
        <time>2022-01-27T14:07:06Z</time>
      </trkpt>
      <trkpt lat="47.28238" lon="-1.62584">
        <ele>89</ele>
        <time>2022-01-27T14:07:07Z</time>
      </trkpt>
      <trkpt lat="47.28237" lon="-1.62585">
        <ele>89</ele>
        <time>2022-01-27T14:07:08Z</time>
      </trkpt>
      <trkpt lat="47.28236" lon="-1.62587">
        <ele>89</ele>
        <time>2022-01-27T14:07:09Z</time>
      </trkpt>
      <trkpt lat="47.28234" lon="-1.62588">
        <ele>89</ele>
        <time>2022-01-27T14:07:10Z</time>
      </trkpt>
      <trkpt lat="47.28233" lon="-1.62589">
        <ele>89</ele>
        <time>2022-01-27T14:07:11Z</time>
      </trkpt>
      <trkpt lat="47.28231" lon="-1.6259">
        <ele>88</ele>
        <time>2022-01-27T14:07:12Z</time>
      </trkpt>
      <trkpt lat="47.2823" lon="-1.6259">
        <ele>88</ele>
        <time>2022-01-27T14:07:13Z</time>
      </trkpt>
      <trkpt lat="47.28229" lon="-1.62591">
        <ele>88</ele>
        <time>2022-01-27T14:07:14Z</time>
      </trkpt>
      <trkpt lat="47.28228" lon="-1.62592">
        <ele>88</ele>
        <time>2022-01-27T14:07:15Z</time>
      </trkpt>
      <trkpt lat="47.28227" lon="-1.62593">
        <ele>88</ele>
        <time>2022-01-27T14:07:16Z</time>
      </trkpt>
      <trkpt lat="47.28225" lon="-1.62595">
        <ele>88</ele>
        <time>2022-01-27T14:07:17Z</time>
      </trkpt>
      <trkpt lat="47.28225" lon="-1.62597">
        <ele>87</ele>
        <time>2022-01-27T14:07:18Z</time>
      </trkpt>
      <trkpt lat="47.28223" lon="-1.62599">
        <ele>87</ele>
        <time>2022-01-27T14:07:19Z</time>
      </trkpt>
      <trkpt lat="47.28222" lon="-1.626">
        <ele>87</ele>
        <time>2022-01-27T14:07:20Z</time>
      </trkpt>
      <trkpt lat="47.28221" lon="-1.62602">
        <ele>87</ele>
        <time>2022-01-27T14:07:21Z</time>
      </trkpt>
      <trkpt lat="47.2822" lon="-1.62604">
        <ele>87</ele>
        <time>2022-01-27T14:07:22Z</time>
      </trkpt>
      <trkpt lat="47.2822" lon="-1.62606">
        <ele>87</ele>
        <time>2022-01-27T14:07:23Z</time>
      </trkpt>
      <trkpt lat="47.28219" lon="-1.62608">
        <ele>87</ele>
        <time>2022-01-27T14:07:24Z</time>
      </trkpt>
      <trkpt lat="47.28218" lon="-1.6261">
        <ele>87</ele>
        <time>2022-01-27T14:07:25Z</time>
      </trkpt>
      <trkpt lat="47.28218" lon="-1.62611">
        <ele>87</ele>
        <time>2022-01-27T14:07:26Z</time>
      </trkpt>
      <trkpt lat="47.28217" lon="-1.62613">
        <ele>88</ele>
        <time>2022-01-27T14:07:27Z</time>
      </trkpt>
      <trkpt lat="47.28216" lon="-1.62615">
        <ele>88</ele>
        <time>2022-01-27T14:07:28Z</time>
      </trkpt>
      <trkpt lat="47.28215" lon="-1.62616">
        <ele>87</ele>
        <time>2022-01-27T14:07:29Z</time>
      </trkpt>
      <trkpt lat="47.28214" lon="-1.62618">
        <ele>87</ele>
        <time>2022-01-27T14:07:30Z</time>
      </trkpt>
      <trkpt lat="47.28214" lon="-1.62619">
        <ele>87</ele>
        <time>2022-01-27T14:07:31Z</time>
      </trkpt>
      <trkpt lat="47.28213" lon="-1.62621">
        <ele>88</ele>
        <time>2022-01-27T14:07:32Z</time>
      </trkpt>
      <trkpt lat="47.28212" lon="-1.62623">
        <ele>88</ele>
        <time>2022-01-27T14:07:33Z</time>
      </trkpt>
      <trkpt lat="47.28211" lon="-1.62625">
        <ele>88</ele>
        <time>2022-01-27T14:07:34Z</time>
      </trkpt>
      <trkpt lat="47.28211" lon="-1.62627">
        <ele>87</ele>
        <time>2022-01-27T14:07:35Z</time>
      </trkpt>
      <trkpt lat="47.2821" lon="-1.62629">
        <ele>87</ele>
        <time>2022-01-27T14:07:36Z</time>
      </trkpt>
      <trkpt lat="47.28209" lon="-1.62631">
        <ele>86</ele>
        <time>2022-01-27T14:07:37Z</time>
      </trkpt>
      <trkpt lat="47.28207" lon="-1.62632">
        <ele>86</ele>
        <time>2022-01-27T14:07:38Z</time>
      </trkpt>
      <trkpt lat="47.28207" lon="-1.62634">
        <ele>86</ele>
        <time>2022-01-27T14:07:39Z</time>
      </trkpt>
      <trkpt lat="47.28206" lon="-1.62635">
        <ele>86</ele>
        <time>2022-01-27T14:07:40Z</time>
      </trkpt>
      <trkpt lat="47.28206" lon="-1.62637">
        <ele>86</ele>
        <time>2022-01-27T14:07:41Z</time>
      </trkpt>
      <trkpt lat="47.28204" lon="-1.62639">
        <ele>86</ele>
        <time>2022-01-27T14:07:42Z</time>
      </trkpt>
      <trkpt lat="47.28204" lon="-1.62641">
        <ele>86</ele>
        <time>2022-01-27T14:07:43Z</time>
      </trkpt>
      <trkpt lat="47.28203" lon="-1.62643">
        <ele>86</ele>
        <time>2022-01-27T14:07:44Z</time>
      </trkpt>
      <trkpt lat="47.28202" lon="-1.62645">
        <ele>86</ele>
        <time>2022-01-27T14:07:45Z</time>
      </trkpt>
      <trkpt lat="47.28202" lon="-1.62647">
        <ele>86</ele>
        <time>2022-01-27T14:07:46Z</time>
      </trkpt>
      <trkpt lat="47.28201" lon="-1.62648">
        <ele>86</ele>
        <time>2022-01-27T14:07:47Z</time>
      </trkpt>
      <trkpt lat="47.28201" lon="-1.6265">
        <ele>87</ele>
        <time>2022-01-27T14:07:48Z</time>
      </trkpt>
      <trkpt lat="47.282" lon="-1.62652">
        <ele>86</ele>
        <time>2022-01-27T14:07:49Z</time>
      </trkpt>
      <trkpt lat="47.28199" lon="-1.62654">
        <ele>87</ele>
        <time>2022-01-27T14:07:50Z</time>
      </trkpt>
      <trkpt lat="47.28199" lon="-1.62656">
        <ele>87</ele>
        <time>2022-01-27T14:07:51Z</time>
      </trkpt>
      <trkpt lat="47.28198" lon="-1.62657">
        <ele>87</ele>
        <time>2022-01-27T14:07:52Z</time>
      </trkpt>
      <trkpt lat="47.28198" lon="-1.62659">
        <ele>87</ele>
        <time>2022-01-27T14:07:53Z</time>
      </trkpt>
      <trkpt lat="47.28197" lon="-1.6266">
        <ele>87</ele>
        <time>2022-01-27T14:07:54Z</time>
      </trkpt>
      <trkpt lat="47.28196" lon="-1.62661">
        <ele>87</ele>
        <time>2022-01-27T14:07:55Z</time>
      </trkpt>
      <trkpt lat="47.28196" lon="-1.62662">
        <ele>87</ele>
        <time>2022-01-27T14:07:56Z</time>
      </trkpt>
      <trkpt lat="47.28195" lon="-1.62664">
        <ele>86</ele>
        <time>2022-01-27T14:07:57Z</time>
      </trkpt>
      <trkpt lat="47.28194" lon="-1.62665">
        <ele>86</ele>
        <time>2022-01-27T14:07:58Z</time>
      </trkpt>
      <trkpt lat="47.28194" lon="-1.62667">
        <ele>86</ele>
        <time>2022-01-27T14:07:59Z</time>
      </trkpt>
      <trkpt lat="47.28193" lon="-1.62668">
        <ele>86</ele>
        <time>2022-01-27T14:08:00Z</time>
      </trkpt>
      <trkpt lat="47.28193" lon="-1.62669">
        <ele>86</ele>
        <time>2022-01-27T14:08:01Z</time>
      </trkpt>
      <trkpt lat="47.28193" lon="-1.6267">
        <ele>86</ele>
        <time>2022-01-27T14:08:02Z</time>
      </trkpt>
      <trkpt lat="47.28192" lon="-1.62671">
        <ele>86</ele>
        <time>2022-01-27T14:08:03Z</time>
      </trkpt>
      <trkpt lat="47.28192" lon="-1.62671">
        <ele>86</ele>
        <time>2022-01-27T14:08:04Z</time>
      </trkpt>
      <trkpt lat="47.28192" lon="-1.62671">
        <ele>86</ele>
        <time>2022-01-27T14:08:05Z</time>
      </trkpt>
      <trkpt lat="47.28192" lon="-1.62671">
        <ele>86</ele>
        <time>2022-01-27T14:08:06Z</time>
      </trkpt>
      <trkpt lat="47.28191" lon="-1.62674">
        <ele>86</ele>
        <time>2022-01-27T14:08:07Z</time>
      </trkpt>
      <trkpt lat="47.28191" lon="-1.62675">
        <ele>86</ele>
        <time>2022-01-27T14:08:08Z</time>
      </trkpt>
      <trkpt lat="47.28191" lon="-1.62676">
        <ele>86</ele>
        <time>2022-01-27T14:08:09Z</time>
      </trkpt>
      <trkpt lat="47.2819" lon="-1.62677">
        <ele>86</ele>
        <time>2022-01-27T14:08:10Z</time>
      </trkpt>
      <trkpt lat="47.2819" lon="-1.62677">
        <ele>86</ele>
        <time>2022-01-27T14:08:11Z</time>
      </trkpt>
      <trkpt lat="47.2819" lon="-1.62677">
        <ele>86</ele>
        <time>2022-01-27T14:08:12Z</time>
      </trkpt>
      <trkpt lat="47.28189" lon="-1.6268">
        <ele>86</ele>
        <time>2022-01-27T14:08:13Z</time>
      </trkpt>
      <trkpt lat="47.28188" lon="-1.62681">
        <ele>85</ele>
        <time>2022-01-27T14:08:14Z</time>
      </trkpt>
      <trkpt lat="47.28188" lon="-1.62682">
        <ele>85</ele>
        <time>2022-01-27T14:08:15Z</time>
      </trkpt>
      <trkpt lat="47.28187" lon="-1.62683">
        <ele>85</ele>
        <time>2022-01-27T14:08:16Z</time>
      </trkpt>
      <trkpt lat="47.28187" lon="-1.62685">
        <ele>85</ele>
        <time>2022-01-27T14:08:17Z</time>
      </trkpt>
      <trkpt lat="47.28186" lon="-1.62687">
        <ele>85</ele>
        <time>2022-01-27T14:08:18Z</time>
      </trkpt>
      <trkpt lat="47.28186" lon="-1.6269">
        <ele>86</ele>
        <time>2022-01-27T14:08:19Z</time>
      </trkpt>
      <trkpt lat="47.28185" lon="-1.62692">
        <ele>86</ele>
        <time>2022-01-27T14:08:20Z</time>
      </trkpt>
      <trkpt lat="47.28185" lon="-1.62693">
        <ele>86</ele>
        <time>2022-01-27T14:08:21Z</time>
      </trkpt>
      <trkpt lat="47.28184" lon="-1.62695">
        <ele>86</ele>
        <time>2022-01-27T14:08:22Z</time>
      </trkpt>
      <trkpt lat="47.28183" lon="-1.62697">
        <ele>86</ele>
        <time>2022-01-27T14:08:23Z</time>
      </trkpt>
      <trkpt lat="47.28182" lon="-1.62699">
        <ele>86</ele>
        <time>2022-01-27T14:08:24Z</time>
      </trkpt>
      <trkpt lat="47.28182" lon="-1.62701">
        <ele>87</ele>
        <time>2022-01-27T14:08:25Z</time>
      </trkpt>
      <trkpt lat="47.28181" lon="-1.62703">
        <ele>87</ele>
        <time>2022-01-27T14:08:26Z</time>
      </trkpt>
      <trkpt lat="47.28181" lon="-1.62705">
        <ele>88</ele>
        <time>2022-01-27T14:08:27Z</time>
      </trkpt>
      <trkpt lat="47.2818" lon="-1.62707">
        <ele>88</ele>
        <time>2022-01-27T14:08:28Z</time>
      </trkpt>
      <trkpt lat="47.28179" lon="-1.6271">
        <ele>88</ele>
        <time>2022-01-27T14:08:29Z</time>
      </trkpt>
      <trkpt lat="47.28179" lon="-1.62712">
        <ele>88</ele>
        <time>2022-01-27T14:08:30Z</time>
      </trkpt>
      <trkpt lat="47.28178" lon="-1.62714">
        <ele>89</ele>
        <time>2022-01-27T14:08:31Z</time>
      </trkpt>
      <trkpt lat="47.28178" lon="-1.62716">
        <ele>89</ele>
        <time>2022-01-27T14:08:32Z</time>
      </trkpt>
      <trkpt lat="47.28177" lon="-1.62718">
        <ele>89</ele>
        <time>2022-01-27T14:08:33Z</time>
      </trkpt>
      <trkpt lat="47.28177" lon="-1.6272">
        <ele>89</ele>
        <time>2022-01-27T14:08:34Z</time>
      </trkpt>
      <trkpt lat="47.28177" lon="-1.62721">
        <ele>89</ele>
        <time>2022-01-27T14:08:35Z</time>
      </trkpt>
      <trkpt lat="47.28177" lon="-1.62722">
        <ele>90</ele>
        <time>2022-01-27T14:08:36Z</time>
      </trkpt>
      <trkpt lat="47.28177" lon="-1.62722">
        <ele>90</ele>
        <time>2022-01-27T14:08:37Z</time>
      </trkpt>
      <trkpt lat="47.28177" lon="-1.62722">
        <ele>90</ele>
        <time>2022-01-27T14:08:38Z</time>
      </trkpt>
      <trkpt lat="47.28177" lon="-1.62722">
        <ele>90</ele>
        <time>2022-01-27T14:08:39Z</time>
      </trkpt>
      <trkpt lat="47.28177" lon="-1.62722">
        <ele>90</ele>
        <time>2022-01-27T14:08:39Z</time>
      </trkpt>
      <trkpt lat="47.28177" lon="-1.62722">
        <ele>90</ele>
        <time>2022-01-27T14:08:39Z</time>
      </trkpt>
      <trkpt lat="47.28174" lon="-1.62732">
        <ele>88</ele>
        <time>2022-01-27T14:08:58Z</time>
      </trkpt>
      <trkpt lat="47.28173" lon="-1.62734">
        <ele>89</ele>
        <time>2022-01-27T14:08:59Z</time>
      </trkpt>
      <trkpt lat="47.28173" lon="-1.62735">
        <ele>88</ele>
        <time>2022-01-27T14:09:00Z</time>
      </trkpt>
      <trkpt lat="47.28173" lon="-1.62737">
        <ele>88</ele>
        <time>2022-01-27T14:09:01Z</time>
      </trkpt>
      <trkpt lat="47.28172" lon="-1.62739">
        <ele>88</ele>
        <time>2022-01-27T14:09:02Z</time>
      </trkpt>
      <trkpt lat="47.28171" lon="-1.62741">
        <ele>88</ele>
        <time>2022-01-27T14:09:03Z</time>
      </trkpt>
      <trkpt lat="47.28171" lon="-1.62742">
        <ele>88</ele>
        <time>2022-01-27T14:09:04Z</time>
      </trkpt>
      <trkpt lat="47.2817" lon="-1.62744">
        <ele>88</ele>
        <time>2022-01-27T14:09:05Z</time>
      </trkpt>
      <trkpt lat="47.2817" lon="-1.62746">
        <ele>89</ele>
        <time>2022-01-27T14:09:06Z</time>
      </trkpt>
      <trkpt lat="47.2817" lon="-1.62747">
        <ele>89</ele>
        <time>2022-01-27T14:09:07Z</time>
      </trkpt>
      <trkpt lat="47.28169" lon="-1.62749">
        <ele>89</ele>
        <time>2022-01-27T14:09:08Z</time>
      </trkpt>
      <trkpt lat="47.28168" lon="-1.62751">
        <ele>88</ele>
        <time>2022-01-27T14:09:09Z</time>
      </trkpt>
      <trkpt lat="47.28167" lon="-1.62752">
        <ele>88</ele>
        <time>2022-01-27T14:09:10Z</time>
      </trkpt>
      <trkpt lat="47.28167" lon="-1.62754">
        <ele>89</ele>
        <time>2022-01-27T14:09:11Z</time>
      </trkpt>
      <trkpt lat="47.28167" lon="-1.62756">
        <ele>89</ele>
        <time>2022-01-27T14:09:12Z</time>
      </trkpt>
      <trkpt lat="47.28167" lon="-1.62758">
        <ele>89</ele>
        <time>2022-01-27T14:09:13Z</time>
      </trkpt>
      <trkpt lat="47.28167" lon="-1.62759">
        <ele>89</ele>
        <time>2022-01-27T14:09:14Z</time>
      </trkpt>
      <trkpt lat="47.28166" lon="-1.62762">
        <ele>89</ele>
        <time>2022-01-27T14:09:15Z</time>
      </trkpt>
      <trkpt lat="47.28165" lon="-1.62763">
        <ele>89</ele>
        <time>2022-01-27T14:09:16Z</time>
      </trkpt>
      <trkpt lat="47.28165" lon="-1.62765">
        <ele>89</ele>
        <time>2022-01-27T14:09:17Z</time>
      </trkpt>
      <trkpt lat="47.28164" lon="-1.62766">
        <ele>89</ele>
        <time>2022-01-27T14:09:18Z</time>
      </trkpt>
      <trkpt lat="47.28164" lon="-1.62767">
        <ele>89</ele>
        <time>2022-01-27T14:09:19Z</time>
      </trkpt>
      <trkpt lat="47.28163" lon="-1.62769">
        <ele>90</ele>
        <time>2022-01-27T14:09:20Z</time>
      </trkpt>
      <trkpt lat="47.28163" lon="-1.6277">
        <ele>90</ele>
        <time>2022-01-27T14:09:21Z</time>
      </trkpt>
      <trkpt lat="47.28162" lon="-1.62771">
        <ele>89</ele>
        <time>2022-01-27T14:09:22Z</time>
      </trkpt>
      <trkpt lat="47.28161" lon="-1.62773">
        <ele>90</ele>
        <time>2022-01-27T14:09:23Z</time>
      </trkpt>
      <trkpt lat="47.28161" lon="-1.62775">
        <ele>89</ele>
        <time>2022-01-27T14:09:24Z</time>
      </trkpt>
      <trkpt lat="47.2816" lon="-1.62777">
        <ele>89</ele>
        <time>2022-01-27T14:09:25Z</time>
      </trkpt>
      <trkpt lat="47.2816" lon="-1.62779">
        <ele>89</ele>
        <time>2022-01-27T14:09:26Z</time>
      </trkpt>
      <trkpt lat="47.28159" lon="-1.62781">
        <ele>90</ele>
        <time>2022-01-27T14:09:27Z</time>
      </trkpt>
      <trkpt lat="47.28159" lon="-1.62783">
        <ele>90</ele>
        <time>2022-01-27T14:09:28Z</time>
      </trkpt>
      <trkpt lat="47.28159" lon="-1.62785">
        <ele>90</ele>
        <time>2022-01-27T14:09:29Z</time>
      </trkpt>
      <trkpt lat="47.28158" lon="-1.62787">
        <ele>90</ele>
        <time>2022-01-27T14:09:30Z</time>
      </trkpt>
      <trkpt lat="47.28158" lon="-1.62789">
        <ele>90</ele>
        <time>2022-01-27T14:09:31Z</time>
      </trkpt>
      <trkpt lat="47.28157" lon="-1.6279">
        <ele>90</ele>
        <time>2022-01-27T14:09:32Z</time>
      </trkpt>
      <trkpt lat="47.28156" lon="-1.62792">
        <ele>90</ele>
        <time>2022-01-27T14:09:33Z</time>
      </trkpt>
      <trkpt lat="47.28156" lon="-1.62795">
        <ele>90</ele>
        <time>2022-01-27T14:09:34Z</time>
      </trkpt>
      <trkpt lat="47.28155" lon="-1.62796">
        <ele>90</ele>
        <time>2022-01-27T14:09:35Z</time>
      </trkpt>
      <trkpt lat="47.28154" lon="-1.62798">
        <ele>91</ele>
        <time>2022-01-27T14:09:36Z</time>
      </trkpt>
      <trkpt lat="47.28153" lon="-1.62801">
        <ele>91</ele>
        <time>2022-01-27T14:09:37Z</time>
      </trkpt>
      <trkpt lat="47.28153" lon="-1.62803">
        <ele>91</ele>
        <time>2022-01-27T14:09:38Z</time>
      </trkpt>
      <trkpt lat="47.28153" lon="-1.62805">
        <ele>92</ele>
        <time>2022-01-27T14:09:39Z</time>
      </trkpt>
      <trkpt lat="47.28151" lon="-1.62807">
        <ele>92</ele>
        <time>2022-01-27T14:09:40Z</time>
      </trkpt>
      <trkpt lat="47.28151" lon="-1.62809">
        <ele>92</ele>
        <time>2022-01-27T14:09:41Z</time>
      </trkpt>
      <trkpt lat="47.2815" lon="-1.62811">
        <ele>92</ele>
        <time>2022-01-27T14:09:42Z</time>
      </trkpt>
      <trkpt lat="47.28149" lon="-1.62814">
        <ele>92</ele>
        <time>2022-01-27T14:09:43Z</time>
      </trkpt>
      <trkpt lat="47.28148" lon="-1.62816">
        <ele>92</ele>
        <time>2022-01-27T14:09:44Z</time>
      </trkpt>
      <trkpt lat="47.28148" lon="-1.62818">
        <ele>92</ele>
        <time>2022-01-27T14:09:45Z</time>
      </trkpt>
      <trkpt lat="47.28147" lon="-1.62821">
        <ele>92</ele>
        <time>2022-01-27T14:09:46Z</time>
      </trkpt>
      <trkpt lat="47.28147" lon="-1.62822">
        <ele>92</ele>
        <time>2022-01-27T14:09:47Z</time>
      </trkpt>
      <trkpt lat="47.28147" lon="-1.62824">
        <ele>91</ele>
        <time>2022-01-27T14:09:48Z</time>
      </trkpt>
      <trkpt lat="47.28147" lon="-1.62826">
        <ele>91</ele>
        <time>2022-01-27T14:09:49Z</time>
      </trkpt>
      <trkpt lat="47.28147" lon="-1.62828">
        <ele>91</ele>
        <time>2022-01-27T14:09:50Z</time>
      </trkpt>
      <trkpt lat="47.28147" lon="-1.62829">
        <ele>91</ele>
        <time>2022-01-27T14:09:51Z</time>
      </trkpt>
      <trkpt lat="47.28146" lon="-1.6283">
        <ele>91</ele>
        <time>2022-01-27T14:09:52Z</time>
      </trkpt>
      <trkpt lat="47.28146" lon="-1.62831">
        <ele>91</ele>
        <time>2022-01-27T14:09:53Z</time>
      </trkpt>
      <trkpt lat="47.28146" lon="-1.62832">
        <ele>91</ele>
        <time>2022-01-27T14:09:54Z</time>
      </trkpt>
      <trkpt lat="47.28145" lon="-1.62834">
        <ele>91</ele>
        <time>2022-01-27T14:09:55Z</time>
      </trkpt>
      <trkpt lat="47.28145" lon="-1.62835">
        <ele>90</ele>
        <time>2022-01-27T14:09:56Z</time>
      </trkpt>
      <trkpt lat="47.28145" lon="-1.62836">
        <ele>89</ele>
        <time>2022-01-27T14:09:57Z</time>
      </trkpt>
      <trkpt lat="47.28145" lon="-1.62838">
        <ele>89</ele>
        <time>2022-01-27T14:09:58Z</time>
      </trkpt>
      <trkpt lat="47.28144" lon="-1.62839">
        <ele>89</ele>
        <time>2022-01-27T14:09:59Z</time>
      </trkpt>
      <trkpt lat="47.28143" lon="-1.62841">
        <ele>89</ele>
        <time>2022-01-27T14:10:00Z</time>
      </trkpt>
      <trkpt lat="47.28143" lon="-1.62842">
        <ele>88</ele>
        <time>2022-01-27T14:10:01Z</time>
      </trkpt>
      <trkpt lat="47.28143" lon="-1.62844">
        <ele>89</ele>
        <time>2022-01-27T14:10:02Z</time>
      </trkpt>
      <trkpt lat="47.28142" lon="-1.62846">
        <ele>88</ele>
        <time>2022-01-27T14:10:03Z</time>
      </trkpt>
      <trkpt lat="47.28142" lon="-1.62847">
        <ele>88</ele>
        <time>2022-01-27T14:10:04Z</time>
      </trkpt>
      <trkpt lat="47.28142" lon="-1.62849">
        <ele>88</ele>
        <time>2022-01-27T14:10:05Z</time>
      </trkpt>
      <trkpt lat="47.28141" lon="-1.6285">
        <ele>88</ele>
        <time>2022-01-27T14:10:06Z</time>
      </trkpt>
      <trkpt lat="47.28141" lon="-1.62852">
        <ele>88</ele>
        <time>2022-01-27T14:10:07Z</time>
      </trkpt>
      <trkpt lat="47.2814" lon="-1.62853">
        <ele>88</ele>
        <time>2022-01-27T14:10:08Z</time>
      </trkpt>
      <trkpt lat="47.2814" lon="-1.62855">
        <ele>88</ele>
        <time>2022-01-27T14:10:09Z</time>
      </trkpt>
      <trkpt lat="47.28139" lon="-1.62857">
        <ele>88</ele>
        <time>2022-01-27T14:10:10Z</time>
      </trkpt>
      <trkpt lat="47.28139" lon="-1.6286">
        <ele>88</ele>
        <time>2022-01-27T14:10:11Z</time>
      </trkpt>
      <trkpt lat="47.28138" lon="-1.62862">
        <ele>88</ele>
        <time>2022-01-27T14:10:12Z</time>
      </trkpt>
      <trkpt lat="47.28137" lon="-1.62864">
        <ele>88</ele>
        <time>2022-01-27T14:10:13Z</time>
      </trkpt>
      <trkpt lat="47.28137" lon="-1.62866">
        <ele>88</ele>
        <time>2022-01-27T14:10:14Z</time>
      </trkpt>
      <trkpt lat="47.28136" lon="-1.62868">
        <ele>89</ele>
        <time>2022-01-27T14:10:15Z</time>
      </trkpt>
      <trkpt lat="47.28135" lon="-1.62871">
        <ele>88</ele>
        <time>2022-01-27T14:10:16Z</time>
      </trkpt>
      <trkpt lat="47.28135" lon="-1.62873">
        <ele>88</ele>
        <time>2022-01-27T14:10:17Z</time>
      </trkpt>
      <trkpt lat="47.28134" lon="-1.62875">
        <ele>88</ele>
        <time>2022-01-27T14:10:18Z</time>
      </trkpt>
      <trkpt lat="47.28133" lon="-1.62877">
        <ele>88</ele>
        <time>2022-01-27T14:10:19Z</time>
      </trkpt>
      <trkpt lat="47.28133" lon="-1.6288">
        <ele>89</ele>
        <time>2022-01-27T14:10:20Z</time>
      </trkpt>
      <trkpt lat="47.28132" lon="-1.62882">
        <ele>89</ele>
        <time>2022-01-27T14:10:21Z</time>
      </trkpt>
      <trkpt lat="47.28132" lon="-1.62884">
        <ele>89</ele>
        <time>2022-01-27T14:10:22Z</time>
      </trkpt>
      <trkpt lat="47.2813" lon="-1.62885">
        <ele>90</ele>
        <time>2022-01-27T14:10:23Z</time>
      </trkpt>
      <trkpt lat="47.28129" lon="-1.62887">
        <ele>90</ele>
        <time>2022-01-27T14:10:24Z</time>
      </trkpt>
      <trkpt lat="47.28128" lon="-1.62889">
        <ele>89</ele>
        <time>2022-01-27T14:10:25Z</time>
      </trkpt>
      <trkpt lat="47.28128" lon="-1.62891">
        <ele>89</ele>
        <time>2022-01-27T14:10:26Z</time>
      </trkpt>
      <trkpt lat="47.28127" lon="-1.62893">
        <ele>89</ele>
        <time>2022-01-27T14:10:27Z</time>
      </trkpt>
      <trkpt lat="47.28126" lon="-1.62895">
        <ele>89</ele>
        <time>2022-01-27T14:10:28Z</time>
      </trkpt>
      <trkpt lat="47.28125" lon="-1.62897">
        <ele>88</ele>
        <time>2022-01-27T14:10:29Z</time>
      </trkpt>
      <trkpt lat="47.28124" lon="-1.62898">
        <ele>88</ele>
        <time>2022-01-27T14:10:30Z</time>
      </trkpt>
      <trkpt lat="47.28123" lon="-1.629">
        <ele>88</ele>
        <time>2022-01-27T14:10:31Z</time>
      </trkpt>
      <trkpt lat="47.28123" lon="-1.62902">
        <ele>88</ele>
        <time>2022-01-27T14:10:32Z</time>
      </trkpt>
      <trkpt lat="47.28122" lon="-1.62904">
        <ele>87</ele>
        <time>2022-01-27T14:10:33Z</time>
      </trkpt>
      <trkpt lat="47.28122" lon="-1.62905">
        <ele>88</ele>
        <time>2022-01-27T14:10:34Z</time>
      </trkpt>
      <trkpt lat="47.28121" lon="-1.62907">
        <ele>88</ele>
        <time>2022-01-27T14:10:35Z</time>
      </trkpt>
      <trkpt lat="47.2812" lon="-1.62907">
        <ele>88</ele>
        <time>2022-01-27T14:10:36Z</time>
      </trkpt>
      <trkpt lat="47.28119" lon="-1.62909">
        <ele>88</ele>
        <time>2022-01-27T14:10:37Z</time>
      </trkpt>
      <trkpt lat="47.28119" lon="-1.62911">
        <ele>88</ele>
        <time>2022-01-27T14:10:38Z</time>
      </trkpt>
      <trkpt lat="47.28119" lon="-1.62913">
        <ele>88</ele>
        <time>2022-01-27T14:10:39Z</time>
      </trkpt>
      <trkpt lat="47.28118" lon="-1.62914">
        <ele>88</ele>
        <time>2022-01-27T14:10:40Z</time>
      </trkpt>
      <trkpt lat="47.28117" lon="-1.62916">
        <ele>88</ele>
        <time>2022-01-27T14:10:41Z</time>
      </trkpt>
      <trkpt lat="47.28116" lon="-1.62918">
        <ele>89</ele>
        <time>2022-01-27T14:10:42Z</time>
      </trkpt>
      <trkpt lat="47.28115" lon="-1.6292">
        <ele>89</ele>
        <time>2022-01-27T14:10:43Z</time>
      </trkpt>
      <trkpt lat="47.28115" lon="-1.62921">
        <ele>89</ele>
        <time>2022-01-27T14:10:44Z</time>
      </trkpt>
      <trkpt lat="47.28114" lon="-1.62922">
        <ele>89</ele>
        <time>2022-01-27T14:10:45Z</time>
      </trkpt>
      <trkpt lat="47.28114" lon="-1.62924">
        <ele>89</ele>
        <time>2022-01-27T14:10:46Z</time>
      </trkpt>
      <trkpt lat="47.28113" lon="-1.62926">
        <ele>90</ele>
        <time>2022-01-27T14:10:47Z</time>
      </trkpt>
      <trkpt lat="47.28112" lon="-1.62928">
        <ele>90</ele>
        <time>2022-01-27T14:10:48Z</time>
      </trkpt>
      <trkpt lat="47.28112" lon="-1.62929">
        <ele>90</ele>
        <time>2022-01-27T14:10:49Z</time>
      </trkpt>
      <trkpt lat="47.28111" lon="-1.62931">
        <ele>90</ele>
        <time>2022-01-27T14:10:50Z</time>
      </trkpt>
      <trkpt lat="47.28111" lon="-1.62932">
        <ele>89</ele>
        <time>2022-01-27T14:10:51Z</time>
      </trkpt>
      <trkpt lat="47.2811" lon="-1.62934">
        <ele>89</ele>
        <time>2022-01-27T14:10:52Z</time>
      </trkpt>
      <trkpt lat="47.2811" lon="-1.62936">
        <ele>89</ele>
        <time>2022-01-27T14:10:53Z</time>
      </trkpt>
      <trkpt lat="47.28109" lon="-1.62937">
        <ele>89</ele>
        <time>2022-01-27T14:10:54Z</time>
      </trkpt>
      <trkpt lat="47.28108" lon="-1.62939">
        <ele>89</ele>
        <time>2022-01-27T14:10:55Z</time>
      </trkpt>
      <trkpt lat="47.28108" lon="-1.6294">
        <ele>89</ele>
        <time>2022-01-27T14:10:56Z</time>
      </trkpt>
      <trkpt lat="47.28107" lon="-1.62942">
        <ele>89</ele>
        <time>2022-01-27T14:10:57Z</time>
      </trkpt>
      <trkpt lat="47.28106" lon="-1.62943">
        <ele>89</ele>
        <time>2022-01-27T14:10:58Z</time>
      </trkpt>
      <trkpt lat="47.28106" lon="-1.62944">
        <ele>89</ele>
        <time>2022-01-27T14:10:59Z</time>
      </trkpt>
      <trkpt lat="47.28105" lon="-1.62945">
        <ele>90</ele>
        <time>2022-01-27T14:11:00Z</time>
      </trkpt>
      <trkpt lat="47.28104" lon="-1.62947">
        <ele>90</ele>
        <time>2022-01-27T14:11:01Z</time>
      </trkpt>
      <trkpt lat="47.28103" lon="-1.62948">
        <ele>90</ele>
        <time>2022-01-27T14:11:02Z</time>
      </trkpt>
      <trkpt lat="47.28103" lon="-1.6295">
        <ele>90</ele>
        <time>2022-01-27T14:11:03Z</time>
      </trkpt>
      <trkpt lat="47.28102" lon="-1.62951">
        <ele>91</ele>
        <time>2022-01-27T14:11:04Z</time>
      </trkpt>
      <trkpt lat="47.28101" lon="-1.62953">
        <ele>91</ele>
        <time>2022-01-27T14:11:05Z</time>
      </trkpt>
      <trkpt lat="47.281" lon="-1.62954">
        <ele>91</ele>
        <time>2022-01-27T14:11:06Z</time>
      </trkpt>
      <trkpt lat="47.28099" lon="-1.62955">
        <ele>91</ele>
        <time>2022-01-27T14:11:07Z</time>
      </trkpt>
      <trkpt lat="47.28099" lon="-1.62957">
        <ele>91</ele>
        <time>2022-01-27T14:11:08Z</time>
      </trkpt>
      <trkpt lat="47.28098" lon="-1.62959">
        <ele>92</ele>
        <time>2022-01-27T14:11:09Z</time>
      </trkpt>
      <trkpt lat="47.28098" lon="-1.6296">
        <ele>92</ele>
        <time>2022-01-27T14:11:10Z</time>
      </trkpt>
      <trkpt lat="47.28097" lon="-1.62961">
        <ele>92</ele>
        <time>2022-01-27T14:11:11Z</time>
      </trkpt>
      <trkpt lat="47.28096" lon="-1.62963">
        <ele>92</ele>
        <time>2022-01-27T14:11:12Z</time>
      </trkpt>
      <trkpt lat="47.28096" lon="-1.62963">
        <ele>92</ele>
        <time>2022-01-27T14:11:13Z</time>
      </trkpt>
      <trkpt lat="47.28096" lon="-1.62963">
        <ele>92</ele>
        <time>2022-01-27T14:11:14Z</time>
      </trkpt>
      <trkpt lat="47.28096" lon="-1.62967">
        <ele>92</ele>
        <time>2022-01-27T14:11:15Z</time>
      </trkpt>
      <trkpt lat="47.28095" lon="-1.62968">
        <ele>92</ele>
        <time>2022-01-27T14:11:16Z</time>
      </trkpt>
      <trkpt lat="47.28095" lon="-1.6297">
        <ele>91</ele>
        <time>2022-01-27T14:11:17Z</time>
      </trkpt>
      <trkpt lat="47.28094" lon="-1.62972">
        <ele>91</ele>
        <time>2022-01-27T14:11:18Z</time>
      </trkpt>
      <trkpt lat="47.28093" lon="-1.62974">
        <ele>91</ele>
        <time>2022-01-27T14:11:19Z</time>
      </trkpt>
      <trkpt lat="47.28092" lon="-1.62975">
        <ele>91</ele>
        <time>2022-01-27T14:11:20Z</time>
      </trkpt>
      <trkpt lat="47.28091" lon="-1.62976">
        <ele>91</ele>
        <time>2022-01-27T14:11:21Z</time>
      </trkpt>
      <trkpt lat="47.28091" lon="-1.62978">
        <ele>91</ele>
        <time>2022-01-27T14:11:22Z</time>
      </trkpt>
      <trkpt lat="47.2809" lon="-1.6298">
        <ele>91</ele>
        <time>2022-01-27T14:11:23Z</time>
      </trkpt>
      <trkpt lat="47.28089" lon="-1.62982">
        <ele>91</ele>
        <time>2022-01-27T14:11:24Z</time>
      </trkpt>
      <trkpt lat="47.28088" lon="-1.62984">
        <ele>91</ele>
        <time>2022-01-27T14:11:25Z</time>
      </trkpt>
      <trkpt lat="47.28088" lon="-1.62985">
        <ele>91</ele>
        <time>2022-01-27T14:11:26Z</time>
      </trkpt>
      <trkpt lat="47.28087" lon="-1.62986">
        <ele>91</ele>
        <time>2022-01-27T14:11:27Z</time>
      </trkpt>
      <trkpt lat="47.28086" lon="-1.62988">
        <ele>91</ele>
        <time>2022-01-27T14:11:28Z</time>
      </trkpt>
      <trkpt lat="47.28086" lon="-1.62989">
        <ele>92</ele>
        <time>2022-01-27T14:11:29Z</time>
      </trkpt>
      <trkpt lat="47.28085" lon="-1.6299">
        <ele>92</ele>
        <time>2022-01-27T14:11:30Z</time>
      </trkpt>
      <trkpt lat="47.28085" lon="-1.62992">
        <ele>92</ele>
        <time>2022-01-27T14:11:31Z</time>
      </trkpt>
      <trkpt lat="47.28085" lon="-1.62994">
        <ele>92</ele>
        <time>2022-01-27T14:11:32Z</time>
      </trkpt>
      <trkpt lat="47.28084" lon="-1.62995">
        <ele>92</ele>
        <time>2022-01-27T14:11:33Z</time>
      </trkpt>
      <trkpt lat="47.28083" lon="-1.62997">
        <ele>92</ele>
        <time>2022-01-27T14:11:34Z</time>
      </trkpt>
      <trkpt lat="47.28082" lon="-1.62999">
        <ele>92</ele>
        <time>2022-01-27T14:11:35Z</time>
      </trkpt>
      <trkpt lat="47.2808" lon="-1.63001">
        <ele>93</ele>
        <time>2022-01-27T14:11:36Z</time>
      </trkpt>
      <trkpt lat="47.2808" lon="-1.63003">
        <ele>93</ele>
        <time>2022-01-27T14:11:37Z</time>
      </trkpt>
      <trkpt lat="47.2808" lon="-1.63004">
        <ele>93</ele>
        <time>2022-01-27T14:11:38Z</time>
      </trkpt>
      <trkpt lat="47.28079" lon="-1.63006">
        <ele>93</ele>
        <time>2022-01-27T14:11:39Z</time>
      </trkpt>
      <trkpt lat="47.28079" lon="-1.63007">
        <ele>93</ele>
        <time>2022-01-27T14:11:40Z</time>
      </trkpt>
      <trkpt lat="47.28079" lon="-1.6301">
        <ele>93</ele>
        <time>2022-01-27T14:11:41Z</time>
      </trkpt>
      <trkpt lat="47.28079" lon="-1.63011">
        <ele>93</ele>
        <time>2022-01-27T14:11:42Z</time>
      </trkpt>
      <trkpt lat="47.28078" lon="-1.63013">
        <ele>93</ele>
        <time>2022-01-27T14:11:43Z</time>
      </trkpt>
      <trkpt lat="47.28079" lon="-1.63014">
        <ele>92</ele>
        <time>2022-01-27T14:11:44Z</time>
      </trkpt>
      <trkpt lat="47.28079" lon="-1.63016">
        <ele>92</ele>
        <time>2022-01-27T14:11:45Z</time>
      </trkpt>
      <trkpt lat="47.28078" lon="-1.63017">
        <ele>92</ele>
        <time>2022-01-27T14:11:46Z</time>
      </trkpt>
      <trkpt lat="47.28077" lon="-1.63019">
        <ele>93</ele>
        <time>2022-01-27T14:11:47Z</time>
      </trkpt>
      <trkpt lat="47.28076" lon="-1.63021">
        <ele>93</ele>
        <time>2022-01-27T14:11:48Z</time>
      </trkpt>
      <trkpt lat="47.28076" lon="-1.63023">
        <ele>93</ele>
        <time>2022-01-27T14:11:49Z</time>
      </trkpt>
      <trkpt lat="47.28075" lon="-1.63025">
        <ele>93</ele>
        <time>2022-01-27T14:11:50Z</time>
      </trkpt>
      <trkpt lat="47.28074" lon="-1.63027">
        <ele>93</ele>
        <time>2022-01-27T14:11:51Z</time>
      </trkpt>
      <trkpt lat="47.28074" lon="-1.63029">
        <ele>94</ele>
        <time>2022-01-27T14:11:52Z</time>
      </trkpt>
      <trkpt lat="47.28073" lon="-1.63031">
        <ele>94</ele>
        <time>2022-01-27T14:11:53Z</time>
      </trkpt>
      <trkpt lat="47.28072" lon="-1.63033">
        <ele>94</ele>
        <time>2022-01-27T14:11:54Z</time>
      </trkpt>
      <trkpt lat="47.28071" lon="-1.63035">
        <ele>95</ele>
        <time>2022-01-27T14:11:55Z</time>
      </trkpt>
      <trkpt lat="47.2807" lon="-1.63037">
        <ele>95</ele>
        <time>2022-01-27T14:11:56Z</time>
      </trkpt>
      <trkpt lat="47.2807" lon="-1.63039">
        <ele>95</ele>
        <time>2022-01-27T14:11:57Z</time>
      </trkpt>
      <trkpt lat="47.28069" lon="-1.63041">
        <ele>95</ele>
        <time>2022-01-27T14:11:58Z</time>
      </trkpt>
      <trkpt lat="47.28069" lon="-1.63043">
        <ele>95</ele>
        <time>2022-01-27T14:11:59Z</time>
      </trkpt>
      <trkpt lat="47.28068" lon="-1.63044">
        <ele>95</ele>
        <time>2022-01-27T14:12:00Z</time>
      </trkpt>
      <trkpt lat="47.28068" lon="-1.63046">
        <ele>95</ele>
        <time>2022-01-27T14:12:01Z</time>
      </trkpt>
      <trkpt lat="47.28067" lon="-1.63047">
        <ele>95</ele>
        <time>2022-01-27T14:12:02Z</time>
      </trkpt>
      <trkpt lat="47.28067" lon="-1.63049">
        <ele>96</ele>
        <time>2022-01-27T14:12:03Z</time>
      </trkpt>
      <trkpt lat="47.28066" lon="-1.63051">
        <ele>96</ele>
        <time>2022-01-27T14:12:04Z</time>
      </trkpt>
      <trkpt lat="47.28066" lon="-1.63052">
        <ele>96</ele>
        <time>2022-01-27T14:12:05Z</time>
      </trkpt>
      <trkpt lat="47.28065" lon="-1.63054">
        <ele>96</ele>
        <time>2022-01-27T14:12:06Z</time>
      </trkpt>
      <trkpt lat="47.28064" lon="-1.63055">
        <ele>96</ele>
        <time>2022-01-27T14:12:07Z</time>
      </trkpt>
      <trkpt lat="47.28063" lon="-1.63057">
        <ele>96</ele>
        <time>2022-01-27T14:12:08Z</time>
      </trkpt>
      <trkpt lat="47.28062" lon="-1.63058">
        <ele>96</ele>
        <time>2022-01-27T14:12:09Z</time>
      </trkpt>
      <trkpt lat="47.28062" lon="-1.63059">
        <ele>96</ele>
        <time>2022-01-27T14:12:10Z</time>
      </trkpt>
      <trkpt lat="47.28061" lon="-1.6306">
        <ele>96</ele>
        <time>2022-01-27T14:12:11Z</time>
      </trkpt>
      <trkpt lat="47.28059" lon="-1.63061">
        <ele>96</ele>
        <time>2022-01-27T14:12:12Z</time>
      </trkpt>
      <trkpt lat="47.28059" lon="-1.63061">
        <ele>97</ele>
        <time>2022-01-27T14:12:13Z</time>
      </trkpt>
      <trkpt lat="47.28058" lon="-1.63062">
        <ele>96</ele>
        <time>2022-01-27T14:12:14Z</time>
      </trkpt>
      <trkpt lat="47.28057" lon="-1.63063">
        <ele>97</ele>
        <time>2022-01-27T14:12:15Z</time>
      </trkpt>
      <trkpt lat="47.28056" lon="-1.63064">
        <ele>97</ele>
        <time>2022-01-27T14:12:16Z</time>
      </trkpt>
      <trkpt lat="47.28054" lon="-1.63065">
        <ele>97</ele>
        <time>2022-01-27T14:12:17Z</time>
      </trkpt>
      <trkpt lat="47.28053" lon="-1.63065">
        <ele>97</ele>
        <time>2022-01-27T14:12:18Z</time>
      </trkpt>
      <trkpt lat="47.28053" lon="-1.63066">
        <ele>96</ele>
        <time>2022-01-27T14:12:19Z</time>
      </trkpt>
      <trkpt lat="47.28052" lon="-1.63067">
        <ele>96</ele>
        <time>2022-01-27T14:12:20Z</time>
      </trkpt>
      <trkpt lat="47.28051" lon="-1.63068">
        <ele>97</ele>
        <time>2022-01-27T14:12:21Z</time>
      </trkpt>
      <trkpt lat="47.28051" lon="-1.63069">
        <ele>97</ele>
        <time>2022-01-27T14:12:22Z</time>
      </trkpt>
      <trkpt lat="47.28051" lon="-1.6307">
        <ele>97</ele>
        <time>2022-01-27T14:12:23Z</time>
      </trkpt>
      <trkpt lat="47.2805" lon="-1.63071">
        <ele>97</ele>
        <time>2022-01-27T14:12:24Z</time>
      </trkpt>
      <trkpt lat="47.2805" lon="-1.63072">
        <ele>97</ele>
        <time>2022-01-27T14:12:25Z</time>
      </trkpt>
      <trkpt lat="47.28048" lon="-1.63073">
        <ele>97</ele>
        <time>2022-01-27T14:12:26Z</time>
      </trkpt>
      <trkpt lat="47.28047" lon="-1.63074">
        <ele>97</ele>
        <time>2022-01-27T14:12:27Z</time>
      </trkpt>
      <trkpt lat="47.28046" lon="-1.63075">
        <ele>97</ele>
        <time>2022-01-27T14:12:28Z</time>
      </trkpt>
      <trkpt lat="47.28045" lon="-1.63075">
        <ele>97</ele>
        <time>2022-01-27T14:12:29Z</time>
      </trkpt>
      <trkpt lat="47.28043" lon="-1.63076">
        <ele>97</ele>
        <time>2022-01-27T14:12:30Z</time>
      </trkpt>
      <trkpt lat="47.28042" lon="-1.63077">
        <ele>98</ele>
        <time>2022-01-27T14:12:31Z</time>
      </trkpt>
      <trkpt lat="47.2804" lon="-1.63078">
        <ele>98</ele>
        <time>2022-01-27T14:12:32Z</time>
      </trkpt>
      <trkpt lat="47.28038" lon="-1.63079">
        <ele>98</ele>
        <time>2022-01-27T14:12:33Z</time>
      </trkpt>
      <trkpt lat="47.28037" lon="-1.6308">
        <ele>98</ele>
        <time>2022-01-27T14:12:34Z</time>
      </trkpt>
      <trkpt lat="47.28036" lon="-1.6308">
        <ele>98</ele>
        <time>2022-01-27T14:12:35Z</time>
      </trkpt>
      <trkpt lat="47.28034" lon="-1.6308">
        <ele>98</ele>
        <time>2022-01-27T14:12:36Z</time>
      </trkpt>
      <trkpt lat="47.28033" lon="-1.6308">
        <ele>98</ele>
        <time>2022-01-27T14:12:37Z</time>
      </trkpt>
      <trkpt lat="47.28031" lon="-1.6308">
        <ele>98</ele>
        <time>2022-01-27T14:12:38Z</time>
      </trkpt>
      <trkpt lat="47.28029" lon="-1.6308">
        <ele>98</ele>
        <time>2022-01-27T14:12:39Z</time>
      </trkpt>
      <trkpt lat="47.28028" lon="-1.63079">
        <ele>99</ele>
        <time>2022-01-27T14:12:40Z</time>
      </trkpt>
      <trkpt lat="47.28026" lon="-1.63079">
        <ele>99</ele>
        <time>2022-01-27T14:12:41Z</time>
      </trkpt>
      <trkpt lat="47.28025" lon="-1.63079">
        <ele>99</ele>
        <time>2022-01-27T14:12:42Z</time>
      </trkpt>
      <trkpt lat="47.28024" lon="-1.63078">
        <ele>99</ele>
        <time>2022-01-27T14:12:43Z</time>
      </trkpt>
      <trkpt lat="47.28023" lon="-1.63077">
        <ele>99</ele>
        <time>2022-01-27T14:12:44Z</time>
      </trkpt>
      <trkpt lat="47.28021" lon="-1.63076">
        <ele>99</ele>
        <time>2022-01-27T14:12:45Z</time>
      </trkpt>
      <trkpt lat="47.2802" lon="-1.63076">
        <ele>98</ele>
        <time>2022-01-27T14:12:46Z</time>
      </trkpt>
      <trkpt lat="47.28019" lon="-1.63075">
        <ele>98</ele>
        <time>2022-01-27T14:12:47Z</time>
      </trkpt>
      <trkpt lat="47.28017" lon="-1.63074">
        <ele>98</ele>
        <time>2022-01-27T14:12:48Z</time>
      </trkpt>
      <trkpt lat="47.28017" lon="-1.63073">
        <ele>98</ele>
        <time>2022-01-27T14:12:49Z</time>
      </trkpt>
      <trkpt lat="47.28016" lon="-1.63072">
        <ele>98</ele>
        <time>2022-01-27T14:12:50Z</time>
      </trkpt>
      <trkpt lat="47.28014" lon="-1.63072">
        <ele>99</ele>
        <time>2022-01-27T14:12:51Z</time>
      </trkpt>
      <trkpt lat="47.28013" lon="-1.6307">
        <ele>99</ele>
        <time>2022-01-27T14:12:52Z</time>
      </trkpt>
      <trkpt lat="47.28012" lon="-1.6307">
        <ele>99</ele>
        <time>2022-01-27T14:12:53Z</time>
      </trkpt>
      <trkpt lat="47.28011" lon="-1.63069">
        <ele>99</ele>
        <time>2022-01-27T14:12:54Z</time>
      </trkpt>
      <trkpt lat="47.28009" lon="-1.63068">
        <ele>98</ele>
        <time>2022-01-27T14:12:55Z</time>
      </trkpt>
      <trkpt lat="47.28008" lon="-1.63067">
        <ele>99</ele>
        <time>2022-01-27T14:12:56Z</time>
      </trkpt>
      <trkpt lat="47.28007" lon="-1.63066">
        <ele>99</ele>
        <time>2022-01-27T14:12:57Z</time>
      </trkpt>
      <trkpt lat="47.28005" lon="-1.63065">
        <ele>99</ele>
        <time>2022-01-27T14:12:58Z</time>
      </trkpt>
      <trkpt lat="47.28004" lon="-1.63064">
        <ele>99</ele>
        <time>2022-01-27T14:12:59Z</time>
      </trkpt>
      <trkpt lat="47.28003" lon="-1.63063">
        <ele>99</ele>
        <time>2022-01-27T14:13:00Z</time>
      </trkpt>
      <trkpt lat="47.28001" lon="-1.63061">
        <ele>99</ele>
        <time>2022-01-27T14:13:01Z</time>
      </trkpt>
      <trkpt lat="47.28" lon="-1.6306">
        <ele>99</ele>
        <time>2022-01-27T14:13:02Z</time>
      </trkpt>
      <trkpt lat="47.27999" lon="-1.63059">
        <ele>99</ele>
        <time>2022-01-27T14:13:03Z</time>
      </trkpt>
      <trkpt lat="47.27997" lon="-1.63058">
        <ele>99</ele>
        <time>2022-01-27T14:13:04Z</time>
      </trkpt>
      <trkpt lat="47.27996" lon="-1.63057">
        <ele>99</ele>
        <time>2022-01-27T14:13:05Z</time>
      </trkpt>
      <trkpt lat="47.27995" lon="-1.63056">
        <ele>100</ele>
        <time>2022-01-27T14:13:06Z</time>
      </trkpt>
      <trkpt lat="47.27994" lon="-1.63055">
        <ele>100</ele>
        <time>2022-01-27T14:13:07Z</time>
      </trkpt>
      <trkpt lat="47.27993" lon="-1.63054">
        <ele>100</ele>
        <time>2022-01-27T14:13:08Z</time>
      </trkpt>
      <trkpt lat="47.27992" lon="-1.63053">
        <ele>100</ele>
        <time>2022-01-27T14:13:09Z</time>
      </trkpt>
      <trkpt lat="47.27991" lon="-1.63053">
        <ele>100</ele>
        <time>2022-01-27T14:13:10Z</time>
      </trkpt>
      <trkpt lat="47.27989" lon="-1.63052">
        <ele>100</ele>
        <time>2022-01-27T14:13:11Z</time>
      </trkpt>
      <trkpt lat="47.27988" lon="-1.63052">
        <ele>100</ele>
        <time>2022-01-27T14:13:12Z</time>
      </trkpt>
      <trkpt lat="47.27987" lon="-1.63051">
        <ele>101</ele>
        <time>2022-01-27T14:13:13Z</time>
      </trkpt>
      <trkpt lat="47.27986" lon="-1.6305">
        <ele>101</ele>
        <time>2022-01-27T14:13:14Z</time>
      </trkpt>
      <trkpt lat="47.27985" lon="-1.63049">
        <ele>101</ele>
        <time>2022-01-27T14:13:15Z</time>
      </trkpt>
      <trkpt lat="47.27983" lon="-1.63048">
        <ele>101</ele>
        <time>2022-01-27T14:13:16Z</time>
      </trkpt>
      <trkpt lat="47.27982" lon="-1.63047">
        <ele>101</ele>
        <time>2022-01-27T14:13:17Z</time>
      </trkpt>
      <trkpt lat="47.2798" lon="-1.63046">
        <ele>101</ele>
        <time>2022-01-27T14:13:18Z</time>
      </trkpt>
      <trkpt lat="47.27979" lon="-1.63046">
        <ele>101</ele>
        <time>2022-01-27T14:13:19Z</time>
      </trkpt>
      <trkpt lat="47.27978" lon="-1.63045">
        <ele>101</ele>
        <time>2022-01-27T14:13:20Z</time>
      </trkpt>
      <trkpt lat="47.27977" lon="-1.63044">
        <ele>101</ele>
        <time>2022-01-27T14:13:21Z</time>
      </trkpt>
      <trkpt lat="47.27975" lon="-1.63043">
        <ele>101</ele>
        <time>2022-01-27T14:13:22Z</time>
      </trkpt>
      <trkpt lat="47.27974" lon="-1.63042">
        <ele>101</ele>
        <time>2022-01-27T14:13:23Z</time>
      </trkpt>
      <trkpt lat="47.27973" lon="-1.63041">
        <ele>101</ele>
        <time>2022-01-27T14:13:24Z</time>
      </trkpt>
      <trkpt lat="47.27972" lon="-1.6304">
        <ele>101</ele>
        <time>2022-01-27T14:13:25Z</time>
      </trkpt>
      <trkpt lat="47.27971" lon="-1.63039">
        <ele>101</ele>
        <time>2022-01-27T14:13:26Z</time>
      </trkpt>
      <trkpt lat="47.2797" lon="-1.63038">
        <ele>101</ele>
        <time>2022-01-27T14:13:27Z</time>
      </trkpt>
      <trkpt lat="47.27969" lon="-1.63037">
        <ele>100</ele>
        <time>2022-01-27T14:13:28Z</time>
      </trkpt>
      <trkpt lat="47.27969" lon="-1.63036">
        <ele>100</ele>
        <time>2022-01-27T14:13:29Z</time>
      </trkpt>
      <trkpt lat="47.27968" lon="-1.63035">
        <ele>100</ele>
        <time>2022-01-27T14:13:30Z</time>
      </trkpt>
      <trkpt lat="47.27966" lon="-1.63034">
        <ele>100</ele>
        <time>2022-01-27T14:13:31Z</time>
      </trkpt>
      <trkpt lat="47.27965" lon="-1.63033">
        <ele>99</ele>
        <time>2022-01-27T14:13:32Z</time>
      </trkpt>
      <trkpt lat="47.27964" lon="-1.63032">
        <ele>99</ele>
        <time>2022-01-27T14:13:33Z</time>
      </trkpt>
      <trkpt lat="47.27963" lon="-1.63031">
        <ele>99</ele>
        <time>2022-01-27T14:13:34Z</time>
      </trkpt>
      <trkpt lat="47.27962" lon="-1.6303">
        <ele>98</ele>
        <time>2022-01-27T14:13:35Z</time>
      </trkpt>
      <trkpt lat="47.27961" lon="-1.6303">
        <ele>98</ele>
        <time>2022-01-27T14:13:36Z</time>
      </trkpt>
      <trkpt lat="47.2796" lon="-1.63029">
        <ele>98</ele>
        <time>2022-01-27T14:13:37Z</time>
      </trkpt>
      <trkpt lat="47.27959" lon="-1.63028">
        <ele>98</ele>
        <time>2022-01-27T14:13:38Z</time>
      </trkpt>
      <trkpt lat="47.27958" lon="-1.63027">
        <ele>98</ele>
        <time>2022-01-27T14:13:39Z</time>
      </trkpt>
      <trkpt lat="47.27957" lon="-1.63026">
        <ele>98</ele>
        <time>2022-01-27T14:13:40Z</time>
      </trkpt>
      <trkpt lat="47.27956" lon="-1.63024">
        <ele>97</ele>
        <time>2022-01-27T14:13:41Z</time>
      </trkpt>
      <trkpt lat="47.27955" lon="-1.63023">
        <ele>97</ele>
        <time>2022-01-27T14:13:42Z</time>
      </trkpt>
      <trkpt lat="47.27954" lon="-1.63022">
        <ele>98</ele>
        <time>2022-01-27T14:13:43Z</time>
      </trkpt>
      <trkpt lat="47.27953" lon="-1.63021">
        <ele>97</ele>
        <time>2022-01-27T14:13:44Z</time>
      </trkpt>
      <trkpt lat="47.27952" lon="-1.6302">
        <ele>97</ele>
        <time>2022-01-27T14:13:45Z</time>
      </trkpt>
      <trkpt lat="47.27951" lon="-1.63019">
        <ele>97</ele>
        <time>2022-01-27T14:13:46Z</time>
      </trkpt>
      <trkpt lat="47.2795" lon="-1.63018">
        <ele>97</ele>
        <time>2022-01-27T14:13:47Z</time>
      </trkpt>
      <trkpt lat="47.2795" lon="-1.63016">
        <ele>97</ele>
        <time>2022-01-27T14:13:48Z</time>
      </trkpt>
      <trkpt lat="47.27949" lon="-1.63014">
        <ele>97</ele>
        <time>2022-01-27T14:13:49Z</time>
      </trkpt>
      <trkpt lat="47.27948" lon="-1.63012">
        <ele>97</ele>
        <time>2022-01-27T14:13:50Z</time>
      </trkpt>
      <trkpt lat="47.27947" lon="-1.63011">
        <ele>97</ele>
        <time>2022-01-27T14:13:51Z</time>
      </trkpt>
      <trkpt lat="47.27946" lon="-1.6301">
        <ele>97</ele>
        <time>2022-01-27T14:13:52Z</time>
      </trkpt>
      <trkpt lat="47.27944" lon="-1.63009">
        <ele>97</ele>
        <time>2022-01-27T14:13:53Z</time>
      </trkpt>
      <trkpt lat="47.27943" lon="-1.63008">
        <ele>97</ele>
        <time>2022-01-27T14:13:54Z</time>
      </trkpt>
      <trkpt lat="47.27942" lon="-1.63006">
        <ele>97</ele>
        <time>2022-01-27T14:13:55Z</time>
      </trkpt>
      <trkpt lat="47.27941" lon="-1.63005">
        <ele>96</ele>
        <time>2022-01-27T14:13:56Z</time>
      </trkpt>
      <trkpt lat="47.2794" lon="-1.63003">
        <ele>96</ele>
        <time>2022-01-27T14:13:57Z</time>
      </trkpt>
      <trkpt lat="47.27939" lon="-1.63002">
        <ele>96</ele>
        <time>2022-01-27T14:13:58Z</time>
      </trkpt>
      <trkpt lat="47.27938" lon="-1.63001">
        <ele>96</ele>
        <time>2022-01-27T14:13:59Z</time>
      </trkpt>
      <trkpt lat="47.27937" lon="-1.63">
        <ele>96</ele>
        <time>2022-01-27T14:14:00Z</time>
      </trkpt>
      <trkpt lat="47.27936" lon="-1.62999">
        <ele>96</ele>
        <time>2022-01-27T14:14:01Z</time>
      </trkpt>
      <trkpt lat="47.27935" lon="-1.62998">
        <ele>96</ele>
        <time>2022-01-27T14:14:02Z</time>
      </trkpt>
      <trkpt lat="47.27934" lon="-1.62996">
        <ele>96</ele>
        <time>2022-01-27T14:14:03Z</time>
      </trkpt>
      <trkpt lat="47.27934" lon="-1.62995">
        <ele>96</ele>
        <time>2022-01-27T14:14:04Z</time>
      </trkpt>
      <trkpt lat="47.27933" lon="-1.62994">
        <ele>96</ele>
        <time>2022-01-27T14:14:05Z</time>
      </trkpt>
      <trkpt lat="47.27932" lon="-1.62993">
        <ele>96</ele>
        <time>2022-01-27T14:14:06Z</time>
      </trkpt>
      <trkpt lat="47.27931" lon="-1.62992">
        <ele>96</ele>
        <time>2022-01-27T14:14:07Z</time>
      </trkpt>
      <trkpt lat="47.2793" lon="-1.62991">
        <ele>96</ele>
        <time>2022-01-27T14:14:08Z</time>
      </trkpt>
      <trkpt lat="47.27929" lon="-1.6299">
        <ele>96</ele>
        <time>2022-01-27T14:14:09Z</time>
      </trkpt>
      <trkpt lat="47.27928" lon="-1.62989">
        <ele>96</ele>
        <time>2022-01-27T14:14:10Z</time>
      </trkpt>
      <trkpt lat="47.27926" lon="-1.62988">
        <ele>96</ele>
        <time>2022-01-27T14:14:11Z</time>
      </trkpt>
      <trkpt lat="47.27926" lon="-1.62987">
        <ele>95</ele>
        <time>2022-01-27T14:14:12Z</time>
      </trkpt>
      <trkpt lat="47.27924" lon="-1.62986">
        <ele>95</ele>
        <time>2022-01-27T14:14:13Z</time>
      </trkpt>
      <trkpt lat="47.27923" lon="-1.62984">
        <ele>95</ele>
        <time>2022-01-27T14:14:14Z</time>
      </trkpt>
      <trkpt lat="47.27922" lon="-1.62983">
        <ele>96</ele>
        <time>2022-01-27T14:14:15Z</time>
      </trkpt>
      <trkpt lat="47.27921" lon="-1.62983">
        <ele>96</ele>
        <time>2022-01-27T14:14:16Z</time>
      </trkpt>
      <trkpt lat="47.27919" lon="-1.62982">
        <ele>96</ele>
        <time>2022-01-27T14:14:17Z</time>
      </trkpt>
      <trkpt lat="47.27919" lon="-1.6298">
        <ele>95</ele>
        <time>2022-01-27T14:14:18Z</time>
      </trkpt>
      <trkpt lat="47.27918" lon="-1.62979">
        <ele>95</ele>
        <time>2022-01-27T14:14:19Z</time>
      </trkpt>
      <trkpt lat="47.27916" lon="-1.62978">
        <ele>95</ele>
        <time>2022-01-27T14:14:20Z</time>
      </trkpt>
      <trkpt lat="47.27914" lon="-1.62977">
        <ele>95</ele>
        <time>2022-01-27T14:14:21Z</time>
      </trkpt>
      <trkpt lat="47.27913" lon="-1.62975">
        <ele>95</ele>
        <time>2022-01-27T14:14:22Z</time>
      </trkpt>
      <trkpt lat="47.27912" lon="-1.62974">
        <ele>95</ele>
        <time>2022-01-27T14:14:23Z</time>
      </trkpt>
      <trkpt lat="47.27911" lon="-1.62973">
        <ele>95</ele>
        <time>2022-01-27T14:14:24Z</time>
      </trkpt>
      <trkpt lat="47.2791" lon="-1.62971">
        <ele>95</ele>
        <time>2022-01-27T14:14:25Z</time>
      </trkpt>
      <trkpt lat="47.27909" lon="-1.6297">
        <ele>95</ele>
        <time>2022-01-27T14:14:26Z</time>
      </trkpt>
      <trkpt lat="47.27908" lon="-1.62969">
        <ele>95</ele>
        <time>2022-01-27T14:14:27Z</time>
      </trkpt>
      <trkpt lat="47.27907" lon="-1.62968">
        <ele>95</ele>
        <time>2022-01-27T14:14:28Z</time>
      </trkpt>
      <trkpt lat="47.27906" lon="-1.62967">
        <ele>95</ele>
        <time>2022-01-27T14:14:29Z</time>
      </trkpt>
      <trkpt lat="47.27904" lon="-1.62966">
        <ele>95</ele>
        <time>2022-01-27T14:14:30Z</time>
      </trkpt>
      <trkpt lat="47.27903" lon="-1.62966">
        <ele>95</ele>
        <time>2022-01-27T14:14:31Z</time>
      </trkpt>
      <trkpt lat="47.27901" lon="-1.62965">
        <ele>95</ele>
        <time>2022-01-27T14:14:32Z</time>
      </trkpt>
      <trkpt lat="47.279" lon="-1.62965">
        <ele>95</ele>
        <time>2022-01-27T14:14:33Z</time>
      </trkpt>
      <trkpt lat="47.27898" lon="-1.62964">
        <ele>95</ele>
        <time>2022-01-27T14:14:34Z</time>
      </trkpt>
      <trkpt lat="47.27897" lon="-1.62963">
        <ele>95</ele>
        <time>2022-01-27T14:14:35Z</time>
      </trkpt>
      <trkpt lat="47.27896" lon="-1.62962">
        <ele>95</ele>
        <time>2022-01-27T14:14:36Z</time>
      </trkpt>
      <trkpt lat="47.27894" lon="-1.62962">
        <ele>95</ele>
        <time>2022-01-27T14:14:37Z</time>
      </trkpt>
      <trkpt lat="47.27893" lon="-1.62961">
        <ele>95</ele>
        <time>2022-01-27T14:14:38Z</time>
      </trkpt>
      <trkpt lat="47.27892" lon="-1.6296">
        <ele>96</ele>
        <time>2022-01-27T14:14:39Z</time>
      </trkpt>
      <trkpt lat="47.2789" lon="-1.62959">
        <ele>96</ele>
        <time>2022-01-27T14:14:40Z</time>
      </trkpt>
      <trkpt lat="47.27889" lon="-1.62959">
        <ele>96</ele>
        <time>2022-01-27T14:14:41Z</time>
      </trkpt>
      <trkpt lat="47.27888" lon="-1.62959">
        <ele>96</ele>
        <time>2022-01-27T14:14:42Z</time>
      </trkpt>
      <trkpt lat="47.27886" lon="-1.62959">
        <ele>97</ele>
        <time>2022-01-27T14:14:43Z</time>
      </trkpt>
      <trkpt lat="47.27885" lon="-1.62958">
        <ele>97</ele>
        <time>2022-01-27T14:14:44Z</time>
      </trkpt>
      <trkpt lat="47.27884" lon="-1.62958">
        <ele>97</ele>
        <time>2022-01-27T14:14:45Z</time>
      </trkpt>
      <trkpt lat="47.27882" lon="-1.62957">
        <ele>97</ele>
        <time>2022-01-27T14:14:46Z</time>
      </trkpt>
      <trkpt lat="47.27881" lon="-1.62957">
        <ele>97</ele>
        <time>2022-01-27T14:14:47Z</time>
      </trkpt>
      <trkpt lat="47.2788" lon="-1.62956">
        <ele>96</ele>
        <time>2022-01-27T14:14:48Z</time>
      </trkpt>
      <trkpt lat="47.27879" lon="-1.62955">
        <ele>97</ele>
        <time>2022-01-27T14:14:49Z</time>
      </trkpt>
      <trkpt lat="47.27878" lon="-1.62955">
        <ele>97</ele>
        <time>2022-01-27T14:14:50Z</time>
      </trkpt>
      <trkpt lat="47.27877" lon="-1.62955">
        <ele>97</ele>
        <time>2022-01-27T14:14:51Z</time>
      </trkpt>
      <trkpt lat="47.27876" lon="-1.62954">
        <ele>96</ele>
        <time>2022-01-27T14:14:52Z</time>
      </trkpt>
      <trkpt lat="47.27874" lon="-1.62954">
        <ele>96</ele>
        <time>2022-01-27T14:14:53Z</time>
      </trkpt>
      <trkpt lat="47.27873" lon="-1.62954">
        <ele>96</ele>
        <time>2022-01-27T14:14:54Z</time>
      </trkpt>
      <trkpt lat="47.27871" lon="-1.62953">
        <ele>97</ele>
        <time>2022-01-27T14:14:55Z</time>
      </trkpt>
      <trkpt lat="47.2787" lon="-1.62953">
        <ele>97</ele>
        <time>2022-01-27T14:14:56Z</time>
      </trkpt>
      <trkpt lat="47.27869" lon="-1.62953">
        <ele>97</ele>
        <time>2022-01-27T14:14:57Z</time>
      </trkpt>
      <trkpt lat="47.27867" lon="-1.62953">
        <ele>97</ele>
        <time>2022-01-27T14:14:58Z</time>
      </trkpt>
      <trkpt lat="47.27866" lon="-1.62952">
        <ele>97</ele>
        <time>2022-01-27T14:14:59Z</time>
      </trkpt>
      <trkpt lat="47.27865" lon="-1.62952">
        <ele>97</ele>
        <time>2022-01-27T14:15:00Z</time>
      </trkpt>
      <trkpt lat="47.27863" lon="-1.62952">
        <ele>97</ele>
        <time>2022-01-27T14:15:01Z</time>
      </trkpt>
      <trkpt lat="47.27862" lon="-1.62951">
        <ele>96</ele>
        <time>2022-01-27T14:15:02Z</time>
      </trkpt>
      <trkpt lat="47.2786" lon="-1.62951">
        <ele>96</ele>
        <time>2022-01-27T14:15:03Z</time>
      </trkpt>
      <trkpt lat="47.27859" lon="-1.62951">
        <ele>96</ele>
        <time>2022-01-27T14:15:04Z</time>
      </trkpt>
      <trkpt lat="47.27858" lon="-1.62951">
        <ele>96</ele>
        <time>2022-01-27T14:15:05Z</time>
      </trkpt>
      <trkpt lat="47.27856" lon="-1.62951">
        <ele>96</ele>
        <time>2022-01-27T14:15:06Z</time>
      </trkpt>
      <trkpt lat="47.27855" lon="-1.6295">
        <ele>96</ele>
        <time>2022-01-27T14:15:07Z</time>
      </trkpt>
      <trkpt lat="47.27854" lon="-1.6295">
        <ele>95</ele>
        <time>2022-01-27T14:15:08Z</time>
      </trkpt>
      <trkpt lat="47.27852" lon="-1.62949">
        <ele>95</ele>
        <time>2022-01-27T14:15:09Z</time>
      </trkpt>
      <trkpt lat="47.27851" lon="-1.6295">
        <ele>96</ele>
        <time>2022-01-27T14:15:10Z</time>
      </trkpt>
      <trkpt lat="47.2785" lon="-1.62949">
        <ele>96</ele>
        <time>2022-01-27T14:15:11Z</time>
      </trkpt>
      <trkpt lat="47.27849" lon="-1.62949">
        <ele>95</ele>
        <time>2022-01-27T14:15:12Z</time>
      </trkpt>
      <trkpt lat="47.27848" lon="-1.62948">
        <ele>95</ele>
        <time>2022-01-27T14:15:13Z</time>
      </trkpt>
      <trkpt lat="47.27846" lon="-1.62948">
        <ele>95</ele>
        <time>2022-01-27T14:15:14Z</time>
      </trkpt>
      <trkpt lat="47.27845" lon="-1.62949">
        <ele>95</ele>
        <time>2022-01-27T14:15:15Z</time>
      </trkpt>
      <trkpt lat="47.27844" lon="-1.62949">
        <ele>95</ele>
        <time>2022-01-27T14:15:16Z</time>
      </trkpt>
      <trkpt lat="47.27842" lon="-1.62949">
        <ele>96</ele>
        <time>2022-01-27T14:15:17Z</time>
      </trkpt>
      <trkpt lat="47.27841" lon="-1.62949">
        <ele>96</ele>
        <time>2022-01-27T14:15:18Z</time>
      </trkpt>
      <trkpt lat="47.27839" lon="-1.62948">
        <ele>95</ele>
        <time>2022-01-27T14:15:19Z</time>
      </trkpt>
      <trkpt lat="47.27838" lon="-1.62948">
        <ele>95</ele>
        <time>2022-01-27T14:15:20Z</time>
      </trkpt>
      <trkpt lat="47.27837" lon="-1.62947">
        <ele>95</ele>
        <time>2022-01-27T14:15:21Z</time>
      </trkpt>
      <trkpt lat="47.27836" lon="-1.62947">
        <ele>95</ele>
        <time>2022-01-27T14:15:22Z</time>
      </trkpt>
      <trkpt lat="47.27834" lon="-1.62946">
        <ele>95</ele>
        <time>2022-01-27T14:15:23Z</time>
      </trkpt>
      <trkpt lat="47.27832" lon="-1.62946">
        <ele>95</ele>
        <time>2022-01-27T14:15:24Z</time>
      </trkpt>
      <trkpt lat="47.27831" lon="-1.62945">
        <ele>96</ele>
        <time>2022-01-27T14:15:25Z</time>
      </trkpt>
      <trkpt lat="47.2783" lon="-1.62945">
        <ele>96</ele>
        <time>2022-01-27T14:15:26Z</time>
      </trkpt>
      <trkpt lat="47.27828" lon="-1.62944">
        <ele>96</ele>
        <time>2022-01-27T14:15:27Z</time>
      </trkpt>
      <trkpt lat="47.27827" lon="-1.62944">
        <ele>96</ele>
        <time>2022-01-27T14:15:28Z</time>
      </trkpt>
      <trkpt lat="47.27826" lon="-1.62943">
        <ele>95</ele>
        <time>2022-01-27T14:15:29Z</time>
      </trkpt>
      <trkpt lat="47.27825" lon="-1.62942">
        <ele>95</ele>
        <time>2022-01-27T14:15:30Z</time>
      </trkpt>
      <trkpt lat="47.27824" lon="-1.62942">
        <ele>95</ele>
        <time>2022-01-27T14:15:31Z</time>
      </trkpt>
      <trkpt lat="47.27822" lon="-1.62942">
        <ele>95</ele>
        <time>2022-01-27T14:15:32Z</time>
      </trkpt>
      <trkpt lat="47.27821" lon="-1.62941">
        <ele>95</ele>
        <time>2022-01-27T14:15:33Z</time>
      </trkpt>
      <trkpt lat="47.2782" lon="-1.62941">
        <ele>95</ele>
        <time>2022-01-27T14:15:34Z</time>
      </trkpt>
      <trkpt lat="47.27818" lon="-1.62941">
        <ele>96</ele>
        <time>2022-01-27T14:15:35Z</time>
      </trkpt>
      <trkpt lat="47.27817" lon="-1.6294">
        <ele>95</ele>
        <time>2022-01-27T14:15:36Z</time>
      </trkpt>
      <trkpt lat="47.27816" lon="-1.6294">
        <ele>95</ele>
        <time>2022-01-27T14:15:37Z</time>
      </trkpt>
      <trkpt lat="47.27815" lon="-1.6294">
        <ele>95</ele>
        <time>2022-01-27T14:15:38Z</time>
      </trkpt>
      <trkpt lat="47.27813" lon="-1.6294">
        <ele>95</ele>
        <time>2022-01-27T14:15:39Z</time>
      </trkpt>
      <trkpt lat="47.27812" lon="-1.62939">
        <ele>95</ele>
        <time>2022-01-27T14:15:40Z</time>
      </trkpt>
      <trkpt lat="47.27811" lon="-1.62939">
        <ele>95</ele>
        <time>2022-01-27T14:15:41Z</time>
      </trkpt>
      <trkpt lat="47.2781" lon="-1.62938">
        <ele>95</ele>
        <time>2022-01-27T14:15:42Z</time>
      </trkpt>
      <trkpt lat="47.27809" lon="-1.62938">
        <ele>95</ele>
        <time>2022-01-27T14:15:43Z</time>
      </trkpt>
      <trkpt lat="47.27808" lon="-1.62938">
        <ele>95</ele>
        <time>2022-01-27T14:15:44Z</time>
      </trkpt>
      <trkpt lat="47.27807" lon="-1.62938">
        <ele>94</ele>
        <time>2022-01-27T14:15:45Z</time>
      </trkpt>
      <trkpt lat="47.27806" lon="-1.62937">
        <ele>94</ele>
        <time>2022-01-27T14:15:46Z</time>
      </trkpt>
      <trkpt lat="47.27805" lon="-1.62937">
        <ele>94</ele>
        <time>2022-01-27T14:15:47Z</time>
      </trkpt>
      <trkpt lat="47.27803" lon="-1.62937">
        <ele>94</ele>
        <time>2022-01-27T14:15:48Z</time>
      </trkpt>
      <trkpt lat="47.27802" lon="-1.62936">
        <ele>94</ele>
        <time>2022-01-27T14:15:49Z</time>
      </trkpt>
      <trkpt lat="47.278" lon="-1.62936">
        <ele>94</ele>
        <time>2022-01-27T14:15:50Z</time>
      </trkpt>
      <trkpt lat="47.27799" lon="-1.62936">
        <ele>94</ele>
        <time>2022-01-27T14:15:51Z</time>
      </trkpt>
      <trkpt lat="47.27798" lon="-1.62935">
        <ele>94</ele>
        <time>2022-01-27T14:15:52Z</time>
      </trkpt>
      <trkpt lat="47.27796" lon="-1.62934">
        <ele>94</ele>
        <time>2022-01-27T14:15:53Z</time>
      </trkpt>
      <trkpt lat="47.27795" lon="-1.62933">
        <ele>94</ele>
        <time>2022-01-27T14:15:54Z</time>
      </trkpt>
      <trkpt lat="47.27794" lon="-1.62932">
        <ele>94</ele>
        <time>2022-01-27T14:15:55Z</time>
      </trkpt>
      <trkpt lat="47.27793" lon="-1.62931">
        <ele>94</ele>
        <time>2022-01-27T14:15:56Z</time>
      </trkpt>
      <trkpt lat="47.27791" lon="-1.6293">
        <ele>94</ele>
        <time>2022-01-27T14:15:57Z</time>
      </trkpt>
      <trkpt lat="47.2779" lon="-1.62929">
        <ele>94</ele>
        <time>2022-01-27T14:15:58Z</time>
      </trkpt>
      <trkpt lat="47.27789" lon="-1.62927">
        <ele>94</ele>
        <time>2022-01-27T14:15:59Z</time>
      </trkpt>
      <trkpt lat="47.27788" lon="-1.62926">
        <ele>94</ele>
        <time>2022-01-27T14:16:00Z</time>
      </trkpt>
      <trkpt lat="47.27786" lon="-1.62925">
        <ele>94</ele>
        <time>2022-01-27T14:16:01Z</time>
      </trkpt>
      <trkpt lat="47.27786" lon="-1.62923">
        <ele>94</ele>
        <time>2022-01-27T14:16:02Z</time>
      </trkpt>
      <trkpt lat="47.27785" lon="-1.62922">
        <ele>94</ele>
        <time>2022-01-27T14:16:03Z</time>
      </trkpt>
      <trkpt lat="47.27784" lon="-1.6292">
        <ele>93</ele>
        <time>2022-01-27T14:16:04Z</time>
      </trkpt>
      <trkpt lat="47.27783" lon="-1.62919">
        <ele>94</ele>
        <time>2022-01-27T14:16:05Z</time>
      </trkpt>
      <trkpt lat="47.27782" lon="-1.62917">
        <ele>94</ele>
        <time>2022-01-27T14:16:06Z</time>
      </trkpt>
      <trkpt lat="47.27782" lon="-1.62915">
        <ele>93</ele>
        <time>2022-01-27T14:16:07Z</time>
      </trkpt>
      <trkpt lat="47.27781" lon="-1.62914">
        <ele>93</ele>
        <time>2022-01-27T14:16:08Z</time>
      </trkpt>
      <trkpt lat="47.2778" lon="-1.62912">
        <ele>93</ele>
        <time>2022-01-27T14:16:09Z</time>
      </trkpt>
      <trkpt lat="47.27779" lon="-1.6291">
        <ele>93</ele>
        <time>2022-01-27T14:16:10Z</time>
      </trkpt>
      <trkpt lat="47.27779" lon="-1.62908">
        <ele>93</ele>
        <time>2022-01-27T14:16:11Z</time>
      </trkpt>
      <trkpt lat="47.27779" lon="-1.62906">
        <ele>94</ele>
        <time>2022-01-27T14:16:12Z</time>
      </trkpt>
      <trkpt lat="47.27778" lon="-1.62904">
        <ele>94</ele>
        <time>2022-01-27T14:16:13Z</time>
      </trkpt>
      <trkpt lat="47.27778" lon="-1.62902">
        <ele>95</ele>
        <time>2022-01-27T14:16:14Z</time>
      </trkpt>
      <trkpt lat="47.27778" lon="-1.629">
        <ele>95</ele>
        <time>2022-01-27T14:16:15Z</time>
      </trkpt>
      <trkpt lat="47.27778" lon="-1.62898">
        <ele>95</ele>
        <time>2022-01-27T14:16:16Z</time>
      </trkpt>
      <trkpt lat="47.27778" lon="-1.62896">
        <ele>96</ele>
        <time>2022-01-27T14:16:17Z</time>
      </trkpt>
      <trkpt lat="47.27778" lon="-1.62894">
        <ele>96</ele>
        <time>2022-01-27T14:16:18Z</time>
      </trkpt>
      <trkpt lat="47.27778" lon="-1.62892">
        <ele>96</ele>
        <time>2022-01-27T14:16:19Z</time>
      </trkpt>
      <trkpt lat="47.27778" lon="-1.6289">
        <ele>96</ele>
        <time>2022-01-27T14:16:20Z</time>
      </trkpt>
      <trkpt lat="47.27778" lon="-1.62888">
        <ele>96</ele>
        <time>2022-01-27T14:16:21Z</time>
      </trkpt>
      <trkpt lat="47.27778" lon="-1.62886">
        <ele>96</ele>
        <time>2022-01-27T14:16:22Z</time>
      </trkpt>
      <trkpt lat="47.27778" lon="-1.62885">
        <ele>96</ele>
        <time>2022-01-27T14:16:23Z</time>
      </trkpt>
      <trkpt lat="47.27778" lon="-1.62883">
        <ele>96</ele>
        <time>2022-01-27T14:16:24Z</time>
      </trkpt>
      <trkpt lat="47.27778" lon="-1.62881">
        <ele>96</ele>
        <time>2022-01-27T14:16:25Z</time>
      </trkpt>
      <trkpt lat="47.27778" lon="-1.62879">
        <ele>96</ele>
        <time>2022-01-27T14:16:26Z</time>
      </trkpt>
      <trkpt lat="47.27778" lon="-1.62877">
        <ele>96</ele>
        <time>2022-01-27T14:16:27Z</time>
      </trkpt>
      <trkpt lat="47.27778" lon="-1.62875">
        <ele>96</ele>
        <time>2022-01-27T14:16:28Z</time>
      </trkpt>
      <trkpt lat="47.27778" lon="-1.62873">
        <ele>97</ele>
        <time>2022-01-27T14:16:29Z</time>
      </trkpt>
      <trkpt lat="47.27778" lon="-1.62872">
        <ele>96</ele>
        <time>2022-01-27T14:16:30Z</time>
      </trkpt>
      <trkpt lat="47.27779" lon="-1.6287">
        <ele>97</ele>
        <time>2022-01-27T14:16:31Z</time>
      </trkpt>
      <trkpt lat="47.27778" lon="-1.62868">
        <ele>97</ele>
        <time>2022-01-27T14:16:32Z</time>
      </trkpt>
      <trkpt lat="47.27778" lon="-1.62866">
        <ele>97</ele>
        <time>2022-01-27T14:16:33Z</time>
      </trkpt>
      <trkpt lat="47.27779" lon="-1.62864">
        <ele>97</ele>
        <time>2022-01-27T14:16:34Z</time>
      </trkpt>
      <trkpt lat="47.27779" lon="-1.62862">
        <ele>97</ele>
        <time>2022-01-27T14:16:35Z</time>
      </trkpt>
      <trkpt lat="47.2778" lon="-1.62861">
        <ele>97</ele>
        <time>2022-01-27T14:16:36Z</time>
      </trkpt>
      <trkpt lat="47.2778" lon="-1.6286">
        <ele>97</ele>
        <time>2022-01-27T14:16:37Z</time>
      </trkpt>
      <trkpt lat="47.2778" lon="-1.62859">
        <ele>97</ele>
        <time>2022-01-27T14:16:38Z</time>
      </trkpt>
      <trkpt lat="47.2778" lon="-1.62857">
        <ele>96</ele>
        <time>2022-01-27T14:16:39Z</time>
      </trkpt>
      <trkpt lat="47.2778" lon="-1.62855">
        <ele>96</ele>
        <time>2022-01-27T14:16:40Z</time>
      </trkpt>
      <trkpt lat="47.2778" lon="-1.62853">
        <ele>96</ele>
        <time>2022-01-27T14:16:41Z</time>
      </trkpt>
      <trkpt lat="47.2778" lon="-1.62851">
        <ele>96</ele>
        <time>2022-01-27T14:16:42Z</time>
      </trkpt>
      <trkpt lat="47.2778" lon="-1.6285">
        <ele>96</ele>
        <time>2022-01-27T14:16:43Z</time>
      </trkpt>
      <trkpt lat="47.2778" lon="-1.62848">
        <ele>96</ele>
        <time>2022-01-27T14:16:44Z</time>
      </trkpt>
      <trkpt lat="47.2778" lon="-1.62846">
        <ele>95</ele>
        <time>2022-01-27T14:16:45Z</time>
      </trkpt>
      <trkpt lat="47.27781" lon="-1.62844">
        <ele>95</ele>
        <time>2022-01-27T14:16:46Z</time>
      </trkpt>
      <trkpt lat="47.27781" lon="-1.62842">
        <ele>96</ele>
        <time>2022-01-27T14:16:47Z</time>
      </trkpt>
      <trkpt lat="47.27781" lon="-1.62841">
        <ele>95</ele>
        <time>2022-01-27T14:16:48Z</time>
      </trkpt>
      <trkpt lat="47.27781" lon="-1.62839">
        <ele>95</ele>
        <time>2022-01-27T14:16:49Z</time>
      </trkpt>
      <trkpt lat="47.27781" lon="-1.62837">
        <ele>95</ele>
        <time>2022-01-27T14:16:50Z</time>
      </trkpt>
      <trkpt lat="47.27781" lon="-1.62835">
        <ele>95</ele>
        <time>2022-01-27T14:16:51Z</time>
      </trkpt>
      <trkpt lat="47.27781" lon="-1.62833">
        <ele>95</ele>
        <time>2022-01-27T14:16:52Z</time>
      </trkpt>
      <trkpt lat="47.27781" lon="-1.62831">
        <ele>95</ele>
        <time>2022-01-27T14:16:53Z</time>
      </trkpt>
      <trkpt lat="47.27781" lon="-1.62829">
        <ele>95</ele>
        <time>2022-01-27T14:16:54Z</time>
      </trkpt>
      <trkpt lat="47.27781" lon="-1.62827">
        <ele>95</ele>
        <time>2022-01-27T14:16:55Z</time>
      </trkpt>
      <trkpt lat="47.27781" lon="-1.62825">
        <ele>95</ele>
        <time>2022-01-27T14:16:56Z</time>
      </trkpt>
      <trkpt lat="47.27781" lon="-1.62823">
        <ele>95</ele>
        <time>2022-01-27T14:16:57Z</time>
      </trkpt>
      <trkpt lat="47.27781" lon="-1.62822">
        <ele>95</ele>
        <time>2022-01-27T14:16:58Z</time>
      </trkpt>
      <trkpt lat="47.27781" lon="-1.6282">
        <ele>95</ele>
        <time>2022-01-27T14:16:59Z</time>
      </trkpt>
      <trkpt lat="47.27782" lon="-1.62818">
        <ele>95</ele>
        <time>2022-01-27T14:17:00Z</time>
      </trkpt>
      <trkpt lat="47.27782" lon="-1.62817">
        <ele>95</ele>
        <time>2022-01-27T14:17:01Z</time>
      </trkpt>
      <trkpt lat="47.27782" lon="-1.62815">
        <ele>95</ele>
        <time>2022-01-27T14:17:02Z</time>
      </trkpt>
      <trkpt lat="47.27782" lon="-1.62813">
        <ele>95</ele>
        <time>2022-01-27T14:17:03Z</time>
      </trkpt>
      <trkpt lat="47.27782" lon="-1.62811">
        <ele>95</ele>
        <time>2022-01-27T14:17:04Z</time>
      </trkpt>
      <trkpt lat="47.27782" lon="-1.62809">
        <ele>95</ele>
        <time>2022-01-27T14:17:05Z</time>
      </trkpt>
      <trkpt lat="47.27783" lon="-1.62807">
        <ele>95</ele>
        <time>2022-01-27T14:17:06Z</time>
      </trkpt>
      <trkpt lat="47.27783" lon="-1.62805">
        <ele>95</ele>
        <time>2022-01-27T14:17:07Z</time>
      </trkpt>
      <trkpt lat="47.27784" lon="-1.62804">
        <ele>95</ele>
        <time>2022-01-27T14:17:08Z</time>
      </trkpt>
      <trkpt lat="47.27784" lon="-1.62802">
        <ele>95</ele>
        <time>2022-01-27T14:17:09Z</time>
      </trkpt>
      <trkpt lat="47.27784" lon="-1.62801">
        <ele>95</ele>
        <time>2022-01-27T14:17:10Z</time>
      </trkpt>
      <trkpt lat="47.27785" lon="-1.62799">
        <ele>95</ele>
        <time>2022-01-27T14:17:11Z</time>
      </trkpt>
      <trkpt lat="47.27786" lon="-1.62797">
        <ele>95</ele>
        <time>2022-01-27T14:17:12Z</time>
      </trkpt>
      <trkpt lat="47.27786" lon="-1.62795">
        <ele>95</ele>
        <time>2022-01-27T14:17:13Z</time>
      </trkpt>
      <trkpt lat="47.27786" lon="-1.62793">
        <ele>94</ele>
        <time>2022-01-27T14:17:14Z</time>
      </trkpt>
      <trkpt lat="47.27786" lon="-1.62791">
        <ele>94</ele>
        <time>2022-01-27T14:17:15Z</time>
      </trkpt>
      <trkpt lat="47.27787" lon="-1.62789">
        <ele>94</ele>
        <time>2022-01-27T14:17:16Z</time>
      </trkpt>
      <trkpt lat="47.27787" lon="-1.62787">
        <ele>94</ele>
        <time>2022-01-27T14:17:17Z</time>
      </trkpt>
      <trkpt lat="47.27787" lon="-1.62785">
        <ele>93</ele>
        <time>2022-01-27T14:17:18Z</time>
      </trkpt>
      <trkpt lat="47.27787" lon="-1.62783">
        <ele>93</ele>
        <time>2022-01-27T14:17:19Z</time>
      </trkpt>
      <trkpt lat="47.27787" lon="-1.62781">
        <ele>93</ele>
        <time>2022-01-27T14:17:20Z</time>
      </trkpt>
      <trkpt lat="47.27787" lon="-1.62779">
        <ele>93</ele>
        <time>2022-01-27T14:17:21Z</time>
      </trkpt>
      <trkpt lat="47.27787" lon="-1.62777">
        <ele>93</ele>
        <time>2022-01-27T14:17:22Z</time>
      </trkpt>
      <trkpt lat="47.27787" lon="-1.62775">
        <ele>92</ele>
        <time>2022-01-27T14:17:23Z</time>
      </trkpt>
      <trkpt lat="47.27787" lon="-1.62773">
        <ele>92</ele>
        <time>2022-01-27T14:17:24Z</time>
      </trkpt>
      <trkpt lat="47.27787" lon="-1.62771">
        <ele>92</ele>
        <time>2022-01-27T14:17:25Z</time>
      </trkpt>
      <trkpt lat="47.27788" lon="-1.62769">
        <ele>92</ele>
        <time>2022-01-27T14:17:26Z</time>
      </trkpt>
      <trkpt lat="47.27788" lon="-1.62767">
        <ele>91</ele>
        <time>2022-01-27T14:17:27Z</time>
      </trkpt>
      <trkpt lat="47.27788" lon="-1.62765">
        <ele>91</ele>
        <time>2022-01-27T14:17:28Z</time>
      </trkpt>
      <trkpt lat="47.27788" lon="-1.62764">
        <ele>91</ele>
        <time>2022-01-27T14:17:29Z</time>
      </trkpt>
      <trkpt lat="47.27788" lon="-1.62762">
        <ele>91</ele>
        <time>2022-01-27T14:17:30Z</time>
      </trkpt>
      <trkpt lat="47.27789" lon="-1.62761">
        <ele>91</ele>
        <time>2022-01-27T14:17:31Z</time>
      </trkpt>
      <trkpt lat="47.27789" lon="-1.6276">
        <ele>90</ele>
        <time>2022-01-27T14:17:32Z</time>
      </trkpt>
      <trkpt lat="47.2779" lon="-1.62758">
        <ele>91</ele>
        <time>2022-01-27T14:17:33Z</time>
      </trkpt>
      <trkpt lat="47.2779" lon="-1.62757">
        <ele>91</ele>
        <time>2022-01-27T14:17:34Z</time>
      </trkpt>
      <trkpt lat="47.2779" lon="-1.62754">
        <ele>91</ele>
        <time>2022-01-27T14:17:35Z</time>
      </trkpt>
      <trkpt lat="47.27791" lon="-1.62752">
        <ele>90</ele>
        <time>2022-01-27T14:17:36Z</time>
      </trkpt>
      <trkpt lat="47.27791" lon="-1.6275">
        <ele>90</ele>
        <time>2022-01-27T14:17:37Z</time>
      </trkpt>
      <trkpt lat="47.27791" lon="-1.62748">
        <ele>90</ele>
        <time>2022-01-27T14:17:38Z</time>
      </trkpt>
      <trkpt lat="47.27791" lon="-1.62746">
        <ele>90</ele>
        <time>2022-01-27T14:17:39Z</time>
      </trkpt>
      <trkpt lat="47.27791" lon="-1.62743">
        <ele>90</ele>
        <time>2022-01-27T14:17:40Z</time>
      </trkpt>
      <trkpt lat="47.27791" lon="-1.62741">
        <ele>90</ele>
        <time>2022-01-27T14:17:41Z</time>
      </trkpt>
      <trkpt lat="47.27791" lon="-1.62739">
        <ele>90</ele>
        <time>2022-01-27T14:17:42Z</time>
      </trkpt>
      <trkpt lat="47.27791" lon="-1.62737">
        <ele>90</ele>
        <time>2022-01-27T14:17:43Z</time>
      </trkpt>
      <trkpt lat="47.27791" lon="-1.62735">
        <ele>90</ele>
        <time>2022-01-27T14:17:44Z</time>
      </trkpt>
      <trkpt lat="47.2779" lon="-1.62733">
        <ele>90</ele>
        <time>2022-01-27T14:17:45Z</time>
      </trkpt>
      <trkpt lat="47.2779" lon="-1.62731">
        <ele>90</ele>
        <time>2022-01-27T14:17:46Z</time>
      </trkpt>
      <trkpt lat="47.2779" lon="-1.62729">
        <ele>90</ele>
        <time>2022-01-27T14:17:47Z</time>
      </trkpt>
      <trkpt lat="47.2779" lon="-1.62727">
        <ele>90</ele>
        <time>2022-01-27T14:17:48Z</time>
      </trkpt>
      <trkpt lat="47.2779" lon="-1.62725">
        <ele>90</ele>
        <time>2022-01-27T14:17:49Z</time>
      </trkpt>
      <trkpt lat="47.27789" lon="-1.62723">
        <ele>90</ele>
        <time>2022-01-27T14:17:50Z</time>
      </trkpt>
      <trkpt lat="47.27789" lon="-1.6272">
        <ele>90</ele>
        <time>2022-01-27T14:17:51Z</time>
      </trkpt>
      <trkpt lat="47.27789" lon="-1.62718">
        <ele>90</ele>
        <time>2022-01-27T14:17:52Z</time>
      </trkpt>
      <trkpt lat="47.27788" lon="-1.62716">
        <ele>90</ele>
        <time>2022-01-27T14:17:53Z</time>
      </trkpt>
      <trkpt lat="47.27787" lon="-1.62713">
        <ele>89</ele>
        <time>2022-01-27T14:17:54Z</time>
      </trkpt>
      <trkpt lat="47.27787" lon="-1.62711">
        <ele>90</ele>
        <time>2022-01-27T14:17:55Z</time>
      </trkpt>
      <trkpt lat="47.27787" lon="-1.6271">
        <ele>90</ele>
        <time>2022-01-27T14:17:56Z</time>
      </trkpt>
      <trkpt lat="47.27786" lon="-1.62708">
        <ele>90</ele>
        <time>2022-01-27T14:17:57Z</time>
      </trkpt>
      <trkpt lat="47.27786" lon="-1.62705">
        <ele>90</ele>
        <time>2022-01-27T14:17:58Z</time>
      </trkpt>
      <trkpt lat="47.27785" lon="-1.62704">
        <ele>90</ele>
        <time>2022-01-27T14:17:59Z</time>
      </trkpt>
      <trkpt lat="47.27785" lon="-1.62702">
        <ele>90</ele>
        <time>2022-01-27T14:18:00Z</time>
      </trkpt>
      <trkpt lat="47.27785" lon="-1.627">
        <ele>90</ele>
        <time>2022-01-27T14:18:01Z</time>
      </trkpt>
      <trkpt lat="47.27784" lon="-1.62698">
        <ele>91</ele>
        <time>2022-01-27T14:18:02Z</time>
      </trkpt>
      <trkpt lat="47.27784" lon="-1.62696">
        <ele>91</ele>
        <time>2022-01-27T14:18:03Z</time>
      </trkpt>
      <trkpt lat="47.27783" lon="-1.62694">
        <ele>91</ele>
        <time>2022-01-27T14:18:04Z</time>
      </trkpt>
      <trkpt lat="47.27782" lon="-1.62692">
        <ele>91</ele>
        <time>2022-01-27T14:18:05Z</time>
      </trkpt>
      <trkpt lat="47.27782" lon="-1.6269">
        <ele>91</ele>
        <time>2022-01-27T14:18:06Z</time>
      </trkpt>
      <trkpt lat="47.27781" lon="-1.62689">
        <ele>90</ele>
        <time>2022-01-27T14:18:07Z</time>
      </trkpt>
      <trkpt lat="47.2778" lon="-1.62687">
        <ele>91</ele>
        <time>2022-01-27T14:18:08Z</time>
      </trkpt>
      <trkpt lat="47.27779" lon="-1.62685">
        <ele>91</ele>
        <time>2022-01-27T14:18:09Z</time>
      </trkpt>
      <trkpt lat="47.27778" lon="-1.62683">
        <ele>91</ele>
        <time>2022-01-27T14:18:10Z</time>
      </trkpt>
      <trkpt lat="47.27778" lon="-1.62681">
        <ele>91</ele>
        <time>2022-01-27T14:18:11Z</time>
      </trkpt>
      <trkpt lat="47.27777" lon="-1.62679">
        <ele>91</ele>
        <time>2022-01-27T14:18:12Z</time>
      </trkpt>
      <trkpt lat="47.27776" lon="-1.62677">
        <ele>91</ele>
        <time>2022-01-27T14:18:13Z</time>
      </trkpt>
      <trkpt lat="47.27775" lon="-1.62676">
        <ele>91</ele>
        <time>2022-01-27T14:18:14Z</time>
      </trkpt>
      <trkpt lat="47.27774" lon="-1.62674">
        <ele>91</ele>
        <time>2022-01-27T14:18:15Z</time>
      </trkpt>
      <trkpt lat="47.27773" lon="-1.62673">
        <ele>91</ele>
        <time>2022-01-27T14:18:16Z</time>
      </trkpt>
      <trkpt lat="47.27772" lon="-1.62672">
        <ele>91</ele>
        <time>2022-01-27T14:18:17Z</time>
      </trkpt>
      <trkpt lat="47.27771" lon="-1.6267">
        <ele>90</ele>
        <time>2022-01-27T14:18:18Z</time>
      </trkpt>
      <trkpt lat="47.2777" lon="-1.62669">
        <ele>90</ele>
        <time>2022-01-27T14:18:19Z</time>
      </trkpt>
      <trkpt lat="47.27769" lon="-1.62667">
        <ele>90</ele>
        <time>2022-01-27T14:18:20Z</time>
      </trkpt>
      <trkpt lat="47.27768" lon="-1.62665">
        <ele>90</ele>
        <time>2022-01-27T14:18:21Z</time>
      </trkpt>
      <trkpt lat="47.27768" lon="-1.62664">
        <ele>90</ele>
        <time>2022-01-27T14:18:22Z</time>
      </trkpt>
      <trkpt lat="47.27767" lon="-1.62662">
        <ele>90</ele>
        <time>2022-01-27T14:18:23Z</time>
      </trkpt>
      <trkpt lat="47.27767" lon="-1.6266">
        <ele>90</ele>
        <time>2022-01-27T14:18:24Z</time>
      </trkpt>
      <trkpt lat="47.27766" lon="-1.62659">
        <ele>90</ele>
        <time>2022-01-27T14:18:25Z</time>
      </trkpt>
      <trkpt lat="47.27766" lon="-1.62657">
        <ele>91</ele>
        <time>2022-01-27T14:18:26Z</time>
      </trkpt>
      <trkpt lat="47.27765" lon="-1.62655">
        <ele>91</ele>
        <time>2022-01-27T14:18:27Z</time>
      </trkpt>
      <trkpt lat="47.27765" lon="-1.62653">
        <ele>91</ele>
        <time>2022-01-27T14:18:28Z</time>
      </trkpt>
      <trkpt lat="47.27764" lon="-1.62651">
        <ele>91</ele>
        <time>2022-01-27T14:18:29Z</time>
      </trkpt>
      <trkpt lat="47.27763" lon="-1.6265">
        <ele>90</ele>
        <time>2022-01-27T14:18:30Z</time>
      </trkpt>
      <trkpt lat="47.27762" lon="-1.62648">
        <ele>90</ele>
        <time>2022-01-27T14:18:31Z</time>
      </trkpt>
      <trkpt lat="47.27762" lon="-1.62646">
        <ele>90</ele>
        <time>2022-01-27T14:18:32Z</time>
      </trkpt>
      <trkpt lat="47.27761" lon="-1.62644">
        <ele>90</ele>
        <time>2022-01-27T14:18:33Z</time>
      </trkpt>
      <trkpt lat="47.2776" lon="-1.62643">
        <ele>90</ele>
        <time>2022-01-27T14:18:34Z</time>
      </trkpt>
      <trkpt lat="47.27759" lon="-1.62641">
        <ele>90</ele>
        <time>2022-01-27T14:18:35Z</time>
      </trkpt>
      <trkpt lat="47.27759" lon="-1.62639">
        <ele>90</ele>
        <time>2022-01-27T14:18:36Z</time>
      </trkpt>
      <trkpt lat="47.27758" lon="-1.62638">
        <ele>90</ele>
        <time>2022-01-27T14:18:37Z</time>
      </trkpt>
      <trkpt lat="47.27757" lon="-1.62636">
        <ele>90</ele>
        <time>2022-01-27T14:18:38Z</time>
      </trkpt>
      <trkpt lat="47.27757" lon="-1.62635">
        <ele>90</ele>
        <time>2022-01-27T14:18:39Z</time>
      </trkpt>
      <trkpt lat="47.27756" lon="-1.62633">
        <ele>90</ele>
        <time>2022-01-27T14:18:40Z</time>
      </trkpt>
      <trkpt lat="47.27755" lon="-1.62632">
        <ele>90</ele>
        <time>2022-01-27T14:18:41Z</time>
      </trkpt>
      <trkpt lat="47.27755" lon="-1.6263">
        <ele>90</ele>
        <time>2022-01-27T14:18:42Z</time>
      </trkpt>
      <trkpt lat="47.27755" lon="-1.62628">
        <ele>90</ele>
        <time>2022-01-27T14:18:43Z</time>
      </trkpt>
      <trkpt lat="47.27754" lon="-1.62626">
        <ele>90</ele>
        <time>2022-01-27T14:18:44Z</time>
      </trkpt>
      <trkpt lat="47.27753" lon="-1.62625">
        <ele>90</ele>
        <time>2022-01-27T14:18:45Z</time>
      </trkpt>
      <trkpt lat="47.27752" lon="-1.62623">
        <ele>90</ele>
        <time>2022-01-27T14:18:46Z</time>
      </trkpt>
      <trkpt lat="47.27752" lon="-1.62621">
        <ele>90</ele>
        <time>2022-01-27T14:18:47Z</time>
      </trkpt>
      <trkpt lat="47.27751" lon="-1.6262">
        <ele>90</ele>
        <time>2022-01-27T14:18:48Z</time>
      </trkpt>
      <trkpt lat="47.2775" lon="-1.62619">
        <ele>90</ele>
        <time>2022-01-27T14:18:49Z</time>
      </trkpt>
      <trkpt lat="47.27749" lon="-1.62617">
        <ele>90</ele>
        <time>2022-01-27T14:18:50Z</time>
      </trkpt>
      <trkpt lat="47.27749" lon="-1.62615">
        <ele>90</ele>
        <time>2022-01-27T14:18:51Z</time>
      </trkpt>
      <trkpt lat="47.27748" lon="-1.62613">
        <ele>90</ele>
        <time>2022-01-27T14:18:52Z</time>
      </trkpt>
      <trkpt lat="47.27747" lon="-1.62611">
        <ele>90</ele>
        <time>2022-01-27T14:18:53Z</time>
      </trkpt>
      <trkpt lat="47.27745" lon="-1.6261">
        <ele>90</ele>
        <time>2022-01-27T14:18:54Z</time>
      </trkpt>
      <trkpt lat="47.27745" lon="-1.62608">
        <ele>90</ele>
        <time>2022-01-27T14:18:55Z</time>
      </trkpt>
      <trkpt lat="47.27744" lon="-1.62607">
        <ele>90</ele>
        <time>2022-01-27T14:18:56Z</time>
      </trkpt>
      <trkpt lat="47.27743" lon="-1.62605">
        <ele>90</ele>
        <time>2022-01-27T14:18:57Z</time>
      </trkpt>
      <trkpt lat="47.27742" lon="-1.62603">
        <ele>90</ele>
        <time>2022-01-27T14:18:58Z</time>
      </trkpt>
      <trkpt lat="47.27741" lon="-1.62602">
        <ele>90</ele>
        <time>2022-01-27T14:18:59Z</time>
      </trkpt>
      <trkpt lat="47.27741" lon="-1.626">
        <ele>91</ele>
        <time>2022-01-27T14:19:00Z</time>
      </trkpt>
      <trkpt lat="47.2774" lon="-1.62598">
        <ele>91</ele>
        <time>2022-01-27T14:19:01Z</time>
      </trkpt>
      <trkpt lat="47.27739" lon="-1.62596">
        <ele>91</ele>
        <time>2022-01-27T14:19:02Z</time>
      </trkpt>
      <trkpt lat="47.27738" lon="-1.62595">
        <ele>91</ele>
        <time>2022-01-27T14:19:03Z</time>
      </trkpt>
      <trkpt lat="47.27737" lon="-1.62593">
        <ele>91</ele>
        <time>2022-01-27T14:19:04Z</time>
      </trkpt>
      <trkpt lat="47.27736" lon="-1.62592">
        <ele>91</ele>
        <time>2022-01-27T14:19:05Z</time>
      </trkpt>
      <trkpt lat="47.27736" lon="-1.6259">
        <ele>90</ele>
        <time>2022-01-27T14:19:06Z</time>
      </trkpt>
      <trkpt lat="47.27735" lon="-1.62589">
        <ele>91</ele>
        <time>2022-01-27T14:19:07Z</time>
      </trkpt>
      <trkpt lat="47.27734" lon="-1.62587">
        <ele>91</ele>
        <time>2022-01-27T14:19:08Z</time>
      </trkpt>
      <trkpt lat="47.27734" lon="-1.62585">
        <ele>91</ele>
        <time>2022-01-27T14:19:09Z</time>
      </trkpt>
      <trkpt lat="47.27733" lon="-1.62583">
        <ele>91</ele>
        <time>2022-01-27T14:19:10Z</time>
      </trkpt>
      <trkpt lat="47.27732" lon="-1.62582">
        <ele>91</ele>
        <time>2022-01-27T14:19:11Z</time>
      </trkpt>
      <trkpt lat="47.27732" lon="-1.6258">
        <ele>91</ele>
        <time>2022-01-27T14:19:12Z</time>
      </trkpt>
      <trkpt lat="47.27731" lon="-1.62578">
        <ele>91</ele>
        <time>2022-01-27T14:19:13Z</time>
      </trkpt>
      <trkpt lat="47.2773" lon="-1.62577">
        <ele>92</ele>
        <time>2022-01-27T14:19:14Z</time>
      </trkpt>
      <trkpt lat="47.27729" lon="-1.62575">
        <ele>92</ele>
        <time>2022-01-27T14:19:15Z</time>
      </trkpt>
      <trkpt lat="47.27729" lon="-1.62573">
        <ele>91</ele>
        <time>2022-01-27T14:19:16Z</time>
      </trkpt>
      <trkpt lat="47.27728" lon="-1.62572">
        <ele>91</ele>
        <time>2022-01-27T14:19:17Z</time>
      </trkpt>
      <trkpt lat="47.27728" lon="-1.6257">
        <ele>91</ele>
        <time>2022-01-27T14:19:18Z</time>
      </trkpt>
      <trkpt lat="47.27727" lon="-1.62568">
        <ele>91</ele>
        <time>2022-01-27T14:19:19Z</time>
      </trkpt>
      <trkpt lat="47.27726" lon="-1.62566">
        <ele>91</ele>
        <time>2022-01-27T14:19:20Z</time>
      </trkpt>
      <trkpt lat="47.27725" lon="-1.62565">
        <ele>91</ele>
        <time>2022-01-27T14:19:21Z</time>
      </trkpt>
      <trkpt lat="47.27725" lon="-1.62563">
        <ele>91</ele>
        <time>2022-01-27T14:19:22Z</time>
      </trkpt>
      <trkpt lat="47.27724" lon="-1.62561">
        <ele>91</ele>
        <time>2022-01-27T14:19:23Z</time>
      </trkpt>
      <trkpt lat="47.27723" lon="-1.6256">
        <ele>91</ele>
        <time>2022-01-27T14:19:24Z</time>
      </trkpt>
      <trkpt lat="47.27722" lon="-1.62558">
        <ele>91</ele>
        <time>2022-01-27T14:19:25Z</time>
      </trkpt>
      <trkpt lat="47.27721" lon="-1.62556">
        <ele>91</ele>
        <time>2022-01-27T14:19:26Z</time>
      </trkpt>
      <trkpt lat="47.2772" lon="-1.62555">
        <ele>91</ele>
        <time>2022-01-27T14:19:27Z</time>
      </trkpt>
      <trkpt lat="47.2772" lon="-1.62553">
        <ele>91</ele>
        <time>2022-01-27T14:19:28Z</time>
      </trkpt>
      <trkpt lat="47.27719" lon="-1.62552">
        <ele>91</ele>
        <time>2022-01-27T14:19:29Z</time>
      </trkpt>
      <trkpt lat="47.27718" lon="-1.6255">
        <ele>91</ele>
        <time>2022-01-27T14:19:30Z</time>
      </trkpt>
      <trkpt lat="47.27717" lon="-1.62549">
        <ele>91</ele>
        <time>2022-01-27T14:19:31Z</time>
      </trkpt>
      <trkpt lat="47.27716" lon="-1.62547">
        <ele>91</ele>
        <time>2022-01-27T14:19:32Z</time>
      </trkpt>
      <trkpt lat="47.27715" lon="-1.62546">
        <ele>92</ele>
        <time>2022-01-27T14:19:33Z</time>
      </trkpt>
      <trkpt lat="47.27715" lon="-1.62544">
        <ele>92</ele>
        <time>2022-01-27T14:19:34Z</time>
      </trkpt>
      <trkpt lat="47.27714" lon="-1.62543">
        <ele>91</ele>
        <time>2022-01-27T14:19:35Z</time>
      </trkpt>
      <trkpt lat="47.27713" lon="-1.62541">
        <ele>91</ele>
        <time>2022-01-27T14:19:36Z</time>
      </trkpt>
      <trkpt lat="47.27712" lon="-1.62539">
        <ele>91</ele>
        <time>2022-01-27T14:19:37Z</time>
      </trkpt>
      <trkpt lat="47.27712" lon="-1.62538">
        <ele>91</ele>
        <time>2022-01-27T14:19:38Z</time>
      </trkpt>
      <trkpt lat="47.27711" lon="-1.62536">
        <ele>91</ele>
        <time>2022-01-27T14:19:39Z</time>
      </trkpt>
      <trkpt lat="47.2771" lon="-1.62534">
        <ele>92</ele>
        <time>2022-01-27T14:19:40Z</time>
      </trkpt>
      <trkpt lat="47.2771" lon="-1.62533">
        <ele>91</ele>
        <time>2022-01-27T14:19:41Z</time>
      </trkpt>
      <trkpt lat="47.27709" lon="-1.62532">
        <ele>91</ele>
        <time>2022-01-27T14:19:42Z</time>
      </trkpt>
      <trkpt lat="47.27708" lon="-1.6253">
        <ele>91</ele>
        <time>2022-01-27T14:19:43Z</time>
      </trkpt>
      <trkpt lat="47.27708" lon="-1.62529">
        <ele>91</ele>
        <time>2022-01-27T14:19:44Z</time>
      </trkpt>
      <trkpt lat="47.27707" lon="-1.62527">
        <ele>90</ele>
        <time>2022-01-27T14:19:45Z</time>
      </trkpt>
      <trkpt lat="47.27707" lon="-1.62526">
        <ele>90</ele>
        <time>2022-01-27T14:19:46Z</time>
      </trkpt>
      <trkpt lat="47.27706" lon="-1.62524">
        <ele>90</ele>
        <time>2022-01-27T14:19:47Z</time>
      </trkpt>
      <trkpt lat="47.27705" lon="-1.62523">
        <ele>90</ele>
        <time>2022-01-27T14:19:48Z</time>
      </trkpt>
      <trkpt lat="47.27704" lon="-1.62522">
        <ele>90</ele>
        <time>2022-01-27T14:19:49Z</time>
      </trkpt>
      <trkpt lat="47.27704" lon="-1.6252">
        <ele>90</ele>
        <time>2022-01-27T14:19:50Z</time>
      </trkpt>
      <trkpt lat="47.27703" lon="-1.62518">
        <ele>90</ele>
        <time>2022-01-27T14:19:51Z</time>
      </trkpt>
      <trkpt lat="47.27702" lon="-1.62517">
        <ele>90</ele>
        <time>2022-01-27T14:19:52Z</time>
      </trkpt>
      <trkpt lat="47.27702" lon="-1.62515">
        <ele>90</ele>
        <time>2022-01-27T14:19:53Z</time>
      </trkpt>
      <trkpt lat="47.27701" lon="-1.62514">
        <ele>90</ele>
        <time>2022-01-27T14:19:54Z</time>
      </trkpt>
      <trkpt lat="47.277" lon="-1.62512">
        <ele>90</ele>
        <time>2022-01-27T14:19:55Z</time>
      </trkpt>
      <trkpt lat="47.27699" lon="-1.6251">
        <ele>90</ele>
        <time>2022-01-27T14:19:56Z</time>
      </trkpt>
      <trkpt lat="47.27698" lon="-1.62509">
        <ele>89</ele>
        <time>2022-01-27T14:19:57Z</time>
      </trkpt>
      <trkpt lat="47.27697" lon="-1.62507">
        <ele>89</ele>
        <time>2022-01-27T14:19:58Z</time>
      </trkpt>
      <trkpt lat="47.27696" lon="-1.62506">
        <ele>90</ele>
        <time>2022-01-27T14:19:59Z</time>
      </trkpt>
      <trkpt lat="47.27696" lon="-1.62505">
        <ele>90</ele>
        <time>2022-01-27T14:20:00Z</time>
      </trkpt>
      <trkpt lat="47.27695" lon="-1.62504">
        <ele>90</ele>
        <time>2022-01-27T14:20:01Z</time>
      </trkpt>
      <trkpt lat="47.27694" lon="-1.62502">
        <ele>89</ele>
        <time>2022-01-27T14:20:02Z</time>
      </trkpt>
      <trkpt lat="47.27694" lon="-1.625">
        <ele>89</ele>
        <time>2022-01-27T14:20:03Z</time>
      </trkpt>
      <trkpt lat="47.27693" lon="-1.62498">
        <ele>89</ele>
        <time>2022-01-27T14:20:04Z</time>
      </trkpt>
      <trkpt lat="47.27692" lon="-1.62496">
        <ele>89</ele>
        <time>2022-01-27T14:20:05Z</time>
      </trkpt>
      <trkpt lat="47.27691" lon="-1.62494">
        <ele>89</ele>
        <time>2022-01-27T14:20:06Z</time>
      </trkpt>
      <trkpt lat="47.2769" lon="-1.62492">
        <ele>89</ele>
        <time>2022-01-27T14:20:07Z</time>
      </trkpt>
      <trkpt lat="47.27689" lon="-1.6249">
        <ele>89</ele>
        <time>2022-01-27T14:20:08Z</time>
      </trkpt>
      <trkpt lat="47.27689" lon="-1.62488">
        <ele>88</ele>
        <time>2022-01-27T14:20:09Z</time>
      </trkpt>
      <trkpt lat="47.27688" lon="-1.62487">
        <ele>88</ele>
        <time>2022-01-27T14:20:10Z</time>
      </trkpt>
      <trkpt lat="47.27688" lon="-1.62486">
        <ele>88</ele>
        <time>2022-01-27T14:20:11Z</time>
      </trkpt>
      <trkpt lat="47.27687" lon="-1.62484">
        <ele>88</ele>
        <time>2022-01-27T14:20:12Z</time>
      </trkpt>
      <trkpt lat="47.27686" lon="-1.62483">
        <ele>88</ele>
        <time>2022-01-27T14:20:13Z</time>
      </trkpt>
      <trkpt lat="47.27686" lon="-1.62481">
        <ele>88</ele>
        <time>2022-01-27T14:20:14Z</time>
      </trkpt>
      <trkpt lat="47.27684" lon="-1.6248">
        <ele>88</ele>
        <time>2022-01-27T14:20:15Z</time>
      </trkpt>
      <trkpt lat="47.27683" lon="-1.62479">
        <ele>87</ele>
        <time>2022-01-27T14:20:16Z</time>
      </trkpt>
      <trkpt lat="47.27682" lon="-1.62477">
        <ele>87</ele>
        <time>2022-01-27T14:20:17Z</time>
      </trkpt>
      <trkpt lat="47.27681" lon="-1.62475">
        <ele>87</ele>
        <time>2022-01-27T14:20:18Z</time>
      </trkpt>
      <trkpt lat="47.2768" lon="-1.62473">
        <ele>87</ele>
        <time>2022-01-27T14:20:19Z</time>
      </trkpt>
      <trkpt lat="47.27679" lon="-1.62472">
        <ele>88</ele>
        <time>2022-01-27T14:20:20Z</time>
      </trkpt>
      <trkpt lat="47.27678" lon="-1.6247">
        <ele>88</ele>
        <time>2022-01-27T14:20:21Z</time>
      </trkpt>
      <trkpt lat="47.27678" lon="-1.62468">
        <ele>88</ele>
        <time>2022-01-27T14:20:22Z</time>
      </trkpt>
      <trkpt lat="47.27678" lon="-1.62467">
        <ele>88</ele>
        <time>2022-01-27T14:20:23Z</time>
      </trkpt>
      <trkpt lat="47.27676" lon="-1.62466">
        <ele>88</ele>
        <time>2022-01-27T14:20:24Z</time>
      </trkpt>
      <trkpt lat="47.27676" lon="-1.62464">
        <ele>88</ele>
        <time>2022-01-27T14:20:25Z</time>
      </trkpt>
      <trkpt lat="47.27675" lon="-1.62462">
        <ele>88</ele>
        <time>2022-01-27T14:20:26Z</time>
      </trkpt>
      <trkpt lat="47.27674" lon="-1.62459">
        <ele>88</ele>
        <time>2022-01-27T14:20:27Z</time>
      </trkpt>
      <trkpt lat="47.27673" lon="-1.62457">
        <ele>88</ele>
        <time>2022-01-27T14:20:28Z</time>
      </trkpt>
      <trkpt lat="47.27673" lon="-1.62455">
        <ele>88</ele>
        <time>2022-01-27T14:20:29Z</time>
      </trkpt>
      <trkpt lat="47.27673" lon="-1.62453">
        <ele>88</ele>
        <time>2022-01-27T14:20:30Z</time>
      </trkpt>
      <trkpt lat="47.27673" lon="-1.62451">
        <ele>88</ele>
        <time>2022-01-27T14:20:31Z</time>
      </trkpt>
      <trkpt lat="47.27673" lon="-1.6245">
        <ele>88</ele>
        <time>2022-01-27T14:20:32Z</time>
      </trkpt>
      <trkpt lat="47.27673" lon="-1.6245">
        <ele>87</ele>
        <time>2022-01-27T14:20:33Z</time>
      </trkpt>
      <trkpt lat="47.27673" lon="-1.6245">
        <ele>87</ele>
        <time>2022-01-27T14:20:34Z</time>
      </trkpt>
      <trkpt lat="47.27673" lon="-1.6245">
        <ele>87</ele>
        <time>2022-01-27T14:20:35Z</time>
      </trkpt>
      <trkpt lat="47.27673" lon="-1.6245">
        <ele>87</ele>
        <time>2022-01-27T14:20:36Z</time>
      </trkpt>
      <trkpt lat="47.27673" lon="-1.6245">
        <ele>87</ele>
        <time>2022-01-27T14:20:37Z</time>
      </trkpt>
      <trkpt lat="47.27673" lon="-1.6245">
        <ele>87</ele>
        <time>2022-01-27T14:20:37Z</time>
      </trkpt>
      <trkpt lat="47.27673" lon="-1.6245">
        <ele>87</ele>
        <time>2022-01-27T14:20:37Z</time>
      </trkpt>
      <trkpt lat="47.27676" lon="-1.62446">
        <ele>86</ele>
        <time>2022-01-27T14:22:41Z</time>
      </trkpt>
      <trkpt lat="47.27677" lon="-1.62445">
        <ele>86</ele>
        <time>2022-01-27T14:22:42Z</time>
      </trkpt>
      <trkpt lat="47.27678" lon="-1.62444">
        <ele>87</ele>
        <time>2022-01-27T14:22:43Z</time>
      </trkpt>
      <trkpt lat="47.27679" lon="-1.62444">
        <ele>87</ele>
        <time>2022-01-27T14:22:44Z</time>
      </trkpt>
      <trkpt lat="47.27679" lon="-1.62444">
        <ele>87</ele>
        <time>2022-01-27T14:22:45Z</time>
      </trkpt>
      <trkpt lat="47.2768" lon="-1.62444">
        <ele>87</ele>
        <time>2022-01-27T14:22:46Z</time>
      </trkpt>
      <trkpt lat="47.27681" lon="-1.62443">
        <ele>87</ele>
        <time>2022-01-27T14:22:47Z</time>
      </trkpt>
      <trkpt lat="47.27682" lon="-1.62443">
        <ele>87</ele>
        <time>2022-01-27T14:22:48Z</time>
      </trkpt>
      <trkpt lat="47.27683" lon="-1.62442">
        <ele>86</ele>
        <time>2022-01-27T14:22:49Z</time>
      </trkpt>
      <trkpt lat="47.27684" lon="-1.62441">
        <ele>86</ele>
        <time>2022-01-27T14:22:50Z</time>
      </trkpt>
      <trkpt lat="47.27685" lon="-1.6244">
        <ele>86</ele>
        <time>2022-01-27T14:22:51Z</time>
      </trkpt>
      <trkpt lat="47.27686" lon="-1.62439">
        <ele>86</ele>
        <time>2022-01-27T14:22:52Z</time>
      </trkpt>
      <trkpt lat="47.27687" lon="-1.62438">
        <ele>86</ele>
        <time>2022-01-27T14:22:53Z</time>
      </trkpt>
      <trkpt lat="47.27687" lon="-1.62437">
        <ele>86</ele>
        <time>2022-01-27T14:22:54Z</time>
      </trkpt>
      <trkpt lat="47.27688" lon="-1.62436">
        <ele>86</ele>
        <time>2022-01-27T14:22:55Z</time>
      </trkpt>
      <trkpt lat="47.27689" lon="-1.62435">
        <ele>86</ele>
        <time>2022-01-27T14:22:56Z</time>
      </trkpt>
      <trkpt lat="47.2769" lon="-1.62435">
        <ele>87</ele>
        <time>2022-01-27T14:22:57Z</time>
      </trkpt>
      <trkpt lat="47.27691" lon="-1.62435">
        <ele>87</ele>
        <time>2022-01-27T14:22:58Z</time>
      </trkpt>
      <trkpt lat="47.27691" lon="-1.62435">
        <ele>87</ele>
        <time>2022-01-27T14:22:59Z</time>
      </trkpt>
      <trkpt lat="47.27691" lon="-1.62435">
        <ele>87</ele>
        <time>2022-01-27T14:23:00Z</time>
      </trkpt>
      <trkpt lat="47.27692" lon="-1.62434">
        <ele>88</ele>
        <time>2022-01-27T14:23:01Z</time>
      </trkpt>
      <trkpt lat="47.27693" lon="-1.62433">
        <ele>89</ele>
        <time>2022-01-27T14:23:02Z</time>
      </trkpt>
      <trkpt lat="47.27694" lon="-1.62433">
        <ele>89</ele>
        <time>2022-01-27T14:23:03Z</time>
      </trkpt>
      <trkpt lat="47.27695" lon="-1.62433">
        <ele>89</ele>
        <time>2022-01-27T14:23:04Z</time>
      </trkpt>
      <trkpt lat="47.27696" lon="-1.62432">
        <ele>89</ele>
        <time>2022-01-27T14:23:05Z</time>
      </trkpt>
      <trkpt lat="47.27696" lon="-1.62432">
        <ele>89</ele>
        <time>2022-01-27T14:23:06Z</time>
      </trkpt>
      <trkpt lat="47.27696" lon="-1.62432">
        <ele>89</ele>
        <time>2022-01-27T14:23:07Z</time>
      </trkpt>
      <trkpt lat="47.27696" lon="-1.62432">
        <ele>89</ele>
        <time>2022-01-27T14:23:08Z</time>
      </trkpt>
      <trkpt lat="47.27697" lon="-1.6243">
        <ele>90</ele>
        <time>2022-01-27T14:23:09Z</time>
      </trkpt>
      <trkpt lat="47.27699" lon="-1.62429">
        <ele>90</ele>
        <time>2022-01-27T14:23:10Z</time>
      </trkpt>
      <trkpt lat="47.27699" lon="-1.62428">
        <ele>89</ele>
        <time>2022-01-27T14:23:11Z</time>
      </trkpt>
      <trkpt lat="47.27699" lon="-1.62428">
        <ele>89</ele>
        <time>2022-01-27T14:23:12Z</time>
      </trkpt>
      <trkpt lat="47.27699" lon="-1.62428">
        <ele>89</ele>
        <time>2022-01-27T14:23:13Z</time>
      </trkpt>
      <trkpt lat="47.27699" lon="-1.62428">
        <ele>89</ele>
        <time>2022-01-27T14:23:14Z</time>
      </trkpt>
      <trkpt lat="47.27701" lon="-1.62427">
        <ele>89</ele>
        <time>2022-01-27T14:23:15Z</time>
      </trkpt>
      <trkpt lat="47.27702" lon="-1.62427">
        <ele>89</ele>
        <time>2022-01-27T14:23:16Z</time>
      </trkpt>
      <trkpt lat="47.27703" lon="-1.62426">
        <ele>89</ele>
        <time>2022-01-27T14:23:17Z</time>
      </trkpt>
      <trkpt lat="47.27704" lon="-1.62426">
        <ele>89</ele>
        <time>2022-01-27T14:23:18Z</time>
      </trkpt>
      <trkpt lat="47.27705" lon="-1.62425">
        <ele>89</ele>
        <time>2022-01-27T14:23:19Z</time>
      </trkpt>
      <trkpt lat="47.27706" lon="-1.62425">
        <ele>90</ele>
        <time>2022-01-27T14:23:20Z</time>
      </trkpt>
      <trkpt lat="47.27707" lon="-1.62424">
        <ele>90</ele>
        <time>2022-01-27T14:23:21Z</time>
      </trkpt>
      <trkpt lat="47.27708" lon="-1.62424">
        <ele>90</ele>
        <time>2022-01-27T14:23:22Z</time>
      </trkpt>
      <trkpt lat="47.27709" lon="-1.62423">
        <ele>90</ele>
        <time>2022-01-27T14:23:23Z</time>
      </trkpt>
      <trkpt lat="47.2771" lon="-1.62423">
        <ele>90</ele>
        <time>2022-01-27T14:23:24Z</time>
      </trkpt>
      <trkpt lat="47.27711" lon="-1.62423">
        <ele>90</ele>
        <time>2022-01-27T14:23:25Z</time>
      </trkpt>
      <trkpt lat="47.27712" lon="-1.62423">
        <ele>90</ele>
        <time>2022-01-27T14:23:26Z</time>
      </trkpt>
      <trkpt lat="47.27713" lon="-1.62422">
        <ele>91</ele>
        <time>2022-01-27T14:23:27Z</time>
      </trkpt>
      <trkpt lat="47.27714" lon="-1.62422">
        <ele>91</ele>
        <time>2022-01-27T14:23:28Z</time>
      </trkpt>
      <trkpt lat="47.27716" lon="-1.62422">
        <ele>91</ele>
        <time>2022-01-27T14:23:29Z</time>
      </trkpt>
      <trkpt lat="47.27717" lon="-1.62421">
        <ele>91</ele>
        <time>2022-01-27T14:23:30Z</time>
      </trkpt>
      <trkpt lat="47.27718" lon="-1.62421">
        <ele>91</ele>
        <time>2022-01-27T14:23:31Z</time>
      </trkpt>
      <trkpt lat="47.2772" lon="-1.6242">
        <ele>92</ele>
        <time>2022-01-27T14:23:32Z</time>
      </trkpt>
      <trkpt lat="47.27721" lon="-1.62419">
        <ele>93</ele>
        <time>2022-01-27T14:23:33Z</time>
      </trkpt>
      <trkpt lat="47.27722" lon="-1.62418">
        <ele>93</ele>
        <time>2022-01-27T14:23:34Z</time>
      </trkpt>
      <trkpt lat="47.27723" lon="-1.62418">
        <ele>93</ele>
        <time>2022-01-27T14:23:35Z</time>
      </trkpt>
      <trkpt lat="47.27723" lon="-1.62418">
        <ele>93</ele>
        <time>2022-01-27T14:23:36Z</time>
      </trkpt>
      <trkpt lat="47.27723" lon="-1.62418">
        <ele>93</ele>
        <time>2022-01-27T14:23:37Z</time>
      </trkpt>
      <trkpt lat="47.27726" lon="-1.62416">
        <ele>94</ele>
        <time>2022-01-27T14:23:38Z</time>
      </trkpt>
      <trkpt lat="47.27727" lon="-1.62416">
        <ele>94</ele>
        <time>2022-01-27T14:23:39Z</time>
      </trkpt>
      <trkpt lat="47.27728" lon="-1.62416">
        <ele>94</ele>
        <time>2022-01-27T14:23:40Z</time>
      </trkpt>
      <trkpt lat="47.27729" lon="-1.62416">
        <ele>94</ele>
        <time>2022-01-27T14:23:41Z</time>
      </trkpt>
      <trkpt lat="47.27731" lon="-1.62416">
        <ele>94</ele>
        <time>2022-01-27T14:23:42Z</time>
      </trkpt>
      <trkpt lat="47.27733" lon="-1.62415">
        <ele>94</ele>
        <time>2022-01-27T14:23:43Z</time>
      </trkpt>
      <trkpt lat="47.27734" lon="-1.62415">
        <ele>95</ele>
        <time>2022-01-27T14:23:44Z</time>
      </trkpt>
      <trkpt lat="47.27736" lon="-1.62414">
        <ele>95</ele>
        <time>2022-01-27T14:23:45Z</time>
      </trkpt>
      <trkpt lat="47.27737" lon="-1.62414">
        <ele>94</ele>
        <time>2022-01-27T14:23:46Z</time>
      </trkpt>
      <trkpt lat="47.27739" lon="-1.62414">
        <ele>95</ele>
        <time>2022-01-27T14:23:47Z</time>
      </trkpt>
      <trkpt lat="47.2774" lon="-1.62413">
        <ele>95</ele>
        <time>2022-01-27T14:23:48Z</time>
      </trkpt>
      <trkpt lat="47.27741" lon="-1.62413">
        <ele>95</ele>
        <time>2022-01-27T14:23:49Z</time>
      </trkpt>
      <trkpt lat="47.27742" lon="-1.62413">
        <ele>94</ele>
        <time>2022-01-27T14:23:50Z</time>
      </trkpt>
      <trkpt lat="47.27742" lon="-1.62413">
        <ele>94</ele>
        <time>2022-01-27T14:23:51Z</time>
      </trkpt>
      <trkpt lat="47.27742" lon="-1.62413">
        <ele>94</ele>
        <time>2022-01-27T14:23:52Z</time>
      </trkpt>
      <trkpt lat="47.27744" lon="-1.62411">
        <ele>94</ele>
        <time>2022-01-27T14:23:53Z</time>
      </trkpt>
      <trkpt lat="47.27745" lon="-1.6241">
        <ele>94</ele>
        <time>2022-01-27T14:23:54Z</time>
      </trkpt>
      <trkpt lat="47.27747" lon="-1.62409">
        <ele>94</ele>
        <time>2022-01-27T14:23:55Z</time>
      </trkpt>
      <trkpt lat="47.27749" lon="-1.6241">
        <ele>94</ele>
        <time>2022-01-27T14:23:56Z</time>
      </trkpt>
      <trkpt lat="47.2775" lon="-1.62409">
        <ele>94</ele>
        <time>2022-01-27T14:23:57Z</time>
      </trkpt>
      <trkpt lat="47.27751" lon="-1.62409">
        <ele>93</ele>
        <time>2022-01-27T14:23:58Z</time>
      </trkpt>
      <trkpt lat="47.27752" lon="-1.62409">
        <ele>93</ele>
        <time>2022-01-27T14:23:59Z</time>
      </trkpt>
      <trkpt lat="47.27753" lon="-1.62409">
        <ele>93</ele>
        <time>2022-01-27T14:24:00Z</time>
      </trkpt>
      <trkpt lat="47.27754" lon="-1.62409">
        <ele>92</ele>
        <time>2022-01-27T14:24:01Z</time>
      </trkpt>
      <trkpt lat="47.27755" lon="-1.62409">
        <ele>92</ele>
        <time>2022-01-27T14:24:02Z</time>
      </trkpt>
      <trkpt lat="47.27755" lon="-1.62409">
        <ele>92</ele>
        <time>2022-01-27T14:24:03Z</time>
      </trkpt>
      <trkpt lat="47.27755" lon="-1.62409">
        <ele>92</ele>
        <time>2022-01-27T14:24:04Z</time>
      </trkpt>
      <trkpt lat="47.27759" lon="-1.62408">
        <ele>92</ele>
        <time>2022-01-27T14:24:05Z</time>
      </trkpt>
      <trkpt lat="47.2776" lon="-1.62408">
        <ele>92</ele>
        <time>2022-01-27T14:24:06Z</time>
      </trkpt>
      <trkpt lat="47.27761" lon="-1.62409">
        <ele>91</ele>
        <time>2022-01-27T14:24:07Z</time>
      </trkpt>
      <trkpt lat="47.27763" lon="-1.62409">
        <ele>91</ele>
        <time>2022-01-27T14:24:08Z</time>
      </trkpt>
      <trkpt lat="47.27763" lon="-1.62409">
        <ele>91</ele>
        <time>2022-01-27T14:24:09Z</time>
      </trkpt>
      <trkpt lat="47.27764" lon="-1.62409">
        <ele>91</ele>
        <time>2022-01-27T14:24:10Z</time>
      </trkpt>
      <trkpt lat="47.27765" lon="-1.62408">
        <ele>90</ele>
        <time>2022-01-27T14:24:11Z</time>
      </trkpt>
      <trkpt lat="47.27765" lon="-1.62408">
        <ele>90</ele>
        <time>2022-01-27T14:24:12Z</time>
      </trkpt>
      <trkpt lat="47.27765" lon="-1.62408">
        <ele>90</ele>
        <time>2022-01-27T14:24:13Z</time>
      </trkpt>
      <trkpt lat="47.27768" lon="-1.62407">
        <ele>89</ele>
        <time>2022-01-27T14:24:14Z</time>
      </trkpt>
      <trkpt lat="47.27769" lon="-1.62406">
        <ele>89</ele>
        <time>2022-01-27T14:24:15Z</time>
      </trkpt>
      <trkpt lat="47.27771" lon="-1.62406">
        <ele>89</ele>
        <time>2022-01-27T14:24:16Z</time>
      </trkpt>
      <trkpt lat="47.27772" lon="-1.62406">
        <ele>88</ele>
        <time>2022-01-27T14:24:17Z</time>
      </trkpt>
      <trkpt lat="47.27773" lon="-1.62405">
        <ele>88</ele>
        <time>2022-01-27T14:24:18Z</time>
      </trkpt>
      <trkpt lat="47.27774" lon="-1.62406">
        <ele>87</ele>
        <time>2022-01-27T14:24:19Z</time>
      </trkpt>
      <trkpt lat="47.27776" lon="-1.62406">
        <ele>87</ele>
        <time>2022-01-27T14:24:20Z</time>
      </trkpt>
      <trkpt lat="47.27777" lon="-1.62406">
        <ele>87</ele>
        <time>2022-01-27T14:24:21Z</time>
      </trkpt>
      <trkpt lat="47.27778" lon="-1.62406">
        <ele>87</ele>
        <time>2022-01-27T14:24:22Z</time>
      </trkpt>
      <trkpt lat="47.27779" lon="-1.62406">
        <ele>87</ele>
        <time>2022-01-27T14:24:23Z</time>
      </trkpt>
      <trkpt lat="47.2778" lon="-1.62406">
        <ele>86</ele>
        <time>2022-01-27T14:24:24Z</time>
      </trkpt>
      <trkpt lat="47.27781" lon="-1.62406">
        <ele>85</ele>
        <time>2022-01-27T14:24:25Z</time>
      </trkpt>
      <trkpt lat="47.27783" lon="-1.62406">
        <ele>84</ele>
        <time>2022-01-27T14:24:26Z</time>
      </trkpt>
      <trkpt lat="47.27784" lon="-1.62406">
        <ele>84</ele>
        <time>2022-01-27T14:24:27Z</time>
      </trkpt>
      <trkpt lat="47.27786" lon="-1.62405">
        <ele>84</ele>
        <time>2022-01-27T14:24:28Z</time>
      </trkpt>
      <trkpt lat="47.27786" lon="-1.62405">
        <ele>84</ele>
        <time>2022-01-27T14:24:29Z</time>
      </trkpt>
      <trkpt lat="47.27787" lon="-1.62405">
        <ele>84</ele>
        <time>2022-01-27T14:24:30Z</time>
      </trkpt>
      <trkpt lat="47.27789" lon="-1.62405">
        <ele>83</ele>
        <time>2022-01-27T14:24:31Z</time>
      </trkpt>
      <trkpt lat="47.27789" lon="-1.62405">
        <ele>83</ele>
        <time>2022-01-27T14:24:32Z</time>
      </trkpt>
      <trkpt lat="47.2779" lon="-1.62405">
        <ele>83</ele>
        <time>2022-01-27T14:24:33Z</time>
      </trkpt>
      <trkpt lat="47.27791" lon="-1.62404">
        <ele>82</ele>
        <time>2022-01-27T14:24:34Z</time>
      </trkpt>
      <trkpt lat="47.27793" lon="-1.62404">
        <ele>82</ele>
        <time>2022-01-27T14:24:35Z</time>
      </trkpt>
      <trkpt lat="47.27794" lon="-1.62404">
        <ele>81</ele>
        <time>2022-01-27T14:24:36Z</time>
      </trkpt>
      <trkpt lat="47.27796" lon="-1.62403">
        <ele>81</ele>
        <time>2022-01-27T14:24:37Z</time>
      </trkpt>
      <trkpt lat="47.27797" lon="-1.62403">
        <ele>80</ele>
        <time>2022-01-27T14:24:38Z</time>
      </trkpt>
      <trkpt lat="47.27798" lon="-1.62402">
        <ele>80</ele>
        <time>2022-01-27T14:24:39Z</time>
      </trkpt>
      <trkpt lat="47.27798" lon="-1.62402">
        <ele>80</ele>
        <time>2022-01-27T14:24:40Z</time>
      </trkpt>
      <trkpt lat="47.27798" lon="-1.62402">
        <ele>80</ele>
        <time>2022-01-27T14:24:41Z</time>
      </trkpt>
      <trkpt lat="47.278" lon="-1.62402">
        <ele>80</ele>
        <time>2022-01-27T14:24:42Z</time>
      </trkpt>
      <trkpt lat="47.27801" lon="-1.62402">
        <ele>79</ele>
        <time>2022-01-27T14:24:43Z</time>
      </trkpt>
      <trkpt lat="47.27802" lon="-1.62403">
        <ele>79</ele>
        <time>2022-01-27T14:24:44Z</time>
      </trkpt>
      <trkpt lat="47.27803" lon="-1.62403">
        <ele>78</ele>
        <time>2022-01-27T14:24:45Z</time>
      </trkpt>
      <trkpt lat="47.27803" lon="-1.62403">
        <ele>78</ele>
        <time>2022-01-27T14:24:46Z</time>
      </trkpt>
      <trkpt lat="47.27805" lon="-1.62404">
        <ele>78</ele>
        <time>2022-01-27T14:24:47Z</time>
      </trkpt>
      <trkpt lat="47.27806" lon="-1.62405">
        <ele>77</ele>
        <time>2022-01-27T14:24:48Z</time>
      </trkpt>
      <trkpt lat="47.27807" lon="-1.62405">
        <ele>77</ele>
        <time>2022-01-27T14:24:49Z</time>
      </trkpt>
      <trkpt lat="47.27807" lon="-1.62405">
        <ele>77</ele>
        <time>2022-01-27T14:24:50Z</time>
      </trkpt>
      <trkpt lat="47.27808" lon="-1.62405">
        <ele>76</ele>
        <time>2022-01-27T14:24:51Z</time>
      </trkpt>
      <trkpt lat="47.27809" lon="-1.62406">
        <ele>76</ele>
        <time>2022-01-27T14:24:52Z</time>
      </trkpt>
      <trkpt lat="47.27809" lon="-1.62406">
        <ele>76</ele>
        <time>2022-01-27T14:24:53Z</time>
      </trkpt>
      <trkpt lat="47.27809" lon="-1.62406">
        <ele>76</ele>
        <time>2022-01-27T14:24:54Z</time>
      </trkpt>
      <trkpt lat="47.27812" lon="-1.62407">
        <ele>75</ele>
        <time>2022-01-27T14:24:55Z</time>
      </trkpt>
      <trkpt lat="47.27813" lon="-1.62408">
        <ele>75</ele>
        <time>2022-01-27T14:24:56Z</time>
      </trkpt>
      <trkpt lat="47.27813" lon="-1.62409">
        <ele>75</ele>
        <time>2022-01-27T14:24:57Z</time>
      </trkpt>
      <trkpt lat="47.27815" lon="-1.62409">
        <ele>75</ele>
        <time>2022-01-27T14:24:58Z</time>
      </trkpt>
      <trkpt lat="47.27815" lon="-1.6241">
        <ele>74</ele>
        <time>2022-01-27T14:24:59Z</time>
      </trkpt>
      <trkpt lat="47.27816" lon="-1.6241">
        <ele>74</ele>
        <time>2022-01-27T14:25:00Z</time>
      </trkpt>
      <trkpt lat="47.27818" lon="-1.62409">
        <ele>73</ele>
        <time>2022-01-27T14:25:01Z</time>
      </trkpt>
      <trkpt lat="47.27819" lon="-1.6241">
        <ele>73</ele>
        <time>2022-01-27T14:25:02Z</time>
      </trkpt>
      <trkpt lat="47.2782" lon="-1.6241">
        <ele>72</ele>
        <time>2022-01-27T14:25:03Z</time>
      </trkpt>
      <trkpt lat="47.27822" lon="-1.6241">
        <ele>72</ele>
        <time>2022-01-27T14:25:04Z</time>
      </trkpt>
      <trkpt lat="47.27823" lon="-1.6241">
        <ele>72</ele>
        <time>2022-01-27T14:25:05Z</time>
      </trkpt>
      <trkpt lat="47.27825" lon="-1.6241">
        <ele>72</ele>
        <time>2022-01-27T14:25:06Z</time>
      </trkpt>
      <trkpt lat="47.27826" lon="-1.62412">
        <ele>72</ele>
        <time>2022-01-27T14:25:07Z</time>
      </trkpt>
      <trkpt lat="47.27828" lon="-1.62412">
        <ele>72</ele>
        <time>2022-01-27T14:25:08Z</time>
      </trkpt>
      <trkpt lat="47.27829" lon="-1.62414">
        <ele>72</ele>
        <time>2022-01-27T14:25:09Z</time>
      </trkpt>
      <trkpt lat="47.27831" lon="-1.62415">
        <ele>72</ele>
        <time>2022-01-27T14:25:10Z</time>
      </trkpt>
      <trkpt lat="47.27832" lon="-1.62416">
        <ele>72</ele>
        <time>2022-01-27T14:25:11Z</time>
      </trkpt>
      <trkpt lat="47.27833" lon="-1.62417">
        <ele>72</ele>
        <time>2022-01-27T14:25:12Z</time>
      </trkpt>
      <trkpt lat="47.27834" lon="-1.62418">
        <ele>71</ele>
        <time>2022-01-27T14:25:13Z</time>
      </trkpt>
      <trkpt lat="47.27836" lon="-1.62418">
        <ele>71</ele>
        <time>2022-01-27T14:25:14Z</time>
      </trkpt>
      <trkpt lat="47.27837" lon="-1.62419">
        <ele>71</ele>
        <time>2022-01-27T14:25:15Z</time>
      </trkpt>
      <trkpt lat="47.27838" lon="-1.6242">
        <ele>71</ele>
        <time>2022-01-27T14:25:16Z</time>
      </trkpt>
      <trkpt lat="47.27839" lon="-1.62421">
        <ele>71</ele>
        <time>2022-01-27T14:25:17Z</time>
      </trkpt>
      <trkpt lat="47.2784" lon="-1.62423">
        <ele>70</ele>
        <time>2022-01-27T14:25:18Z</time>
      </trkpt>
      <trkpt lat="47.27841" lon="-1.62424">
        <ele>70</ele>
        <time>2022-01-27T14:25:19Z</time>
      </trkpt>
      <trkpt lat="47.27842" lon="-1.62425">
        <ele>69</ele>
        <time>2022-01-27T14:25:20Z</time>
      </trkpt>
      <trkpt lat="47.27844" lon="-1.62425">
        <ele>69</ele>
        <time>2022-01-27T14:25:21Z</time>
      </trkpt>
      <trkpt lat="47.27845" lon="-1.62426">
        <ele>69</ele>
        <time>2022-01-27T14:25:22Z</time>
      </trkpt>
      <trkpt lat="47.27847" lon="-1.62427">
        <ele>69</ele>
        <time>2022-01-27T14:25:23Z</time>
      </trkpt>
      <trkpt lat="47.27848" lon="-1.62428">
        <ele>69</ele>
        <time>2022-01-27T14:25:24Z</time>
      </trkpt>
      <trkpt lat="47.2785" lon="-1.62428">
        <ele>69</ele>
        <time>2022-01-27T14:25:25Z</time>
      </trkpt>
      <trkpt lat="47.27852" lon="-1.62429">
        <ele>68</ele>
        <time>2022-01-27T14:25:26Z</time>
      </trkpt>
      <trkpt lat="47.27853" lon="-1.62429">
        <ele>68</ele>
        <time>2022-01-27T14:25:27Z</time>
      </trkpt>
      <trkpt lat="47.27855" lon="-1.6243">
        <ele>68</ele>
        <time>2022-01-27T14:25:28Z</time>
      </trkpt>
      <trkpt lat="47.27856" lon="-1.62431">
        <ele>68</ele>
        <time>2022-01-27T14:25:29Z</time>
      </trkpt>
      <trkpt lat="47.27858" lon="-1.62432">
        <ele>67</ele>
        <time>2022-01-27T14:25:30Z</time>
      </trkpt>
      <trkpt lat="47.27859" lon="-1.62432">
        <ele>67</ele>
        <time>2022-01-27T14:25:31Z</time>
      </trkpt>
      <trkpt lat="47.2786" lon="-1.62432">
        <ele>67</ele>
        <time>2022-01-27T14:25:32Z</time>
      </trkpt>
      <trkpt lat="47.27861" lon="-1.62432">
        <ele>67</ele>
        <time>2022-01-27T14:25:33Z</time>
      </trkpt>
      <trkpt lat="47.27863" lon="-1.62432">
        <ele>68</ele>
        <time>2022-01-27T14:25:34Z</time>
      </trkpt>
      <trkpt lat="47.27865" lon="-1.62433">
        <ele>68</ele>
        <time>2022-01-27T14:25:35Z</time>
      </trkpt>
      <trkpt lat="47.27865" lon="-1.62433">
        <ele>68</ele>
        <time>2022-01-27T14:25:36Z</time>
      </trkpt>
      <trkpt lat="47.27866" lon="-1.62433">
        <ele>68</ele>
        <time>2022-01-27T14:25:37Z</time>
      </trkpt>
      <trkpt lat="47.27868" lon="-1.62434">
        <ele>69</ele>
        <time>2022-01-27T14:25:38Z</time>
      </trkpt>
      <trkpt lat="47.27869" lon="-1.62434">
        <ele>69</ele>
        <time>2022-01-27T14:25:39Z</time>
      </trkpt>
      <trkpt lat="47.2787" lon="-1.62434">
        <ele>69</ele>
        <time>2022-01-27T14:25:40Z</time>
      </trkpt>
      <trkpt lat="47.27871" lon="-1.62434">
        <ele>69</ele>
        <time>2022-01-27T14:25:41Z</time>
      </trkpt>
      <trkpt lat="47.27872" lon="-1.62434">
        <ele>69</ele>
        <time>2022-01-27T14:25:42Z</time>
      </trkpt>
      <trkpt lat="47.27873" lon="-1.62435">
        <ele>69</ele>
        <time>2022-01-27T14:25:43Z</time>
      </trkpt>
      <trkpt lat="47.27874" lon="-1.62435">
        <ele>69</ele>
        <time>2022-01-27T14:25:44Z</time>
      </trkpt>
      <trkpt lat="47.27875" lon="-1.62435">
        <ele>69</ele>
        <time>2022-01-27T14:25:45Z</time>
      </trkpt>
      <trkpt lat="47.27875" lon="-1.62435">
        <ele>69</ele>
        <time>2022-01-27T14:25:46Z</time>
      </trkpt>
      <trkpt lat="47.27875" lon="-1.62435">
        <ele>69</ele>
        <time>2022-01-27T14:25:47Z</time>
      </trkpt>
      <trkpt lat="47.27877" lon="-1.62434">
        <ele>70</ele>
        <time>2022-01-27T14:25:48Z</time>
      </trkpt>
      <trkpt lat="47.27878" lon="-1.62434">
        <ele>70</ele>
        <time>2022-01-27T14:25:49Z</time>
      </trkpt>
      <trkpt lat="47.27879" lon="-1.62435">
        <ele>70</ele>
        <time>2022-01-27T14:25:50Z</time>
      </trkpt>
      <trkpt lat="47.2788" lon="-1.62435">
        <ele>71</ele>
        <time>2022-01-27T14:25:51Z</time>
      </trkpt>
      <trkpt lat="47.27881" lon="-1.62435">
        <ele>71</ele>
        <time>2022-01-27T14:25:52Z</time>
      </trkpt>
      <trkpt lat="47.27883" lon="-1.62436">
        <ele>70</ele>
        <time>2022-01-27T14:25:53Z</time>
      </trkpt>
      <trkpt lat="47.27884" lon="-1.62437">
        <ele>70</ele>
        <time>2022-01-27T14:25:54Z</time>
      </trkpt>
      <trkpt lat="47.27885" lon="-1.62437">
        <ele>70</ele>
        <time>2022-01-27T14:25:55Z</time>
      </trkpt>
      <trkpt lat="47.27886" lon="-1.62438">
        <ele>69</ele>
        <time>2022-01-27T14:25:56Z</time>
      </trkpt>
      <trkpt lat="47.27887" lon="-1.62439">
        <ele>69</ele>
        <time>2022-01-27T14:25:57Z</time>
      </trkpt>
      <trkpt lat="47.27888" lon="-1.6244">
        <ele>69</ele>
        <time>2022-01-27T14:25:58Z</time>
      </trkpt>
      <trkpt lat="47.27889" lon="-1.62441">
        <ele>69</ele>
        <time>2022-01-27T14:25:59Z</time>
      </trkpt>
      <trkpt lat="47.2789" lon="-1.62441">
        <ele>69</ele>
        <time>2022-01-27T14:26:00Z</time>
      </trkpt>
      <trkpt lat="47.27892" lon="-1.62441">
        <ele>69</ele>
        <time>2022-01-27T14:26:01Z</time>
      </trkpt>
      <trkpt lat="47.27895" lon="-1.62443">
        <ele>69</ele>
        <time>2022-01-27T14:26:02Z</time>
      </trkpt>
      <trkpt lat="47.27897" lon="-1.62444">
        <ele>69</ele>
        <time>2022-01-27T14:26:03Z</time>
      </trkpt>
      <trkpt lat="47.27898" lon="-1.62445">
        <ele>69</ele>
        <time>2022-01-27T14:26:04Z</time>
      </trkpt>
      <trkpt lat="47.279" lon="-1.62446">
        <ele>69</ele>
        <time>2022-01-27T14:26:05Z</time>
      </trkpt>
      <trkpt lat="47.27901" lon="-1.62447">
        <ele>69</ele>
        <time>2022-01-27T14:26:06Z</time>
      </trkpt>
      <trkpt lat="47.27902" lon="-1.62448">
        <ele>69</ele>
        <time>2022-01-27T14:26:07Z</time>
      </trkpt>
      <trkpt lat="47.27903" lon="-1.6245">
        <ele>68</ele>
        <time>2022-01-27T14:26:08Z</time>
      </trkpt>
      <trkpt lat="47.27904" lon="-1.62451">
        <ele>68</ele>
        <time>2022-01-27T14:26:09Z</time>
      </trkpt>
      <trkpt lat="47.27906" lon="-1.62453">
        <ele>68</ele>
        <time>2022-01-27T14:26:10Z</time>
      </trkpt>
      <trkpt lat="47.27907" lon="-1.62455">
        <ele>68</ele>
        <time>2022-01-27T14:26:11Z</time>
      </trkpt>
      <trkpt lat="47.27909" lon="-1.62456">
        <ele>67</ele>
        <time>2022-01-27T14:26:12Z</time>
      </trkpt>
      <trkpt lat="47.27911" lon="-1.62458">
        <ele>67</ele>
        <time>2022-01-27T14:26:13Z</time>
      </trkpt>
      <trkpt lat="47.27913" lon="-1.62459">
        <ele>67</ele>
        <time>2022-01-27T14:26:14Z</time>
      </trkpt>
      <trkpt lat="47.27914" lon="-1.6246">
        <ele>68</ele>
        <time>2022-01-27T14:26:15Z</time>
      </trkpt>
      <trkpt lat="47.27916" lon="-1.62461">
        <ele>68</ele>
        <time>2022-01-27T14:26:16Z</time>
      </trkpt>
      <trkpt lat="47.27918" lon="-1.62462">
        <ele>68</ele>
        <time>2022-01-27T14:26:17Z</time>
      </trkpt>
      <trkpt lat="47.27919" lon="-1.62464">
        <ele>68</ele>
        <time>2022-01-27T14:26:18Z</time>
      </trkpt>
      <trkpt lat="47.27922" lon="-1.62465">
        <ele>69</ele>
        <time>2022-01-27T14:26:19Z</time>
      </trkpt>
      <trkpt lat="47.27924" lon="-1.62466">
        <ele>69</ele>
        <time>2022-01-27T14:26:20Z</time>
      </trkpt>
      <trkpt lat="47.27926" lon="-1.62468">
        <ele>69</ele>
        <time>2022-01-27T14:26:21Z</time>
      </trkpt>
      <trkpt lat="47.27928" lon="-1.6247">
        <ele>69</ele>
        <time>2022-01-27T14:26:22Z</time>
      </trkpt>
      <trkpt lat="47.27929" lon="-1.62472">
        <ele>69</ele>
        <time>2022-01-27T14:26:23Z</time>
      </trkpt>
      <trkpt lat="47.27931" lon="-1.62473">
        <ele>69</ele>
        <time>2022-01-27T14:26:24Z</time>
      </trkpt>
      <trkpt lat="47.27932" lon="-1.62474">
        <ele>69</ele>
        <time>2022-01-27T14:26:25Z</time>
      </trkpt>
      <trkpt lat="47.27934" lon="-1.62476">
        <ele>69</ele>
        <time>2022-01-27T14:26:26Z</time>
      </trkpt>
      <trkpt lat="47.27936" lon="-1.62477">
        <ele>69</ele>
        <time>2022-01-27T14:26:27Z</time>
      </trkpt>
      <trkpt lat="47.27937" lon="-1.62478">
        <ele>69</ele>
        <time>2022-01-27T14:26:28Z</time>
      </trkpt>
      <trkpt lat="47.27938" lon="-1.62479">
        <ele>69</ele>
        <time>2022-01-27T14:26:29Z</time>
      </trkpt>
      <trkpt lat="47.27939" lon="-1.6248">
        <ele>69</ele>
        <time>2022-01-27T14:26:30Z</time>
      </trkpt>
      <trkpt lat="47.27939" lon="-1.62481">
        <ele>70</ele>
        <time>2022-01-27T14:26:31Z</time>
      </trkpt>
      <trkpt lat="47.2794" lon="-1.62482">
        <ele>70</ele>
        <time>2022-01-27T14:26:32Z</time>
      </trkpt>
      <trkpt lat="47.27941" lon="-1.62483">
        <ele>70</ele>
        <time>2022-01-27T14:26:33Z</time>
      </trkpt>
      <trkpt lat="47.27942" lon="-1.62484">
        <ele>71</ele>
        <time>2022-01-27T14:26:34Z</time>
      </trkpt>
      <trkpt lat="47.27943" lon="-1.62485">
        <ele>72</ele>
        <time>2022-01-27T14:26:35Z</time>
      </trkpt>
      <trkpt lat="47.27943" lon="-1.62486">
        <ele>72</ele>
        <time>2022-01-27T14:26:36Z</time>
      </trkpt>
      <trkpt lat="47.27943" lon="-1.62486">
        <ele>72</ele>
        <time>2022-01-27T14:26:37Z</time>
      </trkpt>
      <trkpt lat="47.27943" lon="-1.62486">
        <ele>72</ele>
        <time>2022-01-27T14:26:38Z</time>
      </trkpt>
      <trkpt lat="47.27945" lon="-1.62489">
        <ele>73</ele>
        <time>2022-01-27T14:26:39Z</time>
      </trkpt>
      <trkpt lat="47.27946" lon="-1.62491">
        <ele>73</ele>
        <time>2022-01-27T14:26:40Z</time>
      </trkpt>
      <trkpt lat="47.27947" lon="-1.62492">
        <ele>74</ele>
        <time>2022-01-27T14:26:41Z</time>
      </trkpt>
      <trkpt lat="47.27948" lon="-1.62493">
        <ele>74</ele>
        <time>2022-01-27T14:26:42Z</time>
      </trkpt>
      <trkpt lat="47.27949" lon="-1.62494">
        <ele>74</ele>
        <time>2022-01-27T14:26:43Z</time>
      </trkpt>
      <trkpt lat="47.2795" lon="-1.62495">
        <ele>74</ele>
        <time>2022-01-27T14:26:44Z</time>
      </trkpt>
      <trkpt lat="47.27951" lon="-1.62496">
        <ele>74</ele>
        <time>2022-01-27T14:26:45Z</time>
      </trkpt>
      <trkpt lat="47.27953" lon="-1.62497">
        <ele>74</ele>
        <time>2022-01-27T14:26:46Z</time>
      </trkpt>
      <trkpt lat="47.27953" lon="-1.62498">
        <ele>75</ele>
        <time>2022-01-27T14:26:47Z</time>
      </trkpt>
      <trkpt lat="47.27955" lon="-1.625">
        <ele>75</ele>
        <time>2022-01-27T14:26:48Z</time>
      </trkpt>
      <trkpt lat="47.27956" lon="-1.62501">
        <ele>76</ele>
        <time>2022-01-27T14:26:49Z</time>
      </trkpt>
      <trkpt lat="47.27957" lon="-1.62502">
        <ele>76</ele>
        <time>2022-01-27T14:26:50Z</time>
      </trkpt>
      <trkpt lat="47.27958" lon="-1.62502">
        <ele>76</ele>
        <time>2022-01-27T14:26:51Z</time>
      </trkpt>
      <trkpt lat="47.2796" lon="-1.62503">
        <ele>76</ele>
        <time>2022-01-27T14:26:52Z</time>
      </trkpt>
      <trkpt lat="47.27961" lon="-1.62505">
        <ele>77</ele>
        <time>2022-01-27T14:26:53Z</time>
      </trkpt>
      <trkpt lat="47.27962" lon="-1.62506">
        <ele>77</ele>
        <time>2022-01-27T14:26:54Z</time>
      </trkpt>
      <trkpt lat="47.27964" lon="-1.62507">
        <ele>77</ele>
        <time>2022-01-27T14:26:55Z</time>
      </trkpt>
      <trkpt lat="47.27965" lon="-1.62507">
        <ele>78</ele>
        <time>2022-01-27T14:26:56Z</time>
      </trkpt>
      <trkpt lat="47.27966" lon="-1.62508">
        <ele>78</ele>
        <time>2022-01-27T14:26:57Z</time>
      </trkpt>
      <trkpt lat="47.27967" lon="-1.62509">
        <ele>78</ele>
        <time>2022-01-27T14:26:58Z</time>
      </trkpt>
      <trkpt lat="47.27968" lon="-1.62509">
        <ele>78</ele>
        <time>2022-01-27T14:26:59Z</time>
      </trkpt>
      <trkpt lat="47.27969" lon="-1.6251">
        <ele>78</ele>
        <time>2022-01-27T14:27:00Z</time>
      </trkpt>
      <trkpt lat="47.27971" lon="-1.6251">
        <ele>79</ele>
        <time>2022-01-27T14:27:01Z</time>
      </trkpt>
      <trkpt lat="47.27972" lon="-1.62511">
        <ele>79</ele>
        <time>2022-01-27T14:27:02Z</time>
      </trkpt>
      <trkpt lat="47.27973" lon="-1.62511">
        <ele>79</ele>
        <time>2022-01-27T14:27:03Z</time>
      </trkpt>
      <trkpt lat="47.27975" lon="-1.62511">
        <ele>79</ele>
        <time>2022-01-27T14:27:04Z</time>
      </trkpt>
      <trkpt lat="47.27976" lon="-1.62512">
        <ele>79</ele>
        <time>2022-01-27T14:27:05Z</time>
      </trkpt>
      <trkpt lat="47.27978" lon="-1.62512">
        <ele>79</ele>
        <time>2022-01-27T14:27:06Z</time>
      </trkpt>
      <trkpt lat="47.27979" lon="-1.62513">
        <ele>80</ele>
        <time>2022-01-27T14:27:07Z</time>
      </trkpt>
      <trkpt lat="47.2798" lon="-1.62514">
        <ele>80</ele>
        <time>2022-01-27T14:27:08Z</time>
      </trkpt>
      <trkpt lat="47.27982" lon="-1.62516">
        <ele>81</ele>
        <time>2022-01-27T14:27:09Z</time>
      </trkpt>
      <trkpt lat="47.27985" lon="-1.62517">
        <ele>82</ele>
        <time>2022-01-27T14:27:10Z</time>
      </trkpt>
      <trkpt lat="47.27987" lon="-1.62518">
        <ele>83</ele>
        <time>2022-01-27T14:27:11Z</time>
      </trkpt>
      <trkpt lat="47.27989" lon="-1.62518">
        <ele>83</ele>
        <time>2022-01-27T14:27:12Z</time>
      </trkpt>
      <trkpt lat="47.27991" lon="-1.62518">
        <ele>85</ele>
        <time>2022-01-27T14:27:13Z</time>
      </trkpt>
      <trkpt lat="47.27993" lon="-1.62518">
        <ele>85</ele>
        <time>2022-01-27T14:27:14Z</time>
      </trkpt>
      <trkpt lat="47.27995" lon="-1.62518">
        <ele>86</ele>
        <time>2022-01-27T14:27:15Z</time>
      </trkpt>
      <trkpt lat="47.27997" lon="-1.62519">
        <ele>87</ele>
        <time>2022-01-27T14:27:16Z</time>
      </trkpt>
      <trkpt lat="47.27999" lon="-1.62519">
        <ele>88</ele>
        <time>2022-01-27T14:27:17Z</time>
      </trkpt>
      <trkpt lat="47.28001" lon="-1.62519">
        <ele>88</ele>
        <time>2022-01-27T14:27:18Z</time>
      </trkpt>
      <trkpt lat="47.28003" lon="-1.62519">
        <ele>88</ele>
        <time>2022-01-27T14:27:19Z</time>
      </trkpt>
      <trkpt lat="47.28005" lon="-1.62519">
        <ele>88</ele>
        <time>2022-01-27T14:27:20Z</time>
      </trkpt>
      <trkpt lat="47.28006" lon="-1.62519">
        <ele>88</ele>
        <time>2022-01-27T14:27:21Z</time>
      </trkpt>
      <trkpt lat="47.28007" lon="-1.62519">
        <ele>88</ele>
        <time>2022-01-27T14:27:22Z</time>
      </trkpt>
      <trkpt lat="47.28009" lon="-1.62519">
        <ele>88</ele>
        <time>2022-01-27T14:27:23Z</time>
      </trkpt>
      <trkpt lat="47.28011" lon="-1.6252">
        <ele>89</ele>
        <time>2022-01-27T14:27:24Z</time>
      </trkpt>
      <trkpt lat="47.28013" lon="-1.6252">
        <ele>89</ele>
        <time>2022-01-27T14:27:25Z</time>
      </trkpt>
      <trkpt lat="47.28014" lon="-1.62521">
        <ele>88</ele>
        <time>2022-01-27T14:27:26Z</time>
      </trkpt>
      <trkpt lat="47.28016" lon="-1.62521">
        <ele>88</ele>
        <time>2022-01-27T14:27:27Z</time>
      </trkpt>
      <trkpt lat="47.28017" lon="-1.62521">
        <ele>87</ele>
        <time>2022-01-27T14:27:28Z</time>
      </trkpt>
      <trkpt lat="47.28018" lon="-1.62521">
        <ele>87</ele>
        <time>2022-01-27T14:27:29Z</time>
      </trkpt>
      <trkpt lat="47.28018" lon="-1.62521">
        <ele>87</ele>
        <time>2022-01-27T14:27:30Z</time>
      </trkpt>
      <trkpt lat="47.28018" lon="-1.62521">
        <ele>87</ele>
        <time>2022-01-27T14:27:31Z</time>
      </trkpt>
      <trkpt lat="47.28021" lon="-1.62521">
        <ele>87</ele>
        <time>2022-01-27T14:27:32Z</time>
      </trkpt>
      <trkpt lat="47.28022" lon="-1.62521">
        <ele>88</ele>
        <time>2022-01-27T14:27:33Z</time>
      </trkpt>
      <trkpt lat="47.28023" lon="-1.62521">
        <ele>88</ele>
        <time>2022-01-27T14:27:34Z</time>
      </trkpt>
      <trkpt lat="47.28025" lon="-1.62521">
        <ele>88</ele>
        <time>2022-01-27T14:27:35Z</time>
      </trkpt>
      <trkpt lat="47.28027" lon="-1.62522">
        <ele>88</ele>
        <time>2022-01-27T14:27:36Z</time>
      </trkpt>
      <trkpt lat="47.28028" lon="-1.62522">
        <ele>89</ele>
        <time>2022-01-27T14:27:37Z</time>
      </trkpt>
      <trkpt lat="47.2803" lon="-1.62522">
        <ele>89</ele>
        <time>2022-01-27T14:27:38Z</time>
      </trkpt>
      <trkpt lat="47.28032" lon="-1.62522">
        <ele>89</ele>
        <time>2022-01-27T14:27:39Z</time>
      </trkpt>
      <trkpt lat="47.28034" lon="-1.62522">
        <ele>89</ele>
        <time>2022-01-27T14:27:40Z</time>
      </trkpt>
      <trkpt lat="47.28035" lon="-1.62522">
        <ele>89</ele>
        <time>2022-01-27T14:27:41Z</time>
      </trkpt>
      <trkpt lat="47.28037" lon="-1.62523">
        <ele>90</ele>
        <time>2022-01-27T14:27:42Z</time>
      </trkpt>
      <trkpt lat="47.28038" lon="-1.62523">
        <ele>90</ele>
        <time>2022-01-27T14:27:43Z</time>
      </trkpt>
      <trkpt lat="47.2804" lon="-1.62523">
        <ele>90</ele>
        <time>2022-01-27T14:27:44Z</time>
      </trkpt>
      <trkpt lat="47.28041" lon="-1.62523">
        <ele>91</ele>
        <time>2022-01-27T14:27:45Z</time>
      </trkpt>
      <trkpt lat="47.28043" lon="-1.62525">
        <ele>91</ele>
        <time>2022-01-27T14:27:46Z</time>
      </trkpt>
      <trkpt lat="47.28044" lon="-1.62526">
        <ele>92</ele>
        <time>2022-01-27T14:27:47Z</time>
      </trkpt>
      <trkpt lat="47.28045" lon="-1.62526">
        <ele>92</ele>
        <time>2022-01-27T14:27:48Z</time>
      </trkpt>
      <trkpt lat="47.28046" lon="-1.62527">
        <ele>92</ele>
        <time>2022-01-27T14:27:49Z</time>
      </trkpt>
      <trkpt lat="47.28048" lon="-1.62527">
        <ele>93</ele>
        <time>2022-01-27T14:27:50Z</time>
      </trkpt>
      <trkpt lat="47.28048" lon="-1.62528">
        <ele>93</ele>
        <time>2022-01-27T14:27:51Z</time>
      </trkpt>
      <trkpt lat="47.28049" lon="-1.62528">
        <ele>93</ele>
        <time>2022-01-27T14:27:52Z</time>
      </trkpt>
      <trkpt lat="47.2805" lon="-1.62528">
        <ele>93</ele>
        <time>2022-01-27T14:27:53Z</time>
      </trkpt>
      <trkpt lat="47.28051" lon="-1.62529">
        <ele>93</ele>
        <time>2022-01-27T14:27:54Z</time>
      </trkpt>
      <trkpt lat="47.28052" lon="-1.6253">
        <ele>92</ele>
        <time>2022-01-27T14:27:55Z</time>
      </trkpt>
      <trkpt lat="47.28054" lon="-1.6253">
        <ele>93</ele>
        <time>2022-01-27T14:27:56Z</time>
      </trkpt>
      <trkpt lat="47.28055" lon="-1.62531">
        <ele>93</ele>
        <time>2022-01-27T14:27:57Z</time>
      </trkpt>
      <trkpt lat="47.28056" lon="-1.62531">
        <ele>93</ele>
        <time>2022-01-27T14:27:58Z</time>
      </trkpt>
      <trkpt lat="47.28057" lon="-1.62532">
        <ele>92</ele>
        <time>2022-01-27T14:27:59Z</time>
      </trkpt>
      <trkpt lat="47.28058" lon="-1.62533">
        <ele>92</ele>
        <time>2022-01-27T14:28:00Z</time>
      </trkpt>
      <trkpt lat="47.28059" lon="-1.62533">
        <ele>92</ele>
        <time>2022-01-27T14:28:01Z</time>
      </trkpt>
      <trkpt lat="47.28061" lon="-1.62533">
        <ele>92</ele>
        <time>2022-01-27T14:28:02Z</time>
      </trkpt>
      <trkpt lat="47.28062" lon="-1.62533">
        <ele>92</ele>
        <time>2022-01-27T14:28:03Z</time>
      </trkpt>
      <trkpt lat="47.28063" lon="-1.62532">
        <ele>93</ele>
        <time>2022-01-27T14:28:04Z</time>
      </trkpt>
      <trkpt lat="47.28064" lon="-1.62532">
        <ele>93</ele>
        <time>2022-01-27T14:28:05Z</time>
      </trkpt>
      <trkpt lat="47.28066" lon="-1.62532">
        <ele>93</ele>
        <time>2022-01-27T14:28:06Z</time>
      </trkpt>
      <trkpt lat="47.28067" lon="-1.62532">
        <ele>92</ele>
        <time>2022-01-27T14:28:07Z</time>
      </trkpt>
      <trkpt lat="47.28067" lon="-1.62532">
        <ele>92</ele>
        <time>2022-01-27T14:28:08Z</time>
      </trkpt>
      <trkpt lat="47.28068" lon="-1.62532">
        <ele>92</ele>
        <time>2022-01-27T14:28:09Z</time>
      </trkpt>
      <trkpt lat="47.28068" lon="-1.62532">
        <ele>92</ele>
        <time>2022-01-27T14:28:10Z</time>
      </trkpt>
      <trkpt lat="47.28068" lon="-1.62532">
        <ele>92</ele>
        <time>2022-01-27T14:28:11Z</time>
      </trkpt>
      <trkpt lat="47.2807" lon="-1.62532">
        <ele>93</ele>
        <time>2022-01-27T14:28:12Z</time>
      </trkpt>
      <trkpt lat="47.2807" lon="-1.62533">
        <ele>93</ele>
        <time>2022-01-27T14:28:13Z</time>
      </trkpt>
      <trkpt lat="47.28071" lon="-1.62533">
        <ele>92</ele>
        <time>2022-01-27T14:28:14Z</time>
      </trkpt>
      <trkpt lat="47.28072" lon="-1.62533">
        <ele>93</ele>
        <time>2022-01-27T14:28:15Z</time>
      </trkpt>
      <trkpt lat="47.28074" lon="-1.62533">
        <ele>93</ele>
        <time>2022-01-27T14:28:16Z</time>
      </trkpt>
      <trkpt lat="47.28075" lon="-1.62534">
        <ele>93</ele>
        <time>2022-01-27T14:28:17Z</time>
      </trkpt>
      <trkpt lat="47.28075" lon="-1.62534">
        <ele>93</ele>
        <time>2022-01-27T14:28:18Z</time>
      </trkpt>
      <trkpt lat="47.28077" lon="-1.62534">
        <ele>93</ele>
        <time>2022-01-27T14:28:19Z</time>
      </trkpt>
      <trkpt lat="47.28077" lon="-1.62534">
        <ele>93</ele>
        <time>2022-01-27T14:28:20Z</time>
      </trkpt>
      <trkpt lat="47.28077" lon="-1.62535">
        <ele>93</ele>
        <time>2022-01-27T14:28:21Z</time>
      </trkpt>
      <trkpt lat="47.28077" lon="-1.62535">
        <ele>93</ele>
        <time>2022-01-27T14:28:22Z</time>
      </trkpt>
      <trkpt lat="47.28078" lon="-1.62535">
        <ele>92</ele>
        <time>2022-01-27T14:28:23Z</time>
      </trkpt>
      <trkpt lat="47.28079" lon="-1.62535">
        <ele>92</ele>
        <time>2022-01-27T14:28:24Z</time>
      </trkpt>
      <trkpt lat="47.28079" lon="-1.62535">
        <ele>92</ele>
        <time>2022-01-27T14:28:25Z</time>
      </trkpt>
      <trkpt lat="47.28079" lon="-1.62535">
        <ele>92</ele>
        <time>2022-01-27T14:28:26Z</time>
      </trkpt>
      <trkpt lat="47.2808" lon="-1.62535">
        <ele>92</ele>
        <time>2022-01-27T14:28:27Z</time>
      </trkpt>
      <trkpt lat="47.28082" lon="-1.62535">
        <ele>92</ele>
        <time>2022-01-27T14:28:28Z</time>
      </trkpt>
      <trkpt lat="47.28083" lon="-1.62535">
        <ele>91</ele>
        <time>2022-01-27T14:28:29Z</time>
      </trkpt>
      <trkpt lat="47.28084" lon="-1.62535">
        <ele>91</ele>
        <time>2022-01-27T14:28:30Z</time>
      </trkpt>
      <trkpt lat="47.28085" lon="-1.62535">
        <ele>91</ele>
        <time>2022-01-27T14:28:31Z</time>
      </trkpt>
      <trkpt lat="47.28086" lon="-1.62536">
        <ele>91</ele>
        <time>2022-01-27T14:28:32Z</time>
      </trkpt>
      <trkpt lat="47.28086" lon="-1.62536">
        <ele>91</ele>
        <time>2022-01-27T14:28:33Z</time>
      </trkpt>
      <trkpt lat="47.28088" lon="-1.62536">
        <ele>91</ele>
        <time>2022-01-27T14:28:34Z</time>
      </trkpt>
      <trkpt lat="47.2809" lon="-1.62536">
        <ele>91</ele>
        <time>2022-01-27T14:28:35Z</time>
      </trkpt>
      <trkpt lat="47.28091" lon="-1.62536">
        <ele>91</ele>
        <time>2022-01-27T14:28:36Z</time>
      </trkpt>
      <trkpt lat="47.28092" lon="-1.62536">
        <ele>91</ele>
        <time>2022-01-27T14:28:37Z</time>
      </trkpt>
      <trkpt lat="47.28092" lon="-1.62536">
        <ele>91</ele>
        <time>2022-01-27T14:28:38Z</time>
      </trkpt>
      <trkpt lat="47.28092" lon="-1.62536">
        <ele>91</ele>
        <time>2022-01-27T14:28:39Z</time>
      </trkpt>
      <trkpt lat="47.28094" lon="-1.62537">
        <ele>90</ele>
        <time>2022-01-27T14:28:40Z</time>
      </trkpt>
      <trkpt lat="47.28095" lon="-1.62537">
        <ele>90</ele>
        <time>2022-01-27T14:28:41Z</time>
      </trkpt>
      <trkpt lat="47.28096" lon="-1.62536">
        <ele>89</ele>
        <time>2022-01-27T14:28:42Z</time>
      </trkpt>
      <trkpt lat="47.28096" lon="-1.62537">
        <ele>89</ele>
        <time>2022-01-27T14:28:43Z</time>
      </trkpt>
      <trkpt lat="47.28096" lon="-1.62537">
        <ele>89</ele>
        <time>2022-01-27T14:28:44Z</time>
      </trkpt>
      <trkpt lat="47.28096" lon="-1.62537">
        <ele>89</ele>
        <time>2022-01-27T14:28:45Z</time>
      </trkpt>
      <trkpt lat="47.28099" lon="-1.62537">
        <ele>89</ele>
        <time>2022-01-27T14:28:46Z</time>
      </trkpt>
      <trkpt lat="47.281" lon="-1.62537">
        <ele>89</ele>
        <time>2022-01-27T14:28:47Z</time>
      </trkpt>
      <trkpt lat="47.28101" lon="-1.62537">
        <ele>88</ele>
        <time>2022-01-27T14:28:48Z</time>
      </trkpt>
      <trkpt lat="47.28102" lon="-1.62537">
        <ele>88</ele>
        <time>2022-01-27T14:28:49Z</time>
      </trkpt>
      <trkpt lat="47.28102" lon="-1.62537">
        <ele>88</ele>
        <time>2022-01-27T14:28:50Z</time>
      </trkpt>
      <trkpt lat="47.28102" lon="-1.62537">
        <ele>88</ele>
        <time>2022-01-27T14:28:51Z</time>
      </trkpt>
      <trkpt lat="47.28106" lon="-1.62538">
        <ele>87</ele>
        <time>2022-01-27T14:28:52Z</time>
      </trkpt>
      <trkpt lat="47.28107" lon="-1.62539">
        <ele>87</ele>
        <time>2022-01-27T14:28:53Z</time>
      </trkpt>
      <trkpt lat="47.28108" lon="-1.6254">
        <ele>87</ele>
        <time>2022-01-27T14:28:54Z</time>
      </trkpt>
      <trkpt lat="47.28109" lon="-1.62541">
        <ele>87</ele>
        <time>2022-01-27T14:28:55Z</time>
      </trkpt>
      <trkpt lat="47.28109" lon="-1.62541">
        <ele>86</ele>
        <time>2022-01-27T14:28:56Z</time>
      </trkpt>
      <trkpt lat="47.28109" lon="-1.62541">
        <ele>86</ele>
        <time>2022-01-27T14:28:57Z</time>
      </trkpt>
      <trkpt lat="47.28109" lon="-1.62541">
        <ele>86</ele>
        <time>2022-01-27T14:28:58Z</time>
      </trkpt>
      <trkpt lat="47.28111" lon="-1.62543">
        <ele>86</ele>
        <time>2022-01-27T14:28:59Z</time>
      </trkpt>
      <trkpt lat="47.28112" lon="-1.62544">
        <ele>86</ele>
        <time>2022-01-27T14:29:00Z</time>
      </trkpt>
      <trkpt lat="47.28113" lon="-1.62544">
        <ele>85</ele>
        <time>2022-01-27T14:29:01Z</time>
      </trkpt>
      <trkpt lat="47.28115" lon="-1.62545">
        <ele>85</ele>
        <time>2022-01-27T14:29:02Z</time>
      </trkpt>
      <trkpt lat="47.28116" lon="-1.62545">
        <ele>85</ele>
        <time>2022-01-27T14:29:03Z</time>
      </trkpt>
      <trkpt lat="47.28117" lon="-1.62547">
        <ele>84</ele>
        <time>2022-01-27T14:29:04Z</time>
      </trkpt>
      <trkpt lat="47.28118" lon="-1.62548">
        <ele>83</ele>
        <time>2022-01-27T14:29:05Z</time>
      </trkpt>
      <trkpt lat="47.28119" lon="-1.62549">
        <ele>83</ele>
        <time>2022-01-27T14:29:06Z</time>
      </trkpt>
      <trkpt lat="47.2812" lon="-1.62549">
        <ele>83</ele>
        <time>2022-01-27T14:29:07Z</time>
      </trkpt>
      <trkpt lat="47.28122" lon="-1.62549">
        <ele>83</ele>
        <time>2022-01-27T14:29:08Z</time>
      </trkpt>
      <trkpt lat="47.28123" lon="-1.6255">
        <ele>83</ele>
        <time>2022-01-27T14:29:09Z</time>
      </trkpt>
      <trkpt lat="47.28125" lon="-1.62551">
        <ele>82</ele>
        <time>2022-01-27T14:29:10Z</time>
      </trkpt>
      <trkpt lat="47.28126" lon="-1.62551">
        <ele>82</ele>
        <time>2022-01-27T14:29:11Z</time>
      </trkpt>
      <trkpt lat="47.28127" lon="-1.62551">
        <ele>82</ele>
        <time>2022-01-27T14:29:12Z</time>
      </trkpt>
      <trkpt lat="47.28128" lon="-1.62552">
        <ele>81</ele>
        <time>2022-01-27T14:29:13Z</time>
      </trkpt>
      <trkpt lat="47.28128" lon="-1.62552">
        <ele>81</ele>
        <time>2022-01-27T14:29:14Z</time>
      </trkpt>
      <trkpt lat="47.28128" lon="-1.62552">
        <ele>81</ele>
        <time>2022-01-27T14:29:15Z</time>
      </trkpt>
      <trkpt lat="47.28131" lon="-1.62553">
        <ele>80</ele>
        <time>2022-01-27T14:29:16Z</time>
      </trkpt>
      <trkpt lat="47.28133" lon="-1.62553">
        <ele>79</ele>
        <time>2022-01-27T14:29:17Z</time>
      </trkpt>
      <trkpt lat="47.28134" lon="-1.62553">
        <ele>78</ele>
        <time>2022-01-27T14:29:18Z</time>
      </trkpt>
      <trkpt lat="47.28135" lon="-1.62553">
        <ele>78</ele>
        <time>2022-01-27T14:29:19Z</time>
      </trkpt>
      <trkpt lat="47.28135" lon="-1.62553">
        <ele>78</ele>
        <time>2022-01-27T14:29:20Z</time>
      </trkpt>
      <trkpt lat="47.28135" lon="-1.62553">
        <ele>78</ele>
        <time>2022-01-27T14:29:21Z</time>
      </trkpt>
      <trkpt lat="47.28138" lon="-1.62553">
        <ele>77</ele>
        <time>2022-01-27T14:29:22Z</time>
      </trkpt>
      <trkpt lat="47.2814" lon="-1.62553">
        <ele>76</ele>
        <time>2022-01-27T14:29:23Z</time>
      </trkpt>
      <trkpt lat="47.28141" lon="-1.62553">
        <ele>76</ele>
        <time>2022-01-27T14:29:24Z</time>
      </trkpt>
      <trkpt lat="47.28142" lon="-1.62553">
        <ele>76</ele>
        <time>2022-01-27T14:29:25Z</time>
      </trkpt>
      <trkpt lat="47.28143" lon="-1.62553">
        <ele>76</ele>
        <time>2022-01-27T14:29:26Z</time>
      </trkpt>
      <trkpt lat="47.28144" lon="-1.62553">
        <ele>75</ele>
        <time>2022-01-27T14:29:27Z</time>
      </trkpt>
      <trkpt lat="47.28144" lon="-1.62553">
        <ele>75</ele>
        <time>2022-01-27T14:29:28Z</time>
      </trkpt>
      <trkpt lat="47.28145" lon="-1.62554">
        <ele>74</ele>
        <time>2022-01-27T14:29:29Z</time>
      </trkpt>
      <trkpt lat="47.28146" lon="-1.62555">
        <ele>74</ele>
        <time>2022-01-27T14:29:30Z</time>
      </trkpt>
      <trkpt lat="47.28146" lon="-1.62555">
        <ele>74</ele>
        <time>2022-01-27T14:29:31Z</time>
      </trkpt>
      <trkpt lat="47.28147" lon="-1.62556">
        <ele>74</ele>
        <time>2022-01-27T14:29:32Z</time>
      </trkpt>
      <trkpt lat="47.28147" lon="-1.62556">
        <ele>74</ele>
        <time>2022-01-27T14:29:33Z</time>
      </trkpt>
      <trkpt lat="47.28148" lon="-1.62558">
        <ele>73</ele>
        <time>2022-01-27T14:29:34Z</time>
      </trkpt>
      <trkpt lat="47.28148" lon="-1.62558">
        <ele>73</ele>
        <time>2022-01-27T14:29:35Z</time>
      </trkpt>
      <trkpt lat="47.28149" lon="-1.62558">
        <ele>72</ele>
        <time>2022-01-27T14:29:36Z</time>
      </trkpt>
      <trkpt lat="47.2815" lon="-1.62558">
        <ele>72</ele>
        <time>2022-01-27T14:29:37Z</time>
      </trkpt>
      <trkpt lat="47.28151" lon="-1.62557">
        <ele>73</ele>
        <time>2022-01-27T14:29:38Z</time>
      </trkpt>
      <trkpt lat="47.28151" lon="-1.62557">
        <ele>73</ele>
        <time>2022-01-27T14:29:39Z</time>
      </trkpt>
      <trkpt lat="47.28152" lon="-1.62556">
        <ele>73</ele>
        <time>2022-01-27T14:29:40Z</time>
      </trkpt>
      <trkpt lat="47.28152" lon="-1.62556">
        <ele>73</ele>
        <time>2022-01-27T14:29:41Z</time>
      </trkpt>
      <trkpt lat="47.28152" lon="-1.62556">
        <ele>73</ele>
        <time>2022-01-27T14:29:42Z</time>
      </trkpt>
      <trkpt lat="47.28155" lon="-1.62556">
        <ele>72</ele>
        <time>2022-01-27T14:29:43Z</time>
      </trkpt>
      <trkpt lat="47.28156" lon="-1.62557">
        <ele>72</ele>
        <time>2022-01-27T14:29:44Z</time>
      </trkpt>
      <trkpt lat="47.28157" lon="-1.62557">
        <ele>73</ele>
        <time>2022-01-27T14:29:45Z</time>
      </trkpt>
      <trkpt lat="47.28158" lon="-1.62557">
        <ele>73</ele>
        <time>2022-01-27T14:29:46Z</time>
      </trkpt>
      <trkpt lat="47.2816" lon="-1.62558">
        <ele>73</ele>
        <time>2022-01-27T14:29:47Z</time>
      </trkpt>
      <trkpt lat="47.28161" lon="-1.62558">
        <ele>73</ele>
        <time>2022-01-27T14:29:48Z</time>
      </trkpt>
      <trkpt lat="47.28162" lon="-1.62558">
        <ele>73</ele>
        <time>2022-01-27T14:29:49Z</time>
      </trkpt>
      <trkpt lat="47.28164" lon="-1.62559">
        <ele>73</ele>
        <time>2022-01-27T14:29:50Z</time>
      </trkpt>
      <trkpt lat="47.28165" lon="-1.62559">
        <ele>73</ele>
        <time>2022-01-27T14:29:51Z</time>
      </trkpt>
      <trkpt lat="47.28167" lon="-1.62559">
        <ele>73</ele>
        <time>2022-01-27T14:29:52Z</time>
      </trkpt>
      <trkpt lat="47.2817" lon="-1.62559">
        <ele>73</ele>
        <time>2022-01-27T14:29:53Z</time>
      </trkpt>
      <trkpt lat="47.28172" lon="-1.62559">
        <ele>73</ele>
        <time>2022-01-27T14:29:54Z</time>
      </trkpt>
      <trkpt lat="47.28174" lon="-1.62559">
        <ele>73</ele>
        <time>2022-01-27T14:29:55Z</time>
      </trkpt>
      <trkpt lat="47.28175" lon="-1.62558">
        <ele>73</ele>
        <time>2022-01-27T14:29:56Z</time>
      </trkpt>
      <trkpt lat="47.28177" lon="-1.62558">
        <ele>73</ele>
        <time>2022-01-27T14:29:57Z</time>
      </trkpt>
      <trkpt lat="47.28178" lon="-1.62558">
        <ele>73</ele>
        <time>2022-01-27T14:29:58Z</time>
      </trkpt>
      <trkpt lat="47.2818" lon="-1.62557">
        <ele>73</ele>
        <time>2022-01-27T14:29:59Z</time>
      </trkpt>
      <trkpt lat="47.28182" lon="-1.62557">
        <ele>73</ele>
        <time>2022-01-27T14:30:00Z</time>
      </trkpt>
      <trkpt lat="47.28185" lon="-1.62557">
        <ele>74</ele>
        <time>2022-01-27T14:30:01Z</time>
      </trkpt>
      <trkpt lat="47.28187" lon="-1.62557">
        <ele>74</ele>
        <time>2022-01-27T14:30:02Z</time>
      </trkpt>
      <trkpt lat="47.28189" lon="-1.62556">
        <ele>75</ele>
        <time>2022-01-27T14:30:03Z</time>
      </trkpt>
      <trkpt lat="47.28191" lon="-1.62556">
        <ele>75</ele>
        <time>2022-01-27T14:30:04Z</time>
      </trkpt>
      <trkpt lat="47.28194" lon="-1.62556">
        <ele>74</ele>
        <time>2022-01-27T14:30:05Z</time>
      </trkpt>
      <trkpt lat="47.28196" lon="-1.62556">
        <ele>75</ele>
        <time>2022-01-27T14:30:06Z</time>
      </trkpt>
      <trkpt lat="47.28198" lon="-1.62557">
        <ele>75</ele>
        <time>2022-01-27T14:30:07Z</time>
      </trkpt>
      <trkpt lat="47.28198" lon="-1.62557">
        <ele>75</ele>
        <time>2022-01-27T14:30:08Z</time>
      </trkpt>
      <trkpt lat="47.28198" lon="-1.62557">
        <ele>75</ele>
        <time>2022-01-27T14:30:09Z</time>
      </trkpt>
      <trkpt lat="47.28198" lon="-1.62557">
        <ele>75</ele>
        <time>2022-01-27T14:30:10Z</time>
      </trkpt>
      <trkpt lat="47.28198" lon="-1.62557">
        <ele>75</ele>
        <time>2022-01-27T14:30:11Z</time>
      </trkpt>
      <trkpt lat="47.28198" lon="-1.62557">
        <ele>75</ele>
        <time>2022-01-27T14:30:12Z</time>
      </trkpt>
      <trkpt lat="47.28202" lon="-1.62558">
        <ele>76</ele>
        <time>2022-01-27T14:30:13Z</time>
      </trkpt>
      <trkpt lat="47.28202" lon="-1.62558">
        <ele>76</ele>
        <time>2022-01-27T14:30:14Z</time>
      </trkpt>
      <trkpt lat="47.28202" lon="-1.62558">
        <ele>76</ele>
        <time>2022-01-27T14:30:14Z</time>
      </trkpt>
      <trkpt lat="47.28222" lon="-1.62553">
        <ele>83</ele>
        <time>2022-01-27T14:30:37Z</time>
      </trkpt>
      <trkpt lat="47.28224" lon="-1.62553">
        <ele>84</ele>
        <time>2022-01-27T14:30:38Z</time>
      </trkpt>
      <trkpt lat="47.28225" lon="-1.62553">
        <ele>84</ele>
        <time>2022-01-27T14:30:39Z</time>
      </trkpt>
      <trkpt lat="47.28227" lon="-1.62553">
        <ele>84</ele>
        <time>2022-01-27T14:30:40Z</time>
      </trkpt>
      <trkpt lat="47.28228" lon="-1.62552">
        <ele>85</ele>
        <time>2022-01-27T14:30:41Z</time>
      </trkpt>
      <trkpt lat="47.28228" lon="-1.62552">
        <ele>85</ele>
        <time>2022-01-27T14:30:42Z</time>
      </trkpt>
      <trkpt lat="47.28229" lon="-1.62552">
        <ele>84</ele>
        <time>2022-01-27T14:30:43Z</time>
      </trkpt>
      <trkpt lat="47.28229" lon="-1.62552">
        <ele>84</ele>
        <time>2022-01-27T14:30:44Z</time>
      </trkpt>
      <trkpt lat="47.28229" lon="-1.62552">
        <ele>84</ele>
        <time>2022-01-27T14:30:45Z</time>
      </trkpt>
      <trkpt lat="47.28231" lon="-1.6255">
        <ele>85</ele>
        <time>2022-01-27T14:30:46Z</time>
      </trkpt>
      <trkpt lat="47.28232" lon="-1.6255">
        <ele>85</ele>
        <time>2022-01-27T14:30:47Z</time>
      </trkpt>
      <trkpt lat="47.28233" lon="-1.6255">
        <ele>85</ele>
        <time>2022-01-27T14:30:48Z</time>
      </trkpt>
      <trkpt lat="47.28233" lon="-1.6255">
        <ele>85</ele>
        <time>2022-01-27T14:30:49Z</time>
      </trkpt>
      <trkpt lat="47.28233" lon="-1.6255">
        <ele>85</ele>
        <time>2022-01-27T14:30:50Z</time>
      </trkpt>
      <trkpt lat="47.28233" lon="-1.6255">
        <ele>85</ele>
        <time>2022-01-27T14:30:51Z</time>
      </trkpt>
      <trkpt lat="47.28235" lon="-1.62549">
        <ele>85</ele>
        <time>2022-01-27T14:30:52Z</time>
      </trkpt>
      <trkpt lat="47.28236" lon="-1.62547">
        <ele>85</ele>
        <time>2022-01-27T14:30:53Z</time>
      </trkpt>
      <trkpt lat="47.28237" lon="-1.62546">
        <ele>86</ele>
        <time>2022-01-27T14:30:54Z</time>
      </trkpt>
      <trkpt lat="47.28238" lon="-1.62546">
        <ele>86</ele>
        <time>2022-01-27T14:30:55Z</time>
      </trkpt>
      <trkpt lat="47.28239" lon="-1.62545">
        <ele>86</ele>
        <time>2022-01-27T14:30:56Z</time>
      </trkpt>
      <trkpt lat="47.28239" lon="-1.62545">
        <ele>85</ele>
        <time>2022-01-27T14:30:57Z</time>
      </trkpt>
      <trkpt lat="47.28241" lon="-1.62544">
        <ele>85</ele>
        <time>2022-01-27T14:30:58Z</time>
      </trkpt>
      <trkpt lat="47.28242" lon="-1.62544">
        <ele>85</ele>
        <time>2022-01-27T14:30:59Z</time>
      </trkpt>
      <trkpt lat="47.28243" lon="-1.62543">
        <ele>84</ele>
        <time>2022-01-27T14:31:00Z</time>
      </trkpt>
      <trkpt lat="47.28243" lon="-1.62543">
        <ele>84</ele>
        <time>2022-01-27T14:31:01Z</time>
      </trkpt>
      <trkpt lat="47.28243" lon="-1.62543">
        <ele>84</ele>
        <time>2022-01-27T14:31:02Z</time>
      </trkpt>
      <trkpt lat="47.28245" lon="-1.62541">
        <ele>83</ele>
        <time>2022-01-27T14:31:03Z</time>
      </trkpt>
      <trkpt lat="47.28246" lon="-1.6254">
        <ele>83</ele>
        <time>2022-01-27T14:31:04Z</time>
      </trkpt>
      <trkpt lat="47.28247" lon="-1.6254">
        <ele>83</ele>
        <time>2022-01-27T14:31:05Z</time>
      </trkpt>
      <trkpt lat="47.28248" lon="-1.62539">
        <ele>83</ele>
        <time>2022-01-27T14:31:06Z</time>
      </trkpt>
      <trkpt lat="47.28248" lon="-1.62539">
        <ele>83</ele>
        <time>2022-01-27T14:31:07Z</time>
      </trkpt>
      <trkpt lat="47.28248" lon="-1.62539">
        <ele>83</ele>
        <time>2022-01-27T14:31:08Z</time>
      </trkpt>
      <trkpt lat="47.28249" lon="-1.6254">
        <ele>83</ele>
        <time>2022-01-27T14:31:09Z</time>
      </trkpt>
      <trkpt lat="47.28251" lon="-1.62541">
        <ele>82</ele>
        <time>2022-01-27T14:31:10Z</time>
      </trkpt>
      <trkpt lat="47.28252" lon="-1.62542">
        <ele>82</ele>
        <time>2022-01-27T14:31:11Z</time>
      </trkpt>
      <trkpt lat="47.28253" lon="-1.62543">
        <ele>81</ele>
        <time>2022-01-27T14:31:12Z</time>
      </trkpt>
      <trkpt lat="47.28253" lon="-1.62543">
        <ele>81</ele>
        <time>2022-01-27T14:31:13Z</time>
      </trkpt>
      <trkpt lat="47.28254" lon="-1.62543">
        <ele>81</ele>
        <time>2022-01-27T14:31:14Z</time>
      </trkpt>
      <trkpt lat="47.28254" lon="-1.62542">
        <ele>81</ele>
        <time>2022-01-27T14:31:15Z</time>
      </trkpt>
      <trkpt lat="47.28255" lon="-1.62542">
        <ele>82</ele>
        <time>2022-01-27T14:31:16Z</time>
      </trkpt>
      <trkpt lat="47.28255" lon="-1.62542">
        <ele>82</ele>
        <time>2022-01-27T14:31:17Z</time>
      </trkpt>
      <trkpt lat="47.28255" lon="-1.62542">
        <ele>83</ele>
        <time>2022-01-27T14:31:18Z</time>
      </trkpt>
      <trkpt lat="47.28255" lon="-1.62542">
        <ele>83</ele>
        <time>2022-01-27T14:31:19Z</time>
      </trkpt>
      <trkpt lat="47.28255" lon="-1.62542">
        <ele>83</ele>
        <time>2022-01-27T14:31:20Z</time>
      </trkpt>
      <trkpt lat="47.28255" lon="-1.62542">
        <ele>83</ele>
        <time>2022-01-27T14:31:21Z</time>
      </trkpt>
      <trkpt lat="47.28255" lon="-1.62542">
        <ele>83</ele>
        <time>2022-01-27T14:31:22Z</time>
      </trkpt>
      <trkpt lat="47.28255" lon="-1.62542">
        <ele>83</ele>
        <time>2022-01-27T14:31:23Z</time>
      </trkpt>
      <trkpt lat="47.28255" lon="-1.62542">
        <ele>83</ele>
        <time>2022-01-27T14:31:24Z</time>
      </trkpt>
      <trkpt lat="47.28255" lon="-1.62542">
        <ele>83</ele>
        <time>2022-01-27T14:31:25Z</time>
      </trkpt>
      <trkpt lat="47.28254" lon="-1.62543">
        <ele>84</ele>
        <time>2022-01-27T14:31:26Z</time>
      </trkpt>
      <trkpt lat="47.28254" lon="-1.62544">
        <ele>84</ele>
        <time>2022-01-27T14:31:27Z</time>
      </trkpt>
      <trkpt lat="47.28253" lon="-1.62544">
        <ele>84</ele>
        <time>2022-01-27T14:31:28Z</time>
      </trkpt>
      <trkpt lat="47.28252" lon="-1.62545">
        <ele>84</ele>
        <time>2022-01-27T14:31:29Z</time>
      </trkpt>
      <trkpt lat="47.28252" lon="-1.62545">
        <ele>84</ele>
        <time>2022-01-27T14:31:30Z</time>
      </trkpt>
      <trkpt lat="47.28251" lon="-1.62546">
        <ele>84</ele>
        <time>2022-01-27T14:31:31Z</time>
      </trkpt>
      <trkpt lat="47.2825" lon="-1.62546">
        <ele>84</ele>
        <time>2022-01-27T14:31:32Z</time>
      </trkpt>
      <trkpt lat="47.2825" lon="-1.62546">
        <ele>84</ele>
        <time>2022-01-27T14:31:33Z</time>
      </trkpt>
      <trkpt lat="47.28249" lon="-1.62547">
        <ele>84</ele>
        <time>2022-01-27T14:31:34Z</time>
      </trkpt>
      <trkpt lat="47.28248" lon="-1.62548">
        <ele>84</ele>
        <time>2022-01-27T14:31:35Z</time>
      </trkpt>
      <trkpt lat="47.28248" lon="-1.62548">
        <ele>83</ele>
        <time>2022-01-27T14:31:36Z</time>
      </trkpt>
      <trkpt lat="47.28247" lon="-1.62548">
        <ele>83</ele>
        <time>2022-01-27T14:31:37Z</time>
      </trkpt>
      <trkpt lat="47.28246" lon="-1.62548">
        <ele>83</ele>
        <time>2022-01-27T14:31:38Z</time>
      </trkpt>
      <trkpt lat="47.28245" lon="-1.62549">
        <ele>83</ele>
        <time>2022-01-27T14:31:39Z</time>
      </trkpt>
      <trkpt lat="47.28244" lon="-1.62549">
        <ele>83</ele>
        <time>2022-01-27T14:31:40Z</time>
      </trkpt>
      <trkpt lat="47.28243" lon="-1.6255">
        <ele>83</ele>
        <time>2022-01-27T14:31:41Z</time>
      </trkpt>
      <trkpt lat="47.28243" lon="-1.6255">
        <ele>83</ele>
        <time>2022-01-27T14:31:42Z</time>
      </trkpt>
      <trkpt lat="47.28242" lon="-1.6255">
        <ele>82</ele>
        <time>2022-01-27T14:31:43Z</time>
      </trkpt>
      <trkpt lat="47.28241" lon="-1.62551">
        <ele>82</ele>
        <time>2022-01-27T14:31:44Z</time>
      </trkpt>
      <trkpt lat="47.28241" lon="-1.62551">
        <ele>82</ele>
        <time>2022-01-27T14:31:45Z</time>
      </trkpt>
      <trkpt lat="47.28239" lon="-1.62552">
        <ele>81</ele>
        <time>2022-01-27T14:31:46Z</time>
      </trkpt>
      <trkpt lat="47.28238" lon="-1.62552">
        <ele>81</ele>
        <time>2022-01-27T14:31:47Z</time>
      </trkpt>
      <trkpt lat="47.28237" lon="-1.62553">
        <ele>81</ele>
        <time>2022-01-27T14:31:48Z</time>
      </trkpt>
      <trkpt lat="47.28236" lon="-1.62553">
        <ele>81</ele>
        <time>2022-01-27T14:31:49Z</time>
      </trkpt>
      <trkpt lat="47.28235" lon="-1.62553">
        <ele>81</ele>
        <time>2022-01-27T14:31:50Z</time>
      </trkpt>
      <trkpt lat="47.28234" lon="-1.62553">
        <ele>80</ele>
        <time>2022-01-27T14:31:51Z</time>
      </trkpt>
      <trkpt lat="47.28233" lon="-1.62554">
        <ele>80</ele>
        <time>2022-01-27T14:31:52Z</time>
      </trkpt>
      <trkpt lat="47.28233" lon="-1.62555">
        <ele>80</ele>
        <time>2022-01-27T14:31:53Z</time>
      </trkpt>
      <trkpt lat="47.28231" lon="-1.62557">
        <ele>80</ele>
        <time>2022-01-27T14:31:54Z</time>
      </trkpt>
      <trkpt lat="47.28231" lon="-1.62558">
        <ele>79</ele>
        <time>2022-01-27T14:31:55Z</time>
      </trkpt>
      <trkpt lat="47.28229" lon="-1.62559">
        <ele>79</ele>
        <time>2022-01-27T14:31:56Z</time>
      </trkpt>
      <trkpt lat="47.28228" lon="-1.62559">
        <ele>79</ele>
        <time>2022-01-27T14:31:57Z</time>
      </trkpt>
      <trkpt lat="47.28227" lon="-1.6256">
        <ele>79</ele>
        <time>2022-01-27T14:31:58Z</time>
      </trkpt>
      <trkpt lat="47.28225" lon="-1.62561">
        <ele>79</ele>
        <time>2022-01-27T14:31:59Z</time>
      </trkpt>
      <trkpt lat="47.28224" lon="-1.62562">
        <ele>79</ele>
        <time>2022-01-27T14:32:00Z</time>
      </trkpt>
      <trkpt lat="47.28223" lon="-1.62562">
        <ele>79</ele>
        <time>2022-01-27T14:32:01Z</time>
      </trkpt>
      <trkpt lat="47.28222" lon="-1.62563">
        <ele>79</ele>
        <time>2022-01-27T14:32:02Z</time>
      </trkpt>
      <trkpt lat="47.28221" lon="-1.62564">
        <ele>79</ele>
        <time>2022-01-27T14:32:03Z</time>
      </trkpt>
      <trkpt lat="47.28219" lon="-1.62564">
        <ele>79</ele>
        <time>2022-01-27T14:32:04Z</time>
      </trkpt>
      <trkpt lat="47.28218" lon="-1.62565">
        <ele>78</ele>
        <time>2022-01-27T14:32:05Z</time>
      </trkpt>
      <trkpt lat="47.28216" lon="-1.62565">
        <ele>78</ele>
        <time>2022-01-27T14:32:06Z</time>
      </trkpt>
      <trkpt lat="47.28215" lon="-1.62566">
        <ele>78</ele>
        <time>2022-01-27T14:32:07Z</time>
      </trkpt>
      <trkpt lat="47.28214" lon="-1.62566">
        <ele>78</ele>
        <time>2022-01-27T14:32:08Z</time>
      </trkpt>
      <trkpt lat="47.28213" lon="-1.62567">
        <ele>78</ele>
        <time>2022-01-27T14:32:09Z</time>
      </trkpt>
      <trkpt lat="47.28212" lon="-1.62567">
        <ele>78</ele>
        <time>2022-01-27T14:32:10Z</time>
      </trkpt>
      <trkpt lat="47.28211" lon="-1.62567">
        <ele>78</ele>
        <time>2022-01-27T14:32:11Z</time>
      </trkpt>
      <trkpt lat="47.2821" lon="-1.62567">
        <ele>78</ele>
        <time>2022-01-27T14:32:12Z</time>
      </trkpt>
      <trkpt lat="47.28209" lon="-1.62567">
        <ele>79</ele>
        <time>2022-01-27T14:32:13Z</time>
      </trkpt>
      <trkpt lat="47.28207" lon="-1.62567">
        <ele>79</ele>
        <time>2022-01-27T14:32:14Z</time>
      </trkpt>
      <trkpt lat="47.28206" lon="-1.62567">
        <ele>79</ele>
        <time>2022-01-27T14:32:15Z</time>
      </trkpt>
      <trkpt lat="47.28205" lon="-1.62568">
        <ele>79</ele>
        <time>2022-01-27T14:32:16Z</time>
      </trkpt>
      <trkpt lat="47.28204" lon="-1.62568">
        <ele>79</ele>
        <time>2022-01-27T14:32:17Z</time>
      </trkpt>
      <trkpt lat="47.28203" lon="-1.6257">
        <ele>79</ele>
        <time>2022-01-27T14:32:18Z</time>
      </trkpt>
      <trkpt lat="47.28202" lon="-1.62571">
        <ele>79</ele>
        <time>2022-01-27T14:32:19Z</time>
      </trkpt>
      <trkpt lat="47.28202" lon="-1.62572">
        <ele>79</ele>
        <time>2022-01-27T14:32:20Z</time>
      </trkpt>
      <trkpt lat="47.28201" lon="-1.62572">
        <ele>79</ele>
        <time>2022-01-27T14:32:21Z</time>
      </trkpt>
      <trkpt lat="47.28201" lon="-1.62572">
        <ele>78</ele>
        <time>2022-01-27T14:32:22Z</time>
      </trkpt>
      <trkpt lat="47.28199" lon="-1.62571">
        <ele>77</ele>
        <time>2022-01-27T14:32:23Z</time>
      </trkpt>
      <trkpt lat="47.28199" lon="-1.6257">
        <ele>77</ele>
        <time>2022-01-27T14:32:24Z</time>
      </trkpt>
      <trkpt lat="47.28198" lon="-1.62569">
        <ele>77</ele>
        <time>2022-01-27T14:32:25Z</time>
      </trkpt>
      <trkpt lat="47.28198" lon="-1.62569">
        <ele>77</ele>
        <time>2022-01-27T14:32:26Z</time>
      </trkpt>
      <trkpt lat="47.28196" lon="-1.62568">
        <ele>77</ele>
        <time>2022-01-27T14:32:27Z</time>
      </trkpt>
      <trkpt lat="47.28195" lon="-1.62568">
        <ele>77</ele>
        <time>2022-01-27T14:32:28Z</time>
      </trkpt>
      <trkpt lat="47.28193" lon="-1.62567">
        <ele>77</ele>
        <time>2022-01-27T14:32:29Z</time>
      </trkpt>
      <trkpt lat="47.28193" lon="-1.62567">
        <ele>77</ele>
        <time>2022-01-27T14:32:30Z</time>
      </trkpt>
      <trkpt lat="47.28191" lon="-1.62567">
        <ele>77</ele>
        <time>2022-01-27T14:32:31Z</time>
      </trkpt>
      <trkpt lat="47.28191" lon="-1.62567">
        <ele>77</ele>
        <time>2022-01-27T14:32:32Z</time>
      </trkpt>
      <trkpt lat="47.2819" lon="-1.62567">
        <ele>76</ele>
        <time>2022-01-27T14:32:33Z</time>
      </trkpt>
      <trkpt lat="47.28189" lon="-1.62566">
        <ele>76</ele>
        <time>2022-01-27T14:32:34Z</time>
      </trkpt>
      <trkpt lat="47.28187" lon="-1.62565">
        <ele>76</ele>
        <time>2022-01-27T14:32:35Z</time>
      </trkpt>
      <trkpt lat="47.28186" lon="-1.62565">
        <ele>76</ele>
        <time>2022-01-27T14:32:36Z</time>
      </trkpt>
      <trkpt lat="47.28184" lon="-1.62565">
        <ele>76</ele>
        <time>2022-01-27T14:32:37Z</time>
      </trkpt>
      <trkpt lat="47.28183" lon="-1.62565">
        <ele>76</ele>
        <time>2022-01-27T14:32:38Z</time>
      </trkpt>
      <trkpt lat="47.28182" lon="-1.62565">
        <ele>76</ele>
        <time>2022-01-27T14:32:39Z</time>
      </trkpt>
      <trkpt lat="47.28181" lon="-1.62565">
        <ele>76</ele>
        <time>2022-01-27T14:32:40Z</time>
      </trkpt>
      <trkpt lat="47.28181" lon="-1.62565">
        <ele>76</ele>
        <time>2022-01-27T14:32:41Z</time>
      </trkpt>
      <trkpt lat="47.28179" lon="-1.62565">
        <ele>75</ele>
        <time>2022-01-27T14:32:42Z</time>
      </trkpt>
      <trkpt lat="47.28178" lon="-1.62564">
        <ele>75</ele>
        <time>2022-01-27T14:32:43Z</time>
      </trkpt>
      <trkpt lat="47.28177" lon="-1.62564">
        <ele>75</ele>
        <time>2022-01-27T14:32:44Z</time>
      </trkpt>
      <trkpt lat="47.28176" lon="-1.62563">
        <ele>75</ele>
        <time>2022-01-27T14:32:45Z</time>
      </trkpt>
      <trkpt lat="47.28174" lon="-1.62562">
        <ele>75</ele>
        <time>2022-01-27T14:32:46Z</time>
      </trkpt>
      <trkpt lat="47.28173" lon="-1.62562">
        <ele>75</ele>
        <time>2022-01-27T14:32:47Z</time>
      </trkpt>
      <trkpt lat="47.28171" lon="-1.62562">
        <ele>75</ele>
        <time>2022-01-27T14:32:48Z</time>
      </trkpt>
      <trkpt lat="47.2817" lon="-1.62561">
        <ele>75</ele>
        <time>2022-01-27T14:32:49Z</time>
      </trkpt>
      <trkpt lat="47.2817" lon="-1.62561">
        <ele>75</ele>
        <time>2022-01-27T14:32:50Z</time>
      </trkpt>
      <trkpt lat="47.28168" lon="-1.6256">
        <ele>75</ele>
        <time>2022-01-27T14:32:51Z</time>
      </trkpt>
      <trkpt lat="47.28166" lon="-1.6256">
        <ele>75</ele>
        <time>2022-01-27T14:32:52Z</time>
      </trkpt>
      <trkpt lat="47.28165" lon="-1.62559">
        <ele>74</ele>
        <time>2022-01-27T14:32:53Z</time>
      </trkpt>
      <trkpt lat="47.28163" lon="-1.62558">
        <ele>74</ele>
        <time>2022-01-27T14:32:54Z</time>
      </trkpt>
      <trkpt lat="47.28162" lon="-1.62558">
        <ele>74</ele>
        <time>2022-01-27T14:32:55Z</time>
      </trkpt>
      <trkpt lat="47.28161" lon="-1.62556">
        <ele>74</ele>
        <time>2022-01-27T14:32:56Z</time>
      </trkpt>
      <trkpt lat="47.2816" lon="-1.62555">
        <ele>74</ele>
        <time>2022-01-27T14:32:57Z</time>
      </trkpt>
      <trkpt lat="47.28159" lon="-1.62554">
        <ele>74</ele>
        <time>2022-01-27T14:32:58Z</time>
      </trkpt>
      <trkpt lat="47.28158" lon="-1.62553">
        <ele>74</ele>
        <time>2022-01-27T14:32:59Z</time>
      </trkpt>
      <trkpt lat="47.28157" lon="-1.62552">
        <ele>74</ele>
        <time>2022-01-27T14:33:00Z</time>
      </trkpt>
      <trkpt lat="47.28156" lon="-1.62551">
        <ele>74</ele>
        <time>2022-01-27T14:33:01Z</time>
      </trkpt>
      <trkpt lat="47.28154" lon="-1.62551">
        <ele>73</ele>
        <time>2022-01-27T14:33:02Z</time>
      </trkpt>
      <trkpt lat="47.28154" lon="-1.6255">
        <ele>73</ele>
        <time>2022-01-27T14:33:03Z</time>
      </trkpt>
      <trkpt lat="47.28153" lon="-1.62549">
        <ele>73</ele>
        <time>2022-01-27T14:33:04Z</time>
      </trkpt>
      <trkpt lat="47.28152" lon="-1.62549">
        <ele>73</ele>
        <time>2022-01-27T14:33:05Z</time>
      </trkpt>
      <trkpt lat="47.28151" lon="-1.62548">
        <ele>73</ele>
        <time>2022-01-27T14:33:06Z</time>
      </trkpt>
      <trkpt lat="47.28149" lon="-1.62548">
        <ele>73</ele>
        <time>2022-01-27T14:33:07Z</time>
      </trkpt>
      <trkpt lat="47.28149" lon="-1.62548">
        <ele>73</ele>
        <time>2022-01-27T14:33:08Z</time>
      </trkpt>
      <trkpt lat="47.28148" lon="-1.62548">
        <ele>73</ele>
        <time>2022-01-27T14:33:09Z</time>
      </trkpt>
      <trkpt lat="47.28146" lon="-1.62547">
        <ele>72</ele>
        <time>2022-01-27T14:33:10Z</time>
      </trkpt>
      <trkpt lat="47.28145" lon="-1.62547">
        <ele>72</ele>
        <time>2022-01-27T14:33:11Z</time>
      </trkpt>
      <trkpt lat="47.28143" lon="-1.62547">
        <ele>72</ele>
        <time>2022-01-27T14:33:12Z</time>
      </trkpt>
      <trkpt lat="47.28142" lon="-1.62546">
        <ele>72</ele>
        <time>2022-01-27T14:33:13Z</time>
      </trkpt>
      <trkpt lat="47.28141" lon="-1.62546">
        <ele>71</ele>
        <time>2022-01-27T14:33:14Z</time>
      </trkpt>
      <trkpt lat="47.2814" lon="-1.62545">
        <ele>71</ele>
        <time>2022-01-27T14:33:15Z</time>
      </trkpt>
      <trkpt lat="47.28138" lon="-1.62545">
        <ele>71</ele>
        <time>2022-01-27T14:33:16Z</time>
      </trkpt>
      <trkpt lat="47.28137" lon="-1.62544">
        <ele>71</ele>
        <time>2022-01-27T14:33:17Z</time>
      </trkpt>
      <trkpt lat="47.28136" lon="-1.62544">
        <ele>71</ele>
        <time>2022-01-27T14:33:18Z</time>
      </trkpt>
      <trkpt lat="47.28135" lon="-1.62544">
        <ele>71</ele>
        <time>2022-01-27T14:33:19Z</time>
      </trkpt>
      <trkpt lat="47.28133" lon="-1.62543">
        <ele>71</ele>
        <time>2022-01-27T14:33:20Z</time>
      </trkpt>
      <trkpt lat="47.28132" lon="-1.62542">
        <ele>71</ele>
        <time>2022-01-27T14:33:21Z</time>
      </trkpt>
      <trkpt lat="47.2813" lon="-1.62541">
        <ele>71</ele>
        <time>2022-01-27T14:33:22Z</time>
      </trkpt>
      <trkpt lat="47.2813" lon="-1.6254">
        <ele>71</ele>
        <time>2022-01-27T14:33:23Z</time>
      </trkpt>
      <trkpt lat="47.28129" lon="-1.6254">
        <ele>71</ele>
        <time>2022-01-27T14:33:24Z</time>
      </trkpt>
      <trkpt lat="47.28127" lon="-1.62539">
        <ele>71</ele>
        <time>2022-01-27T14:33:25Z</time>
      </trkpt>
      <trkpt lat="47.28126" lon="-1.62539">
        <ele>71</ele>
        <time>2022-01-27T14:33:26Z</time>
      </trkpt>
      <trkpt lat="47.28125" lon="-1.62538">
        <ele>71</ele>
        <time>2022-01-27T14:33:27Z</time>
      </trkpt>
      <trkpt lat="47.28125" lon="-1.62538">
        <ele>71</ele>
        <time>2022-01-27T14:33:28Z</time>
      </trkpt>
      <trkpt lat="47.28124" lon="-1.62538">
        <ele>71</ele>
        <time>2022-01-27T14:33:29Z</time>
      </trkpt>
      <trkpt lat="47.28124" lon="-1.62538">
        <ele>71</ele>
        <time>2022-01-27T14:33:30Z</time>
      </trkpt>
      <trkpt lat="47.28124" lon="-1.62538">
        <ele>71</ele>
        <time>2022-01-27T14:33:31Z</time>
      </trkpt>
      <trkpt lat="47.28121" lon="-1.62538">
        <ele>70</ele>
        <time>2022-01-27T14:33:32Z</time>
      </trkpt>
      <trkpt lat="47.2812" lon="-1.62537">
        <ele>70</ele>
        <time>2022-01-27T14:33:33Z</time>
      </trkpt>
      <trkpt lat="47.28119" lon="-1.62537">
        <ele>70</ele>
        <time>2022-01-27T14:33:34Z</time>
      </trkpt>
      <trkpt lat="47.28118" lon="-1.62537">
        <ele>70</ele>
        <time>2022-01-27T14:33:35Z</time>
      </trkpt>
      <trkpt lat="47.28117" lon="-1.62537">
        <ele>70</ele>
        <time>2022-01-27T14:33:36Z</time>
      </trkpt>
      <trkpt lat="47.28117" lon="-1.62537">
        <ele>70</ele>
        <time>2022-01-27T14:33:37Z</time>
      </trkpt>
      <trkpt lat="47.28117" lon="-1.62537">
        <ele>70</ele>
        <time>2022-01-27T14:33:38Z</time>
      </trkpt>
      <trkpt lat="47.28115" lon="-1.62537">
        <ele>71</ele>
        <time>2022-01-27T14:33:39Z</time>
      </trkpt>
      <trkpt lat="47.28114" lon="-1.62537">
        <ele>71</ele>
        <time>2022-01-27T14:33:40Z</time>
      </trkpt>
      <trkpt lat="47.28114" lon="-1.62537">
        <ele>72</ele>
        <time>2022-01-27T14:33:41Z</time>
      </trkpt>
      <trkpt lat="47.28113" lon="-1.62537">
        <ele>73</ele>
        <time>2022-01-27T14:33:42Z</time>
      </trkpt>
      <trkpt lat="47.28113" lon="-1.62537">
        <ele>75</ele>
        <time>2022-01-27T14:33:43Z</time>
      </trkpt>
      <trkpt lat="47.28113" lon="-1.62537">
        <ele>75</ele>
        <time>2022-01-27T14:33:43Z</time>
      </trkpt>
      <trkpt lat="47.28113" lon="-1.62537">
        <ele>75</ele>
        <time>2022-01-27T14:33:43Z</time>
      </trkpt>
      <trkpt lat="47.28103" lon="-1.62536">
        <ele>79</ele>
        <time>2022-01-27T14:33:56Z</time>
      </trkpt>
      <trkpt lat="47.28102" lon="-1.62536">
        <ele>79</ele>
        <time>2022-01-27T14:33:57Z</time>
      </trkpt>
      <trkpt lat="47.281" lon="-1.62535">
        <ele>79</ele>
        <time>2022-01-27T14:33:58Z</time>
      </trkpt>
      <trkpt lat="47.28099" lon="-1.62535">
        <ele>79</ele>
        <time>2022-01-27T14:33:59Z</time>
      </trkpt>
      <trkpt lat="47.28097" lon="-1.62533">
        <ele>80</ele>
        <time>2022-01-27T14:34:00Z</time>
      </trkpt>
      <trkpt lat="47.28095" lon="-1.62532">
        <ele>80</ele>
        <time>2022-01-27T14:34:01Z</time>
      </trkpt>
      <trkpt lat="47.28094" lon="-1.62532">
        <ele>80</ele>
        <time>2022-01-27T14:34:02Z</time>
      </trkpt>
      <trkpt lat="47.28093" lon="-1.62531">
        <ele>80</ele>
        <time>2022-01-27T14:34:03Z</time>
      </trkpt>
      <trkpt lat="47.28092" lon="-1.6253">
        <ele>80</ele>
        <time>2022-01-27T14:34:04Z</time>
      </trkpt>
      <trkpt lat="47.28091" lon="-1.6253">
        <ele>81</ele>
        <time>2022-01-27T14:34:05Z</time>
      </trkpt>
      <trkpt lat="47.2809" lon="-1.62529">
        <ele>81</ele>
        <time>2022-01-27T14:34:06Z</time>
      </trkpt>
      <trkpt lat="47.28088" lon="-1.62529">
        <ele>81</ele>
        <time>2022-01-27T14:34:07Z</time>
      </trkpt>
      <trkpt lat="47.28087" lon="-1.62528">
        <ele>81</ele>
        <time>2022-01-27T14:34:08Z</time>
      </trkpt>
      <trkpt lat="47.28085" lon="-1.62528">
        <ele>81</ele>
        <time>2022-01-27T14:34:09Z</time>
      </trkpt>
      <trkpt lat="47.28084" lon="-1.62527">
        <ele>81</ele>
        <time>2022-01-27T14:34:10Z</time>
      </trkpt>
      <trkpt lat="47.28082" lon="-1.62527">
        <ele>81</ele>
        <time>2022-01-27T14:34:11Z</time>
      </trkpt>
      <trkpt lat="47.28082" lon="-1.62527">
        <ele>81</ele>
        <time>2022-01-27T14:34:11Z</time>
      </trkpt>
      <trkpt lat="47.28079" lon="-1.62527">
        <ele>82</ele>
        <time>2022-01-27T14:34:13Z</time>
      </trkpt>
      <trkpt lat="47.28079" lon="-1.62527">
        <ele>82</ele>
        <time>2022-01-27T14:34:13Z</time>
      </trkpt>
      <trkpt lat="47.28077" lon="-1.62527">
        <ele>82</ele>
        <time>2022-01-27T14:34:15Z</time>
      </trkpt>
      <trkpt lat="47.28075" lon="-1.62527">
        <ele>82</ele>
        <time>2022-01-27T14:34:16Z</time>
      </trkpt>
      <trkpt lat="47.28075" lon="-1.62526">
        <ele>83</ele>
        <time>2022-01-27T14:34:17Z</time>
      </trkpt>
      <trkpt lat="47.28074" lon="-1.62526">
        <ele>83</ele>
        <time>2022-01-27T14:34:18Z</time>
      </trkpt>
      <trkpt lat="47.28072" lon="-1.62526">
        <ele>83</ele>
        <time>2022-01-27T14:34:19Z</time>
      </trkpt>
      <trkpt lat="47.2807" lon="-1.62526">
        <ele>83</ele>
        <time>2022-01-27T14:34:20Z</time>
      </trkpt>
      <trkpt lat="47.28069" lon="-1.62526">
        <ele>83</ele>
        <time>2022-01-27T14:34:21Z</time>
      </trkpt>
      <trkpt lat="47.28067" lon="-1.62526">
        <ele>82</ele>
        <time>2022-01-27T14:34:22Z</time>
      </trkpt>
      <trkpt lat="47.28066" lon="-1.62526">
        <ele>82</ele>
        <time>2022-01-27T14:34:23Z</time>
      </trkpt>
      <trkpt lat="47.28065" lon="-1.62526">
        <ele>82</ele>
        <time>2022-01-27T14:34:24Z</time>
      </trkpt>
      <trkpt lat="47.28064" lon="-1.62526">
        <ele>83</ele>
        <time>2022-01-27T14:34:25Z</time>
      </trkpt>
      <trkpt lat="47.28063" lon="-1.62525">
        <ele>83</ele>
        <time>2022-01-27T14:34:26Z</time>
      </trkpt>
      <trkpt lat="47.28062" lon="-1.62525">
        <ele>83</ele>
        <time>2022-01-27T14:34:27Z</time>
      </trkpt>
      <trkpt lat="47.28059" lon="-1.62525">
        <ele>83</ele>
        <time>2022-01-27T14:34:28Z</time>
      </trkpt>
      <trkpt lat="47.28059" lon="-1.62525">
        <ele>83</ele>
        <time>2022-01-27T14:34:28Z</time>
      </trkpt>
      <trkpt lat="47.28058" lon="-1.62525">
        <ele>83</ele>
        <time>2022-01-27T14:34:30Z</time>
      </trkpt>
      <trkpt lat="47.28057" lon="-1.62525">
        <ele>83</ele>
        <time>2022-01-27T14:34:31Z</time>
      </trkpt>
      <trkpt lat="47.28056" lon="-1.62525">
        <ele>83</ele>
        <time>2022-01-27T14:34:32Z</time>
      </trkpt>
      <trkpt lat="47.28054" lon="-1.62524">
        <ele>83</ele>
        <time>2022-01-27T14:34:33Z</time>
      </trkpt>
      <trkpt lat="47.28053" lon="-1.62524">
        <ele>83</ele>
        <time>2022-01-27T14:34:34Z</time>
      </trkpt>
      <trkpt lat="47.28051" lon="-1.62524">
        <ele>83</ele>
        <time>2022-01-27T14:34:35Z</time>
      </trkpt>
      <trkpt lat="47.28048" lon="-1.62524">
        <ele>83</ele>
        <time>2022-01-27T14:34:36Z</time>
      </trkpt>
      <trkpt lat="47.28048" lon="-1.62524">
        <ele>83</ele>
        <time>2022-01-27T14:34:36Z</time>
      </trkpt>
      <trkpt lat="47.28046" lon="-1.62523">
        <ele>83</ele>
        <time>2022-01-27T14:34:38Z</time>
      </trkpt>
      <trkpt lat="47.28045" lon="-1.62523">
        <ele>83</ele>
        <time>2022-01-27T14:34:40Z</time>
      </trkpt>
      <trkpt lat="47.28043" lon="-1.62523">
        <ele>83</ele>
        <time>2022-01-27T14:34:40Z</time>
      </trkpt>
      <trkpt lat="47.28042" lon="-1.62523">
        <ele>83</ele>
        <time>2022-01-27T14:34:42Z</time>
      </trkpt>
      <trkpt lat="47.2804" lon="-1.62523">
        <ele>84</ele>
        <time>2022-01-27T14:34:43Z</time>
      </trkpt>
      <trkpt lat="47.28038" lon="-1.62522">
        <ele>84</ele>
        <time>2022-01-27T14:34:43Z</time>
      </trkpt>
      <trkpt lat="47.28037" lon="-1.62522">
        <ele>84</ele>
        <time>2022-01-27T14:34:45Z</time>
      </trkpt>
      <trkpt lat="47.28036" lon="-1.62523">
        <ele>84</ele>
        <time>2022-01-27T14:34:46Z</time>
      </trkpt>
      <trkpt lat="47.28033" lon="-1.62522">
        <ele>85</ele>
        <time>2022-01-27T14:34:47Z</time>
      </trkpt>
      <trkpt lat="47.28033" lon="-1.62522">
        <ele>85</ele>
        <time>2022-01-27T14:34:47Z</time>
      </trkpt>
      <trkpt lat="47.28031" lon="-1.62522">
        <ele>85</ele>
        <time>2022-01-27T14:34:49Z</time>
      </trkpt>
      <trkpt lat="47.2803" lon="-1.62522">
        <ele>86</ele>
        <time>2022-01-27T14:34:50Z</time>
      </trkpt>
      <trkpt lat="47.28029" lon="-1.62522">
        <ele>86</ele>
        <time>2022-01-27T14:34:51Z</time>
      </trkpt>
      <trkpt lat="47.28027" lon="-1.62522">
        <ele>86</ele>
        <time>2022-01-27T14:34:52Z</time>
      </trkpt>
      <trkpt lat="47.28027" lon="-1.62522">
        <ele>86</ele>
        <time>2022-01-27T14:34:53Z</time>
      </trkpt>
      <trkpt lat="47.28025" lon="-1.62522">
        <ele>87</ele>
        <time>2022-01-27T14:34:54Z</time>
      </trkpt>
      <trkpt lat="47.28024" lon="-1.62521">
        <ele>87</ele>
        <time>2022-01-27T14:34:55Z</time>
      </trkpt>
      <trkpt lat="47.28022" lon="-1.62522">
        <ele>87</ele>
        <time>2022-01-27T14:34:56Z</time>
      </trkpt>
      <trkpt lat="47.28021" lon="-1.62522">
        <ele>87</ele>
        <time>2022-01-27T14:34:57Z</time>
      </trkpt>
      <trkpt lat="47.28018" lon="-1.62521">
        <ele>88</ele>
        <time>2022-01-27T14:34:58Z</time>
      </trkpt>
      <trkpt lat="47.28018" lon="-1.62521">
        <ele>88</ele>
        <time>2022-01-27T14:34:58Z</time>
      </trkpt>
      <trkpt lat="47.28015" lon="-1.62521">
        <ele>89</ele>
        <time>2022-01-27T14:35:00Z</time>
      </trkpt>
      <trkpt lat="47.28013" lon="-1.62521">
        <ele>89</ele>
        <time>2022-01-27T14:35:01Z</time>
      </trkpt>
      <trkpt lat="47.28013" lon="-1.62521">
        <ele>89</ele>
        <time>2022-01-27T14:35:01Z</time>
      </trkpt>
      <trkpt lat="47.28012" lon="-1.62521">
        <ele>89</ele>
        <time>2022-01-27T14:35:03Z</time>
      </trkpt>
      <trkpt lat="47.28011" lon="-1.6252">
        <ele>89</ele>
        <time>2022-01-27T14:35:04Z</time>
      </trkpt>
      <trkpt lat="47.28009" lon="-1.62518">
        <ele>89</ele>
        <time>2022-01-27T14:35:05Z</time>
      </trkpt>
      <trkpt lat="47.28007" lon="-1.62518">
        <ele>88</ele>
        <time>2022-01-27T14:35:06Z</time>
      </trkpt>
      <trkpt lat="47.28007" lon="-1.62518">
        <ele>88</ele>
        <time>2022-01-27T14:35:06Z</time>
      </trkpt>
      <trkpt lat="47.28006" lon="-1.62517">
        <ele>88</ele>
        <time>2022-01-27T14:35:08Z</time>
      </trkpt>
      <trkpt lat="47.28005" lon="-1.62517">
        <ele>88</ele>
        <time>2022-01-27T14:35:09Z</time>
      </trkpt>
      <trkpt lat="47.28003" lon="-1.62517">
        <ele>88</ele>
        <time>2022-01-27T14:35:10Z</time>
      </trkpt>
      <trkpt lat="47.28001" lon="-1.62516">
        <ele>88</ele>
        <time>2022-01-27T14:35:11Z</time>
      </trkpt>
      <trkpt lat="47.28001" lon="-1.62515">
        <ele>88</ele>
        <time>2022-01-27T14:35:12Z</time>
      </trkpt>
      <trkpt lat="47.28" lon="-1.62515">
        <ele>88</ele>
        <time>2022-01-27T14:35:13Z</time>
      </trkpt>
      <trkpt lat="47.27997" lon="-1.62514">
        <ele>88</ele>
        <time>2022-01-27T14:35:14Z</time>
      </trkpt>
      <trkpt lat="47.27995" lon="-1.62514">
        <ele>89</ele>
        <time>2022-01-27T14:35:15Z</time>
      </trkpt>
      <trkpt lat="47.27995" lon="-1.62514">
        <ele>89</ele>
        <time>2022-01-27T14:35:15Z</time>
      </trkpt>
      <trkpt lat="47.27993" lon="-1.62514">
        <ele>89</ele>
        <time>2022-01-27T14:35:17Z</time>
      </trkpt>
      <trkpt lat="47.27992" lon="-1.62513">
        <ele>88</ele>
        <time>2022-01-27T14:35:18Z</time>
      </trkpt>
      <trkpt lat="47.27992" lon="-1.62513">
        <ele>88</ele>
        <time>2022-01-27T14:35:18Z</time>
      </trkpt>
      <trkpt lat="47.27991" lon="-1.62513">
        <ele>88</ele>
        <time>2022-01-27T14:35:20Z</time>
      </trkpt>
      <trkpt lat="47.27988" lon="-1.62512">
        <ele>89</ele>
        <time>2022-01-27T14:35:21Z</time>
      </trkpt>
      <trkpt lat="47.27988" lon="-1.62512">
        <ele>89</ele>
        <time>2022-01-27T14:35:21Z</time>
      </trkpt>
      <trkpt lat="47.27986" lon="-1.62511">
        <ele>89</ele>
        <time>2022-01-27T14:35:23Z</time>
      </trkpt>
      <trkpt lat="47.27984" lon="-1.6251">
        <ele>89</ele>
        <time>2022-01-27T14:35:24Z</time>
      </trkpt>
      <trkpt lat="47.27984" lon="-1.6251">
        <ele>89</ele>
        <time>2022-01-27T14:35:24Z</time>
      </trkpt>
      <trkpt lat="47.27981" lon="-1.62508">
        <ele>90</ele>
        <time>2022-01-27T14:35:26Z</time>
      </trkpt>
      <trkpt lat="47.27981" lon="-1.62508">
        <ele>90</ele>
        <time>2022-01-27T14:35:26Z</time>
      </trkpt>
      <trkpt lat="47.27979" lon="-1.62507">
        <ele>90</ele>
        <time>2022-01-27T14:35:28Z</time>
      </trkpt>
      <trkpt lat="47.27977" lon="-1.62506">
        <ele>90</ele>
        <time>2022-01-27T14:35:29Z</time>
      </trkpt>
      <trkpt lat="47.27976" lon="-1.62505">
        <ele>90</ele>
        <time>2022-01-27T14:35:30Z</time>
      </trkpt>
      <trkpt lat="47.27975" lon="-1.62503">
        <ele>89</ele>
        <time>2022-01-27T14:35:31Z</time>
      </trkpt>
      <trkpt lat="47.27974" lon="-1.62502">
        <ele>89</ele>
        <time>2022-01-27T14:35:32Z</time>
      </trkpt>
      <trkpt lat="47.27972" lon="-1.62501">
        <ele>89</ele>
        <time>2022-01-27T14:35:33Z</time>
      </trkpt>
      <trkpt lat="47.27971" lon="-1.625">
        <ele>89</ele>
        <time>2022-01-27T14:35:34Z</time>
      </trkpt>
      <trkpt lat="47.2797" lon="-1.62498">
        <ele>89</ele>
        <time>2022-01-27T14:35:35Z</time>
      </trkpt>
      <trkpt lat="47.27969" lon="-1.62496">
        <ele>88</ele>
        <time>2022-01-27T14:35:36Z</time>
      </trkpt>
      <trkpt lat="47.27969" lon="-1.62496">
        <ele>88</ele>
        <time>2022-01-27T14:35:36Z</time>
      </trkpt>
      <trkpt lat="47.27968" lon="-1.62493">
        <ele>88</ele>
        <time>2022-01-27T14:35:38Z</time>
      </trkpt>
      <trkpt lat="47.27968" lon="-1.62493">
        <ele>88</ele>
        <time>2022-01-27T14:35:38Z</time>
      </trkpt>
      <trkpt lat="47.27967" lon="-1.6249">
        <ele>88</ele>
        <time>2022-01-27T14:35:40Z</time>
      </trkpt>
      <trkpt lat="47.27966" lon="-1.62489">
        <ele>88</ele>
        <time>2022-01-27T14:35:41Z</time>
      </trkpt>
      <trkpt lat="47.27966" lon="-1.62487">
        <ele>87</ele>
        <time>2022-01-27T14:35:42Z</time>
      </trkpt>
      <trkpt lat="47.27966" lon="-1.62485">
        <ele>87</ele>
        <time>2022-01-27T14:35:43Z</time>
      </trkpt>
      <trkpt lat="47.27965" lon="-1.62484">
        <ele>87</ele>
        <time>2022-01-27T14:35:44Z</time>
      </trkpt>
      <trkpt lat="47.27964" lon="-1.62482">
        <ele>87</ele>
        <time>2022-01-27T14:35:45Z</time>
      </trkpt>
      <trkpt lat="47.27964" lon="-1.62481">
        <ele>87</ele>
        <time>2022-01-27T14:35:46Z</time>
      </trkpt>
      <trkpt lat="47.27963" lon="-1.62479">
        <ele>87</ele>
        <time>2022-01-27T14:35:47Z</time>
      </trkpt>
      <trkpt lat="47.27962" lon="-1.62477">
        <ele>87</ele>
        <time>2022-01-27T14:35:48Z</time>
      </trkpt>
      <trkpt lat="47.27961" lon="-1.62476">
        <ele>87</ele>
        <time>2022-01-27T14:35:49Z</time>
      </trkpt>
      <trkpt lat="47.2796" lon="-1.62474">
        <ele>87</ele>
        <time>2022-01-27T14:35:50Z</time>
      </trkpt>
      <trkpt lat="47.27959" lon="-1.62473">
        <ele>87</ele>
        <time>2022-01-27T14:35:51Z</time>
      </trkpt>
      <trkpt lat="47.27959" lon="-1.62471">
        <ele>87</ele>
        <time>2022-01-27T14:35:52Z</time>
      </trkpt>
      <trkpt lat="47.27958" lon="-1.6247">
        <ele>86</ele>
        <time>2022-01-27T14:35:53Z</time>
      </trkpt>
      <trkpt lat="47.27957" lon="-1.62468">
        <ele>86</ele>
        <time>2022-01-27T14:35:54Z</time>
      </trkpt>
      <trkpt lat="47.27956" lon="-1.62467">
        <ele>86</ele>
        <time>2022-01-27T14:35:55Z</time>
      </trkpt>
      <trkpt lat="47.27956" lon="-1.62466">
        <ele>85</ele>
        <time>2022-01-27T14:35:56Z</time>
      </trkpt>
      <trkpt lat="47.27955" lon="-1.62464">
        <ele>85</ele>
        <time>2022-01-27T14:35:57Z</time>
      </trkpt>
      <trkpt lat="47.27955" lon="-1.62463">
        <ele>85</ele>
        <time>2022-01-27T14:35:58Z</time>
      </trkpt>
      <trkpt lat="47.27954" lon="-1.62461">
        <ele>85</ele>
        <time>2022-01-27T14:35:59Z</time>
      </trkpt>
      <trkpt lat="47.27953" lon="-1.6246">
        <ele>85</ele>
        <time>2022-01-27T14:36:00Z</time>
      </trkpt>
      <trkpt lat="47.27952" lon="-1.62459">
        <ele>84</ele>
        <time>2022-01-27T14:36:01Z</time>
      </trkpt>
      <trkpt lat="47.27951" lon="-1.62457">
        <ele>84</ele>
        <time>2022-01-27T14:36:02Z</time>
      </trkpt>
      <trkpt lat="47.27951" lon="-1.62457">
        <ele>84</ele>
        <time>2022-01-27T14:36:03Z</time>
      </trkpt>
      <trkpt lat="47.2795" lon="-1.62455">
        <ele>84</ele>
        <time>2022-01-27T14:36:04Z</time>
      </trkpt>
      <trkpt lat="47.27948" lon="-1.62454">
        <ele>84</ele>
        <time>2022-01-27T14:36:05Z</time>
      </trkpt>
      <trkpt lat="47.27947" lon="-1.62454">
        <ele>84</ele>
        <time>2022-01-27T14:36:06Z</time>
      </trkpt>
      <trkpt lat="47.27946" lon="-1.62453">
        <ele>84</ele>
        <time>2022-01-27T14:36:07Z</time>
      </trkpt>
      <trkpt lat="47.27945" lon="-1.62453">
        <ele>84</ele>
        <time>2022-01-27T14:36:08Z</time>
      </trkpt>
      <trkpt lat="47.27943" lon="-1.62452">
        <ele>84</ele>
        <time>2022-01-27T14:36:09Z</time>
      </trkpt>
      <trkpt lat="47.27942" lon="-1.62452">
        <ele>84</ele>
        <time>2022-01-27T14:36:10Z</time>
      </trkpt>
      <trkpt lat="47.2794" lon="-1.62451">
        <ele>84</ele>
        <time>2022-01-27T14:36:11Z</time>
      </trkpt>
      <trkpt lat="47.27939" lon="-1.6245">
        <ele>84</ele>
        <time>2022-01-27T14:36:12Z</time>
      </trkpt>
      <trkpt lat="47.27939" lon="-1.6245">
        <ele>84</ele>
        <time>2022-01-27T14:36:13Z</time>
      </trkpt>
      <trkpt lat="47.27937" lon="-1.6245">
        <ele>83</ele>
        <time>2022-01-27T14:36:14Z</time>
      </trkpt>
      <trkpt lat="47.27937" lon="-1.6245">
        <ele>84</ele>
        <time>2022-01-27T14:36:15Z</time>
      </trkpt>
      <trkpt lat="47.27935" lon="-1.6245">
        <ele>84</ele>
        <time>2022-01-27T14:36:16Z</time>
      </trkpt>
      <trkpt lat="47.27934" lon="-1.6245">
        <ele>84</ele>
        <time>2022-01-27T14:36:17Z</time>
      </trkpt>
      <trkpt lat="47.27933" lon="-1.62449">
        <ele>84</ele>
        <time>2022-01-27T14:36:18Z</time>
      </trkpt>
      <trkpt lat="47.27932" lon="-1.62448">
        <ele>83</ele>
        <time>2022-01-27T14:36:19Z</time>
      </trkpt>
      <trkpt lat="47.27931" lon="-1.62448">
        <ele>83</ele>
        <time>2022-01-27T14:36:20Z</time>
      </trkpt>
      <trkpt lat="47.2793" lon="-1.62448">
        <ele>83</ele>
        <time>2022-01-27T14:36:21Z</time>
      </trkpt>
      <trkpt lat="47.27929" lon="-1.62448">
        <ele>83</ele>
        <time>2022-01-27T14:36:22Z</time>
      </trkpt>
      <trkpt lat="47.27927" lon="-1.62448">
        <ele>83</ele>
        <time>2022-01-27T14:36:23Z</time>
      </trkpt>
      <trkpt lat="47.27926" lon="-1.62448">
        <ele>83</ele>
        <time>2022-01-27T14:36:24Z</time>
      </trkpt>
      <trkpt lat="47.27925" lon="-1.62447">
        <ele>83</ele>
        <time>2022-01-27T14:36:25Z</time>
      </trkpt>
      <trkpt lat="47.27923" lon="-1.62447">
        <ele>83</ele>
        <time>2022-01-27T14:36:26Z</time>
      </trkpt>
      <trkpt lat="47.27922" lon="-1.62446">
        <ele>82</ele>
        <time>2022-01-27T14:36:27Z</time>
      </trkpt>
      <trkpt lat="47.27921" lon="-1.62445">
        <ele>82</ele>
        <time>2022-01-27T14:36:28Z</time>
      </trkpt>
      <trkpt lat="47.27919" lon="-1.62445">
        <ele>82</ele>
        <time>2022-01-27T14:36:29Z</time>
      </trkpt>
      <trkpt lat="47.27918" lon="-1.62444">
        <ele>82</ele>
        <time>2022-01-27T14:36:30Z</time>
      </trkpt>
      <trkpt lat="47.27916" lon="-1.62444">
        <ele>82</ele>
        <time>2022-01-27T14:36:31Z</time>
      </trkpt>
      <trkpt lat="47.27915" lon="-1.62444">
        <ele>82</ele>
        <time>2022-01-27T14:36:32Z</time>
      </trkpt>
      <trkpt lat="47.27913" lon="-1.62444">
        <ele>81</ele>
        <time>2022-01-27T14:36:33Z</time>
      </trkpt>
      <trkpt lat="47.27911" lon="-1.62443">
        <ele>81</ele>
        <time>2022-01-27T14:36:34Z</time>
      </trkpt>
      <trkpt lat="47.2791" lon="-1.62443">
        <ele>81</ele>
        <time>2022-01-27T14:36:35Z</time>
      </trkpt>
      <trkpt lat="47.27909" lon="-1.62442">
        <ele>81</ele>
        <time>2022-01-27T14:36:36Z</time>
      </trkpt>
      <trkpt lat="47.27907" lon="-1.62442">
        <ele>81</ele>
        <time>2022-01-27T14:36:37Z</time>
      </trkpt>
      <trkpt lat="47.27906" lon="-1.62441">
        <ele>81</ele>
        <time>2022-01-27T14:36:38Z</time>
      </trkpt>
      <trkpt lat="47.27904" lon="-1.6244">
        <ele>80</ele>
        <time>2022-01-27T14:36:39Z</time>
      </trkpt>
      <trkpt lat="47.27903" lon="-1.6244">
        <ele>80</ele>
        <time>2022-01-27T14:36:40Z</time>
      </trkpt>
      <trkpt lat="47.27901" lon="-1.62439">
        <ele>80</ele>
        <time>2022-01-27T14:36:41Z</time>
      </trkpt>
      <trkpt lat="47.279" lon="-1.62438">
        <ele>80</ele>
        <time>2022-01-27T14:36:42Z</time>
      </trkpt>
      <trkpt lat="47.27898" lon="-1.62437">
        <ele>80</ele>
        <time>2022-01-27T14:36:43Z</time>
      </trkpt>
      <trkpt lat="47.27897" lon="-1.62437">
        <ele>81</ele>
        <time>2022-01-27T14:36:44Z</time>
      </trkpt>
      <trkpt lat="47.27895" lon="-1.62436">
        <ele>81</ele>
        <time>2022-01-27T14:36:45Z</time>
      </trkpt>
      <trkpt lat="47.27893" lon="-1.62436">
        <ele>81</ele>
        <time>2022-01-27T14:36:46Z</time>
      </trkpt>
      <trkpt lat="47.27892" lon="-1.62435">
        <ele>81</ele>
        <time>2022-01-27T14:36:47Z</time>
      </trkpt>
      <trkpt lat="47.2789" lon="-1.62433">
        <ele>81</ele>
        <time>2022-01-27T14:36:48Z</time>
      </trkpt>
      <trkpt lat="47.27889" lon="-1.62432">
        <ele>81</ele>
        <time>2022-01-27T14:36:49Z</time>
      </trkpt>
      <trkpt lat="47.27887" lon="-1.62431">
        <ele>81</ele>
        <time>2022-01-27T14:36:50Z</time>
      </trkpt>
      <trkpt lat="47.27886" lon="-1.6243">
        <ele>82</ele>
        <time>2022-01-27T14:36:51Z</time>
      </trkpt>
      <trkpt lat="47.27885" lon="-1.62429">
        <ele>82</ele>
        <time>2022-01-27T14:36:52Z</time>
      </trkpt>
      <trkpt lat="47.27884" lon="-1.62427">
        <ele>82</ele>
        <time>2022-01-27T14:36:53Z</time>
      </trkpt>
      <trkpt lat="47.27882" lon="-1.62427">
        <ele>82</ele>
        <time>2022-01-27T14:36:54Z</time>
      </trkpt>
      <trkpt lat="47.27881" lon="-1.62426">
        <ele>82</ele>
        <time>2022-01-27T14:36:55Z</time>
      </trkpt>
      <trkpt lat="47.27879" lon="-1.62426">
        <ele>82</ele>
        <time>2022-01-27T14:36:56Z</time>
      </trkpt>
      <trkpt lat="47.27877" lon="-1.62425">
        <ele>82</ele>
        <time>2022-01-27T14:36:57Z</time>
      </trkpt>
      <trkpt lat="47.27876" lon="-1.62424">
        <ele>82</ele>
        <time>2022-01-27T14:36:58Z</time>
      </trkpt>
      <trkpt lat="47.27874" lon="-1.62422">
        <ele>82</ele>
        <time>2022-01-27T14:36:59Z</time>
      </trkpt>
      <trkpt lat="47.27873" lon="-1.62421">
        <ele>82</ele>
        <time>2022-01-27T14:37:00Z</time>
      </trkpt>
      <trkpt lat="47.27872" lon="-1.6242">
        <ele>81</ele>
        <time>2022-01-27T14:37:01Z</time>
      </trkpt>
      <trkpt lat="47.27871" lon="-1.62418">
        <ele>80</ele>
        <time>2022-01-27T14:37:02Z</time>
      </trkpt>
      <trkpt lat="47.2787" lon="-1.62417">
        <ele>81</ele>
        <time>2022-01-27T14:37:03Z</time>
      </trkpt>
      <trkpt lat="47.27869" lon="-1.62416">
        <ele>81</ele>
        <time>2022-01-27T14:37:04Z</time>
      </trkpt>
      <trkpt lat="47.27868" lon="-1.62415">
        <ele>81</ele>
        <time>2022-01-27T14:37:05Z</time>
      </trkpt>
      <trkpt lat="47.27866" lon="-1.62414">
        <ele>81</ele>
        <time>2022-01-27T14:37:06Z</time>
      </trkpt>
      <trkpt lat="47.27865" lon="-1.62414">
        <ele>81</ele>
        <time>2022-01-27T14:37:07Z</time>
      </trkpt>
      <trkpt lat="47.27864" lon="-1.62414">
        <ele>81</ele>
        <time>2022-01-27T14:37:08Z</time>
      </trkpt>
      <trkpt lat="47.27863" lon="-1.62414">
        <ele>82</ele>
        <time>2022-01-27T14:37:09Z</time>
      </trkpt>
      <trkpt lat="47.27861" lon="-1.62414">
        <ele>82</ele>
        <time>2022-01-27T14:37:10Z</time>
      </trkpt>
      <trkpt lat="47.2786" lon="-1.62414">
        <ele>82</ele>
        <time>2022-01-27T14:37:11Z</time>
      </trkpt>
      <trkpt lat="47.27859" lon="-1.62414">
        <ele>82</ele>
        <time>2022-01-27T14:37:12Z</time>
      </trkpt>
      <trkpt lat="47.27858" lon="-1.62414">
        <ele>82</ele>
        <time>2022-01-27T14:37:13Z</time>
      </trkpt>
      <trkpt lat="47.27857" lon="-1.62414">
        <ele>82</ele>
        <time>2022-01-27T14:37:14Z</time>
      </trkpt>
      <trkpt lat="47.27856" lon="-1.62413">
        <ele>82</ele>
        <time>2022-01-27T14:37:15Z</time>
      </trkpt>
      <trkpt lat="47.27855" lon="-1.62413">
        <ele>82</ele>
        <time>2022-01-27T14:37:16Z</time>
      </trkpt>
      <trkpt lat="47.27854" lon="-1.62412">
        <ele>82</ele>
        <time>2022-01-27T14:37:17Z</time>
      </trkpt>
      <trkpt lat="47.27853" lon="-1.62411">
        <ele>82</ele>
        <time>2022-01-27T14:37:18Z</time>
      </trkpt>
      <trkpt lat="47.27852" lon="-1.62411">
        <ele>82</ele>
        <time>2022-01-27T14:37:19Z</time>
      </trkpt>
      <trkpt lat="47.27851" lon="-1.6241">
        <ele>82</ele>
        <time>2022-01-27T14:37:20Z</time>
      </trkpt>
      <trkpt lat="47.2785" lon="-1.62409">
        <ele>81</ele>
        <time>2022-01-27T14:37:21Z</time>
      </trkpt>
      <trkpt lat="47.27848" lon="-1.62408">
        <ele>81</ele>
        <time>2022-01-27T14:37:22Z</time>
      </trkpt>
      <trkpt lat="47.27847" lon="-1.62408">
        <ele>81</ele>
        <time>2022-01-27T14:37:23Z</time>
      </trkpt>
      <trkpt lat="47.27845" lon="-1.62407">
        <ele>81</ele>
        <time>2022-01-27T14:37:24Z</time>
      </trkpt>
      <trkpt lat="47.27844" lon="-1.62407">
        <ele>81</ele>
        <time>2022-01-27T14:37:25Z</time>
      </trkpt>
      <trkpt lat="47.27843" lon="-1.62406">
        <ele>82</ele>
        <time>2022-01-27T14:37:26Z</time>
      </trkpt>
      <trkpt lat="47.27841" lon="-1.62405">
        <ele>83</ele>
        <time>2022-01-27T14:37:27Z</time>
      </trkpt>
      <trkpt lat="47.2784" lon="-1.62405">
        <ele>83</ele>
        <time>2022-01-27T14:37:28Z</time>
      </trkpt>
      <trkpt lat="47.27839" lon="-1.62404">
        <ele>83</ele>
        <time>2022-01-27T14:37:29Z</time>
      </trkpt>
      <trkpt lat="47.27837" lon="-1.62404">
        <ele>83</ele>
        <time>2022-01-27T14:37:30Z</time>
      </trkpt>
      <trkpt lat="47.27836" lon="-1.62403">
        <ele>83</ele>
        <time>2022-01-27T14:37:31Z</time>
      </trkpt>
      <trkpt lat="47.27835" lon="-1.62402">
        <ele>83</ele>
        <time>2022-01-27T14:37:32Z</time>
      </trkpt>
      <trkpt lat="47.27833" lon="-1.62402">
        <ele>83</ele>
        <time>2022-01-27T14:37:33Z</time>
      </trkpt>
      <trkpt lat="47.27831" lon="-1.62401">
        <ele>83</ele>
        <time>2022-01-27T14:37:34Z</time>
      </trkpt>
      <trkpt lat="47.2783" lon="-1.624">
        <ele>83</ele>
        <time>2022-01-27T14:37:35Z</time>
      </trkpt>
      <trkpt lat="47.27829" lon="-1.624">
        <ele>84</ele>
        <time>2022-01-27T14:37:36Z</time>
      </trkpt>
      <trkpt lat="47.27827" lon="-1.624">
        <ele>84</ele>
        <time>2022-01-27T14:37:37Z</time>
      </trkpt>
      <trkpt lat="47.27826" lon="-1.62399">
        <ele>84</ele>
        <time>2022-01-27T14:37:38Z</time>
      </trkpt>
      <trkpt lat="47.27824" lon="-1.62399">
        <ele>84</ele>
        <time>2022-01-27T14:37:39Z</time>
      </trkpt>
      <trkpt lat="47.27823" lon="-1.62398">
        <ele>84</ele>
        <time>2022-01-27T14:37:40Z</time>
      </trkpt>
      <trkpt lat="47.27821" lon="-1.62398">
        <ele>84</ele>
        <time>2022-01-27T14:37:41Z</time>
      </trkpt>
      <trkpt lat="47.27819" lon="-1.62398">
        <ele>84</ele>
        <time>2022-01-27T14:37:42Z</time>
      </trkpt>
      <trkpt lat="47.27818" lon="-1.62397">
        <ele>84</ele>
        <time>2022-01-27T14:37:43Z</time>
      </trkpt>
      <trkpt lat="47.27816" lon="-1.62396">
        <ele>84</ele>
        <time>2022-01-27T14:37:44Z</time>
      </trkpt>
      <trkpt lat="47.27815" lon="-1.62396">
        <ele>84</ele>
        <time>2022-01-27T14:37:45Z</time>
      </trkpt>
      <trkpt lat="47.27814" lon="-1.62395">
        <ele>85</ele>
        <time>2022-01-27T14:37:46Z</time>
      </trkpt>
      <trkpt lat="47.27813" lon="-1.62395">
        <ele>85</ele>
        <time>2022-01-27T14:37:47Z</time>
      </trkpt>
      <trkpt lat="47.27812" lon="-1.62394">
        <ele>85</ele>
        <time>2022-01-27T14:37:48Z</time>
      </trkpt>
      <trkpt lat="47.27811" lon="-1.62394">
        <ele>85</ele>
        <time>2022-01-27T14:37:49Z</time>
      </trkpt>
      <trkpt lat="47.27809" lon="-1.62394">
        <ele>86</ele>
        <time>2022-01-27T14:37:50Z</time>
      </trkpt>
      <trkpt lat="47.27808" lon="-1.62394">
        <ele>86</ele>
        <time>2022-01-27T14:37:51Z</time>
      </trkpt>
      <trkpt lat="47.27807" lon="-1.62394">
        <ele>86</ele>
        <time>2022-01-27T14:37:52Z</time>
      </trkpt>
      <trkpt lat="47.27806" lon="-1.62393">
        <ele>86</ele>
        <time>2022-01-27T14:37:53Z</time>
      </trkpt>
      <trkpt lat="47.27805" lon="-1.62393">
        <ele>86</ele>
        <time>2022-01-27T14:37:54Z</time>
      </trkpt>
      <trkpt lat="47.27803" lon="-1.62393">
        <ele>86</ele>
        <time>2022-01-27T14:37:55Z</time>
      </trkpt>
      <trkpt lat="47.27802" lon="-1.62392">
        <ele>86</ele>
        <time>2022-01-27T14:37:56Z</time>
      </trkpt>
      <trkpt lat="47.27801" lon="-1.62392">
        <ele>86</ele>
        <time>2022-01-27T14:37:57Z</time>
      </trkpt>
      <trkpt lat="47.278" lon="-1.62391">
        <ele>86</ele>
        <time>2022-01-27T14:37:58Z</time>
      </trkpt>
      <trkpt lat="47.27799" lon="-1.62391">
        <ele>86</ele>
        <time>2022-01-27T14:37:59Z</time>
      </trkpt>
      <trkpt lat="47.27798" lon="-1.62391">
        <ele>86</ele>
        <time>2022-01-27T14:38:00Z</time>
      </trkpt>
      <trkpt lat="47.27797" lon="-1.62391">
        <ele>86</ele>
        <time>2022-01-27T14:38:01Z</time>
      </trkpt>
      <trkpt lat="47.27795" lon="-1.62391">
        <ele>87</ele>
        <time>2022-01-27T14:38:02Z</time>
      </trkpt>
      <trkpt lat="47.27794" lon="-1.62391">
        <ele>87</ele>
        <time>2022-01-27T14:38:03Z</time>
      </trkpt>
      <trkpt lat="47.27793" lon="-1.62391">
        <ele>87</ele>
        <time>2022-01-27T14:38:04Z</time>
      </trkpt>
      <trkpt lat="47.27791" lon="-1.62391">
        <ele>88</ele>
        <time>2022-01-27T14:38:05Z</time>
      </trkpt>
      <trkpt lat="47.2779" lon="-1.62391">
        <ele>87</ele>
        <time>2022-01-27T14:38:06Z</time>
      </trkpt>
      <trkpt lat="47.27788" lon="-1.62392">
        <ele>87</ele>
        <time>2022-01-27T14:38:07Z</time>
      </trkpt>
      <trkpt lat="47.27786" lon="-1.62392">
        <ele>88</ele>
        <time>2022-01-27T14:38:08Z</time>
      </trkpt>
      <trkpt lat="47.27785" lon="-1.62392">
        <ele>88</ele>
        <time>2022-01-27T14:38:09Z</time>
      </trkpt>
      <trkpt lat="47.27783" lon="-1.62392">
        <ele>88</ele>
        <time>2022-01-27T14:38:10Z</time>
      </trkpt>
      <trkpt lat="47.27782" lon="-1.62393">
        <ele>88</ele>
        <time>2022-01-27T14:38:11Z</time>
      </trkpt>
      <trkpt lat="47.27781" lon="-1.62393">
        <ele>87</ele>
        <time>2022-01-27T14:38:12Z</time>
      </trkpt>
      <trkpt lat="47.2778" lon="-1.62393">
        <ele>88</ele>
        <time>2022-01-27T14:38:13Z</time>
      </trkpt>
      <trkpt lat="47.27778" lon="-1.62393">
        <ele>88</ele>
        <time>2022-01-27T14:38:14Z</time>
      </trkpt>
      <trkpt lat="47.27777" lon="-1.62393">
        <ele>88</ele>
        <time>2022-01-27T14:38:15Z</time>
      </trkpt>
      <trkpt lat="47.27775" lon="-1.62394">
        <ele>88</ele>
        <time>2022-01-27T14:38:16Z</time>
      </trkpt>
      <trkpt lat="47.27774" lon="-1.62394">
        <ele>88</ele>
        <time>2022-01-27T14:38:17Z</time>
      </trkpt>
      <trkpt lat="47.27772" lon="-1.62394">
        <ele>88</ele>
        <time>2022-01-27T14:38:18Z</time>
      </trkpt>
      <trkpt lat="47.27771" lon="-1.62395">
        <ele>88</ele>
        <time>2022-01-27T14:38:19Z</time>
      </trkpt>
      <trkpt lat="47.27769" lon="-1.62395">
        <ele>88</ele>
        <time>2022-01-27T14:38:20Z</time>
      </trkpt>
      <trkpt lat="47.27768" lon="-1.62396">
        <ele>89</ele>
        <time>2022-01-27T14:38:21Z</time>
      </trkpt>
      <trkpt lat="47.27767" lon="-1.62396">
        <ele>89</ele>
        <time>2022-01-27T14:38:22Z</time>
      </trkpt>
      <trkpt lat="47.27766" lon="-1.62397">
        <ele>89</ele>
        <time>2022-01-27T14:38:23Z</time>
      </trkpt>
      <trkpt lat="47.27765" lon="-1.62397">
        <ele>89</ele>
        <time>2022-01-27T14:38:24Z</time>
      </trkpt>
      <trkpt lat="47.27763" lon="-1.62397">
        <ele>89</ele>
        <time>2022-01-27T14:38:25Z</time>
      </trkpt>
      <trkpt lat="47.27762" lon="-1.62397">
        <ele>89</ele>
        <time>2022-01-27T14:38:26Z</time>
      </trkpt>
      <trkpt lat="47.27761" lon="-1.62397">
        <ele>89</ele>
        <time>2022-01-27T14:38:27Z</time>
      </trkpt>
      <trkpt lat="47.2776" lon="-1.62398">
        <ele>89</ele>
        <time>2022-01-27T14:38:28Z</time>
      </trkpt>
      <trkpt lat="47.27759" lon="-1.62398">
        <ele>89</ele>
        <time>2022-01-27T14:38:29Z</time>
      </trkpt>
      <trkpt lat="47.27757" lon="-1.62398">
        <ele>89</ele>
        <time>2022-01-27T14:38:30Z</time>
      </trkpt>
      <trkpt lat="47.27756" lon="-1.62398">
        <ele>89</ele>
        <time>2022-01-27T14:38:31Z</time>
      </trkpt>
      <trkpt lat="47.27755" lon="-1.62399">
        <ele>89</ele>
        <time>2022-01-27T14:38:32Z</time>
      </trkpt>
      <trkpt lat="47.27753" lon="-1.624">
        <ele>89</ele>
        <time>2022-01-27T14:38:33Z</time>
      </trkpt>
      <trkpt lat="47.27753" lon="-1.624">
        <ele>89</ele>
        <time>2022-01-27T14:38:34Z</time>
      </trkpt>
      <trkpt lat="47.27752" lon="-1.624">
        <ele>89</ele>
        <time>2022-01-27T14:38:35Z</time>
      </trkpt>
      <trkpt lat="47.27751" lon="-1.62401">
        <ele>89</ele>
        <time>2022-01-27T14:38:36Z</time>
      </trkpt>
      <trkpt lat="47.2775" lon="-1.62401">
        <ele>89</ele>
        <time>2022-01-27T14:38:37Z</time>
      </trkpt>
      <trkpt lat="47.27749" lon="-1.62402">
        <ele>88</ele>
        <time>2022-01-27T14:38:38Z</time>
      </trkpt>
      <trkpt lat="47.27748" lon="-1.62401">
        <ele>89</ele>
        <time>2022-01-27T14:38:39Z</time>
      </trkpt>
      <trkpt lat="47.27747" lon="-1.62402">
        <ele>88</ele>
        <time>2022-01-27T14:38:40Z</time>
      </trkpt>
      <trkpt lat="47.27746" lon="-1.62403">
        <ele>88</ele>
        <time>2022-01-27T14:38:41Z</time>
      </trkpt>
      <trkpt lat="47.27744" lon="-1.62404">
        <ele>88</ele>
        <time>2022-01-27T14:38:42Z</time>
      </trkpt>
      <trkpt lat="47.27743" lon="-1.62405">
        <ele>88</ele>
        <time>2022-01-27T14:38:43Z</time>
      </trkpt>
      <trkpt lat="47.27742" lon="-1.62406">
        <ele>88</ele>
        <time>2022-01-27T14:38:44Z</time>
      </trkpt>
      <trkpt lat="47.27741" lon="-1.62406">
        <ele>88</ele>
        <time>2022-01-27T14:38:45Z</time>
      </trkpt>
      <trkpt lat="47.2774" lon="-1.62407">
        <ele>87</ele>
        <time>2022-01-27T14:38:46Z</time>
      </trkpt>
      <trkpt lat="47.27739" lon="-1.62407">
        <ele>87</ele>
        <time>2022-01-27T14:38:47Z</time>
      </trkpt>
      <trkpt lat="47.27737" lon="-1.62408">
        <ele>87</ele>
        <time>2022-01-27T14:38:48Z</time>
      </trkpt>
      <trkpt lat="47.27736" lon="-1.62409">
        <ele>86</ele>
        <time>2022-01-27T14:38:49Z</time>
      </trkpt>
      <trkpt lat="47.27735" lon="-1.62409">
        <ele>86</ele>
        <time>2022-01-27T14:38:50Z</time>
      </trkpt>
      <trkpt lat="47.27734" lon="-1.6241">
        <ele>86</ele>
        <time>2022-01-27T14:38:51Z</time>
      </trkpt>
      <trkpt lat="47.27732" lon="-1.6241">
        <ele>86</ele>
        <time>2022-01-27T14:38:52Z</time>
      </trkpt>
      <trkpt lat="47.27731" lon="-1.6241">
        <ele>86</ele>
        <time>2022-01-27T14:38:53Z</time>
      </trkpt>
      <trkpt lat="47.27729" lon="-1.62411">
        <ele>86</ele>
        <time>2022-01-27T14:38:54Z</time>
      </trkpt>
      <trkpt lat="47.27728" lon="-1.62411">
        <ele>86</ele>
        <time>2022-01-27T14:38:55Z</time>
      </trkpt>
      <trkpt lat="47.27727" lon="-1.62412">
        <ele>86</ele>
        <time>2022-01-27T14:38:56Z</time>
      </trkpt>
      <trkpt lat="47.27726" lon="-1.62413">
        <ele>86</ele>
        <time>2022-01-27T14:38:57Z</time>
      </trkpt>
      <trkpt lat="47.27724" lon="-1.62414">
        <ele>86</ele>
        <time>2022-01-27T14:38:58Z</time>
      </trkpt>
      <trkpt lat="47.27723" lon="-1.62415">
        <ele>86</ele>
        <time>2022-01-27T14:38:59Z</time>
      </trkpt>
      <trkpt lat="47.27721" lon="-1.62416">
        <ele>86</ele>
        <time>2022-01-27T14:39:00Z</time>
      </trkpt>
      <trkpt lat="47.2772" lon="-1.62417">
        <ele>86</ele>
        <time>2022-01-27T14:39:01Z</time>
      </trkpt>
      <trkpt lat="47.27718" lon="-1.62418">
        <ele>86</ele>
        <time>2022-01-27T14:39:02Z</time>
      </trkpt>
      <trkpt lat="47.27717" lon="-1.62419">
        <ele>86</ele>
        <time>2022-01-27T14:39:03Z</time>
      </trkpt>
      <trkpt lat="47.27716" lon="-1.6242">
        <ele>86</ele>
        <time>2022-01-27T14:39:04Z</time>
      </trkpt>
      <trkpt lat="47.27715" lon="-1.6242">
        <ele>86</ele>
        <time>2022-01-27T14:39:05Z</time>
      </trkpt>
      <trkpt lat="47.27713" lon="-1.62421">
        <ele>86</ele>
        <time>2022-01-27T14:39:06Z</time>
      </trkpt>
      <trkpt lat="47.27713" lon="-1.62421">
        <ele>86</ele>
        <time>2022-01-27T14:39:07Z</time>
      </trkpt>
      <trkpt lat="47.27712" lon="-1.62422">
        <ele>86</ele>
        <time>2022-01-27T14:39:08Z</time>
      </trkpt>
      <trkpt lat="47.2771" lon="-1.62423">
        <ele>86</ele>
        <time>2022-01-27T14:39:09Z</time>
      </trkpt>
      <trkpt lat="47.27708" lon="-1.62424">
        <ele>86</ele>
        <time>2022-01-27T14:39:10Z</time>
      </trkpt>
      <trkpt lat="47.27707" lon="-1.62424">
        <ele>87</ele>
        <time>2022-01-27T14:39:11Z</time>
      </trkpt>
      <trkpt lat="47.27705" lon="-1.62425">
        <ele>87</ele>
        <time>2022-01-27T14:39:12Z</time>
      </trkpt>
      <trkpt lat="47.27704" lon="-1.62426">
        <ele>86</ele>
        <time>2022-01-27T14:39:13Z</time>
      </trkpt>
      <trkpt lat="47.27702" lon="-1.62426">
        <ele>86</ele>
        <time>2022-01-27T14:39:14Z</time>
      </trkpt>
      <trkpt lat="47.27701" lon="-1.62426">
        <ele>86</ele>
        <time>2022-01-27T14:39:15Z</time>
      </trkpt>
      <trkpt lat="47.277" lon="-1.62427">
        <ele>86</ele>
        <time>2022-01-27T14:39:16Z</time>
      </trkpt>
      <trkpt lat="47.27699" lon="-1.62427">
        <ele>86</ele>
        <time>2022-01-27T14:39:17Z</time>
      </trkpt>
      <trkpt lat="47.27698" lon="-1.62428">
        <ele>86</ele>
        <time>2022-01-27T14:39:18Z</time>
      </trkpt>
      <trkpt lat="47.27696" lon="-1.62429">
        <ele>86</ele>
        <time>2022-01-27T14:39:19Z</time>
      </trkpt>
      <trkpt lat="47.27694" lon="-1.62429">
        <ele>86</ele>
        <time>2022-01-27T14:39:20Z</time>
      </trkpt>
      <trkpt lat="47.27693" lon="-1.62431">
        <ele>86</ele>
        <time>2022-01-27T14:39:21Z</time>
      </trkpt>
      <trkpt lat="47.27692" lon="-1.62431">
        <ele>86</ele>
        <time>2022-01-27T14:39:22Z</time>
      </trkpt>
      <trkpt lat="47.27691" lon="-1.62432">
        <ele>86</ele>
        <time>2022-01-27T14:39:23Z</time>
      </trkpt>
      <trkpt lat="47.2769" lon="-1.62433">
        <ele>86</ele>
        <time>2022-01-27T14:39:24Z</time>
      </trkpt>
      <trkpt lat="47.27689" lon="-1.62434">
        <ele>87</ele>
        <time>2022-01-27T14:39:25Z</time>
      </trkpt>
      <trkpt lat="47.27688" lon="-1.62435">
        <ele>87</ele>
        <time>2022-01-27T14:39:26Z</time>
      </trkpt>
      <trkpt lat="47.27686" lon="-1.62435">
        <ele>87</ele>
        <time>2022-01-27T14:39:27Z</time>
      </trkpt>
      <trkpt lat="47.27684" lon="-1.62436">
        <ele>87</ele>
        <time>2022-01-27T14:39:28Z</time>
      </trkpt>
      <trkpt lat="47.27683" lon="-1.62436">
        <ele>87</ele>
        <time>2022-01-27T14:39:29Z</time>
      </trkpt>
      <trkpt lat="47.27682" lon="-1.62437">
        <ele>88</ele>
        <time>2022-01-27T14:39:30Z</time>
      </trkpt>
      <trkpt lat="47.27681" lon="-1.62438">
        <ele>87</ele>
        <time>2022-01-27T14:39:31Z</time>
      </trkpt>
      <trkpt lat="47.27679" lon="-1.62439">
        <ele>87</ele>
        <time>2022-01-27T14:39:32Z</time>
      </trkpt>
      <trkpt lat="47.27678" lon="-1.6244">
        <ele>88</ele>
        <time>2022-01-27T14:39:33Z</time>
      </trkpt>
      <trkpt lat="47.27677" lon="-1.62441">
        <ele>88</ele>
        <time>2022-01-27T14:39:34Z</time>
      </trkpt>
      <trkpt lat="47.27676" lon="-1.62441">
        <ele>88</ele>
        <time>2022-01-27T14:39:35Z</time>
      </trkpt>
      <trkpt lat="47.27675" lon="-1.62442">
        <ele>88</ele>
        <time>2022-01-27T14:39:36Z</time>
      </trkpt>
      <trkpt lat="47.27673" lon="-1.62443">
        <ele>87</ele>
        <time>2022-01-27T14:39:37Z</time>
      </trkpt>
      <trkpt lat="47.27672" lon="-1.62444">
        <ele>87</ele>
        <time>2022-01-27T14:39:38Z</time>
      </trkpt>
      <trkpt lat="47.2767" lon="-1.62445">
        <ele>87</ele>
        <time>2022-01-27T14:39:39Z</time>
      </trkpt>
      <trkpt lat="47.27668" lon="-1.62445">
        <ele>88</ele>
        <time>2022-01-27T14:39:40Z</time>
      </trkpt>
      <trkpt lat="47.27667" lon="-1.62446">
        <ele>87</ele>
        <time>2022-01-27T14:39:41Z</time>
      </trkpt>
      <trkpt lat="47.27666" lon="-1.62446">
        <ele>88</ele>
        <time>2022-01-27T14:39:42Z</time>
      </trkpt>
      <trkpt lat="47.27665" lon="-1.62446">
        <ele>88</ele>
        <time>2022-01-27T14:39:43Z</time>
      </trkpt>
      <trkpt lat="47.27663" lon="-1.62447">
        <ele>88</ele>
        <time>2022-01-27T14:39:44Z</time>
      </trkpt>
      <trkpt lat="47.27662" lon="-1.62448">
        <ele>88</ele>
        <time>2022-01-27T14:39:45Z</time>
      </trkpt>
      <trkpt lat="47.27661" lon="-1.62449">
        <ele>87</ele>
        <time>2022-01-27T14:39:46Z</time>
      </trkpt>
      <trkpt lat="47.2766" lon="-1.6245">
        <ele>87</ele>
        <time>2022-01-27T14:39:47Z</time>
      </trkpt>
      <trkpt lat="47.27658" lon="-1.6245">
        <ele>87</ele>
        <time>2022-01-27T14:39:48Z</time>
      </trkpt>
      <trkpt lat="47.27657" lon="-1.62451">
        <ele>87</ele>
        <time>2022-01-27T14:39:49Z</time>
      </trkpt>
      <trkpt lat="47.27655" lon="-1.62451">
        <ele>88</ele>
        <time>2022-01-27T14:39:50Z</time>
      </trkpt>
      <trkpt lat="47.27654" lon="-1.62451">
        <ele>88</ele>
        <time>2022-01-27T14:39:51Z</time>
      </trkpt>
      <trkpt lat="47.27652" lon="-1.62452">
        <ele>88</ele>
        <time>2022-01-27T14:39:52Z</time>
      </trkpt>
      <trkpt lat="47.27651" lon="-1.62453">
        <ele>88</ele>
        <time>2022-01-27T14:39:53Z</time>
      </trkpt>
      <trkpt lat="47.27649" lon="-1.62454">
        <ele>88</ele>
        <time>2022-01-27T14:39:54Z</time>
      </trkpt>
      <trkpt lat="47.27648" lon="-1.62455">
        <ele>87</ele>
        <time>2022-01-27T14:39:55Z</time>
      </trkpt>
      <trkpt lat="47.27647" lon="-1.62455">
        <ele>87</ele>
        <time>2022-01-27T14:39:56Z</time>
      </trkpt>
      <trkpt lat="47.27646" lon="-1.62455">
        <ele>88</ele>
        <time>2022-01-27T14:39:57Z</time>
      </trkpt>
      <trkpt lat="47.27645" lon="-1.62456">
        <ele>88</ele>
        <time>2022-01-27T14:39:58Z</time>
      </trkpt>
      <trkpt lat="47.27644" lon="-1.62457">
        <ele>88</ele>
        <time>2022-01-27T14:39:59Z</time>
      </trkpt>
      <trkpt lat="47.27642" lon="-1.62458">
        <ele>88</ele>
        <time>2022-01-27T14:40:00Z</time>
      </trkpt>
      <trkpt lat="47.27641" lon="-1.62459">
        <ele>88</ele>
        <time>2022-01-27T14:40:01Z</time>
      </trkpt>
      <trkpt lat="47.2764" lon="-1.6246">
        <ele>87</ele>
        <time>2022-01-27T14:40:02Z</time>
      </trkpt>
      <trkpt lat="47.27639" lon="-1.6246">
        <ele>87</ele>
        <time>2022-01-27T14:40:03Z</time>
      </trkpt>
      <trkpt lat="47.27638" lon="-1.6246">
        <ele>87</ele>
        <time>2022-01-27T14:40:04Z</time>
      </trkpt>
      <trkpt lat="47.27636" lon="-1.62461">
        <ele>87</ele>
        <time>2022-01-27T14:40:05Z</time>
      </trkpt>
      <trkpt lat="47.27635" lon="-1.62463">
        <ele>87</ele>
        <time>2022-01-27T14:40:06Z</time>
      </trkpt>
      <trkpt lat="47.27634" lon="-1.62463">
        <ele>87</ele>
        <time>2022-01-27T14:40:07Z</time>
      </trkpt>
      <trkpt lat="47.27633" lon="-1.62463">
        <ele>87</ele>
        <time>2022-01-27T14:40:08Z</time>
      </trkpt>
      <trkpt lat="47.27632" lon="-1.62464">
        <ele>87</ele>
        <time>2022-01-27T14:40:09Z</time>
      </trkpt>
      <trkpt lat="47.27631" lon="-1.62464">
        <ele>87</ele>
        <time>2022-01-27T14:40:10Z</time>
      </trkpt>
      <trkpt lat="47.2763" lon="-1.62465">
        <ele>87</ele>
        <time>2022-01-27T14:40:11Z</time>
      </trkpt>
      <trkpt lat="47.27628" lon="-1.62466">
        <ele>87</ele>
        <time>2022-01-27T14:40:12Z</time>
      </trkpt>
      <trkpt lat="47.27627" lon="-1.62467">
        <ele>87</ele>
        <time>2022-01-27T14:40:13Z</time>
      </trkpt>
      <trkpt lat="47.27626" lon="-1.62468">
        <ele>87</ele>
        <time>2022-01-27T14:40:14Z</time>
      </trkpt>
      <trkpt lat="47.27625" lon="-1.62468">
        <ele>86</ele>
        <time>2022-01-27T14:40:15Z</time>
      </trkpt>
      <trkpt lat="47.27624" lon="-1.62468">
        <ele>86</ele>
        <time>2022-01-27T14:40:16Z</time>
      </trkpt>
      <trkpt lat="47.27623" lon="-1.62469">
        <ele>86</ele>
        <time>2022-01-27T14:40:17Z</time>
      </trkpt>
      <trkpt lat="47.27622" lon="-1.6247">
        <ele>86</ele>
        <time>2022-01-27T14:40:18Z</time>
      </trkpt>
      <trkpt lat="47.27621" lon="-1.6247">
        <ele>86</ele>
        <time>2022-01-27T14:40:19Z</time>
      </trkpt>
      <trkpt lat="47.2762" lon="-1.62471">
        <ele>86</ele>
        <time>2022-01-27T14:40:20Z</time>
      </trkpt>
      <trkpt lat="47.27619" lon="-1.62471">
        <ele>86</ele>
        <time>2022-01-27T14:40:21Z</time>
      </trkpt>
      <trkpt lat="47.27618" lon="-1.62472">
        <ele>86</ele>
        <time>2022-01-27T14:40:22Z</time>
      </trkpt>
      <trkpt lat="47.27616" lon="-1.62473">
        <ele>86</ele>
        <time>2022-01-27T14:40:23Z</time>
      </trkpt>
      <trkpt lat="47.27615" lon="-1.62474">
        <ele>86</ele>
        <time>2022-01-27T14:40:24Z</time>
      </trkpt>
      <trkpt lat="47.27613" lon="-1.62475">
        <ele>86</ele>
        <time>2022-01-27T14:40:25Z</time>
      </trkpt>
      <trkpt lat="47.27612" lon="-1.62476">
        <ele>86</ele>
        <time>2022-01-27T14:40:26Z</time>
      </trkpt>
      <trkpt lat="47.27612" lon="-1.62476">
        <ele>86</ele>
        <time>2022-01-27T14:40:27Z</time>
      </trkpt>
      <trkpt lat="47.27611" lon="-1.62477">
        <ele>86</ele>
        <time>2022-01-27T14:40:28Z</time>
      </trkpt>
      <trkpt lat="47.2761" lon="-1.62478">
        <ele>86</ele>
        <time>2022-01-27T14:40:29Z</time>
      </trkpt>
      <trkpt lat="47.27609" lon="-1.62477">
        <ele>86</ele>
        <time>2022-01-27T14:40:30Z</time>
      </trkpt>
      <trkpt lat="47.27607" lon="-1.62478">
        <ele>85</ele>
        <time>2022-01-27T14:40:31Z</time>
      </trkpt>
      <trkpt lat="47.27606" lon="-1.62479">
        <ele>85</ele>
        <time>2022-01-27T14:40:32Z</time>
      </trkpt>
      <trkpt lat="47.27605" lon="-1.62479">
        <ele>85</ele>
        <time>2022-01-27T14:40:33Z</time>
      </trkpt>
      <trkpt lat="47.27605" lon="-1.6248">
        <ele>85</ele>
        <time>2022-01-27T14:40:34Z</time>
      </trkpt>
      <trkpt lat="47.27604" lon="-1.62481">
        <ele>85</ele>
        <time>2022-01-27T14:40:35Z</time>
      </trkpt>
      <trkpt lat="47.27603" lon="-1.62482">
        <ele>85</ele>
        <time>2022-01-27T14:40:36Z</time>
      </trkpt>
      <trkpt lat="47.27601" lon="-1.62484">
        <ele>85</ele>
        <time>2022-01-27T14:40:37Z</time>
      </trkpt>
      <trkpt lat="47.27599" lon="-1.62485">
        <ele>85</ele>
        <time>2022-01-27T14:40:38Z</time>
      </trkpt>
      <trkpt lat="47.27597" lon="-1.62485">
        <ele>84</ele>
        <time>2022-01-27T14:40:39Z</time>
      </trkpt>
      <trkpt lat="47.27596" lon="-1.62486">
        <ele>84</ele>
        <time>2022-01-27T14:40:40Z</time>
      </trkpt>
      <trkpt lat="47.27595" lon="-1.62487">
        <ele>84</ele>
        <time>2022-01-27T14:40:41Z</time>
      </trkpt>
      <trkpt lat="47.27594" lon="-1.62488">
        <ele>84</ele>
        <time>2022-01-27T14:40:42Z</time>
      </trkpt>
      <trkpt lat="47.27593" lon="-1.62489">
        <ele>84</ele>
        <time>2022-01-27T14:40:43Z</time>
      </trkpt>
      <trkpt lat="47.27591" lon="-1.6249">
        <ele>84</ele>
        <time>2022-01-27T14:40:44Z</time>
      </trkpt>
      <trkpt lat="47.2759" lon="-1.62491">
        <ele>84</ele>
        <time>2022-01-27T14:40:45Z</time>
      </trkpt>
      <trkpt lat="47.27589" lon="-1.62491">
        <ele>84</ele>
        <time>2022-01-27T14:40:46Z</time>
      </trkpt>
      <trkpt lat="47.27588" lon="-1.62492">
        <ele>84</ele>
        <time>2022-01-27T14:40:47Z</time>
      </trkpt>
      <trkpt lat="47.27586" lon="-1.62492">
        <ele>84</ele>
        <time>2022-01-27T14:40:48Z</time>
      </trkpt>
      <trkpt lat="47.27585" lon="-1.62492">
        <ele>84</ele>
        <time>2022-01-27T14:40:49Z</time>
      </trkpt>
      <trkpt lat="47.27583" lon="-1.62493">
        <ele>84</ele>
        <time>2022-01-27T14:40:50Z</time>
      </trkpt>
      <trkpt lat="47.27582" lon="-1.62494">
        <ele>84</ele>
        <time>2022-01-27T14:40:51Z</time>
      </trkpt>
      <trkpt lat="47.2758" lon="-1.62495">
        <ele>84</ele>
        <time>2022-01-27T14:40:52Z</time>
      </trkpt>
      <trkpt lat="47.27579" lon="-1.62495">
        <ele>83</ele>
        <time>2022-01-27T14:40:53Z</time>
      </trkpt>
      <trkpt lat="47.27578" lon="-1.62495">
        <ele>83</ele>
        <time>2022-01-27T14:40:54Z</time>
      </trkpt>
      <trkpt lat="47.27577" lon="-1.62496">
        <ele>83</ele>
        <time>2022-01-27T14:40:55Z</time>
      </trkpt>
      <trkpt lat="47.27576" lon="-1.62497">
        <ele>83</ele>
        <time>2022-01-27T14:40:56Z</time>
      </trkpt>
      <trkpt lat="47.27575" lon="-1.62499">
        <ele>83</ele>
        <time>2022-01-27T14:40:57Z</time>
      </trkpt>
      <trkpt lat="47.27574" lon="-1.625">
        <ele>83</ele>
        <time>2022-01-27T14:40:58Z</time>
      </trkpt>
      <trkpt lat="47.27573" lon="-1.625">
        <ele>83</ele>
        <time>2022-01-27T14:40:59Z</time>
      </trkpt>
      <trkpt lat="47.27571" lon="-1.62501">
        <ele>83</ele>
        <time>2022-01-27T14:41:00Z</time>
      </trkpt>
      <trkpt lat="47.2757" lon="-1.62502">
        <ele>83</ele>
        <time>2022-01-27T14:41:01Z</time>
      </trkpt>
      <trkpt lat="47.27569" lon="-1.62502">
        <ele>84</ele>
        <time>2022-01-27T14:41:02Z</time>
      </trkpt>
      <trkpt lat="47.27567" lon="-1.62503">
        <ele>84</ele>
        <time>2022-01-27T14:41:03Z</time>
      </trkpt>
      <trkpt lat="47.27566" lon="-1.62504">
        <ele>84</ele>
        <time>2022-01-27T14:41:04Z</time>
      </trkpt>
      <trkpt lat="47.27565" lon="-1.62504">
        <ele>84</ele>
        <time>2022-01-27T14:41:05Z</time>
      </trkpt>
      <trkpt lat="47.27563" lon="-1.62505">
        <ele>84</ele>
        <time>2022-01-27T14:41:06Z</time>
      </trkpt>
      <trkpt lat="47.27561" lon="-1.62506">
        <ele>84</ele>
        <time>2022-01-27T14:41:07Z</time>
      </trkpt>
      <trkpt lat="47.2756" lon="-1.62506">
        <ele>84</ele>
        <time>2022-01-27T14:41:08Z</time>
      </trkpt>
      <trkpt lat="47.27558" lon="-1.62507">
        <ele>84</ele>
        <time>2022-01-27T14:41:09Z</time>
      </trkpt>
      <trkpt lat="47.27557" lon="-1.62507">
        <ele>84</ele>
        <time>2022-01-27T14:41:10Z</time>
      </trkpt>
      <trkpt lat="47.27556" lon="-1.62508">
        <ele>84</ele>
        <time>2022-01-27T14:41:11Z</time>
      </trkpt>
      <trkpt lat="47.27554" lon="-1.62508">
        <ele>84</ele>
        <time>2022-01-27T14:41:12Z</time>
      </trkpt>
      <trkpt lat="47.27552" lon="-1.62508">
        <ele>84</ele>
        <time>2022-01-27T14:41:13Z</time>
      </trkpt>
      <trkpt lat="47.27551" lon="-1.62508">
        <ele>84</ele>
        <time>2022-01-27T14:41:14Z</time>
      </trkpt>
      <trkpt lat="47.2755" lon="-1.62508">
        <ele>84</ele>
        <time>2022-01-27T14:41:15Z</time>
      </trkpt>
      <trkpt lat="47.27548" lon="-1.62509">
        <ele>84</ele>
        <time>2022-01-27T14:41:16Z</time>
      </trkpt>
      <trkpt lat="47.27547" lon="-1.62509">
        <ele>84</ele>
        <time>2022-01-27T14:41:17Z</time>
      </trkpt>
      <trkpt lat="47.27546" lon="-1.6251">
        <ele>84</ele>
        <time>2022-01-27T14:41:18Z</time>
      </trkpt>
      <trkpt lat="47.27544" lon="-1.6251">
        <ele>84</ele>
        <time>2022-01-27T14:41:19Z</time>
      </trkpt>
      <trkpt lat="47.27543" lon="-1.6251">
        <ele>84</ele>
        <time>2022-01-27T14:41:20Z</time>
      </trkpt>
      <trkpt lat="47.27541" lon="-1.6251">
        <ele>84</ele>
        <time>2022-01-27T14:41:21Z</time>
      </trkpt>
      <trkpt lat="47.2754" lon="-1.6251">
        <ele>84</ele>
        <time>2022-01-27T14:41:22Z</time>
      </trkpt>
      <trkpt lat="47.27539" lon="-1.62509">
        <ele>84</ele>
        <time>2022-01-27T14:41:23Z</time>
      </trkpt>
      <trkpt lat="47.27538" lon="-1.62509">
        <ele>84</ele>
        <time>2022-01-27T14:41:24Z</time>
      </trkpt>
      <trkpt lat="47.27536" lon="-1.62509">
        <ele>84</ele>
        <time>2022-01-27T14:41:25Z</time>
      </trkpt>
      <trkpt lat="47.27535" lon="-1.62509">
        <ele>84</ele>
        <time>2022-01-27T14:41:26Z</time>
      </trkpt>
      <trkpt lat="47.27533" lon="-1.62509">
        <ele>84</ele>
        <time>2022-01-27T14:41:27Z</time>
      </trkpt>
      <trkpt lat="47.27531" lon="-1.62508">
        <ele>83</ele>
        <time>2022-01-27T14:41:28Z</time>
      </trkpt>
      <trkpt lat="47.2753" lon="-1.62508">
        <ele>83</ele>
        <time>2022-01-27T14:41:29Z</time>
      </trkpt>
      <trkpt lat="47.27528" lon="-1.62509">
        <ele>83</ele>
        <time>2022-01-27T14:41:30Z</time>
      </trkpt>
      <trkpt lat="47.27527" lon="-1.62509">
        <ele>82</ele>
        <time>2022-01-27T14:41:31Z</time>
      </trkpt>
      <trkpt lat="47.27525" lon="-1.62509">
        <ele>82</ele>
        <time>2022-01-27T14:41:32Z</time>
      </trkpt>
      <trkpt lat="47.27524" lon="-1.62509">
        <ele>81</ele>
        <time>2022-01-27T14:41:33Z</time>
      </trkpt>
      <trkpt lat="47.27523" lon="-1.62508">
        <ele>81</ele>
        <time>2022-01-27T14:41:34Z</time>
      </trkpt>
      <trkpt lat="47.27522" lon="-1.62507">
        <ele>81</ele>
        <time>2022-01-27T14:41:35Z</time>
      </trkpt>
      <trkpt lat="47.27521" lon="-1.62507">
        <ele>81</ele>
        <time>2022-01-27T14:41:36Z</time>
      </trkpt>
      <trkpt lat="47.2752" lon="-1.62508">
        <ele>82</ele>
        <time>2022-01-27T14:41:37Z</time>
      </trkpt>
      <trkpt lat="47.2752" lon="-1.62509">
        <ele>81</ele>
        <time>2022-01-27T14:41:38Z</time>
      </trkpt>
      <trkpt lat="47.27519" lon="-1.6251">
        <ele>81</ele>
        <time>2022-01-27T14:41:39Z</time>
      </trkpt>
      <trkpt lat="47.27517" lon="-1.62511">
        <ele>81</ele>
        <time>2022-01-27T14:41:40Z</time>
      </trkpt>
      <trkpt lat="47.27516" lon="-1.62511">
        <ele>82</ele>
        <time>2022-01-27T14:41:41Z</time>
      </trkpt>
      <trkpt lat="47.27514" lon="-1.62511">
        <ele>82</ele>
        <time>2022-01-27T14:41:42Z</time>
      </trkpt>
      <trkpt lat="47.27513" lon="-1.6251">
        <ele>82</ele>
        <time>2022-01-27T14:41:43Z</time>
      </trkpt>
      <trkpt lat="47.27511" lon="-1.6251">
        <ele>82</ele>
        <time>2022-01-27T14:41:44Z</time>
      </trkpt>
      <trkpt lat="47.27509" lon="-1.6251">
        <ele>82</ele>
        <time>2022-01-27T14:41:45Z</time>
      </trkpt>
      <trkpt lat="47.27508" lon="-1.62509">
        <ele>82</ele>
        <time>2022-01-27T14:41:46Z</time>
      </trkpt>
      <trkpt lat="47.27507" lon="-1.62509">
        <ele>82</ele>
        <time>2022-01-27T14:41:47Z</time>
      </trkpt>
      <trkpt lat="47.27505" lon="-1.62509">
        <ele>82</ele>
        <time>2022-01-27T14:41:48Z</time>
      </trkpt>
      <trkpt lat="47.27504" lon="-1.62508">
        <ele>81</ele>
        <time>2022-01-27T14:41:49Z</time>
      </trkpt>
      <trkpt lat="47.27503" lon="-1.62507">
        <ele>81</ele>
        <time>2022-01-27T14:41:50Z</time>
      </trkpt>
      <trkpt lat="47.27502" lon="-1.62506">
        <ele>81</ele>
        <time>2022-01-27T14:41:51Z</time>
      </trkpt>
      <trkpt lat="47.27501" lon="-1.62505">
        <ele>81</ele>
        <time>2022-01-27T14:41:52Z</time>
      </trkpt>
      <trkpt lat="47.27499" lon="-1.62504">
        <ele>81</ele>
        <time>2022-01-27T14:41:53Z</time>
      </trkpt>
      <trkpt lat="47.27499" lon="-1.62503">
        <ele>81</ele>
        <time>2022-01-27T14:41:54Z</time>
      </trkpt>
      <trkpt lat="47.27497" lon="-1.62503">
        <ele>81</ele>
        <time>2022-01-27T14:41:55Z</time>
      </trkpt>
      <trkpt lat="47.27496" lon="-1.62502">
        <ele>81</ele>
        <time>2022-01-27T14:41:56Z</time>
      </trkpt>
      <trkpt lat="47.27494" lon="-1.62501">
        <ele>81</ele>
        <time>2022-01-27T14:41:57Z</time>
      </trkpt>
      <trkpt lat="47.27494" lon="-1.625">
        <ele>81</ele>
        <time>2022-01-27T14:41:58Z</time>
      </trkpt>
      <trkpt lat="47.27492" lon="-1.62499">
        <ele>81</ele>
        <time>2022-01-27T14:41:59Z</time>
      </trkpt>
      <trkpt lat="47.27491" lon="-1.62499">
        <ele>81</ele>
        <time>2022-01-27T14:42:00Z</time>
      </trkpt>
      <trkpt lat="47.2749" lon="-1.62498">
        <ele>81</ele>
        <time>2022-01-27T14:42:01Z</time>
      </trkpt>
      <trkpt lat="47.27488" lon="-1.62497">
        <ele>81</ele>
        <time>2022-01-27T14:42:02Z</time>
      </trkpt>
      <trkpt lat="47.27487" lon="-1.62496">
        <ele>81</ele>
        <time>2022-01-27T14:42:03Z</time>
      </trkpt>
      <trkpt lat="47.27486" lon="-1.62496">
        <ele>81</ele>
        <time>2022-01-27T14:42:04Z</time>
      </trkpt>
      <trkpt lat="47.27486" lon="-1.62495">
        <ele>82</ele>
        <time>2022-01-27T14:42:05Z</time>
      </trkpt>
      <trkpt lat="47.27485" lon="-1.62495">
        <ele>81</ele>
        <time>2022-01-27T14:42:06Z</time>
      </trkpt>
      <trkpt lat="47.27484" lon="-1.62494">
        <ele>81</ele>
        <time>2022-01-27T14:42:07Z</time>
      </trkpt>
      <trkpt lat="47.27483" lon="-1.62494">
        <ele>81</ele>
        <time>2022-01-27T14:42:08Z</time>
      </trkpt>
      <trkpt lat="47.27482" lon="-1.62494">
        <ele>81</ele>
        <time>2022-01-27T14:42:09Z</time>
      </trkpt>
      <trkpt lat="47.27482" lon="-1.62493">
        <ele>81</ele>
        <time>2022-01-27T14:42:10Z</time>
      </trkpt>
      <trkpt lat="47.27481" lon="-1.62492">
        <ele>81</ele>
        <time>2022-01-27T14:42:11Z</time>
      </trkpt>
      <trkpt lat="47.2748" lon="-1.62491">
        <ele>81</ele>
        <time>2022-01-27T14:42:12Z</time>
      </trkpt>
      <trkpt lat="47.27478" lon="-1.6249">
        <ele>81</ele>
        <time>2022-01-27T14:42:13Z</time>
      </trkpt>
      <trkpt lat="47.27477" lon="-1.62489">
        <ele>80</ele>
        <time>2022-01-27T14:42:14Z</time>
      </trkpt>
      <trkpt lat="47.27475" lon="-1.62488">
        <ele>80</ele>
        <time>2022-01-27T14:42:15Z</time>
      </trkpt>
      <trkpt lat="47.27474" lon="-1.62487">
        <ele>80</ele>
        <time>2022-01-27T14:42:16Z</time>
      </trkpt>
      <trkpt lat="47.27473" lon="-1.62486">
        <ele>80</ele>
        <time>2022-01-27T14:42:17Z</time>
      </trkpt>
      <trkpt lat="47.27472" lon="-1.62486">
        <ele>80</ele>
        <time>2022-01-27T14:42:18Z</time>
      </trkpt>
      <trkpt lat="47.27471" lon="-1.62485">
        <ele>80</ele>
        <time>2022-01-27T14:42:19Z</time>
      </trkpt>
      <trkpt lat="47.2747" lon="-1.62484">
        <ele>80</ele>
        <time>2022-01-27T14:42:20Z</time>
      </trkpt>
      <trkpt lat="47.27469" lon="-1.62483">
        <ele>80</ele>
        <time>2022-01-27T14:42:21Z</time>
      </trkpt>
      <trkpt lat="47.27467" lon="-1.62482">
        <ele>80</ele>
        <time>2022-01-27T14:42:22Z</time>
      </trkpt>
      <trkpt lat="47.27467" lon="-1.62482">
        <ele>80</ele>
        <time>2022-01-27T14:42:23Z</time>
      </trkpt>
      <trkpt lat="47.27465" lon="-1.62481">
        <ele>80</ele>
        <time>2022-01-27T14:42:24Z</time>
      </trkpt>
      <trkpt lat="47.27464" lon="-1.62479">
        <ele>80</ele>
        <time>2022-01-27T14:42:25Z</time>
      </trkpt>
      <trkpt lat="47.27463" lon="-1.62479">
        <ele>80</ele>
        <time>2022-01-27T14:42:26Z</time>
      </trkpt>
      <trkpt lat="47.27462" lon="-1.62478">
        <ele>79</ele>
        <time>2022-01-27T14:42:27Z</time>
      </trkpt>
      <trkpt lat="47.27461" lon="-1.62477">
        <ele>79</ele>
        <time>2022-01-27T14:42:28Z</time>
      </trkpt>
      <trkpt lat="47.2746" lon="-1.62476">
        <ele>78</ele>
        <time>2022-01-27T14:42:29Z</time>
      </trkpt>
      <trkpt lat="47.27459" lon="-1.62475">
        <ele>78</ele>
        <time>2022-01-27T14:42:30Z</time>
      </trkpt>
      <trkpt lat="47.27457" lon="-1.62475">
        <ele>78</ele>
        <time>2022-01-27T14:42:31Z</time>
      </trkpt>
      <trkpt lat="47.27456" lon="-1.62474">
        <ele>78</ele>
        <time>2022-01-27T14:42:32Z</time>
      </trkpt>
      <trkpt lat="47.27454" lon="-1.62473">
        <ele>78</ele>
        <time>2022-01-27T14:42:33Z</time>
      </trkpt>
      <trkpt lat="47.27452" lon="-1.62472">
        <ele>78</ele>
        <time>2022-01-27T14:42:34Z</time>
      </trkpt>
      <trkpt lat="47.27451" lon="-1.62471">
        <ele>78</ele>
        <time>2022-01-27T14:42:35Z</time>
      </trkpt>
      <trkpt lat="47.27448" lon="-1.62471">
        <ele>78</ele>
        <time>2022-01-27T14:42:36Z</time>
      </trkpt>
      <trkpt lat="47.27447" lon="-1.62471">
        <ele>78</ele>
        <time>2022-01-27T14:42:37Z</time>
      </trkpt>
      <trkpt lat="47.27445" lon="-1.6247">
        <ele>78</ele>
        <time>2022-01-27T14:42:38Z</time>
      </trkpt>
      <trkpt lat="47.27444" lon="-1.6247">
        <ele>78</ele>
        <time>2022-01-27T14:42:39Z</time>
      </trkpt>
      <trkpt lat="47.27443" lon="-1.62469">
        <ele>79</ele>
        <time>2022-01-27T14:42:40Z</time>
      </trkpt>
      <trkpt lat="47.27441" lon="-1.62468">
        <ele>79</ele>
        <time>2022-01-27T14:42:41Z</time>
      </trkpt>
      <trkpt lat="47.2744" lon="-1.62468">
        <ele>79</ele>
        <time>2022-01-27T14:42:42Z</time>
      </trkpt>
      <trkpt lat="47.27439" lon="-1.62467">
        <ele>79</ele>
        <time>2022-01-27T14:42:43Z</time>
      </trkpt>
      <trkpt lat="47.27437" lon="-1.62466">
        <ele>78</ele>
        <time>2022-01-27T14:42:44Z</time>
      </trkpt>
      <trkpt lat="47.27436" lon="-1.62465">
        <ele>78</ele>
        <time>2022-01-27T14:42:45Z</time>
      </trkpt>
      <trkpt lat="47.27435" lon="-1.62464">
        <ele>78</ele>
        <time>2022-01-27T14:42:46Z</time>
      </trkpt>
      <trkpt lat="47.27433" lon="-1.62463">
        <ele>79</ele>
        <time>2022-01-27T14:42:47Z</time>
      </trkpt>
      <trkpt lat="47.27432" lon="-1.62462">
        <ele>79</ele>
        <time>2022-01-27T14:42:48Z</time>
      </trkpt>
      <trkpt lat="47.27431" lon="-1.62462">
        <ele>79</ele>
        <time>2022-01-27T14:42:49Z</time>
      </trkpt>
      <trkpt lat="47.2743" lon="-1.62461">
        <ele>79</ele>
        <time>2022-01-27T14:42:50Z</time>
      </trkpt>
      <trkpt lat="47.27428" lon="-1.6246">
        <ele>79</ele>
        <time>2022-01-27T14:42:51Z</time>
      </trkpt>
      <trkpt lat="47.27427" lon="-1.62459">
        <ele>80</ele>
        <time>2022-01-27T14:42:52Z</time>
      </trkpt>
      <trkpt lat="47.27426" lon="-1.62458">
        <ele>80</ele>
        <time>2022-01-27T14:42:53Z</time>
      </trkpt>
      <trkpt lat="47.27425" lon="-1.62457">
        <ele>79</ele>
        <time>2022-01-27T14:42:54Z</time>
      </trkpt>
      <trkpt lat="47.27425" lon="-1.62456">
        <ele>79</ele>
        <time>2022-01-27T14:42:55Z</time>
      </trkpt>
      <trkpt lat="47.27424" lon="-1.62455">
        <ele>79</ele>
        <time>2022-01-27T14:42:56Z</time>
      </trkpt>
      <trkpt lat="47.27423" lon="-1.62453">
        <ele>79</ele>
        <time>2022-01-27T14:42:57Z</time>
      </trkpt>
      <trkpt lat="47.27422" lon="-1.62452">
        <ele>79</ele>
        <time>2022-01-27T14:42:58Z</time>
      </trkpt>
      <trkpt lat="47.27422" lon="-1.6245">
        <ele>79</ele>
        <time>2022-01-27T14:42:59Z</time>
      </trkpt>
      <trkpt lat="47.27421" lon="-1.6245">
        <ele>79</ele>
        <time>2022-01-27T14:43:00Z</time>
      </trkpt>
      <trkpt lat="47.2742" lon="-1.62449">
        <ele>79</ele>
        <time>2022-01-27T14:43:01Z</time>
      </trkpt>
      <trkpt lat="47.27419" lon="-1.62448">
        <ele>79</ele>
        <time>2022-01-27T14:43:02Z</time>
      </trkpt>
      <trkpt lat="47.27417" lon="-1.62447">
        <ele>79</ele>
        <time>2022-01-27T14:43:03Z</time>
      </trkpt>
      <trkpt lat="47.27416" lon="-1.62446">
        <ele>79</ele>
        <time>2022-01-27T14:43:04Z</time>
      </trkpt>
      <trkpt lat="47.27414" lon="-1.62446">
        <ele>79</ele>
        <time>2022-01-27T14:43:05Z</time>
      </trkpt>
      <trkpt lat="47.27413" lon="-1.62446">
        <ele>79</ele>
        <time>2022-01-27T14:43:06Z</time>
      </trkpt>
      <trkpt lat="47.27412" lon="-1.62446">
        <ele>80</ele>
        <time>2022-01-27T14:43:07Z</time>
      </trkpt>
      <trkpt lat="47.2741" lon="-1.62446">
        <ele>79</ele>
        <time>2022-01-27T14:43:08Z</time>
      </trkpt>
      <trkpt lat="47.27409" lon="-1.62445">
        <ele>79</ele>
        <time>2022-01-27T14:43:09Z</time>
      </trkpt>
      <trkpt lat="47.27408" lon="-1.62444">
        <ele>79</ele>
        <time>2022-01-27T14:43:10Z</time>
      </trkpt>
      <trkpt lat="47.27407" lon="-1.62443">
        <ele>79</ele>
        <time>2022-01-27T14:43:11Z</time>
      </trkpt>
      <trkpt lat="47.27405" lon="-1.62442">
        <ele>79</ele>
        <time>2022-01-27T14:43:12Z</time>
      </trkpt>
      <trkpt lat="47.27404" lon="-1.62441">
        <ele>79</ele>
        <time>2022-01-27T14:43:13Z</time>
      </trkpt>
      <trkpt lat="47.27403" lon="-1.62439">
        <ele>79</ele>
        <time>2022-01-27T14:43:14Z</time>
      </trkpt>
      <trkpt lat="47.27402" lon="-1.62439">
        <ele>79</ele>
        <time>2022-01-27T14:43:15Z</time>
      </trkpt>
      <trkpt lat="47.274" lon="-1.62438">
        <ele>79</ele>
        <time>2022-01-27T14:43:16Z</time>
      </trkpt>
      <trkpt lat="47.27399" lon="-1.62437">
        <ele>79</ele>
        <time>2022-01-27T14:43:17Z</time>
      </trkpt>
      <trkpt lat="47.27398" lon="-1.62436">
        <ele>79</ele>
        <time>2022-01-27T14:43:18Z</time>
      </trkpt>
      <trkpt lat="47.27396" lon="-1.62435">
        <ele>80</ele>
        <time>2022-01-27T14:43:19Z</time>
      </trkpt>
      <trkpt lat="47.27395" lon="-1.62434">
        <ele>80</ele>
        <time>2022-01-27T14:43:20Z</time>
      </trkpt>
      <trkpt lat="47.27394" lon="-1.62433">
        <ele>80</ele>
        <time>2022-01-27T14:43:21Z</time>
      </trkpt>
      <trkpt lat="47.27393" lon="-1.62433">
        <ele>80</ele>
        <time>2022-01-27T14:43:22Z</time>
      </trkpt>
      <trkpt lat="47.27391" lon="-1.62433">
        <ele>80</ele>
        <time>2022-01-27T14:43:23Z</time>
      </trkpt>
      <trkpt lat="47.2739" lon="-1.62432">
        <ele>80</ele>
        <time>2022-01-27T14:43:24Z</time>
      </trkpt>
      <trkpt lat="47.27389" lon="-1.62432">
        <ele>81</ele>
        <time>2022-01-27T14:43:25Z</time>
      </trkpt>
      <trkpt lat="47.27388" lon="-1.62432">
        <ele>81</ele>
        <time>2022-01-27T14:43:26Z</time>
      </trkpt>
      <trkpt lat="47.27386" lon="-1.62431">
        <ele>81</ele>
        <time>2022-01-27T14:43:27Z</time>
      </trkpt>
      <trkpt lat="47.27385" lon="-1.6243">
        <ele>81</ele>
        <time>2022-01-27T14:43:28Z</time>
      </trkpt>
      <trkpt lat="47.27383" lon="-1.6243">
        <ele>81</ele>
        <time>2022-01-27T14:43:29Z</time>
      </trkpt>
      <trkpt lat="47.27382" lon="-1.62429">
        <ele>81</ele>
        <time>2022-01-27T14:43:30Z</time>
      </trkpt>
      <trkpt lat="47.27381" lon="-1.62429">
        <ele>80</ele>
        <time>2022-01-27T14:43:31Z</time>
      </trkpt>
      <trkpt lat="47.2738" lon="-1.62428">
        <ele>81</ele>
        <time>2022-01-27T14:43:32Z</time>
      </trkpt>
      <trkpt lat="47.27379" lon="-1.62427">
        <ele>81</ele>
        <time>2022-01-27T14:43:33Z</time>
      </trkpt>
      <trkpt lat="47.27377" lon="-1.62427">
        <ele>81</ele>
        <time>2022-01-27T14:43:34Z</time>
      </trkpt>
      <trkpt lat="47.27376" lon="-1.62427">
        <ele>81</ele>
        <time>2022-01-27T14:43:35Z</time>
      </trkpt>
      <trkpt lat="47.27375" lon="-1.62426">
        <ele>81</ele>
        <time>2022-01-27T14:43:36Z</time>
      </trkpt>
      <trkpt lat="47.27374" lon="-1.62426">
        <ele>82</ele>
        <time>2022-01-27T14:43:37Z</time>
      </trkpt>
      <trkpt lat="47.27372" lon="-1.62426">
        <ele>82</ele>
        <time>2022-01-27T14:43:38Z</time>
      </trkpt>
      <trkpt lat="47.27372" lon="-1.62425">
        <ele>82</ele>
        <time>2022-01-27T14:43:39Z</time>
      </trkpt>
      <trkpt lat="47.2737" lon="-1.62425">
        <ele>82</ele>
        <time>2022-01-27T14:43:40Z</time>
      </trkpt>
      <trkpt lat="47.27369" lon="-1.62424">
        <ele>83</ele>
        <time>2022-01-27T14:43:41Z</time>
      </trkpt>
      <trkpt lat="47.27367" lon="-1.62424">
        <ele>84</ele>
        <time>2022-01-27T14:43:42Z</time>
      </trkpt>
      <trkpt lat="47.27366" lon="-1.62424">
        <ele>84</ele>
        <time>2022-01-27T14:43:43Z</time>
      </trkpt>
      <trkpt lat="47.27364" lon="-1.62423">
        <ele>85</ele>
        <time>2022-01-27T14:43:44Z</time>
      </trkpt>
      <trkpt lat="47.27363" lon="-1.62423">
        <ele>85</ele>
        <time>2022-01-27T14:43:45Z</time>
      </trkpt>
      <trkpt lat="47.27361" lon="-1.62422">
        <ele>85</ele>
        <time>2022-01-27T14:43:46Z</time>
      </trkpt>
      <trkpt lat="47.27359" lon="-1.62421">
        <ele>85</ele>
        <time>2022-01-27T14:43:47Z</time>
      </trkpt>
      <trkpt lat="47.27358" lon="-1.62421">
        <ele>85</ele>
        <time>2022-01-27T14:43:48Z</time>
      </trkpt>
      <trkpt lat="47.27357" lon="-1.6242">
        <ele>85</ele>
        <time>2022-01-27T14:43:49Z</time>
      </trkpt>
      <trkpt lat="47.27356" lon="-1.6242">
        <ele>85</ele>
        <time>2022-01-27T14:43:50Z</time>
      </trkpt>
      <trkpt lat="47.27354" lon="-1.62419">
        <ele>85</ele>
        <time>2022-01-27T14:43:51Z</time>
      </trkpt>
      <trkpt lat="47.27353" lon="-1.62418">
        <ele>85</ele>
        <time>2022-01-27T14:43:52Z</time>
      </trkpt>
      <trkpt lat="47.27352" lon="-1.62419">
        <ele>86</ele>
        <time>2022-01-27T14:43:53Z</time>
      </trkpt>
      <trkpt lat="47.2735" lon="-1.62419">
        <ele>87</ele>
        <time>2022-01-27T14:43:54Z</time>
      </trkpt>
      <trkpt lat="47.27349" lon="-1.62419">
        <ele>87</ele>
        <time>2022-01-27T14:43:55Z</time>
      </trkpt>
      <trkpt lat="47.27348" lon="-1.62418">
        <ele>88</ele>
        <time>2022-01-27T14:43:56Z</time>
      </trkpt>
      <trkpt lat="47.27346" lon="-1.62418">
        <ele>88</ele>
        <time>2022-01-27T14:43:57Z</time>
      </trkpt>
      <trkpt lat="47.27345" lon="-1.62418">
        <ele>88</ele>
        <time>2022-01-27T14:43:58Z</time>
      </trkpt>
      <trkpt lat="47.27344" lon="-1.62417">
        <ele>89</ele>
        <time>2022-01-27T14:43:59Z</time>
      </trkpt>
      <trkpt lat="47.27343" lon="-1.62416">
        <ele>89</ele>
        <time>2022-01-27T14:44:00Z</time>
      </trkpt>
      <trkpt lat="47.27342" lon="-1.62415">
        <ele>89</ele>
        <time>2022-01-27T14:44:01Z</time>
      </trkpt>
      <trkpt lat="47.2734" lon="-1.62414">
        <ele>90</ele>
        <time>2022-01-27T14:44:02Z</time>
      </trkpt>
      <trkpt lat="47.27338" lon="-1.62413">
        <ele>90</ele>
        <time>2022-01-27T14:44:03Z</time>
      </trkpt>
      <trkpt lat="47.27337" lon="-1.62412">
        <ele>90</ele>
        <time>2022-01-27T14:44:04Z</time>
      </trkpt>
      <trkpt lat="47.27336" lon="-1.6241">
        <ele>91</ele>
        <time>2022-01-27T14:44:05Z</time>
      </trkpt>
      <trkpt lat="47.27335" lon="-1.62409">
        <ele>91</ele>
        <time>2022-01-27T14:44:06Z</time>
      </trkpt>
      <trkpt lat="47.27334" lon="-1.62408">
        <ele>92</ele>
        <time>2022-01-27T14:44:07Z</time>
      </trkpt>
      <trkpt lat="47.27333" lon="-1.62406">
        <ele>92</ele>
        <time>2022-01-27T14:44:08Z</time>
      </trkpt>
      <trkpt lat="47.27332" lon="-1.62405">
        <ele>92</ele>
        <time>2022-01-27T14:44:09Z</time>
      </trkpt>
      <trkpt lat="47.2733" lon="-1.62404">
        <ele>92</ele>
        <time>2022-01-27T14:44:10Z</time>
      </trkpt>
      <trkpt lat="47.27329" lon="-1.62403">
        <ele>93</ele>
        <time>2022-01-27T14:44:11Z</time>
      </trkpt>
      <trkpt lat="47.27328" lon="-1.62402">
        <ele>93</ele>
        <time>2022-01-27T14:44:12Z</time>
      </trkpt>
      <trkpt lat="47.27327" lon="-1.62401">
        <ele>93</ele>
        <time>2022-01-27T14:44:13Z</time>
      </trkpt>
      <trkpt lat="47.27326" lon="-1.624">
        <ele>92</ele>
        <time>2022-01-27T14:44:14Z</time>
      </trkpt>
      <trkpt lat="47.27325" lon="-1.62399">
        <ele>92</ele>
        <time>2022-01-27T14:44:15Z</time>
      </trkpt>
      <trkpt lat="47.27324" lon="-1.62397">
        <ele>93</ele>
        <time>2022-01-27T14:44:16Z</time>
      </trkpt>
      <trkpt lat="47.27324" lon="-1.62396">
        <ele>92</ele>
        <time>2022-01-27T14:44:17Z</time>
      </trkpt>
      <trkpt lat="47.27323" lon="-1.62395">
        <ele>92</ele>
        <time>2022-01-27T14:44:18Z</time>
      </trkpt>
      <trkpt lat="47.27322" lon="-1.62394">
        <ele>92</ele>
        <time>2022-01-27T14:44:19Z</time>
      </trkpt>
      <trkpt lat="47.27321" lon="-1.62393">
        <ele>92</ele>
        <time>2022-01-27T14:44:20Z</time>
      </trkpt>
      <trkpt lat="47.2732" lon="-1.62392">
        <ele>91</ele>
        <time>2022-01-27T14:44:21Z</time>
      </trkpt>
      <trkpt lat="47.27319" lon="-1.6239">
        <ele>91</ele>
        <time>2022-01-27T14:44:22Z</time>
      </trkpt>
      <trkpt lat="47.27318" lon="-1.62389">
        <ele>91</ele>
        <time>2022-01-27T14:44:23Z</time>
      </trkpt>
      <trkpt lat="47.27317" lon="-1.62388">
        <ele>90</ele>
        <time>2022-01-27T14:44:24Z</time>
      </trkpt>
      <trkpt lat="47.27316" lon="-1.62387">
        <ele>90</ele>
        <time>2022-01-27T14:44:25Z</time>
      </trkpt>
      <trkpt lat="47.27315" lon="-1.62385">
        <ele>90</ele>
        <time>2022-01-27T14:44:26Z</time>
      </trkpt>
      <trkpt lat="47.27314" lon="-1.62383">
        <ele>90</ele>
        <time>2022-01-27T14:44:27Z</time>
      </trkpt>
      <trkpt lat="47.27313" lon="-1.62382">
        <ele>90</ele>
        <time>2022-01-27T14:44:28Z</time>
      </trkpt>
      <trkpt lat="47.27313" lon="-1.62381">
        <ele>91</ele>
        <time>2022-01-27T14:44:29Z</time>
      </trkpt>
      <trkpt lat="47.27313" lon="-1.6238">
        <ele>90</ele>
        <time>2022-01-27T14:44:30Z</time>
      </trkpt>
      <trkpt lat="47.27312" lon="-1.62379">
        <ele>90</ele>
        <time>2022-01-27T14:44:31Z</time>
      </trkpt>
      <trkpt lat="47.27311" lon="-1.62378">
        <ele>90</ele>
        <time>2022-01-27T14:44:32Z</time>
      </trkpt>
      <trkpt lat="47.2731" lon="-1.62377">
        <ele>90</ele>
        <time>2022-01-27T14:44:33Z</time>
      </trkpt>
      <trkpt lat="47.27309" lon="-1.62376">
        <ele>90</ele>
        <time>2022-01-27T14:44:34Z</time>
      </trkpt>
      <trkpt lat="47.27308" lon="-1.62375">
        <ele>90</ele>
        <time>2022-01-27T14:44:35Z</time>
      </trkpt>
      <trkpt lat="47.27307" lon="-1.62374">
        <ele>89</ele>
        <time>2022-01-27T14:44:36Z</time>
      </trkpt>
      <trkpt lat="47.27306" lon="-1.62373">
        <ele>89</ele>
        <time>2022-01-27T14:44:37Z</time>
      </trkpt>
      <trkpt lat="47.27305" lon="-1.62373">
        <ele>89</ele>
        <time>2022-01-27T14:44:38Z</time>
      </trkpt>
      <trkpt lat="47.27303" lon="-1.62371">
        <ele>89</ele>
        <time>2022-01-27T14:44:39Z</time>
      </trkpt>
      <trkpt lat="47.27302" lon="-1.62371">
        <ele>89</ele>
        <time>2022-01-27T14:44:40Z</time>
      </trkpt>
      <trkpt lat="47.27301" lon="-1.6237">
        <ele>89</ele>
        <time>2022-01-27T14:44:41Z</time>
      </trkpt>
      <trkpt lat="47.273" lon="-1.62369">
        <ele>89</ele>
        <time>2022-01-27T14:44:42Z</time>
      </trkpt>
      <trkpt lat="47.27299" lon="-1.62368">
        <ele>89</ele>
        <time>2022-01-27T14:44:43Z</time>
      </trkpt>
      <trkpt lat="47.27298" lon="-1.62368">
        <ele>89</ele>
        <time>2022-01-27T14:44:44Z</time>
      </trkpt>
      <trkpt lat="47.27297" lon="-1.62367">
        <ele>89</ele>
        <time>2022-01-27T14:44:45Z</time>
      </trkpt>
      <trkpt lat="47.27296" lon="-1.62366">
        <ele>89</ele>
        <time>2022-01-27T14:44:46Z</time>
      </trkpt>
      <trkpt lat="47.27295" lon="-1.62365">
        <ele>89</ele>
        <time>2022-01-27T14:44:47Z</time>
      </trkpt>
      <trkpt lat="47.27294" lon="-1.62364">
        <ele>89</ele>
        <time>2022-01-27T14:44:48Z</time>
      </trkpt>
      <trkpt lat="47.27293" lon="-1.62363">
        <ele>89</ele>
        <time>2022-01-27T14:44:49Z</time>
      </trkpt>
      <trkpt lat="47.27292" lon="-1.62362">
        <ele>89</ele>
        <time>2022-01-27T14:44:50Z</time>
      </trkpt>
      <trkpt lat="47.2729" lon="-1.62362">
        <ele>89</ele>
        <time>2022-01-27T14:44:51Z</time>
      </trkpt>
      <trkpt lat="47.27289" lon="-1.62361">
        <ele>88</ele>
        <time>2022-01-27T14:44:52Z</time>
      </trkpt>
      <trkpt lat="47.27288" lon="-1.6236">
        <ele>88</ele>
        <time>2022-01-27T14:44:53Z</time>
      </trkpt>
      <trkpt lat="47.27287" lon="-1.6236">
        <ele>88</ele>
        <time>2022-01-27T14:44:54Z</time>
      </trkpt>
      <trkpt lat="47.27286" lon="-1.62359">
        <ele>88</ele>
        <time>2022-01-27T14:44:55Z</time>
      </trkpt>
      <trkpt lat="47.27285" lon="-1.62358">
        <ele>88</ele>
        <time>2022-01-27T14:44:56Z</time>
      </trkpt>
      <trkpt lat="47.27283" lon="-1.62357">
        <ele>88</ele>
        <time>2022-01-27T14:44:57Z</time>
      </trkpt>
      <trkpt lat="47.27282" lon="-1.62357">
        <ele>88</ele>
        <time>2022-01-27T14:44:58Z</time>
      </trkpt>
      <trkpt lat="47.2728" lon="-1.62356">
        <ele>88</ele>
        <time>2022-01-27T14:44:59Z</time>
      </trkpt>
      <trkpt lat="47.27279" lon="-1.62356">
        <ele>88</ele>
        <time>2022-01-27T14:45:00Z</time>
      </trkpt>
      <trkpt lat="47.27278" lon="-1.62355">
        <ele>88</ele>
        <time>2022-01-27T14:45:01Z</time>
      </trkpt>
      <trkpt lat="47.27276" lon="-1.62354">
        <ele>88</ele>
        <time>2022-01-27T14:45:02Z</time>
      </trkpt>
      <trkpt lat="47.27275" lon="-1.62353">
        <ele>88</ele>
        <time>2022-01-27T14:45:03Z</time>
      </trkpt>
      <trkpt lat="47.27274" lon="-1.62352">
        <ele>88</ele>
        <time>2022-01-27T14:45:04Z</time>
      </trkpt>
      <trkpt lat="47.27272" lon="-1.62351">
        <ele>88</ele>
        <time>2022-01-27T14:45:05Z</time>
      </trkpt>
      <trkpt lat="47.27271" lon="-1.62351">
        <ele>88</ele>
        <time>2022-01-27T14:45:06Z</time>
      </trkpt>
      <trkpt lat="47.2727" lon="-1.6235">
        <ele>88</ele>
        <time>2022-01-27T14:45:07Z</time>
      </trkpt>
      <trkpt lat="47.27269" lon="-1.62349">
        <ele>88</ele>
        <time>2022-01-27T14:45:08Z</time>
      </trkpt>
      <trkpt lat="47.27268" lon="-1.62348">
        <ele>88</ele>
        <time>2022-01-27T14:45:09Z</time>
      </trkpt>
      <trkpt lat="47.27266" lon="-1.62347">
        <ele>88</ele>
        <time>2022-01-27T14:45:10Z</time>
      </trkpt>
      <trkpt lat="47.27265" lon="-1.62346">
        <ele>87</ele>
        <time>2022-01-27T14:45:11Z</time>
      </trkpt>
      <trkpt lat="47.27264" lon="-1.62346">
        <ele>87</ele>
        <time>2022-01-27T14:45:12Z</time>
      </trkpt>
      <trkpt lat="47.27263" lon="-1.62345">
        <ele>87</ele>
        <time>2022-01-27T14:45:13Z</time>
      </trkpt>
      <trkpt lat="47.27261" lon="-1.62344">
        <ele>87</ele>
        <time>2022-01-27T14:45:14Z</time>
      </trkpt>
      <trkpt lat="47.27261" lon="-1.62344">
        <ele>87</ele>
        <time>2022-01-27T14:45:15Z</time>
      </trkpt>
      <trkpt lat="47.27259" lon="-1.62343">
        <ele>87</ele>
        <time>2022-01-27T14:45:16Z</time>
      </trkpt>
      <trkpt lat="47.27258" lon="-1.62343">
        <ele>86</ele>
        <time>2022-01-27T14:45:17Z</time>
      </trkpt>
      <trkpt lat="47.27258" lon="-1.62342">
        <ele>86</ele>
        <time>2022-01-27T14:45:18Z</time>
      </trkpt>
      <trkpt lat="47.27256" lon="-1.62342">
        <ele>86</ele>
        <time>2022-01-27T14:45:19Z</time>
      </trkpt>
      <trkpt lat="47.27255" lon="-1.62341">
        <ele>86</ele>
        <time>2022-01-27T14:45:20Z</time>
      </trkpt>
      <trkpt lat="47.27254" lon="-1.62341">
        <ele>87</ele>
        <time>2022-01-27T14:45:21Z</time>
      </trkpt>
      <trkpt lat="47.27252" lon="-1.6234">
        <ele>86</ele>
        <time>2022-01-27T14:45:22Z</time>
      </trkpt>
      <trkpt lat="47.27251" lon="-1.6234">
        <ele>86</ele>
        <time>2022-01-27T14:45:23Z</time>
      </trkpt>
      <trkpt lat="47.2725" lon="-1.62339">
        <ele>86</ele>
        <time>2022-01-27T14:45:24Z</time>
      </trkpt>
      <trkpt lat="47.27248" lon="-1.62339">
        <ele>86</ele>
        <time>2022-01-27T14:45:25Z</time>
      </trkpt>
      <trkpt lat="47.27247" lon="-1.62339">
        <ele>87</ele>
        <time>2022-01-27T14:45:26Z</time>
      </trkpt>
      <trkpt lat="47.27246" lon="-1.62338">
        <ele>87</ele>
        <time>2022-01-27T14:45:27Z</time>
      </trkpt>
      <trkpt lat="47.27245" lon="-1.62338">
        <ele>87</ele>
        <time>2022-01-27T14:45:28Z</time>
      </trkpt>
      <trkpt lat="47.27243" lon="-1.62338">
        <ele>87</ele>
        <time>2022-01-27T14:45:29Z</time>
      </trkpt>
      <trkpt lat="47.27242" lon="-1.62338">
        <ele>87</ele>
        <time>2022-01-27T14:45:30Z</time>
      </trkpt>
      <trkpt lat="47.2724" lon="-1.62337">
        <ele>88</ele>
        <time>2022-01-27T14:45:31Z</time>
      </trkpt>
      <trkpt lat="47.27239" lon="-1.62337">
        <ele>88</ele>
        <time>2022-01-27T14:45:32Z</time>
      </trkpt>
      <trkpt lat="47.27238" lon="-1.62337">
        <ele>88</ele>
        <time>2022-01-27T14:45:33Z</time>
      </trkpt>
      <trkpt lat="47.27237" lon="-1.62336">
        <ele>88</ele>
        <time>2022-01-27T14:45:34Z</time>
      </trkpt>
      <trkpt lat="47.27235" lon="-1.62336">
        <ele>88</ele>
        <time>2022-01-27T14:45:35Z</time>
      </trkpt>
      <trkpt lat="47.27234" lon="-1.62336">
        <ele>88</ele>
        <time>2022-01-27T14:45:36Z</time>
      </trkpt>
      <trkpt lat="47.27233" lon="-1.62336">
        <ele>88</ele>
        <time>2022-01-27T14:45:37Z</time>
      </trkpt>
      <trkpt lat="47.27232" lon="-1.62335">
        <ele>88</ele>
        <time>2022-01-27T14:45:38Z</time>
      </trkpt>
      <trkpt lat="47.27231" lon="-1.62335">
        <ele>88</ele>
        <time>2022-01-27T14:45:39Z</time>
      </trkpt>
      <trkpt lat="47.27229" lon="-1.62334">
        <ele>88</ele>
        <time>2022-01-27T14:45:40Z</time>
      </trkpt>
      <trkpt lat="47.27228" lon="-1.62334">
        <ele>88</ele>
        <time>2022-01-27T14:45:41Z</time>
      </trkpt>
      <trkpt lat="47.27227" lon="-1.62334">
        <ele>88</ele>
        <time>2022-01-27T14:45:42Z</time>
      </trkpt>
      <trkpt lat="47.27226" lon="-1.62333">
        <ele>88</ele>
        <time>2022-01-27T14:45:43Z</time>
      </trkpt>
      <trkpt lat="47.27224" lon="-1.62333">
        <ele>88</ele>
        <time>2022-01-27T14:45:44Z</time>
      </trkpt>
      <trkpt lat="47.27222" lon="-1.62333">
        <ele>88</ele>
        <time>2022-01-27T14:45:45Z</time>
      </trkpt>
      <trkpt lat="47.27221" lon="-1.62333">
        <ele>88</ele>
        <time>2022-01-27T14:45:46Z</time>
      </trkpt>
      <trkpt lat="47.27219" lon="-1.62333">
        <ele>88</ele>
        <time>2022-01-27T14:45:47Z</time>
      </trkpt>
      <trkpt lat="47.27218" lon="-1.62333">
        <ele>88</ele>
        <time>2022-01-27T14:45:48Z</time>
      </trkpt>
      <trkpt lat="47.27217" lon="-1.62333">
        <ele>88</ele>
        <time>2022-01-27T14:45:49Z</time>
      </trkpt>
      <trkpt lat="47.27216" lon="-1.62332">
        <ele>88</ele>
        <time>2022-01-27T14:45:50Z</time>
      </trkpt>
      <trkpt lat="47.27215" lon="-1.62332">
        <ele>89</ele>
        <time>2022-01-27T14:45:51Z</time>
      </trkpt>
      <trkpt lat="47.27214" lon="-1.62331">
        <ele>89</ele>
        <time>2022-01-27T14:45:52Z</time>
      </trkpt>
      <trkpt lat="47.27213" lon="-1.62331">
        <ele>89</ele>
        <time>2022-01-27T14:45:53Z</time>
      </trkpt>
      <trkpt lat="47.27212" lon="-1.62331">
        <ele>89</ele>
        <time>2022-01-27T14:45:54Z</time>
      </trkpt>
      <trkpt lat="47.2721" lon="-1.6233">
        <ele>89</ele>
        <time>2022-01-27T14:45:55Z</time>
      </trkpt>
      <trkpt lat="47.27209" lon="-1.6233">
        <ele>89</ele>
        <time>2022-01-27T14:45:56Z</time>
      </trkpt>
      <trkpt lat="47.27207" lon="-1.6233">
        <ele>89</ele>
        <time>2022-01-27T14:45:57Z</time>
      </trkpt>
      <trkpt lat="47.27206" lon="-1.6233">
        <ele>90</ele>
        <time>2022-01-27T14:45:58Z</time>
      </trkpt>
      <trkpt lat="47.27204" lon="-1.6233">
        <ele>90</ele>
        <time>2022-01-27T14:45:59Z</time>
      </trkpt>
      <trkpt lat="47.27203" lon="-1.62329">
        <ele>90</ele>
        <time>2022-01-27T14:46:00Z</time>
      </trkpt>
      <trkpt lat="47.27202" lon="-1.62329">
        <ele>90</ele>
        <time>2022-01-27T14:46:01Z</time>
      </trkpt>
      <trkpt lat="47.272" lon="-1.62329">
        <ele>90</ele>
        <time>2022-01-27T14:46:02Z</time>
      </trkpt>
      <trkpt lat="47.27199" lon="-1.62328">
        <ele>90</ele>
        <time>2022-01-27T14:46:03Z</time>
      </trkpt>
      <trkpt lat="47.27197" lon="-1.62328">
        <ele>90</ele>
        <time>2022-01-27T14:46:04Z</time>
      </trkpt>
      <trkpt lat="47.27196" lon="-1.62328">
        <ele>90</ele>
        <time>2022-01-27T14:46:05Z</time>
      </trkpt>
      <trkpt lat="47.27195" lon="-1.62328">
        <ele>90</ele>
        <time>2022-01-27T14:46:06Z</time>
      </trkpt>
      <trkpt lat="47.27194" lon="-1.62328">
        <ele>90</ele>
        <time>2022-01-27T14:46:07Z</time>
      </trkpt>
      <trkpt lat="47.27192" lon="-1.62328">
        <ele>91</ele>
        <time>2022-01-27T14:46:08Z</time>
      </trkpt>
      <trkpt lat="47.27191" lon="-1.62328">
        <ele>91</ele>
        <time>2022-01-27T14:46:09Z</time>
      </trkpt>
      <trkpt lat="47.2719" lon="-1.62328">
        <ele>91</ele>
        <time>2022-01-27T14:46:10Z</time>
      </trkpt>
      <trkpt lat="47.27189" lon="-1.62328">
        <ele>91</ele>
        <time>2022-01-27T14:46:11Z</time>
      </trkpt>
      <trkpt lat="47.27187" lon="-1.62327">
        <ele>91</ele>
        <time>2022-01-27T14:46:12Z</time>
      </trkpt>
      <trkpt lat="47.27185" lon="-1.62327">
        <ele>91</ele>
        <time>2022-01-27T14:46:13Z</time>
      </trkpt>
      <trkpt lat="47.27184" lon="-1.62326">
        <ele>91</ele>
        <time>2022-01-27T14:46:14Z</time>
      </trkpt>
      <trkpt lat="47.27183" lon="-1.62325">
        <ele>91</ele>
        <time>2022-01-27T14:46:15Z</time>
      </trkpt>
      <trkpt lat="47.27182" lon="-1.62324">
        <ele>91</ele>
        <time>2022-01-27T14:46:16Z</time>
      </trkpt>
      <trkpt lat="47.27181" lon="-1.62324">
        <ele>91</ele>
        <time>2022-01-27T14:46:17Z</time>
      </trkpt>
      <trkpt lat="47.2718" lon="-1.62323">
        <ele>91</ele>
        <time>2022-01-27T14:46:18Z</time>
      </trkpt>
      <trkpt lat="47.27178" lon="-1.62323">
        <ele>91</ele>
        <time>2022-01-27T14:46:19Z</time>
      </trkpt>
      <trkpt lat="47.27177" lon="-1.62323">
        <ele>91</ele>
        <time>2022-01-27T14:46:20Z</time>
      </trkpt>
      <trkpt lat="47.27176" lon="-1.62323">
        <ele>91</ele>
        <time>2022-01-27T14:46:21Z</time>
      </trkpt>
      <trkpt lat="47.27175" lon="-1.62324">
        <ele>91</ele>
        <time>2022-01-27T14:46:22Z</time>
      </trkpt>
      <trkpt lat="47.27173" lon="-1.62324">
        <ele>91</ele>
        <time>2022-01-27T14:46:23Z</time>
      </trkpt>
      <trkpt lat="47.27172" lon="-1.62324">
        <ele>91</ele>
        <time>2022-01-27T14:46:24Z</time>
      </trkpt>
      <trkpt lat="47.27171" lon="-1.62323">
        <ele>90</ele>
        <time>2022-01-27T14:46:25Z</time>
      </trkpt>
      <trkpt lat="47.27169" lon="-1.62323">
        <ele>91</ele>
        <time>2022-01-27T14:46:26Z</time>
      </trkpt>
      <trkpt lat="47.27168" lon="-1.62323">
        <ele>91</ele>
        <time>2022-01-27T14:46:27Z</time>
      </trkpt>
      <trkpt lat="47.27166" lon="-1.62323">
        <ele>91</ele>
        <time>2022-01-27T14:46:28Z</time>
      </trkpt>
      <trkpt lat="47.27165" lon="-1.62323">
        <ele>91</ele>
        <time>2022-01-27T14:46:29Z</time>
      </trkpt>
      <trkpt lat="47.27164" lon="-1.62323">
        <ele>91</ele>
        <time>2022-01-27T14:46:30Z</time>
      </trkpt>
      <trkpt lat="47.27163" lon="-1.62322">
        <ele>91</ele>
        <time>2022-01-27T14:46:31Z</time>
      </trkpt>
      <trkpt lat="47.27161" lon="-1.62322">
        <ele>91</ele>
        <time>2022-01-27T14:46:32Z</time>
      </trkpt>
      <trkpt lat="47.2716" lon="-1.62322">
        <ele>91</ele>
        <time>2022-01-27T14:46:33Z</time>
      </trkpt>
      <trkpt lat="47.27159" lon="-1.62322">
        <ele>91</ele>
        <time>2022-01-27T14:46:34Z</time>
      </trkpt>
      <trkpt lat="47.27157" lon="-1.62321">
        <ele>91</ele>
        <time>2022-01-27T14:46:35Z</time>
      </trkpt>
      <trkpt lat="47.27156" lon="-1.62321">
        <ele>91</ele>
        <time>2022-01-27T14:46:36Z</time>
      </trkpt>
      <trkpt lat="47.27155" lon="-1.6232">
        <ele>92</ele>
        <time>2022-01-27T14:46:37Z</time>
      </trkpt>
      <trkpt lat="47.27154" lon="-1.62319">
        <ele>92</ele>
        <time>2022-01-27T14:46:38Z</time>
      </trkpt>
      <trkpt lat="47.27153" lon="-1.62319">
        <ele>92</ele>
        <time>2022-01-27T14:46:39Z</time>
      </trkpt>
      <trkpt lat="47.27153" lon="-1.62318">
        <ele>92</ele>
        <time>2022-01-27T14:46:40Z</time>
      </trkpt>
      <trkpt lat="47.27152" lon="-1.62317">
        <ele>92</ele>
        <time>2022-01-27T14:46:41Z</time>
      </trkpt>
      <trkpt lat="47.2715" lon="-1.62316">
        <ele>92</ele>
        <time>2022-01-27T14:46:42Z</time>
      </trkpt>
      <trkpt lat="47.27149" lon="-1.62315">
        <ele>92</ele>
        <time>2022-01-27T14:46:43Z</time>
      </trkpt>
      <trkpt lat="47.27148" lon="-1.62314">
        <ele>92</ele>
        <time>2022-01-27T14:46:44Z</time>
      </trkpt>
      <trkpt lat="47.27147" lon="-1.62313">
        <ele>93</ele>
        <time>2022-01-27T14:46:45Z</time>
      </trkpt>
      <trkpt lat="47.27145" lon="-1.62312">
        <ele>93</ele>
        <time>2022-01-27T14:46:46Z</time>
      </trkpt>
      <trkpt lat="47.27144" lon="-1.62312">
        <ele>93</ele>
        <time>2022-01-27T14:46:47Z</time>
      </trkpt>
      <trkpt lat="47.27142" lon="-1.62311">
        <ele>93</ele>
        <time>2022-01-27T14:46:48Z</time>
      </trkpt>
      <trkpt lat="47.27142" lon="-1.62309">
        <ele>93</ele>
        <time>2022-01-27T14:46:49Z</time>
      </trkpt>
      <trkpt lat="47.27142" lon="-1.62307">
        <ele>93</ele>
        <time>2022-01-27T14:46:50Z</time>
      </trkpt>
      <trkpt lat="47.27142" lon="-1.62304">
        <ele>93</ele>
        <time>2022-01-27T14:46:51Z</time>
      </trkpt>
      <trkpt lat="47.27142" lon="-1.623">
        <ele>92</ele>
        <time>2022-01-27T14:46:52Z</time>
      </trkpt>
      <trkpt lat="47.27142" lon="-1.62297">
        <ele>91</ele>
        <time>2022-01-27T14:46:53Z</time>
      </trkpt>
      <trkpt lat="47.27143" lon="-1.62295">
        <ele>91</ele>
        <time>2022-01-27T14:46:54Z</time>
      </trkpt>
      <trkpt lat="47.27144" lon="-1.62294">
        <ele>90</ele>
        <time>2022-01-27T14:46:55Z</time>
      </trkpt>
      <trkpt lat="47.27145" lon="-1.62293">
        <ele>90</ele>
        <time>2022-01-27T14:46:56Z</time>
      </trkpt>
      <trkpt lat="47.27145" lon="-1.62291">
        <ele>90</ele>
        <time>2022-01-27T14:46:57Z</time>
      </trkpt>
      <trkpt lat="47.27145" lon="-1.6229">
        <ele>89</ele>
        <time>2022-01-27T14:46:58Z</time>
      </trkpt>
      <trkpt lat="47.27146" lon="-1.62287">
        <ele>88</ele>
        <time>2022-01-27T14:46:59Z</time>
      </trkpt>
      <trkpt lat="47.27146" lon="-1.62285">
        <ele>88</ele>
        <time>2022-01-27T14:47:00Z</time>
      </trkpt>
      <trkpt lat="47.27147" lon="-1.62283">
        <ele>88</ele>
        <time>2022-01-27T14:47:01Z</time>
      </trkpt>
      <trkpt lat="47.27147" lon="-1.62281">
        <ele>87</ele>
        <time>2022-01-27T14:47:02Z</time>
      </trkpt>
      <trkpt lat="47.27147" lon="-1.6228">
        <ele>87</ele>
        <time>2022-01-27T14:47:03Z</time>
      </trkpt>
      <trkpt lat="47.27148" lon="-1.62278">
        <ele>86</ele>
        <time>2022-01-27T14:47:04Z</time>
      </trkpt>
      <trkpt lat="47.27148" lon="-1.62276">
        <ele>86</ele>
        <time>2022-01-27T14:47:05Z</time>
      </trkpt>
      <trkpt lat="47.27149" lon="-1.62275">
        <ele>85</ele>
        <time>2022-01-27T14:47:06Z</time>
      </trkpt>
      <trkpt lat="47.2715" lon="-1.62273">
        <ele>85</ele>
        <time>2022-01-27T14:47:07Z</time>
      </trkpt>
      <trkpt lat="47.2715" lon="-1.62272">
        <ele>85</ele>
        <time>2022-01-27T14:47:08Z</time>
      </trkpt>
      <trkpt lat="47.27151" lon="-1.6227">
        <ele>85</ele>
        <time>2022-01-27T14:47:09Z</time>
      </trkpt>
      <trkpt lat="47.27152" lon="-1.62268">
        <ele>84</ele>
        <time>2022-01-27T14:47:10Z</time>
      </trkpt>
      <trkpt lat="47.27152" lon="-1.62267">
        <ele>84</ele>
        <time>2022-01-27T14:47:11Z</time>
      </trkpt>
      <trkpt lat="47.27153" lon="-1.62265">
        <ele>83</ele>
        <time>2022-01-27T14:47:12Z</time>
      </trkpt>
      <trkpt lat="47.27153" lon="-1.62264">
        <ele>83</ele>
        <time>2022-01-27T14:47:13Z</time>
      </trkpt>
      <trkpt lat="47.27154" lon="-1.62263">
        <ele>83</ele>
        <time>2022-01-27T14:47:14Z</time>
      </trkpt>
      <trkpt lat="47.27154" lon="-1.62262">
        <ele>83</ele>
        <time>2022-01-27T14:47:15Z</time>
      </trkpt>
      <trkpt lat="47.27155" lon="-1.62261">
        <ele>83</ele>
        <time>2022-01-27T14:47:16Z</time>
      </trkpt>
      <trkpt lat="47.27155" lon="-1.62259">
        <ele>82</ele>
        <time>2022-01-27T14:47:17Z</time>
      </trkpt>
      <trkpt lat="47.27156" lon="-1.62258">
        <ele>82</ele>
        <time>2022-01-27T14:47:18Z</time>
      </trkpt>
      <trkpt lat="47.27157" lon="-1.62256">
        <ele>82</ele>
        <time>2022-01-27T14:47:19Z</time>
      </trkpt>
      <trkpt lat="47.27157" lon="-1.62254">
        <ele>82</ele>
        <time>2022-01-27T14:47:20Z</time>
      </trkpt>
      <trkpt lat="47.27158" lon="-1.62252">
        <ele>82</ele>
        <time>2022-01-27T14:47:21Z</time>
      </trkpt>
      <trkpt lat="47.27159" lon="-1.62251">
        <ele>82</ele>
        <time>2022-01-27T14:47:22Z</time>
      </trkpt>
      <trkpt lat="47.27159" lon="-1.6225">
        <ele>82</ele>
        <time>2022-01-27T14:47:23Z</time>
      </trkpt>
      <trkpt lat="47.27159" lon="-1.6225">
        <ele>82</ele>
        <time>2022-01-27T14:47:24Z</time>
      </trkpt>
      <trkpt lat="47.27158" lon="-1.6225">
        <ele>82</ele>
        <time>2022-01-27T14:47:25Z</time>
      </trkpt>
      <trkpt lat="47.27159" lon="-1.6225">
        <ele>82</ele>
        <time>2022-01-27T14:47:26Z</time>
      </trkpt>
      <trkpt lat="47.27159" lon="-1.6225">
        <ele>82</ele>
        <time>2022-01-27T14:47:27Z</time>
      </trkpt>
      <trkpt lat="47.27158" lon="-1.62251">
        <ele>82</ele>
        <time>2022-01-27T14:47:28Z</time>
      </trkpt>
      <trkpt lat="47.27157" lon="-1.62252">
        <ele>82</ele>
        <time>2022-01-27T14:47:29Z</time>
      </trkpt>
      <trkpt lat="47.27157" lon="-1.62251">
        <ele>82</ele>
        <time>2022-01-27T14:47:30Z</time>
      </trkpt>
      <trkpt lat="47.27157" lon="-1.62251">
        <ele>82</ele>
        <time>2022-01-27T14:47:31Z</time>
      </trkpt>
      <trkpt lat="47.27157" lon="-1.6225">
        <ele>82</ele>
        <time>2022-01-27T14:47:32Z</time>
      </trkpt>
      <trkpt lat="47.27157" lon="-1.6225">
        <ele>82</ele>
        <time>2022-01-27T14:47:33Z</time>
      </trkpt>
      <trkpt lat="47.27157" lon="-1.62251">
        <ele>82</ele>
        <time>2022-01-27T14:47:34Z</time>
      </trkpt>
      <trkpt lat="47.27157" lon="-1.62251">
        <ele>82</ele>
        <time>2022-01-27T14:47:34Z</time>
      </trkpt>
      <trkpt lat="47.27157" lon="-1.62251">
        <ele>82</ele>
        <time>2022-01-27T14:47:34Z</time>
      </trkpt>
      <trkpt lat="47.27161" lon="-1.62227">
        <ele>84</ele>
        <time>2022-01-27T14:48:39Z</time>
      </trkpt>
      <trkpt lat="47.27161" lon="-1.62225">
        <ele>84</ele>
        <time>2022-01-27T14:48:40Z</time>
      </trkpt>
      <trkpt lat="47.27161" lon="-1.62224">
        <ele>85</ele>
        <time>2022-01-27T14:48:41Z</time>
      </trkpt>
      <trkpt lat="47.27161" lon="-1.62222">
        <ele>85</ele>
        <time>2022-01-27T14:48:42Z</time>
      </trkpt>
      <trkpt lat="47.27161" lon="-1.62221">
        <ele>85</ele>
        <time>2022-01-27T14:48:43Z</time>
      </trkpt>
      <trkpt lat="47.27161" lon="-1.62221">
        <ele>85</ele>
        <time>2022-01-27T14:48:44Z</time>
      </trkpt>
      <trkpt lat="47.27161" lon="-1.6222">
        <ele>86</ele>
        <time>2022-01-27T14:48:45Z</time>
      </trkpt>
      <trkpt lat="47.27162" lon="-1.6222">
        <ele>87</ele>
        <time>2022-01-27T14:48:46Z</time>
      </trkpt>
      <trkpt lat="47.27162" lon="-1.62221">
        <ele>87</ele>
        <time>2022-01-27T14:48:47Z</time>
      </trkpt>
      <trkpt lat="47.27162" lon="-1.62221">
        <ele>87</ele>
        <time>2022-01-27T14:48:48Z</time>
      </trkpt>
      <trkpt lat="47.27162" lon="-1.62221">
        <ele>87</ele>
        <time>2022-01-27T14:48:48Z</time>
      </trkpt>
      <trkpt lat="47.27162" lon="-1.62221">
        <ele>87</ele>
        <time>2022-01-27T14:48:48Z</time>
      </trkpt>
      <trkpt lat="47.27163" lon="-1.62214">
        <ele>86</ele>
        <time>2022-01-27T14:48:54Z</time>
      </trkpt>
      <trkpt lat="47.27164" lon="-1.62212">
        <ele>86</ele>
        <time>2022-01-27T14:48:55Z</time>
      </trkpt>
      <trkpt lat="47.27164" lon="-1.62211">
        <ele>86</ele>
        <time>2022-01-27T14:48:56Z</time>
      </trkpt>
      <trkpt lat="47.27164" lon="-1.6221">
        <ele>86</ele>
        <time>2022-01-27T14:48:57Z</time>
      </trkpt>
      <trkpt lat="47.27165" lon="-1.62209">
        <ele>86</ele>
        <time>2022-01-27T14:48:58Z</time>
      </trkpt>
      <trkpt lat="47.27165" lon="-1.62208">
        <ele>86</ele>
        <time>2022-01-27T14:48:59Z</time>
      </trkpt>
      <trkpt lat="47.27165" lon="-1.62206">
        <ele>86</ele>
        <time>2022-01-27T14:49:00Z</time>
      </trkpt>
      <trkpt lat="47.27165" lon="-1.62205">
        <ele>85</ele>
        <time>2022-01-27T14:49:01Z</time>
      </trkpt>
      <trkpt lat="47.27166" lon="-1.62203">
        <ele>85</ele>
        <time>2022-01-27T14:49:02Z</time>
      </trkpt>
      <trkpt lat="47.27166" lon="-1.62202">
        <ele>85</ele>
        <time>2022-01-27T14:49:03Z</time>
      </trkpt>
      <trkpt lat="47.27167" lon="-1.62201">
        <ele>85</ele>
        <time>2022-01-27T14:49:04Z</time>
      </trkpt>
      <trkpt lat="47.27167" lon="-1.62199">
        <ele>85</ele>
        <time>2022-01-27T14:49:05Z</time>
      </trkpt>
      <trkpt lat="47.27168" lon="-1.62198">
        <ele>85</ele>
        <time>2022-01-27T14:49:06Z</time>
      </trkpt>
      <trkpt lat="47.27168" lon="-1.62196">
        <ele>85</ele>
        <time>2022-01-27T14:49:07Z</time>
      </trkpt>
      <trkpt lat="47.27169" lon="-1.62194">
        <ele>85</ele>
        <time>2022-01-27T14:49:08Z</time>
      </trkpt>
      <trkpt lat="47.27169" lon="-1.62193">
        <ele>85</ele>
        <time>2022-01-27T14:49:09Z</time>
      </trkpt>
      <trkpt lat="47.2717" lon="-1.62191">
        <ele>85</ele>
        <time>2022-01-27T14:49:10Z</time>
      </trkpt>
      <trkpt lat="47.27171" lon="-1.62188">
        <ele>85</ele>
        <time>2022-01-27T14:49:11Z</time>
      </trkpt>
      <trkpt lat="47.27171" lon="-1.62187">
        <ele>85</ele>
        <time>2022-01-27T14:49:12Z</time>
      </trkpt>
      <trkpt lat="47.27172" lon="-1.62185">
        <ele>85</ele>
        <time>2022-01-27T14:49:13Z</time>
      </trkpt>
      <trkpt lat="47.27173" lon="-1.62184">
        <ele>85</ele>
        <time>2022-01-27T14:49:14Z</time>
      </trkpt>
      <trkpt lat="47.27173" lon="-1.62182">
        <ele>85</ele>
        <time>2022-01-27T14:49:15Z</time>
      </trkpt>
      <trkpt lat="47.27173" lon="-1.6218">
        <ele>85</ele>
        <time>2022-01-27T14:49:16Z</time>
      </trkpt>
      <trkpt lat="47.27174" lon="-1.62179">
        <ele>84</ele>
        <time>2022-01-27T14:49:17Z</time>
      </trkpt>
      <trkpt lat="47.27174" lon="-1.62177">
        <ele>84</ele>
        <time>2022-01-27T14:49:18Z</time>
      </trkpt>
      <trkpt lat="47.27175" lon="-1.62174">
        <ele>85</ele>
        <time>2022-01-27T14:49:19Z</time>
      </trkpt>
      <trkpt lat="47.27176" lon="-1.62173">
        <ele>84</ele>
        <time>2022-01-27T14:49:20Z</time>
      </trkpt>
      <trkpt lat="47.27176" lon="-1.62171">
        <ele>84</ele>
        <time>2022-01-27T14:49:21Z</time>
      </trkpt>
      <trkpt lat="47.27177" lon="-1.62169">
        <ele>84</ele>
        <time>2022-01-27T14:49:22Z</time>
      </trkpt>
      <trkpt lat="47.27177" lon="-1.62167">
        <ele>83</ele>
        <time>2022-01-27T14:49:23Z</time>
      </trkpt>
      <trkpt lat="47.27178" lon="-1.62165">
        <ele>83</ele>
        <time>2022-01-27T14:49:24Z</time>
      </trkpt>
      <trkpt lat="47.27179" lon="-1.62164">
        <ele>83</ele>
        <time>2022-01-27T14:49:25Z</time>
      </trkpt>
      <trkpt lat="47.27179" lon="-1.62162">
        <ele>83</ele>
        <time>2022-01-27T14:49:26Z</time>
      </trkpt>
      <trkpt lat="47.2718" lon="-1.6216">
        <ele>83</ele>
        <time>2022-01-27T14:49:27Z</time>
      </trkpt>
      <trkpt lat="47.27181" lon="-1.62158">
        <ele>83</ele>
        <time>2022-01-27T14:49:28Z</time>
      </trkpt>
      <trkpt lat="47.27182" lon="-1.62157">
        <ele>83</ele>
        <time>2022-01-27T14:49:29Z</time>
      </trkpt>
      <trkpt lat="47.27182" lon="-1.62155">
        <ele>83</ele>
        <time>2022-01-27T14:49:30Z</time>
      </trkpt>
      <trkpt lat="47.27183" lon="-1.62154">
        <ele>83</ele>
        <time>2022-01-27T14:49:31Z</time>
      </trkpt>
      <trkpt lat="47.27184" lon="-1.62152">
        <ele>83</ele>
        <time>2022-01-27T14:49:32Z</time>
      </trkpt>
      <trkpt lat="47.27184" lon="-1.6215">
        <ele>83</ele>
        <time>2022-01-27T14:49:33Z</time>
      </trkpt>
      <trkpt lat="47.27185" lon="-1.62149">
        <ele>83</ele>
        <time>2022-01-27T14:49:34Z</time>
      </trkpt>
      <trkpt lat="47.27186" lon="-1.62147">
        <ele>83</ele>
        <time>2022-01-27T14:49:35Z</time>
      </trkpt>
      <trkpt lat="47.27186" lon="-1.62146">
        <ele>83</ele>
        <time>2022-01-27T14:49:36Z</time>
      </trkpt>
      <trkpt lat="47.27187" lon="-1.62144">
        <ele>82</ele>
        <time>2022-01-27T14:49:37Z</time>
      </trkpt>
      <trkpt lat="47.27187" lon="-1.62143">
        <ele>82</ele>
        <time>2022-01-27T14:49:38Z</time>
      </trkpt>
      <trkpt lat="47.27188" lon="-1.62141">
        <ele>82</ele>
        <time>2022-01-27T14:49:39Z</time>
      </trkpt>
      <trkpt lat="47.27189" lon="-1.6214">
        <ele>82</ele>
        <time>2022-01-27T14:49:40Z</time>
      </trkpt>
      <trkpt lat="47.27189" lon="-1.62138">
        <ele>82</ele>
        <time>2022-01-27T14:49:41Z</time>
      </trkpt>
      <trkpt lat="47.2719" lon="-1.62137">
        <ele>82</ele>
        <time>2022-01-27T14:49:42Z</time>
      </trkpt>
      <trkpt lat="47.27191" lon="-1.62135">
        <ele>82</ele>
        <time>2022-01-27T14:49:43Z</time>
      </trkpt>
      <trkpt lat="47.27191" lon="-1.62133">
        <ele>82</ele>
        <time>2022-01-27T14:49:44Z</time>
      </trkpt>
      <trkpt lat="47.27192" lon="-1.62131">
        <ele>81</ele>
        <time>2022-01-27T14:49:45Z</time>
      </trkpt>
      <trkpt lat="47.27193" lon="-1.6213">
        <ele>81</ele>
        <time>2022-01-27T14:49:46Z</time>
      </trkpt>
      <trkpt lat="47.27194" lon="-1.62128">
        <ele>81</ele>
        <time>2022-01-27T14:49:47Z</time>
      </trkpt>
      <trkpt lat="47.27194" lon="-1.62127">
        <ele>81</ele>
        <time>2022-01-27T14:49:48Z</time>
      </trkpt>
      <trkpt lat="47.27194" lon="-1.62127">
        <ele>81</ele>
        <time>2022-01-27T14:49:49Z</time>
      </trkpt>
      <trkpt lat="47.27194" lon="-1.62127">
        <ele>81</ele>
        <time>2022-01-27T14:49:50Z</time>
      </trkpt>
      <trkpt lat="47.27194" lon="-1.62127">
        <ele>81</ele>
        <time>2022-01-27T14:49:51Z</time>
      </trkpt>
      <trkpt lat="47.27194" lon="-1.62126">
        <ele>81</ele>
        <time>2022-01-27T14:49:52Z</time>
      </trkpt>
      <trkpt lat="47.27194" lon="-1.62126">
        <ele>81</ele>
        <time>2022-01-27T14:49:53Z</time>
      </trkpt>
      <trkpt lat="47.27194" lon="-1.62126">
        <ele>81</ele>
        <time>2022-01-27T14:49:53Z</time>
      </trkpt>
      <trkpt lat="47.27194" lon="-1.62126">
        <ele>81</ele>
        <time>2022-01-27T14:49:53Z</time>
      </trkpt>
      <trkpt lat="47.27197" lon="-1.62118">
        <ele>82</ele>
        <time>2022-01-27T14:50:01Z</time>
      </trkpt>
      <trkpt lat="47.27198" lon="-1.62117">
        <ele>82</ele>
        <time>2022-01-27T14:50:02Z</time>
      </trkpt>
      <trkpt lat="47.27198" lon="-1.62115">
        <ele>82</ele>
        <time>2022-01-27T14:50:03Z</time>
      </trkpt>
      <trkpt lat="47.27199" lon="-1.62113">
        <ele>82</ele>
        <time>2022-01-27T14:50:04Z</time>
      </trkpt>
      <trkpt lat="47.272" lon="-1.62111">
        <ele>82</ele>
        <time>2022-01-27T14:50:05Z</time>
      </trkpt>
      <trkpt lat="47.272" lon="-1.62109">
        <ele>83</ele>
        <time>2022-01-27T14:50:06Z</time>
      </trkpt>
      <trkpt lat="47.272" lon="-1.62108">
        <ele>82</ele>
        <time>2022-01-27T14:50:07Z</time>
      </trkpt>
      <trkpt lat="47.27201" lon="-1.62106">
        <ele>82</ele>
        <time>2022-01-27T14:50:08Z</time>
      </trkpt>
      <trkpt lat="47.27202" lon="-1.62104">
        <ele>82</ele>
        <time>2022-01-27T14:50:09Z</time>
      </trkpt>
      <trkpt lat="47.27202" lon="-1.62102">
        <ele>82</ele>
        <time>2022-01-27T14:50:10Z</time>
      </trkpt>
      <trkpt lat="47.27203" lon="-1.621">
        <ele>83</ele>
        <time>2022-01-27T14:50:11Z</time>
      </trkpt>
      <trkpt lat="47.27203" lon="-1.62099">
        <ele>83</ele>
        <time>2022-01-27T14:50:12Z</time>
      </trkpt>
      <trkpt lat="47.27204" lon="-1.62097">
        <ele>83</ele>
        <time>2022-01-27T14:50:13Z</time>
      </trkpt>
      <trkpt lat="47.27205" lon="-1.62095">
        <ele>83</ele>
        <time>2022-01-27T14:50:14Z</time>
      </trkpt>
      <trkpt lat="47.27205" lon="-1.62093">
        <ele>83</ele>
        <time>2022-01-27T14:50:15Z</time>
      </trkpt>
      <trkpt lat="47.27206" lon="-1.62091">
        <ele>83</ele>
        <time>2022-01-27T14:50:16Z</time>
      </trkpt>
      <trkpt lat="47.27207" lon="-1.6209">
        <ele>83</ele>
        <time>2022-01-27T14:50:17Z</time>
      </trkpt>
      <trkpt lat="47.27208" lon="-1.62089">
        <ele>83</ele>
        <time>2022-01-27T14:50:18Z</time>
      </trkpt>
      <trkpt lat="47.27209" lon="-1.62087">
        <ele>84</ele>
        <time>2022-01-27T14:50:19Z</time>
      </trkpt>
      <trkpt lat="47.2721" lon="-1.62086">
        <ele>84</ele>
        <time>2022-01-27T14:50:20Z</time>
      </trkpt>
      <trkpt lat="47.2721" lon="-1.62084">
        <ele>84</ele>
        <time>2022-01-27T14:50:21Z</time>
      </trkpt>
      <trkpt lat="47.27211" lon="-1.62082">
        <ele>84</ele>
        <time>2022-01-27T14:50:22Z</time>
      </trkpt>
      <trkpt lat="47.27212" lon="-1.62081">
        <ele>84</ele>
        <time>2022-01-27T14:50:23Z</time>
      </trkpt>
      <trkpt lat="47.27213" lon="-1.62079">
        <ele>85</ele>
        <time>2022-01-27T14:50:24Z</time>
      </trkpt>
      <trkpt lat="47.27213" lon="-1.62077">
        <ele>85</ele>
        <time>2022-01-27T14:50:25Z</time>
      </trkpt>
      <trkpt lat="47.27213" lon="-1.62075">
        <ele>85</ele>
        <time>2022-01-27T14:50:26Z</time>
      </trkpt>
      <trkpt lat="47.27213" lon="-1.62074">
        <ele>85</ele>
        <time>2022-01-27T14:50:27Z</time>
      </trkpt>
      <trkpt lat="47.27213" lon="-1.62073">
        <ele>85</ele>
        <time>2022-01-27T14:50:28Z</time>
      </trkpt>
      <trkpt lat="47.27213" lon="-1.62072">
        <ele>85</ele>
        <time>2022-01-27T14:50:29Z</time>
      </trkpt>
      <trkpt lat="47.27214" lon="-1.6207">
        <ele>86</ele>
        <time>2022-01-27T14:50:30Z</time>
      </trkpt>
      <trkpt lat="47.27214" lon="-1.62069">
        <ele>86</ele>
        <time>2022-01-27T14:50:31Z</time>
      </trkpt>
      <trkpt lat="47.27215" lon="-1.62068">
        <ele>86</ele>
        <time>2022-01-27T14:50:32Z</time>
      </trkpt>
      <trkpt lat="47.27216" lon="-1.62068">
        <ele>86</ele>
        <time>2022-01-27T14:50:33Z</time>
      </trkpt>
      <trkpt lat="47.27216" lon="-1.62067">
        <ele>86</ele>
        <time>2022-01-27T14:50:34Z</time>
      </trkpt>
      <trkpt lat="47.27217" lon="-1.62066">
        <ele>86</ele>
        <time>2022-01-27T14:50:35Z</time>
      </trkpt>
      <trkpt lat="47.27218" lon="-1.62065">
        <ele>86</ele>
        <time>2022-01-27T14:50:36Z</time>
      </trkpt>
      <trkpt lat="47.27218" lon="-1.62064">
        <ele>86</ele>
        <time>2022-01-27T14:50:37Z</time>
      </trkpt>
      <trkpt lat="47.27219" lon="-1.62062">
        <ele>86</ele>
        <time>2022-01-27T14:50:38Z</time>
      </trkpt>
      <trkpt lat="47.2722" lon="-1.62061">
        <ele>86</ele>
        <time>2022-01-27T14:50:39Z</time>
      </trkpt>
      <trkpt lat="47.27221" lon="-1.62059">
        <ele>86</ele>
        <time>2022-01-27T14:50:40Z</time>
      </trkpt>
      <trkpt lat="47.27222" lon="-1.62057">
        <ele>85</ele>
        <time>2022-01-27T14:50:41Z</time>
      </trkpt>
      <trkpt lat="47.27222" lon="-1.62056">
        <ele>85</ele>
        <time>2022-01-27T14:50:42Z</time>
      </trkpt>
      <trkpt lat="47.27223" lon="-1.62054">
        <ele>85</ele>
        <time>2022-01-27T14:50:43Z</time>
      </trkpt>
      <trkpt lat="47.27224" lon="-1.62053">
        <ele>85</ele>
        <time>2022-01-27T14:50:44Z</time>
      </trkpt>
      <trkpt lat="47.27225" lon="-1.62052">
        <ele>85</ele>
        <time>2022-01-27T14:50:45Z</time>
      </trkpt>
      <trkpt lat="47.27226" lon="-1.6205">
        <ele>84</ele>
        <time>2022-01-27T14:50:46Z</time>
      </trkpt>
      <trkpt lat="47.27226" lon="-1.62048">
        <ele>84</ele>
        <time>2022-01-27T14:50:47Z</time>
      </trkpt>
      <trkpt lat="47.27227" lon="-1.62047">
        <ele>84</ele>
        <time>2022-01-27T14:50:48Z</time>
      </trkpt>
      <trkpt lat="47.27227" lon="-1.62045">
        <ele>84</ele>
        <time>2022-01-27T14:50:49Z</time>
      </trkpt>
      <trkpt lat="47.27228" lon="-1.62043">
        <ele>83</ele>
        <time>2022-01-27T14:50:50Z</time>
      </trkpt>
      <trkpt lat="47.27228" lon="-1.62042">
        <ele>83</ele>
        <time>2022-01-27T14:50:51Z</time>
      </trkpt>
      <trkpt lat="47.27229" lon="-1.6204">
        <ele>83</ele>
        <time>2022-01-27T14:50:52Z</time>
      </trkpt>
      <trkpt lat="47.27229" lon="-1.62038">
        <ele>83</ele>
        <time>2022-01-27T14:50:53Z</time>
      </trkpt>
      <trkpt lat="47.2723" lon="-1.62036">
        <ele>83</ele>
        <time>2022-01-27T14:50:54Z</time>
      </trkpt>
      <trkpt lat="47.2723" lon="-1.62035">
        <ele>83</ele>
        <time>2022-01-27T14:50:55Z</time>
      </trkpt>
      <trkpt lat="47.27231" lon="-1.62032">
        <ele>83</ele>
        <time>2022-01-27T14:50:56Z</time>
      </trkpt>
      <trkpt lat="47.27231" lon="-1.62031">
        <ele>83</ele>
        <time>2022-01-27T14:50:57Z</time>
      </trkpt>
      <trkpt lat="47.27232" lon="-1.62029">
        <ele>83</ele>
        <time>2022-01-27T14:50:58Z</time>
      </trkpt>
      <trkpt lat="47.27232" lon="-1.62026">
        <ele>82</ele>
        <time>2022-01-27T14:50:59Z</time>
      </trkpt>
      <trkpt lat="47.27233" lon="-1.62024">
        <ele>82</ele>
        <time>2022-01-27T14:51:00Z</time>
      </trkpt>
      <trkpt lat="47.27233" lon="-1.62023">
        <ele>82</ele>
        <time>2022-01-27T14:51:01Z</time>
      </trkpt>
      <trkpt lat="47.27234" lon="-1.62022">
        <ele>82</ele>
        <time>2022-01-27T14:51:02Z</time>
      </trkpt>
      <trkpt lat="47.27234" lon="-1.62021">
        <ele>82</ele>
        <time>2022-01-27T14:51:03Z</time>
      </trkpt>
      <trkpt lat="47.27234" lon="-1.62019">
        <ele>82</ele>
        <time>2022-01-27T14:51:04Z</time>
      </trkpt>
      <trkpt lat="47.27235" lon="-1.62018">
        <ele>83</ele>
        <time>2022-01-27T14:51:05Z</time>
      </trkpt>
      <trkpt lat="47.27235" lon="-1.62016">
        <ele>83</ele>
        <time>2022-01-27T14:51:06Z</time>
      </trkpt>
      <trkpt lat="47.27236" lon="-1.62015">
        <ele>83</ele>
        <time>2022-01-27T14:51:07Z</time>
      </trkpt>
      <trkpt lat="47.27236" lon="-1.62014">
        <ele>82</ele>
        <time>2022-01-27T14:51:08Z</time>
      </trkpt>
      <trkpt lat="47.27237" lon="-1.62012">
        <ele>82</ele>
        <time>2022-01-27T14:51:09Z</time>
      </trkpt>
      <trkpt lat="47.27237" lon="-1.62011">
        <ele>82</ele>
        <time>2022-01-27T14:51:10Z</time>
      </trkpt>
      <trkpt lat="47.27237" lon="-1.62009">
        <ele>82</ele>
        <time>2022-01-27T14:51:11Z</time>
      </trkpt>
      <trkpt lat="47.27238" lon="-1.62008">
        <ele>83</ele>
        <time>2022-01-27T14:51:12Z</time>
      </trkpt>
      <trkpt lat="47.27239" lon="-1.62006">
        <ele>83</ele>
        <time>2022-01-27T14:51:13Z</time>
      </trkpt>
      <trkpt lat="47.27239" lon="-1.62003">
        <ele>83</ele>
        <time>2022-01-27T14:51:14Z</time>
      </trkpt>
      <trkpt lat="47.2724" lon="-1.62002">
        <ele>83</ele>
        <time>2022-01-27T14:51:15Z</time>
      </trkpt>
      <trkpt lat="47.2724" lon="-1.62">
        <ele>83</ele>
        <time>2022-01-27T14:51:16Z</time>
      </trkpt>
      <trkpt lat="47.2724" lon="-1.61999">
        <ele>83</ele>
        <time>2022-01-27T14:51:17Z</time>
      </trkpt>
      <trkpt lat="47.2724" lon="-1.61997">
        <ele>83</ele>
        <time>2022-01-27T14:51:18Z</time>
      </trkpt>
      <trkpt lat="47.2724" lon="-1.61996">
        <ele>82</ele>
        <time>2022-01-27T14:51:19Z</time>
      </trkpt>
      <trkpt lat="47.2724" lon="-1.61993">
        <ele>82</ele>
        <time>2022-01-27T14:51:20Z</time>
      </trkpt>
      <trkpt lat="47.27241" lon="-1.61991">
        <ele>82</ele>
        <time>2022-01-27T14:51:21Z</time>
      </trkpt>
      <trkpt lat="47.27241" lon="-1.61988">
        <ele>81</ele>
        <time>2022-01-27T14:51:22Z</time>
      </trkpt>
      <trkpt lat="47.27242" lon="-1.61987">
        <ele>81</ele>
        <time>2022-01-27T14:51:23Z</time>
      </trkpt>
      <trkpt lat="47.27242" lon="-1.61985">
        <ele>82</ele>
        <time>2022-01-27T14:51:24Z</time>
      </trkpt>
      <trkpt lat="47.27242" lon="-1.61982">
        <ele>82</ele>
        <time>2022-01-27T14:51:25Z</time>
      </trkpt>
      <trkpt lat="47.27243" lon="-1.6198">
        <ele>82</ele>
        <time>2022-01-27T14:51:26Z</time>
      </trkpt>
      <trkpt lat="47.27243" lon="-1.61979">
        <ele>83</ele>
        <time>2022-01-27T14:51:27Z</time>
      </trkpt>
      <trkpt lat="47.27244" lon="-1.61977">
        <ele>83</ele>
        <time>2022-01-27T14:51:28Z</time>
      </trkpt>
      <trkpt lat="47.27244" lon="-1.61975">
        <ele>83</ele>
        <time>2022-01-27T14:51:29Z</time>
      </trkpt>
      <trkpt lat="47.27245" lon="-1.61973">
        <ele>84</ele>
        <time>2022-01-27T14:51:30Z</time>
      </trkpt>
      <trkpt lat="47.27245" lon="-1.61972">
        <ele>84</ele>
        <time>2022-01-27T14:51:31Z</time>
      </trkpt>
      <trkpt lat="47.27246" lon="-1.6197">
        <ele>84</ele>
        <time>2022-01-27T14:51:32Z</time>
      </trkpt>
      <trkpt lat="47.27247" lon="-1.61968">
        <ele>84</ele>
        <time>2022-01-27T14:51:33Z</time>
      </trkpt>
      <trkpt lat="47.27247" lon="-1.61966">
        <ele>85</ele>
        <time>2022-01-27T14:51:34Z</time>
      </trkpt>
      <trkpt lat="47.27247" lon="-1.61964">
        <ele>85</ele>
        <time>2022-01-27T14:51:35Z</time>
      </trkpt>
      <trkpt lat="47.27248" lon="-1.61963">
        <ele>85</ele>
        <time>2022-01-27T14:51:36Z</time>
      </trkpt>
      <trkpt lat="47.27249" lon="-1.61961">
        <ele>85</ele>
        <time>2022-01-27T14:51:37Z</time>
      </trkpt>
      <trkpt lat="47.2725" lon="-1.6196">
        <ele>85</ele>
        <time>2022-01-27T14:51:38Z</time>
      </trkpt>
      <trkpt lat="47.2725" lon="-1.61959">
        <ele>85</ele>
        <time>2022-01-27T14:51:39Z</time>
      </trkpt>
      <trkpt lat="47.27251" lon="-1.61957">
        <ele>86</ele>
        <time>2022-01-27T14:51:40Z</time>
      </trkpt>
      <trkpt lat="47.27252" lon="-1.61955">
        <ele>86</ele>
        <time>2022-01-27T14:51:41Z</time>
      </trkpt>
      <trkpt lat="47.27253" lon="-1.61953">
        <ele>86</ele>
        <time>2022-01-27T14:51:42Z</time>
      </trkpt>
      <trkpt lat="47.27253" lon="-1.61952">
        <ele>86</ele>
        <time>2022-01-27T14:51:43Z</time>
      </trkpt>
      <trkpt lat="47.27254" lon="-1.6195">
        <ele>86</ele>
        <time>2022-01-27T14:51:44Z</time>
      </trkpt>
      <trkpt lat="47.27254" lon="-1.61948">
        <ele>86</ele>
        <time>2022-01-27T14:51:45Z</time>
      </trkpt>
      <trkpt lat="47.27255" lon="-1.61947">
        <ele>86</ele>
        <time>2022-01-27T14:51:46Z</time>
      </trkpt>
      <trkpt lat="47.27255" lon="-1.61945">
        <ele>86</ele>
        <time>2022-01-27T14:51:47Z</time>
      </trkpt>
      <trkpt lat="47.27256" lon="-1.61943">
        <ele>87</ele>
        <time>2022-01-27T14:51:48Z</time>
      </trkpt>
      <trkpt lat="47.27257" lon="-1.61942">
        <ele>87</ele>
        <time>2022-01-27T14:51:49Z</time>
      </trkpt>
      <trkpt lat="47.27257" lon="-1.6194">
        <ele>87</ele>
        <time>2022-01-27T14:51:50Z</time>
      </trkpt>
      <trkpt lat="47.27258" lon="-1.61938">
        <ele>86</ele>
        <time>2022-01-27T14:51:51Z</time>
      </trkpt>
      <trkpt lat="47.27258" lon="-1.61937">
        <ele>86</ele>
        <time>2022-01-27T14:51:52Z</time>
      </trkpt>
      <trkpt lat="47.27259" lon="-1.61935">
        <ele>87</ele>
        <time>2022-01-27T14:51:53Z</time>
      </trkpt>
      <trkpt lat="47.27259" lon="-1.61933">
        <ele>87</ele>
        <time>2022-01-27T14:51:54Z</time>
      </trkpt>
      <trkpt lat="47.2726" lon="-1.61932">
        <ele>87</ele>
        <time>2022-01-27T14:51:55Z</time>
      </trkpt>
      <trkpt lat="47.2726" lon="-1.61931">
        <ele>87</ele>
        <time>2022-01-27T14:51:56Z</time>
      </trkpt>
      <trkpt lat="47.27261" lon="-1.6193">
        <ele>87</ele>
        <time>2022-01-27T14:51:57Z</time>
      </trkpt>
      <trkpt lat="47.27261" lon="-1.61928">
        <ele>87</ele>
        <time>2022-01-27T14:51:58Z</time>
      </trkpt>
      <trkpt lat="47.27262" lon="-1.61926">
        <ele>87</ele>
        <time>2022-01-27T14:51:59Z</time>
      </trkpt>
      <trkpt lat="47.27263" lon="-1.61924">
        <ele>87</ele>
        <time>2022-01-27T14:52:00Z</time>
      </trkpt>
      <trkpt lat="47.27263" lon="-1.61922">
        <ele>87</ele>
        <time>2022-01-27T14:52:01Z</time>
      </trkpt>
      <trkpt lat="47.27263" lon="-1.61921">
        <ele>87</ele>
        <time>2022-01-27T14:52:02Z</time>
      </trkpt>
      <trkpt lat="47.27264" lon="-1.61919">
        <ele>87</ele>
        <time>2022-01-27T14:52:03Z</time>
      </trkpt>
      <trkpt lat="47.27264" lon="-1.61917">
        <ele>87</ele>
        <time>2022-01-27T14:52:04Z</time>
      </trkpt>
      <trkpt lat="47.27264" lon="-1.61915">
        <ele>87</ele>
        <time>2022-01-27T14:52:05Z</time>
      </trkpt>
      <trkpt lat="47.27265" lon="-1.61914">
        <ele>87</ele>
        <time>2022-01-27T14:52:06Z</time>
      </trkpt>
      <trkpt lat="47.27265" lon="-1.61913">
        <ele>88</ele>
        <time>2022-01-27T14:52:07Z</time>
      </trkpt>
      <trkpt lat="47.27266" lon="-1.61912">
        <ele>88</ele>
        <time>2022-01-27T14:52:08Z</time>
      </trkpt>
      <trkpt lat="47.27266" lon="-1.61911">
        <ele>89</ele>
        <time>2022-01-27T14:52:09Z</time>
      </trkpt>
      <trkpt lat="47.27267" lon="-1.61909">
        <ele>89</ele>
        <time>2022-01-27T14:52:10Z</time>
      </trkpt>
      <trkpt lat="47.27267" lon="-1.61907">
        <ele>89</ele>
        <time>2022-01-27T14:52:11Z</time>
      </trkpt>
      <trkpt lat="47.27268" lon="-1.61905">
        <ele>89</ele>
        <time>2022-01-27T14:52:12Z</time>
      </trkpt>
      <trkpt lat="47.27268" lon="-1.61903">
        <ele>88</ele>
        <time>2022-01-27T14:52:13Z</time>
      </trkpt>
      <trkpt lat="47.27269" lon="-1.61901">
        <ele>89</ele>
        <time>2022-01-27T14:52:14Z</time>
      </trkpt>
      <trkpt lat="47.27269" lon="-1.61899">
        <ele>89</ele>
        <time>2022-01-27T14:52:15Z</time>
      </trkpt>
      <trkpt lat="47.27269" lon="-1.61898">
        <ele>89</ele>
        <time>2022-01-27T14:52:16Z</time>
      </trkpt>
      <trkpt lat="47.27269" lon="-1.61896">
        <ele>88</ele>
        <time>2022-01-27T14:52:17Z</time>
      </trkpt>
      <trkpt lat="47.2727" lon="-1.61895">
        <ele>88</ele>
        <time>2022-01-27T14:52:18Z</time>
      </trkpt>
      <trkpt lat="47.27271" lon="-1.61893">
        <ele>88</ele>
        <time>2022-01-27T14:52:19Z</time>
      </trkpt>
      <trkpt lat="47.27271" lon="-1.61891">
        <ele>88</ele>
        <time>2022-01-27T14:52:20Z</time>
      </trkpt>
      <trkpt lat="47.27271" lon="-1.61889">
        <ele>89</ele>
        <time>2022-01-27T14:52:21Z</time>
      </trkpt>
      <trkpt lat="47.27272" lon="-1.61887">
        <ele>89</ele>
        <time>2022-01-27T14:52:22Z</time>
      </trkpt>
      <trkpt lat="47.27272" lon="-1.61885">
        <ele>89</ele>
        <time>2022-01-27T14:52:23Z</time>
      </trkpt>
      <trkpt lat="47.27272" lon="-1.61883">
        <ele>89</ele>
        <time>2022-01-27T14:52:24Z</time>
      </trkpt>
      <trkpt lat="47.27273" lon="-1.61881">
        <ele>90</ele>
        <time>2022-01-27T14:52:25Z</time>
      </trkpt>
      <trkpt lat="47.27273" lon="-1.61879">
        <ele>91</ele>
        <time>2022-01-27T14:52:26Z</time>
      </trkpt>
      <trkpt lat="47.27273" lon="-1.61878">
        <ele>91</ele>
        <time>2022-01-27T14:52:27Z</time>
      </trkpt>
      <trkpt lat="47.27274" lon="-1.61876">
        <ele>90</ele>
        <time>2022-01-27T14:52:28Z</time>
      </trkpt>
      <trkpt lat="47.27274" lon="-1.61875">
        <ele>89</ele>
        <time>2022-01-27T14:52:29Z</time>
      </trkpt>
      <trkpt lat="47.27274" lon="-1.61873">
        <ele>89</ele>
        <time>2022-01-27T14:52:30Z</time>
      </trkpt>
      <trkpt lat="47.27275" lon="-1.61871">
        <ele>90</ele>
        <time>2022-01-27T14:52:31Z</time>
      </trkpt>
      <trkpt lat="47.27276" lon="-1.6187">
        <ele>89</ele>
        <time>2022-01-27T14:52:32Z</time>
      </trkpt>
      <trkpt lat="47.27277" lon="-1.61869">
        <ele>90</ele>
        <time>2022-01-27T14:52:33Z</time>
      </trkpt>
      <trkpt lat="47.27277" lon="-1.61868">
        <ele>90</ele>
        <time>2022-01-27T14:52:34Z</time>
      </trkpt>
      <trkpt lat="47.27278" lon="-1.61866">
        <ele>90</ele>
        <time>2022-01-27T14:52:35Z</time>
      </trkpt>
      <trkpt lat="47.27279" lon="-1.61864">
        <ele>90</ele>
        <time>2022-01-27T14:52:36Z</time>
      </trkpt>
      <trkpt lat="47.2728" lon="-1.61863">
        <ele>90</ele>
        <time>2022-01-27T14:52:37Z</time>
      </trkpt>
      <trkpt lat="47.27282" lon="-1.61861">
        <ele>90</ele>
        <time>2022-01-27T14:52:38Z</time>
      </trkpt>
      <trkpt lat="47.27282" lon="-1.61859">
        <ele>91</ele>
        <time>2022-01-27T14:52:39Z</time>
      </trkpt>
      <trkpt lat="47.27283" lon="-1.61858">
        <ele>91</ele>
        <time>2022-01-27T14:52:40Z</time>
      </trkpt>
      <trkpt lat="47.27284" lon="-1.61856">
        <ele>91</ele>
        <time>2022-01-27T14:52:41Z</time>
      </trkpt>
      <trkpt lat="47.27285" lon="-1.61855">
        <ele>90</ele>
        <time>2022-01-27T14:52:42Z</time>
      </trkpt>
      <trkpt lat="47.27285" lon="-1.61853">
        <ele>90</ele>
        <time>2022-01-27T14:52:43Z</time>
      </trkpt>
      <trkpt lat="47.27286" lon="-1.61852">
        <ele>90</ele>
        <time>2022-01-27T14:52:44Z</time>
      </trkpt>
      <trkpt lat="47.27287" lon="-1.61851">
        <ele>90</ele>
        <time>2022-01-27T14:52:45Z</time>
      </trkpt>
      <trkpt lat="47.27288" lon="-1.6185">
        <ele>90</ele>
        <time>2022-01-27T14:52:46Z</time>
      </trkpt>
      <trkpt lat="47.27288" lon="-1.61848">
        <ele>90</ele>
        <time>2022-01-27T14:52:47Z</time>
      </trkpt>
      <trkpt lat="47.27289" lon="-1.61846">
        <ele>90</ele>
        <time>2022-01-27T14:52:48Z</time>
      </trkpt>
      <trkpt lat="47.2729" lon="-1.61845">
        <ele>90</ele>
        <time>2022-01-27T14:52:49Z</time>
      </trkpt>
      <trkpt lat="47.2729" lon="-1.61843">
        <ele>90</ele>
        <time>2022-01-27T14:52:50Z</time>
      </trkpt>
      <trkpt lat="47.27291" lon="-1.6184">
        <ele>90</ele>
        <time>2022-01-27T14:52:51Z</time>
      </trkpt>
      <trkpt lat="47.27292" lon="-1.61838">
        <ele>90</ele>
        <time>2022-01-27T14:52:52Z</time>
      </trkpt>
      <trkpt lat="47.27292" lon="-1.61837">
        <ele>90</ele>
        <time>2022-01-27T14:52:53Z</time>
      </trkpt>
      <trkpt lat="47.27293" lon="-1.61835">
        <ele>91</ele>
        <time>2022-01-27T14:52:54Z</time>
      </trkpt>
      <trkpt lat="47.27293" lon="-1.61833">
        <ele>91</ele>
        <time>2022-01-27T14:52:55Z</time>
      </trkpt>
      <trkpt lat="47.27293" lon="-1.61831">
        <ele>90</ele>
        <time>2022-01-27T14:52:56Z</time>
      </trkpt>
      <trkpt lat="47.27294" lon="-1.6183">
        <ele>90</ele>
        <time>2022-01-27T14:52:57Z</time>
      </trkpt>
      <trkpt lat="47.27295" lon="-1.61828">
        <ele>90</ele>
        <time>2022-01-27T14:52:58Z</time>
      </trkpt>
      <trkpt lat="47.27295" lon="-1.61826">
        <ele>90</ele>
        <time>2022-01-27T14:52:59Z</time>
      </trkpt>
      <trkpt lat="47.27295" lon="-1.61824">
        <ele>90</ele>
        <time>2022-01-27T14:53:00Z</time>
      </trkpt>
      <trkpt lat="47.27296" lon="-1.61822">
        <ele>90</ele>
        <time>2022-01-27T14:53:01Z</time>
      </trkpt>
      <trkpt lat="47.27296" lon="-1.6182">
        <ele>90</ele>
        <time>2022-01-27T14:53:02Z</time>
      </trkpt>
      <trkpt lat="47.27296" lon="-1.61818">
        <ele>90</ele>
        <time>2022-01-27T14:53:03Z</time>
      </trkpt>
      <trkpt lat="47.27297" lon="-1.61816">
        <ele>90</ele>
        <time>2022-01-27T14:53:04Z</time>
      </trkpt>
      <trkpt lat="47.27297" lon="-1.61815">
        <ele>90</ele>
        <time>2022-01-27T14:53:05Z</time>
      </trkpt>
      <trkpt lat="47.27297" lon="-1.61813">
        <ele>89</ele>
        <time>2022-01-27T14:53:06Z</time>
      </trkpt>
      <trkpt lat="47.27298" lon="-1.61811">
        <ele>89</ele>
        <time>2022-01-27T14:53:07Z</time>
      </trkpt>
      <trkpt lat="47.27298" lon="-1.61809">
        <ele>89</ele>
        <time>2022-01-27T14:53:08Z</time>
      </trkpt>
      <trkpt lat="47.27299" lon="-1.61808">
        <ele>89</ele>
        <time>2022-01-27T14:53:09Z</time>
      </trkpt>
      <trkpt lat="47.27299" lon="-1.61805">
        <ele>89</ele>
        <time>2022-01-27T14:53:10Z</time>
      </trkpt>
      <trkpt lat="47.273" lon="-1.61803">
        <ele>89</ele>
        <time>2022-01-27T14:53:11Z</time>
      </trkpt>
      <trkpt lat="47.27301" lon="-1.61802">
        <ele>89</ele>
        <time>2022-01-27T14:53:12Z</time>
      </trkpt>
      <trkpt lat="47.27301" lon="-1.61799">
        <ele>90</ele>
        <time>2022-01-27T14:53:13Z</time>
      </trkpt>
      <trkpt lat="47.27301" lon="-1.61797">
        <ele>90</ele>
        <time>2022-01-27T14:53:14Z</time>
      </trkpt>
      <trkpt lat="47.27302" lon="-1.61795">
        <ele>90</ele>
        <time>2022-01-27T14:53:15Z</time>
      </trkpt>
      <trkpt lat="47.27302" lon="-1.61793">
        <ele>90</ele>
        <time>2022-01-27T14:53:16Z</time>
      </trkpt>
      <trkpt lat="47.27302" lon="-1.61791">
        <ele>90</ele>
        <time>2022-01-27T14:53:17Z</time>
      </trkpt>
      <trkpt lat="47.27302" lon="-1.6179">
        <ele>89</ele>
        <time>2022-01-27T14:53:18Z</time>
      </trkpt>
      <trkpt lat="47.27303" lon="-1.61787">
        <ele>90</ele>
        <time>2022-01-27T14:53:19Z</time>
      </trkpt>
      <trkpt lat="47.27303" lon="-1.61786">
        <ele>90</ele>
        <time>2022-01-27T14:53:20Z</time>
      </trkpt>
      <trkpt lat="47.27304" lon="-1.61784">
        <ele>90</ele>
        <time>2022-01-27T14:53:21Z</time>
      </trkpt>
      <trkpt lat="47.27304" lon="-1.61782">
        <ele>90</ele>
        <time>2022-01-27T14:53:22Z</time>
      </trkpt>
      <trkpt lat="47.27305" lon="-1.61781">
        <ele>90</ele>
        <time>2022-01-27T14:53:23Z</time>
      </trkpt>
      <trkpt lat="47.27306" lon="-1.6178">
        <ele>90</ele>
        <time>2022-01-27T14:53:24Z</time>
      </trkpt>
      <trkpt lat="47.27306" lon="-1.61778">
        <ele>89</ele>
        <time>2022-01-27T14:53:25Z</time>
      </trkpt>
      <trkpt lat="47.27307" lon="-1.61777">
        <ele>89</ele>
        <time>2022-01-27T14:53:26Z</time>
      </trkpt>
      <trkpt lat="47.27308" lon="-1.61776">
        <ele>89</ele>
        <time>2022-01-27T14:53:27Z</time>
      </trkpt>
      <trkpt lat="47.27308" lon="-1.61774">
        <ele>89</ele>
        <time>2022-01-27T14:53:28Z</time>
      </trkpt>
      <trkpt lat="47.27309" lon="-1.61773">
        <ele>89</ele>
        <time>2022-01-27T14:53:29Z</time>
      </trkpt>
      <trkpt lat="47.27309" lon="-1.61771">
        <ele>89</ele>
        <time>2022-01-27T14:53:30Z</time>
      </trkpt>
      <trkpt lat="47.2731" lon="-1.6177">
        <ele>90</ele>
        <time>2022-01-27T14:53:31Z</time>
      </trkpt>
      <trkpt lat="47.2731" lon="-1.6177">
        <ele>90</ele>
        <time>2022-01-27T14:53:32Z</time>
      </trkpt>
      <trkpt lat="47.27311" lon="-1.61767">
        <ele>89</ele>
        <time>2022-01-27T14:53:33Z</time>
      </trkpt>
      <trkpt lat="47.27312" lon="-1.61765">
        <ele>89</ele>
        <time>2022-01-27T14:53:34Z</time>
      </trkpt>
      <trkpt lat="47.27313" lon="-1.61763">
        <ele>89</ele>
        <time>2022-01-27T14:53:35Z</time>
      </trkpt>
      <trkpt lat="47.27313" lon="-1.61762">
        <ele>89</ele>
        <time>2022-01-27T14:53:36Z</time>
      </trkpt>
      <trkpt lat="47.27314" lon="-1.6176">
        <ele>88</ele>
        <time>2022-01-27T14:53:37Z</time>
      </trkpt>
      <trkpt lat="47.27315" lon="-1.61758">
        <ele>89</ele>
        <time>2022-01-27T14:53:38Z</time>
      </trkpt>
      <trkpt lat="47.27316" lon="-1.61756">
        <ele>89</ele>
        <time>2022-01-27T14:53:39Z</time>
      </trkpt>
      <trkpt lat="47.27317" lon="-1.61755">
        <ele>88</ele>
        <time>2022-01-27T14:53:40Z</time>
      </trkpt>
      <trkpt lat="47.27319" lon="-1.61753">
        <ele>88</ele>
        <time>2022-01-27T14:53:41Z</time>
      </trkpt>
      <trkpt lat="47.2732" lon="-1.61752">
        <ele>88</ele>
        <time>2022-01-27T14:53:42Z</time>
      </trkpt>
      <trkpt lat="47.27321" lon="-1.6175">
        <ele>88</ele>
        <time>2022-01-27T14:53:43Z</time>
      </trkpt>
      <trkpt lat="47.27321" lon="-1.61748">
        <ele>89</ele>
        <time>2022-01-27T14:53:44Z</time>
      </trkpt>
      <trkpt lat="47.27322" lon="-1.61746">
        <ele>88</ele>
        <time>2022-01-27T14:53:45Z</time>
      </trkpt>
      <trkpt lat="47.27322" lon="-1.61745">
        <ele>88</ele>
        <time>2022-01-27T14:53:46Z</time>
      </trkpt>
      <trkpt lat="47.27323" lon="-1.61743">
        <ele>89</ele>
        <time>2022-01-27T14:53:47Z</time>
      </trkpt>
      <trkpt lat="47.27324" lon="-1.61742">
        <ele>88</ele>
        <time>2022-01-27T14:53:48Z</time>
      </trkpt>
      <trkpt lat="47.27325" lon="-1.6174">
        <ele>88</ele>
        <time>2022-01-27T14:53:49Z</time>
      </trkpt>
      <trkpt lat="47.27325" lon="-1.61739">
        <ele>88</ele>
        <time>2022-01-27T14:53:50Z</time>
      </trkpt>
      <trkpt lat="47.27326" lon="-1.61738">
        <ele>88</ele>
        <time>2022-01-27T14:53:51Z</time>
      </trkpt>
      <trkpt lat="47.27327" lon="-1.61736">
        <ele>87</ele>
        <time>2022-01-27T14:53:52Z</time>
      </trkpt>
      <trkpt lat="47.27327" lon="-1.61735">
        <ele>87</ele>
        <time>2022-01-27T14:53:53Z</time>
      </trkpt>
      <trkpt lat="47.27328" lon="-1.61732">
        <ele>87</ele>
        <time>2022-01-27T14:53:54Z</time>
      </trkpt>
      <trkpt lat="47.27329" lon="-1.61731">
        <ele>87</ele>
        <time>2022-01-27T14:53:55Z</time>
      </trkpt>
      <trkpt lat="47.27329" lon="-1.6173">
        <ele>88</ele>
        <time>2022-01-27T14:53:56Z</time>
      </trkpt>
      <trkpt lat="47.2733" lon="-1.61729">
        <ele>88</ele>
        <time>2022-01-27T14:53:57Z</time>
      </trkpt>
      <trkpt lat="47.2733" lon="-1.61728">
        <ele>87</ele>
        <time>2022-01-27T14:53:58Z</time>
      </trkpt>
      <trkpt lat="47.27332" lon="-1.61727">
        <ele>87</ele>
        <time>2022-01-27T14:53:59Z</time>
      </trkpt>
      <trkpt lat="47.27333" lon="-1.61725">
        <ele>87</ele>
        <time>2022-01-27T14:54:00Z</time>
      </trkpt>
      <trkpt lat="47.27334" lon="-1.61724">
        <ele>86</ele>
        <time>2022-01-27T14:54:01Z</time>
      </trkpt>
      <trkpt lat="47.27335" lon="-1.61722">
        <ele>86</ele>
        <time>2022-01-27T14:54:02Z</time>
      </trkpt>
      <trkpt lat="47.27337" lon="-1.61721">
        <ele>87</ele>
        <time>2022-01-27T14:54:03Z</time>
      </trkpt>
      <trkpt lat="47.27338" lon="-1.61719">
        <ele>87</ele>
        <time>2022-01-27T14:54:04Z</time>
      </trkpt>
      <trkpt lat="47.2734" lon="-1.61718">
        <ele>87</ele>
        <time>2022-01-27T14:54:05Z</time>
      </trkpt>
      <trkpt lat="47.27341" lon="-1.61717">
        <ele>87</ele>
        <time>2022-01-27T14:54:06Z</time>
      </trkpt>
      <trkpt lat="47.27342" lon="-1.61715">
        <ele>87</ele>
        <time>2022-01-27T14:54:07Z</time>
      </trkpt>
      <trkpt lat="47.27342" lon="-1.61714">
        <ele>87</ele>
        <time>2022-01-27T14:54:08Z</time>
      </trkpt>
      <trkpt lat="47.27343" lon="-1.61713">
        <ele>88</ele>
        <time>2022-01-27T14:54:09Z</time>
      </trkpt>
      <trkpt lat="47.27345" lon="-1.61711">
        <ele>88</ele>
        <time>2022-01-27T14:54:10Z</time>
      </trkpt>
      <trkpt lat="47.27346" lon="-1.6171">
        <ele>88</ele>
        <time>2022-01-27T14:54:11Z</time>
      </trkpt>
      <trkpt lat="47.27347" lon="-1.61709">
        <ele>87</ele>
        <time>2022-01-27T14:54:12Z</time>
      </trkpt>
      <trkpt lat="47.27349" lon="-1.61707">
        <ele>88</ele>
        <time>2022-01-27T14:54:13Z</time>
      </trkpt>
      <trkpt lat="47.2735" lon="-1.61706">
        <ele>88</ele>
        <time>2022-01-27T14:54:14Z</time>
      </trkpt>
      <trkpt lat="47.27351" lon="-1.61705">
        <ele>88</ele>
        <time>2022-01-27T14:54:15Z</time>
      </trkpt>
      <trkpt lat="47.27352" lon="-1.61705">
        <ele>89</ele>
        <time>2022-01-27T14:54:16Z</time>
      </trkpt>
      <trkpt lat="47.27353" lon="-1.61704">
        <ele>89</ele>
        <time>2022-01-27T14:54:17Z</time>
      </trkpt>
      <trkpt lat="47.27353" lon="-1.61703">
        <ele>88</ele>
        <time>2022-01-27T14:54:18Z</time>
      </trkpt>
      <trkpt lat="47.27354" lon="-1.61702">
        <ele>89</ele>
        <time>2022-01-27T14:54:19Z</time>
      </trkpt>
      <trkpt lat="47.27355" lon="-1.61701">
        <ele>89</ele>
        <time>2022-01-27T14:54:20Z</time>
      </trkpt>
      <trkpt lat="47.27356" lon="-1.61699">
        <ele>89</ele>
        <time>2022-01-27T14:54:21Z</time>
      </trkpt>
      <trkpt lat="47.27358" lon="-1.61699">
        <ele>89</ele>
        <time>2022-01-27T14:54:22Z</time>
      </trkpt>
      <trkpt lat="47.27358" lon="-1.61698">
        <ele>89</ele>
        <time>2022-01-27T14:54:23Z</time>
      </trkpt>
      <trkpt lat="47.27359" lon="-1.61697">
        <ele>89</ele>
        <time>2022-01-27T14:54:24Z</time>
      </trkpt>
      <trkpt lat="47.27361" lon="-1.61696">
        <ele>90</ele>
        <time>2022-01-27T14:54:25Z</time>
      </trkpt>
      <trkpt lat="47.27362" lon="-1.61695">
        <ele>90</ele>
        <time>2022-01-27T14:54:26Z</time>
      </trkpt>
      <trkpt lat="47.27363" lon="-1.61693">
        <ele>90</ele>
        <time>2022-01-27T14:54:27Z</time>
      </trkpt>
      <trkpt lat="47.27364" lon="-1.61692">
        <ele>90</ele>
        <time>2022-01-27T14:54:28Z</time>
      </trkpt>
      <trkpt lat="47.27366" lon="-1.6169">
        <ele>90</ele>
        <time>2022-01-27T14:54:29Z</time>
      </trkpt>
      <trkpt lat="47.27368" lon="-1.61689">
        <ele>90</ele>
        <time>2022-01-27T14:54:30Z</time>
      </trkpt>
      <trkpt lat="47.27369" lon="-1.61688">
        <ele>90</ele>
        <time>2022-01-27T14:54:31Z</time>
      </trkpt>
      <trkpt lat="47.2737" lon="-1.61687">
        <ele>90</ele>
        <time>2022-01-27T14:54:32Z</time>
      </trkpt>
      <trkpt lat="47.2737" lon="-1.61686">
        <ele>90</ele>
        <time>2022-01-27T14:54:33Z</time>
      </trkpt>
      <trkpt lat="47.27371" lon="-1.61685">
        <ele>90</ele>
        <time>2022-01-27T14:54:34Z</time>
      </trkpt>
      <trkpt lat="47.27371" lon="-1.61685">
        <ele>90</ele>
        <time>2022-01-27T14:54:35Z</time>
      </trkpt>
      <trkpt lat="47.27371" lon="-1.61685">
        <ele>90</ele>
        <time>2022-01-27T14:54:36Z</time>
      </trkpt>
      <trkpt lat="47.27372" lon="-1.61682">
        <ele>90</ele>
        <time>2022-01-27T14:54:37Z</time>
      </trkpt>
      <trkpt lat="47.27373" lon="-1.6168">
        <ele>91</ele>
        <time>2022-01-27T14:54:38Z</time>
      </trkpt>
      <trkpt lat="47.27374" lon="-1.61679">
        <ele>91</ele>
        <time>2022-01-27T14:54:39Z</time>
      </trkpt>
      <trkpt lat="47.27375" lon="-1.61678">
        <ele>91</ele>
        <time>2022-01-27T14:54:40Z</time>
      </trkpt>
      <trkpt lat="47.27376" lon="-1.61677">
        <ele>90</ele>
        <time>2022-01-27T14:54:41Z</time>
      </trkpt>
      <trkpt lat="47.27377" lon="-1.61676">
        <ele>90</ele>
        <time>2022-01-27T14:54:42Z</time>
      </trkpt>
      <trkpt lat="47.27379" lon="-1.61674">
        <ele>91</ele>
        <time>2022-01-27T14:54:43Z</time>
      </trkpt>
      <trkpt lat="47.2738" lon="-1.61673">
        <ele>90</ele>
        <time>2022-01-27T14:54:44Z</time>
      </trkpt>
      <trkpt lat="47.27382" lon="-1.61672">
        <ele>90</ele>
        <time>2022-01-27T14:54:45Z</time>
      </trkpt>
      <trkpt lat="47.27383" lon="-1.61671">
        <ele>90</ele>
        <time>2022-01-27T14:54:46Z</time>
      </trkpt>
      <trkpt lat="47.27384" lon="-1.61671">
        <ele>90</ele>
        <time>2022-01-27T14:54:47Z</time>
      </trkpt>
      <trkpt lat="47.27385" lon="-1.6167">
        <ele>89</ele>
        <time>2022-01-27T14:54:48Z</time>
      </trkpt>
      <trkpt lat="47.27386" lon="-1.61669">
        <ele>89</ele>
        <time>2022-01-27T14:54:49Z</time>
      </trkpt>
      <trkpt lat="47.27387" lon="-1.61668">
        <ele>89</ele>
        <time>2022-01-27T14:54:50Z</time>
      </trkpt>
      <trkpt lat="47.27388" lon="-1.61667">
        <ele>88</ele>
        <time>2022-01-27T14:54:51Z</time>
      </trkpt>
      <trkpt lat="47.27389" lon="-1.61666">
        <ele>88</ele>
        <time>2022-01-27T14:54:52Z</time>
      </trkpt>
      <trkpt lat="47.27391" lon="-1.61665">
        <ele>88</ele>
        <time>2022-01-27T14:54:53Z</time>
      </trkpt>
      <trkpt lat="47.27391" lon="-1.61663">
        <ele>88</ele>
        <time>2022-01-27T14:54:54Z</time>
      </trkpt>
      <trkpt lat="47.27393" lon="-1.61662">
        <ele>88</ele>
        <time>2022-01-27T14:54:55Z</time>
      </trkpt>
      <trkpt lat="47.27394" lon="-1.61661">
        <ele>88</ele>
        <time>2022-01-27T14:54:56Z</time>
      </trkpt>
      <trkpt lat="47.27395" lon="-1.6166">
        <ele>88</ele>
        <time>2022-01-27T14:54:57Z</time>
      </trkpt>
      <trkpt lat="47.27397" lon="-1.61659">
        <ele>88</ele>
        <time>2022-01-27T14:54:58Z</time>
      </trkpt>
      <trkpt lat="47.27398" lon="-1.61658">
        <ele>88</ele>
        <time>2022-01-27T14:54:59Z</time>
      </trkpt>
      <trkpt lat="47.274" lon="-1.61657">
        <ele>88</ele>
        <time>2022-01-27T14:55:00Z</time>
      </trkpt>
      <trkpt lat="47.27401" lon="-1.61656">
        <ele>88</ele>
        <time>2022-01-27T14:55:01Z</time>
      </trkpt>
      <trkpt lat="47.27403" lon="-1.61655">
        <ele>88</ele>
        <time>2022-01-27T14:55:02Z</time>
      </trkpt>
      <trkpt lat="47.27405" lon="-1.61654">
        <ele>88</ele>
        <time>2022-01-27T14:55:03Z</time>
      </trkpt>
      <trkpt lat="47.27407" lon="-1.61653">
        <ele>89</ele>
        <time>2022-01-27T14:55:04Z</time>
      </trkpt>
      <trkpt lat="47.27409" lon="-1.61652">
        <ele>89</ele>
        <time>2022-01-27T14:55:05Z</time>
      </trkpt>
      <trkpt lat="47.2741" lon="-1.61651">
        <ele>89</ele>
        <time>2022-01-27T14:55:06Z</time>
      </trkpt>
      <trkpt lat="47.27412" lon="-1.6165">
        <ele>89</ele>
        <time>2022-01-27T14:55:07Z</time>
      </trkpt>
      <trkpt lat="47.27413" lon="-1.61649">
        <ele>89</ele>
        <time>2022-01-27T14:55:08Z</time>
      </trkpt>
      <trkpt lat="47.27415" lon="-1.61647">
        <ele>90</ele>
        <time>2022-01-27T14:55:09Z</time>
      </trkpt>
      <trkpt lat="47.27417" lon="-1.61646">
        <ele>90</ele>
        <time>2022-01-27T14:55:10Z</time>
      </trkpt>
      <trkpt lat="47.27418" lon="-1.61645">
        <ele>90</ele>
        <time>2022-01-27T14:55:11Z</time>
      </trkpt>
      <trkpt lat="47.2742" lon="-1.61644">
        <ele>90</ele>
        <time>2022-01-27T14:55:12Z</time>
      </trkpt>
      <trkpt lat="47.27421" lon="-1.61643">
        <ele>90</ele>
        <time>2022-01-27T14:55:13Z</time>
      </trkpt>
      <trkpt lat="47.27422" lon="-1.61642">
        <ele>89</ele>
        <time>2022-01-27T14:55:14Z</time>
      </trkpt>
      <trkpt lat="47.27424" lon="-1.61641">
        <ele>89</ele>
        <time>2022-01-27T14:55:15Z</time>
      </trkpt>
      <trkpt lat="47.27425" lon="-1.61641">
        <ele>89</ele>
        <time>2022-01-27T14:55:16Z</time>
      </trkpt>
      <trkpt lat="47.27427" lon="-1.6164">
        <ele>88</ele>
        <time>2022-01-27T14:55:17Z</time>
      </trkpt>
      <trkpt lat="47.27428" lon="-1.61639">
        <ele>88</ele>
        <time>2022-01-27T14:55:18Z</time>
      </trkpt>
      <trkpt lat="47.2743" lon="-1.61638">
        <ele>88</ele>
        <time>2022-01-27T14:55:19Z</time>
      </trkpt>
      <trkpt lat="47.27432" lon="-1.61637">
        <ele>88</ele>
        <time>2022-01-27T14:55:20Z</time>
      </trkpt>
      <trkpt lat="47.27433" lon="-1.61637">
        <ele>89</ele>
        <time>2022-01-27T14:55:21Z</time>
      </trkpt>
      <trkpt lat="47.27435" lon="-1.61636">
        <ele>89</ele>
        <time>2022-01-27T14:55:22Z</time>
      </trkpt>
      <trkpt lat="47.27436" lon="-1.61635">
        <ele>89</ele>
        <time>2022-01-27T14:55:23Z</time>
      </trkpt>
      <trkpt lat="47.27437" lon="-1.61634">
        <ele>88</ele>
        <time>2022-01-27T14:55:24Z</time>
      </trkpt>
      <trkpt lat="47.27438" lon="-1.61634">
        <ele>88</ele>
        <time>2022-01-27T14:55:25Z</time>
      </trkpt>
      <trkpt lat="47.27439" lon="-1.61633">
        <ele>88</ele>
        <time>2022-01-27T14:55:26Z</time>
      </trkpt>
      <trkpt lat="47.2744" lon="-1.61633">
        <ele>88</ele>
        <time>2022-01-27T14:55:27Z</time>
      </trkpt>
      <trkpt lat="47.27441" lon="-1.61632">
        <ele>89</ele>
        <time>2022-01-27T14:55:28Z</time>
      </trkpt>
      <trkpt lat="47.27442" lon="-1.61631">
        <ele>89</ele>
        <time>2022-01-27T14:55:29Z</time>
      </trkpt>
      <trkpt lat="47.27444" lon="-1.61631">
        <ele>89</ele>
        <time>2022-01-27T14:55:30Z</time>
      </trkpt>
      <trkpt lat="47.27445" lon="-1.6163">
        <ele>89</ele>
        <time>2022-01-27T14:55:31Z</time>
      </trkpt>
      <trkpt lat="47.27447" lon="-1.61629">
        <ele>89</ele>
        <time>2022-01-27T14:55:32Z</time>
      </trkpt>
      <trkpt lat="47.27448" lon="-1.61628">
        <ele>89</ele>
        <time>2022-01-27T14:55:33Z</time>
      </trkpt>
      <trkpt lat="47.27449" lon="-1.61627">
        <ele>90</ele>
        <time>2022-01-27T14:55:34Z</time>
      </trkpt>
      <trkpt lat="47.27451" lon="-1.61627">
        <ele>89</ele>
        <time>2022-01-27T14:55:35Z</time>
      </trkpt>
      <trkpt lat="47.27453" lon="-1.61626">
        <ele>89</ele>
        <time>2022-01-27T14:55:36Z</time>
      </trkpt>
      <trkpt lat="47.27454" lon="-1.61626">
        <ele>88</ele>
        <time>2022-01-27T14:55:37Z</time>
      </trkpt>
      <trkpt lat="47.27455" lon="-1.61625">
        <ele>88</ele>
        <time>2022-01-27T14:55:38Z</time>
      </trkpt>
      <trkpt lat="47.27456" lon="-1.61624">
        <ele>87</ele>
        <time>2022-01-27T14:55:39Z</time>
      </trkpt>
      <trkpt lat="47.27458" lon="-1.61623">
        <ele>88</ele>
        <time>2022-01-27T14:55:40Z</time>
      </trkpt>
      <trkpt lat="47.27459" lon="-1.61623">
        <ele>87</ele>
        <time>2022-01-27T14:55:41Z</time>
      </trkpt>
      <trkpt lat="47.27461" lon="-1.61622">
        <ele>86</ele>
        <time>2022-01-27T14:55:42Z</time>
      </trkpt>
      <trkpt lat="47.27463" lon="-1.61622">
        <ele>86</ele>
        <time>2022-01-27T14:55:43Z</time>
      </trkpt>
      <trkpt lat="47.27464" lon="-1.61622">
        <ele>86</ele>
        <time>2022-01-27T14:55:44Z</time>
      </trkpt>
      <trkpt lat="47.27465" lon="-1.61622">
        <ele>86</ele>
        <time>2022-01-27T14:55:45Z</time>
      </trkpt>
      <trkpt lat="47.27467" lon="-1.61622">
        <ele>86</ele>
        <time>2022-01-27T14:55:46Z</time>
      </trkpt>
      <trkpt lat="47.27468" lon="-1.61621">
        <ele>85</ele>
        <time>2022-01-27T14:55:47Z</time>
      </trkpt>
      <trkpt lat="47.27469" lon="-1.61621">
        <ele>85</ele>
        <time>2022-01-27T14:55:48Z</time>
      </trkpt>
      <trkpt lat="47.2747" lon="-1.6162">
        <ele>85</ele>
        <time>2022-01-27T14:55:49Z</time>
      </trkpt>
      <trkpt lat="47.27472" lon="-1.61619">
        <ele>85</ele>
        <time>2022-01-27T14:55:50Z</time>
      </trkpt>
      <trkpt lat="47.27473" lon="-1.61619">
        <ele>84</ele>
        <time>2022-01-27T14:55:51Z</time>
      </trkpt>
      <trkpt lat="47.27475" lon="-1.61618">
        <ele>85</ele>
        <time>2022-01-27T14:55:52Z</time>
      </trkpt>
      <trkpt lat="47.27476" lon="-1.61617">
        <ele>85</ele>
        <time>2022-01-27T14:55:53Z</time>
      </trkpt>
      <trkpt lat="47.27477" lon="-1.61617">
        <ele>85</ele>
        <time>2022-01-27T14:55:54Z</time>
      </trkpt>
      <trkpt lat="47.27478" lon="-1.61617">
        <ele>85</ele>
        <time>2022-01-27T14:55:55Z</time>
      </trkpt>
      <trkpt lat="47.27479" lon="-1.61616">
        <ele>84</ele>
        <time>2022-01-27T14:55:56Z</time>
      </trkpt>
      <trkpt lat="47.2748" lon="-1.61616">
        <ele>84</ele>
        <time>2022-01-27T14:55:57Z</time>
      </trkpt>
      <trkpt lat="47.27482" lon="-1.61615">
        <ele>85</ele>
        <time>2022-01-27T14:55:58Z</time>
      </trkpt>
      <trkpt lat="47.27483" lon="-1.61615">
        <ele>86</ele>
        <time>2022-01-27T14:55:59Z</time>
      </trkpt>
      <trkpt lat="47.27485" lon="-1.61614">
        <ele>86</ele>
        <time>2022-01-27T14:56:00Z</time>
      </trkpt>
      <trkpt lat="47.27486" lon="-1.61613">
        <ele>85</ele>
        <time>2022-01-27T14:56:01Z</time>
      </trkpt>
      <trkpt lat="47.27488" lon="-1.61614">
        <ele>85</ele>
        <time>2022-01-27T14:56:02Z</time>
      </trkpt>
      <trkpt lat="47.27489" lon="-1.61613">
        <ele>84</ele>
        <time>2022-01-27T14:56:03Z</time>
      </trkpt>
      <trkpt lat="47.2749" lon="-1.61613">
        <ele>84</ele>
        <time>2022-01-27T14:56:04Z</time>
      </trkpt>
      <trkpt lat="47.27491" lon="-1.61613">
        <ele>83</ele>
        <time>2022-01-27T14:56:05Z</time>
      </trkpt>
      <trkpt lat="47.27493" lon="-1.61613">
        <ele>83</ele>
        <time>2022-01-27T14:56:06Z</time>
      </trkpt>
      <trkpt lat="47.27493" lon="-1.61613">
        <ele>83</ele>
        <time>2022-01-27T14:56:07Z</time>
      </trkpt>
      <trkpt lat="47.27493" lon="-1.61613">
        <ele>83</ele>
        <time>2022-01-27T14:56:08Z</time>
      </trkpt>
      <trkpt lat="47.27494" lon="-1.61612">
        <ele>83</ele>
        <time>2022-01-27T14:56:09Z</time>
      </trkpt>
      <trkpt lat="47.27494" lon="-1.61613">
        <ele>83</ele>
        <time>2022-01-27T14:56:10Z</time>
      </trkpt>
      <trkpt lat="47.27494" lon="-1.61613">
        <ele>83</ele>
        <time>2022-01-27T14:56:11Z</time>
      </trkpt>
      <trkpt lat="47.27494" lon="-1.61613">
        <ele>83</ele>
        <time>2022-01-27T14:56:12Z</time>
      </trkpt>
      <trkpt lat="47.27496" lon="-1.61612">
        <ele>85</ele>
        <time>2022-01-27T14:56:13Z</time>
      </trkpt>
      <trkpt lat="47.27496" lon="-1.61611">
        <ele>85</ele>
        <time>2022-01-27T14:56:14Z</time>
      </trkpt>
      <trkpt lat="47.27501" lon="-1.61614">
        <ele>83</ele>
        <time>2022-01-27T14:57:22Z</time>
      </trkpt>
      <trkpt lat="47.27502" lon="-1.61614">
        <ele>83</ele>
        <time>2022-01-27T14:57:24Z</time>
      </trkpt>
      <trkpt lat="47.27503" lon="-1.61615">
        <ele>83</ele>
        <time>2022-01-27T14:57:25Z</time>
      </trkpt>
      <trkpt lat="47.27503" lon="-1.61615">
        <ele>83</ele>
        <time>2022-01-27T14:57:26Z</time>
      </trkpt>
      <trkpt lat="47.27504" lon="-1.61614">
        <ele>83</ele>
        <time>2022-01-27T14:57:27Z</time>
      </trkpt>
      <trkpt lat="47.27504" lon="-1.61614">
        <ele>83</ele>
        <time>2022-01-27T14:57:28Z</time>
      </trkpt>
      <trkpt lat="47.27506" lon="-1.61615">
        <ele>83</ele>
        <time>2022-01-27T14:57:29Z</time>
      </trkpt>
      <trkpt lat="47.27506" lon="-1.61615">
        <ele>83</ele>
        <time>2022-01-27T14:57:30Z</time>
      </trkpt>
      <trkpt lat="47.27506" lon="-1.61615">
        <ele>83</ele>
        <time>2022-01-27T14:57:31Z</time>
      </trkpt>
      <trkpt lat="47.27507" lon="-1.61616">
        <ele>83</ele>
        <time>2022-01-27T14:57:32Z</time>
      </trkpt>
      <trkpt lat="47.27508" lon="-1.61616">
        <ele>83</ele>
        <time>2022-01-27T14:57:33Z</time>
      </trkpt>
      <trkpt lat="47.27509" lon="-1.61616">
        <ele>83</ele>
        <time>2022-01-27T14:57:34Z</time>
      </trkpt>
      <trkpt lat="47.2751" lon="-1.61616">
        <ele>83</ele>
        <time>2022-01-27T14:57:35Z</time>
      </trkpt>
      <trkpt lat="47.27511" lon="-1.61616">
        <ele>83</ele>
        <time>2022-01-27T14:57:36Z</time>
      </trkpt>
      <trkpt lat="47.27512" lon="-1.61617">
        <ele>82</ele>
        <time>2022-01-27T14:57:37Z</time>
      </trkpt>
      <trkpt lat="47.27514" lon="-1.61616">
        <ele>82</ele>
        <time>2022-01-27T14:57:38Z</time>
      </trkpt>
      <trkpt lat="47.27515" lon="-1.61615">
        <ele>82</ele>
        <time>2022-01-27T14:57:39Z</time>
      </trkpt>
      <trkpt lat="47.27515" lon="-1.61616">
        <ele>82</ele>
        <time>2022-01-27T14:57:40Z</time>
      </trkpt>
      <trkpt lat="47.27517" lon="-1.61615">
        <ele>82</ele>
        <time>2022-01-27T14:57:41Z</time>
      </trkpt>
      <trkpt lat="47.27518" lon="-1.61615">
        <ele>83</ele>
        <time>2022-01-27T14:57:42Z</time>
      </trkpt>
      <trkpt lat="47.27519" lon="-1.61615">
        <ele>83</ele>
        <time>2022-01-27T14:57:43Z</time>
      </trkpt>
      <trkpt lat="47.2752" lon="-1.61615">
        <ele>82</ele>
        <time>2022-01-27T14:57:44Z</time>
      </trkpt>
      <trkpt lat="47.27521" lon="-1.61615">
        <ele>82</ele>
        <time>2022-01-27T14:57:45Z</time>
      </trkpt>
      <trkpt lat="47.27522" lon="-1.61615">
        <ele>82</ele>
        <time>2022-01-27T14:57:46Z</time>
      </trkpt>
      <trkpt lat="47.27523" lon="-1.61615">
        <ele>82</ele>
        <time>2022-01-27T14:57:47Z</time>
      </trkpt>
      <trkpt lat="47.27524" lon="-1.61615">
        <ele>81</ele>
        <time>2022-01-27T14:57:48Z</time>
      </trkpt>
      <trkpt lat="47.27525" lon="-1.61615">
        <ele>81</ele>
        <time>2022-01-27T14:57:49Z</time>
      </trkpt>
      <trkpt lat="47.27526" lon="-1.61615">
        <ele>81</ele>
        <time>2022-01-27T14:57:50Z</time>
      </trkpt>
      <trkpt lat="47.27527" lon="-1.61615">
        <ele>81</ele>
        <time>2022-01-27T14:57:51Z</time>
      </trkpt>
      <trkpt lat="47.27528" lon="-1.61615">
        <ele>80</ele>
        <time>2022-01-27T14:57:52Z</time>
      </trkpt>
      <trkpt lat="47.27528" lon="-1.61615">
        <ele>80</ele>
        <time>2022-01-27T14:57:52Z</time>
      </trkpt>
      <trkpt lat="47.27531" lon="-1.61615">
        <ele>79</ele>
        <time>2022-01-27T14:57:54Z</time>
      </trkpt>
      <trkpt lat="47.27532" lon="-1.61615">
        <ele>79</ele>
        <time>2022-01-27T14:57:55Z</time>
      </trkpt>
      <trkpt lat="47.27532" lon="-1.61615">
        <ele>79</ele>
        <time>2022-01-27T14:57:55Z</time>
      </trkpt>
      <trkpt lat="47.27535" lon="-1.61615">
        <ele>79</ele>
        <time>2022-01-27T14:57:57Z</time>
      </trkpt>
      <trkpt lat="47.27535" lon="-1.61615">
        <ele>79</ele>
        <time>2022-01-27T14:57:57Z</time>
      </trkpt>
      <trkpt lat="47.27537" lon="-1.61614">
        <ele>79</ele>
        <time>2022-01-27T14:57:59Z</time>
      </trkpt>
      <trkpt lat="47.27537" lon="-1.61614">
        <ele>79</ele>
        <time>2022-01-27T14:57:59Z</time>
      </trkpt>
      <trkpt lat="47.2754" lon="-1.61615">
        <ele>79</ele>
        <time>2022-01-27T14:58:01Z</time>
      </trkpt>
      <trkpt lat="47.27542" lon="-1.61615">
        <ele>78</ele>
        <time>2022-01-27T14:58:02Z</time>
      </trkpt>
      <trkpt lat="47.27543" lon="-1.61615">
        <ele>78</ele>
        <time>2022-01-27T14:58:03Z</time>
      </trkpt>
      <trkpt lat="47.27544" lon="-1.61614">
        <ele>78</ele>
        <time>2022-01-27T14:58:04Z</time>
      </trkpt>
      <trkpt lat="47.27546" lon="-1.61614">
        <ele>78</ele>
        <time>2022-01-27T14:58:05Z</time>
      </trkpt>
      <trkpt lat="47.27547" lon="-1.61614">
        <ele>78</ele>
        <time>2022-01-27T14:58:06Z</time>
      </trkpt>
      <trkpt lat="47.27547" lon="-1.61614">
        <ele>78</ele>
        <time>2022-01-27T14:58:06Z</time>
      </trkpt>
      <trkpt lat="47.2755" lon="-1.61614">
        <ele>78</ele>
        <time>2022-01-27T14:58:08Z</time>
      </trkpt>
      <trkpt lat="47.2755" lon="-1.61614">
        <ele>78</ele>
        <time>2022-01-27T14:58:08Z</time>
      </trkpt>
      <trkpt lat="47.27551" lon="-1.61614">
        <ele>78</ele>
        <time>2022-01-27T14:58:09Z</time>
      </trkpt>
      <trkpt lat="47.27552" lon="-1.61614">
        <ele>79</ele>
        <time>2022-01-27T14:58:10Z</time>
      </trkpt>
      <trkpt lat="47.27554" lon="-1.61614">
        <ele>79</ele>
        <time>2022-01-27T14:58:11Z</time>
      </trkpt>
      <trkpt lat="47.27556" lon="-1.61614">
        <ele>79</ele>
        <time>2022-01-27T14:58:12Z</time>
      </trkpt>
      <trkpt lat="47.27557" lon="-1.61614">
        <ele>79</ele>
        <time>2022-01-27T14:58:13Z</time>
      </trkpt>
      <trkpt lat="47.27559" lon="-1.61614">
        <ele>80</ele>
        <time>2022-01-27T14:58:14Z</time>
      </trkpt>
      <trkpt lat="47.2756" lon="-1.61613">
        <ele>80</ele>
        <time>2022-01-27T14:58:15Z</time>
      </trkpt>
      <trkpt lat="47.27562" lon="-1.61613">
        <ele>80</ele>
        <time>2022-01-27T14:58:16Z</time>
      </trkpt>
      <trkpt lat="47.27563" lon="-1.61612">
        <ele>80</ele>
        <time>2022-01-27T14:58:17Z</time>
      </trkpt>
      <trkpt lat="47.27565" lon="-1.61612">
        <ele>80</ele>
        <time>2022-01-27T14:58:19Z</time>
      </trkpt>
      <trkpt lat="47.27567" lon="-1.61612">
        <ele>80</ele>
        <time>2022-01-27T14:58:20Z</time>
      </trkpt>
      <trkpt lat="47.27568" lon="-1.61611">
        <ele>80</ele>
        <time>2022-01-27T14:58:21Z</time>
      </trkpt>
      <trkpt lat="47.27569" lon="-1.61612">
        <ele>80</ele>
        <time>2022-01-27T14:58:22Z</time>
      </trkpt>
      <trkpt lat="47.27569" lon="-1.61612">
        <ele>80</ele>
        <time>2022-01-27T14:58:22Z</time>
      </trkpt>
      <trkpt lat="47.27572" lon="-1.61612">
        <ele>80</ele>
        <time>2022-01-27T14:58:24Z</time>
      </trkpt>
      <trkpt lat="47.27573" lon="-1.61612">
        <ele>80</ele>
        <time>2022-01-27T14:58:25Z</time>
      </trkpt>
      <trkpt lat="47.27574" lon="-1.61611">
        <ele>80</ele>
        <time>2022-01-27T14:58:26Z</time>
      </trkpt>
      <trkpt lat="47.27574" lon="-1.61611">
        <ele>80</ele>
        <time>2022-01-27T14:58:26Z</time>
      </trkpt>
      <trkpt lat="47.27577" lon="-1.61611">
        <ele>80</ele>
        <time>2022-01-27T14:58:28Z</time>
      </trkpt>
      <trkpt lat="47.27578" lon="-1.6161">
        <ele>81</ele>
        <time>2022-01-27T14:58:29Z</time>
      </trkpt>
      <trkpt lat="47.2758" lon="-1.6161">
        <ele>81</ele>
        <time>2022-01-27T14:58:30Z</time>
      </trkpt>
      <trkpt lat="47.27581" lon="-1.6161">
        <ele>81</ele>
        <time>2022-01-27T14:58:31Z</time>
      </trkpt>
      <trkpt lat="47.27582" lon="-1.6161">
        <ele>82</ele>
        <time>2022-01-27T14:58:32Z</time>
      </trkpt>
      <trkpt lat="47.27583" lon="-1.61611">
        <ele>82</ele>
        <time>2022-01-27T14:58:33Z</time>
      </trkpt>
      <trkpt lat="47.27585" lon="-1.6161">
        <ele>82</ele>
        <time>2022-01-27T14:58:34Z</time>
      </trkpt>
      <trkpt lat="47.27586" lon="-1.6161">
        <ele>83</ele>
        <time>2022-01-27T14:58:35Z</time>
      </trkpt>
      <trkpt lat="47.27587" lon="-1.6161">
        <ele>83</ele>
        <time>2022-01-27T14:58:36Z</time>
      </trkpt>
      <trkpt lat="47.27588" lon="-1.6161">
        <ele>83</ele>
        <time>2022-01-27T14:58:37Z</time>
      </trkpt>
      <trkpt lat="47.2759" lon="-1.6161">
        <ele>83</ele>
        <time>2022-01-27T14:58:38Z</time>
      </trkpt>
      <trkpt lat="47.27591" lon="-1.6161">
        <ele>83</ele>
        <time>2022-01-27T14:58:39Z</time>
      </trkpt>
      <trkpt lat="47.27592" lon="-1.6161">
        <ele>83</ele>
        <time>2022-01-27T14:58:40Z</time>
      </trkpt>
      <trkpt lat="47.27594" lon="-1.6161">
        <ele>82</ele>
        <time>2022-01-27T14:58:41Z</time>
      </trkpt>
      <trkpt lat="47.27595" lon="-1.61609">
        <ele>83</ele>
        <time>2022-01-27T14:58:42Z</time>
      </trkpt>
      <trkpt lat="47.27596" lon="-1.61609">
        <ele>83</ele>
        <time>2022-01-27T14:58:43Z</time>
      </trkpt>
      <trkpt lat="47.27596" lon="-1.61609">
        <ele>83</ele>
        <time>2022-01-27T14:58:43Z</time>
      </trkpt>
      <trkpt lat="47.27599" lon="-1.61608">
        <ele>83</ele>
        <time>2022-01-27T14:58:45Z</time>
      </trkpt>
      <trkpt lat="47.27601" lon="-1.61608">
        <ele>83</ele>
        <time>2022-01-27T14:58:46Z</time>
      </trkpt>
      <trkpt lat="47.27602" lon="-1.61608">
        <ele>82</ele>
        <time>2022-01-27T14:58:47Z</time>
      </trkpt>
      <trkpt lat="47.27603" lon="-1.61608">
        <ele>82</ele>
        <time>2022-01-27T14:58:48Z</time>
      </trkpt>
      <trkpt lat="47.27605" lon="-1.61608">
        <ele>82</ele>
        <time>2022-01-27T14:58:49Z</time>
      </trkpt>
      <trkpt lat="47.27606" lon="-1.61607">
        <ele>82</ele>
        <time>2022-01-27T14:58:50Z</time>
      </trkpt>
      <trkpt lat="47.27607" lon="-1.61608">
        <ele>82</ele>
        <time>2022-01-27T14:58:51Z</time>
      </trkpt>
      <trkpt lat="47.27609" lon="-1.61607">
        <ele>82</ele>
        <time>2022-01-27T14:58:52Z</time>
      </trkpt>
      <trkpt lat="47.2761" lon="-1.61607">
        <ele>82</ele>
        <time>2022-01-27T14:58:53Z</time>
      </trkpt>
      <trkpt lat="47.27612" lon="-1.61607">
        <ele>82</ele>
        <time>2022-01-27T14:58:54Z</time>
      </trkpt>
      <trkpt lat="47.27612" lon="-1.61607">
        <ele>82</ele>
        <time>2022-01-27T14:58:54Z</time>
      </trkpt>
      <trkpt lat="47.27615" lon="-1.61607">
        <ele>83</ele>
        <time>2022-01-27T14:58:56Z</time>
      </trkpt>
      <trkpt lat="47.27616" lon="-1.61607">
        <ele>83</ele>
        <time>2022-01-27T14:58:57Z</time>
      </trkpt>
      <trkpt lat="47.27616" lon="-1.61607">
        <ele>83</ele>
        <time>2022-01-27T14:58:57Z</time>
      </trkpt>
      <trkpt lat="47.27619" lon="-1.61607">
        <ele>83</ele>
        <time>2022-01-27T14:58:59Z</time>
      </trkpt>
      <trkpt lat="47.27619" lon="-1.61607">
        <ele>83</ele>
        <time>2022-01-27T14:58:59Z</time>
      </trkpt>
      <trkpt lat="47.2762" lon="-1.61607">
        <ele>83</ele>
        <time>2022-01-27T14:59:00Z</time>
      </trkpt>
      <trkpt lat="47.27622" lon="-1.61607">
        <ele>82</ele>
        <time>2022-01-27T14:59:01Z</time>
      </trkpt>
      <trkpt lat="47.27624" lon="-1.61607">
        <ele>83</ele>
        <time>2022-01-27T14:59:03Z</time>
      </trkpt>
      <trkpt lat="47.27624" lon="-1.61607">
        <ele>83</ele>
        <time>2022-01-27T14:59:03Z</time>
      </trkpt>
      <trkpt lat="47.27625" lon="-1.61606">
        <ele>83</ele>
        <time>2022-01-27T14:59:04Z</time>
      </trkpt>
      <trkpt lat="47.27626" lon="-1.61606">
        <ele>83</ele>
        <time>2022-01-27T14:59:05Z</time>
      </trkpt>
      <trkpt lat="47.27628" lon="-1.61606">
        <ele>83</ele>
        <time>2022-01-27T14:59:06Z</time>
      </trkpt>
      <trkpt lat="47.27629" lon="-1.61605">
        <ele>83</ele>
        <time>2022-01-27T14:59:07Z</time>
      </trkpt>
      <trkpt lat="47.2763" lon="-1.61605">
        <ele>84</ele>
        <time>2022-01-27T14:59:08Z</time>
      </trkpt>
      <trkpt lat="47.27632" lon="-1.61605">
        <ele>84</ele>
        <time>2022-01-27T14:59:09Z</time>
      </trkpt>
      <trkpt lat="47.27633" lon="-1.61605">
        <ele>84</ele>
        <time>2022-01-27T14:59:10Z</time>
      </trkpt>
      <trkpt lat="47.27636" lon="-1.61605">
        <ele>83</ele>
        <time>2022-01-27T14:59:12Z</time>
      </trkpt>
      <trkpt lat="47.27636" lon="-1.61605">
        <ele>83</ele>
        <time>2022-01-27T14:59:12Z</time>
      </trkpt>
      <trkpt lat="47.27638" lon="-1.61605">
        <ele>83</ele>
        <time>2022-01-27T14:59:13Z</time>
      </trkpt>
      <trkpt lat="47.2764" lon="-1.61605">
        <ele>83</ele>
        <time>2022-01-27T14:59:15Z</time>
      </trkpt>
      <trkpt lat="47.2764" lon="-1.61605">
        <ele>83</ele>
        <time>2022-01-27T14:59:15Z</time>
      </trkpt>
      <trkpt lat="47.27641" lon="-1.61605">
        <ele>84</ele>
        <time>2022-01-27T14:59:16Z</time>
      </trkpt>
      <trkpt lat="47.27642" lon="-1.61605">
        <ele>84</ele>
        <time>2022-01-27T14:59:17Z</time>
      </trkpt>
      <trkpt lat="47.27644" lon="-1.61605">
        <ele>84</ele>
        <time>2022-01-27T14:59:18Z</time>
      </trkpt>
      <trkpt lat="47.27646" lon="-1.61605">
        <ele>84</ele>
        <time>2022-01-27T14:59:20Z</time>
      </trkpt>
      <trkpt lat="47.27646" lon="-1.61605">
        <ele>84</ele>
        <time>2022-01-27T14:59:20Z</time>
      </trkpt>
      <trkpt lat="47.27647" lon="-1.61605">
        <ele>84</ele>
        <time>2022-01-27T14:59:21Z</time>
      </trkpt>
      <trkpt lat="47.27649" lon="-1.61605">
        <ele>84</ele>
        <time>2022-01-27T14:59:22Z</time>
      </trkpt>
      <trkpt lat="47.2765" lon="-1.61604">
        <ele>85</ele>
        <time>2022-01-27T14:59:23Z</time>
      </trkpt>
      <trkpt lat="47.27651" lon="-1.61603">
        <ele>85</ele>
        <time>2022-01-27T14:59:24Z</time>
      </trkpt>
      <trkpt lat="47.27653" lon="-1.61603">
        <ele>85</ele>
        <time>2022-01-27T14:59:25Z</time>
      </trkpt>
      <trkpt lat="47.27654" lon="-1.61603">
        <ele>85</ele>
        <time>2022-01-27T14:59:26Z</time>
      </trkpt>
      <trkpt lat="47.27655" lon="-1.61602">
        <ele>86</ele>
        <time>2022-01-27T14:59:27Z</time>
      </trkpt>
      <trkpt lat="47.27657" lon="-1.61602">
        <ele>86</ele>
        <time>2022-01-27T14:59:28Z</time>
      </trkpt>
      <trkpt lat="47.27657" lon="-1.61601">
        <ele>86</ele>
        <time>2022-01-27T14:59:29Z</time>
      </trkpt>
      <trkpt lat="47.27659" lon="-1.61601">
        <ele>86</ele>
        <time>2022-01-27T14:59:30Z</time>
      </trkpt>
      <trkpt lat="47.2766" lon="-1.61601">
        <ele>87</ele>
        <time>2022-01-27T14:59:31Z</time>
      </trkpt>
      <trkpt lat="47.27663" lon="-1.616">
        <ele>87</ele>
        <time>2022-01-27T14:59:33Z</time>
      </trkpt>
      <trkpt lat="47.27663" lon="-1.616">
        <ele>87</ele>
        <time>2022-01-27T14:59:33Z</time>
      </trkpt>
      <trkpt lat="47.27664" lon="-1.61599">
        <ele>88</ele>
        <time>2022-01-27T14:59:34Z</time>
      </trkpt>
      <trkpt lat="47.27665" lon="-1.61599">
        <ele>88</ele>
        <time>2022-01-27T14:59:35Z</time>
      </trkpt>
      <trkpt lat="47.27668" lon="-1.61599">
        <ele>88</ele>
        <time>2022-01-27T14:59:37Z</time>
      </trkpt>
      <trkpt lat="47.27668" lon="-1.61599">
        <ele>88</ele>
        <time>2022-01-27T14:59:37Z</time>
      </trkpt>
      <trkpt lat="47.2767" lon="-1.61598">
        <ele>89</ele>
        <time>2022-01-27T14:59:39Z</time>
      </trkpt>
      <trkpt lat="47.27671" lon="-1.61598">
        <ele>89</ele>
        <time>2022-01-27T14:59:40Z</time>
      </trkpt>
      <trkpt lat="47.27672" lon="-1.61597">
        <ele>89</ele>
        <time>2022-01-27T14:59:41Z</time>
      </trkpt>
      <trkpt lat="47.27672" lon="-1.61597">
        <ele>89</ele>
        <time>2022-01-27T14:59:41Z</time>
      </trkpt>
      <trkpt lat="47.27675" lon="-1.61597">
        <ele>89</ele>
        <time>2022-01-27T14:59:43Z</time>
      </trkpt>
      <trkpt lat="47.27676" lon="-1.61596">
        <ele>90</ele>
        <time>2022-01-27T14:59:44Z</time>
      </trkpt>
      <trkpt lat="47.27678" lon="-1.61595">
        <ele>90</ele>
        <time>2022-01-27T14:59:45Z</time>
      </trkpt>
      <trkpt lat="47.27679" lon="-1.61595">
        <ele>90</ele>
        <time>2022-01-27T14:59:46Z</time>
      </trkpt>
      <trkpt lat="47.2768" lon="-1.61595">
        <ele>90</ele>
        <time>2022-01-27T14:59:47Z</time>
      </trkpt>
      <trkpt lat="47.2768" lon="-1.61595">
        <ele>90</ele>
        <time>2022-01-27T14:59:47Z</time>
      </trkpt>
      <trkpt lat="47.27683" lon="-1.61594">
        <ele>90</ele>
        <time>2022-01-27T14:59:49Z</time>
      </trkpt>
      <trkpt lat="47.27684" lon="-1.61593">
        <ele>90</ele>
        <time>2022-01-27T14:59:50Z</time>
      </trkpt>
      <trkpt lat="47.27685" lon="-1.61592">
        <ele>89</ele>
        <time>2022-01-27T14:59:51Z</time>
      </trkpt>
      <trkpt lat="47.27686" lon="-1.61592">
        <ele>89</ele>
        <time>2022-01-27T14:59:52Z</time>
      </trkpt>
      <trkpt lat="47.27686" lon="-1.61592">
        <ele>89</ele>
        <time>2022-01-27T14:59:52Z</time>
      </trkpt>
      <trkpt lat="47.27688" lon="-1.61591">
        <ele>89</ele>
        <time>2022-01-27T14:59:53Z</time>
      </trkpt>
      <trkpt lat="47.27689" lon="-1.61591">
        <ele>89</ele>
        <time>2022-01-27T14:59:54Z</time>
      </trkpt>
      <trkpt lat="47.2769" lon="-1.61591">
        <ele>89</ele>
        <time>2022-01-27T14:59:55Z</time>
      </trkpt>
      <trkpt lat="47.27693" lon="-1.6159">
        <ele>89</ele>
        <time>2022-01-27T14:59:57Z</time>
      </trkpt>
      <trkpt lat="47.27694" lon="-1.6159">
        <ele>89</ele>
        <time>2022-01-27T14:59:58Z</time>
      </trkpt>
      <trkpt lat="47.27694" lon="-1.6159">
        <ele>89</ele>
        <time>2022-01-27T14:59:58Z</time>
      </trkpt>
      <trkpt lat="47.27696" lon="-1.61589">
        <ele>89</ele>
        <time>2022-01-27T15:00:00Z</time>
      </trkpt>
      <trkpt lat="47.27696" lon="-1.61589">
        <ele>89</ele>
        <time>2022-01-27T15:00:00Z</time>
      </trkpt>
      <trkpt lat="47.27698" lon="-1.61588">
        <ele>89</ele>
        <time>2022-01-27T15:00:01Z</time>
      </trkpt>
      <trkpt lat="47.27699" lon="-1.61587">
        <ele>90</ele>
        <time>2022-01-27T15:00:02Z</time>
      </trkpt>
      <trkpt lat="47.27701" lon="-1.61585">
        <ele>90</ele>
        <time>2022-01-27T15:00:04Z</time>
      </trkpt>
      <trkpt lat="47.27703" lon="-1.61585">
        <ele>90</ele>
        <time>2022-01-27T15:00:05Z</time>
      </trkpt>
      <trkpt lat="47.27703" lon="-1.61585">
        <ele>90</ele>
        <time>2022-01-27T15:00:05Z</time>
      </trkpt>
      <trkpt lat="47.27704" lon="-1.61584">
        <ele>90</ele>
        <time>2022-01-27T15:00:06Z</time>
      </trkpt>
      <trkpt lat="47.27705" lon="-1.61584">
        <ele>90</ele>
        <time>2022-01-27T15:00:07Z</time>
      </trkpt>
      <trkpt lat="47.27706" lon="-1.61583">
        <ele>90</ele>
        <time>2022-01-27T15:00:08Z</time>
      </trkpt>
      <trkpt lat="47.27708" lon="-1.61582">
        <ele>90</ele>
        <time>2022-01-27T15:00:09Z</time>
      </trkpt>
      <trkpt lat="47.27709" lon="-1.61581">
        <ele>90</ele>
        <time>2022-01-27T15:00:10Z</time>
      </trkpt>
      <trkpt lat="47.2771" lon="-1.61581">
        <ele>90</ele>
        <time>2022-01-27T15:00:11Z</time>
      </trkpt>
      <trkpt lat="47.27711" lon="-1.6158">
        <ele>90</ele>
        <time>2022-01-27T15:00:12Z</time>
      </trkpt>
      <trkpt lat="47.27712" lon="-1.61579">
        <ele>89</ele>
        <time>2022-01-27T15:00:13Z</time>
      </trkpt>
      <trkpt lat="47.27713" lon="-1.61578">
        <ele>89</ele>
        <time>2022-01-27T15:00:14Z</time>
      </trkpt>
      <trkpt lat="47.27714" lon="-1.61577">
        <ele>89</ele>
        <time>2022-01-27T15:00:15Z</time>
      </trkpt>
      <trkpt lat="47.27716" lon="-1.61576">
        <ele>89</ele>
        <time>2022-01-27T15:00:16Z</time>
      </trkpt>
      <trkpt lat="47.27716" lon="-1.61576">
        <ele>89</ele>
        <time>2022-01-27T15:00:17Z</time>
      </trkpt>
      <trkpt lat="47.27718" lon="-1.61575">
        <ele>89</ele>
        <time>2022-01-27T15:00:18Z</time>
      </trkpt>
      <trkpt lat="47.27719" lon="-1.61575">
        <ele>89</ele>
        <time>2022-01-27T15:00:19Z</time>
      </trkpt>
      <trkpt lat="47.27721" lon="-1.61575">
        <ele>89</ele>
        <time>2022-01-27T15:00:20Z</time>
      </trkpt>
      <trkpt lat="47.27722" lon="-1.61574">
        <ele>90</ele>
        <time>2022-01-27T15:00:21Z</time>
      </trkpt>
      <trkpt lat="47.27724" lon="-1.61573">
        <ele>90</ele>
        <time>2022-01-27T15:00:22Z</time>
      </trkpt>
      <trkpt lat="47.27726" lon="-1.61572">
        <ele>90</ele>
        <time>2022-01-27T15:00:23Z</time>
      </trkpt>
      <trkpt lat="47.27727" lon="-1.61571">
        <ele>90</ele>
        <time>2022-01-27T15:00:24Z</time>
      </trkpt>
      <trkpt lat="47.27728" lon="-1.61571">
        <ele>90</ele>
        <time>2022-01-27T15:00:25Z</time>
      </trkpt>
      <trkpt lat="47.27729" lon="-1.6157">
        <ele>90</ele>
        <time>2022-01-27T15:00:26Z</time>
      </trkpt>
      <trkpt lat="47.27731" lon="-1.61569">
        <ele>91</ele>
        <time>2022-01-27T15:00:27Z</time>
      </trkpt>
      <trkpt lat="47.27732" lon="-1.61568">
        <ele>90</ele>
        <time>2022-01-27T15:00:28Z</time>
      </trkpt>
      <trkpt lat="47.27733" lon="-1.61568">
        <ele>90</ele>
        <time>2022-01-27T15:00:29Z</time>
      </trkpt>
      <trkpt lat="47.27734" lon="-1.61567">
        <ele>90</ele>
        <time>2022-01-27T15:00:30Z</time>
      </trkpt>
      <trkpt lat="47.27736" lon="-1.61567">
        <ele>90</ele>
        <time>2022-01-27T15:00:31Z</time>
      </trkpt>
      <trkpt lat="47.27737" lon="-1.61566">
        <ele>90</ele>
        <time>2022-01-27T15:00:32Z</time>
      </trkpt>
      <trkpt lat="47.27738" lon="-1.61565">
        <ele>90</ele>
        <time>2022-01-27T15:00:33Z</time>
      </trkpt>
      <trkpt lat="47.27739" lon="-1.61564">
        <ele>90</ele>
        <time>2022-01-27T15:00:34Z</time>
      </trkpt>
      <trkpt lat="47.27741" lon="-1.61563">
        <ele>90</ele>
        <time>2022-01-27T15:00:35Z</time>
      </trkpt>
      <trkpt lat="47.27742" lon="-1.61562">
        <ele>91</ele>
        <time>2022-01-27T15:00:36Z</time>
      </trkpt>
      <trkpt lat="47.27743" lon="-1.61561">
        <ele>91</ele>
        <time>2022-01-27T15:00:37Z</time>
      </trkpt>
      <trkpt lat="47.27745" lon="-1.6156">
        <ele>91</ele>
        <time>2022-01-27T15:00:39Z</time>
      </trkpt>
      <trkpt lat="47.27746" lon="-1.61559">
        <ele>91</ele>
        <time>2022-01-27T15:00:40Z</time>
      </trkpt>
      <trkpt lat="47.27746" lon="-1.61559">
        <ele>91</ele>
        <time>2022-01-27T15:00:40Z</time>
      </trkpt>
      <trkpt lat="47.27747" lon="-1.61558">
        <ele>90</ele>
        <time>2022-01-27T15:00:41Z</time>
      </trkpt>
      <trkpt lat="47.27748" lon="-1.61558">
        <ele>91</ele>
        <time>2022-01-27T15:00:42Z</time>
      </trkpt>
      <trkpt lat="47.27749" lon="-1.61558">
        <ele>91</ele>
        <time>2022-01-27T15:00:43Z</time>
      </trkpt>
      <trkpt lat="47.27749" lon="-1.61557">
        <ele>90</ele>
        <time>2022-01-27T15:00:44Z</time>
      </trkpt>
      <trkpt lat="47.2775" lon="-1.61556">
        <ele>90</ele>
        <time>2022-01-27T15:00:45Z</time>
      </trkpt>
      <trkpt lat="47.27752" lon="-1.61555">
        <ele>90</ele>
        <time>2022-01-27T15:00:46Z</time>
      </trkpt>
      <trkpt lat="47.27753" lon="-1.61554">
        <ele>90</ele>
        <time>2022-01-27T15:00:47Z</time>
      </trkpt>
      <trkpt lat="47.27753" lon="-1.61554">
        <ele>90</ele>
        <time>2022-01-27T15:00:48Z</time>
      </trkpt>
      <trkpt lat="47.27754" lon="-1.61552">
        <ele>90</ele>
        <time>2022-01-27T15:00:49Z</time>
      </trkpt>
      <trkpt lat="47.27755" lon="-1.61551">
        <ele>90</ele>
        <time>2022-01-27T15:00:50Z</time>
      </trkpt>
      <trkpt lat="47.27756" lon="-1.6155">
        <ele>90</ele>
        <time>2022-01-27T15:00:51Z</time>
      </trkpt>
      <trkpt lat="47.27757" lon="-1.61549">
        <ele>91</ele>
        <time>2022-01-27T15:00:52Z</time>
      </trkpt>
      <trkpt lat="47.27758" lon="-1.61548">
        <ele>91</ele>
        <time>2022-01-27T15:00:53Z</time>
      </trkpt>
      <trkpt lat="47.27759" lon="-1.61547">
        <ele>91</ele>
        <time>2022-01-27T15:00:54Z</time>
      </trkpt>
      <trkpt lat="47.2776" lon="-1.61546">
        <ele>90</ele>
        <time>2022-01-27T15:00:55Z</time>
      </trkpt>
      <trkpt lat="47.27762" lon="-1.61545">
        <ele>90</ele>
        <time>2022-01-27T15:00:56Z</time>
      </trkpt>
      <trkpt lat="47.27763" lon="-1.61544">
        <ele>90</ele>
        <time>2022-01-27T15:00:57Z</time>
      </trkpt>
      <trkpt lat="47.27763" lon="-1.61543">
        <ele>91</ele>
        <time>2022-01-27T15:00:58Z</time>
      </trkpt>
      <trkpt lat="47.27765" lon="-1.61542">
        <ele>91</ele>
        <time>2022-01-27T15:00:59Z</time>
      </trkpt>
      <trkpt lat="47.27765" lon="-1.61541">
        <ele>91</ele>
        <time>2022-01-27T15:01:00Z</time>
      </trkpt>
      <trkpt lat="47.27766" lon="-1.6154">
        <ele>91</ele>
        <time>2022-01-27T15:01:01Z</time>
      </trkpt>
      <trkpt lat="47.27768" lon="-1.61539">
        <ele>91</ele>
        <time>2022-01-27T15:01:02Z</time>
      </trkpt>
      <trkpt lat="47.27769" lon="-1.61538">
        <ele>91</ele>
        <time>2022-01-27T15:01:03Z</time>
      </trkpt>
      <trkpt lat="47.2777" lon="-1.61537">
        <ele>91</ele>
        <time>2022-01-27T15:01:04Z</time>
      </trkpt>
      <trkpt lat="47.27771" lon="-1.61536">
        <ele>91</ele>
        <time>2022-01-27T15:01:05Z</time>
      </trkpt>
      <trkpt lat="47.27773" lon="-1.61534">
        <ele>92</ele>
        <time>2022-01-27T15:01:06Z</time>
      </trkpt>
      <trkpt lat="47.27773" lon="-1.61533">
        <ele>92</ele>
        <time>2022-01-27T15:01:07Z</time>
      </trkpt>
      <trkpt lat="47.27776" lon="-1.61531">
        <ele>92</ele>
        <time>2022-01-27T15:01:09Z</time>
      </trkpt>
      <trkpt lat="47.27776" lon="-1.61531">
        <ele>92</ele>
        <time>2022-01-27T15:01:09Z</time>
      </trkpt>
      <trkpt lat="47.27777" lon="-1.6153">
        <ele>92</ele>
        <time>2022-01-27T15:01:10Z</time>
      </trkpt>
      <trkpt lat="47.27778" lon="-1.61529">
        <ele>92</ele>
        <time>2022-01-27T15:01:11Z</time>
      </trkpt>
      <trkpt lat="47.27779" lon="-1.61528">
        <ele>93</ele>
        <time>2022-01-27T15:01:12Z</time>
      </trkpt>
      <trkpt lat="47.2778" lon="-1.61527">
        <ele>93</ele>
        <time>2022-01-27T15:01:13Z</time>
      </trkpt>
      <trkpt lat="47.27781" lon="-1.61526">
        <ele>93</ele>
        <time>2022-01-27T15:01:14Z</time>
      </trkpt>
      <trkpt lat="47.27782" lon="-1.61525">
        <ele>93</ele>
        <time>2022-01-27T15:01:15Z</time>
      </trkpt>
      <trkpt lat="47.27783" lon="-1.61525">
        <ele>93</ele>
        <time>2022-01-27T15:01:16Z</time>
      </trkpt>
      <trkpt lat="47.27784" lon="-1.61524">
        <ele>93</ele>
        <time>2022-01-27T15:01:17Z</time>
      </trkpt>
      <trkpt lat="47.27785" lon="-1.61523">
        <ele>93</ele>
        <time>2022-01-27T15:01:18Z</time>
      </trkpt>
      <trkpt lat="47.27786" lon="-1.61522">
        <ele>93</ele>
        <time>2022-01-27T15:01:19Z</time>
      </trkpt>
      <trkpt lat="47.27787" lon="-1.61521">
        <ele>94</ele>
        <time>2022-01-27T15:01:20Z</time>
      </trkpt>
      <trkpt lat="47.27789" lon="-1.6152">
        <ele>94</ele>
        <time>2022-01-27T15:01:22Z</time>
      </trkpt>
      <trkpt lat="47.27789" lon="-1.6152">
        <ele>94</ele>
        <time>2022-01-27T15:01:22Z</time>
      </trkpt>
      <trkpt lat="47.27791" lon="-1.61519">
        <ele>94</ele>
        <time>2022-01-27T15:01:23Z</time>
      </trkpt>
      <trkpt lat="47.27792" lon="-1.61519">
        <ele>94</ele>
        <time>2022-01-27T15:01:24Z</time>
      </trkpt>
      <trkpt lat="47.27794" lon="-1.61519">
        <ele>94</ele>
        <time>2022-01-27T15:01:25Z</time>
      </trkpt>
      <trkpt lat="47.27795" lon="-1.61518">
        <ele>94</ele>
        <time>2022-01-27T15:01:26Z</time>
      </trkpt>
      <trkpt lat="47.27798" lon="-1.61517">
        <ele>94</ele>
        <time>2022-01-27T15:01:28Z</time>
      </trkpt>
      <trkpt lat="47.27798" lon="-1.61517">
        <ele>94</ele>
        <time>2022-01-27T15:01:28Z</time>
      </trkpt>
      <trkpt lat="47.27799" lon="-1.61517">
        <ele>94</ele>
        <time>2022-01-27T15:01:29Z</time>
      </trkpt>
      <trkpt lat="47.278" lon="-1.61516">
        <ele>95</ele>
        <time>2022-01-27T15:01:30Z</time>
      </trkpt>
      <trkpt lat="47.27802" lon="-1.61515">
        <ele>95</ele>
        <time>2022-01-27T15:01:31Z</time>
      </trkpt>
      <trkpt lat="47.27803" lon="-1.61514">
        <ele>95</ele>
        <time>2022-01-27T15:01:33Z</time>
      </trkpt>
      <trkpt lat="47.27803" lon="-1.61514">
        <ele>95</ele>
        <time>2022-01-27T15:01:33Z</time>
      </trkpt>
      <trkpt lat="47.27804" lon="-1.61514">
        <ele>95</ele>
        <time>2022-01-27T15:01:34Z</time>
      </trkpt>
      <trkpt lat="47.27807" lon="-1.61514">
        <ele>95</ele>
        <time>2022-01-27T15:01:36Z</time>
      </trkpt>
      <trkpt lat="47.27807" lon="-1.61514">
        <ele>95</ele>
        <time>2022-01-27T15:01:36Z</time>
      </trkpt>
      <trkpt lat="47.27808" lon="-1.61513">
        <ele>95</ele>
        <time>2022-01-27T15:01:37Z</time>
      </trkpt>
      <trkpt lat="47.2781" lon="-1.61513">
        <ele>95</ele>
        <time>2022-01-27T15:01:38Z</time>
      </trkpt>
      <trkpt lat="47.27811" lon="-1.61513">
        <ele>95</ele>
        <time>2022-01-27T15:01:39Z</time>
      </trkpt>
      <trkpt lat="47.27812" lon="-1.61512">
        <ele>95</ele>
        <time>2022-01-27T15:01:40Z</time>
      </trkpt>
      <trkpt lat="47.27813" lon="-1.61512">
        <ele>95</ele>
        <time>2022-01-27T15:01:41Z</time>
      </trkpt>
      <trkpt lat="47.27815" lon="-1.6151">
        <ele>95</ele>
        <time>2022-01-27T15:01:42Z</time>
      </trkpt>
      <trkpt lat="47.27816" lon="-1.6151">
        <ele>95</ele>
        <time>2022-01-27T15:01:43Z</time>
      </trkpt>
      <trkpt lat="47.27818" lon="-1.61509">
        <ele>96</ele>
        <time>2022-01-27T15:01:45Z</time>
      </trkpt>
      <trkpt lat="47.27819" lon="-1.61509">
        <ele>96</ele>
        <time>2022-01-27T15:01:46Z</time>
      </trkpt>
      <trkpt lat="47.27819" lon="-1.61509">
        <ele>96</ele>
        <time>2022-01-27T15:01:46Z</time>
      </trkpt>
      <trkpt lat="47.27821" lon="-1.61508">
        <ele>96</ele>
        <time>2022-01-27T15:01:47Z</time>
      </trkpt>
      <trkpt lat="47.27822" lon="-1.61508">
        <ele>97</ele>
        <time>2022-01-27T15:01:48Z</time>
      </trkpt>
      <trkpt lat="47.27823" lon="-1.61507">
        <ele>96</ele>
        <time>2022-01-27T15:01:49Z</time>
      </trkpt>
      <trkpt lat="47.27824" lon="-1.61506">
        <ele>96</ele>
        <time>2022-01-27T15:01:50Z</time>
      </trkpt>
      <trkpt lat="47.27825" lon="-1.61506">
        <ele>96</ele>
        <time>2022-01-27T15:01:51Z</time>
      </trkpt>
      <trkpt lat="47.27826" lon="-1.61505">
        <ele>96</ele>
        <time>2022-01-27T15:01:52Z</time>
      </trkpt>
      <trkpt lat="47.27828" lon="-1.61505">
        <ele>96</ele>
        <time>2022-01-27T15:01:53Z</time>
      </trkpt>
      <trkpt lat="47.27829" lon="-1.61505">
        <ele>96</ele>
        <time>2022-01-27T15:01:55Z</time>
      </trkpt>
      <trkpt lat="47.27829" lon="-1.61505">
        <ele>96</ele>
        <time>2022-01-27T15:01:55Z</time>
      </trkpt>
      <trkpt lat="47.27831" lon="-1.61505">
        <ele>96</ele>
        <time>2022-01-27T15:01:57Z</time>
      </trkpt>
      <trkpt lat="47.27832" lon="-1.61505">
        <ele>96</ele>
        <time>2022-01-27T15:01:58Z</time>
      </trkpt>
      <trkpt lat="47.27832" lon="-1.61505">
        <ele>96</ele>
        <time>2022-01-27T15:01:58Z</time>
      </trkpt>
      <trkpt lat="47.27834" lon="-1.61504">
        <ele>96</ele>
        <time>2022-01-27T15:01:59Z</time>
      </trkpt>
      <trkpt lat="47.27835" lon="-1.61504">
        <ele>96</ele>
        <time>2022-01-27T15:02:00Z</time>
      </trkpt>
      <trkpt lat="47.27837" lon="-1.61503">
        <ele>96</ele>
        <time>2022-01-27T15:02:01Z</time>
      </trkpt>
      <trkpt lat="47.27838" lon="-1.61503">
        <ele>96</ele>
        <time>2022-01-27T15:02:02Z</time>
      </trkpt>
      <trkpt lat="47.27841" lon="-1.61503">
        <ele>96</ele>
        <time>2022-01-27T15:02:04Z</time>
      </trkpt>
      <trkpt lat="47.27841" lon="-1.61503">
        <ele>96</ele>
        <time>2022-01-27T15:02:04Z</time>
      </trkpt>
      <trkpt lat="47.27842" lon="-1.61503">
        <ele>96</ele>
        <time>2022-01-27T15:02:05Z</time>
      </trkpt>
      <trkpt lat="47.27843" lon="-1.61503">
        <ele>97</ele>
        <time>2022-01-27T15:02:06Z</time>
      </trkpt>
      <trkpt lat="47.27845" lon="-1.61504">
        <ele>97</ele>
        <time>2022-01-27T15:02:08Z</time>
      </trkpt>
      <trkpt lat="47.27846" lon="-1.61503">
        <ele>98</ele>
        <time>2022-01-27T15:02:09Z</time>
      </trkpt>
      <trkpt lat="47.27846" lon="-1.61503">
        <ele>98</ele>
        <time>2022-01-27T15:02:09Z</time>
      </trkpt>
      <trkpt lat="47.27847" lon="-1.61503">
        <ele>98</ele>
        <time>2022-01-27T15:02:10Z</time>
      </trkpt>
      <trkpt lat="47.27849" lon="-1.61503">
        <ele>97</ele>
        <time>2022-01-27T15:02:12Z</time>
      </trkpt>
      <trkpt lat="47.2785" lon="-1.61502">
        <ele>97</ele>
        <time>2022-01-27T15:02:13Z</time>
      </trkpt>
      <trkpt lat="47.2785" lon="-1.61502">
        <ele>97</ele>
        <time>2022-01-27T15:02:13Z</time>
      </trkpt>
      <trkpt lat="47.27852" lon="-1.61502">
        <ele>97</ele>
        <time>2022-01-27T15:02:15Z</time>
      </trkpt>
      <trkpt lat="47.27852" lon="-1.61502">
        <ele>97</ele>
        <time>2022-01-27T15:02:15Z</time>
      </trkpt>
      <trkpt lat="47.27854" lon="-1.61501">
        <ele>98</ele>
        <time>2022-01-27T15:02:17Z</time>
      </trkpt>
      <trkpt lat="47.27855" lon="-1.61501">
        <ele>98</ele>
        <time>2022-01-27T15:02:18Z</time>
      </trkpt>
      <trkpt lat="47.27855" lon="-1.61501">
        <ele>98</ele>
        <time>2022-01-27T15:02:18Z</time>
      </trkpt>
      <trkpt lat="47.27856" lon="-1.61501">
        <ele>98</ele>
        <time>2022-01-27T15:02:19Z</time>
      </trkpt>
      <trkpt lat="47.27857" lon="-1.61501">
        <ele>98</ele>
        <time>2022-01-27T15:02:20Z</time>
      </trkpt>
      <trkpt lat="47.27858" lon="-1.61501">
        <ele>98</ele>
        <time>2022-01-27T15:02:21Z</time>
      </trkpt>
      <trkpt lat="47.2786" lon="-1.61501">
        <ele>98</ele>
        <time>2022-01-27T15:02:22Z</time>
      </trkpt>
      <trkpt lat="47.27861" lon="-1.61502">
        <ele>99</ele>
        <time>2022-01-27T15:02:23Z</time>
      </trkpt>
      <trkpt lat="47.27861" lon="-1.61502">
        <ele>98</ele>
        <time>2022-01-27T15:02:24Z</time>
      </trkpt>
      <trkpt lat="47.27863" lon="-1.61502">
        <ele>98</ele>
        <time>2022-01-27T15:02:25Z</time>
      </trkpt>
      <trkpt lat="47.27864" lon="-1.61502">
        <ele>98</ele>
        <time>2022-01-27T15:02:26Z</time>
      </trkpt>
      <trkpt lat="47.27865" lon="-1.61502">
        <ele>98</ele>
        <time>2022-01-27T15:02:27Z</time>
      </trkpt>
      <trkpt lat="47.27866" lon="-1.61502">
        <ele>98</ele>
        <time>2022-01-27T15:02:28Z</time>
      </trkpt>
      <trkpt lat="47.27868" lon="-1.61502">
        <ele>99</ele>
        <time>2022-01-27T15:02:30Z</time>
      </trkpt>
      <trkpt lat="47.27868" lon="-1.61502">
        <ele>99</ele>
        <time>2022-01-27T15:02:30Z</time>
      </trkpt>
      <trkpt lat="47.27869" lon="-1.61502">
        <ele>99</ele>
        <time>2022-01-27T15:02:31Z</time>
      </trkpt>
      <trkpt lat="47.27871" lon="-1.61502">
        <ele>99</ele>
        <time>2022-01-27T15:02:32Z</time>
      </trkpt>
      <trkpt lat="47.27872" lon="-1.61502">
        <ele>100</ele>
        <time>2022-01-27T15:02:33Z</time>
      </trkpt>
      <trkpt lat="47.27873" lon="-1.61502">
        <ele>100</ele>
        <time>2022-01-27T15:02:34Z</time>
      </trkpt>
      <trkpt lat="47.27874" lon="-1.61501">
        <ele>100</ele>
        <time>2022-01-27T15:02:35Z</time>
      </trkpt>
      <trkpt lat="47.27876" lon="-1.61501">
        <ele>99</ele>
        <time>2022-01-27T15:02:36Z</time>
      </trkpt>
      <trkpt lat="47.27877" lon="-1.615">
        <ele>100</ele>
        <time>2022-01-27T15:02:37Z</time>
      </trkpt>
      <trkpt lat="47.27878" lon="-1.615">
        <ele>100</ele>
        <time>2022-01-27T15:02:38Z</time>
      </trkpt>
      <trkpt lat="47.27879" lon="-1.61499">
        <ele>100</ele>
        <time>2022-01-27T15:02:39Z</time>
      </trkpt>
      <trkpt lat="47.2788" lon="-1.61499">
        <ele>100</ele>
        <time>2022-01-27T15:02:40Z</time>
      </trkpt>
      <trkpt lat="47.2788" lon="-1.61498">
        <ele>100</ele>
        <time>2022-01-27T15:02:41Z</time>
      </trkpt>
      <trkpt lat="47.27881" lon="-1.61499">
        <ele>100</ele>
        <time>2022-01-27T15:02:42Z</time>
      </trkpt>
      <trkpt lat="47.27882" lon="-1.61498">
        <ele>99</ele>
        <time>2022-01-27T15:02:43Z</time>
      </trkpt>
      <trkpt lat="47.27884" lon="-1.61497">
        <ele>99</ele>
        <time>2022-01-27T15:02:44Z</time>
      </trkpt>
      <trkpt lat="47.27885" lon="-1.61497">
        <ele>100</ele>
        <time>2022-01-27T15:02:45Z</time>
      </trkpt>
      <trkpt lat="47.27887" lon="-1.61497">
        <ele>100</ele>
        <time>2022-01-27T15:02:46Z</time>
      </trkpt>
      <trkpt lat="47.27889" lon="-1.61496">
        <ele>100</ele>
        <time>2022-01-27T15:02:47Z</time>
      </trkpt>
      <trkpt lat="47.2789" lon="-1.61495">
        <ele>101</ele>
        <time>2022-01-27T15:02:48Z</time>
      </trkpt>
      <trkpt lat="47.27891" lon="-1.61494">
        <ele>101</ele>
        <time>2022-01-27T15:02:49Z</time>
      </trkpt>
      <trkpt lat="47.27892" lon="-1.61493">
        <ele>100</ele>
        <time>2022-01-27T15:02:50Z</time>
      </trkpt>
      <trkpt lat="47.27893" lon="-1.61492">
        <ele>100</ele>
        <time>2022-01-27T15:02:51Z</time>
      </trkpt>
      <trkpt lat="47.27894" lon="-1.61492">
        <ele>101</ele>
        <time>2022-01-27T15:02:52Z</time>
      </trkpt>
      <trkpt lat="47.27895" lon="-1.61491">
        <ele>101</ele>
        <time>2022-01-27T15:02:53Z</time>
      </trkpt>
      <trkpt lat="47.27896" lon="-1.6149">
        <ele>100</ele>
        <time>2022-01-27T15:02:54Z</time>
      </trkpt>
      <trkpt lat="47.27898" lon="-1.61488">
        <ele>101</ele>
        <time>2022-01-27T15:02:55Z</time>
      </trkpt>
      <trkpt lat="47.27898" lon="-1.61487">
        <ele>100</ele>
        <time>2022-01-27T15:02:56Z</time>
      </trkpt>
      <trkpt lat="47.279" lon="-1.61487">
        <ele>100</ele>
        <time>2022-01-27T15:02:57Z</time>
      </trkpt>
      <trkpt lat="47.279" lon="-1.61486">
        <ele>100</ele>
        <time>2022-01-27T15:02:58Z</time>
      </trkpt>
      <trkpt lat="47.27901" lon="-1.61485">
        <ele>100</ele>
        <time>2022-01-27T15:02:59Z</time>
      </trkpt>
      <trkpt lat="47.27902" lon="-1.61484">
        <ele>101</ele>
        <time>2022-01-27T15:03:00Z</time>
      </trkpt>
      <trkpt lat="47.27903" lon="-1.61483">
        <ele>100</ele>
        <time>2022-01-27T15:03:01Z</time>
      </trkpt>
      <trkpt lat="47.27904" lon="-1.61482">
        <ele>100</ele>
        <time>2022-01-27T15:03:02Z</time>
      </trkpt>
      <trkpt lat="47.27905" lon="-1.61481">
        <ele>100</ele>
        <time>2022-01-27T15:03:03Z</time>
      </trkpt>
      <trkpt lat="47.27905" lon="-1.6148">
        <ele>101</ele>
        <time>2022-01-27T15:03:04Z</time>
      </trkpt>
      <trkpt lat="47.27906" lon="-1.61479">
        <ele>101</ele>
        <time>2022-01-27T15:03:05Z</time>
      </trkpt>
      <trkpt lat="47.27906" lon="-1.61478">
        <ele>101</ele>
        <time>2022-01-27T15:03:06Z</time>
      </trkpt>
      <trkpt lat="47.27907" lon="-1.61478">
        <ele>101</ele>
        <time>2022-01-27T15:03:07Z</time>
      </trkpt>
      <trkpt lat="47.27908" lon="-1.61478">
        <ele>101</ele>
        <time>2022-01-27T15:03:08Z</time>
      </trkpt>
      <trkpt lat="47.2791" lon="-1.61478">
        <ele>101</ele>
        <time>2022-01-27T15:03:09Z</time>
      </trkpt>
      <trkpt lat="47.2791" lon="-1.61478">
        <ele>102</ele>
        <time>2022-01-27T15:03:10Z</time>
      </trkpt>
      <trkpt lat="47.27912" lon="-1.61478">
        <ele>101</ele>
        <time>2022-01-27T15:03:11Z</time>
      </trkpt>
      <trkpt lat="47.27913" lon="-1.61478">
        <ele>101</ele>
        <time>2022-01-27T15:03:12Z</time>
      </trkpt>
      <trkpt lat="47.27914" lon="-1.61478">
        <ele>102</ele>
        <time>2022-01-27T15:03:13Z</time>
      </trkpt>
      <trkpt lat="47.27916" lon="-1.61478">
        <ele>101</ele>
        <time>2022-01-27T15:03:14Z</time>
      </trkpt>
      <trkpt lat="47.27916" lon="-1.61478">
        <ele>101</ele>
        <time>2022-01-27T15:03:15Z</time>
      </trkpt>
      <trkpt lat="47.27917" lon="-1.61478">
        <ele>101</ele>
        <time>2022-01-27T15:03:16Z</time>
      </trkpt>
      <trkpt lat="47.27918" lon="-1.61478">
        <ele>101</ele>
        <time>2022-01-27T15:03:17Z</time>
      </trkpt>
      <trkpt lat="47.27918" lon="-1.61478">
        <ele>101</ele>
        <time>2022-01-27T15:03:18Z</time>
      </trkpt>
      <trkpt lat="47.27921" lon="-1.61478">
        <ele>102</ele>
        <time>2022-01-27T15:03:19Z</time>
      </trkpt>
      <trkpt lat="47.27921" lon="-1.61478">
        <ele>102</ele>
        <time>2022-01-27T15:03:20Z</time>
      </trkpt>
      <trkpt lat="47.27922" lon="-1.61478">
        <ele>102</ele>
        <time>2022-01-27T15:03:21Z</time>
      </trkpt>
      <trkpt lat="47.27924" lon="-1.61478">
        <ele>102</ele>
        <time>2022-01-27T15:03:22Z</time>
      </trkpt>
      <trkpt lat="47.27925" lon="-1.61478">
        <ele>102</ele>
        <time>2022-01-27T15:03:23Z</time>
      </trkpt>
      <trkpt lat="47.27926" lon="-1.61479">
        <ele>102</ele>
        <time>2022-01-27T15:03:24Z</time>
      </trkpt>
      <trkpt lat="47.27927" lon="-1.61478">
        <ele>102</ele>
        <time>2022-01-27T15:03:25Z</time>
      </trkpt>
      <trkpt lat="47.27928" lon="-1.61479">
        <ele>102</ele>
        <time>2022-01-27T15:03:26Z</time>
      </trkpt>
      <trkpt lat="47.27929" lon="-1.61479">
        <ele>103</ele>
        <time>2022-01-27T15:03:27Z</time>
      </trkpt>
      <trkpt lat="47.27929" lon="-1.61479">
        <ele>103</ele>
        <time>2022-01-27T15:03:28Z</time>
      </trkpt>
      <trkpt lat="47.27931" lon="-1.61481">
        <ele>103</ele>
        <time>2022-01-27T15:03:29Z</time>
      </trkpt>
      <trkpt lat="47.27931" lon="-1.61481">
        <ele>103</ele>
        <time>2022-01-27T15:03:30Z</time>
      </trkpt>
      <trkpt lat="47.27932" lon="-1.61482">
        <ele>103</ele>
        <time>2022-01-27T15:03:31Z</time>
      </trkpt>
      <trkpt lat="47.27933" lon="-1.61483">
        <ele>102</ele>
        <time>2022-01-27T15:03:32Z</time>
      </trkpt>
      <trkpt lat="47.27935" lon="-1.61484">
        <ele>103</ele>
        <time>2022-01-27T15:03:33Z</time>
      </trkpt>
      <trkpt lat="47.27936" lon="-1.61485">
        <ele>103</ele>
        <time>2022-01-27T15:03:34Z</time>
      </trkpt>
      <trkpt lat="47.27937" lon="-1.61485">
        <ele>103</ele>
        <time>2022-01-27T15:03:35Z</time>
      </trkpt>
      <trkpt lat="47.27938" lon="-1.61486">
        <ele>102</ele>
        <time>2022-01-27T15:03:36Z</time>
      </trkpt>
      <trkpt lat="47.27939" lon="-1.61487">
        <ele>102</ele>
        <time>2022-01-27T15:03:37Z</time>
      </trkpt>
      <trkpt lat="47.2794" lon="-1.61488">
        <ele>102</ele>
        <time>2022-01-27T15:03:38Z</time>
      </trkpt>
      <trkpt lat="47.27941" lon="-1.61488">
        <ele>102</ele>
        <time>2022-01-27T15:03:39Z</time>
      </trkpt>
      <trkpt lat="47.27943" lon="-1.61489">
        <ele>101</ele>
        <time>2022-01-27T15:03:40Z</time>
      </trkpt>
      <trkpt lat="47.27944" lon="-1.61491">
        <ele>102</ele>
        <time>2022-01-27T15:03:41Z</time>
      </trkpt>
      <trkpt lat="47.27945" lon="-1.61492">
        <ele>101</ele>
        <time>2022-01-27T15:03:42Z</time>
      </trkpt>
      <trkpt lat="47.27946" lon="-1.61493">
        <ele>101</ele>
        <time>2022-01-27T15:03:43Z</time>
      </trkpt>
      <trkpt lat="47.27948" lon="-1.61494">
        <ele>101</ele>
        <time>2022-01-27T15:03:44Z</time>
      </trkpt>
      <trkpt lat="47.27949" lon="-1.61495">
        <ele>102</ele>
        <time>2022-01-27T15:03:45Z</time>
      </trkpt>
      <trkpt lat="47.2795" lon="-1.61497">
        <ele>102</ele>
        <time>2022-01-27T15:03:46Z</time>
      </trkpt>
      <trkpt lat="47.27953" lon="-1.61499">
        <ele>104</ele>
        <time>2022-01-27T15:03:48Z</time>
      </trkpt>
      <trkpt lat="47.27953" lon="-1.61499">
        <ele>104</ele>
        <time>2022-01-27T15:03:48Z</time>
      </trkpt>
      <trkpt lat="47.27954" lon="-1.61499">
        <ele>104</ele>
        <time>2022-01-27T15:03:49Z</time>
      </trkpt>
      <trkpt lat="47.27955" lon="-1.615">
        <ele>103</ele>
        <time>2022-01-27T15:03:50Z</time>
      </trkpt>
      <trkpt lat="47.27957" lon="-1.615">
        <ele>104</ele>
        <time>2022-01-27T15:03:51Z</time>
      </trkpt>
      <trkpt lat="47.27958" lon="-1.61501">
        <ele>104</ele>
        <time>2022-01-27T15:03:52Z</time>
      </trkpt>
      <trkpt lat="47.27959" lon="-1.61501">
        <ele>104</ele>
        <time>2022-01-27T15:03:53Z</time>
      </trkpt>
      <trkpt lat="47.27961" lon="-1.61501">
        <ele>105</ele>
        <time>2022-01-27T15:03:54Z</time>
      </trkpt>
      <trkpt lat="47.27963" lon="-1.61501">
        <ele>104</ele>
        <time>2022-01-27T15:03:55Z</time>
      </trkpt>
      <trkpt lat="47.27964" lon="-1.61501">
        <ele>104</ele>
        <time>2022-01-27T15:03:56Z</time>
      </trkpt>
      <trkpt lat="47.27966" lon="-1.61501">
        <ele>104</ele>
        <time>2022-01-27T15:03:57Z</time>
      </trkpt>
      <trkpt lat="47.27968" lon="-1.61501">
        <ele>103</ele>
        <time>2022-01-27T15:03:58Z</time>
      </trkpt>
      <trkpt lat="47.27969" lon="-1.61501">
        <ele>103</ele>
        <time>2022-01-27T15:03:59Z</time>
      </trkpt>
      <trkpt lat="47.27971" lon="-1.61501">
        <ele>104</ele>
        <time>2022-01-27T15:04:00Z</time>
      </trkpt>
      <trkpt lat="47.27972" lon="-1.61501">
        <ele>104</ele>
        <time>2022-01-27T15:04:01Z</time>
      </trkpt>
      <trkpt lat="47.27974" lon="-1.61501">
        <ele>105</ele>
        <time>2022-01-27T15:04:02Z</time>
      </trkpt>
      <trkpt lat="47.27976" lon="-1.61501">
        <ele>105</ele>
        <time>2022-01-27T15:04:03Z</time>
      </trkpt>
      <trkpt lat="47.27977" lon="-1.615">
        <ele>105</ele>
        <time>2022-01-27T15:04:04Z</time>
      </trkpt>
      <trkpt lat="47.27978" lon="-1.615">
        <ele>106</ele>
        <time>2022-01-27T15:04:05Z</time>
      </trkpt>
      <trkpt lat="47.27979" lon="-1.615">
        <ele>106</ele>
        <time>2022-01-27T15:04:06Z</time>
      </trkpt>
      <trkpt lat="47.2798" lon="-1.61499">
        <ele>106</ele>
        <time>2022-01-27T15:04:07Z</time>
      </trkpt>
      <trkpt lat="47.27982" lon="-1.61499">
        <ele>106</ele>
        <time>2022-01-27T15:04:08Z</time>
      </trkpt>
      <trkpt lat="47.27983" lon="-1.61498">
        <ele>106</ele>
        <time>2022-01-27T15:04:09Z</time>
      </trkpt>
      <trkpt lat="47.27984" lon="-1.61498">
        <ele>106</ele>
        <time>2022-01-27T15:04:10Z</time>
      </trkpt>
      <trkpt lat="47.27986" lon="-1.61497">
        <ele>107</ele>
        <time>2022-01-27T15:04:11Z</time>
      </trkpt>
      <trkpt lat="47.27987" lon="-1.61496">
        <ele>107</ele>
        <time>2022-01-27T15:04:12Z</time>
      </trkpt>
      <trkpt lat="47.27989" lon="-1.61496">
        <ele>108</ele>
        <time>2022-01-27T15:04:13Z</time>
      </trkpt>
      <trkpt lat="47.2799" lon="-1.61495">
        <ele>108</ele>
        <time>2022-01-27T15:04:14Z</time>
      </trkpt>
      <trkpt lat="47.27992" lon="-1.61495">
        <ele>107</ele>
        <time>2022-01-27T15:04:15Z</time>
      </trkpt>
      <trkpt lat="47.27993" lon="-1.61495">
        <ele>107</ele>
        <time>2022-01-27T15:04:16Z</time>
      </trkpt>
      <trkpt lat="47.27993" lon="-1.61495">
        <ele>108</ele>
        <time>2022-01-27T15:04:17Z</time>
      </trkpt>
      <trkpt lat="47.27995" lon="-1.61494">
        <ele>108</ele>
        <time>2022-01-27T15:04:18Z</time>
      </trkpt>
      <trkpt lat="47.27996" lon="-1.61493">
        <ele>108</ele>
        <time>2022-01-27T15:04:19Z</time>
      </trkpt>
      <trkpt lat="47.27997" lon="-1.61493">
        <ele>109</ele>
        <time>2022-01-27T15:04:20Z</time>
      </trkpt>
      <trkpt lat="47.27998" lon="-1.61492">
        <ele>109</ele>
        <time>2022-01-27T15:04:21Z</time>
      </trkpt>
      <trkpt lat="47.27999" lon="-1.61491">
        <ele>109</ele>
        <time>2022-01-27T15:04:22Z</time>
      </trkpt>
      <trkpt lat="47.28" lon="-1.6149">
        <ele>109</ele>
        <time>2022-01-27T15:04:23Z</time>
      </trkpt>
      <trkpt lat="47.28001" lon="-1.6149">
        <ele>109</ele>
        <time>2022-01-27T15:04:24Z</time>
      </trkpt>
      <trkpt lat="47.28002" lon="-1.61489">
        <ele>109</ele>
        <time>2022-01-27T15:04:25Z</time>
      </trkpt>
      <trkpt lat="47.28003" lon="-1.61488">
        <ele>109</ele>
        <time>2022-01-27T15:04:26Z</time>
      </trkpt>
      <trkpt lat="47.28006" lon="-1.61486">
        <ele>108</ele>
        <time>2022-01-27T15:04:28Z</time>
      </trkpt>
      <trkpt lat="47.28006" lon="-1.61486">
        <ele>108</ele>
        <time>2022-01-27T15:04:28Z</time>
      </trkpt>
      <trkpt lat="47.28008" lon="-1.61486">
        <ele>108</ele>
        <time>2022-01-27T15:04:29Z</time>
      </trkpt>
      <trkpt lat="47.28009" lon="-1.61485">
        <ele>109</ele>
        <time>2022-01-27T15:04:30Z</time>
      </trkpt>
      <trkpt lat="47.28011" lon="-1.61484">
        <ele>109</ele>
        <time>2022-01-27T15:04:32Z</time>
      </trkpt>
      <trkpt lat="47.28011" lon="-1.61484">
        <ele>109</ele>
        <time>2022-01-27T15:04:32Z</time>
      </trkpt>
      <trkpt lat="47.28011" lon="-1.61484">
        <ele>109</ele>
        <time>2022-01-27T15:04:33Z</time>
      </trkpt>
      <trkpt lat="47.28012" lon="-1.61484">
        <ele>109</ele>
        <time>2022-01-27T15:04:34Z</time>
      </trkpt>
      <trkpt lat="47.28014" lon="-1.61484">
        <ele>109</ele>
        <time>2022-01-27T15:04:35Z</time>
      </trkpt>
      <trkpt lat="47.28014" lon="-1.61483">
        <ele>109</ele>
        <time>2022-01-27T15:04:36Z</time>
      </trkpt>
      <trkpt lat="47.28015" lon="-1.61483">
        <ele>109</ele>
        <time>2022-01-27T15:04:37Z</time>
      </trkpt>
      <trkpt lat="47.28016" lon="-1.61482">
        <ele>109</ele>
        <time>2022-01-27T15:04:38Z</time>
      </trkpt>
      <trkpt lat="47.28017" lon="-1.61483">
        <ele>108</ele>
        <time>2022-01-27T15:04:39Z</time>
      </trkpt>
      <trkpt lat="47.28019" lon="-1.61483">
        <ele>108</ele>
        <time>2022-01-27T15:04:41Z</time>
      </trkpt>
      <trkpt lat="47.28021" lon="-1.61483">
        <ele>108</ele>
        <time>2022-01-27T15:04:42Z</time>
      </trkpt>
      <trkpt lat="47.28022" lon="-1.61483">
        <ele>108</ele>
        <time>2022-01-27T15:04:43Z</time>
      </trkpt>
      <trkpt lat="47.28022" lon="-1.61483">
        <ele>108</ele>
        <time>2022-01-27T15:04:43Z</time>
      </trkpt>
      <trkpt lat="47.28024" lon="-1.61482">
        <ele>107</ele>
        <time>2022-01-27T15:04:44Z</time>
      </trkpt>
      <trkpt lat="47.28024" lon="-1.61482">
        <ele>107</ele>
        <time>2022-01-27T15:04:45Z</time>
      </trkpt>
      <trkpt lat="47.28025" lon="-1.61481">
        <ele>107</ele>
        <time>2022-01-27T15:04:46Z</time>
      </trkpt>
      <trkpt lat="47.28026" lon="-1.6148">
        <ele>106</ele>
        <time>2022-01-27T15:04:47Z</time>
      </trkpt>
      <trkpt lat="47.28029" lon="-1.61477">
        <ele>106</ele>
        <time>2022-01-27T15:04:49Z</time>
      </trkpt>
      <trkpt lat="47.28029" lon="-1.61477">
        <ele>106</ele>
        <time>2022-01-27T15:04:49Z</time>
      </trkpt>
      <trkpt lat="47.2803" lon="-1.61475">
        <ele>106</ele>
        <time>2022-01-27T15:04:50Z</time>
      </trkpt>
      <trkpt lat="47.28032" lon="-1.61473">
        <ele>105</ele>
        <time>2022-01-27T15:04:51Z</time>
      </trkpt>
      <trkpt lat="47.28034" lon="-1.6147">
        <ele>105</ele>
        <time>2022-01-27T15:04:53Z</time>
      </trkpt>
      <trkpt lat="47.28035" lon="-1.61468">
        <ele>104</ele>
        <time>2022-01-27T15:04:54Z</time>
      </trkpt>
      <trkpt lat="47.28036" lon="-1.61466">
        <ele>105</ele>
        <time>2022-01-27T15:04:55Z</time>
      </trkpt>
      <trkpt lat="47.28036" lon="-1.61466">
        <ele>105</ele>
        <time>2022-01-27T15:04:55Z</time>
      </trkpt>
      <trkpt lat="47.28037" lon="-1.61462">
        <ele>104</ele>
        <time>2022-01-27T15:04:57Z</time>
      </trkpt>
      <trkpt lat="47.28037" lon="-1.61462">
        <ele>104</ele>
        <time>2022-01-27T15:04:57Z</time>
      </trkpt>
      <trkpt lat="47.28038" lon="-1.6146">
        <ele>104</ele>
        <time>2022-01-27T15:04:58Z</time>
      </trkpt>
      <trkpt lat="47.28038" lon="-1.61456">
        <ele>104</ele>
        <time>2022-01-27T15:05:00Z</time>
      </trkpt>
      <trkpt lat="47.28039" lon="-1.61454">
        <ele>105</ele>
        <time>2022-01-27T15:05:01Z</time>
      </trkpt>
      <trkpt lat="47.28039" lon="-1.61454">
        <ele>105</ele>
        <time>2022-01-27T15:05:01Z</time>
      </trkpt>
      <trkpt lat="47.28039" lon="-1.61452">
        <ele>104</ele>
        <time>2022-01-27T15:05:02Z</time>
      </trkpt>
      <trkpt lat="47.28039" lon="-1.6145">
        <ele>104</ele>
        <time>2022-01-27T15:05:03Z</time>
      </trkpt>
      <trkpt lat="47.2804" lon="-1.61448">
        <ele>104</ele>
        <time>2022-01-27T15:05:04Z</time>
      </trkpt>
      <trkpt lat="47.2804" lon="-1.61446">
        <ele>104</ele>
        <time>2022-01-27T15:05:05Z</time>
      </trkpt>
      <trkpt lat="47.2804" lon="-1.61444">
        <ele>104</ele>
        <time>2022-01-27T15:05:06Z</time>
      </trkpt>
      <trkpt lat="47.2804" lon="-1.61442">
        <ele>104</ele>
        <time>2022-01-27T15:05:07Z</time>
      </trkpt>
      <trkpt lat="47.2804" lon="-1.61441">
        <ele>104</ele>
        <time>2022-01-27T15:05:08Z</time>
      </trkpt>
      <trkpt lat="47.2804" lon="-1.6144">
        <ele>105</ele>
        <time>2022-01-27T15:05:09Z</time>
      </trkpt>
      <trkpt lat="47.2804" lon="-1.61438">
        <ele>105</ele>
        <time>2022-01-27T15:05:10Z</time>
      </trkpt>
      <trkpt lat="47.2804" lon="-1.61436">
        <ele>105</ele>
        <time>2022-01-27T15:05:11Z</time>
      </trkpt>
      <trkpt lat="47.2804" lon="-1.61435">
        <ele>105</ele>
        <time>2022-01-27T15:05:12Z</time>
      </trkpt>
      <trkpt lat="47.2804" lon="-1.61433">
        <ele>105</ele>
        <time>2022-01-27T15:05:13Z</time>
      </trkpt>
      <trkpt lat="47.2804" lon="-1.61431">
        <ele>105</ele>
        <time>2022-01-27T15:05:14Z</time>
      </trkpt>
      <trkpt lat="47.2804" lon="-1.61429">
        <ele>105</ele>
        <time>2022-01-27T15:05:15Z</time>
      </trkpt>
      <trkpt lat="47.2804" lon="-1.61428">
        <ele>106</ele>
        <time>2022-01-27T15:05:16Z</time>
      </trkpt>
      <trkpt lat="47.2804" lon="-1.61426">
        <ele>106</ele>
        <time>2022-01-27T15:05:17Z</time>
      </trkpt>
      <trkpt lat="47.2804" lon="-1.61424">
        <ele>106</ele>
        <time>2022-01-27T15:05:18Z</time>
      </trkpt>
      <trkpt lat="47.28039" lon="-1.61424">
        <ele>106</ele>
        <time>2022-01-27T15:05:19Z</time>
      </trkpt>
      <trkpt lat="47.28038" lon="-1.61423">
        <ele>106</ele>
        <time>2022-01-27T15:05:20Z</time>
      </trkpt>
      <trkpt lat="47.28038" lon="-1.61421">
        <ele>106</ele>
        <time>2022-01-27T15:05:21Z</time>
      </trkpt>
      <trkpt lat="47.28038" lon="-1.6142">
        <ele>107</ele>
        <time>2022-01-27T15:05:22Z</time>
      </trkpt>
      <trkpt lat="47.28039" lon="-1.61419">
        <ele>106</ele>
        <time>2022-01-27T15:05:23Z</time>
      </trkpt>
      <trkpt lat="47.28039" lon="-1.61418">
        <ele>106</ele>
        <time>2022-01-27T15:05:24Z</time>
      </trkpt>
      <trkpt lat="47.28039" lon="-1.61416">
        <ele>106</ele>
        <time>2022-01-27T15:05:25Z</time>
      </trkpt>
      <trkpt lat="47.2804" lon="-1.61415">
        <ele>106</ele>
        <time>2022-01-27T15:05:26Z</time>
      </trkpt>
      <trkpt lat="47.2804" lon="-1.61413">
        <ele>106</ele>
        <time>2022-01-27T15:05:27Z</time>
      </trkpt>
      <trkpt lat="47.2804" lon="-1.61411">
        <ele>107</ele>
        <time>2022-01-27T15:05:28Z</time>
      </trkpt>
      <trkpt lat="47.28039" lon="-1.61409">
        <ele>107</ele>
        <time>2022-01-27T15:05:29Z</time>
      </trkpt>
      <trkpt lat="47.28039" lon="-1.61407">
        <ele>107</ele>
        <time>2022-01-27T15:05:30Z</time>
      </trkpt>
      <trkpt lat="47.28039" lon="-1.61405">
        <ele>107</ele>
        <time>2022-01-27T15:05:31Z</time>
      </trkpt>
      <trkpt lat="47.28038" lon="-1.61403">
        <ele>107</ele>
        <time>2022-01-27T15:05:32Z</time>
      </trkpt>
      <trkpt lat="47.28038" lon="-1.61401">
        <ele>106</ele>
        <time>2022-01-27T15:05:33Z</time>
      </trkpt>
      <trkpt lat="47.28038" lon="-1.61399">
        <ele>106</ele>
        <time>2022-01-27T15:05:34Z</time>
      </trkpt>
      <trkpt lat="47.28038" lon="-1.61398">
        <ele>106</ele>
        <time>2022-01-27T15:05:35Z</time>
      </trkpt>
      <trkpt lat="47.28038" lon="-1.61396">
        <ele>107</ele>
        <time>2022-01-27T15:05:36Z</time>
      </trkpt>
      <trkpt lat="47.28038" lon="-1.61394">
        <ele>107</ele>
        <time>2022-01-27T15:05:37Z</time>
      </trkpt>
      <trkpt lat="47.28038" lon="-1.61393">
        <ele>107</ele>
        <time>2022-01-27T15:05:38Z</time>
      </trkpt>
      <trkpt lat="47.28038" lon="-1.61391">
        <ele>107</ele>
        <time>2022-01-27T15:05:39Z</time>
      </trkpt>
      <trkpt lat="47.28037" lon="-1.6139">
        <ele>107</ele>
        <time>2022-01-27T15:05:40Z</time>
      </trkpt>
      <trkpt lat="47.28037" lon="-1.61388">
        <ele>107</ele>
        <time>2022-01-27T15:05:41Z</time>
      </trkpt>
      <trkpt lat="47.28037" lon="-1.61386">
        <ele>107</ele>
        <time>2022-01-27T15:05:42Z</time>
      </trkpt>
      <trkpt lat="47.28037" lon="-1.61385">
        <ele>107</ele>
        <time>2022-01-27T15:05:43Z</time>
      </trkpt>
      <trkpt lat="47.28037" lon="-1.61383">
        <ele>106</ele>
        <time>2022-01-27T15:05:44Z</time>
      </trkpt>
      <trkpt lat="47.28037" lon="-1.6138">
        <ele>106</ele>
        <time>2022-01-27T15:05:45Z</time>
      </trkpt>
      <trkpt lat="47.28036" lon="-1.61378">
        <ele>106</ele>
        <time>2022-01-27T15:05:46Z</time>
      </trkpt>
      <trkpt lat="47.28036" lon="-1.61377">
        <ele>107</ele>
        <time>2022-01-27T15:05:47Z</time>
      </trkpt>
      <trkpt lat="47.28036" lon="-1.61375">
        <ele>107</ele>
        <time>2022-01-27T15:05:48Z</time>
      </trkpt>
      <trkpt lat="47.28035" lon="-1.61373">
        <ele>106</ele>
        <time>2022-01-27T15:05:49Z</time>
      </trkpt>
      <trkpt lat="47.28035" lon="-1.61371">
        <ele>106</ele>
        <time>2022-01-27T15:05:50Z</time>
      </trkpt>
      <trkpt lat="47.28035" lon="-1.61366">
        <ele>106</ele>
        <time>2022-01-27T15:05:52Z</time>
      </trkpt>
      <trkpt lat="47.28035" lon="-1.61366">
        <ele>106</ele>
        <time>2022-01-27T15:05:52Z</time>
      </trkpt>
      <trkpt lat="47.28035" lon="-1.61364">
        <ele>106</ele>
        <time>2022-01-27T15:05:53Z</time>
      </trkpt>
      <trkpt lat="47.28035" lon="-1.61362">
        <ele>106</ele>
        <time>2022-01-27T15:05:54Z</time>
      </trkpt>
      <trkpt lat="47.28035" lon="-1.61361">
        <ele>106</ele>
        <time>2022-01-27T15:05:55Z</time>
      </trkpt>
      <trkpt lat="47.28035" lon="-1.61357">
        <ele>106</ele>
        <time>2022-01-27T15:05:57Z</time>
      </trkpt>
      <trkpt lat="47.28035" lon="-1.61357">
        <ele>106</ele>
        <time>2022-01-27T15:05:57Z</time>
      </trkpt>
      <trkpt lat="47.28035" lon="-1.61356">
        <ele>105</ele>
        <time>2022-01-27T15:05:58Z</time>
      </trkpt>
      <trkpt lat="47.28034" lon="-1.61352">
        <ele>106</ele>
        <time>2022-01-27T15:06:00Z</time>
      </trkpt>
      <trkpt lat="47.28034" lon="-1.61352">
        <ele>106</ele>
        <time>2022-01-27T15:06:00Z</time>
      </trkpt>
      <trkpt lat="47.28034" lon="-1.6135">
        <ele>106</ele>
        <time>2022-01-27T15:06:01Z</time>
      </trkpt>
      <trkpt lat="47.28034" lon="-1.61346">
        <ele>105</ele>
        <time>2022-01-27T15:06:03Z</time>
      </trkpt>
      <trkpt lat="47.28033" lon="-1.61344">
        <ele>106</ele>
        <time>2022-01-27T15:06:04Z</time>
      </trkpt>
      <trkpt lat="47.28033" lon="-1.61344">
        <ele>106</ele>
        <time>2022-01-27T15:06:04Z</time>
      </trkpt>
      <trkpt lat="47.28033" lon="-1.61341">
        <ele>106</ele>
        <time>2022-01-27T15:06:06Z</time>
      </trkpt>
      <trkpt lat="47.28033" lon="-1.61341">
        <ele>106</ele>
        <time>2022-01-27T15:06:06Z</time>
      </trkpt>
      <trkpt lat="47.28033" lon="-1.61338">
        <ele>106</ele>
        <time>2022-01-27T15:06:08Z</time>
      </trkpt>
      <trkpt lat="47.28033" lon="-1.61338">
        <ele>106</ele>
        <time>2022-01-27T15:06:08Z</time>
      </trkpt>
      <trkpt lat="47.28033" lon="-1.61336">
        <ele>105</ele>
        <time>2022-01-27T15:06:09Z</time>
      </trkpt>
      <trkpt lat="47.28033" lon="-1.61334">
        <ele>105</ele>
        <time>2022-01-27T15:06:10Z</time>
      </trkpt>
      <trkpt lat="47.28033" lon="-1.61332">
        <ele>106</ele>
        <time>2022-01-27T15:06:11Z</time>
      </trkpt>
      <trkpt lat="47.28032" lon="-1.61328">
        <ele>106</ele>
        <time>2022-01-27T15:06:13Z</time>
      </trkpt>
      <trkpt lat="47.28032" lon="-1.61328">
        <ele>106</ele>
        <time>2022-01-27T15:06:13Z</time>
      </trkpt>
      <trkpt lat="47.28032" lon="-1.61327">
        <ele>106</ele>
        <time>2022-01-27T15:06:14Z</time>
      </trkpt>
      <trkpt lat="47.28032" lon="-1.61325">
        <ele>107</ele>
        <time>2022-01-27T15:06:15Z</time>
      </trkpt>
      <trkpt lat="47.28032" lon="-1.61323">
        <ele>106</ele>
        <time>2022-01-27T15:06:16Z</time>
      </trkpt>
      <trkpt lat="47.28031" lon="-1.6132">
        <ele>106</ele>
        <time>2022-01-27T15:06:17Z</time>
      </trkpt>
      <trkpt lat="47.2803" lon="-1.61316">
        <ele>106</ele>
        <time>2022-01-27T15:06:19Z</time>
      </trkpt>
      <trkpt lat="47.2803" lon="-1.61314">
        <ele>107</ele>
        <time>2022-01-27T15:06:20Z</time>
      </trkpt>
      <trkpt lat="47.2803" lon="-1.61314">
        <ele>107</ele>
        <time>2022-01-27T15:06:20Z</time>
      </trkpt>
      <trkpt lat="47.2803" lon="-1.61312">
        <ele>106</ele>
        <time>2022-01-27T15:06:21Z</time>
      </trkpt>
      <trkpt lat="47.28029" lon="-1.6131">
        <ele>107</ele>
        <time>2022-01-27T15:06:22Z</time>
      </trkpt>
      <trkpt lat="47.28029" lon="-1.61308">
        <ele>107</ele>
        <time>2022-01-27T15:06:23Z</time>
      </trkpt>
      <trkpt lat="47.28028" lon="-1.61305">
        <ele>107</ele>
        <time>2022-01-27T15:06:25Z</time>
      </trkpt>
      <trkpt lat="47.28028" lon="-1.61305">
        <ele>107</ele>
        <time>2022-01-27T15:06:25Z</time>
      </trkpt>
      <trkpt lat="47.28027" lon="-1.61303">
        <ele>107</ele>
        <time>2022-01-27T15:06:26Z</time>
      </trkpt>
      <trkpt lat="47.28027" lon="-1.613">
        <ele>107</ele>
        <time>2022-01-27T15:06:28Z</time>
      </trkpt>
      <trkpt lat="47.28027" lon="-1.61298">
        <ele>107</ele>
        <time>2022-01-27T15:06:29Z</time>
      </trkpt>
      <trkpt lat="47.28027" lon="-1.61296">
        <ele>107</ele>
        <time>2022-01-27T15:06:30Z</time>
      </trkpt>
      <trkpt lat="47.28027" lon="-1.61296">
        <ele>107</ele>
        <time>2022-01-27T15:06:30Z</time>
      </trkpt>
      <trkpt lat="47.28027" lon="-1.61294">
        <ele>107</ele>
        <time>2022-01-27T15:06:31Z</time>
      </trkpt>
      <trkpt lat="47.28027" lon="-1.61292">
        <ele>107</ele>
        <time>2022-01-27T15:06:32Z</time>
      </trkpt>
      <trkpt lat="47.28027" lon="-1.6129">
        <ele>107</ele>
        <time>2022-01-27T15:06:33Z</time>
      </trkpt>
      <trkpt lat="47.28026" lon="-1.61287">
        <ele>107</ele>
        <time>2022-01-27T15:06:35Z</time>
      </trkpt>
      <trkpt lat="47.28026" lon="-1.61287">
        <ele>107</ele>
        <time>2022-01-27T15:06:35Z</time>
      </trkpt>
      <trkpt lat="47.28026" lon="-1.61285">
        <ele>107</ele>
        <time>2022-01-27T15:06:36Z</time>
      </trkpt>
      <trkpt lat="47.28026" lon="-1.61283">
        <ele>106</ele>
        <time>2022-01-27T15:06:37Z</time>
      </trkpt>
      <trkpt lat="47.28025" lon="-1.61281">
        <ele>106</ele>
        <time>2022-01-27T15:06:38Z</time>
      </trkpt>
      <trkpt lat="47.28025" lon="-1.61279">
        <ele>106</ele>
        <time>2022-01-27T15:06:39Z</time>
      </trkpt>
      <trkpt lat="47.28025" lon="-1.61277">
        <ele>106</ele>
        <time>2022-01-27T15:06:40Z</time>
      </trkpt>
      <trkpt lat="47.28024" lon="-1.61276">
        <ele>106</ele>
        <time>2022-01-27T15:06:41Z</time>
      </trkpt>
      <trkpt lat="47.28024" lon="-1.61274">
        <ele>106</ele>
        <time>2022-01-27T15:06:42Z</time>
      </trkpt>
      <trkpt lat="47.28024" lon="-1.61272">
        <ele>106</ele>
        <time>2022-01-27T15:06:43Z</time>
      </trkpt>
      <trkpt lat="47.28023" lon="-1.61271">
        <ele>105</ele>
        <time>2022-01-27T15:06:44Z</time>
      </trkpt>
      <trkpt lat="47.28022" lon="-1.61269">
        <ele>105</ele>
        <time>2022-01-27T15:06:45Z</time>
      </trkpt>
      <trkpt lat="47.28022" lon="-1.61267">
        <ele>106</ele>
        <time>2022-01-27T15:06:46Z</time>
      </trkpt>
      <trkpt lat="47.28021" lon="-1.61266">
        <ele>106</ele>
        <time>2022-01-27T15:06:47Z</time>
      </trkpt>
      <trkpt lat="47.2802" lon="-1.61264">
        <ele>106</ele>
        <time>2022-01-27T15:06:48Z</time>
      </trkpt>
      <trkpt lat="47.28019" lon="-1.61263">
        <ele>105</ele>
        <time>2022-01-27T15:06:49Z</time>
      </trkpt>
      <trkpt lat="47.28019" lon="-1.61261">
        <ele>106</ele>
        <time>2022-01-27T15:06:50Z</time>
      </trkpt>
      <trkpt lat="47.28018" lon="-1.61259">
        <ele>105</ele>
        <time>2022-01-27T15:06:51Z</time>
      </trkpt>
      <trkpt lat="47.28017" lon="-1.61254">
        <ele>105</ele>
        <time>2022-01-27T15:06:53Z</time>
      </trkpt>
      <trkpt lat="47.28017" lon="-1.61254">
        <ele>105</ele>
        <time>2022-01-27T15:06:53Z</time>
      </trkpt>
      <trkpt lat="47.28016" lon="-1.61253">
        <ele>105</ele>
        <time>2022-01-27T15:06:54Z</time>
      </trkpt>
      <trkpt lat="47.28015" lon="-1.61249">
        <ele>105</ele>
        <time>2022-01-27T15:06:56Z</time>
      </trkpt>
      <trkpt lat="47.28015" lon="-1.61247">
        <ele>105</ele>
        <time>2022-01-27T15:06:57Z</time>
      </trkpt>
      <trkpt lat="47.28014" lon="-1.61245">
        <ele>105</ele>
        <time>2022-01-27T15:06:58Z</time>
      </trkpt>
      <trkpt lat="47.28014" lon="-1.61245">
        <ele>105</ele>
        <time>2022-01-27T15:06:58Z</time>
      </trkpt>
      <trkpt lat="47.28014" lon="-1.61243">
        <ele>105</ele>
        <time>2022-01-27T15:06:59Z</time>
      </trkpt>
      <trkpt lat="47.28013" lon="-1.61241">
        <ele>105</ele>
        <time>2022-01-27T15:07:00Z</time>
      </trkpt>
      <trkpt lat="47.28011" lon="-1.61239">
        <ele>104</ele>
        <time>2022-01-27T15:07:02Z</time>
      </trkpt>
      <trkpt lat="47.28011" lon="-1.61239">
        <ele>104</ele>
        <time>2022-01-27T15:07:02Z</time>
      </trkpt>
      <trkpt lat="47.28011" lon="-1.61237">
        <ele>104</ele>
        <time>2022-01-27T15:07:03Z</time>
      </trkpt>
      <trkpt lat="47.2801" lon="-1.61234">
        <ele>103</ele>
        <time>2022-01-27T15:07:05Z</time>
      </trkpt>
      <trkpt lat="47.28009" lon="-1.61233">
        <ele>103</ele>
        <time>2022-01-27T15:07:06Z</time>
      </trkpt>
      <trkpt lat="47.28009" lon="-1.61231">
        <ele>103</ele>
        <time>2022-01-27T15:07:07Z</time>
      </trkpt>
      <trkpt lat="47.28008" lon="-1.61229">
        <ele>103</ele>
        <time>2022-01-27T15:07:08Z</time>
      </trkpt>
      <trkpt lat="47.28008" lon="-1.61227">
        <ele>103</ele>
        <time>2022-01-27T15:07:09Z</time>
      </trkpt>
      <trkpt lat="47.28008" lon="-1.61227">
        <ele>103</ele>
        <time>2022-01-27T15:07:09Z</time>
      </trkpt>
      <trkpt lat="47.28006" lon="-1.61223">
        <ele>103</ele>
        <time>2022-01-27T15:07:11Z</time>
      </trkpt>
      <trkpt lat="47.28006" lon="-1.6122">
        <ele>103</ele>
        <time>2022-01-27T15:07:12Z</time>
      </trkpt>
      <trkpt lat="47.28006" lon="-1.61219">
        <ele>103</ele>
        <time>2022-01-27T15:07:13Z</time>
      </trkpt>
      <trkpt lat="47.28006" lon="-1.61219">
        <ele>103</ele>
        <time>2022-01-27T15:07:13Z</time>
      </trkpt>
      <trkpt lat="47.28005" lon="-1.61216">
        <ele>102</ele>
        <time>2022-01-27T15:07:15Z</time>
      </trkpt>
      <trkpt lat="47.28005" lon="-1.61216">
        <ele>102</ele>
        <time>2022-01-27T15:07:15Z</time>
      </trkpt>
      <trkpt lat="47.28005" lon="-1.61215">
        <ele>101</ele>
        <time>2022-01-27T15:07:16Z</time>
      </trkpt>
      <trkpt lat="47.28004" lon="-1.61213">
        <ele>102</ele>
        <time>2022-01-27T15:07:17Z</time>
      </trkpt>
      <trkpt lat="47.28004" lon="-1.61212">
        <ele>102</ele>
        <time>2022-01-27T15:07:18Z</time>
      </trkpt>
      <trkpt lat="47.28003" lon="-1.61211">
        <ele>101</ele>
        <time>2022-01-27T15:07:19Z</time>
      </trkpt>
      <trkpt lat="47.28002" lon="-1.61207">
        <ele>101</ele>
        <time>2022-01-27T15:07:21Z</time>
      </trkpt>
      <trkpt lat="47.28002" lon="-1.61207">
        <ele>101</ele>
        <time>2022-01-27T15:07:21Z</time>
      </trkpt>
      <trkpt lat="47.28002" lon="-1.61206">
        <ele>101</ele>
        <time>2022-01-27T15:07:22Z</time>
      </trkpt>
      <trkpt lat="47.28001" lon="-1.61204">
        <ele>101</ele>
        <time>2022-01-27T15:07:23Z</time>
      </trkpt>
      <trkpt lat="47.28001" lon="-1.61202">
        <ele>101</ele>
        <time>2022-01-27T15:07:24Z</time>
      </trkpt>
      <trkpt lat="47.28001" lon="-1.61201">
        <ele>101</ele>
        <time>2022-01-27T15:07:25Z</time>
      </trkpt>
      <trkpt lat="47.28001" lon="-1.61199">
        <ele>101</ele>
        <time>2022-01-27T15:07:26Z</time>
      </trkpt>
      <trkpt lat="47.28001" lon="-1.61197">
        <ele>101</ele>
        <time>2022-01-27T15:07:27Z</time>
      </trkpt>
      <trkpt lat="47.28" lon="-1.61195">
        <ele>100</ele>
        <time>2022-01-27T15:07:28Z</time>
      </trkpt>
      <trkpt lat="47.28" lon="-1.61194">
        <ele>100</ele>
        <time>2022-01-27T15:07:29Z</time>
      </trkpt>
      <trkpt lat="47.28" lon="-1.61192">
        <ele>100</ele>
        <time>2022-01-27T15:07:30Z</time>
      </trkpt>
      <trkpt lat="47.27999" lon="-1.61189">
        <ele>100</ele>
        <time>2022-01-27T15:07:31Z</time>
      </trkpt>
      <trkpt lat="47.27998" lon="-1.61187">
        <ele>100</ele>
        <time>2022-01-27T15:07:32Z</time>
      </trkpt>
      <trkpt lat="47.27998" lon="-1.61185">
        <ele>100</ele>
        <time>2022-01-27T15:07:33Z</time>
      </trkpt>
      <trkpt lat="47.27998" lon="-1.61184">
        <ele>100</ele>
        <time>2022-01-27T15:07:34Z</time>
      </trkpt>
      <trkpt lat="47.27997" lon="-1.61181">
        <ele>100</ele>
        <time>2022-01-27T15:07:35Z</time>
      </trkpt>
      <trkpt lat="47.27996" lon="-1.6118">
        <ele>100</ele>
        <time>2022-01-27T15:07:36Z</time>
      </trkpt>
      <trkpt lat="47.27996" lon="-1.61178">
        <ele>100</ele>
        <time>2022-01-27T15:07:37Z</time>
      </trkpt>
      <trkpt lat="47.27995" lon="-1.61176">
        <ele>100</ele>
        <time>2022-01-27T15:07:38Z</time>
      </trkpt>
      <trkpt lat="47.27995" lon="-1.61175">
        <ele>99</ele>
        <time>2022-01-27T15:07:39Z</time>
      </trkpt>
      <trkpt lat="47.27994" lon="-1.61173">
        <ele>100</ele>
        <time>2022-01-27T15:07:40Z</time>
      </trkpt>
      <trkpt lat="47.27994" lon="-1.61172">
        <ele>100</ele>
        <time>2022-01-27T15:07:41Z</time>
      </trkpt>
      <trkpt lat="47.27993" lon="-1.6117">
        <ele>99</ele>
        <time>2022-01-27T15:07:42Z</time>
      </trkpt>
      <trkpt lat="47.27993" lon="-1.61169">
        <ele>99</ele>
        <time>2022-01-27T15:07:43Z</time>
      </trkpt>
      <trkpt lat="47.27993" lon="-1.61167">
        <ele>99</ele>
        <time>2022-01-27T15:07:44Z</time>
      </trkpt>
      <trkpt lat="47.27993" lon="-1.61165">
        <ele>99</ele>
        <time>2022-01-27T15:07:45Z</time>
      </trkpt>
      <trkpt lat="47.27992" lon="-1.61163">
        <ele>98</ele>
        <time>2022-01-27T15:07:46Z</time>
      </trkpt>
      <trkpt lat="47.27991" lon="-1.61161">
        <ele>98</ele>
        <time>2022-01-27T15:07:47Z</time>
      </trkpt>
      <trkpt lat="47.2799" lon="-1.6116">
        <ele>98</ele>
        <time>2022-01-27T15:07:48Z</time>
      </trkpt>
      <trkpt lat="47.27989" lon="-1.61159">
        <ele>97</ele>
        <time>2022-01-27T15:07:49Z</time>
      </trkpt>
      <trkpt lat="47.27988" lon="-1.61158">
        <ele>97</ele>
        <time>2022-01-27T15:07:50Z</time>
      </trkpt>
      <trkpt lat="47.27987" lon="-1.61156">
        <ele>96</ele>
        <time>2022-01-27T15:07:51Z</time>
      </trkpt>
      <trkpt lat="47.27987" lon="-1.61154">
        <ele>96</ele>
        <time>2022-01-27T15:07:52Z</time>
      </trkpt>
      <trkpt lat="47.27986" lon="-1.61153">
        <ele>96</ele>
        <time>2022-01-27T15:07:53Z</time>
      </trkpt>
      <trkpt lat="47.27985" lon="-1.61151">
        <ele>96</ele>
        <time>2022-01-27T15:07:54Z</time>
      </trkpt>
      <trkpt lat="47.27985" lon="-1.61149">
        <ele>95</ele>
        <time>2022-01-27T15:07:55Z</time>
      </trkpt>
      <trkpt lat="47.27984" lon="-1.61147">
        <ele>95</ele>
        <time>2022-01-27T15:07:56Z</time>
      </trkpt>
      <trkpt lat="47.27983" lon="-1.61145">
        <ele>94</ele>
        <time>2022-01-27T15:07:57Z</time>
      </trkpt>
      <trkpt lat="47.27982" lon="-1.61143">
        <ele>94</ele>
        <time>2022-01-27T15:07:58Z</time>
      </trkpt>
      <trkpt lat="47.27982" lon="-1.61142">
        <ele>94</ele>
        <time>2022-01-27T15:07:59Z</time>
      </trkpt>
      <trkpt lat="47.2798" lon="-1.6114">
        <ele>94</ele>
        <time>2022-01-27T15:08:00Z</time>
      </trkpt>
      <trkpt lat="47.2798" lon="-1.61137">
        <ele>93</ele>
        <time>2022-01-27T15:08:01Z</time>
      </trkpt>
      <trkpt lat="47.27979" lon="-1.61134">
        <ele>93</ele>
        <time>2022-01-27T15:08:02Z</time>
      </trkpt>
      <trkpt lat="47.27979" lon="-1.61134">
        <ele>93</ele>
        <time>2022-01-27T15:08:02Z</time>
      </trkpt>
      <trkpt lat="47.27978" lon="-1.61132">
        <ele>93</ele>
        <time>2022-01-27T15:08:04Z</time>
      </trkpt>
      <trkpt lat="47.27977" lon="-1.6113">
        <ele>93</ele>
        <time>2022-01-27T15:08:05Z</time>
      </trkpt>
      <trkpt lat="47.27977" lon="-1.61129">
        <ele>92</ele>
        <time>2022-01-27T15:08:06Z</time>
      </trkpt>
      <trkpt lat="47.27976" lon="-1.61127">
        <ele>92</ele>
        <time>2022-01-27T15:08:07Z</time>
      </trkpt>
      <trkpt lat="47.27975" lon="-1.61126">
        <ele>92</ele>
        <time>2022-01-27T15:08:08Z</time>
      </trkpt>
      <trkpt lat="47.27974" lon="-1.61124">
        <ele>92</ele>
        <time>2022-01-27T15:08:09Z</time>
      </trkpt>
      <trkpt lat="47.27974" lon="-1.61123">
        <ele>92</ele>
        <time>2022-01-27T15:08:10Z</time>
      </trkpt>
      <trkpt lat="47.27973" lon="-1.6112">
        <ele>93</ele>
        <time>2022-01-27T15:08:11Z</time>
      </trkpt>
      <trkpt lat="47.27972" lon="-1.61119">
        <ele>92</ele>
        <time>2022-01-27T15:08:12Z</time>
      </trkpt>
      <trkpt lat="47.27971" lon="-1.61117">
        <ele>92</ele>
        <time>2022-01-27T15:08:13Z</time>
      </trkpt>
      <trkpt lat="47.2797" lon="-1.61115">
        <ele>92</ele>
        <time>2022-01-27T15:08:14Z</time>
      </trkpt>
      <trkpt lat="47.27969" lon="-1.61113">
        <ele>91</ele>
        <time>2022-01-27T15:08:15Z</time>
      </trkpt>
      <trkpt lat="47.27968" lon="-1.61112">
        <ele>91</ele>
        <time>2022-01-27T15:08:16Z</time>
      </trkpt>
      <trkpt lat="47.27967" lon="-1.6111">
        <ele>91</ele>
        <time>2022-01-27T15:08:17Z</time>
      </trkpt>
      <trkpt lat="47.27966" lon="-1.61108">
        <ele>91</ele>
        <time>2022-01-27T15:08:18Z</time>
      </trkpt>
      <trkpt lat="47.27965" lon="-1.61106">
        <ele>91</ele>
        <time>2022-01-27T15:08:19Z</time>
      </trkpt>
      <trkpt lat="47.27964" lon="-1.61104">
        <ele>91</ele>
        <time>2022-01-27T15:08:20Z</time>
      </trkpt>
      <trkpt lat="47.27964" lon="-1.61102">
        <ele>92</ele>
        <time>2022-01-27T15:08:21Z</time>
      </trkpt>
      <trkpt lat="47.27963" lon="-1.61101">
        <ele>92</ele>
        <time>2022-01-27T15:08:22Z</time>
      </trkpt>
      <trkpt lat="47.27962" lon="-1.611">
        <ele>92</ele>
        <time>2022-01-27T15:08:23Z</time>
      </trkpt>
      <trkpt lat="47.27961" lon="-1.61098">
        <ele>92</ele>
        <time>2022-01-27T15:08:24Z</time>
      </trkpt>
      <trkpt lat="47.2796" lon="-1.61096">
        <ele>92</ele>
        <time>2022-01-27T15:08:25Z</time>
      </trkpt>
      <trkpt lat="47.27959" lon="-1.61095">
        <ele>92</ele>
        <time>2022-01-27T15:08:26Z</time>
      </trkpt>
      <trkpt lat="47.27959" lon="-1.61093">
        <ele>92</ele>
        <time>2022-01-27T15:08:27Z</time>
      </trkpt>
      <trkpt lat="47.27958" lon="-1.61092">
        <ele>92</ele>
        <time>2022-01-27T15:08:28Z</time>
      </trkpt>
      <trkpt lat="47.27957" lon="-1.6109">
        <ele>92</ele>
        <time>2022-01-27T15:08:29Z</time>
      </trkpt>
      <trkpt lat="47.27956" lon="-1.61089">
        <ele>92</ele>
        <time>2022-01-27T15:08:30Z</time>
      </trkpt>
      <trkpt lat="47.27955" lon="-1.61087">
        <ele>92</ele>
        <time>2022-01-27T15:08:31Z</time>
      </trkpt>
      <trkpt lat="47.27955" lon="-1.61085">
        <ele>91</ele>
        <time>2022-01-27T15:08:32Z</time>
      </trkpt>
      <trkpt lat="47.27953" lon="-1.61083">
        <ele>92</ele>
        <time>2022-01-27T15:08:33Z</time>
      </trkpt>
      <trkpt lat="47.27953" lon="-1.61081">
        <ele>92</ele>
        <time>2022-01-27T15:08:34Z</time>
      </trkpt>
      <trkpt lat="47.27951" lon="-1.6108">
        <ele>92</ele>
        <time>2022-01-27T15:08:35Z</time>
      </trkpt>
      <trkpt lat="47.27951" lon="-1.61078">
        <ele>92</ele>
        <time>2022-01-27T15:08:36Z</time>
      </trkpt>
      <trkpt lat="47.2795" lon="-1.61076">
        <ele>92</ele>
        <time>2022-01-27T15:08:37Z</time>
      </trkpt>
      <trkpt lat="47.27949" lon="-1.61074">
        <ele>92</ele>
        <time>2022-01-27T15:08:38Z</time>
      </trkpt>
      <trkpt lat="47.27948" lon="-1.61073">
        <ele>92</ele>
        <time>2022-01-27T15:08:39Z</time>
      </trkpt>
      <trkpt lat="47.27947" lon="-1.61071">
        <ele>92</ele>
        <time>2022-01-27T15:08:40Z</time>
      </trkpt>
      <trkpt lat="47.27945" lon="-1.6107">
        <ele>92</ele>
        <time>2022-01-27T15:08:41Z</time>
      </trkpt>
      <trkpt lat="47.27945" lon="-1.61069">
        <ele>92</ele>
        <time>2022-01-27T15:08:42Z</time>
      </trkpt>
      <trkpt lat="47.27944" lon="-1.61067">
        <ele>92</ele>
        <time>2022-01-27T15:08:43Z</time>
      </trkpt>
      <trkpt lat="47.27943" lon="-1.61066">
        <ele>92</ele>
        <time>2022-01-27T15:08:44Z</time>
      </trkpt>
      <trkpt lat="47.27943" lon="-1.61064">
        <ele>91</ele>
        <time>2022-01-27T15:08:45Z</time>
      </trkpt>
      <trkpt lat="47.27942" lon="-1.61062">
        <ele>91</ele>
        <time>2022-01-27T15:08:46Z</time>
      </trkpt>
      <trkpt lat="47.27941" lon="-1.6106">
        <ele>92</ele>
        <time>2022-01-27T15:08:47Z</time>
      </trkpt>
      <trkpt lat="47.2794" lon="-1.61059">
        <ele>92</ele>
        <time>2022-01-27T15:08:48Z</time>
      </trkpt>
      <trkpt lat="47.27939" lon="-1.61057">
        <ele>91</ele>
        <time>2022-01-27T15:08:49Z</time>
      </trkpt>
      <trkpt lat="47.27937" lon="-1.61056">
        <ele>92</ele>
        <time>2022-01-27T15:08:50Z</time>
      </trkpt>
      <trkpt lat="47.27937" lon="-1.61054">
        <ele>91</ele>
        <time>2022-01-27T15:08:51Z</time>
      </trkpt>
      <trkpt lat="47.27935" lon="-1.61054">
        <ele>91</ele>
        <time>2022-01-27T15:08:52Z</time>
      </trkpt>
      <trkpt lat="47.27934" lon="-1.61052">
        <ele>92</ele>
        <time>2022-01-27T15:08:53Z</time>
      </trkpt>
      <trkpt lat="47.27933" lon="-1.61051">
        <ele>92</ele>
        <time>2022-01-27T15:08:54Z</time>
      </trkpt>
      <trkpt lat="47.27932" lon="-1.6105">
        <ele>92</ele>
        <time>2022-01-27T15:08:55Z</time>
      </trkpt>
      <trkpt lat="47.27931" lon="-1.61049">
        <ele>92</ele>
        <time>2022-01-27T15:08:56Z</time>
      </trkpt>
      <trkpt lat="47.2793" lon="-1.61047">
        <ele>93</ele>
        <time>2022-01-27T15:08:57Z</time>
      </trkpt>
      <trkpt lat="47.27929" lon="-1.61045">
        <ele>92</ele>
        <time>2022-01-27T15:08:58Z</time>
      </trkpt>
      <trkpt lat="47.27929" lon="-1.61043">
        <ele>92</ele>
        <time>2022-01-27T15:08:59Z</time>
      </trkpt>
      <trkpt lat="47.27927" lon="-1.61041">
        <ele>92</ele>
        <time>2022-01-27T15:09:00Z</time>
      </trkpt>
      <trkpt lat="47.27927" lon="-1.6104">
        <ele>92</ele>
        <time>2022-01-27T15:09:01Z</time>
      </trkpt>
      <trkpt lat="47.27926" lon="-1.61039">
        <ele>92</ele>
        <time>2022-01-27T15:09:02Z</time>
      </trkpt>
      <trkpt lat="47.27926" lon="-1.61037">
        <ele>92</ele>
        <time>2022-01-27T15:09:03Z</time>
      </trkpt>
      <trkpt lat="47.27924" lon="-1.61035">
        <ele>93</ele>
        <time>2022-01-27T15:09:04Z</time>
      </trkpt>
      <trkpt lat="47.27924" lon="-1.61035">
        <ele>93</ele>
        <time>2022-01-27T15:09:04Z</time>
      </trkpt>
      <trkpt lat="47.27923" lon="-1.61033">
        <ele>92</ele>
        <time>2022-01-27T15:09:06Z</time>
      </trkpt>
      <trkpt lat="47.27922" lon="-1.61032">
        <ele>92</ele>
        <time>2022-01-27T15:09:07Z</time>
      </trkpt>
      <trkpt lat="47.27921" lon="-1.61031">
        <ele>92</ele>
        <time>2022-01-27T15:09:08Z</time>
      </trkpt>
      <trkpt lat="47.27921" lon="-1.6103">
        <ele>92</ele>
        <time>2022-01-27T15:09:09Z</time>
      </trkpt>
      <trkpt lat="47.27919" lon="-1.61028">
        <ele>92</ele>
        <time>2022-01-27T15:09:10Z</time>
      </trkpt>
      <trkpt lat="47.27919" lon="-1.61027">
        <ele>92</ele>
        <time>2022-01-27T15:09:11Z</time>
      </trkpt>
      <trkpt lat="47.27919" lon="-1.61026">
        <ele>92</ele>
        <time>2022-01-27T15:09:12Z</time>
      </trkpt>
      <trkpt lat="47.27918" lon="-1.61025">
        <ele>92</ele>
        <time>2022-01-27T15:09:13Z</time>
      </trkpt>
      <trkpt lat="47.27916" lon="-1.61023">
        <ele>92</ele>
        <time>2022-01-27T15:09:14Z</time>
      </trkpt>
      <trkpt lat="47.27915" lon="-1.61021">
        <ele>92</ele>
        <time>2022-01-27T15:09:15Z</time>
      </trkpt>
      <trkpt lat="47.27913" lon="-1.6102">
        <ele>92</ele>
        <time>2022-01-27T15:09:16Z</time>
      </trkpt>
      <trkpt lat="47.27913" lon="-1.61019">
        <ele>92</ele>
        <time>2022-01-27T15:09:17Z</time>
      </trkpt>
      <trkpt lat="47.27911" lon="-1.61016">
        <ele>92</ele>
        <time>2022-01-27T15:09:18Z</time>
      </trkpt>
      <trkpt lat="47.27911" lon="-1.61016">
        <ele>92</ele>
        <time>2022-01-27T15:09:18Z</time>
      </trkpt>
      <trkpt lat="47.27909" lon="-1.61013">
        <ele>92</ele>
        <time>2022-01-27T15:09:21Z</time>
      </trkpt>
      <trkpt lat="47.27909" lon="-1.61013">
        <ele>92</ele>
        <time>2022-01-27T15:09:21Z</time>
      </trkpt>
      <trkpt lat="47.27907" lon="-1.61011">
        <ele>91</ele>
        <time>2022-01-27T15:09:23Z</time>
      </trkpt>
      <trkpt lat="47.27907" lon="-1.61011">
        <ele>91</ele>
        <time>2022-01-27T15:09:23Z</time>
      </trkpt>
      <trkpt lat="47.27905" lon="-1.61008">
        <ele>91</ele>
        <time>2022-01-27T15:09:25Z</time>
      </trkpt>
      <trkpt lat="47.27905" lon="-1.61008">
        <ele>91</ele>
        <time>2022-01-27T15:09:25Z</time>
      </trkpt>
      <trkpt lat="47.27904" lon="-1.61006">
        <ele>92</ele>
        <time>2022-01-27T15:09:27Z</time>
      </trkpt>
      <trkpt lat="47.27904" lon="-1.61006">
        <ele>92</ele>
        <time>2022-01-27T15:09:27Z</time>
      </trkpt>
      <trkpt lat="47.27903" lon="-1.61005">
        <ele>92</ele>
        <time>2022-01-27T15:09:29Z</time>
      </trkpt>
      <trkpt lat="47.27901" lon="-1.61002">
        <ele>92</ele>
        <time>2022-01-27T15:09:30Z</time>
      </trkpt>
      <trkpt lat="47.279" lon="-1.61">
        <ele>92</ele>
        <time>2022-01-27T15:09:31Z</time>
      </trkpt>
      <trkpt lat="47.279" lon="-1.60998">
        <ele>92</ele>
        <time>2022-01-27T15:09:32Z</time>
      </trkpt>
      <trkpt lat="47.27899" lon="-1.60996">
        <ele>92</ele>
        <time>2022-01-27T15:09:33Z</time>
      </trkpt>
      <trkpt lat="47.27898" lon="-1.60995">
        <ele>92</ele>
        <time>2022-01-27T15:09:34Z</time>
      </trkpt>
      <trkpt lat="47.27897" lon="-1.60994">
        <ele>92</ele>
        <time>2022-01-27T15:09:35Z</time>
      </trkpt>
      <trkpt lat="47.27895" lon="-1.60992">
        <ele>92</ele>
        <time>2022-01-27T15:09:36Z</time>
      </trkpt>
      <trkpt lat="47.27894" lon="-1.6099">
        <ele>92</ele>
        <time>2022-01-27T15:09:37Z</time>
      </trkpt>
      <trkpt lat="47.27893" lon="-1.60988">
        <ele>92</ele>
        <time>2022-01-27T15:09:38Z</time>
      </trkpt>
      <trkpt lat="47.27893" lon="-1.60987">
        <ele>92</ele>
        <time>2022-01-27T15:09:39Z</time>
      </trkpt>
      <trkpt lat="47.27891" lon="-1.60985">
        <ele>92</ele>
        <time>2022-01-27T15:09:40Z</time>
      </trkpt>
      <trkpt lat="47.2789" lon="-1.60984">
        <ele>92</ele>
        <time>2022-01-27T15:09:41Z</time>
      </trkpt>
      <trkpt lat="47.27889" lon="-1.60982">
        <ele>92</ele>
        <time>2022-01-27T15:09:42Z</time>
      </trkpt>
      <trkpt lat="47.27889" lon="-1.60981">
        <ele>92</ele>
        <time>2022-01-27T15:09:43Z</time>
      </trkpt>
      <trkpt lat="47.27888" lon="-1.6098">
        <ele>92</ele>
        <time>2022-01-27T15:09:44Z</time>
      </trkpt>
      <trkpt lat="47.27887" lon="-1.60978">
        <ele>92</ele>
        <time>2022-01-27T15:09:45Z</time>
      </trkpt>
      <trkpt lat="47.27886" lon="-1.60977">
        <ele>92</ele>
        <time>2022-01-27T15:09:46Z</time>
      </trkpt>
      <trkpt lat="47.27885" lon="-1.60976">
        <ele>92</ele>
        <time>2022-01-27T15:09:47Z</time>
      </trkpt>
      <trkpt lat="47.27884" lon="-1.60974">
        <ele>92</ele>
        <time>2022-01-27T15:09:48Z</time>
      </trkpt>
      <trkpt lat="47.27884" lon="-1.60972">
        <ele>92</ele>
        <time>2022-01-27T15:09:49Z</time>
      </trkpt>
      <trkpt lat="47.27882" lon="-1.60971">
        <ele>92</ele>
        <time>2022-01-27T15:09:50Z</time>
      </trkpt>
      <trkpt lat="47.27882" lon="-1.60969">
        <ele>92</ele>
        <time>2022-01-27T15:09:51Z</time>
      </trkpt>
      <trkpt lat="47.27881" lon="-1.60968">
        <ele>91</ele>
        <time>2022-01-27T15:09:52Z</time>
      </trkpt>
      <trkpt lat="47.27881" lon="-1.60967">
        <ele>91</ele>
        <time>2022-01-27T15:09:53Z</time>
      </trkpt>
      <trkpt lat="47.2788" lon="-1.60966">
        <ele>91</ele>
        <time>2022-01-27T15:09:54Z</time>
      </trkpt>
      <trkpt lat="47.27879" lon="-1.60965">
        <ele>91</ele>
        <time>2022-01-27T15:09:55Z</time>
      </trkpt>
      <trkpt lat="47.27878" lon="-1.60964">
        <ele>91</ele>
        <time>2022-01-27T15:09:56Z</time>
      </trkpt>
      <trkpt lat="47.27877" lon="-1.60963">
        <ele>92</ele>
        <time>2022-01-27T15:09:57Z</time>
      </trkpt>
      <trkpt lat="47.27876" lon="-1.60961">
        <ele>92</ele>
        <time>2022-01-27T15:09:58Z</time>
      </trkpt>
      <trkpt lat="47.27876" lon="-1.6096">
        <ele>92</ele>
        <time>2022-01-27T15:09:59Z</time>
      </trkpt>
      <trkpt lat="47.27875" lon="-1.60958">
        <ele>92</ele>
        <time>2022-01-27T15:10:00Z</time>
      </trkpt>
      <trkpt lat="47.27874" lon="-1.60957">
        <ele>92</ele>
        <time>2022-01-27T15:10:01Z</time>
      </trkpt>
      <trkpt lat="47.27873" lon="-1.60956">
        <ele>91</ele>
        <time>2022-01-27T15:10:02Z</time>
      </trkpt>
      <trkpt lat="47.27872" lon="-1.60955">
        <ele>91</ele>
        <time>2022-01-27T15:10:03Z</time>
      </trkpt>
      <trkpt lat="47.27871" lon="-1.60953">
        <ele>90</ele>
        <time>2022-01-27T15:10:04Z</time>
      </trkpt>
      <trkpt lat="47.27871" lon="-1.60952">
        <ele>91</ele>
        <time>2022-01-27T15:10:05Z</time>
      </trkpt>
      <trkpt lat="47.27869" lon="-1.6095">
        <ele>90</ele>
        <time>2022-01-27T15:10:06Z</time>
      </trkpt>
      <trkpt lat="47.27868" lon="-1.60949">
        <ele>91</ele>
        <time>2022-01-27T15:10:07Z</time>
      </trkpt>
      <trkpt lat="47.27868" lon="-1.60949">
        <ele>91</ele>
        <time>2022-01-27T15:10:07Z</time>
      </trkpt>
      <trkpt lat="47.27868" lon="-1.60946">
        <ele>91</ele>
        <time>2022-01-27T15:10:09Z</time>
      </trkpt>
      <trkpt lat="47.27867" lon="-1.60944">
        <ele>91</ele>
        <time>2022-01-27T15:10:10Z</time>
      </trkpt>
      <trkpt lat="47.27866" lon="-1.60942">
        <ele>91</ele>
        <time>2022-01-27T15:10:11Z</time>
      </trkpt>
      <trkpt lat="47.27865" lon="-1.6094">
        <ele>91</ele>
        <time>2022-01-27T15:10:12Z</time>
      </trkpt>
      <trkpt lat="47.27864" lon="-1.60939">
        <ele>92</ele>
        <time>2022-01-27T15:10:13Z</time>
      </trkpt>
      <trkpt lat="47.27863" lon="-1.60937">
        <ele>92</ele>
        <time>2022-01-27T15:10:14Z</time>
      </trkpt>
      <trkpt lat="47.27863" lon="-1.60936">
        <ele>92</ele>
        <time>2022-01-27T15:10:15Z</time>
      </trkpt>
      <trkpt lat="47.27862" lon="-1.60934">
        <ele>91</ele>
        <time>2022-01-27T15:10:16Z</time>
      </trkpt>
      <trkpt lat="47.27861" lon="-1.60932">
        <ele>91</ele>
        <time>2022-01-27T15:10:17Z</time>
      </trkpt>
      <trkpt lat="47.2786" lon="-1.60931">
        <ele>91</ele>
        <time>2022-01-27T15:10:18Z</time>
      </trkpt>
      <trkpt lat="47.27859" lon="-1.60929">
        <ele>91</ele>
        <time>2022-01-27T15:10:19Z</time>
      </trkpt>
      <trkpt lat="47.27858" lon="-1.60927">
        <ele>91</ele>
        <time>2022-01-27T15:10:20Z</time>
      </trkpt>
      <trkpt lat="47.27857" lon="-1.60925">
        <ele>91</ele>
        <time>2022-01-27T15:10:21Z</time>
      </trkpt>
      <trkpt lat="47.27856" lon="-1.60924">
        <ele>91</ele>
        <time>2022-01-27T15:10:22Z</time>
      </trkpt>
      <trkpt lat="47.27855" lon="-1.60922">
        <ele>90</ele>
        <time>2022-01-27T15:10:23Z</time>
      </trkpt>
      <trkpt lat="47.27854" lon="-1.6092">
        <ele>90</ele>
        <time>2022-01-27T15:10:24Z</time>
      </trkpt>
      <trkpt lat="47.27853" lon="-1.60919">
        <ele>90</ele>
        <time>2022-01-27T15:10:25Z</time>
      </trkpt>
      <trkpt lat="47.27852" lon="-1.60918">
        <ele>90</ele>
        <time>2022-01-27T15:10:26Z</time>
      </trkpt>
      <trkpt lat="47.27851" lon="-1.60916">
        <ele>90</ele>
        <time>2022-01-27T15:10:27Z</time>
      </trkpt>
      <trkpt lat="47.2785" lon="-1.60915">
        <ele>90</ele>
        <time>2022-01-27T15:10:28Z</time>
      </trkpt>
      <trkpt lat="47.27849" lon="-1.60913">
        <ele>90</ele>
        <time>2022-01-27T15:10:29Z</time>
      </trkpt>
      <trkpt lat="47.27848" lon="-1.60911">
        <ele>90</ele>
        <time>2022-01-27T15:10:30Z</time>
      </trkpt>
      <trkpt lat="47.27847" lon="-1.60909">
        <ele>90</ele>
        <time>2022-01-27T15:10:31Z</time>
      </trkpt>
      <trkpt lat="47.27846" lon="-1.60908">
        <ele>90</ele>
        <time>2022-01-27T15:10:32Z</time>
      </trkpt>
      <trkpt lat="47.27845" lon="-1.60906">
        <ele>89</ele>
        <time>2022-01-27T15:10:33Z</time>
      </trkpt>
      <trkpt lat="47.27844" lon="-1.60904">
        <ele>89</ele>
        <time>2022-01-27T15:10:34Z</time>
      </trkpt>
      <trkpt lat="47.27843" lon="-1.60903">
        <ele>89</ele>
        <time>2022-01-27T15:10:35Z</time>
      </trkpt>
      <trkpt lat="47.27842" lon="-1.60901">
        <ele>89</ele>
        <time>2022-01-27T15:10:36Z</time>
      </trkpt>
      <trkpt lat="47.2784" lon="-1.609">
        <ele>89</ele>
        <time>2022-01-27T15:10:37Z</time>
      </trkpt>
      <trkpt lat="47.2784" lon="-1.60899">
        <ele>89</ele>
        <time>2022-01-27T15:10:38Z</time>
      </trkpt>
      <trkpt lat="47.27839" lon="-1.60898">
        <ele>89</ele>
        <time>2022-01-27T15:10:39Z</time>
      </trkpt>
      <trkpt lat="47.27838" lon="-1.60896">
        <ele>89</ele>
        <time>2022-01-27T15:10:40Z</time>
      </trkpt>
      <trkpt lat="47.27837" lon="-1.60895">
        <ele>89</ele>
        <time>2022-01-27T15:10:41Z</time>
      </trkpt>
      <trkpt lat="47.27836" lon="-1.60893">
        <ele>89</ele>
        <time>2022-01-27T15:10:42Z</time>
      </trkpt>
      <trkpt lat="47.27836" lon="-1.60891">
        <ele>89</ele>
        <time>2022-01-27T15:10:43Z</time>
      </trkpt>
      <trkpt lat="47.27835" lon="-1.60889">
        <ele>89</ele>
        <time>2022-01-27T15:10:44Z</time>
      </trkpt>
      <trkpt lat="47.27834" lon="-1.60888">
        <ele>89</ele>
        <time>2022-01-27T15:10:45Z</time>
      </trkpt>
      <trkpt lat="47.27833" lon="-1.60886">
        <ele>89</ele>
        <time>2022-01-27T15:10:46Z</time>
      </trkpt>
      <trkpt lat="47.27832" lon="-1.60885">
        <ele>89</ele>
        <time>2022-01-27T15:10:47Z</time>
      </trkpt>
      <trkpt lat="47.27831" lon="-1.60883">
        <ele>89</ele>
        <time>2022-01-27T15:10:48Z</time>
      </trkpt>
      <trkpt lat="47.2783" lon="-1.60881">
        <ele>89</ele>
        <time>2022-01-27T15:10:49Z</time>
      </trkpt>
      <trkpt lat="47.27829" lon="-1.60879">
        <ele>89</ele>
        <time>2022-01-27T15:10:50Z</time>
      </trkpt>
      <trkpt lat="47.27828" lon="-1.60878">
        <ele>89</ele>
        <time>2022-01-27T15:10:51Z</time>
      </trkpt>
      <trkpt lat="47.27827" lon="-1.60877">
        <ele>89</ele>
        <time>2022-01-27T15:10:52Z</time>
      </trkpt>
      <trkpt lat="47.27826" lon="-1.60876">
        <ele>89</ele>
        <time>2022-01-27T15:10:53Z</time>
      </trkpt>
      <trkpt lat="47.27825" lon="-1.60875">
        <ele>89</ele>
        <time>2022-01-27T15:10:54Z</time>
      </trkpt>
      <trkpt lat="47.27824" lon="-1.60873">
        <ele>90</ele>
        <time>2022-01-27T15:10:55Z</time>
      </trkpt>
      <trkpt lat="47.27823" lon="-1.60871">
        <ele>90</ele>
        <time>2022-01-27T15:10:56Z</time>
      </trkpt>
      <trkpt lat="47.27822" lon="-1.6087">
        <ele>90</ele>
        <time>2022-01-27T15:10:57Z</time>
      </trkpt>
      <trkpt lat="47.27821" lon="-1.60868">
        <ele>89</ele>
        <time>2022-01-27T15:10:58Z</time>
      </trkpt>
      <trkpt lat="47.2782" lon="-1.60866">
        <ele>90</ele>
        <time>2022-01-27T15:10:59Z</time>
      </trkpt>
      <trkpt lat="47.27819" lon="-1.60864">
        <ele>90</ele>
        <time>2022-01-27T15:11:00Z</time>
      </trkpt>
      <trkpt lat="47.27819" lon="-1.60863">
        <ele>89</ele>
        <time>2022-01-27T15:11:01Z</time>
      </trkpt>
      <trkpt lat="47.27818" lon="-1.60861">
        <ele>89</ele>
        <time>2022-01-27T15:11:02Z</time>
      </trkpt>
      <trkpt lat="47.27817" lon="-1.60859">
        <ele>89</ele>
        <time>2022-01-27T15:11:03Z</time>
      </trkpt>
      <trkpt lat="47.27816" lon="-1.60857">
        <ele>89</ele>
        <time>2022-01-27T15:11:04Z</time>
      </trkpt>
      <trkpt lat="47.27816" lon="-1.60856">
        <ele>89</ele>
        <time>2022-01-27T15:11:05Z</time>
      </trkpt>
      <trkpt lat="47.27815" lon="-1.60854">
        <ele>89</ele>
        <time>2022-01-27T15:11:06Z</time>
      </trkpt>
      <trkpt lat="47.27814" lon="-1.60852">
        <ele>88</ele>
        <time>2022-01-27T15:11:07Z</time>
      </trkpt>
      <trkpt lat="47.27813" lon="-1.60851">
        <ele>89</ele>
        <time>2022-01-27T15:11:08Z</time>
      </trkpt>
      <trkpt lat="47.27811" lon="-1.60849">
        <ele>89</ele>
        <time>2022-01-27T15:11:09Z</time>
      </trkpt>
      <trkpt lat="47.2781" lon="-1.60848">
        <ele>89</ele>
        <time>2022-01-27T15:11:10Z</time>
      </trkpt>
      <trkpt lat="47.27809" lon="-1.60846">
        <ele>89</ele>
        <time>2022-01-27T15:11:11Z</time>
      </trkpt>
      <trkpt lat="47.27808" lon="-1.60845">
        <ele>90</ele>
        <time>2022-01-27T15:11:12Z</time>
      </trkpt>
      <trkpt lat="47.27807" lon="-1.60843">
        <ele>90</ele>
        <time>2022-01-27T15:11:13Z</time>
      </trkpt>
      <trkpt lat="47.27807" lon="-1.60842">
        <ele>90</ele>
        <time>2022-01-27T15:11:14Z</time>
      </trkpt>
      <trkpt lat="47.27806" lon="-1.6084">
        <ele>91</ele>
        <time>2022-01-27T15:11:15Z</time>
      </trkpt>
      <trkpt lat="47.27805" lon="-1.60838">
        <ele>91</ele>
        <time>2022-01-27T15:11:16Z</time>
      </trkpt>
      <trkpt lat="47.27805" lon="-1.60836">
        <ele>91</ele>
        <time>2022-01-27T15:11:17Z</time>
      </trkpt>
      <trkpt lat="47.27804" lon="-1.60835">
        <ele>91</ele>
        <time>2022-01-27T15:11:18Z</time>
      </trkpt>
      <trkpt lat="47.27803" lon="-1.60833">
        <ele>91</ele>
        <time>2022-01-27T15:11:19Z</time>
      </trkpt>
      <trkpt lat="47.27802" lon="-1.60832">
        <ele>91</ele>
        <time>2022-01-27T15:11:20Z</time>
      </trkpt>
      <trkpt lat="47.27801" lon="-1.6083">
        <ele>91</ele>
        <time>2022-01-27T15:11:21Z</time>
      </trkpt>
      <trkpt lat="47.278" lon="-1.60828">
        <ele>91</ele>
        <time>2022-01-27T15:11:22Z</time>
      </trkpt>
      <trkpt lat="47.27799" lon="-1.60826">
        <ele>91</ele>
        <time>2022-01-27T15:11:23Z</time>
      </trkpt>
      <trkpt lat="47.27798" lon="-1.60825">
        <ele>91</ele>
        <time>2022-01-27T15:11:24Z</time>
      </trkpt>
      <trkpt lat="47.27797" lon="-1.60823">
        <ele>91</ele>
        <time>2022-01-27T15:11:25Z</time>
      </trkpt>
      <trkpt lat="47.27797" lon="-1.60822">
        <ele>91</ele>
        <time>2022-01-27T15:11:26Z</time>
      </trkpt>
      <trkpt lat="47.27796" lon="-1.6082">
        <ele>91</ele>
        <time>2022-01-27T15:11:27Z</time>
      </trkpt>
      <trkpt lat="47.27795" lon="-1.60819">
        <ele>92</ele>
        <time>2022-01-27T15:11:28Z</time>
      </trkpt>
      <trkpt lat="47.27795" lon="-1.60817">
        <ele>92</ele>
        <time>2022-01-27T15:11:29Z</time>
      </trkpt>
      <trkpt lat="47.27795" lon="-1.60816">
        <ele>91</ele>
        <time>2022-01-27T15:11:30Z</time>
      </trkpt>
      <trkpt lat="47.27794" lon="-1.60814">
        <ele>91</ele>
        <time>2022-01-27T15:11:31Z</time>
      </trkpt>
      <trkpt lat="47.27793" lon="-1.60813">
        <ele>91</ele>
        <time>2022-01-27T15:11:32Z</time>
      </trkpt>
      <trkpt lat="47.27792" lon="-1.60812">
        <ele>91</ele>
        <time>2022-01-27T15:11:33Z</time>
      </trkpt>
      <trkpt lat="47.27792" lon="-1.60811">
        <ele>91</ele>
        <time>2022-01-27T15:11:34Z</time>
      </trkpt>
      <trkpt lat="47.27792" lon="-1.6081">
        <ele>90</ele>
        <time>2022-01-27T15:11:35Z</time>
      </trkpt>
      <trkpt lat="47.27791" lon="-1.60809">
        <ele>90</ele>
        <time>2022-01-27T15:11:36Z</time>
      </trkpt>
      <trkpt lat="47.27789" lon="-1.60808">
        <ele>91</ele>
        <time>2022-01-27T15:11:37Z</time>
      </trkpt>
      <trkpt lat="47.27789" lon="-1.60807">
        <ele>91</ele>
        <time>2022-01-27T15:11:38Z</time>
      </trkpt>
      <trkpt lat="47.27788" lon="-1.60805">
        <ele>90</ele>
        <time>2022-01-27T15:11:39Z</time>
      </trkpt>
      <trkpt lat="47.27787" lon="-1.60804">
        <ele>90</ele>
        <time>2022-01-27T15:11:40Z</time>
      </trkpt>
      <trkpt lat="47.27786" lon="-1.60803">
        <ele>91</ele>
        <time>2022-01-27T15:11:41Z</time>
      </trkpt>
      <trkpt lat="47.27785" lon="-1.60802">
        <ele>90</ele>
        <time>2022-01-27T15:11:42Z</time>
      </trkpt>
      <trkpt lat="47.27785" lon="-1.608">
        <ele>91</ele>
        <time>2022-01-27T15:11:43Z</time>
      </trkpt>
      <trkpt lat="47.27785" lon="-1.60799">
        <ele>90</ele>
        <time>2022-01-27T15:11:44Z</time>
      </trkpt>
      <trkpt lat="47.27784" lon="-1.60798">
        <ele>90</ele>
        <time>2022-01-27T15:11:45Z</time>
      </trkpt>
      <trkpt lat="47.27784" lon="-1.60796">
        <ele>89</ele>
        <time>2022-01-27T15:11:46Z</time>
      </trkpt>
      <trkpt lat="47.27783" lon="-1.60795">
        <ele>89</ele>
        <time>2022-01-27T15:11:47Z</time>
      </trkpt>
      <trkpt lat="47.27782" lon="-1.60793">
        <ele>89</ele>
        <time>2022-01-27T15:11:48Z</time>
      </trkpt>
      <trkpt lat="47.27781" lon="-1.60791">
        <ele>90</ele>
        <time>2022-01-27T15:11:49Z</time>
      </trkpt>
      <trkpt lat="47.27779" lon="-1.6079">
        <ele>89</ele>
        <time>2022-01-27T15:11:50Z</time>
      </trkpt>
      <trkpt lat="47.27779" lon="-1.60788">
        <ele>89</ele>
        <time>2022-01-27T15:11:51Z</time>
      </trkpt>
      <trkpt lat="47.27778" lon="-1.60787">
        <ele>89</ele>
        <time>2022-01-27T15:11:52Z</time>
      </trkpt>
      <trkpt lat="47.27777" lon="-1.60786">
        <ele>88</ele>
        <time>2022-01-27T15:11:53Z</time>
      </trkpt>
      <trkpt lat="47.27776" lon="-1.60784">
        <ele>88</ele>
        <time>2022-01-27T15:11:54Z</time>
      </trkpt>
      <trkpt lat="47.27775" lon="-1.60783">
        <ele>88</ele>
        <time>2022-01-27T15:11:55Z</time>
      </trkpt>
      <trkpt lat="47.27774" lon="-1.60782">
        <ele>87</ele>
        <time>2022-01-27T15:11:56Z</time>
      </trkpt>
      <trkpt lat="47.27774" lon="-1.60781">
        <ele>87</ele>
        <time>2022-01-27T15:11:57Z</time>
      </trkpt>
      <trkpt lat="47.27773" lon="-1.6078">
        <ele>87</ele>
        <time>2022-01-27T15:11:58Z</time>
      </trkpt>
      <trkpt lat="47.27772" lon="-1.60778">
        <ele>87</ele>
        <time>2022-01-27T15:11:59Z</time>
      </trkpt>
      <trkpt lat="47.27771" lon="-1.60776">
        <ele>88</ele>
        <time>2022-01-27T15:12:00Z</time>
      </trkpt>
      <trkpt lat="47.2777" lon="-1.60775">
        <ele>88</ele>
        <time>2022-01-27T15:12:01Z</time>
      </trkpt>
      <trkpt lat="47.2777" lon="-1.60774">
        <ele>88</ele>
        <time>2022-01-27T15:12:02Z</time>
      </trkpt>
      <trkpt lat="47.27769" lon="-1.60772">
        <ele>87</ele>
        <time>2022-01-27T15:12:03Z</time>
      </trkpt>
      <trkpt lat="47.27769" lon="-1.60771">
        <ele>87</ele>
        <time>2022-01-27T15:12:04Z</time>
      </trkpt>
      <trkpt lat="47.27768" lon="-1.60769">
        <ele>87</ele>
        <time>2022-01-27T15:12:05Z</time>
      </trkpt>
      <trkpt lat="47.27767" lon="-1.60768">
        <ele>86</ele>
        <time>2022-01-27T15:12:06Z</time>
      </trkpt>
      <trkpt lat="47.27766" lon="-1.60766">
        <ele>87</ele>
        <time>2022-01-27T15:12:07Z</time>
      </trkpt>
      <trkpt lat="47.27766" lon="-1.60764">
        <ele>87</ele>
        <time>2022-01-27T15:12:08Z</time>
      </trkpt>
      <trkpt lat="47.27765" lon="-1.60763">
        <ele>87</ele>
        <time>2022-01-27T15:12:09Z</time>
      </trkpt>
      <trkpt lat="47.27764" lon="-1.60761">
        <ele>87</ele>
        <time>2022-01-27T15:12:10Z</time>
      </trkpt>
      <trkpt lat="47.27763" lon="-1.60759">
        <ele>87</ele>
        <time>2022-01-27T15:12:11Z</time>
      </trkpt>
      <trkpt lat="47.27763" lon="-1.60757">
        <ele>87</ele>
        <time>2022-01-27T15:12:12Z</time>
      </trkpt>
      <trkpt lat="47.27762" lon="-1.60755">
        <ele>87</ele>
        <time>2022-01-27T15:12:13Z</time>
      </trkpt>
      <trkpt lat="47.27761" lon="-1.60754">
        <ele>87</ele>
        <time>2022-01-27T15:12:14Z</time>
      </trkpt>
      <trkpt lat="47.27761" lon="-1.60752">
        <ele>86</ele>
        <time>2022-01-27T15:12:15Z</time>
      </trkpt>
      <trkpt lat="47.2776" lon="-1.60751">
        <ele>87</ele>
        <time>2022-01-27T15:12:16Z</time>
      </trkpt>
      <trkpt lat="47.2776" lon="-1.60749">
        <ele>87</ele>
        <time>2022-01-27T15:12:17Z</time>
      </trkpt>
      <trkpt lat="47.27758" lon="-1.60748">
        <ele>88</ele>
        <time>2022-01-27T15:12:18Z</time>
      </trkpt>
      <trkpt lat="47.27758" lon="-1.60746">
        <ele>88</ele>
        <time>2022-01-27T15:12:19Z</time>
      </trkpt>
      <trkpt lat="47.27757" lon="-1.60744">
        <ele>88</ele>
        <time>2022-01-27T15:12:20Z</time>
      </trkpt>
      <trkpt lat="47.27756" lon="-1.60742">
        <ele>88</ele>
        <time>2022-01-27T15:12:21Z</time>
      </trkpt>
      <trkpt lat="47.27756" lon="-1.6074">
        <ele>88</ele>
        <time>2022-01-27T15:12:22Z</time>
      </trkpt>
      <trkpt lat="47.27755" lon="-1.60738">
        <ele>88</ele>
        <time>2022-01-27T15:12:23Z</time>
      </trkpt>
      <trkpt lat="47.27755" lon="-1.60737">
        <ele>88</ele>
        <time>2022-01-27T15:12:24Z</time>
      </trkpt>
      <trkpt lat="47.27754" lon="-1.60736">
        <ele>88</ele>
        <time>2022-01-27T15:12:25Z</time>
      </trkpt>
      <trkpt lat="47.27753" lon="-1.60734">
        <ele>88</ele>
        <time>2022-01-27T15:12:26Z</time>
      </trkpt>
      <trkpt lat="47.27753" lon="-1.60733">
        <ele>89</ele>
        <time>2022-01-27T15:12:27Z</time>
      </trkpt>
      <trkpt lat="47.27753" lon="-1.60731">
        <ele>88</ele>
        <time>2022-01-27T15:12:28Z</time>
      </trkpt>
      <trkpt lat="47.27752" lon="-1.60729">
        <ele>88</ele>
        <time>2022-01-27T15:12:29Z</time>
      </trkpt>
      <trkpt lat="47.27751" lon="-1.60728">
        <ele>88</ele>
        <time>2022-01-27T15:12:30Z</time>
      </trkpt>
      <trkpt lat="47.2775" lon="-1.60726">
        <ele>88</ele>
        <time>2022-01-27T15:12:31Z</time>
      </trkpt>
      <trkpt lat="47.2775" lon="-1.60725">
        <ele>88</ele>
        <time>2022-01-27T15:12:32Z</time>
      </trkpt>
      <trkpt lat="47.27749" lon="-1.60723">
        <ele>87</ele>
        <time>2022-01-27T15:12:33Z</time>
      </trkpt>
      <trkpt lat="47.27749" lon="-1.60723">
        <ele>87</ele>
        <time>2022-01-27T15:12:34Z</time>
      </trkpt>
      <trkpt lat="47.27749" lon="-1.60721">
        <ele>87</ele>
        <time>2022-01-27T15:12:35Z</time>
      </trkpt>
      <trkpt lat="47.27749" lon="-1.60721">
        <ele>87</ele>
        <time>2022-01-27T15:12:36Z</time>
      </trkpt>
      <trkpt lat="47.27749" lon="-1.60721">
        <ele>87</ele>
        <time>2022-01-27T15:12:37Z</time>
      </trkpt>
      <trkpt lat="47.27746" lon="-1.60719">
        <ele>87</ele>
        <time>2022-01-27T15:12:38Z</time>
      </trkpt>
      <trkpt lat="47.27745" lon="-1.60717">
        <ele>87</ele>
        <time>2022-01-27T15:12:39Z</time>
      </trkpt>
      <trkpt lat="47.27745" lon="-1.60716">
        <ele>87</ele>
        <time>2022-01-27T15:12:40Z</time>
      </trkpt>
      <trkpt lat="47.27744" lon="-1.60714">
        <ele>87</ele>
        <time>2022-01-27T15:12:41Z</time>
      </trkpt>
      <trkpt lat="47.27744" lon="-1.60712">
        <ele>87</ele>
        <time>2022-01-27T15:12:42Z</time>
      </trkpt>
      <trkpt lat="47.27742" lon="-1.6071">
        <ele>87</ele>
        <time>2022-01-27T15:12:43Z</time>
      </trkpt>
      <trkpt lat="47.27742" lon="-1.60708">
        <ele>87</ele>
        <time>2022-01-27T15:12:44Z</time>
      </trkpt>
      <trkpt lat="47.27741" lon="-1.60707">
        <ele>87</ele>
        <time>2022-01-27T15:12:45Z</time>
      </trkpt>
      <trkpt lat="47.27741" lon="-1.60705">
        <ele>87</ele>
        <time>2022-01-27T15:12:46Z</time>
      </trkpt>
      <trkpt lat="47.27741" lon="-1.60703">
        <ele>87</ele>
        <time>2022-01-27T15:12:47Z</time>
      </trkpt>
      <trkpt lat="47.2774" lon="-1.607">
        <ele>88</ele>
        <time>2022-01-27T15:12:48Z</time>
      </trkpt>
      <trkpt lat="47.27739" lon="-1.60699">
        <ele>88</ele>
        <time>2022-01-27T15:12:49Z</time>
      </trkpt>
      <trkpt lat="47.27739" lon="-1.60697">
        <ele>87</ele>
        <time>2022-01-27T15:12:50Z</time>
      </trkpt>
      <trkpt lat="47.27738" lon="-1.60695">
        <ele>87</ele>
        <time>2022-01-27T15:12:51Z</time>
      </trkpt>
      <trkpt lat="47.27738" lon="-1.60694">
        <ele>87</ele>
        <time>2022-01-27T15:12:52Z</time>
      </trkpt>
      <trkpt lat="47.27737" lon="-1.60692">
        <ele>87</ele>
        <time>2022-01-27T15:12:53Z</time>
      </trkpt>
      <trkpt lat="47.27736" lon="-1.6069">
        <ele>87</ele>
        <time>2022-01-27T15:12:54Z</time>
      </trkpt>
      <trkpt lat="47.27736" lon="-1.60688">
        <ele>87</ele>
        <time>2022-01-27T15:12:55Z</time>
      </trkpt>
      <trkpt lat="47.27735" lon="-1.60686">
        <ele>86</ele>
        <time>2022-01-27T15:12:56Z</time>
      </trkpt>
      <trkpt lat="47.27734" lon="-1.60684">
        <ele>86</ele>
        <time>2022-01-27T15:12:57Z</time>
      </trkpt>
      <trkpt lat="47.27733" lon="-1.60683">
        <ele>87</ele>
        <time>2022-01-27T15:12:58Z</time>
      </trkpt>
      <trkpt lat="47.27733" lon="-1.60681">
        <ele>87</ele>
        <time>2022-01-27T15:12:59Z</time>
      </trkpt>
      <trkpt lat="47.27733" lon="-1.6068">
        <ele>87</ele>
        <time>2022-01-27T15:13:00Z</time>
      </trkpt>
      <trkpt lat="47.27732" lon="-1.60678">
        <ele>87</ele>
        <time>2022-01-27T15:13:01Z</time>
      </trkpt>
      <trkpt lat="47.27731" lon="-1.60676">
        <ele>87</ele>
        <time>2022-01-27T15:13:02Z</time>
      </trkpt>
      <trkpt lat="47.27731" lon="-1.60674">
        <ele>87</ele>
        <time>2022-01-27T15:13:03Z</time>
      </trkpt>
      <trkpt lat="47.2773" lon="-1.60673">
        <ele>86</ele>
        <time>2022-01-27T15:13:04Z</time>
      </trkpt>
      <trkpt lat="47.27729" lon="-1.60671">
        <ele>87</ele>
        <time>2022-01-27T15:13:05Z</time>
      </trkpt>
      <trkpt lat="47.27729" lon="-1.60669">
        <ele>87</ele>
        <time>2022-01-27T15:13:06Z</time>
      </trkpt>
      <trkpt lat="47.27728" lon="-1.60668">
        <ele>86</ele>
        <time>2022-01-27T15:13:07Z</time>
      </trkpt>
      <trkpt lat="47.27728" lon="-1.60666">
        <ele>86</ele>
        <time>2022-01-27T15:13:08Z</time>
      </trkpt>
      <trkpt lat="47.27727" lon="-1.60665">
        <ele>86</ele>
        <time>2022-01-27T15:13:09Z</time>
      </trkpt>
      <trkpt lat="47.27726" lon="-1.60664">
        <ele>86</ele>
        <time>2022-01-27T15:13:10Z</time>
      </trkpt>
      <trkpt lat="47.27726" lon="-1.60662">
        <ele>86</ele>
        <time>2022-01-27T15:13:11Z</time>
      </trkpt>
      <trkpt lat="47.27726" lon="-1.6066">
        <ele>86</ele>
        <time>2022-01-27T15:13:12Z</time>
      </trkpt>
      <trkpt lat="47.27725" lon="-1.60658">
        <ele>87</ele>
        <time>2022-01-27T15:13:13Z</time>
      </trkpt>
      <trkpt lat="47.27725" lon="-1.60656">
        <ele>86</ele>
        <time>2022-01-27T15:13:14Z</time>
      </trkpt>
      <trkpt lat="47.27724" lon="-1.60654">
        <ele>86</ele>
        <time>2022-01-27T15:13:15Z</time>
      </trkpt>
      <trkpt lat="47.27724" lon="-1.60652">
        <ele>86</ele>
        <time>2022-01-27T15:13:16Z</time>
      </trkpt>
      <trkpt lat="47.27723" lon="-1.60651">
        <ele>86</ele>
        <time>2022-01-27T15:13:17Z</time>
      </trkpt>
      <trkpt lat="47.27722" lon="-1.60648">
        <ele>86</ele>
        <time>2022-01-27T15:13:18Z</time>
      </trkpt>
      <trkpt lat="47.27722" lon="-1.60646">
        <ele>86</ele>
        <time>2022-01-27T15:13:19Z</time>
      </trkpt>
      <trkpt lat="47.27721" lon="-1.60644">
        <ele>86</ele>
        <time>2022-01-27T15:13:20Z</time>
      </trkpt>
      <trkpt lat="47.27721" lon="-1.60642">
        <ele>86</ele>
        <time>2022-01-27T15:13:21Z</time>
      </trkpt>
      <trkpt lat="47.2772" lon="-1.6064">
        <ele>86</ele>
        <time>2022-01-27T15:13:22Z</time>
      </trkpt>
      <trkpt lat="47.2772" lon="-1.60638">
        <ele>86</ele>
        <time>2022-01-27T15:13:23Z</time>
      </trkpt>
      <trkpt lat="47.2772" lon="-1.60636">
        <ele>86</ele>
        <time>2022-01-27T15:13:24Z</time>
      </trkpt>
      <trkpt lat="47.2772" lon="-1.60635">
        <ele>86</ele>
        <time>2022-01-27T15:13:25Z</time>
      </trkpt>
      <trkpt lat="47.27719" lon="-1.60633">
        <ele>86</ele>
        <time>2022-01-27T15:13:26Z</time>
      </trkpt>
      <trkpt lat="47.27718" lon="-1.60631">
        <ele>86</ele>
        <time>2022-01-27T15:13:27Z</time>
      </trkpt>
      <trkpt lat="47.27718" lon="-1.60629">
        <ele>86</ele>
        <time>2022-01-27T15:13:28Z</time>
      </trkpt>
      <trkpt lat="47.27717" lon="-1.60628">
        <ele>86</ele>
        <time>2022-01-27T15:13:29Z</time>
      </trkpt>
      <trkpt lat="47.27717" lon="-1.60626">
        <ele>86</ele>
        <time>2022-01-27T15:13:30Z</time>
      </trkpt>
      <trkpt lat="47.27716" lon="-1.60625">
        <ele>86</ele>
        <time>2022-01-27T15:13:31Z</time>
      </trkpt>
      <trkpt lat="47.27716" lon="-1.60623">
        <ele>86</ele>
        <time>2022-01-27T15:13:32Z</time>
      </trkpt>
      <trkpt lat="47.27716" lon="-1.60623">
        <ele>86</ele>
        <time>2022-01-27T15:13:33Z</time>
      </trkpt>
      <trkpt lat="47.27716" lon="-1.60623">
        <ele>86</ele>
        <time>2022-01-27T15:13:34Z</time>
      </trkpt>
      <trkpt lat="47.27715" lon="-1.60619">
        <ele>86</ele>
        <time>2022-01-27T15:13:35Z</time>
      </trkpt>
      <trkpt lat="47.27715" lon="-1.60617">
        <ele>86</ele>
        <time>2022-01-27T15:13:36Z</time>
      </trkpt>
      <trkpt lat="47.27714" lon="-1.60616">
        <ele>86</ele>
        <time>2022-01-27T15:13:37Z</time>
      </trkpt>
      <trkpt lat="47.27713" lon="-1.60614">
        <ele>86</ele>
        <time>2022-01-27T15:13:38Z</time>
      </trkpt>
      <trkpt lat="47.27713" lon="-1.60611">
        <ele>86</ele>
        <time>2022-01-27T15:13:39Z</time>
      </trkpt>
      <trkpt lat="47.27713" lon="-1.6061">
        <ele>86</ele>
        <time>2022-01-27T15:13:40Z</time>
      </trkpt>
      <trkpt lat="47.27713" lon="-1.60608">
        <ele>86</ele>
        <time>2022-01-27T15:13:41Z</time>
      </trkpt>
      <trkpt lat="47.27712" lon="-1.60606">
        <ele>86</ele>
        <time>2022-01-27T15:13:42Z</time>
      </trkpt>
      <trkpt lat="47.27712" lon="-1.60606">
        <ele>86</ele>
        <time>2022-01-27T15:13:43Z</time>
      </trkpt>
      <trkpt lat="47.27712" lon="-1.60606">
        <ele>86</ele>
        <time>2022-01-27T15:13:44Z</time>
      </trkpt>
      <trkpt lat="47.27712" lon="-1.60603">
        <ele>85</ele>
        <time>2022-01-27T15:13:45Z</time>
      </trkpt>
      <trkpt lat="47.27711" lon="-1.60601">
        <ele>85</ele>
        <time>2022-01-27T15:13:46Z</time>
      </trkpt>
      <trkpt lat="47.27711" lon="-1.60599">
        <ele>85</ele>
        <time>2022-01-27T15:13:47Z</time>
      </trkpt>
      <trkpt lat="47.27711" lon="-1.60598">
        <ele>85</ele>
        <time>2022-01-27T15:13:48Z</time>
      </trkpt>
      <trkpt lat="47.27711" lon="-1.60596">
        <ele>85</ele>
        <time>2022-01-27T15:13:49Z</time>
      </trkpt>
      <trkpt lat="47.2771" lon="-1.60594">
        <ele>85</ele>
        <time>2022-01-27T15:13:50Z</time>
      </trkpt>
      <trkpt lat="47.2771" lon="-1.60592">
        <ele>85</ele>
        <time>2022-01-27T15:13:51Z</time>
      </trkpt>
      <trkpt lat="47.27709" lon="-1.6059">
        <ele>85</ele>
        <time>2022-01-27T15:13:52Z</time>
      </trkpt>
      <trkpt lat="47.27709" lon="-1.60587">
        <ele>85</ele>
        <time>2022-01-27T15:13:53Z</time>
      </trkpt>
      <trkpt lat="47.27708" lon="-1.60585">
        <ele>85</ele>
        <time>2022-01-27T15:13:54Z</time>
      </trkpt>
      <trkpt lat="47.27708" lon="-1.60582">
        <ele>84</ele>
        <time>2022-01-27T15:13:55Z</time>
      </trkpt>
      <trkpt lat="47.27707" lon="-1.6058">
        <ele>84</ele>
        <time>2022-01-27T15:13:56Z</time>
      </trkpt>
      <trkpt lat="47.27707" lon="-1.60578">
        <ele>83</ele>
        <time>2022-01-27T15:13:57Z</time>
      </trkpt>
      <trkpt lat="47.27707" lon="-1.60576">
        <ele>82</ele>
        <time>2022-01-27T15:13:58Z</time>
      </trkpt>
      <trkpt lat="47.27707" lon="-1.60573">
        <ele>83</ele>
        <time>2022-01-27T15:13:59Z</time>
      </trkpt>
      <trkpt lat="47.27707" lon="-1.60571">
        <ele>83</ele>
        <time>2022-01-27T15:14:00Z</time>
      </trkpt>
      <trkpt lat="47.27708" lon="-1.6057">
        <ele>83</ele>
        <time>2022-01-27T15:14:01Z</time>
      </trkpt>
      <trkpt lat="47.27709" lon="-1.60569">
        <ele>83</ele>
        <time>2022-01-27T15:14:02Z</time>
      </trkpt>
      <trkpt lat="47.2771" lon="-1.60568">
        <ele>83</ele>
        <time>2022-01-27T15:14:03Z</time>
      </trkpt>
      <trkpt lat="47.27711" lon="-1.60567">
        <ele>83</ele>
        <time>2022-01-27T15:14:04Z</time>
      </trkpt>
      <trkpt lat="47.27712" lon="-1.60565">
        <ele>84</ele>
        <time>2022-01-27T15:14:05Z</time>
      </trkpt>
      <trkpt lat="47.27713" lon="-1.60564">
        <ele>83</ele>
        <time>2022-01-27T15:14:06Z</time>
      </trkpt>
      <trkpt lat="47.27714" lon="-1.60563">
        <ele>84</ele>
        <time>2022-01-27T15:14:07Z</time>
      </trkpt>
      <trkpt lat="47.27715" lon="-1.60561">
        <ele>85</ele>
        <time>2022-01-27T15:14:08Z</time>
      </trkpt>
      <trkpt lat="47.27715" lon="-1.6056">
        <ele>85</ele>
        <time>2022-01-27T15:14:09Z</time>
      </trkpt>
      <trkpt lat="47.27716" lon="-1.60559">
        <ele>85</ele>
        <time>2022-01-27T15:14:10Z</time>
      </trkpt>
      <trkpt lat="47.27718" lon="-1.60558">
        <ele>85</ele>
        <time>2022-01-27T15:14:11Z</time>
      </trkpt>
      <trkpt lat="47.27719" lon="-1.60558">
        <ele>84</ele>
        <time>2022-01-27T15:14:12Z</time>
      </trkpt>
      <trkpt lat="47.2772" lon="-1.60556">
        <ele>85</ele>
        <time>2022-01-27T15:14:13Z</time>
      </trkpt>
      <trkpt lat="47.27721" lon="-1.60555">
        <ele>85</ele>
        <time>2022-01-27T15:14:14Z</time>
      </trkpt>
      <trkpt lat="47.27721" lon="-1.60554">
        <ele>86</ele>
        <time>2022-01-27T15:14:15Z</time>
      </trkpt>
      <trkpt lat="47.27722" lon="-1.60553">
        <ele>86</ele>
        <time>2022-01-27T15:14:16Z</time>
      </trkpt>
      <trkpt lat="47.27723" lon="-1.60552">
        <ele>87</ele>
        <time>2022-01-27T15:14:17Z</time>
      </trkpt>
      <trkpt lat="47.27725" lon="-1.60552">
        <ele>87</ele>
        <time>2022-01-27T15:14:18Z</time>
      </trkpt>
      <trkpt lat="47.27726" lon="-1.60551">
        <ele>87</ele>
        <time>2022-01-27T15:14:19Z</time>
      </trkpt>
      <trkpt lat="47.27727" lon="-1.6055">
        <ele>87</ele>
        <time>2022-01-27T15:14:20Z</time>
      </trkpt>
      <trkpt lat="47.27728" lon="-1.60549">
        <ele>87</ele>
        <time>2022-01-27T15:14:21Z</time>
      </trkpt>
      <trkpt lat="47.27729" lon="-1.60548">
        <ele>88</ele>
        <time>2022-01-27T15:14:22Z</time>
      </trkpt>
      <trkpt lat="47.2773" lon="-1.60547">
        <ele>88</ele>
        <time>2022-01-27T15:14:23Z</time>
      </trkpt>
      <trkpt lat="47.27731" lon="-1.60546">
        <ele>88</ele>
        <time>2022-01-27T15:14:24Z</time>
      </trkpt>
      <trkpt lat="47.27733" lon="-1.60545">
        <ele>89</ele>
        <time>2022-01-27T15:14:25Z</time>
      </trkpt>
      <trkpt lat="47.27734" lon="-1.60544">
        <ele>89</ele>
        <time>2022-01-27T15:14:26Z</time>
      </trkpt>
      <trkpt lat="47.27735" lon="-1.60543">
        <ele>89</ele>
        <time>2022-01-27T15:14:27Z</time>
      </trkpt>
      <trkpt lat="47.27736" lon="-1.60543">
        <ele>90</ele>
        <time>2022-01-27T15:14:28Z</time>
      </trkpt>
      <trkpt lat="47.27737" lon="-1.60542">
        <ele>90</ele>
        <time>2022-01-27T15:14:29Z</time>
      </trkpt>
      <trkpt lat="47.27738" lon="-1.6054">
        <ele>90</ele>
        <time>2022-01-27T15:14:30Z</time>
      </trkpt>
      <trkpt lat="47.27739" lon="-1.6054">
        <ele>90</ele>
        <time>2022-01-27T15:14:31Z</time>
      </trkpt>
      <trkpt lat="47.27741" lon="-1.60539">
        <ele>91</ele>
        <time>2022-01-27T15:14:32Z</time>
      </trkpt>
      <trkpt lat="47.27742" lon="-1.60538">
        <ele>91</ele>
        <time>2022-01-27T15:14:33Z</time>
      </trkpt>
      <trkpt lat="47.27743" lon="-1.60537">
        <ele>91</ele>
        <time>2022-01-27T15:14:34Z</time>
      </trkpt>
      <trkpt lat="47.27745" lon="-1.60535">
        <ele>91</ele>
        <time>2022-01-27T15:14:35Z</time>
      </trkpt>
      <trkpt lat="47.27746" lon="-1.60534">
        <ele>91</ele>
        <time>2022-01-27T15:14:36Z</time>
      </trkpt>
      <trkpt lat="47.27747" lon="-1.60533">
        <ele>91</ele>
        <time>2022-01-27T15:14:37Z</time>
      </trkpt>
      <trkpt lat="47.27748" lon="-1.60532">
        <ele>91</ele>
        <time>2022-01-27T15:14:38Z</time>
      </trkpt>
      <trkpt lat="47.27749" lon="-1.60531">
        <ele>91</ele>
        <time>2022-01-27T15:14:39Z</time>
      </trkpt>
      <trkpt lat="47.2775" lon="-1.6053">
        <ele>91</ele>
        <time>2022-01-27T15:14:40Z</time>
      </trkpt>
      <trkpt lat="47.27752" lon="-1.60529">
        <ele>91</ele>
        <time>2022-01-27T15:14:41Z</time>
      </trkpt>
      <trkpt lat="47.27753" lon="-1.60528">
        <ele>91</ele>
        <time>2022-01-27T15:14:42Z</time>
      </trkpt>
      <trkpt lat="47.27755" lon="-1.60528">
        <ele>92</ele>
        <time>2022-01-27T15:14:43Z</time>
      </trkpt>
      <trkpt lat="47.27756" lon="-1.60527">
        <ele>92</ele>
        <time>2022-01-27T15:14:44Z</time>
      </trkpt>
      <trkpt lat="47.27757" lon="-1.60526">
        <ele>92</ele>
        <time>2022-01-27T15:14:45Z</time>
      </trkpt>
      <trkpt lat="47.27758" lon="-1.60525">
        <ele>92</ele>
        <time>2022-01-27T15:14:46Z</time>
      </trkpt>
      <trkpt lat="47.2776" lon="-1.60524">
        <ele>92</ele>
        <time>2022-01-27T15:14:47Z</time>
      </trkpt>
      <trkpt lat="47.27761" lon="-1.60523">
        <ele>92</ele>
        <time>2022-01-27T15:14:48Z</time>
      </trkpt>
      <trkpt lat="47.27762" lon="-1.60523">
        <ele>92</ele>
        <time>2022-01-27T15:14:49Z</time>
      </trkpt>
      <trkpt lat="47.27763" lon="-1.60522">
        <ele>91</ele>
        <time>2022-01-27T15:14:50Z</time>
      </trkpt>
      <trkpt lat="47.27765" lon="-1.60521">
        <ele>91</ele>
        <time>2022-01-27T15:14:51Z</time>
      </trkpt>
      <trkpt lat="47.27766" lon="-1.60521">
        <ele>91</ele>
        <time>2022-01-27T15:14:52Z</time>
      </trkpt>
      <trkpt lat="47.27767" lon="-1.60521">
        <ele>92</ele>
        <time>2022-01-27T15:14:53Z</time>
      </trkpt>
      <trkpt lat="47.27769" lon="-1.6052">
        <ele>91</ele>
        <time>2022-01-27T15:14:54Z</time>
      </trkpt>
      <trkpt lat="47.2777" lon="-1.6052">
        <ele>91</ele>
        <time>2022-01-27T15:14:55Z</time>
      </trkpt>
      <trkpt lat="47.27771" lon="-1.6052">
        <ele>91</ele>
        <time>2022-01-27T15:14:56Z</time>
      </trkpt>
      <trkpt lat="47.27773" lon="-1.6052">
        <ele>91</ele>
        <time>2022-01-27T15:14:57Z</time>
      </trkpt>
      <trkpt lat="47.27774" lon="-1.60519">
        <ele>91</ele>
        <time>2022-01-27T15:14:58Z</time>
      </trkpt>
      <trkpt lat="47.27775" lon="-1.60519">
        <ele>91</ele>
        <time>2022-01-27T15:14:59Z</time>
      </trkpt>
      <trkpt lat="47.27775" lon="-1.60519">
        <ele>91</ele>
        <time>2022-01-27T15:14:59Z</time>
      </trkpt>
      <trkpt lat="47.27778" lon="-1.60517">
        <ele>91</ele>
        <time>2022-01-27T15:15:01Z</time>
      </trkpt>
      <trkpt lat="47.27779" lon="-1.60516">
        <ele>91</ele>
        <time>2022-01-27T15:15:02Z</time>
      </trkpt>
      <trkpt lat="47.2778" lon="-1.60516">
        <ele>91</ele>
        <time>2022-01-27T15:15:03Z</time>
      </trkpt>
      <trkpt lat="47.27781" lon="-1.60515">
        <ele>91</ele>
        <time>2022-01-27T15:15:04Z</time>
      </trkpt>
      <trkpt lat="47.27782" lon="-1.60514">
        <ele>91</ele>
        <time>2022-01-27T15:15:05Z</time>
      </trkpt>
      <trkpt lat="47.27784" lon="-1.60513">
        <ele>91</ele>
        <time>2022-01-27T15:15:06Z</time>
      </trkpt>
      <trkpt lat="47.27785" lon="-1.60512">
        <ele>91</ele>
        <time>2022-01-27T15:15:07Z</time>
      </trkpt>
      <trkpt lat="47.27786" lon="-1.60511">
        <ele>91</ele>
        <time>2022-01-27T15:15:08Z</time>
      </trkpt>
      <trkpt lat="47.27787" lon="-1.6051">
        <ele>91</ele>
        <time>2022-01-27T15:15:09Z</time>
      </trkpt>
      <trkpt lat="47.27788" lon="-1.60509">
        <ele>91</ele>
        <time>2022-01-27T15:15:10Z</time>
      </trkpt>
      <trkpt lat="47.27789" lon="-1.60508">
        <ele>91</ele>
        <time>2022-01-27T15:15:11Z</time>
      </trkpt>
      <trkpt lat="47.27791" lon="-1.60508">
        <ele>91</ele>
        <time>2022-01-27T15:15:12Z</time>
      </trkpt>
      <trkpt lat="47.27792" lon="-1.60507">
        <ele>91</ele>
        <time>2022-01-27T15:15:13Z</time>
      </trkpt>
      <trkpt lat="47.27794" lon="-1.60506">
        <ele>92</ele>
        <time>2022-01-27T15:15:14Z</time>
      </trkpt>
      <trkpt lat="47.27795" lon="-1.60505">
        <ele>92</ele>
        <time>2022-01-27T15:15:15Z</time>
      </trkpt>
      <trkpt lat="47.27796" lon="-1.60505">
        <ele>92</ele>
        <time>2022-01-27T15:15:16Z</time>
      </trkpt>
      <trkpt lat="47.27797" lon="-1.60504">
        <ele>92</ele>
        <time>2022-01-27T15:15:17Z</time>
      </trkpt>
      <trkpt lat="47.27799" lon="-1.60503">
        <ele>92</ele>
        <time>2022-01-27T15:15:18Z</time>
      </trkpt>
      <trkpt lat="47.278" lon="-1.60503">
        <ele>92</ele>
        <time>2022-01-27T15:15:19Z</time>
      </trkpt>
      <trkpt lat="47.27801" lon="-1.60503">
        <ele>93</ele>
        <time>2022-01-27T15:15:20Z</time>
      </trkpt>
      <trkpt lat="47.27802" lon="-1.60502">
        <ele>93</ele>
        <time>2022-01-27T15:15:21Z</time>
      </trkpt>
      <trkpt lat="47.27804" lon="-1.60502">
        <ele>93</ele>
        <time>2022-01-27T15:15:22Z</time>
      </trkpt>
      <trkpt lat="47.27805" lon="-1.60501">
        <ele>93</ele>
        <time>2022-01-27T15:15:23Z</time>
      </trkpt>
      <trkpt lat="47.27806" lon="-1.605">
        <ele>93</ele>
        <time>2022-01-27T15:15:24Z</time>
      </trkpt>
      <trkpt lat="47.27807" lon="-1.60499">
        <ele>93</ele>
        <time>2022-01-27T15:15:25Z</time>
      </trkpt>
      <trkpt lat="47.27808" lon="-1.60498">
        <ele>93</ele>
        <time>2022-01-27T15:15:26Z</time>
      </trkpt>
      <trkpt lat="47.2781" lon="-1.60497">
        <ele>93</ele>
        <time>2022-01-27T15:15:27Z</time>
      </trkpt>
      <trkpt lat="47.27811" lon="-1.60496">
        <ele>93</ele>
        <time>2022-01-27T15:15:28Z</time>
      </trkpt>
      <trkpt lat="47.27813" lon="-1.60495">
        <ele>93</ele>
        <time>2022-01-27T15:15:29Z</time>
      </trkpt>
      <trkpt lat="47.27814" lon="-1.60495">
        <ele>93</ele>
        <time>2022-01-27T15:15:30Z</time>
      </trkpt>
      <trkpt lat="47.27815" lon="-1.60494">
        <ele>93</ele>
        <time>2022-01-27T15:15:31Z</time>
      </trkpt>
      <trkpt lat="47.27816" lon="-1.60494">
        <ele>93</ele>
        <time>2022-01-27T15:15:32Z</time>
      </trkpt>
      <trkpt lat="47.27818" lon="-1.60494">
        <ele>93</ele>
        <time>2022-01-27T15:15:33Z</time>
      </trkpt>
      <trkpt lat="47.27819" lon="-1.60493">
        <ele>93</ele>
        <time>2022-01-27T15:15:34Z</time>
      </trkpt>
      <trkpt lat="47.2782" lon="-1.60493">
        <ele>93</ele>
        <time>2022-01-27T15:15:35Z</time>
      </trkpt>
      <trkpt lat="47.27821" lon="-1.60492">
        <ele>93</ele>
        <time>2022-01-27T15:15:36Z</time>
      </trkpt>
      <trkpt lat="47.27823" lon="-1.60491">
        <ele>93</ele>
        <time>2022-01-27T15:15:37Z</time>
      </trkpt>
      <trkpt lat="47.27824" lon="-1.60491">
        <ele>94</ele>
        <time>2022-01-27T15:15:38Z</time>
      </trkpt>
      <trkpt lat="47.27825" lon="-1.6049">
        <ele>94</ele>
        <time>2022-01-27T15:15:39Z</time>
      </trkpt>
      <trkpt lat="47.27827" lon="-1.60489">
        <ele>94</ele>
        <time>2022-01-27T15:15:40Z</time>
      </trkpt>
      <trkpt lat="47.27828" lon="-1.60489">
        <ele>93</ele>
        <time>2022-01-27T15:15:41Z</time>
      </trkpt>
      <trkpt lat="47.27829" lon="-1.60488">
        <ele>94</ele>
        <time>2022-01-27T15:15:42Z</time>
      </trkpt>
      <trkpt lat="47.2783" lon="-1.60488">
        <ele>94</ele>
        <time>2022-01-27T15:15:43Z</time>
      </trkpt>
      <trkpt lat="47.27832" lon="-1.60488">
        <ele>94</ele>
        <time>2022-01-27T15:15:44Z</time>
      </trkpt>
      <trkpt lat="47.27833" lon="-1.60487">
        <ele>94</ele>
        <time>2022-01-27T15:15:45Z</time>
      </trkpt>
      <trkpt lat="47.27834" lon="-1.60487">
        <ele>93</ele>
        <time>2022-01-27T15:15:46Z</time>
      </trkpt>
      <trkpt lat="47.27836" lon="-1.60486">
        <ele>93</ele>
        <time>2022-01-27T15:15:47Z</time>
      </trkpt>
      <trkpt lat="47.27837" lon="-1.60486">
        <ele>93</ele>
        <time>2022-01-27T15:15:48Z</time>
      </trkpt>
      <trkpt lat="47.27838" lon="-1.60485">
        <ele>93</ele>
        <time>2022-01-27T15:15:49Z</time>
      </trkpt>
      <trkpt lat="47.27839" lon="-1.60484">
        <ele>93</ele>
        <time>2022-01-27T15:15:50Z</time>
      </trkpt>
      <trkpt lat="47.2784" lon="-1.60483">
        <ele>93</ele>
        <time>2022-01-27T15:15:51Z</time>
      </trkpt>
      <trkpt lat="47.27841" lon="-1.60483">
        <ele>93</ele>
        <time>2022-01-27T15:15:52Z</time>
      </trkpt>
      <trkpt lat="47.27842" lon="-1.60482">
        <ele>93</ele>
        <time>2022-01-27T15:15:53Z</time>
      </trkpt>
      <trkpt lat="47.27844" lon="-1.60481">
        <ele>93</ele>
        <time>2022-01-27T15:15:54Z</time>
      </trkpt>
      <trkpt lat="47.27845" lon="-1.6048">
        <ele>93</ele>
        <time>2022-01-27T15:15:55Z</time>
      </trkpt>
      <trkpt lat="47.27846" lon="-1.6048">
        <ele>93</ele>
        <time>2022-01-27T15:15:56Z</time>
      </trkpt>
      <trkpt lat="47.27848" lon="-1.60479">
        <ele>93</ele>
        <time>2022-01-27T15:15:57Z</time>
      </trkpt>
      <trkpt lat="47.27849" lon="-1.60478">
        <ele>93</ele>
        <time>2022-01-27T15:15:58Z</time>
      </trkpt>
      <trkpt lat="47.2785" lon="-1.60478">
        <ele>93</ele>
        <time>2022-01-27T15:15:59Z</time>
      </trkpt>
      <trkpt lat="47.27852" lon="-1.60477">
        <ele>93</ele>
        <time>2022-01-27T15:16:00Z</time>
      </trkpt>
      <trkpt lat="47.27853" lon="-1.60476">
        <ele>93</ele>
        <time>2022-01-27T15:16:01Z</time>
      </trkpt>
      <trkpt lat="47.27854" lon="-1.60476">
        <ele>93</ele>
        <time>2022-01-27T15:16:02Z</time>
      </trkpt>
      <trkpt lat="47.27855" lon="-1.60475">
        <ele>93</ele>
        <time>2022-01-27T15:16:03Z</time>
      </trkpt>
      <trkpt lat="47.27856" lon="-1.60475">
        <ele>93</ele>
        <time>2022-01-27T15:16:04Z</time>
      </trkpt>
      <trkpt lat="47.27858" lon="-1.60476">
        <ele>93</ele>
        <time>2022-01-27T15:16:05Z</time>
      </trkpt>
      <trkpt lat="47.2786" lon="-1.60476">
        <ele>92</ele>
        <time>2022-01-27T15:16:06Z</time>
      </trkpt>
      <trkpt lat="47.2786" lon="-1.60477">
        <ele>93</ele>
        <time>2022-01-27T15:16:07Z</time>
      </trkpt>
      <trkpt lat="47.27861" lon="-1.60477">
        <ele>93</ele>
        <time>2022-01-27T15:16:08Z</time>
      </trkpt>
      <trkpt lat="47.27863" lon="-1.60478">
        <ele>93</ele>
        <time>2022-01-27T15:16:09Z</time>
      </trkpt>
      <trkpt lat="47.27864" lon="-1.60478">
        <ele>94</ele>
        <time>2022-01-27T15:16:10Z</time>
      </trkpt>
      <trkpt lat="47.27865" lon="-1.60479">
        <ele>94</ele>
        <time>2022-01-27T15:16:11Z</time>
      </trkpt>
      <trkpt lat="47.27866" lon="-1.6048">
        <ele>94</ele>
        <time>2022-01-27T15:16:12Z</time>
      </trkpt>
      <trkpt lat="47.27867" lon="-1.6048">
        <ele>93</ele>
        <time>2022-01-27T15:16:13Z</time>
      </trkpt>
      <trkpt lat="47.27868" lon="-1.60481">
        <ele>94</ele>
        <time>2022-01-27T15:16:14Z</time>
      </trkpt>
      <trkpt lat="47.27869" lon="-1.60481">
        <ele>93</ele>
        <time>2022-01-27T15:16:15Z</time>
      </trkpt>
      <trkpt lat="47.27871" lon="-1.60482">
        <ele>93</ele>
        <time>2022-01-27T15:16:16Z</time>
      </trkpt>
      <trkpt lat="47.27872" lon="-1.60482">
        <ele>93</ele>
        <time>2022-01-27T15:16:17Z</time>
      </trkpt>
      <trkpt lat="47.27873" lon="-1.60483">
        <ele>93</ele>
        <time>2022-01-27T15:16:18Z</time>
      </trkpt>
      <trkpt lat="47.27874" lon="-1.60484">
        <ele>93</ele>
        <time>2022-01-27T15:16:19Z</time>
      </trkpt>
      <trkpt lat="47.27876" lon="-1.60485">
        <ele>92</ele>
        <time>2022-01-27T15:16:20Z</time>
      </trkpt>
      <trkpt lat="47.27877" lon="-1.60486">
        <ele>92</ele>
        <time>2022-01-27T15:16:21Z</time>
      </trkpt>
      <trkpt lat="47.27879" lon="-1.60487">
        <ele>92</ele>
        <time>2022-01-27T15:16:22Z</time>
      </trkpt>
      <trkpt lat="47.2788" lon="-1.60488">
        <ele>92</ele>
        <time>2022-01-27T15:16:23Z</time>
      </trkpt>
      <trkpt lat="47.27881" lon="-1.60489">
        <ele>92</ele>
        <time>2022-01-27T15:16:24Z</time>
      </trkpt>
      <trkpt lat="47.27882" lon="-1.6049">
        <ele>91</ele>
        <time>2022-01-27T15:16:25Z</time>
      </trkpt>
      <trkpt lat="47.27883" lon="-1.6049">
        <ele>91</ele>
        <time>2022-01-27T15:16:26Z</time>
      </trkpt>
      <trkpt lat="47.27884" lon="-1.6049">
        <ele>90</ele>
        <time>2022-01-27T15:16:27Z</time>
      </trkpt>
      <trkpt lat="47.27885" lon="-1.60491">
        <ele>90</ele>
        <time>2022-01-27T15:16:28Z</time>
      </trkpt>
      <trkpt lat="47.27887" lon="-1.60492">
        <ele>89</ele>
        <time>2022-01-27T15:16:29Z</time>
      </trkpt>
      <trkpt lat="47.27887" lon="-1.60493">
        <ele>89</ele>
        <time>2022-01-27T15:16:30Z</time>
      </trkpt>
      <trkpt lat="47.27889" lon="-1.60493">
        <ele>89</ele>
        <time>2022-01-27T15:16:31Z</time>
      </trkpt>
      <trkpt lat="47.2789" lon="-1.60494">
        <ele>90</ele>
        <time>2022-01-27T15:16:32Z</time>
      </trkpt>
      <trkpt lat="47.27891" lon="-1.60495">
        <ele>90</ele>
        <time>2022-01-27T15:16:33Z</time>
      </trkpt>
      <trkpt lat="47.27893" lon="-1.60496">
        <ele>89</ele>
        <time>2022-01-27T15:16:34Z</time>
      </trkpt>
      <trkpt lat="47.27894" lon="-1.60497">
        <ele>89</ele>
        <time>2022-01-27T15:16:35Z</time>
      </trkpt>
      <trkpt lat="47.27895" lon="-1.60498">
        <ele>89</ele>
        <time>2022-01-27T15:16:36Z</time>
      </trkpt>
      <trkpt lat="47.27896" lon="-1.60499">
        <ele>89</ele>
        <time>2022-01-27T15:16:37Z</time>
      </trkpt>
      <trkpt lat="47.27897" lon="-1.60499">
        <ele>89</ele>
        <time>2022-01-27T15:16:38Z</time>
      </trkpt>
      <trkpt lat="47.27898" lon="-1.605">
        <ele>89</ele>
        <time>2022-01-27T15:16:39Z</time>
      </trkpt>
      <trkpt lat="47.27899" lon="-1.60501">
        <ele>89</ele>
        <time>2022-01-27T15:16:40Z</time>
      </trkpt>
      <trkpt lat="47.279" lon="-1.60502">
        <ele>88</ele>
        <time>2022-01-27T15:16:41Z</time>
      </trkpt>
      <trkpt lat="47.279" lon="-1.60503">
        <ele>88</ele>
        <time>2022-01-27T15:16:42Z</time>
      </trkpt>
      <trkpt lat="47.27902" lon="-1.60504">
        <ele>88</ele>
        <time>2022-01-27T15:16:43Z</time>
      </trkpt>
      <trkpt lat="47.27902" lon="-1.60505">
        <ele>88</ele>
        <time>2022-01-27T15:16:44Z</time>
      </trkpt>
      <trkpt lat="47.27903" lon="-1.60506">
        <ele>88</ele>
        <time>2022-01-27T15:16:45Z</time>
      </trkpt>
      <trkpt lat="47.27903" lon="-1.60507">
        <ele>88</ele>
        <time>2022-01-27T15:16:46Z</time>
      </trkpt>
      <trkpt lat="47.27904" lon="-1.60507">
        <ele>88</ele>
        <time>2022-01-27T15:16:47Z</time>
      </trkpt>
      <trkpt lat="47.27905" lon="-1.60508">
        <ele>88</ele>
        <time>2022-01-27T15:16:48Z</time>
      </trkpt>
      <trkpt lat="47.27906" lon="-1.60509">
        <ele>87</ele>
        <time>2022-01-27T15:16:49Z</time>
      </trkpt>
      <trkpt lat="47.27907" lon="-1.6051">
        <ele>88</ele>
        <time>2022-01-27T15:16:50Z</time>
      </trkpt>
      <trkpt lat="47.27908" lon="-1.60511">
        <ele>88</ele>
        <time>2022-01-27T15:16:51Z</time>
      </trkpt>
      <trkpt lat="47.2791" lon="-1.60513">
        <ele>88</ele>
        <time>2022-01-27T15:16:52Z</time>
      </trkpt>
      <trkpt lat="47.27911" lon="-1.60514">
        <ele>88</ele>
        <time>2022-01-27T15:16:53Z</time>
      </trkpt>
      <trkpt lat="47.27912" lon="-1.60515">
        <ele>88</ele>
        <time>2022-01-27T15:16:54Z</time>
      </trkpt>
      <trkpt lat="47.27913" lon="-1.60516">
        <ele>87</ele>
        <time>2022-01-27T15:16:55Z</time>
      </trkpt>
      <trkpt lat="47.27914" lon="-1.60516">
        <ele>87</ele>
        <time>2022-01-27T15:16:56Z</time>
      </trkpt>
      <trkpt lat="47.27916" lon="-1.60517">
        <ele>87</ele>
        <time>2022-01-27T15:16:57Z</time>
      </trkpt>
      <trkpt lat="47.27917" lon="-1.60518">
        <ele>87</ele>
        <time>2022-01-27T15:16:58Z</time>
      </trkpt>
      <trkpt lat="47.27918" lon="-1.60519">
        <ele>87</ele>
        <time>2022-01-27T15:16:59Z</time>
      </trkpt>
      <trkpt lat="47.27919" lon="-1.6052">
        <ele>87</ele>
        <time>2022-01-27T15:17:00Z</time>
      </trkpt>
      <trkpt lat="47.2792" lon="-1.6052">
        <ele>87</ele>
        <time>2022-01-27T15:17:01Z</time>
      </trkpt>
      <trkpt lat="47.27921" lon="-1.60521">
        <ele>87</ele>
        <time>2022-01-27T15:17:02Z</time>
      </trkpt>
      <trkpt lat="47.27922" lon="-1.60522">
        <ele>87</ele>
        <time>2022-01-27T15:17:03Z</time>
      </trkpt>
      <trkpt lat="47.27922" lon="-1.60523">
        <ele>87</ele>
        <time>2022-01-27T15:17:04Z</time>
      </trkpt>
      <trkpt lat="47.27924" lon="-1.60524">
        <ele>87</ele>
        <time>2022-01-27T15:17:05Z</time>
      </trkpt>
      <trkpt lat="47.27925" lon="-1.60525">
        <ele>87</ele>
        <time>2022-01-27T15:17:06Z</time>
      </trkpt>
      <trkpt lat="47.27926" lon="-1.60526">
        <ele>86</ele>
        <time>2022-01-27T15:17:07Z</time>
      </trkpt>
      <trkpt lat="47.27927" lon="-1.60526">
        <ele>86</ele>
        <time>2022-01-27T15:17:08Z</time>
      </trkpt>
      <trkpt lat="47.27928" lon="-1.60527">
        <ele>86</ele>
        <time>2022-01-27T15:17:09Z</time>
      </trkpt>
      <trkpt lat="47.27929" lon="-1.60527">
        <ele>86</ele>
        <time>2022-01-27T15:17:10Z</time>
      </trkpt>
      <trkpt lat="47.27931" lon="-1.60527">
        <ele>86</ele>
        <time>2022-01-27T15:17:11Z</time>
      </trkpt>
      <trkpt lat="47.27932" lon="-1.60528">
        <ele>85</ele>
        <time>2022-01-27T15:17:12Z</time>
      </trkpt>
      <trkpt lat="47.27932" lon="-1.60529">
        <ele>85</ele>
        <time>2022-01-27T15:17:13Z</time>
      </trkpt>
      <trkpt lat="47.27934" lon="-1.60529">
        <ele>85</ele>
        <time>2022-01-27T15:17:14Z</time>
      </trkpt>
      <trkpt lat="47.27935" lon="-1.6053">
        <ele>86</ele>
        <time>2022-01-27T15:17:15Z</time>
      </trkpt>
      <trkpt lat="47.27936" lon="-1.6053">
        <ele>86</ele>
        <time>2022-01-27T15:17:16Z</time>
      </trkpt>
      <trkpt lat="47.27938" lon="-1.60531">
        <ele>85</ele>
        <time>2022-01-27T15:17:17Z</time>
      </trkpt>
      <trkpt lat="47.27939" lon="-1.60531">
        <ele>86</ele>
        <time>2022-01-27T15:17:18Z</time>
      </trkpt>
      <trkpt lat="47.27941" lon="-1.60532">
        <ele>86</ele>
        <time>2022-01-27T15:17:19Z</time>
      </trkpt>
      <trkpt lat="47.27942" lon="-1.60532">
        <ele>86</ele>
        <time>2022-01-27T15:17:20Z</time>
      </trkpt>
      <trkpt lat="47.27944" lon="-1.60532">
        <ele>86</ele>
        <time>2022-01-27T15:17:21Z</time>
      </trkpt>
      <trkpt lat="47.27946" lon="-1.60533">
        <ele>85</ele>
        <time>2022-01-27T15:17:22Z</time>
      </trkpt>
      <trkpt lat="47.27948" lon="-1.60534">
        <ele>85</ele>
        <time>2022-01-27T15:17:23Z</time>
      </trkpt>
      <trkpt lat="47.27949" lon="-1.60535">
        <ele>86</ele>
        <time>2022-01-27T15:17:24Z</time>
      </trkpt>
      <trkpt lat="47.2795" lon="-1.60535">
        <ele>86</ele>
        <time>2022-01-27T15:17:25Z</time>
      </trkpt>
      <trkpt lat="47.27952" lon="-1.60536">
        <ele>86</ele>
        <time>2022-01-27T15:17:26Z</time>
      </trkpt>
      <trkpt lat="47.27953" lon="-1.60537">
        <ele>86</ele>
        <time>2022-01-27T15:17:27Z</time>
      </trkpt>
      <trkpt lat="47.27955" lon="-1.60538">
        <ele>86</ele>
        <time>2022-01-27T15:17:28Z</time>
      </trkpt>
      <trkpt lat="47.27956" lon="-1.60539">
        <ele>85</ele>
        <time>2022-01-27T15:17:29Z</time>
      </trkpt>
      <trkpt lat="47.27958" lon="-1.60539">
        <ele>86</ele>
        <time>2022-01-27T15:17:30Z</time>
      </trkpt>
      <trkpt lat="47.27959" lon="-1.6054">
        <ele>86</ele>
        <time>2022-01-27T15:17:31Z</time>
      </trkpt>
      <trkpt lat="47.27961" lon="-1.60541">
        <ele>86</ele>
        <time>2022-01-27T15:17:32Z</time>
      </trkpt>
      <trkpt lat="47.27962" lon="-1.60541">
        <ele>86</ele>
        <time>2022-01-27T15:17:33Z</time>
      </trkpt>
      <trkpt lat="47.27963" lon="-1.60542">
        <ele>85</ele>
        <time>2022-01-27T15:17:34Z</time>
      </trkpt>
      <trkpt lat="47.27964" lon="-1.60542">
        <ele>86</ele>
        <time>2022-01-27T15:17:35Z</time>
      </trkpt>
      <trkpt lat="47.27966" lon="-1.60543">
        <ele>86</ele>
        <time>2022-01-27T15:17:36Z</time>
      </trkpt>
      <trkpt lat="47.27968" lon="-1.60544">
        <ele>86</ele>
        <time>2022-01-27T15:17:37Z</time>
      </trkpt>
      <trkpt lat="47.27969" lon="-1.60545">
        <ele>86</ele>
        <time>2022-01-27T15:17:38Z</time>
      </trkpt>
      <trkpt lat="47.2797" lon="-1.60545">
        <ele>86</ele>
        <time>2022-01-27T15:17:39Z</time>
      </trkpt>
      <trkpt lat="47.27971" lon="-1.60546">
        <ele>86</ele>
        <time>2022-01-27T15:17:40Z</time>
      </trkpt>
      <trkpt lat="47.27972" lon="-1.60547">
        <ele>86</ele>
        <time>2022-01-27T15:17:41Z</time>
      </trkpt>
      <trkpt lat="47.27974" lon="-1.60548">
        <ele>86</ele>
        <time>2022-01-27T15:17:42Z</time>
      </trkpt>
      <trkpt lat="47.27975" lon="-1.60549">
        <ele>86</ele>
        <time>2022-01-27T15:17:43Z</time>
      </trkpt>
      <trkpt lat="47.27976" lon="-1.60549">
        <ele>86</ele>
        <time>2022-01-27T15:17:44Z</time>
      </trkpt>
      <trkpt lat="47.27977" lon="-1.6055">
        <ele>86</ele>
        <time>2022-01-27T15:17:45Z</time>
      </trkpt>
      <trkpt lat="47.27978" lon="-1.60551">
        <ele>86</ele>
        <time>2022-01-27T15:17:46Z</time>
      </trkpt>
      <trkpt lat="47.27978" lon="-1.60551">
        <ele>86</ele>
        <time>2022-01-27T15:17:47Z</time>
      </trkpt>
      <trkpt lat="47.27979" lon="-1.60551">
        <ele>86</ele>
        <time>2022-01-27T15:17:48Z</time>
      </trkpt>
      <trkpt lat="47.2798" lon="-1.60552">
        <ele>86</ele>
        <time>2022-01-27T15:17:49Z</time>
      </trkpt>
      <trkpt lat="47.27981" lon="-1.60553">
        <ele>85</ele>
        <time>2022-01-27T15:17:50Z</time>
      </trkpt>
      <trkpt lat="47.27982" lon="-1.60554">
        <ele>85</ele>
        <time>2022-01-27T15:17:51Z</time>
      </trkpt>
      <trkpt lat="47.27983" lon="-1.60556">
        <ele>85</ele>
        <time>2022-01-27T15:17:52Z</time>
      </trkpt>
      <trkpt lat="47.27984" lon="-1.60557">
        <ele>85</ele>
        <time>2022-01-27T15:17:53Z</time>
      </trkpt>
      <trkpt lat="47.27985" lon="-1.60558">
        <ele>85</ele>
        <time>2022-01-27T15:17:54Z</time>
      </trkpt>
      <trkpt lat="47.27986" lon="-1.60559">
        <ele>85</ele>
        <time>2022-01-27T15:17:55Z</time>
      </trkpt>
      <trkpt lat="47.27987" lon="-1.6056">
        <ele>85</ele>
        <time>2022-01-27T15:17:56Z</time>
      </trkpt>
      <trkpt lat="47.27988" lon="-1.60561">
        <ele>85</ele>
        <time>2022-01-27T15:17:57Z</time>
      </trkpt>
      <trkpt lat="47.2799" lon="-1.60562">
        <ele>85</ele>
        <time>2022-01-27T15:17:58Z</time>
      </trkpt>
      <trkpt lat="47.2799" lon="-1.60564">
        <ele>85</ele>
        <time>2022-01-27T15:17:59Z</time>
      </trkpt>
      <trkpt lat="47.27992" lon="-1.60565">
        <ele>85</ele>
        <time>2022-01-27T15:18:00Z</time>
      </trkpt>
      <trkpt lat="47.27992" lon="-1.60565">
        <ele>85</ele>
        <time>2022-01-27T15:18:01Z</time>
      </trkpt>
      <trkpt lat="47.27993" lon="-1.60566">
        <ele>85</ele>
        <time>2022-01-27T15:18:02Z</time>
      </trkpt>
      <trkpt lat="47.27994" lon="-1.60567">
        <ele>85</ele>
        <time>2022-01-27T15:18:03Z</time>
      </trkpt>
      <trkpt lat="47.27995" lon="-1.60569">
        <ele>85</ele>
        <time>2022-01-27T15:18:04Z</time>
      </trkpt>
      <trkpt lat="47.27996" lon="-1.6057">
        <ele>85</ele>
        <time>2022-01-27T15:18:05Z</time>
      </trkpt>
      <trkpt lat="47.27997" lon="-1.60572">
        <ele>85</ele>
        <time>2022-01-27T15:18:06Z</time>
      </trkpt>
      <trkpt lat="47.27998" lon="-1.60573">
        <ele>85</ele>
        <time>2022-01-27T15:18:07Z</time>
      </trkpt>
      <trkpt lat="47.27999" lon="-1.60574">
        <ele>85</ele>
        <time>2022-01-27T15:18:08Z</time>
      </trkpt>
      <trkpt lat="47.28" lon="-1.60575">
        <ele>86</ele>
        <time>2022-01-27T15:18:09Z</time>
      </trkpt>
      <trkpt lat="47.28" lon="-1.60576">
        <ele>86</ele>
        <time>2022-01-27T15:18:10Z</time>
      </trkpt>
      <trkpt lat="47.28001" lon="-1.60578">
        <ele>86</ele>
        <time>2022-01-27T15:18:11Z</time>
      </trkpt>
      <trkpt lat="47.28002" lon="-1.60579">
        <ele>86</ele>
        <time>2022-01-27T15:18:12Z</time>
      </trkpt>
      <trkpt lat="47.28003" lon="-1.6058">
        <ele>86</ele>
        <time>2022-01-27T15:18:13Z</time>
      </trkpt>
      <trkpt lat="47.28003" lon="-1.60581">
        <ele>87</ele>
        <time>2022-01-27T15:18:14Z</time>
      </trkpt>
      <trkpt lat="47.28005" lon="-1.60583">
        <ele>86</ele>
        <time>2022-01-27T15:18:15Z</time>
      </trkpt>
      <trkpt lat="47.28005" lon="-1.60584">
        <ele>86</ele>
        <time>2022-01-27T15:18:16Z</time>
      </trkpt>
      <trkpt lat="47.28006" lon="-1.60585">
        <ele>86</ele>
        <time>2022-01-27T15:18:17Z</time>
      </trkpt>
      <trkpt lat="47.28007" lon="-1.60587">
        <ele>86</ele>
        <time>2022-01-27T15:18:18Z</time>
      </trkpt>
      <trkpt lat="47.28008" lon="-1.60589">
        <ele>86</ele>
        <time>2022-01-27T15:18:19Z</time>
      </trkpt>
      <trkpt lat="47.28009" lon="-1.6059">
        <ele>86</ele>
        <time>2022-01-27T15:18:20Z</time>
      </trkpt>
      <trkpt lat="47.2801" lon="-1.60592">
        <ele>86</ele>
        <time>2022-01-27T15:18:21Z</time>
      </trkpt>
      <trkpt lat="47.2801" lon="-1.60593">
        <ele>86</ele>
        <time>2022-01-27T15:18:22Z</time>
      </trkpt>
      <trkpt lat="47.28011" lon="-1.60595">
        <ele>86</ele>
        <time>2022-01-27T15:18:23Z</time>
      </trkpt>
      <trkpt lat="47.28012" lon="-1.60597">
        <ele>86</ele>
        <time>2022-01-27T15:18:24Z</time>
      </trkpt>
      <trkpt lat="47.28013" lon="-1.60598">
        <ele>86</ele>
        <time>2022-01-27T15:18:25Z</time>
      </trkpt>
      <trkpt lat="47.28014" lon="-1.606">
        <ele>86</ele>
        <time>2022-01-27T15:18:26Z</time>
      </trkpt>
      <trkpt lat="47.28014" lon="-1.60602">
        <ele>86</ele>
        <time>2022-01-27T15:18:27Z</time>
      </trkpt>
      <trkpt lat="47.28015" lon="-1.60604">
        <ele>86</ele>
        <time>2022-01-27T15:18:28Z</time>
      </trkpt>
      <trkpt lat="47.28016" lon="-1.60606">
        <ele>86</ele>
        <time>2022-01-27T15:18:29Z</time>
      </trkpt>
      <trkpt lat="47.28016" lon="-1.60607">
        <ele>86</ele>
        <time>2022-01-27T15:18:30Z</time>
      </trkpt>
      <trkpt lat="47.28017" lon="-1.60609">
        <ele>85</ele>
        <time>2022-01-27T15:18:31Z</time>
      </trkpt>
      <trkpt lat="47.28018" lon="-1.60611">
        <ele>86</ele>
        <time>2022-01-27T15:18:32Z</time>
      </trkpt>
      <trkpt lat="47.28019" lon="-1.60612">
        <ele>86</ele>
        <time>2022-01-27T15:18:33Z</time>
      </trkpt>
      <trkpt lat="47.28019" lon="-1.60614">
        <ele>86</ele>
        <time>2022-01-27T15:18:34Z</time>
      </trkpt>
      <trkpt lat="47.2802" lon="-1.60616">
        <ele>86</ele>
        <time>2022-01-27T15:18:35Z</time>
      </trkpt>
      <trkpt lat="47.28021" lon="-1.60617">
        <ele>86</ele>
        <time>2022-01-27T15:18:36Z</time>
      </trkpt>
      <trkpt lat="47.28022" lon="-1.60619">
        <ele>86</ele>
        <time>2022-01-27T15:18:37Z</time>
      </trkpt>
      <trkpt lat="47.28022" lon="-1.60621">
        <ele>86</ele>
        <time>2022-01-27T15:18:38Z</time>
      </trkpt>
      <trkpt lat="47.28023" lon="-1.60622">
        <ele>86</ele>
        <time>2022-01-27T15:18:39Z</time>
      </trkpt>
      <trkpt lat="47.28024" lon="-1.60624">
        <ele>86</ele>
        <time>2022-01-27T15:18:40Z</time>
      </trkpt>
      <trkpt lat="47.28025" lon="-1.60625">
        <ele>86</ele>
        <time>2022-01-27T15:18:41Z</time>
      </trkpt>
      <trkpt lat="47.28025" lon="-1.60627">
        <ele>86</ele>
        <time>2022-01-27T15:18:42Z</time>
      </trkpt>
      <trkpt lat="47.28027" lon="-1.60629">
        <ele>87</ele>
        <time>2022-01-27T15:18:43Z</time>
      </trkpt>
      <trkpt lat="47.28027" lon="-1.6063">
        <ele>87</ele>
        <time>2022-01-27T15:18:44Z</time>
      </trkpt>
      <trkpt lat="47.28028" lon="-1.60632">
        <ele>87</ele>
        <time>2022-01-27T15:18:45Z</time>
      </trkpt>
      <trkpt lat="47.28029" lon="-1.60634">
        <ele>87</ele>
        <time>2022-01-27T15:18:46Z</time>
      </trkpt>
      <trkpt lat="47.2803" lon="-1.60636">
        <ele>86</ele>
        <time>2022-01-27T15:18:47Z</time>
      </trkpt>
      <trkpt lat="47.28031" lon="-1.60638">
        <ele>86</ele>
        <time>2022-01-27T15:18:48Z</time>
      </trkpt>
      <trkpt lat="47.28032" lon="-1.60639">
        <ele>87</ele>
        <time>2022-01-27T15:18:49Z</time>
      </trkpt>
      <trkpt lat="47.28032" lon="-1.60641">
        <ele>87</ele>
        <time>2022-01-27T15:18:50Z</time>
      </trkpt>
      <trkpt lat="47.28033" lon="-1.60643">
        <ele>86</ele>
        <time>2022-01-27T15:18:51Z</time>
      </trkpt>
      <trkpt lat="47.28034" lon="-1.60644">
        <ele>86</ele>
        <time>2022-01-27T15:18:52Z</time>
      </trkpt>
      <trkpt lat="47.28035" lon="-1.60646">
        <ele>86</ele>
        <time>2022-01-27T15:18:53Z</time>
      </trkpt>
      <trkpt lat="47.28035" lon="-1.60647">
        <ele>86</ele>
        <time>2022-01-27T15:18:54Z</time>
      </trkpt>
      <trkpt lat="47.28036" lon="-1.60649">
        <ele>86</ele>
        <time>2022-01-27T15:18:55Z</time>
      </trkpt>
      <trkpt lat="47.28037" lon="-1.60651">
        <ele>86</ele>
        <time>2022-01-27T15:18:56Z</time>
      </trkpt>
      <trkpt lat="47.28038" lon="-1.60653">
        <ele>87</ele>
        <time>2022-01-27T15:18:57Z</time>
      </trkpt>
      <trkpt lat="47.28038" lon="-1.60654">
        <ele>87</ele>
        <time>2022-01-27T15:18:58Z</time>
      </trkpt>
      <trkpt lat="47.2804" lon="-1.60656">
        <ele>87</ele>
        <time>2022-01-27T15:18:59Z</time>
      </trkpt>
      <trkpt lat="47.2804" lon="-1.60658">
        <ele>87</ele>
        <time>2022-01-27T15:19:00Z</time>
      </trkpt>
      <trkpt lat="47.2804" lon="-1.60659">
        <ele>87</ele>
        <time>2022-01-27T15:19:01Z</time>
      </trkpt>
      <trkpt lat="47.28042" lon="-1.60661">
        <ele>87</ele>
        <time>2022-01-27T15:19:02Z</time>
      </trkpt>
      <trkpt lat="47.28042" lon="-1.60663">
        <ele>86</ele>
        <time>2022-01-27T15:19:03Z</time>
      </trkpt>
      <trkpt lat="47.28043" lon="-1.60664">
        <ele>86</ele>
        <time>2022-01-27T15:19:04Z</time>
      </trkpt>
      <trkpt lat="47.28044" lon="-1.60666">
        <ele>87</ele>
        <time>2022-01-27T15:19:05Z</time>
      </trkpt>
      <trkpt lat="47.28045" lon="-1.60667">
        <ele>87</ele>
        <time>2022-01-27T15:19:06Z</time>
      </trkpt>
      <trkpt lat="47.28045" lon="-1.60668">
        <ele>87</ele>
        <time>2022-01-27T15:19:07Z</time>
      </trkpt>
      <trkpt lat="47.28046" lon="-1.6067">
        <ele>88</ele>
        <time>2022-01-27T15:19:08Z</time>
      </trkpt>
      <trkpt lat="47.28046" lon="-1.60671">
        <ele>88</ele>
        <time>2022-01-27T15:19:09Z</time>
      </trkpt>
      <trkpt lat="47.28047" lon="-1.60673">
        <ele>88</ele>
        <time>2022-01-27T15:19:10Z</time>
      </trkpt>
      <trkpt lat="47.28048" lon="-1.60675">
        <ele>88</ele>
        <time>2022-01-27T15:19:11Z</time>
      </trkpt>
      <trkpt lat="47.28049" lon="-1.60676">
        <ele>88</ele>
        <time>2022-01-27T15:19:12Z</time>
      </trkpt>
      <trkpt lat="47.2805" lon="-1.60678">
        <ele>88</ele>
        <time>2022-01-27T15:19:13Z</time>
      </trkpt>
      <trkpt lat="47.2805" lon="-1.6068">
        <ele>87</ele>
        <time>2022-01-27T15:19:14Z</time>
      </trkpt>
      <trkpt lat="47.28051" lon="-1.60682">
        <ele>87</ele>
        <time>2022-01-27T15:19:15Z</time>
      </trkpt>
      <trkpt lat="47.28052" lon="-1.60683">
        <ele>87</ele>
        <time>2022-01-27T15:19:16Z</time>
      </trkpt>
      <trkpt lat="47.28053" lon="-1.60685">
        <ele>87</ele>
        <time>2022-01-27T15:19:17Z</time>
      </trkpt>
      <trkpt lat="47.28054" lon="-1.60688">
        <ele>87</ele>
        <time>2022-01-27T15:19:18Z</time>
      </trkpt>
      <trkpt lat="47.28054" lon="-1.60689">
        <ele>87</ele>
        <time>2022-01-27T15:19:19Z</time>
      </trkpt>
      <trkpt lat="47.28055" lon="-1.60691">
        <ele>87</ele>
        <time>2022-01-27T15:19:20Z</time>
      </trkpt>
      <trkpt lat="47.28056" lon="-1.60693">
        <ele>87</ele>
        <time>2022-01-27T15:19:21Z</time>
      </trkpt>
      <trkpt lat="47.28057" lon="-1.60694">
        <ele>87</ele>
        <time>2022-01-27T15:19:22Z</time>
      </trkpt>
      <trkpt lat="47.28057" lon="-1.60696">
        <ele>87</ele>
        <time>2022-01-27T15:19:23Z</time>
      </trkpt>
      <trkpt lat="47.28058" lon="-1.60698">
        <ele>88</ele>
        <time>2022-01-27T15:19:24Z</time>
      </trkpt>
      <trkpt lat="47.28059" lon="-1.60699">
        <ele>88</ele>
        <time>2022-01-27T15:19:25Z</time>
      </trkpt>
      <trkpt lat="47.2806" lon="-1.60701">
        <ele>87</ele>
        <time>2022-01-27T15:19:26Z</time>
      </trkpt>
      <trkpt lat="47.28061" lon="-1.60703">
        <ele>87</ele>
        <time>2022-01-27T15:19:27Z</time>
      </trkpt>
      <trkpt lat="47.28061" lon="-1.60705">
        <ele>87</ele>
        <time>2022-01-27T15:19:28Z</time>
      </trkpt>
      <trkpt lat="47.28061" lon="-1.60706">
        <ele>87</ele>
        <time>2022-01-27T15:19:29Z</time>
      </trkpt>
      <trkpt lat="47.28062" lon="-1.60708">
        <ele>87</ele>
        <time>2022-01-27T15:19:30Z</time>
      </trkpt>
      <trkpt lat="47.28062" lon="-1.6071">
        <ele>87</ele>
        <time>2022-01-27T15:19:31Z</time>
      </trkpt>
      <trkpt lat="47.28063" lon="-1.60711">
        <ele>87</ele>
        <time>2022-01-27T15:19:32Z</time>
      </trkpt>
      <trkpt lat="47.28063" lon="-1.60713">
        <ele>86</ele>
        <time>2022-01-27T15:19:33Z</time>
      </trkpt>
      <trkpt lat="47.28064" lon="-1.60714">
        <ele>87</ele>
        <time>2022-01-27T15:19:34Z</time>
      </trkpt>
      <trkpt lat="47.28065" lon="-1.60716">
        <ele>86</ele>
        <time>2022-01-27T15:19:35Z</time>
      </trkpt>
      <trkpt lat="47.28066" lon="-1.60717">
        <ele>86</ele>
        <time>2022-01-27T15:19:36Z</time>
      </trkpt>
      <trkpt lat="47.28066" lon="-1.60719">
        <ele>86</ele>
        <time>2022-01-27T15:19:37Z</time>
      </trkpt>
      <trkpt lat="47.28067" lon="-1.6072">
        <ele>86</ele>
        <time>2022-01-27T15:19:38Z</time>
      </trkpt>
      <trkpt lat="47.28068" lon="-1.60722">
        <ele>86</ele>
        <time>2022-01-27T15:19:39Z</time>
      </trkpt>
      <trkpt lat="47.28068" lon="-1.60724">
        <ele>86</ele>
        <time>2022-01-27T15:19:40Z</time>
      </trkpt>
      <trkpt lat="47.28069" lon="-1.60725">
        <ele>86</ele>
        <time>2022-01-27T15:19:41Z</time>
      </trkpt>
      <trkpt lat="47.28069" lon="-1.60727">
        <ele>86</ele>
        <time>2022-01-27T15:19:42Z</time>
      </trkpt>
      <trkpt lat="47.28069" lon="-1.60728">
        <ele>86</ele>
        <time>2022-01-27T15:19:43Z</time>
      </trkpt>
      <trkpt lat="47.2807" lon="-1.6073">
        <ele>86</ele>
        <time>2022-01-27T15:19:44Z</time>
      </trkpt>
      <trkpt lat="47.28071" lon="-1.60732">
        <ele>86</ele>
        <time>2022-01-27T15:19:45Z</time>
      </trkpt>
      <trkpt lat="47.28072" lon="-1.60734">
        <ele>86</ele>
        <time>2022-01-27T15:19:46Z</time>
      </trkpt>
      <trkpt lat="47.28072" lon="-1.60736">
        <ele>86</ele>
        <time>2022-01-27T15:19:47Z</time>
      </trkpt>
      <trkpt lat="47.28073" lon="-1.60737">
        <ele>86</ele>
        <time>2022-01-27T15:19:48Z</time>
      </trkpt>
      <trkpt lat="47.28074" lon="-1.60739">
        <ele>86</ele>
        <time>2022-01-27T15:19:49Z</time>
      </trkpt>
      <trkpt lat="47.28074" lon="-1.60741">
        <ele>86</ele>
        <time>2022-01-27T15:19:50Z</time>
      </trkpt>
      <trkpt lat="47.28075" lon="-1.60743">
        <ele>86</ele>
        <time>2022-01-27T15:19:51Z</time>
      </trkpt>
      <trkpt lat="47.28076" lon="-1.60744">
        <ele>87</ele>
        <time>2022-01-27T15:19:52Z</time>
      </trkpt>
      <trkpt lat="47.28077" lon="-1.60746">
        <ele>87</ele>
        <time>2022-01-27T15:19:53Z</time>
      </trkpt>
      <trkpt lat="47.28077" lon="-1.60748">
        <ele>87</ele>
        <time>2022-01-27T15:19:54Z</time>
      </trkpt>
      <trkpt lat="47.28077" lon="-1.60749">
        <ele>87</ele>
        <time>2022-01-27T15:19:55Z</time>
      </trkpt>
      <trkpt lat="47.28078" lon="-1.60751">
        <ele>87</ele>
        <time>2022-01-27T15:19:56Z</time>
      </trkpt>
      <trkpt lat="47.28079" lon="-1.60752">
        <ele>87</ele>
        <time>2022-01-27T15:19:57Z</time>
      </trkpt>
      <trkpt lat="47.2808" lon="-1.60754">
        <ele>86</ele>
        <time>2022-01-27T15:19:58Z</time>
      </trkpt>
      <trkpt lat="47.28081" lon="-1.60756">
        <ele>87</ele>
        <time>2022-01-27T15:19:59Z</time>
      </trkpt>
      <trkpt lat="47.28082" lon="-1.60758">
        <ele>87</ele>
        <time>2022-01-27T15:20:00Z</time>
      </trkpt>
      <trkpt lat="47.28083" lon="-1.6076">
        <ele>87</ele>
        <time>2022-01-27T15:20:01Z</time>
      </trkpt>
      <trkpt lat="47.28084" lon="-1.60761">
        <ele>87</ele>
        <time>2022-01-27T15:20:02Z</time>
      </trkpt>
      <trkpt lat="47.28085" lon="-1.60763">
        <ele>88</ele>
        <time>2022-01-27T15:20:03Z</time>
      </trkpt>
      <trkpt lat="47.28086" lon="-1.60765">
        <ele>88</ele>
        <time>2022-01-27T15:20:04Z</time>
      </trkpt>
      <trkpt lat="47.28086" lon="-1.60766">
        <ele>88</ele>
        <time>2022-01-27T15:20:05Z</time>
      </trkpt>
      <trkpt lat="47.28087" lon="-1.60769">
        <ele>88</ele>
        <time>2022-01-27T15:20:06Z</time>
      </trkpt>
      <trkpt lat="47.28087" lon="-1.6077">
        <ele>88</ele>
        <time>2022-01-27T15:20:07Z</time>
      </trkpt>
      <trkpt lat="47.28088" lon="-1.60772">
        <ele>88</ele>
        <time>2022-01-27T15:20:08Z</time>
      </trkpt>
      <trkpt lat="47.28089" lon="-1.60774">
        <ele>88</ele>
        <time>2022-01-27T15:20:09Z</time>
      </trkpt>
      <trkpt lat="47.2809" lon="-1.60776">
        <ele>88</ele>
        <time>2022-01-27T15:20:10Z</time>
      </trkpt>
      <trkpt lat="47.28091" lon="-1.60778">
        <ele>88</ele>
        <time>2022-01-27T15:20:11Z</time>
      </trkpt>
      <trkpt lat="47.28091" lon="-1.6078">
        <ele>88</ele>
        <time>2022-01-27T15:20:12Z</time>
      </trkpt>
      <trkpt lat="47.28092" lon="-1.60781">
        <ele>88</ele>
        <time>2022-01-27T15:20:13Z</time>
      </trkpt>
      <trkpt lat="47.28093" lon="-1.60783">
        <ele>88</ele>
        <time>2022-01-27T15:20:14Z</time>
      </trkpt>
      <trkpt lat="47.28093" lon="-1.60785">
        <ele>88</ele>
        <time>2022-01-27T15:20:15Z</time>
      </trkpt>
      <trkpt lat="47.28094" lon="-1.60787">
        <ele>88</ele>
        <time>2022-01-27T15:20:16Z</time>
      </trkpt>
      <trkpt lat="47.28095" lon="-1.60788">
        <ele>88</ele>
        <time>2022-01-27T15:20:17Z</time>
      </trkpt>
      <trkpt lat="47.28095" lon="-1.6079">
        <ele>88</ele>
        <time>2022-01-27T15:20:18Z</time>
      </trkpt>
      <trkpt lat="47.28096" lon="-1.60792">
        <ele>88</ele>
        <time>2022-01-27T15:20:19Z</time>
      </trkpt>
      <trkpt lat="47.28097" lon="-1.60793">
        <ele>88</ele>
        <time>2022-01-27T15:20:20Z</time>
      </trkpt>
      <trkpt lat="47.28097" lon="-1.60794">
        <ele>88</ele>
        <time>2022-01-27T15:20:21Z</time>
      </trkpt>
      <trkpt lat="47.28098" lon="-1.60796">
        <ele>88</ele>
        <time>2022-01-27T15:20:22Z</time>
      </trkpt>
      <trkpt lat="47.28099" lon="-1.60798">
        <ele>88</ele>
        <time>2022-01-27T15:20:23Z</time>
      </trkpt>
      <trkpt lat="47.28099" lon="-1.60799">
        <ele>88</ele>
        <time>2022-01-27T15:20:24Z</time>
      </trkpt>
      <trkpt lat="47.28101" lon="-1.60801">
        <ele>88</ele>
        <time>2022-01-27T15:20:25Z</time>
      </trkpt>
      <trkpt lat="47.28101" lon="-1.60802">
        <ele>88</ele>
        <time>2022-01-27T15:20:26Z</time>
      </trkpt>
      <trkpt lat="47.28101" lon="-1.60804">
        <ele>88</ele>
        <time>2022-01-27T15:20:27Z</time>
      </trkpt>
      <trkpt lat="47.28102" lon="-1.60806">
        <ele>88</ele>
        <time>2022-01-27T15:20:28Z</time>
      </trkpt>
      <trkpt lat="47.28103" lon="-1.60808">
        <ele>88</ele>
        <time>2022-01-27T15:20:29Z</time>
      </trkpt>
      <trkpt lat="47.28103" lon="-1.60809">
        <ele>88</ele>
        <time>2022-01-27T15:20:30Z</time>
      </trkpt>
      <trkpt lat="47.28104" lon="-1.6081">
        <ele>88</ele>
        <time>2022-01-27T15:20:31Z</time>
      </trkpt>
      <trkpt lat="47.28104" lon="-1.60812">
        <ele>88</ele>
        <time>2022-01-27T15:20:32Z</time>
      </trkpt>
      <trkpt lat="47.28105" lon="-1.60814">
        <ele>88</ele>
        <time>2022-01-27T15:20:33Z</time>
      </trkpt>
      <trkpt lat="47.28105" lon="-1.60816">
        <ele>88</ele>
        <time>2022-01-27T15:20:34Z</time>
      </trkpt>
      <trkpt lat="47.28105" lon="-1.60817">
        <ele>88</ele>
        <time>2022-01-27T15:20:35Z</time>
      </trkpt>
      <trkpt lat="47.28106" lon="-1.60819">
        <ele>88</ele>
        <time>2022-01-27T15:20:36Z</time>
      </trkpt>
      <trkpt lat="47.28106" lon="-1.6082">
        <ele>88</ele>
        <time>2022-01-27T15:20:37Z</time>
      </trkpt>
      <trkpt lat="47.28107" lon="-1.60822">
        <ele>89</ele>
        <time>2022-01-27T15:20:38Z</time>
      </trkpt>
      <trkpt lat="47.28108" lon="-1.60823">
        <ele>89</ele>
        <time>2022-01-27T15:20:39Z</time>
      </trkpt>
      <trkpt lat="47.28109" lon="-1.60825">
        <ele>89</ele>
        <time>2022-01-27T15:20:40Z</time>
      </trkpt>
      <trkpt lat="47.28109" lon="-1.60827">
        <ele>89</ele>
        <time>2022-01-27T15:20:41Z</time>
      </trkpt>
      <trkpt lat="47.2811" lon="-1.60828">
        <ele>89</ele>
        <time>2022-01-27T15:20:42Z</time>
      </trkpt>
      <trkpt lat="47.2811" lon="-1.60829">
        <ele>89</ele>
        <time>2022-01-27T15:20:43Z</time>
      </trkpt>
      <trkpt lat="47.28111" lon="-1.60831">
        <ele>89</ele>
        <time>2022-01-27T15:20:44Z</time>
      </trkpt>
      <trkpt lat="47.28112" lon="-1.60832">
        <ele>89</ele>
        <time>2022-01-27T15:20:45Z</time>
      </trkpt>
      <trkpt lat="47.28113" lon="-1.60834">
        <ele>89</ele>
        <time>2022-01-27T15:20:46Z</time>
      </trkpt>
      <trkpt lat="47.28114" lon="-1.60835">
        <ele>89</ele>
        <time>2022-01-27T15:20:47Z</time>
      </trkpt>
      <trkpt lat="47.28115" lon="-1.60837">
        <ele>88</ele>
        <time>2022-01-27T15:20:48Z</time>
      </trkpt>
      <trkpt lat="47.28116" lon="-1.60838">
        <ele>88</ele>
        <time>2022-01-27T15:20:49Z</time>
      </trkpt>
      <trkpt lat="47.28117" lon="-1.60839">
        <ele>88</ele>
        <time>2022-01-27T15:20:50Z</time>
      </trkpt>
      <trkpt lat="47.28119" lon="-1.6084">
        <ele>88</ele>
        <time>2022-01-27T15:20:51Z</time>
      </trkpt>
      <trkpt lat="47.2812" lon="-1.60841">
        <ele>88</ele>
        <time>2022-01-27T15:20:52Z</time>
      </trkpt>
      <trkpt lat="47.28121" lon="-1.60842">
        <ele>88</ele>
        <time>2022-01-27T15:20:53Z</time>
      </trkpt>
      <trkpt lat="47.28123" lon="-1.60843">
        <ele>88</ele>
        <time>2022-01-27T15:20:54Z</time>
      </trkpt>
      <trkpt lat="47.28124" lon="-1.60843">
        <ele>89</ele>
        <time>2022-01-27T15:20:55Z</time>
      </trkpt>
      <trkpt lat="47.28126" lon="-1.60843">
        <ele>89</ele>
        <time>2022-01-27T15:20:56Z</time>
      </trkpt>
      <trkpt lat="47.28127" lon="-1.60843">
        <ele>89</ele>
        <time>2022-01-27T15:20:57Z</time>
      </trkpt>
      <trkpt lat="47.28129" lon="-1.60844">
        <ele>88</ele>
        <time>2022-01-27T15:20:58Z</time>
      </trkpt>
      <trkpt lat="47.2813" lon="-1.60844">
        <ele>88</ele>
        <time>2022-01-27T15:20:59Z</time>
      </trkpt>
      <trkpt lat="47.28132" lon="-1.60843">
        <ele>88</ele>
        <time>2022-01-27T15:21:00Z</time>
      </trkpt>
      <trkpt lat="47.28134" lon="-1.60843">
        <ele>88</ele>
        <time>2022-01-27T15:21:01Z</time>
      </trkpt>
      <trkpt lat="47.28135" lon="-1.60843">
        <ele>89</ele>
        <time>2022-01-27T15:21:02Z</time>
      </trkpt>
      <trkpt lat="47.28137" lon="-1.60844">
        <ele>89</ele>
        <time>2022-01-27T15:21:03Z</time>
      </trkpt>
      <trkpt lat="47.28138" lon="-1.60844">
        <ele>89</ele>
        <time>2022-01-27T15:21:04Z</time>
      </trkpt>
      <trkpt lat="47.2814" lon="-1.60844">
        <ele>89</ele>
        <time>2022-01-27T15:21:05Z</time>
      </trkpt>
      <trkpt lat="47.28141" lon="-1.60843">
        <ele>89</ele>
        <time>2022-01-27T15:21:06Z</time>
      </trkpt>
      <trkpt lat="47.28142" lon="-1.60843">
        <ele>89</ele>
        <time>2022-01-27T15:21:07Z</time>
      </trkpt>
      <trkpt lat="47.28143" lon="-1.60843">
        <ele>89</ele>
        <time>2022-01-27T15:21:08Z</time>
      </trkpt>
      <trkpt lat="47.28144" lon="-1.60843">
        <ele>89</ele>
        <time>2022-01-27T15:21:09Z</time>
      </trkpt>
      <trkpt lat="47.28145" lon="-1.60843">
        <ele>90</ele>
        <time>2022-01-27T15:21:10Z</time>
      </trkpt>
      <trkpt lat="47.28147" lon="-1.60843">
        <ele>90</ele>
        <time>2022-01-27T15:21:11Z</time>
      </trkpt>
      <trkpt lat="47.28148" lon="-1.60843">
        <ele>90</ele>
        <time>2022-01-27T15:21:12Z</time>
      </trkpt>
      <trkpt lat="47.28149" lon="-1.60842">
        <ele>90</ele>
        <time>2022-01-27T15:21:13Z</time>
      </trkpt>
      <trkpt lat="47.28151" lon="-1.60842">
        <ele>90</ele>
        <time>2022-01-27T15:21:14Z</time>
      </trkpt>
      <trkpt lat="47.28152" lon="-1.60841">
        <ele>90</ele>
        <time>2022-01-27T15:21:15Z</time>
      </trkpt>
      <trkpt lat="47.28154" lon="-1.60841">
        <ele>90</ele>
        <time>2022-01-27T15:21:16Z</time>
      </trkpt>
      <trkpt lat="47.28155" lon="-1.60841">
        <ele>90</ele>
        <time>2022-01-27T15:21:17Z</time>
      </trkpt>
      <trkpt lat="47.28156" lon="-1.60841">
        <ele>90</ele>
        <time>2022-01-27T15:21:18Z</time>
      </trkpt>
      <trkpt lat="47.28158" lon="-1.6084">
        <ele>90</ele>
        <time>2022-01-27T15:21:19Z</time>
      </trkpt>
      <trkpt lat="47.28159" lon="-1.6084">
        <ele>90</ele>
        <time>2022-01-27T15:21:20Z</time>
      </trkpt>
      <trkpt lat="47.28161" lon="-1.60839">
        <ele>90</ele>
        <time>2022-01-27T15:21:21Z</time>
      </trkpt>
      <trkpt lat="47.28163" lon="-1.60839">
        <ele>91</ele>
        <time>2022-01-27T15:21:22Z</time>
      </trkpt>
      <trkpt lat="47.28164" lon="-1.60839">
        <ele>90</ele>
        <time>2022-01-27T15:21:23Z</time>
      </trkpt>
      <trkpt lat="47.28166" lon="-1.60838">
        <ele>90</ele>
        <time>2022-01-27T15:21:24Z</time>
      </trkpt>
      <trkpt lat="47.28167" lon="-1.60838">
        <ele>90</ele>
        <time>2022-01-27T15:21:25Z</time>
      </trkpt>
      <trkpt lat="47.28169" lon="-1.60838">
        <ele>90</ele>
        <time>2022-01-27T15:21:26Z</time>
      </trkpt>
      <trkpt lat="47.2817" lon="-1.60837">
        <ele>90</ele>
        <time>2022-01-27T15:21:27Z</time>
      </trkpt>
      <trkpt lat="47.28172" lon="-1.60837">
        <ele>91</ele>
        <time>2022-01-27T15:21:28Z</time>
      </trkpt>
      <trkpt lat="47.28173" lon="-1.60837">
        <ele>91</ele>
        <time>2022-01-27T15:21:29Z</time>
      </trkpt>
      <trkpt lat="47.28175" lon="-1.60837">
        <ele>91</ele>
        <time>2022-01-27T15:21:30Z</time>
      </trkpt>
      <trkpt lat="47.28177" lon="-1.60837">
        <ele>90</ele>
        <time>2022-01-27T15:21:31Z</time>
      </trkpt>
      <trkpt lat="47.28178" lon="-1.60837">
        <ele>90</ele>
        <time>2022-01-27T15:21:32Z</time>
      </trkpt>
      <trkpt lat="47.2818" lon="-1.60838">
        <ele>90</ele>
        <time>2022-01-27T15:21:33Z</time>
      </trkpt>
      <trkpt lat="47.28181" lon="-1.60839">
        <ele>90</ele>
        <time>2022-01-27T15:21:34Z</time>
      </trkpt>
      <trkpt lat="47.28182" lon="-1.6084">
        <ele>90</ele>
        <time>2022-01-27T15:21:35Z</time>
      </trkpt>
      <trkpt lat="47.28183" lon="-1.60841">
        <ele>90</ele>
        <time>2022-01-27T15:21:36Z</time>
      </trkpt>
      <trkpt lat="47.28185" lon="-1.60841">
        <ele>91</ele>
        <time>2022-01-27T15:21:37Z</time>
      </trkpt>
      <trkpt lat="47.28186" lon="-1.60842">
        <ele>91</ele>
        <time>2022-01-27T15:21:38Z</time>
      </trkpt>
      <trkpt lat="47.28187" lon="-1.60844">
        <ele>91</ele>
        <time>2022-01-27T15:21:39Z</time>
      </trkpt>
      <trkpt lat="47.28188" lon="-1.60845">
        <ele>91</ele>
        <time>2022-01-27T15:21:40Z</time>
      </trkpt>
      <trkpt lat="47.28188" lon="-1.60846">
        <ele>91</ele>
        <time>2022-01-27T15:21:41Z</time>
      </trkpt>
      <trkpt lat="47.28189" lon="-1.60847">
        <ele>91</ele>
        <time>2022-01-27T15:21:42Z</time>
      </trkpt>
      <trkpt lat="47.2819" lon="-1.60848">
        <ele>91</ele>
        <time>2022-01-27T15:21:43Z</time>
      </trkpt>
      <trkpt lat="47.2819" lon="-1.60848">
        <ele>91</ele>
        <time>2022-01-27T15:21:44Z</time>
      </trkpt>
      <trkpt lat="47.28191" lon="-1.6085">
        <ele>91</ele>
        <time>2022-01-27T15:21:45Z</time>
      </trkpt>
      <trkpt lat="47.28192" lon="-1.60851">
        <ele>91</ele>
        <time>2022-01-27T15:21:46Z</time>
      </trkpt>
      <trkpt lat="47.28193" lon="-1.60852">
        <ele>91</ele>
        <time>2022-01-27T15:21:47Z</time>
      </trkpt>
      <trkpt lat="47.28194" lon="-1.60854">
        <ele>91</ele>
        <time>2022-01-27T15:21:48Z</time>
      </trkpt>
      <trkpt lat="47.28195" lon="-1.60855">
        <ele>91</ele>
        <time>2022-01-27T15:21:49Z</time>
      </trkpt>
      <trkpt lat="47.28196" lon="-1.60857">
        <ele>91</ele>
        <time>2022-01-27T15:21:50Z</time>
      </trkpt>
      <trkpt lat="47.28197" lon="-1.60858">
        <ele>91</ele>
        <time>2022-01-27T15:21:51Z</time>
      </trkpt>
      <trkpt lat="47.28198" lon="-1.6086">
        <ele>91</ele>
        <time>2022-01-27T15:21:52Z</time>
      </trkpt>
      <trkpt lat="47.28199" lon="-1.60862">
        <ele>91</ele>
        <time>2022-01-27T15:21:53Z</time>
      </trkpt>
      <trkpt lat="47.282" lon="-1.60863">
        <ele>92</ele>
        <time>2022-01-27T15:21:54Z</time>
      </trkpt>
      <trkpt lat="47.28201" lon="-1.60864">
        <ele>92</ele>
        <time>2022-01-27T15:21:55Z</time>
      </trkpt>
      <trkpt lat="47.28202" lon="-1.60865">
        <ele>91</ele>
        <time>2022-01-27T15:21:56Z</time>
      </trkpt>
      <trkpt lat="47.28203" lon="-1.60867">
        <ele>92</ele>
        <time>2022-01-27T15:21:57Z</time>
      </trkpt>
      <trkpt lat="47.28204" lon="-1.60868">
        <ele>92</ele>
        <time>2022-01-27T15:21:58Z</time>
      </trkpt>
      <trkpt lat="47.28205" lon="-1.60869">
        <ele>92</ele>
        <time>2022-01-27T15:21:59Z</time>
      </trkpt>
      <trkpt lat="47.28206" lon="-1.6087">
        <ele>92</ele>
        <time>2022-01-27T15:22:00Z</time>
      </trkpt>
      <trkpt lat="47.28207" lon="-1.60872">
        <ele>93</ele>
        <time>2022-01-27T15:22:01Z</time>
      </trkpt>
      <trkpt lat="47.28208" lon="-1.60873">
        <ele>93</ele>
        <time>2022-01-27T15:22:02Z</time>
      </trkpt>
      <trkpt lat="47.28209" lon="-1.60874">
        <ele>93</ele>
        <time>2022-01-27T15:22:03Z</time>
      </trkpt>
      <trkpt lat="47.2821" lon="-1.60876">
        <ele>93</ele>
        <time>2022-01-27T15:22:04Z</time>
      </trkpt>
      <trkpt lat="47.2821" lon="-1.60877">
        <ele>94</ele>
        <time>2022-01-27T15:22:05Z</time>
      </trkpt>
      <trkpt lat="47.28211" lon="-1.60878">
        <ele>94</ele>
        <time>2022-01-27T15:22:06Z</time>
      </trkpt>
      <trkpt lat="47.28212" lon="-1.6088">
        <ele>94</ele>
        <time>2022-01-27T15:22:07Z</time>
      </trkpt>
      <trkpt lat="47.28213" lon="-1.60882">
        <ele>94</ele>
        <time>2022-01-27T15:22:08Z</time>
      </trkpt>
      <trkpt lat="47.28214" lon="-1.60883">
        <ele>95</ele>
        <time>2022-01-27T15:22:09Z</time>
      </trkpt>
      <trkpt lat="47.28215" lon="-1.60885">
        <ele>95</ele>
        <time>2022-01-27T15:22:10Z</time>
      </trkpt>
      <trkpt lat="47.28216" lon="-1.60886">
        <ele>95</ele>
        <time>2022-01-27T15:22:11Z</time>
      </trkpt>
      <trkpt lat="47.28217" lon="-1.60887">
        <ele>95</ele>
        <time>2022-01-27T15:22:12Z</time>
      </trkpt>
      <trkpt lat="47.28217" lon="-1.60889">
        <ele>95</ele>
        <time>2022-01-27T15:22:13Z</time>
      </trkpt>
      <trkpt lat="47.28218" lon="-1.6089">
        <ele>95</ele>
        <time>2022-01-27T15:22:14Z</time>
      </trkpt>
      <trkpt lat="47.28219" lon="-1.60892">
        <ele>95</ele>
        <time>2022-01-27T15:22:15Z</time>
      </trkpt>
      <trkpt lat="47.2822" lon="-1.60894">
        <ele>95</ele>
        <time>2022-01-27T15:22:16Z</time>
      </trkpt>
      <trkpt lat="47.28222" lon="-1.60895">
        <ele>95</ele>
        <time>2022-01-27T15:22:17Z</time>
      </trkpt>
      <trkpt lat="47.28223" lon="-1.60897">
        <ele>95</ele>
        <time>2022-01-27T15:22:18Z</time>
      </trkpt>
      <trkpt lat="47.28223" lon="-1.60899">
        <ele>95</ele>
        <time>2022-01-27T15:22:19Z</time>
      </trkpt>
      <trkpt lat="47.28224" lon="-1.609">
        <ele>95</ele>
        <time>2022-01-27T15:22:20Z</time>
      </trkpt>
      <trkpt lat="47.28225" lon="-1.60902">
        <ele>95</ele>
        <time>2022-01-27T15:22:21Z</time>
      </trkpt>
      <trkpt lat="47.28226" lon="-1.60904">
        <ele>95</ele>
        <time>2022-01-27T15:22:22Z</time>
      </trkpt>
      <trkpt lat="47.28227" lon="-1.60905">
        <ele>95</ele>
        <time>2022-01-27T15:22:23Z</time>
      </trkpt>
      <trkpt lat="47.28228" lon="-1.60907">
        <ele>95</ele>
        <time>2022-01-27T15:22:24Z</time>
      </trkpt>
      <trkpt lat="47.28228" lon="-1.60908">
        <ele>95</ele>
        <time>2022-01-27T15:22:25Z</time>
      </trkpt>
      <trkpt lat="47.28229" lon="-1.60909">
        <ele>95</ele>
        <time>2022-01-27T15:22:26Z</time>
      </trkpt>
      <trkpt lat="47.2823" lon="-1.6091">
        <ele>95</ele>
        <time>2022-01-27T15:22:27Z</time>
      </trkpt>
      <trkpt lat="47.2823" lon="-1.60912">
        <ele>94</ele>
        <time>2022-01-27T15:22:28Z</time>
      </trkpt>
      <trkpt lat="47.28231" lon="-1.60913">
        <ele>94</ele>
        <time>2022-01-27T15:22:29Z</time>
      </trkpt>
      <trkpt lat="47.28232" lon="-1.60914">
        <ele>94</ele>
        <time>2022-01-27T15:22:30Z</time>
      </trkpt>
      <trkpt lat="47.28233" lon="-1.60915">
        <ele>94</ele>
        <time>2022-01-27T15:22:31Z</time>
      </trkpt>
      <trkpt lat="47.28234" lon="-1.60917">
        <ele>94</ele>
        <time>2022-01-27T15:22:32Z</time>
      </trkpt>
      <trkpt lat="47.28235" lon="-1.60918">
        <ele>94</ele>
        <time>2022-01-27T15:22:33Z</time>
      </trkpt>
      <trkpt lat="47.28235" lon="-1.6092">
        <ele>94</ele>
        <time>2022-01-27T15:22:34Z</time>
      </trkpt>
      <trkpt lat="47.28236" lon="-1.60922">
        <ele>94</ele>
        <time>2022-01-27T15:22:35Z</time>
      </trkpt>
      <trkpt lat="47.28236" lon="-1.60923">
        <ele>94</ele>
        <time>2022-01-27T15:22:36Z</time>
      </trkpt>
      <trkpt lat="47.28238" lon="-1.60925">
        <ele>94</ele>
        <time>2022-01-27T15:22:37Z</time>
      </trkpt>
      <trkpt lat="47.28239" lon="-1.60926">
        <ele>94</ele>
        <time>2022-01-27T15:22:38Z</time>
      </trkpt>
      <trkpt lat="47.28239" lon="-1.60928">
        <ele>94</ele>
        <time>2022-01-27T15:22:39Z</time>
      </trkpt>
      <trkpt lat="47.28241" lon="-1.60929">
        <ele>94</ele>
        <time>2022-01-27T15:22:40Z</time>
      </trkpt>
      <trkpt lat="47.28241" lon="-1.6093">
        <ele>94</ele>
        <time>2022-01-27T15:22:41Z</time>
      </trkpt>
      <trkpt lat="47.28243" lon="-1.60932">
        <ele>94</ele>
        <time>2022-01-27T15:22:42Z</time>
      </trkpt>
      <trkpt lat="47.28244" lon="-1.60933">
        <ele>94</ele>
        <time>2022-01-27T15:22:43Z</time>
      </trkpt>
      <trkpt lat="47.28244" lon="-1.60935">
        <ele>94</ele>
        <time>2022-01-27T15:22:44Z</time>
      </trkpt>
      <trkpt lat="47.28245" lon="-1.60936">
        <ele>94</ele>
        <time>2022-01-27T15:22:45Z</time>
      </trkpt>
      <trkpt lat="47.28246" lon="-1.60938">
        <ele>94</ele>
        <time>2022-01-27T15:22:46Z</time>
      </trkpt>
      <trkpt lat="47.28246" lon="-1.60939">
        <ele>94</ele>
        <time>2022-01-27T15:22:47Z</time>
      </trkpt>
      <trkpt lat="47.28247" lon="-1.6094">
        <ele>93</ele>
        <time>2022-01-27T15:22:48Z</time>
      </trkpt>
      <trkpt lat="47.28248" lon="-1.60942">
        <ele>93</ele>
        <time>2022-01-27T15:22:49Z</time>
      </trkpt>
      <trkpt lat="47.28249" lon="-1.60944">
        <ele>93</ele>
        <time>2022-01-27T15:22:50Z</time>
      </trkpt>
      <trkpt lat="47.2825" lon="-1.60945">
        <ele>94</ele>
        <time>2022-01-27T15:22:51Z</time>
      </trkpt>
      <trkpt lat="47.28251" lon="-1.60946">
        <ele>93</ele>
        <time>2022-01-27T15:22:52Z</time>
      </trkpt>
      <trkpt lat="47.28251" lon="-1.60947">
        <ele>94</ele>
        <time>2022-01-27T15:22:53Z</time>
      </trkpt>
      <trkpt lat="47.28252" lon="-1.60949">
        <ele>93</ele>
        <time>2022-01-27T15:22:54Z</time>
      </trkpt>
      <trkpt lat="47.28253" lon="-1.6095">
        <ele>94</ele>
        <time>2022-01-27T15:22:55Z</time>
      </trkpt>
      <trkpt lat="47.28254" lon="-1.60951">
        <ele>94</ele>
        <time>2022-01-27T15:22:56Z</time>
      </trkpt>
      <trkpt lat="47.28254" lon="-1.60953">
        <ele>93</ele>
        <time>2022-01-27T15:22:57Z</time>
      </trkpt>
      <trkpt lat="47.28255" lon="-1.60954">
        <ele>93</ele>
        <time>2022-01-27T15:22:58Z</time>
      </trkpt>
      <trkpt lat="47.28256" lon="-1.60956">
        <ele>93</ele>
        <time>2022-01-27T15:22:59Z</time>
      </trkpt>
      <trkpt lat="47.28257" lon="-1.60957">
        <ele>93</ele>
        <time>2022-01-27T15:23:00Z</time>
      </trkpt>
      <trkpt lat="47.28258" lon="-1.60959">
        <ele>93</ele>
        <time>2022-01-27T15:23:01Z</time>
      </trkpt>
      <trkpt lat="47.28259" lon="-1.6096">
        <ele>93</ele>
        <time>2022-01-27T15:23:02Z</time>
      </trkpt>
      <trkpt lat="47.2826" lon="-1.60962">
        <ele>93</ele>
        <time>2022-01-27T15:23:03Z</time>
      </trkpt>
      <trkpt lat="47.2826" lon="-1.60964">
        <ele>93</ele>
        <time>2022-01-27T15:23:04Z</time>
      </trkpt>
      <trkpt lat="47.28261" lon="-1.60965">
        <ele>93</ele>
        <time>2022-01-27T15:23:05Z</time>
      </trkpt>
      <trkpt lat="47.28262" lon="-1.60966">
        <ele>94</ele>
        <time>2022-01-27T15:23:06Z</time>
      </trkpt>
      <trkpt lat="47.28262" lon="-1.60967">
        <ele>94</ele>
        <time>2022-01-27T15:23:07Z</time>
      </trkpt>
      <trkpt lat="47.28263" lon="-1.60969">
        <ele>93</ele>
        <time>2022-01-27T15:23:08Z</time>
      </trkpt>
      <trkpt lat="47.28264" lon="-1.6097">
        <ele>93</ele>
        <time>2022-01-27T15:23:09Z</time>
      </trkpt>
      <trkpt lat="47.28265" lon="-1.60972">
        <ele>93</ele>
        <time>2022-01-27T15:23:10Z</time>
      </trkpt>
      <trkpt lat="47.28265" lon="-1.60974">
        <ele>93</ele>
        <time>2022-01-27T15:23:11Z</time>
      </trkpt>
      <trkpt lat="47.28267" lon="-1.60975">
        <ele>94</ele>
        <time>2022-01-27T15:23:12Z</time>
      </trkpt>
      <trkpt lat="47.28267" lon="-1.60977">
        <ele>95</ele>
        <time>2022-01-27T15:23:13Z</time>
      </trkpt>
      <trkpt lat="47.28268" lon="-1.60978">
        <ele>94</ele>
        <time>2022-01-27T15:23:14Z</time>
      </trkpt>
      <trkpt lat="47.28269" lon="-1.60979">
        <ele>95</ele>
        <time>2022-01-27T15:23:15Z</time>
      </trkpt>
      <trkpt lat="47.2827" lon="-1.60981">
        <ele>95</ele>
        <time>2022-01-27T15:23:16Z</time>
      </trkpt>
      <trkpt lat="47.28271" lon="-1.60982">
        <ele>95</ele>
        <time>2022-01-27T15:23:17Z</time>
      </trkpt>
      <trkpt lat="47.28271" lon="-1.60984">
        <ele>95</ele>
        <time>2022-01-27T15:23:18Z</time>
      </trkpt>
      <trkpt lat="47.28272" lon="-1.60985">
        <ele>95</ele>
        <time>2022-01-27T15:23:19Z</time>
      </trkpt>
      <trkpt lat="47.28272" lon="-1.60987">
        <ele>95</ele>
        <time>2022-01-27T15:23:20Z</time>
      </trkpt>
      <trkpt lat="47.28272" lon="-1.60989">
        <ele>95</ele>
        <time>2022-01-27T15:23:21Z</time>
      </trkpt>
      <trkpt lat="47.28272" lon="-1.6099">
        <ele>95</ele>
        <time>2022-01-27T15:23:22Z</time>
      </trkpt>
      <trkpt lat="47.28273" lon="-1.60992">
        <ele>95</ele>
        <time>2022-01-27T15:23:23Z</time>
      </trkpt>
      <trkpt lat="47.28273" lon="-1.60993">
        <ele>95</ele>
        <time>2022-01-27T15:23:24Z</time>
      </trkpt>
      <trkpt lat="47.28273" lon="-1.60995">
        <ele>95</ele>
        <time>2022-01-27T15:23:25Z</time>
      </trkpt>
      <trkpt lat="47.28274" lon="-1.60997">
        <ele>95</ele>
        <time>2022-01-27T15:23:26Z</time>
      </trkpt>
      <trkpt lat="47.28274" lon="-1.60998">
        <ele>95</ele>
        <time>2022-01-27T15:23:27Z</time>
      </trkpt>
      <trkpt lat="47.28274" lon="-1.61">
        <ele>95</ele>
        <time>2022-01-27T15:23:28Z</time>
      </trkpt>
      <trkpt lat="47.28274" lon="-1.61002">
        <ele>95</ele>
        <time>2022-01-27T15:23:29Z</time>
      </trkpt>
      <trkpt lat="47.28275" lon="-1.61004">
        <ele>95</ele>
        <time>2022-01-27T15:23:30Z</time>
      </trkpt>
      <trkpt lat="47.28275" lon="-1.61006">
        <ele>95</ele>
        <time>2022-01-27T15:23:31Z</time>
      </trkpt>
      <trkpt lat="47.28275" lon="-1.61007">
        <ele>95</ele>
        <time>2022-01-27T15:23:32Z</time>
      </trkpt>
      <trkpt lat="47.28276" lon="-1.61009">
        <ele>95</ele>
        <time>2022-01-27T15:23:33Z</time>
      </trkpt>
      <trkpt lat="47.28276" lon="-1.61012">
        <ele>94</ele>
        <time>2022-01-27T15:23:34Z</time>
      </trkpt>
      <trkpt lat="47.28277" lon="-1.61013">
        <ele>94</ele>
        <time>2022-01-27T15:23:35Z</time>
      </trkpt>
      <trkpt lat="47.28277" lon="-1.61015">
        <ele>94</ele>
        <time>2022-01-27T15:23:36Z</time>
      </trkpt>
      <trkpt lat="47.28278" lon="-1.61017">
        <ele>94</ele>
        <time>2022-01-27T15:23:37Z</time>
      </trkpt>
      <trkpt lat="47.28278" lon="-1.61018">
        <ele>94</ele>
        <time>2022-01-27T15:23:38Z</time>
      </trkpt>
      <trkpt lat="47.28279" lon="-1.61021">
        <ele>95</ele>
        <time>2022-01-27T15:23:39Z</time>
      </trkpt>
      <trkpt lat="47.28279" lon="-1.61023">
        <ele>95</ele>
        <time>2022-01-27T15:23:40Z</time>
      </trkpt>
      <trkpt lat="47.28279" lon="-1.61025">
        <ele>95</ele>
        <time>2022-01-27T15:23:41Z</time>
      </trkpt>
      <trkpt lat="47.2828" lon="-1.61026">
        <ele>95</ele>
        <time>2022-01-27T15:23:42Z</time>
      </trkpt>
      <trkpt lat="47.2828" lon="-1.61029">
        <ele>95</ele>
        <time>2022-01-27T15:23:43Z</time>
      </trkpt>
      <trkpt lat="47.28281" lon="-1.6103">
        <ele>95</ele>
        <time>2022-01-27T15:23:44Z</time>
      </trkpt>
      <trkpt lat="47.28281" lon="-1.61032">
        <ele>94</ele>
        <time>2022-01-27T15:23:45Z</time>
      </trkpt>
      <trkpt lat="47.28281" lon="-1.61034">
        <ele>94</ele>
        <time>2022-01-27T15:23:46Z</time>
      </trkpt>
      <trkpt lat="47.28282" lon="-1.61036">
        <ele>94</ele>
        <time>2022-01-27T15:23:47Z</time>
      </trkpt>
      <trkpt lat="47.28283" lon="-1.61038">
        <ele>94</ele>
        <time>2022-01-27T15:23:48Z</time>
      </trkpt>
      <trkpt lat="47.28283" lon="-1.6104">
        <ele>94</ele>
        <time>2022-01-27T15:23:49Z</time>
      </trkpt>
      <trkpt lat="47.28283" lon="-1.61041">
        <ele>94</ele>
        <time>2022-01-27T15:23:50Z</time>
      </trkpt>
      <trkpt lat="47.28284" lon="-1.61044">
        <ele>94</ele>
        <time>2022-01-27T15:23:51Z</time>
      </trkpt>
      <trkpt lat="47.28285" lon="-1.61045">
        <ele>95</ele>
        <time>2022-01-27T15:23:52Z</time>
      </trkpt>
      <trkpt lat="47.28285" lon="-1.61046">
        <ele>95</ele>
        <time>2022-01-27T15:23:53Z</time>
      </trkpt>
      <trkpt lat="47.28285" lon="-1.61048">
        <ele>95</ele>
        <time>2022-01-27T15:23:54Z</time>
      </trkpt>
      <trkpt lat="47.28285" lon="-1.6105">
        <ele>95</ele>
        <time>2022-01-27T15:23:55Z</time>
      </trkpt>
      <trkpt lat="47.28285" lon="-1.61051">
        <ele>95</ele>
        <time>2022-01-27T15:23:56Z</time>
      </trkpt>
      <trkpt lat="47.28285" lon="-1.61052">
        <ele>95</ele>
        <time>2022-01-27T15:23:57Z</time>
      </trkpt>
      <trkpt lat="47.28284" lon="-1.61054">
        <ele>95</ele>
        <time>2022-01-27T15:23:58Z</time>
      </trkpt>
      <trkpt lat="47.28284" lon="-1.61056">
        <ele>95</ele>
        <time>2022-01-27T15:23:59Z</time>
      </trkpt>
      <trkpt lat="47.28283" lon="-1.61057">
        <ele>94</ele>
        <time>2022-01-27T15:24:00Z</time>
      </trkpt>
      <trkpt lat="47.28283" lon="-1.61059">
        <ele>94</ele>
        <time>2022-01-27T15:24:01Z</time>
      </trkpt>
      <trkpt lat="47.28283" lon="-1.6106">
        <ele>94</ele>
        <time>2022-01-27T15:24:02Z</time>
      </trkpt>
      <trkpt lat="47.28282" lon="-1.61062">
        <ele>94</ele>
        <time>2022-01-27T15:24:03Z</time>
      </trkpt>
      <trkpt lat="47.28281" lon="-1.61063">
        <ele>94</ele>
        <time>2022-01-27T15:24:04Z</time>
      </trkpt>
      <trkpt lat="47.28281" lon="-1.61065">
        <ele>93</ele>
        <time>2022-01-27T15:24:05Z</time>
      </trkpt>
      <trkpt lat="47.28281" lon="-1.61066">
        <ele>93</ele>
        <time>2022-01-27T15:24:06Z</time>
      </trkpt>
      <trkpt lat="47.28281" lon="-1.61068">
        <ele>93</ele>
        <time>2022-01-27T15:24:07Z</time>
      </trkpt>
      <trkpt lat="47.28281" lon="-1.61069">
        <ele>93</ele>
        <time>2022-01-27T15:24:08Z</time>
      </trkpt>
      <trkpt lat="47.28281" lon="-1.61071">
        <ele>93</ele>
        <time>2022-01-27T15:24:09Z</time>
      </trkpt>
      <trkpt lat="47.28281" lon="-1.61072">
        <ele>92</ele>
        <time>2022-01-27T15:24:10Z</time>
      </trkpt>
      <trkpt lat="47.28281" lon="-1.61073">
        <ele>92</ele>
        <time>2022-01-27T15:24:11Z</time>
      </trkpt>
      <trkpt lat="47.28281" lon="-1.61075">
        <ele>92</ele>
        <time>2022-01-27T15:24:12Z</time>
      </trkpt>
      <trkpt lat="47.28281" lon="-1.61077">
        <ele>91</ele>
        <time>2022-01-27T15:24:13Z</time>
      </trkpt>
      <trkpt lat="47.28281" lon="-1.61078">
        <ele>91</ele>
        <time>2022-01-27T15:24:14Z</time>
      </trkpt>
      <trkpt lat="47.28281" lon="-1.61079">
        <ele>92</ele>
        <time>2022-01-27T15:24:15Z</time>
      </trkpt>
      <trkpt lat="47.28281" lon="-1.61081">
        <ele>92</ele>
        <time>2022-01-27T15:24:16Z</time>
      </trkpt>
      <trkpt lat="47.28281" lon="-1.61083">
        <ele>91</ele>
        <time>2022-01-27T15:24:17Z</time>
      </trkpt>
      <trkpt lat="47.28281" lon="-1.61085">
        <ele>91</ele>
        <time>2022-01-27T15:24:18Z</time>
      </trkpt>
      <trkpt lat="47.28281" lon="-1.61087">
        <ele>90</ele>
        <time>2022-01-27T15:24:19Z</time>
      </trkpt>
      <trkpt lat="47.28281" lon="-1.61089">
        <ele>90</ele>
        <time>2022-01-27T15:24:20Z</time>
      </trkpt>
      <trkpt lat="47.28281" lon="-1.61091">
        <ele>90</ele>
        <time>2022-01-27T15:24:21Z</time>
      </trkpt>
      <trkpt lat="47.28281" lon="-1.61092">
        <ele>91</ele>
        <time>2022-01-27T15:24:22Z</time>
      </trkpt>
      <trkpt lat="47.28281" lon="-1.61094">
        <ele>90</ele>
        <time>2022-01-27T15:24:23Z</time>
      </trkpt>
      <trkpt lat="47.28281" lon="-1.61095">
        <ele>90</ele>
        <time>2022-01-27T15:24:24Z</time>
      </trkpt>
      <trkpt lat="47.28281" lon="-1.61098">
        <ele>90</ele>
        <time>2022-01-27T15:24:25Z</time>
      </trkpt>
      <trkpt lat="47.28282" lon="-1.61099">
        <ele>90</ele>
        <time>2022-01-27T15:24:26Z</time>
      </trkpt>
      <trkpt lat="47.28282" lon="-1.61101">
        <ele>89</ele>
        <time>2022-01-27T15:24:27Z</time>
      </trkpt>
      <trkpt lat="47.28283" lon="-1.61102">
        <ele>89</ele>
        <time>2022-01-27T15:24:28Z</time>
      </trkpt>
      <trkpt lat="47.28283" lon="-1.61104">
        <ele>89</ele>
        <time>2022-01-27T15:24:29Z</time>
      </trkpt>
      <trkpt lat="47.28283" lon="-1.61105">
        <ele>89</ele>
        <time>2022-01-27T15:24:30Z</time>
      </trkpt>
      <trkpt lat="47.28283" lon="-1.61107">
        <ele>90</ele>
        <time>2022-01-27T15:24:31Z</time>
      </trkpt>
      <trkpt lat="47.28284" lon="-1.61109">
        <ele>90</ele>
        <time>2022-01-27T15:24:32Z</time>
      </trkpt>
      <trkpt lat="47.28284" lon="-1.61111">
        <ele>89</ele>
        <time>2022-01-27T15:24:33Z</time>
      </trkpt>
      <trkpt lat="47.28285" lon="-1.61113">
        <ele>90</ele>
        <time>2022-01-27T15:24:34Z</time>
      </trkpt>
      <trkpt lat="47.28285" lon="-1.61115">
        <ele>90</ele>
        <time>2022-01-27T15:24:35Z</time>
      </trkpt>
      <trkpt lat="47.28285" lon="-1.61117">
        <ele>90</ele>
        <time>2022-01-27T15:24:36Z</time>
      </trkpt>
      <trkpt lat="47.28285" lon="-1.61119">
        <ele>90</ele>
        <time>2022-01-27T15:24:37Z</time>
      </trkpt>
      <trkpt lat="47.28285" lon="-1.61121">
        <ele>90</ele>
        <time>2022-01-27T15:24:38Z</time>
      </trkpt>
      <trkpt lat="47.28286" lon="-1.61123">
        <ele>90</ele>
        <time>2022-01-27T15:24:39Z</time>
      </trkpt>
      <trkpt lat="47.28286" lon="-1.61125">
        <ele>90</ele>
        <time>2022-01-27T15:24:40Z</time>
      </trkpt>
      <trkpt lat="47.28286" lon="-1.61127">
        <ele>90</ele>
        <time>2022-01-27T15:24:41Z</time>
      </trkpt>
      <trkpt lat="47.28286" lon="-1.61129">
        <ele>90</ele>
        <time>2022-01-27T15:24:42Z</time>
      </trkpt>
      <trkpt lat="47.28286" lon="-1.61131">
        <ele>90</ele>
        <time>2022-01-27T15:24:43Z</time>
      </trkpt>
      <trkpt lat="47.28286" lon="-1.61133">
        <ele>90</ele>
        <time>2022-01-27T15:24:44Z</time>
      </trkpt>
      <trkpt lat="47.28287" lon="-1.61135">
        <ele>90</ele>
        <time>2022-01-27T15:24:45Z</time>
      </trkpt>
      <trkpt lat="47.28287" lon="-1.61137">
        <ele>90</ele>
        <time>2022-01-27T15:24:46Z</time>
      </trkpt>
      <trkpt lat="47.28286" lon="-1.61138">
        <ele>90</ele>
        <time>2022-01-27T15:24:47Z</time>
      </trkpt>
      <trkpt lat="47.28287" lon="-1.61141">
        <ele>90</ele>
        <time>2022-01-27T15:24:48Z</time>
      </trkpt>
      <trkpt lat="47.28287" lon="-1.61142">
        <ele>90</ele>
        <time>2022-01-27T15:24:49Z</time>
      </trkpt>
      <trkpt lat="47.28287" lon="-1.61145">
        <ele>90</ele>
        <time>2022-01-27T15:24:50Z</time>
      </trkpt>
      <trkpt lat="47.28287" lon="-1.61147">
        <ele>89</ele>
        <time>2022-01-27T15:24:51Z</time>
      </trkpt>
      <trkpt lat="47.28287" lon="-1.61148">
        <ele>91</ele>
        <time>2022-01-27T15:24:52Z</time>
      </trkpt>
      <trkpt lat="47.28288" lon="-1.6115">
        <ele>90</ele>
        <time>2022-01-27T15:24:53Z</time>
      </trkpt>
      <trkpt lat="47.28288" lon="-1.61152">
        <ele>90</ele>
        <time>2022-01-27T15:24:54Z</time>
      </trkpt>
      <trkpt lat="47.28288" lon="-1.61154">
        <ele>91</ele>
        <time>2022-01-27T15:24:55Z</time>
      </trkpt>
      <trkpt lat="47.28288" lon="-1.61155">
        <ele>91</ele>
        <time>2022-01-27T15:24:56Z</time>
      </trkpt>
      <trkpt lat="47.28288" lon="-1.61157">
        <ele>91</ele>
        <time>2022-01-27T15:24:57Z</time>
      </trkpt>
      <trkpt lat="47.28288" lon="-1.61159">
        <ele>91</ele>
        <time>2022-01-27T15:24:58Z</time>
      </trkpt>
      <trkpt lat="47.28288" lon="-1.61161">
        <ele>91</ele>
        <time>2022-01-27T15:24:59Z</time>
      </trkpt>
      <trkpt lat="47.28289" lon="-1.61163">
        <ele>90</ele>
        <time>2022-01-27T15:25:00Z</time>
      </trkpt>
      <trkpt lat="47.28289" lon="-1.61165">
        <ele>90</ele>
        <time>2022-01-27T15:25:01Z</time>
      </trkpt>
      <trkpt lat="47.28289" lon="-1.61167">
        <ele>91</ele>
        <time>2022-01-27T15:25:02Z</time>
      </trkpt>
      <trkpt lat="47.2829" lon="-1.61168">
        <ele>91</ele>
        <time>2022-01-27T15:25:03Z</time>
      </trkpt>
      <trkpt lat="47.2829" lon="-1.6117">
        <ele>91</ele>
        <time>2022-01-27T15:25:04Z</time>
      </trkpt>
      <trkpt lat="47.2829" lon="-1.61172">
        <ele>92</ele>
        <time>2022-01-27T15:25:05Z</time>
      </trkpt>
      <trkpt lat="47.2829" lon="-1.61174">
        <ele>92</ele>
        <time>2022-01-27T15:25:06Z</time>
      </trkpt>
      <trkpt lat="47.28291" lon="-1.61176">
        <ele>93</ele>
        <time>2022-01-27T15:25:07Z</time>
      </trkpt>
      <trkpt lat="47.28291" lon="-1.61178">
        <ele>93</ele>
        <time>2022-01-27T15:25:08Z</time>
      </trkpt>
      <trkpt lat="47.28292" lon="-1.61179">
        <ele>94</ele>
        <time>2022-01-27T15:25:09Z</time>
      </trkpt>
      <trkpt lat="47.28293" lon="-1.6118">
        <ele>94</ele>
        <time>2022-01-27T15:25:10Z</time>
      </trkpt>
      <trkpt lat="47.28294" lon="-1.61181">
        <ele>94</ele>
        <time>2022-01-27T15:25:11Z</time>
      </trkpt>
      <trkpt lat="47.28295" lon="-1.61182">
        <ele>94</ele>
        <time>2022-01-27T15:25:12Z</time>
      </trkpt>
      <trkpt lat="47.28296" lon="-1.61183">
        <ele>95</ele>
        <time>2022-01-27T15:25:13Z</time>
      </trkpt>
      <trkpt lat="47.28296" lon="-1.61184">
        <ele>95</ele>
        <time>2022-01-27T15:25:14Z</time>
      </trkpt>
      <trkpt lat="47.28297" lon="-1.61185">
        <ele>96</ele>
        <time>2022-01-27T15:25:15Z</time>
      </trkpt>
      <trkpt lat="47.28298" lon="-1.61186">
        <ele>97</ele>
        <time>2022-01-27T15:25:16Z</time>
      </trkpt>
      <trkpt lat="47.28298" lon="-1.61188">
        <ele>97</ele>
        <time>2022-01-27T15:25:17Z</time>
      </trkpt>
      <trkpt lat="47.28299" lon="-1.61189">
        <ele>97</ele>
        <time>2022-01-27T15:25:18Z</time>
      </trkpt>
      <trkpt lat="47.28299" lon="-1.61189">
        <ele>98</ele>
        <time>2022-01-27T15:25:19Z</time>
      </trkpt>
      <trkpt lat="47.283" lon="-1.6119">
        <ele>98</ele>
        <time>2022-01-27T15:25:20Z</time>
      </trkpt>
      <trkpt lat="47.28301" lon="-1.6119">
        <ele>97</ele>
        <time>2022-01-27T15:25:21Z</time>
      </trkpt>
      <trkpt lat="47.28301" lon="-1.6119">
        <ele>97</ele>
        <time>2022-01-27T15:25:22Z</time>
      </trkpt>
      <trkpt lat="47.28301" lon="-1.6119">
        <ele>97</ele>
        <time>2022-01-27T15:25:23Z</time>
      </trkpt>
      <trkpt lat="47.28302" lon="-1.61192">
        <ele>96</ele>
        <time>2022-01-27T15:25:24Z</time>
      </trkpt>
      <trkpt lat="47.28302" lon="-1.61192">
        <ele>96</ele>
        <time>2022-01-27T15:25:25Z</time>
      </trkpt>
      <trkpt lat="47.28302" lon="-1.61192">
        <ele>97</ele>
        <time>2022-01-27T15:25:26Z</time>
      </trkpt>
      <trkpt lat="47.28302" lon="-1.61191">
        <ele>96</ele>
        <time>2022-01-27T15:25:27Z</time>
      </trkpt>
      <trkpt lat="47.28302" lon="-1.61191">
        <ele>96</ele>
        <time>2022-01-27T15:25:27Z</time>
      </trkpt>
      <trkpt lat="47.28302" lon="-1.61191">
        <ele>96</ele>
        <time>2022-01-27T15:25:27Z</time>
      </trkpt>
      <trkpt lat="47.28302" lon="-1.61191">
        <ele>96</ele>
        <time>2022-01-27T15:25:46Z</time>
      </trkpt>
      <trkpt lat="47.28302" lon="-1.61191">
        <ele>96</ele>
        <time>2022-01-27T15:25:47Z</time>
      </trkpt>
      <trkpt lat="47.28302" lon="-1.61191">
        <ele>96</ele>
        <time>2022-01-27T15:25:48Z</time>
      </trkpt>
      <trkpt lat="47.28302" lon="-1.61191">
        <ele>96</ele>
        <time>2022-01-27T15:25:49Z</time>
      </trkpt>
      <trkpt lat="47.28302" lon="-1.61191">
        <ele>96</ele>
        <time>2022-01-27T15:25:50Z</time>
      </trkpt>
      <trkpt lat="47.28302" lon="-1.61191">
        <ele>96</ele>
        <time>2022-01-27T15:25:51Z</time>
      </trkpt>
      <trkpt lat="47.28302" lon="-1.61191">
        <ele>96</ele>
        <time>2022-01-27T15:25:51Z</time>
      </trkpt>
      <trkpt lat="47.28302" lon="-1.61191">
        <ele>96</ele>
        <time>2022-01-27T15:25:51Z</time>
      </trkpt>
      <trkpt lat="47.28299" lon="-1.6119">
        <ele>98</ele>
        <time>2022-01-27T15:26:07Z</time>
      </trkpt>
      <trkpt lat="47.28299" lon="-1.61189">
        <ele>98</ele>
        <time>2022-01-27T15:26:08Z</time>
      </trkpt>
      <trkpt lat="47.28298" lon="-1.6119">
        <ele>98</ele>
        <time>2022-01-27T15:26:09Z</time>
      </trkpt>
      <trkpt lat="47.28298" lon="-1.61191">
        <ele>98</ele>
        <time>2022-01-27T15:26:10Z</time>
      </trkpt>
      <trkpt lat="47.28298" lon="-1.61191">
        <ele>98</ele>
        <time>2022-01-27T15:26:11Z</time>
      </trkpt>
      <trkpt lat="47.28298" lon="-1.61192">
        <ele>98</ele>
        <time>2022-01-27T15:26:12Z</time>
      </trkpt>
      <trkpt lat="47.28298" lon="-1.61193">
        <ele>98</ele>
        <time>2022-01-27T15:26:13Z</time>
      </trkpt>
      <trkpt lat="47.28298" lon="-1.61195">
        <ele>98</ele>
        <time>2022-01-27T15:26:14Z</time>
      </trkpt>
      <trkpt lat="47.28297" lon="-1.61196">
        <ele>98</ele>
        <time>2022-01-27T15:26:15Z</time>
      </trkpt>
      <trkpt lat="47.28297" lon="-1.61197">
        <ele>97</ele>
        <time>2022-01-27T15:26:16Z</time>
      </trkpt>
      <trkpt lat="47.28297" lon="-1.61198">
        <ele>97</ele>
        <time>2022-01-27T15:26:17Z</time>
      </trkpt>
      <trkpt lat="47.28297" lon="-1.61199">
        <ele>98</ele>
        <time>2022-01-27T15:26:18Z</time>
      </trkpt>
      <trkpt lat="47.28297" lon="-1.612">
        <ele>98</ele>
        <time>2022-01-27T15:26:19Z</time>
      </trkpt>
      <trkpt lat="47.28297" lon="-1.61201">
        <ele>98</ele>
        <time>2022-01-27T15:26:20Z</time>
      </trkpt>
      <trkpt lat="47.28297" lon="-1.61201">
        <ele>98</ele>
        <time>2022-01-27T15:26:21Z</time>
      </trkpt>
      <trkpt lat="47.28297" lon="-1.61202">
        <ele>97</ele>
        <time>2022-01-27T15:26:22Z</time>
      </trkpt>
      <trkpt lat="47.28297" lon="-1.61204">
        <ele>97</ele>
        <time>2022-01-27T15:26:23Z</time>
      </trkpt>
      <trkpt lat="47.28297" lon="-1.61205">
        <ele>97</ele>
        <time>2022-01-27T15:26:24Z</time>
      </trkpt>
      <trkpt lat="47.28297" lon="-1.61207">
        <ele>97</ele>
        <time>2022-01-27T15:26:25Z</time>
      </trkpt>
      <trkpt lat="47.28298" lon="-1.61208">
        <ele>97</ele>
        <time>2022-01-27T15:26:26Z</time>
      </trkpt>
      <trkpt lat="47.28298" lon="-1.61209">
        <ele>96</ele>
        <time>2022-01-27T15:26:27Z</time>
      </trkpt>
      <trkpt lat="47.28299" lon="-1.6121">
        <ele>96</ele>
        <time>2022-01-27T15:26:28Z</time>
      </trkpt>
      <trkpt lat="47.28299" lon="-1.61212">
        <ele>96</ele>
        <time>2022-01-27T15:26:29Z</time>
      </trkpt>
      <trkpt lat="47.28299" lon="-1.61213">
        <ele>96</ele>
        <time>2022-01-27T15:26:30Z</time>
      </trkpt>
      <trkpt lat="47.28299" lon="-1.61215">
        <ele>96</ele>
        <time>2022-01-27T15:26:31Z</time>
      </trkpt>
      <trkpt lat="47.28299" lon="-1.61216">
        <ele>96</ele>
        <time>2022-01-27T15:26:32Z</time>
      </trkpt>
      <trkpt lat="47.28299" lon="-1.61217">
        <ele>96</ele>
        <time>2022-01-27T15:26:33Z</time>
      </trkpt>
      <trkpt lat="47.28299" lon="-1.61218">
        <ele>96</ele>
        <time>2022-01-27T15:26:34Z</time>
      </trkpt>
      <trkpt lat="47.283" lon="-1.61219">
        <ele>96</ele>
        <time>2022-01-27T15:26:35Z</time>
      </trkpt>
      <trkpt lat="47.283" lon="-1.6122">
        <ele>96</ele>
        <time>2022-01-27T15:26:36Z</time>
      </trkpt>
      <trkpt lat="47.28301" lon="-1.61221">
        <ele>96</ele>
        <time>2022-01-27T15:26:37Z</time>
      </trkpt>
      <trkpt lat="47.28301" lon="-1.61222">
        <ele>96</ele>
        <time>2022-01-27T15:26:38Z</time>
      </trkpt>
      <trkpt lat="47.28301" lon="-1.61224">
        <ele>95</ele>
        <time>2022-01-27T15:26:39Z</time>
      </trkpt>
      <trkpt lat="47.28301" lon="-1.61225">
        <ele>95</ele>
        <time>2022-01-27T15:26:40Z</time>
      </trkpt>
      <trkpt lat="47.28301" lon="-1.61227">
        <ele>95</ele>
        <time>2022-01-27T15:26:41Z</time>
      </trkpt>
      <trkpt lat="47.28301" lon="-1.61229">
        <ele>95</ele>
        <time>2022-01-27T15:26:42Z</time>
      </trkpt>
      <trkpt lat="47.28301" lon="-1.6123">
        <ele>96</ele>
        <time>2022-01-27T15:26:43Z</time>
      </trkpt>
      <trkpt lat="47.28301" lon="-1.61232">
        <ele>96</ele>
        <time>2022-01-27T15:26:44Z</time>
      </trkpt>
      <trkpt lat="47.28301" lon="-1.61233">
        <ele>96</ele>
        <time>2022-01-27T15:26:45Z</time>
      </trkpt>
      <trkpt lat="47.28301" lon="-1.61235">
        <ele>96</ele>
        <time>2022-01-27T15:26:46Z</time>
      </trkpt>
      <trkpt lat="47.28301" lon="-1.61236">
        <ele>96</ele>
        <time>2022-01-27T15:26:47Z</time>
      </trkpt>
      <trkpt lat="47.28301" lon="-1.61238">
        <ele>96</ele>
        <time>2022-01-27T15:26:48Z</time>
      </trkpt>
      <trkpt lat="47.28301" lon="-1.61239">
        <ele>96</ele>
        <time>2022-01-27T15:26:49Z</time>
      </trkpt>
      <trkpt lat="47.28301" lon="-1.61241">
        <ele>96</ele>
        <time>2022-01-27T15:26:50Z</time>
      </trkpt>
      <trkpt lat="47.28301" lon="-1.61243">
        <ele>95</ele>
        <time>2022-01-27T15:26:51Z</time>
      </trkpt>
      <trkpt lat="47.28302" lon="-1.61244">
        <ele>96</ele>
        <time>2022-01-27T15:26:52Z</time>
      </trkpt>
      <trkpt lat="47.28302" lon="-1.61245">
        <ele>96</ele>
        <time>2022-01-27T15:26:53Z</time>
      </trkpt>
      <trkpt lat="47.28302" lon="-1.61247">
        <ele>96</ele>
        <time>2022-01-27T15:26:54Z</time>
      </trkpt>
      <trkpt lat="47.28302" lon="-1.61248">
        <ele>96</ele>
        <time>2022-01-27T15:26:55Z</time>
      </trkpt>
      <trkpt lat="47.28302" lon="-1.6125">
        <ele>96</ele>
        <time>2022-01-27T15:26:56Z</time>
      </trkpt>
      <trkpt lat="47.28302" lon="-1.61251">
        <ele>96</ele>
        <time>2022-01-27T15:26:57Z</time>
      </trkpt>
      <trkpt lat="47.28302" lon="-1.61253">
        <ele>95</ele>
        <time>2022-01-27T15:26:58Z</time>
      </trkpt>
      <trkpt lat="47.28302" lon="-1.61254">
        <ele>95</ele>
        <time>2022-01-27T15:26:59Z</time>
      </trkpt>
      <trkpt lat="47.28302" lon="-1.61256">
        <ele>95</ele>
        <time>2022-01-27T15:27:00Z</time>
      </trkpt>
      <trkpt lat="47.28302" lon="-1.61257">
        <ele>95</ele>
        <time>2022-01-27T15:27:01Z</time>
      </trkpt>
      <trkpt lat="47.28303" lon="-1.61258">
        <ele>95</ele>
        <time>2022-01-27T15:27:02Z</time>
      </trkpt>
      <trkpt lat="47.28303" lon="-1.61259">
        <ele>94</ele>
        <time>2022-01-27T15:27:03Z</time>
      </trkpt>
      <trkpt lat="47.28303" lon="-1.6126">
        <ele>95</ele>
        <time>2022-01-27T15:27:04Z</time>
      </trkpt>
      <trkpt lat="47.28303" lon="-1.61262">
        <ele>95</ele>
        <time>2022-01-27T15:27:05Z</time>
      </trkpt>
      <trkpt lat="47.28303" lon="-1.61263">
        <ele>95</ele>
        <time>2022-01-27T15:27:06Z</time>
      </trkpt>
      <trkpt lat="47.28304" lon="-1.61265">
        <ele>95</ele>
        <time>2022-01-27T15:27:07Z</time>
      </trkpt>
      <trkpt lat="47.28304" lon="-1.61267">
        <ele>94</ele>
        <time>2022-01-27T15:27:08Z</time>
      </trkpt>
      <trkpt lat="47.28304" lon="-1.61269">
        <ele>94</ele>
        <time>2022-01-27T15:27:09Z</time>
      </trkpt>
      <trkpt lat="47.28304" lon="-1.61271">
        <ele>94</ele>
        <time>2022-01-27T15:27:10Z</time>
      </trkpt>
      <trkpt lat="47.28304" lon="-1.61272">
        <ele>94</ele>
        <time>2022-01-27T15:27:11Z</time>
      </trkpt>
      <trkpt lat="47.28305" lon="-1.61274">
        <ele>95</ele>
        <time>2022-01-27T15:27:12Z</time>
      </trkpt>
      <trkpt lat="47.28305" lon="-1.61275">
        <ele>95</ele>
        <time>2022-01-27T15:27:13Z</time>
      </trkpt>
      <trkpt lat="47.28305" lon="-1.61277">
        <ele>95</ele>
        <time>2022-01-27T15:27:14Z</time>
      </trkpt>
      <trkpt lat="47.28306" lon="-1.61278">
        <ele>95</ele>
        <time>2022-01-27T15:27:15Z</time>
      </trkpt>
      <trkpt lat="47.28306" lon="-1.6128">
        <ele>96</ele>
        <time>2022-01-27T15:27:16Z</time>
      </trkpt>
      <trkpt lat="47.28307" lon="-1.61281">
        <ele>96</ele>
        <time>2022-01-27T15:27:17Z</time>
      </trkpt>
      <trkpt lat="47.28307" lon="-1.61283">
        <ele>96</ele>
        <time>2022-01-27T15:27:18Z</time>
      </trkpt>
      <trkpt lat="47.28307" lon="-1.61284">
        <ele>96</ele>
        <time>2022-01-27T15:27:19Z</time>
      </trkpt>
      <trkpt lat="47.28307" lon="-1.61286">
        <ele>96</ele>
        <time>2022-01-27T15:27:20Z</time>
      </trkpt>
      <trkpt lat="47.28308" lon="-1.61288">
        <ele>96</ele>
        <time>2022-01-27T15:27:21Z</time>
      </trkpt>
      <trkpt lat="47.28308" lon="-1.6129">
        <ele>96</ele>
        <time>2022-01-27T15:27:22Z</time>
      </trkpt>
      <trkpt lat="47.28308" lon="-1.61291">
        <ele>96</ele>
        <time>2022-01-27T15:27:23Z</time>
      </trkpt>
      <trkpt lat="47.28309" lon="-1.61293">
        <ele>96</ele>
        <time>2022-01-27T15:27:24Z</time>
      </trkpt>
      <trkpt lat="47.28309" lon="-1.61295">
        <ele>96</ele>
        <time>2022-01-27T15:27:25Z</time>
      </trkpt>
      <trkpt lat="47.28309" lon="-1.61297">
        <ele>96</ele>
        <time>2022-01-27T15:27:26Z</time>
      </trkpt>
      <trkpt lat="47.28309" lon="-1.61299">
        <ele>96</ele>
        <time>2022-01-27T15:27:27Z</time>
      </trkpt>
      <trkpt lat="47.2831" lon="-1.61301">
        <ele>96</ele>
        <time>2022-01-27T15:27:28Z</time>
      </trkpt>
      <trkpt lat="47.2831" lon="-1.61303">
        <ele>96</ele>
        <time>2022-01-27T15:27:29Z</time>
      </trkpt>
      <trkpt lat="47.2831" lon="-1.61304">
        <ele>96</ele>
        <time>2022-01-27T15:27:30Z</time>
      </trkpt>
      <trkpt lat="47.2831" lon="-1.61306">
        <ele>95</ele>
        <time>2022-01-27T15:27:31Z</time>
      </trkpt>
      <trkpt lat="47.2831" lon="-1.61307">
        <ele>95</ele>
        <time>2022-01-27T15:27:32Z</time>
      </trkpt>
      <trkpt lat="47.2831" lon="-1.61309">
        <ele>95</ele>
        <time>2022-01-27T15:27:33Z</time>
      </trkpt>
      <trkpt lat="47.2831" lon="-1.61311">
        <ele>95</ele>
        <time>2022-01-27T15:27:34Z</time>
      </trkpt>
      <trkpt lat="47.2831" lon="-1.61313">
        <ele>94</ele>
        <time>2022-01-27T15:27:35Z</time>
      </trkpt>
      <trkpt lat="47.28311" lon="-1.61314">
        <ele>95</ele>
        <time>2022-01-27T15:27:36Z</time>
      </trkpt>
      <trkpt lat="47.2831" lon="-1.61315">
        <ele>94</ele>
        <time>2022-01-27T15:27:37Z</time>
      </trkpt>
      <trkpt lat="47.2831" lon="-1.61315">
        <ele>94</ele>
        <time>2022-01-27T15:27:38Z</time>
      </trkpt>
      <trkpt lat="47.2831" lon="-1.61315">
        <ele>94</ele>
        <time>2022-01-27T15:27:39Z</time>
      </trkpt>
      <trkpt lat="47.28312" lon="-1.61318">
        <ele>94</ele>
        <time>2022-01-27T15:27:40Z</time>
      </trkpt>
      <trkpt lat="47.28312" lon="-1.61319">
        <ele>94</ele>
        <time>2022-01-27T15:27:41Z</time>
      </trkpt>
      <trkpt lat="47.28312" lon="-1.61321">
        <ele>94</ele>
        <time>2022-01-27T15:27:42Z</time>
      </trkpt>
      <trkpt lat="47.28313" lon="-1.61322">
        <ele>93</ele>
        <time>2022-01-27T15:27:43Z</time>
      </trkpt>
      <trkpt lat="47.28313" lon="-1.61324">
        <ele>93</ele>
        <time>2022-01-27T15:27:44Z</time>
      </trkpt>
      <trkpt lat="47.28314" lon="-1.61325">
        <ele>92</ele>
        <time>2022-01-27T15:27:45Z</time>
      </trkpt>
      <trkpt lat="47.28315" lon="-1.61326">
        <ele>92</ele>
        <time>2022-01-27T15:27:46Z</time>
      </trkpt>
      <trkpt lat="47.28316" lon="-1.61328">
        <ele>92</ele>
        <time>2022-01-27T15:27:47Z</time>
      </trkpt>
      <trkpt lat="47.28317" lon="-1.61329">
        <ele>92</ele>
        <time>2022-01-27T15:27:48Z</time>
      </trkpt>
      <trkpt lat="47.28317" lon="-1.61331">
        <ele>92</ele>
        <time>2022-01-27T15:27:49Z</time>
      </trkpt>
      <trkpt lat="47.28318" lon="-1.61332">
        <ele>91</ele>
        <time>2022-01-27T15:27:50Z</time>
      </trkpt>
      <trkpt lat="47.28319" lon="-1.61334">
        <ele>91</ele>
        <time>2022-01-27T15:27:51Z</time>
      </trkpt>
      <trkpt lat="47.28319" lon="-1.61335">
        <ele>91</ele>
        <time>2022-01-27T15:27:52Z</time>
      </trkpt>
      <trkpt lat="47.2832" lon="-1.61337">
        <ele>91</ele>
        <time>2022-01-27T15:27:53Z</time>
      </trkpt>
      <trkpt lat="47.28321" lon="-1.61339">
        <ele>92</ele>
        <time>2022-01-27T15:27:54Z</time>
      </trkpt>
      <trkpt lat="47.28322" lon="-1.6134">
        <ele>92</ele>
        <time>2022-01-27T15:27:55Z</time>
      </trkpt>
      <trkpt lat="47.28323" lon="-1.61342">
        <ele>93</ele>
        <time>2022-01-27T15:27:56Z</time>
      </trkpt>
      <trkpt lat="47.28324" lon="-1.61346">
        <ele>94</ele>
        <time>2022-01-27T15:27:57Z</time>
      </trkpt>
      <trkpt lat="47.28325" lon="-1.61348">
        <ele>95</ele>
        <time>2022-01-27T15:27:58Z</time>
      </trkpt>
      <trkpt lat="47.28326" lon="-1.6135">
        <ele>95</ele>
        <time>2022-01-27T15:27:59Z</time>
      </trkpt>
      <trkpt lat="47.28327" lon="-1.61352">
        <ele>95</ele>
        <time>2022-01-27T15:28:00Z</time>
      </trkpt>
      <trkpt lat="47.28328" lon="-1.61353">
        <ele>96</ele>
        <time>2022-01-27T15:28:01Z</time>
      </trkpt>
      <trkpt lat="47.28328" lon="-1.61355">
        <ele>97</ele>
        <time>2022-01-27T15:28:02Z</time>
      </trkpt>
      <trkpt lat="47.28329" lon="-1.61356">
        <ele>97</ele>
        <time>2022-01-27T15:28:03Z</time>
      </trkpt>
      <trkpt lat="47.28329" lon="-1.61357">
        <ele>97</ele>
        <time>2022-01-27T15:28:04Z</time>
      </trkpt>
      <trkpt lat="47.28329" lon="-1.61357">
        <ele>97</ele>
        <time>2022-01-27T15:28:05Z</time>
      </trkpt>
      <trkpt lat="47.28329" lon="-1.61357">
        <ele>97</ele>
        <time>2022-01-27T15:28:06Z</time>
      </trkpt>
      <trkpt lat="47.28331" lon="-1.61359">
        <ele>98</ele>
        <time>2022-01-27T15:28:07Z</time>
      </trkpt>
      <trkpt lat="47.28331" lon="-1.6136">
        <ele>97</ele>
        <time>2022-01-27T15:28:08Z</time>
      </trkpt>
      <trkpt lat="47.28332" lon="-1.61362">
        <ele>97</ele>
        <time>2022-01-27T15:28:09Z</time>
      </trkpt>
      <trkpt lat="47.28333" lon="-1.61363">
        <ele>97</ele>
        <time>2022-01-27T15:28:10Z</time>
      </trkpt>
      <trkpt lat="47.28334" lon="-1.61364">
        <ele>98</ele>
        <time>2022-01-27T15:28:11Z</time>
      </trkpt>
      <trkpt lat="47.28335" lon="-1.61365">
        <ele>97</ele>
        <time>2022-01-27T15:28:12Z</time>
      </trkpt>
      <trkpt lat="47.28336" lon="-1.61366">
        <ele>97</ele>
        <time>2022-01-27T15:28:13Z</time>
      </trkpt>
      <trkpt lat="47.28336" lon="-1.61366">
        <ele>97</ele>
        <time>2022-01-27T15:28:14Z</time>
      </trkpt>
      <trkpt lat="47.28337" lon="-1.61367">
        <ele>98</ele>
        <time>2022-01-27T15:28:15Z</time>
      </trkpt>
      <trkpt lat="47.28338" lon="-1.61368">
        <ele>97</ele>
        <time>2022-01-27T15:28:16Z</time>
      </trkpt>
      <trkpt lat="47.28338" lon="-1.61369">
        <ele>97</ele>
        <time>2022-01-27T15:28:17Z</time>
      </trkpt>
      <trkpt lat="47.28339" lon="-1.61369">
        <ele>97</ele>
        <time>2022-01-27T15:28:18Z</time>
      </trkpt>
      <trkpt lat="47.2834" lon="-1.61371">
        <ele>97</ele>
        <time>2022-01-27T15:28:19Z</time>
      </trkpt>
      <trkpt lat="47.28341" lon="-1.61372">
        <ele>97</ele>
        <time>2022-01-27T15:28:20Z</time>
      </trkpt>
      <trkpt lat="47.28341" lon="-1.61373">
        <ele>96</ele>
        <time>2022-01-27T15:28:21Z</time>
      </trkpt>
      <trkpt lat="47.28342" lon="-1.61373">
        <ele>96</ele>
        <time>2022-01-27T15:28:22Z</time>
      </trkpt>
      <trkpt lat="47.28342" lon="-1.61374">
        <ele>96</ele>
        <time>2022-01-27T15:28:23Z</time>
      </trkpt>
      <trkpt lat="47.28344" lon="-1.61375">
        <ele>96</ele>
        <time>2022-01-27T15:28:24Z</time>
      </trkpt>
      <trkpt lat="47.28345" lon="-1.61376">
        <ele>96</ele>
        <time>2022-01-27T15:28:25Z</time>
      </trkpt>
      <trkpt lat="47.28346" lon="-1.61376">
        <ele>96</ele>
        <time>2022-01-27T15:28:26Z</time>
      </trkpt>
      <trkpt lat="47.28347" lon="-1.61377">
        <ele>96</ele>
        <time>2022-01-27T15:28:27Z</time>
      </trkpt>
      <trkpt lat="47.28347" lon="-1.61377">
        <ele>96</ele>
        <time>2022-01-27T15:28:28Z</time>
      </trkpt>
      <trkpt lat="47.28347" lon="-1.61377">
        <ele>96</ele>
        <time>2022-01-27T15:28:29Z</time>
      </trkpt>
      <trkpt lat="47.28349" lon="-1.61377">
        <ele>96</ele>
        <time>2022-01-27T15:28:30Z</time>
      </trkpt>
      <trkpt lat="47.2835" lon="-1.61377">
        <ele>95</ele>
        <time>2022-01-27T15:28:31Z</time>
      </trkpt>
      <trkpt lat="47.28351" lon="-1.61378">
        <ele>95</ele>
        <time>2022-01-27T15:28:32Z</time>
      </trkpt>
      <trkpt lat="47.28352" lon="-1.61379">
        <ele>96</ele>
        <time>2022-01-27T15:28:33Z</time>
      </trkpt>
      <trkpt lat="47.28352" lon="-1.6138">
        <ele>96</ele>
        <time>2022-01-27T15:28:34Z</time>
      </trkpt>
      <trkpt lat="47.28353" lon="-1.6138">
        <ele>96</ele>
        <time>2022-01-27T15:28:35Z</time>
      </trkpt>
      <trkpt lat="47.28353" lon="-1.6138">
        <ele>96</ele>
        <time>2022-01-27T15:28:36Z</time>
      </trkpt>
      <trkpt lat="47.28353" lon="-1.6138">
        <ele>96</ele>
        <time>2022-01-27T15:28:37Z</time>
      </trkpt>
      <trkpt lat="47.28356" lon="-1.61381">
        <ele>96</ele>
        <time>2022-01-27T15:28:38Z</time>
      </trkpt>
      <trkpt lat="47.28357" lon="-1.61382">
        <ele>96</ele>
        <time>2022-01-27T15:28:39Z</time>
      </trkpt>
      <trkpt lat="47.28358" lon="-1.61382">
        <ele>96</ele>
        <time>2022-01-27T15:28:40Z</time>
      </trkpt>
      <trkpt lat="47.28359" lon="-1.61383">
        <ele>96</ele>
        <time>2022-01-27T15:28:41Z</time>
      </trkpt>
      <trkpt lat="47.28359" lon="-1.61383">
        <ele>96</ele>
        <time>2022-01-27T15:28:42Z</time>
      </trkpt>
      <trkpt lat="47.28359" lon="-1.61383">
        <ele>96</ele>
        <time>2022-01-27T15:28:43Z</time>
      </trkpt>
      <trkpt lat="47.28359" lon="-1.61383">
        <ele>96</ele>
        <time>2022-01-27T15:28:44Z</time>
      </trkpt>
      <trkpt lat="47.28361" lon="-1.61385">
        <ele>96</ele>
        <time>2022-01-27T15:28:45Z</time>
      </trkpt>
      <trkpt lat="47.28362" lon="-1.61386">
        <ele>96</ele>
        <time>2022-01-27T15:28:46Z</time>
      </trkpt>
      <trkpt lat="47.28363" lon="-1.61387">
        <ele>95</ele>
        <time>2022-01-27T15:28:47Z</time>
      </trkpt>
      <trkpt lat="47.28365" lon="-1.61388">
        <ele>95</ele>
        <time>2022-01-27T15:28:48Z</time>
      </trkpt>
      <trkpt lat="47.28366" lon="-1.61389">
        <ele>95</ele>
        <time>2022-01-27T15:28:49Z</time>
      </trkpt>
      <trkpt lat="47.28368" lon="-1.6139">
        <ele>95</ele>
        <time>2022-01-27T15:28:50Z</time>
      </trkpt>
      <trkpt lat="47.2837" lon="-1.61391">
        <ele>95</ele>
        <time>2022-01-27T15:28:51Z</time>
      </trkpt>
      <trkpt lat="47.28371" lon="-1.61391">
        <ele>95</ele>
        <time>2022-01-27T15:28:52Z</time>
      </trkpt>
      <trkpt lat="47.28372" lon="-1.61392">
        <ele>96</ele>
        <time>2022-01-27T15:28:53Z</time>
      </trkpt>
      <trkpt lat="47.28373" lon="-1.61392">
        <ele>96</ele>
        <time>2022-01-27T15:28:54Z</time>
      </trkpt>
      <trkpt lat="47.28375" lon="-1.61393">
        <ele>96</ele>
        <time>2022-01-27T15:28:55Z</time>
      </trkpt>
      <trkpt lat="47.28376" lon="-1.61394">
        <ele>96</ele>
        <time>2022-01-27T15:28:56Z</time>
      </trkpt>
      <trkpt lat="47.28378" lon="-1.61395">
        <ele>96</ele>
        <time>2022-01-27T15:28:57Z</time>
      </trkpt>
      <trkpt lat="47.28378" lon="-1.61396">
        <ele>95</ele>
        <time>2022-01-27T15:28:58Z</time>
      </trkpt>
      <trkpt lat="47.2838" lon="-1.61396">
        <ele>95</ele>
        <time>2022-01-27T15:28:59Z</time>
      </trkpt>
      <trkpt lat="47.28381" lon="-1.61397">
        <ele>95</ele>
        <time>2022-01-27T15:29:00Z</time>
      </trkpt>
      <trkpt lat="47.28382" lon="-1.61398">
        <ele>95</ele>
        <time>2022-01-27T15:29:01Z</time>
      </trkpt>
      <trkpt lat="47.28383" lon="-1.61399">
        <ele>94</ele>
        <time>2022-01-27T15:29:02Z</time>
      </trkpt>
      <trkpt lat="47.28384" lon="-1.614">
        <ele>94</ele>
        <time>2022-01-27T15:29:03Z</time>
      </trkpt>
      <trkpt lat="47.28386" lon="-1.61401">
        <ele>94</ele>
        <time>2022-01-27T15:29:04Z</time>
      </trkpt>
      <trkpt lat="47.28387" lon="-1.61401">
        <ele>94</ele>
        <time>2022-01-27T15:29:05Z</time>
      </trkpt>
      <trkpt lat="47.28388" lon="-1.61402">
        <ele>94</ele>
        <time>2022-01-27T15:29:06Z</time>
      </trkpt>
      <trkpt lat="47.28389" lon="-1.61403">
        <ele>94</ele>
        <time>2022-01-27T15:29:07Z</time>
      </trkpt>
      <trkpt lat="47.28389" lon="-1.61403">
        <ele>94</ele>
        <time>2022-01-27T15:29:08Z</time>
      </trkpt>
      <trkpt lat="47.28389" lon="-1.61403">
        <ele>94</ele>
        <time>2022-01-27T15:29:09Z</time>
      </trkpt>
      <trkpt lat="47.28392" lon="-1.61404">
        <ele>93</ele>
        <time>2022-01-27T15:29:10Z</time>
      </trkpt>
      <trkpt lat="47.28394" lon="-1.61405">
        <ele>93</ele>
        <time>2022-01-27T15:29:11Z</time>
      </trkpt>
      <trkpt lat="47.28396" lon="-1.61406">
        <ele>93</ele>
        <time>2022-01-27T15:29:12Z</time>
      </trkpt>
      <trkpt lat="47.28397" lon="-1.61406">
        <ele>93</ele>
        <time>2022-01-27T15:29:13Z</time>
      </trkpt>
      <trkpt lat="47.28399" lon="-1.61407">
        <ele>93</ele>
        <time>2022-01-27T15:29:14Z</time>
      </trkpt>
      <trkpt lat="47.284" lon="-1.61407">
        <ele>93</ele>
        <time>2022-01-27T15:29:15Z</time>
      </trkpt>
      <trkpt lat="47.284" lon="-1.61407">
        <ele>93</ele>
        <time>2022-01-27T15:29:16Z</time>
      </trkpt>
      <trkpt lat="47.28403" lon="-1.61408">
        <ele>93</ele>
        <time>2022-01-27T15:29:17Z</time>
      </trkpt>
      <trkpt lat="47.28404" lon="-1.61408">
        <ele>93</ele>
        <time>2022-01-27T15:29:18Z</time>
      </trkpt>
      <trkpt lat="47.28406" lon="-1.61409">
        <ele>94</ele>
        <time>2022-01-27T15:29:19Z</time>
      </trkpt>
      <trkpt lat="47.28408" lon="-1.61409">
        <ele>94</ele>
        <time>2022-01-27T15:29:20Z</time>
      </trkpt>
      <trkpt lat="47.28409" lon="-1.6141">
        <ele>94</ele>
        <time>2022-01-27T15:29:21Z</time>
      </trkpt>
      <trkpt lat="47.28411" lon="-1.6141">
        <ele>94</ele>
        <time>2022-01-27T15:29:22Z</time>
      </trkpt>
      <trkpt lat="47.28412" lon="-1.61411">
        <ele>94</ele>
        <time>2022-01-27T15:29:23Z</time>
      </trkpt>
      <trkpt lat="47.28414" lon="-1.61411">
        <ele>95</ele>
        <time>2022-01-27T15:29:24Z</time>
      </trkpt>
      <trkpt lat="47.28416" lon="-1.61411">
        <ele>96</ele>
        <time>2022-01-27T15:29:25Z</time>
      </trkpt>
      <trkpt lat="47.28418" lon="-1.61411">
        <ele>96</ele>
        <time>2022-01-27T15:29:26Z</time>
      </trkpt>
      <trkpt lat="47.28419" lon="-1.61412">
        <ele>97</ele>
        <time>2022-01-27T15:29:27Z</time>
      </trkpt>
      <trkpt lat="47.28421" lon="-1.61412">
        <ele>97</ele>
        <time>2022-01-27T15:29:28Z</time>
      </trkpt>
      <trkpt lat="47.28422" lon="-1.61413">
        <ele>97</ele>
        <time>2022-01-27T15:29:29Z</time>
      </trkpt>
      <trkpt lat="47.28424" lon="-1.61413">
        <ele>97</ele>
        <time>2022-01-27T15:29:30Z</time>
      </trkpt>
      <trkpt lat="47.28426" lon="-1.61413">
        <ele>97</ele>
        <time>2022-01-27T15:29:31Z</time>
      </trkpt>
      <trkpt lat="47.28428" lon="-1.61413">
        <ele>97</ele>
        <time>2022-01-27T15:29:32Z</time>
      </trkpt>
      <trkpt lat="47.28429" lon="-1.61414">
        <ele>98</ele>
        <time>2022-01-27T15:29:33Z</time>
      </trkpt>
      <trkpt lat="47.2843" lon="-1.61415">
        <ele>99</ele>
        <time>2022-01-27T15:29:34Z</time>
      </trkpt>
      <trkpt lat="47.28432" lon="-1.61416">
        <ele>99</ele>
        <time>2022-01-27T15:29:35Z</time>
      </trkpt>
      <trkpt lat="47.28433" lon="-1.61416">
        <ele>99</ele>
        <time>2022-01-27T15:29:36Z</time>
      </trkpt>
      <trkpt lat="47.28434" lon="-1.61417">
        <ele>100</ele>
        <time>2022-01-27T15:29:37Z</time>
      </trkpt>
      <trkpt lat="47.28436" lon="-1.61417">
        <ele>100</ele>
        <time>2022-01-27T15:29:38Z</time>
      </trkpt>
      <trkpt lat="47.28437" lon="-1.61417">
        <ele>100</ele>
        <time>2022-01-27T15:29:39Z</time>
      </trkpt>
      <trkpt lat="47.28439" lon="-1.61418">
        <ele>100</ele>
        <time>2022-01-27T15:29:40Z</time>
      </trkpt>
      <trkpt lat="47.2844" lon="-1.61418">
        <ele>101</ele>
        <time>2022-01-27T15:29:41Z</time>
      </trkpt>
      <trkpt lat="47.28441" lon="-1.61418">
        <ele>101</ele>
        <time>2022-01-27T15:29:42Z</time>
      </trkpt>
      <trkpt lat="47.28442" lon="-1.61419">
        <ele>101</ele>
        <time>2022-01-27T15:29:43Z</time>
      </trkpt>
      <trkpt lat="47.28444" lon="-1.61419">
        <ele>101</ele>
        <time>2022-01-27T15:29:44Z</time>
      </trkpt>
      <trkpt lat="47.28445" lon="-1.61419">
        <ele>101</ele>
        <time>2022-01-27T15:29:45Z</time>
      </trkpt>
      <trkpt lat="47.28447" lon="-1.61419">
        <ele>100</ele>
        <time>2022-01-27T15:29:46Z</time>
      </trkpt>
      <trkpt lat="47.28448" lon="-1.61419">
        <ele>100</ele>
        <time>2022-01-27T15:29:47Z</time>
      </trkpt>
      <trkpt lat="47.28449" lon="-1.61419">
        <ele>101</ele>
        <time>2022-01-27T15:29:48Z</time>
      </trkpt>
      <trkpt lat="47.2845" lon="-1.61419">
        <ele>101</ele>
        <time>2022-01-27T15:29:49Z</time>
      </trkpt>
      <trkpt lat="47.2845" lon="-1.61418">
        <ele>101</ele>
        <time>2022-01-27T15:29:50Z</time>
      </trkpt>
      <trkpt lat="47.28452" lon="-1.61418">
        <ele>101</ele>
        <time>2022-01-27T15:29:51Z</time>
      </trkpt>
      <trkpt lat="47.28452" lon="-1.61418">
        <ele>101</ele>
        <time>2022-01-27T15:29:52Z</time>
      </trkpt>
      <trkpt lat="47.28452" lon="-1.61418">
        <ele>101</ele>
        <time>2022-01-27T15:29:53Z</time>
      </trkpt>
      <trkpt lat="47.28453" lon="-1.61417">
        <ele>101</ele>
        <time>2022-01-27T15:29:54Z</time>
      </trkpt>
      <trkpt lat="47.28453" lon="-1.61417">
        <ele>101</ele>
        <time>2022-01-27T15:29:55Z</time>
      </trkpt>
      <trkpt lat="47.28454" lon="-1.61417">
        <ele>101</ele>
        <time>2022-01-27T15:29:56Z</time>
      </trkpt>
      <trkpt lat="47.28455" lon="-1.61417">
        <ele>100</ele>
        <time>2022-01-27T15:29:57Z</time>
      </trkpt>
      <trkpt lat="47.28456" lon="-1.61417">
        <ele>100</ele>
        <time>2022-01-27T15:29:58Z</time>
      </trkpt>
      <trkpt lat="47.28458" lon="-1.61417">
        <ele>100</ele>
        <time>2022-01-27T15:29:59Z</time>
      </trkpt>
      <trkpt lat="47.28458" lon="-1.61417">
        <ele>100</ele>
        <time>2022-01-27T15:30:00Z</time>
      </trkpt>
      <trkpt lat="47.28459" lon="-1.61416">
        <ele>100</ele>
        <time>2022-01-27T15:30:01Z</time>
      </trkpt>
      <trkpt lat="47.2846" lon="-1.61416">
        <ele>101</ele>
        <time>2022-01-27T15:30:02Z</time>
      </trkpt>
      <trkpt lat="47.28461" lon="-1.61417">
        <ele>101</ele>
        <time>2022-01-27T15:30:03Z</time>
      </trkpt>
      <trkpt lat="47.28462" lon="-1.61417">
        <ele>101</ele>
        <time>2022-01-27T15:30:04Z</time>
      </trkpt>
      <trkpt lat="47.28463" lon="-1.61417">
        <ele>100</ele>
        <time>2022-01-27T15:30:05Z</time>
      </trkpt>
      <trkpt lat="47.28463" lon="-1.61417">
        <ele>101</ele>
        <time>2022-01-27T15:30:06Z</time>
      </trkpt>
      <trkpt lat="47.28463" lon="-1.61417">
        <ele>101</ele>
        <time>2022-01-27T15:30:07Z</time>
      </trkpt>
      <trkpt lat="47.28463" lon="-1.61417">
        <ele>101</ele>
        <time>2022-01-27T15:30:08Z</time>
      </trkpt>
      <trkpt lat="47.28466" lon="-1.61418">
        <ele>101</ele>
        <time>2022-01-27T15:30:09Z</time>
      </trkpt>
      <trkpt lat="47.28467" lon="-1.61418">
        <ele>101</ele>
        <time>2022-01-27T15:30:10Z</time>
      </trkpt>
      <trkpt lat="47.28468" lon="-1.61418">
        <ele>101</ele>
        <time>2022-01-27T15:30:11Z</time>
      </trkpt>
      <trkpt lat="47.2847" lon="-1.61419">
        <ele>101</ele>
        <time>2022-01-27T15:30:12Z</time>
      </trkpt>
      <trkpt lat="47.2847" lon="-1.61419">
        <ele>101</ele>
        <time>2022-01-27T15:30:13Z</time>
      </trkpt>
      <trkpt lat="47.2847" lon="-1.61419">
        <ele>101</ele>
        <time>2022-01-27T15:30:14Z</time>
      </trkpt>
      <trkpt lat="47.2847" lon="-1.61419">
        <ele>101</ele>
        <time>2022-01-27T15:30:15Z</time>
      </trkpt>
      <trkpt lat="47.28474" lon="-1.6142">
        <ele>102</ele>
        <time>2022-01-27T15:30:16Z</time>
      </trkpt>
      <trkpt lat="47.28474" lon="-1.6142">
        <ele>102</ele>
        <time>2022-01-27T15:30:17Z</time>
      </trkpt>
      <trkpt lat="47.28476" lon="-1.61421">
        <ele>101</ele>
        <time>2022-01-27T15:30:18Z</time>
      </trkpt>
      <trkpt lat="47.28477" lon="-1.61421">
        <ele>102</ele>
        <time>2022-01-27T15:30:19Z</time>
      </trkpt>
      <trkpt lat="47.28479" lon="-1.61422">
        <ele>102</ele>
        <time>2022-01-27T15:30:20Z</time>
      </trkpt>
      <trkpt lat="47.2848" lon="-1.61422">
        <ele>102</ele>
        <time>2022-01-27T15:30:21Z</time>
      </trkpt>
      <trkpt lat="47.28481" lon="-1.61423">
        <ele>102</ele>
        <time>2022-01-27T15:30:22Z</time>
      </trkpt>
      <trkpt lat="47.28482" lon="-1.61424">
        <ele>102</ele>
        <time>2022-01-27T15:30:23Z</time>
      </trkpt>
      <trkpt lat="47.28483" lon="-1.61424">
        <ele>102</ele>
        <time>2022-01-27T15:30:24Z</time>
      </trkpt>
      <trkpt lat="47.28484" lon="-1.61425">
        <ele>102</ele>
        <time>2022-01-27T15:30:25Z</time>
      </trkpt>
      <trkpt lat="47.28485" lon="-1.61426">
        <ele>102</ele>
        <time>2022-01-27T15:30:26Z</time>
      </trkpt>
      <trkpt lat="47.28486" lon="-1.61427">
        <ele>102</ele>
        <time>2022-01-27T15:30:27Z</time>
      </trkpt>
      <trkpt lat="47.28487" lon="-1.61428">
        <ele>102</ele>
        <time>2022-01-27T15:30:28Z</time>
      </trkpt>
      <trkpt lat="47.28488" lon="-1.61429">
        <ele>102</ele>
        <time>2022-01-27T15:30:29Z</time>
      </trkpt>
      <trkpt lat="47.28488" lon="-1.61429">
        <ele>102</ele>
        <time>2022-01-27T15:30:30Z</time>
      </trkpt>
      <trkpt lat="47.28488" lon="-1.61429">
        <ele>102</ele>
        <time>2022-01-27T15:30:31Z</time>
      </trkpt>
      <trkpt lat="47.2849" lon="-1.61431">
        <ele>102</ele>
        <time>2022-01-27T15:30:32Z</time>
      </trkpt>
      <trkpt lat="47.28492" lon="-1.61432">
        <ele>102</ele>
        <time>2022-01-27T15:30:33Z</time>
      </trkpt>
      <trkpt lat="47.28493" lon="-1.61433">
        <ele>101</ele>
        <time>2022-01-27T15:30:34Z</time>
      </trkpt>
      <trkpt lat="47.28494" lon="-1.61434">
        <ele>101</ele>
        <time>2022-01-27T15:30:35Z</time>
      </trkpt>
      <trkpt lat="47.28495" lon="-1.61435">
        <ele>101</ele>
        <time>2022-01-27T15:30:36Z</time>
      </trkpt>
      <trkpt lat="47.28497" lon="-1.61436">
        <ele>101</ele>
        <time>2022-01-27T15:30:37Z</time>
      </trkpt>
      <trkpt lat="47.28498" lon="-1.61437">
        <ele>101</ele>
        <time>2022-01-27T15:30:38Z</time>
      </trkpt>
      <trkpt lat="47.28499" lon="-1.61438">
        <ele>102</ele>
        <time>2022-01-27T15:30:39Z</time>
      </trkpt>
      <trkpt lat="47.285" lon="-1.61439">
        <ele>102</ele>
        <time>2022-01-27T15:30:40Z</time>
      </trkpt>
      <trkpt lat="47.28501" lon="-1.61441">
        <ele>101</ele>
        <time>2022-01-27T15:30:41Z</time>
      </trkpt>
      <trkpt lat="47.28503" lon="-1.61442">
        <ele>101</ele>
        <time>2022-01-27T15:30:42Z</time>
      </trkpt>
      <trkpt lat="47.28504" lon="-1.61444">
        <ele>101</ele>
        <time>2022-01-27T15:30:43Z</time>
      </trkpt>
      <trkpt lat="47.28505" lon="-1.61445">
        <ele>101</ele>
        <time>2022-01-27T15:30:44Z</time>
      </trkpt>
      <trkpt lat="47.28507" lon="-1.61447">
        <ele>101</ele>
        <time>2022-01-27T15:30:45Z</time>
      </trkpt>
      <trkpt lat="47.28508" lon="-1.61448">
        <ele>102</ele>
        <time>2022-01-27T15:30:46Z</time>
      </trkpt>
      <trkpt lat="47.28509" lon="-1.6145">
        <ele>102</ele>
        <time>2022-01-27T15:30:47Z</time>
      </trkpt>
      <trkpt lat="47.2851" lon="-1.61452">
        <ele>101</ele>
        <time>2022-01-27T15:30:48Z</time>
      </trkpt>
      <trkpt lat="47.28511" lon="-1.61453">
        <ele>101</ele>
        <time>2022-01-27T15:30:49Z</time>
      </trkpt>
      <trkpt lat="47.28513" lon="-1.61455">
        <ele>102</ele>
        <time>2022-01-27T15:30:50Z</time>
      </trkpt>
      <trkpt lat="47.28514" lon="-1.61456">
        <ele>102</ele>
        <time>2022-01-27T15:30:51Z</time>
      </trkpt>
      <trkpt lat="47.28515" lon="-1.61457">
        <ele>101</ele>
        <time>2022-01-27T15:30:52Z</time>
      </trkpt>
      <trkpt lat="47.28516" lon="-1.61459">
        <ele>101</ele>
        <time>2022-01-27T15:30:53Z</time>
      </trkpt>
      <trkpt lat="47.28516" lon="-1.6146">
        <ele>101</ele>
        <time>2022-01-27T15:30:54Z</time>
      </trkpt>
      <trkpt lat="47.28518" lon="-1.6146">
        <ele>101</ele>
        <time>2022-01-27T15:30:55Z</time>
      </trkpt>
      <trkpt lat="47.28518" lon="-1.6146">
        <ele>101</ele>
        <time>2022-01-27T15:30:56Z</time>
      </trkpt>
      <trkpt lat="47.28518" lon="-1.6146">
        <ele>101</ele>
        <time>2022-01-27T15:30:57Z</time>
      </trkpt>
      <trkpt lat="47.28518" lon="-1.6146">
        <ele>101</ele>
        <time>2022-01-27T15:30:58Z</time>
      </trkpt>
      <trkpt lat="47.2852" lon="-1.61463">
        <ele>101</ele>
        <time>2022-01-27T15:30:59Z</time>
      </trkpt>
      <trkpt lat="47.28521" lon="-1.61464">
        <ele>101</ele>
        <time>2022-01-27T15:31:00Z</time>
      </trkpt>
      <trkpt lat="47.28522" lon="-1.61466">
        <ele>100</ele>
        <time>2022-01-27T15:31:01Z</time>
      </trkpt>
      <trkpt lat="47.28523" lon="-1.61467">
        <ele>100</ele>
        <time>2022-01-27T15:31:02Z</time>
      </trkpt>
      <trkpt lat="47.28524" lon="-1.61468">
        <ele>100</ele>
        <time>2022-01-27T15:31:03Z</time>
      </trkpt>
      <trkpt lat="47.28525" lon="-1.6147">
        <ele>100</ele>
        <time>2022-01-27T15:31:04Z</time>
      </trkpt>
      <trkpt lat="47.28526" lon="-1.61471">
        <ele>100</ele>
        <time>2022-01-27T15:31:05Z</time>
      </trkpt>
      <trkpt lat="47.28527" lon="-1.61473">
        <ele>99</ele>
        <time>2022-01-27T15:31:06Z</time>
      </trkpt>
      <trkpt lat="47.28528" lon="-1.61475">
        <ele>99</ele>
        <time>2022-01-27T15:31:07Z</time>
      </trkpt>
      <trkpt lat="47.28529" lon="-1.61476">
        <ele>99</ele>
        <time>2022-01-27T15:31:08Z</time>
      </trkpt>
      <trkpt lat="47.2853" lon="-1.61477">
        <ele>99</ele>
        <time>2022-01-27T15:31:09Z</time>
      </trkpt>
      <trkpt lat="47.28531" lon="-1.61478">
        <ele>100</ele>
        <time>2022-01-27T15:31:10Z</time>
      </trkpt>
      <trkpt lat="47.28532" lon="-1.61479">
        <ele>100</ele>
        <time>2022-01-27T15:31:11Z</time>
      </trkpt>
      <trkpt lat="47.28534" lon="-1.61481">
        <ele>100</ele>
        <time>2022-01-27T15:31:12Z</time>
      </trkpt>
      <trkpt lat="47.28535" lon="-1.61483">
        <ele>99</ele>
        <time>2022-01-27T15:31:13Z</time>
      </trkpt>
      <trkpt lat="47.28536" lon="-1.61484">
        <ele>99</ele>
        <time>2022-01-27T15:31:14Z</time>
      </trkpt>
      <trkpt lat="47.28537" lon="-1.61485">
        <ele>99</ele>
        <time>2022-01-27T15:31:15Z</time>
      </trkpt>
      <trkpt lat="47.28539" lon="-1.61486">
        <ele>99</ele>
        <time>2022-01-27T15:31:16Z</time>
      </trkpt>
      <trkpt lat="47.2854" lon="-1.61487">
        <ele>99</ele>
        <time>2022-01-27T15:31:17Z</time>
      </trkpt>
      <trkpt lat="47.28541" lon="-1.61488">
        <ele>99</ele>
        <time>2022-01-27T15:31:18Z</time>
      </trkpt>
      <trkpt lat="47.28543" lon="-1.61489">
        <ele>99</ele>
        <time>2022-01-27T15:31:19Z</time>
      </trkpt>
      <trkpt lat="47.28545" lon="-1.6149">
        <ele>99</ele>
        <time>2022-01-27T15:31:20Z</time>
      </trkpt>
      <trkpt lat="47.28546" lon="-1.61491">
        <ele>98</ele>
        <time>2022-01-27T15:31:21Z</time>
      </trkpt>
      <trkpt lat="47.28548" lon="-1.61492">
        <ele>98</ele>
        <time>2022-01-27T15:31:22Z</time>
      </trkpt>
      <trkpt lat="47.2855" lon="-1.61493">
        <ele>98</ele>
        <time>2022-01-27T15:31:23Z</time>
      </trkpt>
      <trkpt lat="47.28551" lon="-1.61494">
        <ele>98</ele>
        <time>2022-01-27T15:31:24Z</time>
      </trkpt>
      <trkpt lat="47.28552" lon="-1.61495">
        <ele>98</ele>
        <time>2022-01-27T15:31:25Z</time>
      </trkpt>
      <trkpt lat="47.28553" lon="-1.61496">
        <ele>98</ele>
        <time>2022-01-27T15:31:26Z</time>
      </trkpt>
      <trkpt lat="47.28555" lon="-1.61497">
        <ele>98</ele>
        <time>2022-01-27T15:31:27Z</time>
      </trkpt>
      <trkpt lat="47.28556" lon="-1.61498">
        <ele>97</ele>
        <time>2022-01-27T15:31:28Z</time>
      </trkpt>
      <trkpt lat="47.28558" lon="-1.61499">
        <ele>97</ele>
        <time>2022-01-27T15:31:29Z</time>
      </trkpt>
      <trkpt lat="47.28559" lon="-1.615">
        <ele>97</ele>
        <time>2022-01-27T15:31:30Z</time>
      </trkpt>
      <trkpt lat="47.28559" lon="-1.615">
        <ele>97</ele>
        <time>2022-01-27T15:31:31Z</time>
      </trkpt>
      <trkpt lat="47.28561" lon="-1.61501">
        <ele>98</ele>
        <time>2022-01-27T15:31:32Z</time>
      </trkpt>
      <trkpt lat="47.28563" lon="-1.61501">
        <ele>97</ele>
        <time>2022-01-27T15:31:33Z</time>
      </trkpt>
      <trkpt lat="47.28564" lon="-1.61502">
        <ele>97</ele>
        <time>2022-01-27T15:31:34Z</time>
      </trkpt>
      <trkpt lat="47.28566" lon="-1.61502">
        <ele>98</ele>
        <time>2022-01-27T15:31:35Z</time>
      </trkpt>
      <trkpt lat="47.28568" lon="-1.61502">
        <ele>98</ele>
        <time>2022-01-27T15:31:36Z</time>
      </trkpt>
      <trkpt lat="47.28569" lon="-1.61502">
        <ele>98</ele>
        <time>2022-01-27T15:31:37Z</time>
      </trkpt>
      <trkpt lat="47.2857" lon="-1.61501">
        <ele>98</ele>
        <time>2022-01-27T15:31:38Z</time>
      </trkpt>
      <trkpt lat="47.28572" lon="-1.615">
        <ele>98</ele>
        <time>2022-01-27T15:31:39Z</time>
      </trkpt>
      <trkpt lat="47.28573" lon="-1.61499">
        <ele>98</ele>
        <time>2022-01-27T15:31:40Z</time>
      </trkpt>
      <trkpt lat="47.28576" lon="-1.61498">
        <ele>98</ele>
        <time>2022-01-27T15:31:41Z</time>
      </trkpt>
      <trkpt lat="47.28578" lon="-1.61497">
        <ele>99</ele>
        <time>2022-01-27T15:31:42Z</time>
      </trkpt>
      <trkpt lat="47.2858" lon="-1.61496">
        <ele>100</ele>
        <time>2022-01-27T15:31:43Z</time>
      </trkpt>
      <trkpt lat="47.28582" lon="-1.61494">
        <ele>100</ele>
        <time>2022-01-27T15:31:44Z</time>
      </trkpt>
      <trkpt lat="47.28584" lon="-1.61493">
        <ele>100</ele>
        <time>2022-01-27T15:31:45Z</time>
      </trkpt>
      <trkpt lat="47.28585" lon="-1.61492">
        <ele>101</ele>
        <time>2022-01-27T15:31:46Z</time>
      </trkpt>
      <trkpt lat="47.28587" lon="-1.6149">
        <ele>101</ele>
        <time>2022-01-27T15:31:47Z</time>
      </trkpt>
      <trkpt lat="47.2859" lon="-1.61488">
        <ele>101</ele>
        <time>2022-01-27T15:31:48Z</time>
      </trkpt>
      <trkpt lat="47.28592" lon="-1.61487">
        <ele>101</ele>
        <time>2022-01-27T15:31:49Z</time>
      </trkpt>
      <trkpt lat="47.28593" lon="-1.61487">
        <ele>102</ele>
        <time>2022-01-27T15:31:50Z</time>
      </trkpt>
      <trkpt lat="47.28595" lon="-1.61486">
        <ele>102</ele>
        <time>2022-01-27T15:31:51Z</time>
      </trkpt>
      <trkpt lat="47.28597" lon="-1.61485">
        <ele>102</ele>
        <time>2022-01-27T15:31:52Z</time>
      </trkpt>
      <trkpt lat="47.28598" lon="-1.61483">
        <ele>102</ele>
        <time>2022-01-27T15:31:53Z</time>
      </trkpt>
      <trkpt lat="47.28599" lon="-1.61483">
        <ele>102</ele>
        <time>2022-01-27T15:31:54Z</time>
      </trkpt>
      <trkpt lat="47.28601" lon="-1.61482">
        <ele>102</ele>
        <time>2022-01-27T15:31:55Z</time>
      </trkpt>
      <trkpt lat="47.28602" lon="-1.61481">
        <ele>103</ele>
        <time>2022-01-27T15:31:56Z</time>
      </trkpt>
      <trkpt lat="47.28603" lon="-1.6148">
        <ele>103</ele>
        <time>2022-01-27T15:31:57Z</time>
      </trkpt>
      <trkpt lat="47.28605" lon="-1.61478">
        <ele>103</ele>
        <time>2022-01-27T15:31:58Z</time>
      </trkpt>
      <trkpt lat="47.28606" lon="-1.61477">
        <ele>103</ele>
        <time>2022-01-27T15:31:59Z</time>
      </trkpt>
      <trkpt lat="47.28607" lon="-1.61476">
        <ele>104</ele>
        <time>2022-01-27T15:32:00Z</time>
      </trkpt>
      <trkpt lat="47.28608" lon="-1.61475">
        <ele>104</ele>
        <time>2022-01-27T15:32:01Z</time>
      </trkpt>
      <trkpt lat="47.2861" lon="-1.61474">
        <ele>104</ele>
        <time>2022-01-27T15:32:02Z</time>
      </trkpt>
      <trkpt lat="47.2861" lon="-1.61473">
        <ele>104</ele>
        <time>2022-01-27T15:32:03Z</time>
      </trkpt>
      <trkpt lat="47.28612" lon="-1.61472">
        <ele>104</ele>
        <time>2022-01-27T15:32:04Z</time>
      </trkpt>
      <trkpt lat="47.28613" lon="-1.6147">
        <ele>104</ele>
        <time>2022-01-27T15:32:05Z</time>
      </trkpt>
      <trkpt lat="47.28614" lon="-1.61469">
        <ele>104</ele>
        <time>2022-01-27T15:32:06Z</time>
      </trkpt>
      <trkpt lat="47.28615" lon="-1.61468">
        <ele>104</ele>
        <time>2022-01-27T15:32:07Z</time>
      </trkpt>
      <trkpt lat="47.28616" lon="-1.61468">
        <ele>104</ele>
        <time>2022-01-27T15:32:08Z</time>
      </trkpt>
      <trkpt lat="47.28617" lon="-1.61468">
        <ele>104</ele>
        <time>2022-01-27T15:32:09Z</time>
      </trkpt>
      <trkpt lat="47.28618" lon="-1.61467">
        <ele>104</ele>
        <time>2022-01-27T15:32:10Z</time>
      </trkpt>
      <trkpt lat="47.28619" lon="-1.61466">
        <ele>105</ele>
        <time>2022-01-27T15:32:11Z</time>
      </trkpt>
      <trkpt lat="47.2862" lon="-1.61465">
        <ele>104</ele>
        <time>2022-01-27T15:32:12Z</time>
      </trkpt>
      <trkpt lat="47.28621" lon="-1.61464">
        <ele>104</ele>
        <time>2022-01-27T15:32:13Z</time>
      </trkpt>
      <trkpt lat="47.28621" lon="-1.61463">
        <ele>104</ele>
        <time>2022-01-27T15:32:14Z</time>
      </trkpt>
      <trkpt lat="47.28622" lon="-1.61462">
        <ele>105</ele>
        <time>2022-01-27T15:32:15Z</time>
      </trkpt>
      <trkpt lat="47.28624" lon="-1.61461">
        <ele>105</ele>
        <time>2022-01-27T15:32:16Z</time>
      </trkpt>
      <trkpt lat="47.28624" lon="-1.6146">
        <ele>105</ele>
        <time>2022-01-27T15:32:17Z</time>
      </trkpt>
      <trkpt lat="47.28626" lon="-1.61459">
        <ele>105</ele>
        <time>2022-01-27T15:32:18Z</time>
      </trkpt>
      <trkpt lat="47.28627" lon="-1.61458">
        <ele>105</ele>
        <time>2022-01-27T15:32:19Z</time>
      </trkpt>
      <trkpt lat="47.28628" lon="-1.61457">
        <ele>106</ele>
        <time>2022-01-27T15:32:20Z</time>
      </trkpt>
      <trkpt lat="47.28629" lon="-1.61456">
        <ele>106</ele>
        <time>2022-01-27T15:32:21Z</time>
      </trkpt>
      <trkpt lat="47.2863" lon="-1.61455">
        <ele>106</ele>
        <time>2022-01-27T15:32:22Z</time>
      </trkpt>
      <trkpt lat="47.28631" lon="-1.61454">
        <ele>106</ele>
        <time>2022-01-27T15:32:23Z</time>
      </trkpt>
      <trkpt lat="47.28632" lon="-1.61453">
        <ele>106</ele>
        <time>2022-01-27T15:32:24Z</time>
      </trkpt>
      <trkpt lat="47.28634" lon="-1.61453">
        <ele>106</ele>
        <time>2022-01-27T15:32:25Z</time>
      </trkpt>
      <trkpt lat="47.28635" lon="-1.61452">
        <ele>106</ele>
        <time>2022-01-27T15:32:26Z</time>
      </trkpt>
      <trkpt lat="47.28636" lon="-1.61451">
        <ele>106</ele>
        <time>2022-01-27T15:32:27Z</time>
      </trkpt>
      <trkpt lat="47.28637" lon="-1.61451">
        <ele>106</ele>
        <time>2022-01-27T15:32:28Z</time>
      </trkpt>
      <trkpt lat="47.28638" lon="-1.61451">
        <ele>106</ele>
        <time>2022-01-27T15:32:29Z</time>
      </trkpt>
      <trkpt lat="47.28639" lon="-1.61451">
        <ele>106</ele>
        <time>2022-01-27T15:32:30Z</time>
      </trkpt>
      <trkpt lat="47.2864" lon="-1.6145">
        <ele>106</ele>
        <time>2022-01-27T15:32:31Z</time>
      </trkpt>
      <trkpt lat="47.28642" lon="-1.61449">
        <ele>106</ele>
        <time>2022-01-27T15:32:32Z</time>
      </trkpt>
      <trkpt lat="47.28643" lon="-1.61448">
        <ele>107</ele>
        <time>2022-01-27T15:32:33Z</time>
      </trkpt>
      <trkpt lat="47.28644" lon="-1.61447">
        <ele>107</ele>
        <time>2022-01-27T15:32:34Z</time>
      </trkpt>
      <trkpt lat="47.28645" lon="-1.61446">
        <ele>107</ele>
        <time>2022-01-27T15:32:35Z</time>
      </trkpt>
      <trkpt lat="47.28646" lon="-1.61445">
        <ele>107</ele>
        <time>2022-01-27T15:32:36Z</time>
      </trkpt>
      <trkpt lat="47.28647" lon="-1.61444">
        <ele>107</ele>
        <time>2022-01-27T15:32:37Z</time>
      </trkpt>
      <trkpt lat="47.28647" lon="-1.61443">
        <ele>107</ele>
        <time>2022-01-27T15:32:38Z</time>
      </trkpt>
      <trkpt lat="47.28649" lon="-1.61442">
        <ele>107</ele>
        <time>2022-01-27T15:32:39Z</time>
      </trkpt>
      <trkpt lat="47.2865" lon="-1.61441">
        <ele>107</ele>
        <time>2022-01-27T15:32:40Z</time>
      </trkpt>
      <trkpt lat="47.28652" lon="-1.61441">
        <ele>107</ele>
        <time>2022-01-27T15:32:41Z</time>
      </trkpt>
      <trkpt lat="47.28653" lon="-1.61439">
        <ele>107</ele>
        <time>2022-01-27T15:32:42Z</time>
      </trkpt>
      <trkpt lat="47.28655" lon="-1.61438">
        <ele>107</ele>
        <time>2022-01-27T15:32:43Z</time>
      </trkpt>
      <trkpt lat="47.28656" lon="-1.61437">
        <ele>107</ele>
        <time>2022-01-27T15:32:44Z</time>
      </trkpt>
      <trkpt lat="47.28658" lon="-1.61436">
        <ele>107</ele>
        <time>2022-01-27T15:32:45Z</time>
      </trkpt>
      <trkpt lat="47.28659" lon="-1.61435">
        <ele>107</ele>
        <time>2022-01-27T15:32:46Z</time>
      </trkpt>
      <trkpt lat="47.2866" lon="-1.61435">
        <ele>107</ele>
        <time>2022-01-27T15:32:47Z</time>
      </trkpt>
      <trkpt lat="47.28661" lon="-1.61434">
        <ele>107</ele>
        <time>2022-01-27T15:32:48Z</time>
      </trkpt>
      <trkpt lat="47.28663" lon="-1.61433">
        <ele>107</ele>
        <time>2022-01-27T15:32:49Z</time>
      </trkpt>
      <trkpt lat="47.28664" lon="-1.61432">
        <ele>107</ele>
        <time>2022-01-27T15:32:50Z</time>
      </trkpt>
      <trkpt lat="47.28665" lon="-1.61432">
        <ele>107</ele>
        <time>2022-01-27T15:32:51Z</time>
      </trkpt>
      <trkpt lat="47.28667" lon="-1.61431">
        <ele>107</ele>
        <time>2022-01-27T15:32:52Z</time>
      </trkpt>
      <trkpt lat="47.28668" lon="-1.6143">
        <ele>107</ele>
        <time>2022-01-27T15:32:53Z</time>
      </trkpt>
      <trkpt lat="47.2867" lon="-1.6143">
        <ele>106</ele>
        <time>2022-01-27T15:32:54Z</time>
      </trkpt>
      <trkpt lat="47.28671" lon="-1.61429">
        <ele>106</ele>
        <time>2022-01-27T15:32:55Z</time>
      </trkpt>
      <trkpt lat="47.28672" lon="-1.61429">
        <ele>106</ele>
        <time>2022-01-27T15:32:56Z</time>
      </trkpt>
      <trkpt lat="47.28674" lon="-1.61428">
        <ele>106</ele>
        <time>2022-01-27T15:32:57Z</time>
      </trkpt>
      <trkpt lat="47.28675" lon="-1.61427">
        <ele>106</ele>
        <time>2022-01-27T15:32:58Z</time>
      </trkpt>
      <trkpt lat="47.28677" lon="-1.61426">
        <ele>105</ele>
        <time>2022-01-27T15:32:59Z</time>
      </trkpt>
      <trkpt lat="47.28677" lon="-1.61425">
        <ele>105</ele>
        <time>2022-01-27T15:33:00Z</time>
      </trkpt>
      <trkpt lat="47.28679" lon="-1.61424">
        <ele>105</ele>
        <time>2022-01-27T15:33:01Z</time>
      </trkpt>
      <trkpt lat="47.2868" lon="-1.61424">
        <ele>105</ele>
        <time>2022-01-27T15:33:02Z</time>
      </trkpt>
      <trkpt lat="47.28681" lon="-1.61423">
        <ele>105</ele>
        <time>2022-01-27T15:33:03Z</time>
      </trkpt>
      <trkpt lat="47.28682" lon="-1.61422">
        <ele>105</ele>
        <time>2022-01-27T15:33:04Z</time>
      </trkpt>
      <trkpt lat="47.28684" lon="-1.6142">
        <ele>105</ele>
        <time>2022-01-27T15:33:05Z</time>
      </trkpt>
      <trkpt lat="47.28685" lon="-1.61419">
        <ele>105</ele>
        <time>2022-01-27T15:33:06Z</time>
      </trkpt>
      <trkpt lat="47.28687" lon="-1.61418">
        <ele>105</ele>
        <time>2022-01-27T15:33:07Z</time>
      </trkpt>
      <trkpt lat="47.28687" lon="-1.61417">
        <ele>105</ele>
        <time>2022-01-27T15:33:08Z</time>
      </trkpt>
      <trkpt lat="47.28688" lon="-1.61416">
        <ele>105</ele>
        <time>2022-01-27T15:33:09Z</time>
      </trkpt>
      <trkpt lat="47.2869" lon="-1.61416">
        <ele>105</ele>
        <time>2022-01-27T15:33:10Z</time>
      </trkpt>
      <trkpt lat="47.28691" lon="-1.61415">
        <ele>105</ele>
        <time>2022-01-27T15:33:11Z</time>
      </trkpt>
      <trkpt lat="47.28692" lon="-1.61415">
        <ele>105</ele>
        <time>2022-01-27T15:33:12Z</time>
      </trkpt>
      <trkpt lat="47.28692" lon="-1.61416">
        <ele>105</ele>
        <time>2022-01-27T15:33:13Z</time>
      </trkpt>
      <trkpt lat="47.28693" lon="-1.61415">
        <ele>105</ele>
        <time>2022-01-27T15:33:14Z</time>
      </trkpt>
      <trkpt lat="47.28695" lon="-1.61415">
        <ele>105</ele>
        <time>2022-01-27T15:33:15Z</time>
      </trkpt>
      <trkpt lat="47.28696" lon="-1.61414">
        <ele>106</ele>
        <time>2022-01-27T15:33:16Z</time>
      </trkpt>
      <trkpt lat="47.28696" lon="-1.61414">
        <ele>105</ele>
        <time>2022-01-27T15:33:17Z</time>
      </trkpt>
      <trkpt lat="47.28697" lon="-1.61414">
        <ele>105</ele>
        <time>2022-01-27T15:33:18Z</time>
      </trkpt>
      <trkpt lat="47.28698" lon="-1.61413">
        <ele>104</ele>
        <time>2022-01-27T15:33:19Z</time>
      </trkpt>
      <trkpt lat="47.28699" lon="-1.61412">
        <ele>105</ele>
        <time>2022-01-27T15:33:20Z</time>
      </trkpt>
      <trkpt lat="47.287" lon="-1.61411">
        <ele>105</ele>
        <time>2022-01-27T15:33:21Z</time>
      </trkpt>
      <trkpt lat="47.287" lon="-1.61409">
        <ele>105</ele>
        <time>2022-01-27T15:33:22Z</time>
      </trkpt>
      <trkpt lat="47.28701" lon="-1.61408">
        <ele>104</ele>
        <time>2022-01-27T15:33:23Z</time>
      </trkpt>
      <trkpt lat="47.28702" lon="-1.61408">
        <ele>104</ele>
        <time>2022-01-27T15:33:24Z</time>
      </trkpt>
      <trkpt lat="47.28703" lon="-1.61407">
        <ele>104</ele>
        <time>2022-01-27T15:33:25Z</time>
      </trkpt>
      <trkpt lat="47.28704" lon="-1.61405">
        <ele>103</ele>
        <time>2022-01-27T15:33:26Z</time>
      </trkpt>
      <trkpt lat="47.28706" lon="-1.61404">
        <ele>104</ele>
        <time>2022-01-27T15:33:27Z</time>
      </trkpt>
      <trkpt lat="47.28706" lon="-1.61404">
        <ele>104</ele>
        <time>2022-01-27T15:33:28Z</time>
      </trkpt>
      <trkpt lat="47.28707" lon="-1.61403">
        <ele>104</ele>
        <time>2022-01-27T15:33:29Z</time>
      </trkpt>
      <trkpt lat="47.28708" lon="-1.61402">
        <ele>104</ele>
        <time>2022-01-27T15:33:30Z</time>
      </trkpt>
      <trkpt lat="47.28709" lon="-1.61401">
        <ele>104</ele>
        <time>2022-01-27T15:33:31Z</time>
      </trkpt>
      <trkpt lat="47.28711" lon="-1.614">
        <ele>104</ele>
        <time>2022-01-27T15:33:32Z</time>
      </trkpt>
      <trkpt lat="47.28711" lon="-1.61399">
        <ele>104</ele>
        <time>2022-01-27T15:33:33Z</time>
      </trkpt>
      <trkpt lat="47.28712" lon="-1.61398">
        <ele>104</ele>
        <time>2022-01-27T15:33:34Z</time>
      </trkpt>
      <trkpt lat="47.28713" lon="-1.61396">
        <ele>104</ele>
        <time>2022-01-27T15:33:35Z</time>
      </trkpt>
      <trkpt lat="47.28714" lon="-1.61394">
        <ele>104</ele>
        <time>2022-01-27T15:33:36Z</time>
      </trkpt>
      <trkpt lat="47.28715" lon="-1.61392">
        <ele>104</ele>
        <time>2022-01-27T15:33:37Z</time>
      </trkpt>
      <trkpt lat="47.28716" lon="-1.61391">
        <ele>103</ele>
        <time>2022-01-27T15:33:38Z</time>
      </trkpt>
      <trkpt lat="47.28717" lon="-1.61389">
        <ele>103</ele>
        <time>2022-01-27T15:33:39Z</time>
      </trkpt>
      <trkpt lat="47.28718" lon="-1.61387">
        <ele>103</ele>
        <time>2022-01-27T15:33:40Z</time>
      </trkpt>
      <trkpt lat="47.28719" lon="-1.61386">
        <ele>103</ele>
        <time>2022-01-27T15:33:41Z</time>
      </trkpt>
      <trkpt lat="47.2872" lon="-1.61384">
        <ele>103</ele>
        <time>2022-01-27T15:33:42Z</time>
      </trkpt>
      <trkpt lat="47.28721" lon="-1.61382">
        <ele>103</ele>
        <time>2022-01-27T15:33:43Z</time>
      </trkpt>
      <trkpt lat="47.28722" lon="-1.61381">
        <ele>103</ele>
        <time>2022-01-27T15:33:44Z</time>
      </trkpt>
      <trkpt lat="47.28722" lon="-1.61379">
        <ele>103</ele>
        <time>2022-01-27T15:33:45Z</time>
      </trkpt>
      <trkpt lat="47.28723" lon="-1.61378">
        <ele>102</ele>
        <time>2022-01-27T15:33:46Z</time>
      </trkpt>
      <trkpt lat="47.28724" lon="-1.61377">
        <ele>103</ele>
        <time>2022-01-27T15:33:47Z</time>
      </trkpt>
      <trkpt lat="47.28725" lon="-1.61376">
        <ele>103</ele>
        <time>2022-01-27T15:33:48Z</time>
      </trkpt>
      <trkpt lat="47.28726" lon="-1.61375">
        <ele>103</ele>
        <time>2022-01-27T15:33:49Z</time>
      </trkpt>
      <trkpt lat="47.28727" lon="-1.61374">
        <ele>103</ele>
        <time>2022-01-27T15:33:50Z</time>
      </trkpt>
      <trkpt lat="47.28728" lon="-1.61373">
        <ele>103</ele>
        <time>2022-01-27T15:33:51Z</time>
      </trkpt>
      <trkpt lat="47.28729" lon="-1.61371">
        <ele>103</ele>
        <time>2022-01-27T15:33:52Z</time>
      </trkpt>
      <trkpt lat="47.2873" lon="-1.61369">
        <ele>103</ele>
        <time>2022-01-27T15:33:53Z</time>
      </trkpt>
      <trkpt lat="47.28731" lon="-1.61368">
        <ele>103</ele>
        <time>2022-01-27T15:33:54Z</time>
      </trkpt>
      <trkpt lat="47.28732" lon="-1.61367">
        <ele>103</ele>
        <time>2022-01-27T15:33:55Z</time>
      </trkpt>
      <trkpt lat="47.28733" lon="-1.61365">
        <ele>103</ele>
        <time>2022-01-27T15:33:56Z</time>
      </trkpt>
      <trkpt lat="47.28733" lon="-1.61364">
        <ele>103</ele>
        <time>2022-01-27T15:33:57Z</time>
      </trkpt>
      <trkpt lat="47.28735" lon="-1.61362">
        <ele>103</ele>
        <time>2022-01-27T15:33:58Z</time>
      </trkpt>
      <trkpt lat="47.28735" lon="-1.61361">
        <ele>103</ele>
        <time>2022-01-27T15:33:59Z</time>
      </trkpt>
      <trkpt lat="47.28737" lon="-1.6136">
        <ele>103</ele>
        <time>2022-01-27T15:34:00Z</time>
      </trkpt>
      <trkpt lat="47.28738" lon="-1.61358">
        <ele>103</ele>
        <time>2022-01-27T15:34:01Z</time>
      </trkpt>
      <trkpt lat="47.28738" lon="-1.61357">
        <ele>103</ele>
        <time>2022-01-27T15:34:02Z</time>
      </trkpt>
      <trkpt lat="47.28739" lon="-1.61356">
        <ele>103</ele>
        <time>2022-01-27T15:34:03Z</time>
      </trkpt>
      <trkpt lat="47.2874" lon="-1.61354">
        <ele>102</ele>
        <time>2022-01-27T15:34:04Z</time>
      </trkpt>
      <trkpt lat="47.28741" lon="-1.61353">
        <ele>103</ele>
        <time>2022-01-27T15:34:05Z</time>
      </trkpt>
      <trkpt lat="47.28742" lon="-1.61352">
        <ele>103</ele>
        <time>2022-01-27T15:34:06Z</time>
      </trkpt>
      <trkpt lat="47.28743" lon="-1.6135">
        <ele>103</ele>
        <time>2022-01-27T15:34:07Z</time>
      </trkpt>
      <trkpt lat="47.28743" lon="-1.61348">
        <ele>103</ele>
        <time>2022-01-27T15:34:08Z</time>
      </trkpt>
      <trkpt lat="47.28744" lon="-1.61347">
        <ele>103</ele>
        <time>2022-01-27T15:34:09Z</time>
      </trkpt>
      <trkpt lat="47.28745" lon="-1.61345">
        <ele>104</ele>
        <time>2022-01-27T15:34:10Z</time>
      </trkpt>
      <trkpt lat="47.28746" lon="-1.61344">
        <ele>104</ele>
        <time>2022-01-27T15:34:11Z</time>
      </trkpt>
      <trkpt lat="47.28746" lon="-1.61342">
        <ele>104</ele>
        <time>2022-01-27T15:34:12Z</time>
      </trkpt>
      <trkpt lat="47.28747" lon="-1.6134">
        <ele>104</ele>
        <time>2022-01-27T15:34:13Z</time>
      </trkpt>
      <trkpt lat="47.28748" lon="-1.61338">
        <ele>104</ele>
        <time>2022-01-27T15:34:14Z</time>
      </trkpt>
      <trkpt lat="47.28748" lon="-1.61336">
        <ele>105</ele>
        <time>2022-01-27T15:34:15Z</time>
      </trkpt>
      <trkpt lat="47.2875" lon="-1.61334">
        <ele>105</ele>
        <time>2022-01-27T15:34:16Z</time>
      </trkpt>
      <trkpt lat="47.2875" lon="-1.61333">
        <ele>105</ele>
        <time>2022-01-27T15:34:17Z</time>
      </trkpt>
      <trkpt lat="47.28751" lon="-1.61331">
        <ele>105</ele>
        <time>2022-01-27T15:34:18Z</time>
      </trkpt>
      <trkpt lat="47.28752" lon="-1.6133">
        <ele>106</ele>
        <time>2022-01-27T15:34:19Z</time>
      </trkpt>
      <trkpt lat="47.28753" lon="-1.61328">
        <ele>106</ele>
        <time>2022-01-27T15:34:20Z</time>
      </trkpt>
      <trkpt lat="47.28754" lon="-1.61326">
        <ele>105</ele>
        <time>2022-01-27T15:34:21Z</time>
      </trkpt>
      <trkpt lat="47.28754" lon="-1.61324">
        <ele>105</ele>
        <time>2022-01-27T15:34:22Z</time>
      </trkpt>
      <trkpt lat="47.28756" lon="-1.61323">
        <ele>105</ele>
        <time>2022-01-27T15:34:23Z</time>
      </trkpt>
      <trkpt lat="47.28756" lon="-1.61321">
        <ele>104</ele>
        <time>2022-01-27T15:34:24Z</time>
      </trkpt>
      <trkpt lat="47.28758" lon="-1.61319">
        <ele>104</ele>
        <time>2022-01-27T15:34:25Z</time>
      </trkpt>
      <trkpt lat="47.28758" lon="-1.61318">
        <ele>104</ele>
        <time>2022-01-27T15:34:26Z</time>
      </trkpt>
      <trkpt lat="47.28759" lon="-1.61316">
        <ele>104</ele>
        <time>2022-01-27T15:34:27Z</time>
      </trkpt>
      <trkpt lat="47.2876" lon="-1.61314">
        <ele>104</ele>
        <time>2022-01-27T15:34:28Z</time>
      </trkpt>
      <trkpt lat="47.2876" lon="-1.61313">
        <ele>104</ele>
        <time>2022-01-27T15:34:29Z</time>
      </trkpt>
      <trkpt lat="47.28761" lon="-1.61312">
        <ele>104</ele>
        <time>2022-01-27T15:34:30Z</time>
      </trkpt>
      <trkpt lat="47.28762" lon="-1.6131">
        <ele>104</ele>
        <time>2022-01-27T15:34:31Z</time>
      </trkpt>
      <trkpt lat="47.28763" lon="-1.61309">
        <ele>105</ele>
        <time>2022-01-27T15:34:32Z</time>
      </trkpt>
      <trkpt lat="47.28764" lon="-1.61307">
        <ele>105</ele>
        <time>2022-01-27T15:34:33Z</time>
      </trkpt>
      <trkpt lat="47.28765" lon="-1.61306">
        <ele>106</ele>
        <time>2022-01-27T15:34:34Z</time>
      </trkpt>
      <trkpt lat="47.28766" lon="-1.61304">
        <ele>106</ele>
        <time>2022-01-27T15:34:35Z</time>
      </trkpt>
      <trkpt lat="47.28767" lon="-1.61303">
        <ele>106</ele>
        <time>2022-01-27T15:34:36Z</time>
      </trkpt>
      <trkpt lat="47.28767" lon="-1.61302">
        <ele>106</ele>
        <time>2022-01-27T15:34:37Z</time>
      </trkpt>
      <trkpt lat="47.28768" lon="-1.613">
        <ele>106</ele>
        <time>2022-01-27T15:34:38Z</time>
      </trkpt>
      <trkpt lat="47.28769" lon="-1.61298">
        <ele>106</ele>
        <time>2022-01-27T15:34:39Z</time>
      </trkpt>
      <trkpt lat="47.28769" lon="-1.61297">
        <ele>106</ele>
        <time>2022-01-27T15:34:40Z</time>
      </trkpt>
      <trkpt lat="47.2877" lon="-1.61296">
        <ele>106</ele>
        <time>2022-01-27T15:34:41Z</time>
      </trkpt>
      <trkpt lat="47.28771" lon="-1.61294">
        <ele>106</ele>
        <time>2022-01-27T15:34:42Z</time>
      </trkpt>
      <trkpt lat="47.28772" lon="-1.61293">
        <ele>106</ele>
        <time>2022-01-27T15:34:43Z</time>
      </trkpt>
      <trkpt lat="47.28773" lon="-1.61292">
        <ele>106</ele>
        <time>2022-01-27T15:34:44Z</time>
      </trkpt>
      <trkpt lat="47.28774" lon="-1.6129">
        <ele>105</ele>
        <time>2022-01-27T15:34:45Z</time>
      </trkpt>
      <trkpt lat="47.28775" lon="-1.61289">
        <ele>106</ele>
        <time>2022-01-27T15:34:46Z</time>
      </trkpt>
      <trkpt lat="47.28777" lon="-1.61288">
        <ele>106</ele>
        <time>2022-01-27T15:34:47Z</time>
      </trkpt>
      <trkpt lat="47.28778" lon="-1.61286">
        <ele>106</ele>
        <time>2022-01-27T15:34:48Z</time>
      </trkpt>
      <trkpt lat="47.28779" lon="-1.61284">
        <ele>106</ele>
        <time>2022-01-27T15:34:49Z</time>
      </trkpt>
      <trkpt lat="47.2878" lon="-1.61283">
        <ele>105</ele>
        <time>2022-01-27T15:34:50Z</time>
      </trkpt>
      <trkpt lat="47.28781" lon="-1.61281">
        <ele>106</ele>
        <time>2022-01-27T15:34:51Z</time>
      </trkpt>
      <trkpt lat="47.28782" lon="-1.6128">
        <ele>106</ele>
        <time>2022-01-27T15:34:52Z</time>
      </trkpt>
      <trkpt lat="47.28783" lon="-1.61278">
        <ele>106</ele>
        <time>2022-01-27T15:34:53Z</time>
      </trkpt>
      <trkpt lat="47.28784" lon="-1.61277">
        <ele>107</ele>
        <time>2022-01-27T15:34:54Z</time>
      </trkpt>
      <trkpt lat="47.28784" lon="-1.61275">
        <ele>107</ele>
        <time>2022-01-27T15:34:55Z</time>
      </trkpt>
      <trkpt lat="47.28785" lon="-1.61274">
        <ele>107</ele>
        <time>2022-01-27T15:34:56Z</time>
      </trkpt>
      <trkpt lat="47.28786" lon="-1.61272">
        <ele>107</ele>
        <time>2022-01-27T15:34:57Z</time>
      </trkpt>
      <trkpt lat="47.28787" lon="-1.61271">
        <ele>107</ele>
        <time>2022-01-27T15:34:58Z</time>
      </trkpt>
      <trkpt lat="47.28788" lon="-1.61269">
        <ele>107</ele>
        <time>2022-01-27T15:34:59Z</time>
      </trkpt>
      <trkpt lat="47.28788" lon="-1.61267">
        <ele>107</ele>
        <time>2022-01-27T15:35:00Z</time>
      </trkpt>
      <trkpt lat="47.2879" lon="-1.61266">
        <ele>107</ele>
        <time>2022-01-27T15:35:01Z</time>
      </trkpt>
      <trkpt lat="47.28791" lon="-1.61265">
        <ele>107</ele>
        <time>2022-01-27T15:35:02Z</time>
      </trkpt>
      <trkpt lat="47.28792" lon="-1.61264">
        <ele>108</ele>
        <time>2022-01-27T15:35:03Z</time>
      </trkpt>
      <trkpt lat="47.28793" lon="-1.61263">
        <ele>107</ele>
        <time>2022-01-27T15:35:04Z</time>
      </trkpt>
      <trkpt lat="47.28794" lon="-1.61261">
        <ele>107</ele>
        <time>2022-01-27T15:35:05Z</time>
      </trkpt>
      <trkpt lat="47.28795" lon="-1.6126">
        <ele>107</ele>
        <time>2022-01-27T15:35:06Z</time>
      </trkpt>
      <trkpt lat="47.28796" lon="-1.61258">
        <ele>107</ele>
        <time>2022-01-27T15:35:07Z</time>
      </trkpt>
      <trkpt lat="47.28796" lon="-1.61256">
        <ele>107</ele>
        <time>2022-01-27T15:35:08Z</time>
      </trkpt>
      <trkpt lat="47.28798" lon="-1.61254">
        <ele>108</ele>
        <time>2022-01-27T15:35:09Z</time>
      </trkpt>
      <trkpt lat="47.28799" lon="-1.61252">
        <ele>108</ele>
        <time>2022-01-27T15:35:10Z</time>
      </trkpt>
      <trkpt lat="47.28799" lon="-1.6125">
        <ele>108</ele>
        <time>2022-01-27T15:35:11Z</time>
      </trkpt>
      <trkpt lat="47.288" lon="-1.61249">
        <ele>108</ele>
        <time>2022-01-27T15:35:12Z</time>
      </trkpt>
      <trkpt lat="47.28801" lon="-1.61248">
        <ele>108</ele>
        <time>2022-01-27T15:35:13Z</time>
      </trkpt>
      <trkpt lat="47.28802" lon="-1.61246">
        <ele>108</ele>
        <time>2022-01-27T15:35:14Z</time>
      </trkpt>
      <trkpt lat="47.28803" lon="-1.61245">
        <ele>109</ele>
        <time>2022-01-27T15:35:15Z</time>
      </trkpt>
      <trkpt lat="47.28803" lon="-1.61244">
        <ele>108</ele>
        <time>2022-01-27T15:35:16Z</time>
      </trkpt>
      <trkpt lat="47.28804" lon="-1.61243">
        <ele>109</ele>
        <time>2022-01-27T15:35:17Z</time>
      </trkpt>
      <trkpt lat="47.28805" lon="-1.61241">
        <ele>109</ele>
        <time>2022-01-27T15:35:18Z</time>
      </trkpt>
      <trkpt lat="47.28806" lon="-1.6124">
        <ele>109</ele>
        <time>2022-01-27T15:35:19Z</time>
      </trkpt>
      <trkpt lat="47.28807" lon="-1.61238">
        <ele>108</ele>
        <time>2022-01-27T15:35:20Z</time>
      </trkpt>
      <trkpt lat="47.28807" lon="-1.61237">
        <ele>108</ele>
        <time>2022-01-27T15:35:21Z</time>
      </trkpt>
      <trkpt lat="47.28808" lon="-1.61236">
        <ele>108</ele>
        <time>2022-01-27T15:35:22Z</time>
      </trkpt>
      <trkpt lat="47.28809" lon="-1.61234">
        <ele>108</ele>
        <time>2022-01-27T15:35:23Z</time>
      </trkpt>
      <trkpt lat="47.28809" lon="-1.61233">
        <ele>108</ele>
        <time>2022-01-27T15:35:24Z</time>
      </trkpt>
      <trkpt lat="47.28811" lon="-1.61231">
        <ele>108</ele>
        <time>2022-01-27T15:35:25Z</time>
      </trkpt>
      <trkpt lat="47.28811" lon="-1.6123">
        <ele>108</ele>
        <time>2022-01-27T15:35:26Z</time>
      </trkpt>
      <trkpt lat="47.28812" lon="-1.61229">
        <ele>109</ele>
        <time>2022-01-27T15:35:27Z</time>
      </trkpt>
      <trkpt lat="47.28813" lon="-1.61227">
        <ele>109</ele>
        <time>2022-01-27T15:35:28Z</time>
      </trkpt>
      <trkpt lat="47.28814" lon="-1.61226">
        <ele>109</ele>
        <time>2022-01-27T15:35:29Z</time>
      </trkpt>
      <trkpt lat="47.28815" lon="-1.61224">
        <ele>108</ele>
        <time>2022-01-27T15:35:30Z</time>
      </trkpt>
      <trkpt lat="47.28816" lon="-1.61223">
        <ele>108</ele>
        <time>2022-01-27T15:35:31Z</time>
      </trkpt>
      <trkpt lat="47.28816" lon="-1.61222">
        <ele>108</ele>
        <time>2022-01-27T15:35:32Z</time>
      </trkpt>
      <trkpt lat="47.28817" lon="-1.6122">
        <ele>108</ele>
        <time>2022-01-27T15:35:33Z</time>
      </trkpt>
      <trkpt lat="47.28818" lon="-1.61219">
        <ele>108</ele>
        <time>2022-01-27T15:35:34Z</time>
      </trkpt>
      <trkpt lat="47.28819" lon="-1.61218">
        <ele>108</ele>
        <time>2022-01-27T15:35:35Z</time>
      </trkpt>
      <trkpt lat="47.2882" lon="-1.61217">
        <ele>108</ele>
        <time>2022-01-27T15:35:36Z</time>
      </trkpt>
      <trkpt lat="47.2882" lon="-1.61215">
        <ele>108</ele>
        <time>2022-01-27T15:35:37Z</time>
      </trkpt>
      <trkpt lat="47.28821" lon="-1.61214">
        <ele>108</ele>
        <time>2022-01-27T15:35:38Z</time>
      </trkpt>
      <trkpt lat="47.28822" lon="-1.61212">
        <ele>108</ele>
        <time>2022-01-27T15:35:39Z</time>
      </trkpt>
      <trkpt lat="47.28823" lon="-1.61211">
        <ele>108</ele>
        <time>2022-01-27T15:35:40Z</time>
      </trkpt>
      <trkpt lat="47.28824" lon="-1.61209">
        <ele>108</ele>
        <time>2022-01-27T15:35:41Z</time>
      </trkpt>
      <trkpt lat="47.28825" lon="-1.61208">
        <ele>108</ele>
        <time>2022-01-27T15:35:42Z</time>
      </trkpt>
      <trkpt lat="47.28825" lon="-1.61206">
        <ele>108</ele>
        <time>2022-01-27T15:35:43Z</time>
      </trkpt>
      <trkpt lat="47.28827" lon="-1.61205">
        <ele>108</ele>
        <time>2022-01-27T15:35:44Z</time>
      </trkpt>
      <trkpt lat="47.28827" lon="-1.61204">
        <ele>107</ele>
        <time>2022-01-27T15:35:45Z</time>
      </trkpt>
      <trkpt lat="47.28828" lon="-1.61203">
        <ele>107</ele>
        <time>2022-01-27T15:35:46Z</time>
      </trkpt>
      <trkpt lat="47.28829" lon="-1.61202">
        <ele>108</ele>
        <time>2022-01-27T15:35:47Z</time>
      </trkpt>
      <trkpt lat="47.2883" lon="-1.61201">
        <ele>108</ele>
        <time>2022-01-27T15:35:48Z</time>
      </trkpt>
      <trkpt lat="47.28832" lon="-1.61199">
        <ele>107</ele>
        <time>2022-01-27T15:35:49Z</time>
      </trkpt>
      <trkpt lat="47.28832" lon="-1.61198">
        <ele>107</ele>
        <time>2022-01-27T15:35:50Z</time>
      </trkpt>
      <trkpt lat="47.28833" lon="-1.61196">
        <ele>107</ele>
        <time>2022-01-27T15:35:51Z</time>
      </trkpt>
      <trkpt lat="47.28834" lon="-1.61195">
        <ele>107</ele>
        <time>2022-01-27T15:35:52Z</time>
      </trkpt>
      <trkpt lat="47.28835" lon="-1.61193">
        <ele>107</ele>
        <time>2022-01-27T15:35:53Z</time>
      </trkpt>
      <trkpt lat="47.28836" lon="-1.61191">
        <ele>107</ele>
        <time>2022-01-27T15:35:54Z</time>
      </trkpt>
      <trkpt lat="47.28837" lon="-1.6119">
        <ele>107</ele>
        <time>2022-01-27T15:35:55Z</time>
      </trkpt>
      <trkpt lat="47.28838" lon="-1.61188">
        <ele>107</ele>
        <time>2022-01-27T15:35:56Z</time>
      </trkpt>
      <trkpt lat="47.28839" lon="-1.61187">
        <ele>107</ele>
        <time>2022-01-27T15:35:57Z</time>
      </trkpt>
      <trkpt lat="47.2884" lon="-1.61186">
        <ele>107</ele>
        <time>2022-01-27T15:35:58Z</time>
      </trkpt>
      <trkpt lat="47.28841" lon="-1.61184">
        <ele>107</ele>
        <time>2022-01-27T15:35:59Z</time>
      </trkpt>
      <trkpt lat="47.28842" lon="-1.61183">
        <ele>107</ele>
        <time>2022-01-27T15:36:00Z</time>
      </trkpt>
      <trkpt lat="47.28843" lon="-1.61182">
        <ele>107</ele>
        <time>2022-01-27T15:36:01Z</time>
      </trkpt>
      <trkpt lat="47.28843" lon="-1.6118">
        <ele>107</ele>
        <time>2022-01-27T15:36:02Z</time>
      </trkpt>
      <trkpt lat="47.28844" lon="-1.61178">
        <ele>107</ele>
        <time>2022-01-27T15:36:03Z</time>
      </trkpt>
      <trkpt lat="47.28845" lon="-1.61177">
        <ele>107</ele>
        <time>2022-01-27T15:36:04Z</time>
      </trkpt>
      <trkpt lat="47.28846" lon="-1.61176">
        <ele>107</ele>
        <time>2022-01-27T15:36:05Z</time>
      </trkpt>
      <trkpt lat="47.28847" lon="-1.61174">
        <ele>107</ele>
        <time>2022-01-27T15:36:06Z</time>
      </trkpt>
      <trkpt lat="47.28848" lon="-1.61173">
        <ele>108</ele>
        <time>2022-01-27T15:36:07Z</time>
      </trkpt>
      <trkpt lat="47.28849" lon="-1.61171">
        <ele>108</ele>
        <time>2022-01-27T15:36:08Z</time>
      </trkpt>
      <trkpt lat="47.2885" lon="-1.6117">
        <ele>108</ele>
        <time>2022-01-27T15:36:09Z</time>
      </trkpt>
      <trkpt lat="47.28851" lon="-1.61168">
        <ele>108</ele>
        <time>2022-01-27T15:36:10Z</time>
      </trkpt>
      <trkpt lat="47.28851" lon="-1.61167">
        <ele>108</ele>
        <time>2022-01-27T15:36:11Z</time>
      </trkpt>
      <trkpt lat="47.28852" lon="-1.61165">
        <ele>108</ele>
        <time>2022-01-27T15:36:12Z</time>
      </trkpt>
      <trkpt lat="47.28853" lon="-1.61164">
        <ele>108</ele>
        <time>2022-01-27T15:36:13Z</time>
      </trkpt>
      <trkpt lat="47.28854" lon="-1.61163">
        <ele>108</ele>
        <time>2022-01-27T15:36:14Z</time>
      </trkpt>
      <trkpt lat="47.28854" lon="-1.61161">
        <ele>107</ele>
        <time>2022-01-27T15:36:15Z</time>
      </trkpt>
      <trkpt lat="47.28855" lon="-1.61159">
        <ele>108</ele>
        <time>2022-01-27T15:36:16Z</time>
      </trkpt>
      <trkpt lat="47.28856" lon="-1.61158">
        <ele>108</ele>
        <time>2022-01-27T15:36:17Z</time>
      </trkpt>
      <trkpt lat="47.28857" lon="-1.61156">
        <ele>108</ele>
        <time>2022-01-27T15:36:18Z</time>
      </trkpt>
      <trkpt lat="47.28858" lon="-1.61154">
        <ele>107</ele>
        <time>2022-01-27T15:36:19Z</time>
      </trkpt>
      <trkpt lat="47.28859" lon="-1.61153">
        <ele>107</ele>
        <time>2022-01-27T15:36:20Z</time>
      </trkpt>
      <trkpt lat="47.2886" lon="-1.61151">
        <ele>107</ele>
        <time>2022-01-27T15:36:21Z</time>
      </trkpt>
      <trkpt lat="47.28861" lon="-1.6115">
        <ele>107</ele>
        <time>2022-01-27T15:36:22Z</time>
      </trkpt>
      <trkpt lat="47.28862" lon="-1.61149">
        <ele>107</ele>
        <time>2022-01-27T15:36:23Z</time>
      </trkpt>
      <trkpt lat="47.28862" lon="-1.61148">
        <ele>107</ele>
        <time>2022-01-27T15:36:24Z</time>
      </trkpt>
      <trkpt lat="47.28863" lon="-1.61146">
        <ele>107</ele>
        <time>2022-01-27T15:36:25Z</time>
      </trkpt>
      <trkpt lat="47.28864" lon="-1.61145">
        <ele>107</ele>
        <time>2022-01-27T15:36:26Z</time>
      </trkpt>
      <trkpt lat="47.28865" lon="-1.61143">
        <ele>107</ele>
        <time>2022-01-27T15:36:27Z</time>
      </trkpt>
      <trkpt lat="47.28866" lon="-1.61142">
        <ele>107</ele>
        <time>2022-01-27T15:36:28Z</time>
      </trkpt>
      <trkpt lat="47.28867" lon="-1.61141">
        <ele>107</ele>
        <time>2022-01-27T15:36:29Z</time>
      </trkpt>
      <trkpt lat="47.28868" lon="-1.6114">
        <ele>107</ele>
        <time>2022-01-27T15:36:30Z</time>
      </trkpt>
      <trkpt lat="47.28869" lon="-1.61139">
        <ele>107</ele>
        <time>2022-01-27T15:36:31Z</time>
      </trkpt>
      <trkpt lat="47.2887" lon="-1.61138">
        <ele>107</ele>
        <time>2022-01-27T15:36:32Z</time>
      </trkpt>
      <trkpt lat="47.2887" lon="-1.61136">
        <ele>107</ele>
        <time>2022-01-27T15:36:33Z</time>
      </trkpt>
      <trkpt lat="47.28871" lon="-1.61135">
        <ele>107</ele>
        <time>2022-01-27T15:36:34Z</time>
      </trkpt>
      <trkpt lat="47.28872" lon="-1.61133">
        <ele>107</ele>
        <time>2022-01-27T15:36:35Z</time>
      </trkpt>
      <trkpt lat="47.28873" lon="-1.61131">
        <ele>107</ele>
        <time>2022-01-27T15:36:36Z</time>
      </trkpt>
      <trkpt lat="47.28873" lon="-1.6113">
        <ele>107</ele>
        <time>2022-01-27T15:36:37Z</time>
      </trkpt>
      <trkpt lat="47.28874" lon="-1.61129">
        <ele>108</ele>
        <time>2022-01-27T15:36:38Z</time>
      </trkpt>
      <trkpt lat="47.28875" lon="-1.61128">
        <ele>108</ele>
        <time>2022-01-27T15:36:39Z</time>
      </trkpt>
      <trkpt lat="47.28876" lon="-1.61127">
        <ele>108</ele>
        <time>2022-01-27T15:36:40Z</time>
      </trkpt>
      <trkpt lat="47.28877" lon="-1.61125">
        <ele>108</ele>
        <time>2022-01-27T15:36:41Z</time>
      </trkpt>
      <trkpt lat="47.28877" lon="-1.61124">
        <ele>108</ele>
        <time>2022-01-27T15:36:42Z</time>
      </trkpt>
      <trkpt lat="47.28878" lon="-1.61122">
        <ele>108</ele>
        <time>2022-01-27T15:36:43Z</time>
      </trkpt>
      <trkpt lat="47.28879" lon="-1.61121">
        <ele>109</ele>
        <time>2022-01-27T15:36:44Z</time>
      </trkpt>
      <trkpt lat="47.2888" lon="-1.61119">
        <ele>109</ele>
        <time>2022-01-27T15:36:45Z</time>
      </trkpt>
      <trkpt lat="47.28881" lon="-1.61118">
        <ele>109</ele>
        <time>2022-01-27T15:36:46Z</time>
      </trkpt>
      <trkpt lat="47.28881" lon="-1.61116">
        <ele>109</ele>
        <time>2022-01-27T15:36:47Z</time>
      </trkpt>
      <trkpt lat="47.28882" lon="-1.61114">
        <ele>109</ele>
        <time>2022-01-27T15:36:48Z</time>
      </trkpt>
      <trkpt lat="47.28883" lon="-1.61113">
        <ele>109</ele>
        <time>2022-01-27T15:36:49Z</time>
      </trkpt>
      <trkpt lat="47.28883" lon="-1.61111">
        <ele>109</ele>
        <time>2022-01-27T15:36:50Z</time>
      </trkpt>
      <trkpt lat="47.28884" lon="-1.6111">
        <ele>109</ele>
        <time>2022-01-27T15:36:51Z</time>
      </trkpt>
      <trkpt lat="47.28885" lon="-1.61109">
        <ele>109</ele>
        <time>2022-01-27T15:36:52Z</time>
      </trkpt>
      <trkpt lat="47.28886" lon="-1.61107">
        <ele>109</ele>
        <time>2022-01-27T15:36:53Z</time>
      </trkpt>
      <trkpt lat="47.28887" lon="-1.61106">
        <ele>109</ele>
        <time>2022-01-27T15:36:54Z</time>
      </trkpt>
      <trkpt lat="47.28888" lon="-1.61105">
        <ele>109</ele>
        <time>2022-01-27T15:36:55Z</time>
      </trkpt>
      <trkpt lat="47.28888" lon="-1.61104">
        <ele>109</ele>
        <time>2022-01-27T15:36:56Z</time>
      </trkpt>
      <trkpt lat="47.28889" lon="-1.61102">
        <ele>109</ele>
        <time>2022-01-27T15:36:57Z</time>
      </trkpt>
      <trkpt lat="47.2889" lon="-1.611">
        <ele>108</ele>
        <time>2022-01-27T15:36:58Z</time>
      </trkpt>
      <trkpt lat="47.28891" lon="-1.61099">
        <ele>108</ele>
        <time>2022-01-27T15:36:59Z</time>
      </trkpt>
      <trkpt lat="47.28892" lon="-1.61097">
        <ele>108</ele>
        <time>2022-01-27T15:37:00Z</time>
      </trkpt>
      <trkpt lat="47.28893" lon="-1.61095">
        <ele>108</ele>
        <time>2022-01-27T15:37:01Z</time>
      </trkpt>
      <trkpt lat="47.28894" lon="-1.61093">
        <ele>108</ele>
        <time>2022-01-27T15:37:02Z</time>
      </trkpt>
      <trkpt lat="47.28894" lon="-1.61092">
        <ele>109</ele>
        <time>2022-01-27T15:37:03Z</time>
      </trkpt>
      <trkpt lat="47.28895" lon="-1.61091">
        <ele>108</ele>
        <time>2022-01-27T15:37:04Z</time>
      </trkpt>
      <trkpt lat="47.28896" lon="-1.61089">
        <ele>109</ele>
        <time>2022-01-27T15:37:05Z</time>
      </trkpt>
      <trkpt lat="47.28897" lon="-1.61088">
        <ele>109</ele>
        <time>2022-01-27T15:37:06Z</time>
      </trkpt>
      <trkpt lat="47.28898" lon="-1.61087">
        <ele>108</ele>
        <time>2022-01-27T15:37:07Z</time>
      </trkpt>
      <trkpt lat="47.28898" lon="-1.61086">
        <ele>108</ele>
        <time>2022-01-27T15:37:08Z</time>
      </trkpt>
      <trkpt lat="47.28899" lon="-1.61084">
        <ele>108</ele>
        <time>2022-01-27T15:37:09Z</time>
      </trkpt>
      <trkpt lat="47.289" lon="-1.61083">
        <ele>109</ele>
        <time>2022-01-27T15:37:10Z</time>
      </trkpt>
      <trkpt lat="47.28901" lon="-1.61082">
        <ele>108</ele>
        <time>2022-01-27T15:37:11Z</time>
      </trkpt>
      <trkpt lat="47.28901" lon="-1.61081">
        <ele>109</ele>
        <time>2022-01-27T15:37:12Z</time>
      </trkpt>
      <trkpt lat="47.28902" lon="-1.6108">
        <ele>109</ele>
        <time>2022-01-27T15:37:13Z</time>
      </trkpt>
      <trkpt lat="47.28902" lon="-1.61078">
        <ele>109</ele>
        <time>2022-01-27T15:37:14Z</time>
      </trkpt>
      <trkpt lat="47.28903" lon="-1.61077">
        <ele>109</ele>
        <time>2022-01-27T15:37:15Z</time>
      </trkpt>
      <trkpt lat="47.28904" lon="-1.61075">
        <ele>109</ele>
        <time>2022-01-27T15:37:16Z</time>
      </trkpt>
      <trkpt lat="47.28905" lon="-1.61073">
        <ele>109</ele>
        <time>2022-01-27T15:37:17Z</time>
      </trkpt>
      <trkpt lat="47.28906" lon="-1.61072">
        <ele>109</ele>
        <time>2022-01-27T15:37:18Z</time>
      </trkpt>
      <trkpt lat="47.28907" lon="-1.61071">
        <ele>109</ele>
        <time>2022-01-27T15:37:19Z</time>
      </trkpt>
      <trkpt lat="47.28907" lon="-1.6107">
        <ele>109</ele>
        <time>2022-01-27T15:37:20Z</time>
      </trkpt>
      <trkpt lat="47.28908" lon="-1.61068">
        <ele>109</ele>
        <time>2022-01-27T15:37:21Z</time>
      </trkpt>
      <trkpt lat="47.28909" lon="-1.61067">
        <ele>109</ele>
        <time>2022-01-27T15:37:22Z</time>
      </trkpt>
      <trkpt lat="47.2891" lon="-1.61066">
        <ele>110</ele>
        <time>2022-01-27T15:37:23Z</time>
      </trkpt>
      <trkpt lat="47.28911" lon="-1.61065">
        <ele>109</ele>
        <time>2022-01-27T15:37:24Z</time>
      </trkpt>
      <trkpt lat="47.28912" lon="-1.61064">
        <ele>109</ele>
        <time>2022-01-27T15:37:25Z</time>
      </trkpt>
      <trkpt lat="47.28913" lon="-1.61062">
        <ele>109</ele>
        <time>2022-01-27T15:37:26Z</time>
      </trkpt>
      <trkpt lat="47.28914" lon="-1.6106">
        <ele>109</ele>
        <time>2022-01-27T15:37:27Z</time>
      </trkpt>
      <trkpt lat="47.28915" lon="-1.61059">
        <ele>109</ele>
        <time>2022-01-27T15:37:28Z</time>
      </trkpt>
      <trkpt lat="47.28915" lon="-1.61058">
        <ele>108</ele>
        <time>2022-01-27T15:37:29Z</time>
      </trkpt>
      <trkpt lat="47.28916" lon="-1.61057">
        <ele>109</ele>
        <time>2022-01-27T15:37:30Z</time>
      </trkpt>
      <trkpt lat="47.28917" lon="-1.61056">
        <ele>109</ele>
        <time>2022-01-27T15:37:31Z</time>
      </trkpt>
      <trkpt lat="47.28918" lon="-1.61055">
        <ele>109</ele>
        <time>2022-01-27T15:37:32Z</time>
      </trkpt>
      <trkpt lat="47.28919" lon="-1.61054">
        <ele>109</ele>
        <time>2022-01-27T15:37:33Z</time>
      </trkpt>
      <trkpt lat="47.28919" lon="-1.61053">
        <ele>109</ele>
        <time>2022-01-27T15:37:34Z</time>
      </trkpt>
      <trkpt lat="47.2892" lon="-1.61052">
        <ele>109</ele>
        <time>2022-01-27T15:37:35Z</time>
      </trkpt>
      <trkpt lat="47.28921" lon="-1.61051">
        <ele>109</ele>
        <time>2022-01-27T15:37:36Z</time>
      </trkpt>
      <trkpt lat="47.28921" lon="-1.61049">
        <ele>110</ele>
        <time>2022-01-27T15:37:37Z</time>
      </trkpt>
      <trkpt lat="47.28922" lon="-1.61048">
        <ele>110</ele>
        <time>2022-01-27T15:37:38Z</time>
      </trkpt>
      <trkpt lat="47.28922" lon="-1.61046">
        <ele>110</ele>
        <time>2022-01-27T15:37:39Z</time>
      </trkpt>
      <trkpt lat="47.28923" lon="-1.61045">
        <ele>110</ele>
        <time>2022-01-27T15:37:40Z</time>
      </trkpt>
      <trkpt lat="47.28924" lon="-1.61044">
        <ele>109</ele>
        <time>2022-01-27T15:37:41Z</time>
      </trkpt>
      <trkpt lat="47.28925" lon="-1.61043">
        <ele>109</ele>
        <time>2022-01-27T15:37:42Z</time>
      </trkpt>
      <trkpt lat="47.28926" lon="-1.61042">
        <ele>109</ele>
        <time>2022-01-27T15:37:43Z</time>
      </trkpt>
      <trkpt lat="47.28927" lon="-1.6104">
        <ele>109</ele>
        <time>2022-01-27T15:37:44Z</time>
      </trkpt>
      <trkpt lat="47.28927" lon="-1.61039">
        <ele>110</ele>
        <time>2022-01-27T15:37:45Z</time>
      </trkpt>
      <trkpt lat="47.28928" lon="-1.61038">
        <ele>109</ele>
        <time>2022-01-27T15:37:46Z</time>
      </trkpt>
      <trkpt lat="47.28929" lon="-1.61036">
        <ele>109</ele>
        <time>2022-01-27T15:37:47Z</time>
      </trkpt>
      <trkpt lat="47.28929" lon="-1.61035">
        <ele>110</ele>
        <time>2022-01-27T15:37:48Z</time>
      </trkpt>
      <trkpt lat="47.2893" lon="-1.61034">
        <ele>110</ele>
        <time>2022-01-27T15:37:49Z</time>
      </trkpt>
      <trkpt lat="47.28931" lon="-1.61033">
        <ele>110</ele>
        <time>2022-01-27T15:37:50Z</time>
      </trkpt>
      <trkpt lat="47.28931" lon="-1.61031">
        <ele>111</ele>
        <time>2022-01-27T15:37:51Z</time>
      </trkpt>
      <trkpt lat="47.28932" lon="-1.6103">
        <ele>110</ele>
        <time>2022-01-27T15:37:52Z</time>
      </trkpt>
      <trkpt lat="47.28933" lon="-1.61028">
        <ele>110</ele>
        <time>2022-01-27T15:37:53Z</time>
      </trkpt>
      <trkpt lat="47.28934" lon="-1.61027">
        <ele>110</ele>
        <time>2022-01-27T15:37:54Z</time>
      </trkpt>
      <trkpt lat="47.28935" lon="-1.61026">
        <ele>110</ele>
        <time>2022-01-27T15:37:55Z</time>
      </trkpt>
      <trkpt lat="47.28936" lon="-1.61024">
        <ele>110</ele>
        <time>2022-01-27T15:37:56Z</time>
      </trkpt>
      <trkpt lat="47.28936" lon="-1.61022">
        <ele>110</ele>
        <time>2022-01-27T15:37:57Z</time>
      </trkpt>
      <trkpt lat="47.28937" lon="-1.61021">
        <ele>109</ele>
        <time>2022-01-27T15:37:58Z</time>
      </trkpt>
      <trkpt lat="47.28938" lon="-1.61019">
        <ele>109</ele>
        <time>2022-01-27T15:37:59Z</time>
      </trkpt>
      <trkpt lat="47.28939" lon="-1.61018">
        <ele>109</ele>
        <time>2022-01-27T15:38:00Z</time>
      </trkpt>
      <trkpt lat="47.2894" lon="-1.61016">
        <ele>109</ele>
        <time>2022-01-27T15:38:01Z</time>
      </trkpt>
      <trkpt lat="47.28942" lon="-1.61015">
        <ele>110</ele>
        <time>2022-01-27T15:38:02Z</time>
      </trkpt>
      <trkpt lat="47.28943" lon="-1.61014">
        <ele>110</ele>
        <time>2022-01-27T15:38:03Z</time>
      </trkpt>
      <trkpt lat="47.28944" lon="-1.61013">
        <ele>110</ele>
        <time>2022-01-27T15:38:04Z</time>
      </trkpt>
      <trkpt lat="47.28944" lon="-1.61012">
        <ele>110</ele>
        <time>2022-01-27T15:38:05Z</time>
      </trkpt>
      <trkpt lat="47.28946" lon="-1.61011">
        <ele>110</ele>
        <time>2022-01-27T15:38:06Z</time>
      </trkpt>
      <trkpt lat="47.28946" lon="-1.6101">
        <ele>109</ele>
        <time>2022-01-27T15:38:07Z</time>
      </trkpt>
      <trkpt lat="47.28947" lon="-1.61009">
        <ele>110</ele>
        <time>2022-01-27T15:38:08Z</time>
      </trkpt>
      <trkpt lat="47.28948" lon="-1.61008">
        <ele>109</ele>
        <time>2022-01-27T15:38:09Z</time>
      </trkpt>
      <trkpt lat="47.28949" lon="-1.61006">
        <ele>109</ele>
        <time>2022-01-27T15:38:10Z</time>
      </trkpt>
      <trkpt lat="47.2895" lon="-1.61005">
        <ele>109</ele>
        <time>2022-01-27T15:38:11Z</time>
      </trkpt>
      <trkpt lat="47.28951" lon="-1.61004">
        <ele>109</ele>
        <time>2022-01-27T15:38:12Z</time>
      </trkpt>
      <trkpt lat="47.28951" lon="-1.61002">
        <ele>110</ele>
        <time>2022-01-27T15:38:13Z</time>
      </trkpt>
      <trkpt lat="47.2895" lon="-1.61001">
        <ele>110</ele>
        <time>2022-01-27T15:38:14Z</time>
      </trkpt>
      <trkpt lat="47.2895" lon="-1.61">
        <ele>110</ele>
        <time>2022-01-27T15:38:15Z</time>
      </trkpt>
      <trkpt lat="47.2895" lon="-1.61">
        <ele>110</ele>
        <time>2022-01-27T15:38:16Z</time>
      </trkpt>
      <trkpt lat="47.2895" lon="-1.61">
        <ele>110</ele>
        <time>2022-01-27T15:38:16Z</time>
      </trkpt>
      <trkpt lat="47.2895" lon="-1.61">
        <ele>110</ele>
        <time>2022-01-27T15:38:16Z</time>
      </trkpt>
      <trkpt lat="47.28953" lon="-1.60991">
        <ele>109</ele>
        <time>2022-01-27T15:38:22Z</time>
      </trkpt>
      <trkpt lat="47.28953" lon="-1.6099">
        <ele>110</ele>
        <time>2022-01-27T15:38:23Z</time>
      </trkpt>
      <trkpt lat="47.28954" lon="-1.60989">
        <ele>110</ele>
        <time>2022-01-27T15:38:24Z</time>
      </trkpt>
      <trkpt lat="47.28954" lon="-1.60987">
        <ele>110</ele>
        <time>2022-01-27T15:38:25Z</time>
      </trkpt>
      <trkpt lat="47.28954" lon="-1.60985">
        <ele>110</ele>
        <time>2022-01-27T15:38:26Z</time>
      </trkpt>
      <trkpt lat="47.28955" lon="-1.60984">
        <ele>110</ele>
        <time>2022-01-27T15:38:27Z</time>
      </trkpt>
      <trkpt lat="47.28956" lon="-1.60982">
        <ele>110</ele>
        <time>2022-01-27T15:38:28Z</time>
      </trkpt>
      <trkpt lat="47.28956" lon="-1.60981">
        <ele>110</ele>
        <time>2022-01-27T15:38:29Z</time>
      </trkpt>
      <trkpt lat="47.28957" lon="-1.60979">
        <ele>110</ele>
        <time>2022-01-27T15:38:30Z</time>
      </trkpt>
      <trkpt lat="47.28958" lon="-1.60978">
        <ele>110</ele>
        <time>2022-01-27T15:38:31Z</time>
      </trkpt>
      <trkpt lat="47.28959" lon="-1.60976">
        <ele>110</ele>
        <time>2022-01-27T15:38:32Z</time>
      </trkpt>
      <trkpt lat="47.2896" lon="-1.60975">
        <ele>111</ele>
        <time>2022-01-27T15:38:33Z</time>
      </trkpt>
      <trkpt lat="47.2896" lon="-1.60974">
        <ele>110</ele>
        <time>2022-01-27T15:38:34Z</time>
      </trkpt>
      <trkpt lat="47.28961" lon="-1.60972">
        <ele>110</ele>
        <time>2022-01-27T15:38:35Z</time>
      </trkpt>
      <trkpt lat="47.28962" lon="-1.60971">
        <ele>110</ele>
        <time>2022-01-27T15:38:36Z</time>
      </trkpt>
      <trkpt lat="47.28962" lon="-1.6097">
        <ele>111</ele>
        <time>2022-01-27T15:38:37Z</time>
      </trkpt>
      <trkpt lat="47.28963" lon="-1.60968">
        <ele>111</ele>
        <time>2022-01-27T15:38:38Z</time>
      </trkpt>
      <trkpt lat="47.28964" lon="-1.60967">
        <ele>111</ele>
        <time>2022-01-27T15:38:39Z</time>
      </trkpt>
      <trkpt lat="47.28965" lon="-1.60966">
        <ele>111</ele>
        <time>2022-01-27T15:38:40Z</time>
      </trkpt>
      <trkpt lat="47.28965" lon="-1.60964">
        <ele>110</ele>
        <time>2022-01-27T15:38:41Z</time>
      </trkpt>
      <trkpt lat="47.28966" lon="-1.60963">
        <ele>111</ele>
        <time>2022-01-27T15:38:42Z</time>
      </trkpt>
      <trkpt lat="47.28967" lon="-1.60962">
        <ele>111</ele>
        <time>2022-01-27T15:38:43Z</time>
      </trkpt>
      <trkpt lat="47.28967" lon="-1.60961">
        <ele>111</ele>
        <time>2022-01-27T15:38:44Z</time>
      </trkpt>
      <trkpt lat="47.28968" lon="-1.60959">
        <ele>111</ele>
        <time>2022-01-27T15:38:45Z</time>
      </trkpt>
      <trkpt lat="47.28968" lon="-1.60958">
        <ele>112</ele>
        <time>2022-01-27T15:38:46Z</time>
      </trkpt>
      <trkpt lat="47.28969" lon="-1.60956">
        <ele>112</ele>
        <time>2022-01-27T15:38:47Z</time>
      </trkpt>
      <trkpt lat="47.2897" lon="-1.60955">
        <ele>112</ele>
        <time>2022-01-27T15:38:48Z</time>
      </trkpt>
      <trkpt lat="47.2897" lon="-1.60954">
        <ele>112</ele>
        <time>2022-01-27T15:38:49Z</time>
      </trkpt>
      <trkpt lat="47.28971" lon="-1.60953">
        <ele>112</ele>
        <time>2022-01-27T15:38:50Z</time>
      </trkpt>
      <trkpt lat="47.28972" lon="-1.60951">
        <ele>111</ele>
        <time>2022-01-27T15:38:51Z</time>
      </trkpt>
      <trkpt lat="47.28972" lon="-1.6095">
        <ele>111</ele>
        <time>2022-01-27T15:38:52Z</time>
      </trkpt>
      <trkpt lat="47.28973" lon="-1.60948">
        <ele>111</ele>
        <time>2022-01-27T15:38:53Z</time>
      </trkpt>
      <trkpt lat="47.28973" lon="-1.60947">
        <ele>111</ele>
        <time>2022-01-27T15:38:54Z</time>
      </trkpt>
      <trkpt lat="47.28974" lon="-1.60945">
        <ele>111</ele>
        <time>2022-01-27T15:38:55Z</time>
      </trkpt>
      <trkpt lat="47.28975" lon="-1.60944">
        <ele>111</ele>
        <time>2022-01-27T15:38:56Z</time>
      </trkpt>
      <trkpt lat="47.28976" lon="-1.60942">
        <ele>111</ele>
        <time>2022-01-27T15:38:57Z</time>
      </trkpt>
      <trkpt lat="47.28977" lon="-1.60941">
        <ele>111</ele>
        <time>2022-01-27T15:38:58Z</time>
      </trkpt>
      <trkpt lat="47.28978" lon="-1.6094">
        <ele>111</ele>
        <time>2022-01-27T15:38:59Z</time>
      </trkpt>
      <trkpt lat="47.28978" lon="-1.60938">
        <ele>111</ele>
        <time>2022-01-27T15:39:00Z</time>
      </trkpt>
      <trkpt lat="47.28979" lon="-1.60937">
        <ele>111</ele>
        <time>2022-01-27T15:39:01Z</time>
      </trkpt>
      <trkpt lat="47.2898" lon="-1.60936">
        <ele>111</ele>
        <time>2022-01-27T15:39:02Z</time>
      </trkpt>
      <trkpt lat="47.28981" lon="-1.60934">
        <ele>112</ele>
        <time>2022-01-27T15:39:03Z</time>
      </trkpt>
      <trkpt lat="47.28982" lon="-1.60933">
        <ele>112</ele>
        <time>2022-01-27T15:39:04Z</time>
      </trkpt>
      <trkpt lat="47.28983" lon="-1.60931">
        <ele>111</ele>
        <time>2022-01-27T15:39:05Z</time>
      </trkpt>
      <trkpt lat="47.28984" lon="-1.6093">
        <ele>111</ele>
        <time>2022-01-27T15:39:06Z</time>
      </trkpt>
      <trkpt lat="47.28985" lon="-1.60929">
        <ele>111</ele>
        <time>2022-01-27T15:39:07Z</time>
      </trkpt>
      <trkpt lat="47.28986" lon="-1.60927">
        <ele>112</ele>
        <time>2022-01-27T15:39:08Z</time>
      </trkpt>
      <trkpt lat="47.28987" lon="-1.60926">
        <ele>112</ele>
        <time>2022-01-27T15:39:09Z</time>
      </trkpt>
      <trkpt lat="47.28988" lon="-1.60924">
        <ele>112</ele>
        <time>2022-01-27T15:39:10Z</time>
      </trkpt>
      <trkpt lat="47.28989" lon="-1.60923">
        <ele>112</ele>
        <time>2022-01-27T15:39:11Z</time>
      </trkpt>
      <trkpt lat="47.28989" lon="-1.60921">
        <ele>112</ele>
        <time>2022-01-27T15:39:12Z</time>
      </trkpt>
      <trkpt lat="47.2899" lon="-1.6092">
        <ele>112</ele>
        <time>2022-01-27T15:39:13Z</time>
      </trkpt>
      <trkpt lat="47.28991" lon="-1.60919">
        <ele>112</ele>
        <time>2022-01-27T15:39:14Z</time>
      </trkpt>
      <trkpt lat="47.28992" lon="-1.60918">
        <ele>112</ele>
        <time>2022-01-27T15:39:15Z</time>
      </trkpt>
      <trkpt lat="47.28993" lon="-1.60917">
        <ele>112</ele>
        <time>2022-01-27T15:39:16Z</time>
      </trkpt>
      <trkpt lat="47.28994" lon="-1.60917">
        <ele>112</ele>
        <time>2022-01-27T15:39:17Z</time>
      </trkpt>
      <trkpt lat="47.28995" lon="-1.60916">
        <ele>111</ele>
        <time>2022-01-27T15:39:18Z</time>
      </trkpt>
      <trkpt lat="47.28996" lon="-1.60916">
        <ele>111</ele>
        <time>2022-01-27T15:39:19Z</time>
      </trkpt>
      <trkpt lat="47.28997" lon="-1.60916">
        <ele>111</ele>
        <time>2022-01-27T15:39:20Z</time>
      </trkpt>
      <trkpt lat="47.28998" lon="-1.60915">
        <ele>111</ele>
        <time>2022-01-27T15:39:21Z</time>
      </trkpt>
      <trkpt lat="47.28999" lon="-1.60915">
        <ele>111</ele>
        <time>2022-01-27T15:39:22Z</time>
      </trkpt>
      <trkpt lat="47.29001" lon="-1.60914">
        <ele>111</ele>
        <time>2022-01-27T15:39:23Z</time>
      </trkpt>
      <trkpt lat="47.29002" lon="-1.60913">
        <ele>111</ele>
        <time>2022-01-27T15:39:24Z</time>
      </trkpt>
      <trkpt lat="47.29003" lon="-1.60912">
        <ele>111</ele>
        <time>2022-01-27T15:39:25Z</time>
      </trkpt>
      <trkpt lat="47.29004" lon="-1.6091">
        <ele>111</ele>
        <time>2022-01-27T15:39:26Z</time>
      </trkpt>
      <trkpt lat="47.29005" lon="-1.60909">
        <ele>111</ele>
        <time>2022-01-27T15:39:27Z</time>
      </trkpt>
      <trkpt lat="47.29006" lon="-1.60908">
        <ele>112</ele>
        <time>2022-01-27T15:39:28Z</time>
      </trkpt>
      <trkpt lat="47.29007" lon="-1.60906">
        <ele>112</ele>
        <time>2022-01-27T15:39:29Z</time>
      </trkpt>
      <trkpt lat="47.29009" lon="-1.60905">
        <ele>112</ele>
        <time>2022-01-27T15:39:30Z</time>
      </trkpt>
      <trkpt lat="47.29009" lon="-1.60904">
        <ele>112</ele>
        <time>2022-01-27T15:39:31Z</time>
      </trkpt>
      <trkpt lat="47.2901" lon="-1.60902">
        <ele>112</ele>
        <time>2022-01-27T15:39:32Z</time>
      </trkpt>
      <trkpt lat="47.29011" lon="-1.60901">
        <ele>111</ele>
        <time>2022-01-27T15:39:33Z</time>
      </trkpt>
      <trkpt lat="47.29012" lon="-1.609">
        <ele>111</ele>
        <time>2022-01-27T15:39:34Z</time>
      </trkpt>
      <trkpt lat="47.29013" lon="-1.60898">
        <ele>111</ele>
        <time>2022-01-27T15:39:35Z</time>
      </trkpt>
      <trkpt lat="47.29013" lon="-1.60896">
        <ele>111</ele>
        <time>2022-01-27T15:39:36Z</time>
      </trkpt>
      <trkpt lat="47.29014" lon="-1.60895">
        <ele>111</ele>
        <time>2022-01-27T15:39:37Z</time>
      </trkpt>
      <trkpt lat="47.29016" lon="-1.60894">
        <ele>111</ele>
        <time>2022-01-27T15:39:38Z</time>
      </trkpt>
      <trkpt lat="47.29017" lon="-1.60892">
        <ele>111</ele>
        <time>2022-01-27T15:39:39Z</time>
      </trkpt>
      <trkpt lat="47.29018" lon="-1.60891">
        <ele>111</ele>
        <time>2022-01-27T15:39:40Z</time>
      </trkpt>
      <trkpt lat="47.29019" lon="-1.6089">
        <ele>111</ele>
        <time>2022-01-27T15:39:41Z</time>
      </trkpt>
      <trkpt lat="47.29019" lon="-1.60888">
        <ele>111</ele>
        <time>2022-01-27T15:39:42Z</time>
      </trkpt>
      <trkpt lat="47.2902" lon="-1.60887">
        <ele>111</ele>
        <time>2022-01-27T15:39:43Z</time>
      </trkpt>
      <trkpt lat="47.29021" lon="-1.60886">
        <ele>112</ele>
        <time>2022-01-27T15:39:44Z</time>
      </trkpt>
      <trkpt lat="47.29022" lon="-1.60885">
        <ele>112</ele>
        <time>2022-01-27T15:39:45Z</time>
      </trkpt>
      <trkpt lat="47.29023" lon="-1.60884">
        <ele>112</ele>
        <time>2022-01-27T15:39:46Z</time>
      </trkpt>
      <trkpt lat="47.29023" lon="-1.60883">
        <ele>112</ele>
        <time>2022-01-27T15:39:47Z</time>
      </trkpt>
      <trkpt lat="47.29024" lon="-1.60882">
        <ele>112</ele>
        <time>2022-01-27T15:39:48Z</time>
      </trkpt>
      <trkpt lat="47.29025" lon="-1.6088">
        <ele>112</ele>
        <time>2022-01-27T15:39:49Z</time>
      </trkpt>
      <trkpt lat="47.29026" lon="-1.60879">
        <ele>112</ele>
        <time>2022-01-27T15:39:50Z</time>
      </trkpt>
      <trkpt lat="47.29027" lon="-1.60878">
        <ele>113</ele>
        <time>2022-01-27T15:39:51Z</time>
      </trkpt>
      <trkpt lat="47.29027" lon="-1.60877">
        <ele>113</ele>
        <time>2022-01-27T15:39:52Z</time>
      </trkpt>
      <trkpt lat="47.29028" lon="-1.60875">
        <ele>113</ele>
        <time>2022-01-27T15:39:53Z</time>
      </trkpt>
      <trkpt lat="47.29028" lon="-1.60874">
        <ele>113</ele>
        <time>2022-01-27T15:39:54Z</time>
      </trkpt>
      <trkpt lat="47.29029" lon="-1.60872">
        <ele>112</ele>
        <time>2022-01-27T15:39:55Z</time>
      </trkpt>
      <trkpt lat="47.2903" lon="-1.60871">
        <ele>112</ele>
        <time>2022-01-27T15:39:56Z</time>
      </trkpt>
      <trkpt lat="47.2903" lon="-1.6087">
        <ele>113</ele>
        <time>2022-01-27T15:39:57Z</time>
      </trkpt>
      <trkpt lat="47.29031" lon="-1.60869">
        <ele>113</ele>
        <time>2022-01-27T15:39:58Z</time>
      </trkpt>
      <trkpt lat="47.29032" lon="-1.60868">
        <ele>113</ele>
        <time>2022-01-27T15:39:59Z</time>
      </trkpt>
      <trkpt lat="47.29033" lon="-1.60866">
        <ele>113</ele>
        <time>2022-01-27T15:40:00Z</time>
      </trkpt>
      <trkpt lat="47.29034" lon="-1.60865">
        <ele>113</ele>
        <time>2022-01-27T15:40:01Z</time>
      </trkpt>
      <trkpt lat="47.29035" lon="-1.60863">
        <ele>113</ele>
        <time>2022-01-27T15:40:02Z</time>
      </trkpt>
      <trkpt lat="47.29036" lon="-1.60861">
        <ele>113</ele>
        <time>2022-01-27T15:40:03Z</time>
      </trkpt>
      <trkpt lat="47.29037" lon="-1.6086">
        <ele>113</ele>
        <time>2022-01-27T15:40:04Z</time>
      </trkpt>
      <trkpt lat="47.29037" lon="-1.60859">
        <ele>113</ele>
        <time>2022-01-27T15:40:05Z</time>
      </trkpt>
      <trkpt lat="47.29038" lon="-1.60857">
        <ele>113</ele>
        <time>2022-01-27T15:40:06Z</time>
      </trkpt>
      <trkpt lat="47.29039" lon="-1.60856">
        <ele>113</ele>
        <time>2022-01-27T15:40:07Z</time>
      </trkpt>
      <trkpt lat="47.2904" lon="-1.60855">
        <ele>113</ele>
        <time>2022-01-27T15:40:08Z</time>
      </trkpt>
      <trkpt lat="47.29041" lon="-1.60854">
        <ele>113</ele>
        <time>2022-01-27T15:40:09Z</time>
      </trkpt>
      <trkpt lat="47.29042" lon="-1.60853">
        <ele>113</ele>
        <time>2022-01-27T15:40:10Z</time>
      </trkpt>
      <trkpt lat="47.29043" lon="-1.60851">
        <ele>113</ele>
        <time>2022-01-27T15:40:11Z</time>
      </trkpt>
      <trkpt lat="47.29043" lon="-1.6085">
        <ele>113</ele>
        <time>2022-01-27T15:40:12Z</time>
      </trkpt>
      <trkpt lat="47.29044" lon="-1.60849">
        <ele>113</ele>
        <time>2022-01-27T15:40:13Z</time>
      </trkpt>
      <trkpt lat="47.29044" lon="-1.60847">
        <ele>113</ele>
        <time>2022-01-27T15:40:14Z</time>
      </trkpt>
      <trkpt lat="47.29046" lon="-1.60845">
        <ele>112</ele>
        <time>2022-01-27T15:40:15Z</time>
      </trkpt>
      <trkpt lat="47.29046" lon="-1.60844">
        <ele>113</ele>
        <time>2022-01-27T15:40:16Z</time>
      </trkpt>
      <trkpt lat="47.29047" lon="-1.60842">
        <ele>112</ele>
        <time>2022-01-27T15:40:17Z</time>
      </trkpt>
      <trkpt lat="47.29048" lon="-1.6084">
        <ele>113</ele>
        <time>2022-01-27T15:40:18Z</time>
      </trkpt>
      <trkpt lat="47.29049" lon="-1.60839">
        <ele>113</ele>
        <time>2022-01-27T15:40:19Z</time>
      </trkpt>
      <trkpt lat="47.2905" lon="-1.60837">
        <ele>113</ele>
        <time>2022-01-27T15:40:20Z</time>
      </trkpt>
      <trkpt lat="47.29051" lon="-1.60836">
        <ele>112</ele>
        <time>2022-01-27T15:40:21Z</time>
      </trkpt>
      <trkpt lat="47.29052" lon="-1.60835">
        <ele>112</ele>
        <time>2022-01-27T15:40:22Z</time>
      </trkpt>
      <trkpt lat="47.29053" lon="-1.60834">
        <ele>113</ele>
        <time>2022-01-27T15:40:23Z</time>
      </trkpt>
      <trkpt lat="47.29054" lon="-1.60833">
        <ele>112</ele>
        <time>2022-01-27T15:40:24Z</time>
      </trkpt>
      <trkpt lat="47.29055" lon="-1.60833">
        <ele>113</ele>
        <time>2022-01-27T15:40:25Z</time>
      </trkpt>
      <trkpt lat="47.29055" lon="-1.60833">
        <ele>112</ele>
        <time>2022-01-27T15:40:26Z</time>
      </trkpt>
      <trkpt lat="47.29055" lon="-1.60833">
        <ele>112</ele>
        <time>2022-01-27T15:40:27Z</time>
      </trkpt>
      <trkpt lat="47.29055" lon="-1.60832">
        <ele>111</ele>
        <time>2022-01-27T15:40:28Z</time>
      </trkpt>
      <trkpt lat="47.29055" lon="-1.6083">
        <ele>111</ele>
        <time>2022-01-27T15:40:29Z</time>
      </trkpt>
      <trkpt lat="47.29056" lon="-1.60829">
        <ele>111</ele>
        <time>2022-01-27T15:40:30Z</time>
      </trkpt>
      <trkpt lat="47.29056" lon="-1.60828">
        <ele>111</ele>
        <time>2022-01-27T15:40:31Z</time>
      </trkpt>
      <trkpt lat="47.29057" lon="-1.60826">
        <ele>111</ele>
        <time>2022-01-27T15:40:32Z</time>
      </trkpt>
      <trkpt lat="47.29057" lon="-1.60824">
        <ele>111</ele>
        <time>2022-01-27T15:40:33Z</time>
      </trkpt>
      <trkpt lat="47.29058" lon="-1.60822">
        <ele>110</ele>
        <time>2022-01-27T15:40:34Z</time>
      </trkpt>
      <trkpt lat="47.29059" lon="-1.6082">
        <ele>110</ele>
        <time>2022-01-27T15:40:35Z</time>
      </trkpt>
      <trkpt lat="47.29059" lon="-1.60819">
        <ele>110</ele>
        <time>2022-01-27T15:40:36Z</time>
      </trkpt>
      <trkpt lat="47.2906" lon="-1.60817">
        <ele>110</ele>
        <time>2022-01-27T15:40:37Z</time>
      </trkpt>
      <trkpt lat="47.2906" lon="-1.60815">
        <ele>109</ele>
        <time>2022-01-27T15:40:38Z</time>
      </trkpt>
      <trkpt lat="47.2906" lon="-1.60814">
        <ele>109</ele>
        <time>2022-01-27T15:40:39Z</time>
      </trkpt>
      <trkpt lat="47.29061" lon="-1.60812">
        <ele>109</ele>
        <time>2022-01-27T15:40:40Z</time>
      </trkpt>
      <trkpt lat="47.29061" lon="-1.60811">
        <ele>109</ele>
        <time>2022-01-27T15:40:41Z</time>
      </trkpt>
      <trkpt lat="47.29061" lon="-1.60811">
        <ele>109</ele>
        <time>2022-01-27T15:40:42Z</time>
      </trkpt>
      <trkpt lat="47.29061" lon="-1.60811">
        <ele>109</ele>
        <time>2022-01-27T15:40:43Z</time>
      </trkpt>
      <trkpt lat="47.29061" lon="-1.60811">
        <ele>109</ele>
        <time>2022-01-27T15:40:44Z</time>
      </trkpt>
      <trkpt lat="47.29061" lon="-1.60811">
        <ele>109</ele>
        <time>2022-01-27T15:40:44Z</time>
      </trkpt>
      <trkpt lat="47.29064" lon="-1.60805">
        <ele>108</ele>
        <time>2022-01-27T15:41:14Z</time>
      </trkpt>
      <trkpt lat="47.29065" lon="-1.60804">
        <ele>108</ele>
        <time>2022-01-27T15:41:15Z</time>
      </trkpt>
      <trkpt lat="47.29066" lon="-1.60802">
        <ele>108</ele>
        <time>2022-01-27T15:41:16Z</time>
      </trkpt>
      <trkpt lat="47.29067" lon="-1.608">
        <ele>107</ele>
        <time>2022-01-27T15:41:17Z</time>
      </trkpt>
      <trkpt lat="47.29068" lon="-1.60799">
        <ele>107</ele>
        <time>2022-01-27T15:41:18Z</time>
      </trkpt>
      <trkpt lat="47.29069" lon="-1.60798">
        <ele>107</ele>
        <time>2022-01-27T15:41:19Z</time>
      </trkpt>
      <trkpt lat="47.2907" lon="-1.60797">
        <ele>107</ele>
        <time>2022-01-27T15:41:20Z</time>
      </trkpt>
      <trkpt lat="47.29071" lon="-1.60796">
        <ele>107</ele>
        <time>2022-01-27T15:41:21Z</time>
      </trkpt>
      <trkpt lat="47.29072" lon="-1.60796">
        <ele>107</ele>
        <time>2022-01-27T15:41:22Z</time>
      </trkpt>
      <trkpt lat="47.29073" lon="-1.60795">
        <ele>107</ele>
        <time>2022-01-27T15:41:23Z</time>
      </trkpt>
      <trkpt lat="47.29074" lon="-1.60794">
        <ele>107</ele>
        <time>2022-01-27T15:41:24Z</time>
      </trkpt>
      <trkpt lat="47.29075" lon="-1.60793">
        <ele>107</ele>
        <time>2022-01-27T15:41:25Z</time>
      </trkpt>
      <trkpt lat="47.29075" lon="-1.60791">
        <ele>107</ele>
        <time>2022-01-27T15:41:26Z</time>
      </trkpt>
      <trkpt lat="47.29076" lon="-1.6079">
        <ele>107</ele>
        <time>2022-01-27T15:41:27Z</time>
      </trkpt>
      <trkpt lat="47.29077" lon="-1.60789">
        <ele>107</ele>
        <time>2022-01-27T15:41:28Z</time>
      </trkpt>
      <trkpt lat="47.29078" lon="-1.60787">
        <ele>106</ele>
        <time>2022-01-27T15:41:29Z</time>
      </trkpt>
      <trkpt lat="47.29078" lon="-1.60786">
        <ele>106</ele>
        <time>2022-01-27T15:41:30Z</time>
      </trkpt>
      <trkpt lat="47.29079" lon="-1.60784">
        <ele>106</ele>
        <time>2022-01-27T15:41:31Z</time>
      </trkpt>
      <trkpt lat="47.2908" lon="-1.60783">
        <ele>105</ele>
        <time>2022-01-27T15:41:32Z</time>
      </trkpt>
      <trkpt lat="47.29081" lon="-1.60781">
        <ele>105</ele>
        <time>2022-01-27T15:41:33Z</time>
      </trkpt>
      <trkpt lat="47.29082" lon="-1.6078">
        <ele>105</ele>
        <time>2022-01-27T15:41:34Z</time>
      </trkpt>
      <trkpt lat="47.29083" lon="-1.60778">
        <ele>105</ele>
        <time>2022-01-27T15:41:35Z</time>
      </trkpt>
      <trkpt lat="47.29084" lon="-1.60776">
        <ele>104</ele>
        <time>2022-01-27T15:41:36Z</time>
      </trkpt>
      <trkpt lat="47.29085" lon="-1.60775">
        <ele>104</ele>
        <time>2022-01-27T15:41:37Z</time>
      </trkpt>
      <trkpt lat="47.29087" lon="-1.60773">
        <ele>104</ele>
        <time>2022-01-27T15:41:38Z</time>
      </trkpt>
      <trkpt lat="47.29088" lon="-1.60772">
        <ele>104</ele>
        <time>2022-01-27T15:41:39Z</time>
      </trkpt>
      <trkpt lat="47.29089" lon="-1.6077">
        <ele>104</ele>
        <time>2022-01-27T15:41:40Z</time>
      </trkpt>
      <trkpt lat="47.2909" lon="-1.60769">
        <ele>105</ele>
        <time>2022-01-27T15:41:41Z</time>
      </trkpt>
      <trkpt lat="47.29091" lon="-1.60768">
        <ele>105</ele>
        <time>2022-01-27T15:41:42Z</time>
      </trkpt>
      <trkpt lat="47.29092" lon="-1.60767">
        <ele>105</ele>
        <time>2022-01-27T15:41:43Z</time>
      </trkpt>
      <trkpt lat="47.29094" lon="-1.60765">
        <ele>105</ele>
        <time>2022-01-27T15:41:44Z</time>
      </trkpt>
      <trkpt lat="47.29095" lon="-1.60765">
        <ele>105</ele>
        <time>2022-01-27T15:41:45Z</time>
      </trkpt>
      <trkpt lat="47.29096" lon="-1.60764">
        <ele>105</ele>
        <time>2022-01-27T15:41:46Z</time>
      </trkpt>
      <trkpt lat="47.29097" lon="-1.60763">
        <ele>104</ele>
        <time>2022-01-27T15:41:47Z</time>
      </trkpt>
      <trkpt lat="47.29098" lon="-1.60762">
        <ele>104</ele>
        <time>2022-01-27T15:41:48Z</time>
      </trkpt>
      <trkpt lat="47.29099" lon="-1.60761">
        <ele>104</ele>
        <time>2022-01-27T15:41:49Z</time>
      </trkpt>
      <trkpt lat="47.291" lon="-1.6076">
        <ele>103</ele>
        <time>2022-01-27T15:41:50Z</time>
      </trkpt>
      <trkpt lat="47.29101" lon="-1.60759">
        <ele>103</ele>
        <time>2022-01-27T15:41:51Z</time>
      </trkpt>
      <trkpt lat="47.29102" lon="-1.60758">
        <ele>103</ele>
        <time>2022-01-27T15:41:52Z</time>
      </trkpt>
      <trkpt lat="47.29103" lon="-1.60757">
        <ele>103</ele>
        <time>2022-01-27T15:41:53Z</time>
      </trkpt>
      <trkpt lat="47.29104" lon="-1.60756">
        <ele>103</ele>
        <time>2022-01-27T15:41:54Z</time>
      </trkpt>
      <trkpt lat="47.29105" lon="-1.60755">
        <ele>104</ele>
        <time>2022-01-27T15:41:55Z</time>
      </trkpt>
      <trkpt lat="47.29107" lon="-1.60754">
        <ele>104</ele>
        <time>2022-01-27T15:41:56Z</time>
      </trkpt>
      <trkpt lat="47.29108" lon="-1.60753">
        <ele>103</ele>
        <time>2022-01-27T15:41:57Z</time>
      </trkpt>
      <trkpt lat="47.29109" lon="-1.60752">
        <ele>104</ele>
        <time>2022-01-27T15:41:58Z</time>
      </trkpt>
      <trkpt lat="47.2911" lon="-1.60751">
        <ele>104</ele>
        <time>2022-01-27T15:41:59Z</time>
      </trkpt>
      <trkpt lat="47.2911" lon="-1.6075">
        <ele>104</ele>
        <time>2022-01-27T15:42:00Z</time>
      </trkpt>
      <trkpt lat="47.29112" lon="-1.60749">
        <ele>104</ele>
        <time>2022-01-27T15:42:01Z</time>
      </trkpt>
      <trkpt lat="47.29113" lon="-1.60747">
        <ele>103</ele>
        <time>2022-01-27T15:42:02Z</time>
      </trkpt>
      <trkpt lat="47.29113" lon="-1.60746">
        <ele>103</ele>
        <time>2022-01-27T15:42:03Z</time>
      </trkpt>
      <trkpt lat="47.29114" lon="-1.60744">
        <ele>103</ele>
        <time>2022-01-27T15:42:04Z</time>
      </trkpt>
      <trkpt lat="47.29115" lon="-1.60743">
        <ele>102</ele>
        <time>2022-01-27T15:42:05Z</time>
      </trkpt>
      <trkpt lat="47.29116" lon="-1.60742">
        <ele>101</ele>
        <time>2022-01-27T15:42:06Z</time>
      </trkpt>
      <trkpt lat="47.29117" lon="-1.6074">
        <ele>101</ele>
        <time>2022-01-27T15:42:07Z</time>
      </trkpt>
      <trkpt lat="47.29118" lon="-1.60739">
        <ele>101</ele>
        <time>2022-01-27T15:42:08Z</time>
      </trkpt>
      <trkpt lat="47.29119" lon="-1.60738">
        <ele>101</ele>
        <time>2022-01-27T15:42:09Z</time>
      </trkpt>
      <trkpt lat="47.2912" lon="-1.60737">
        <ele>101</ele>
        <time>2022-01-27T15:42:10Z</time>
      </trkpt>
      <trkpt lat="47.29121" lon="-1.60735">
        <ele>101</ele>
        <time>2022-01-27T15:42:11Z</time>
      </trkpt>
      <trkpt lat="47.29122" lon="-1.60733">
        <ele>100</ele>
        <time>2022-01-27T15:42:12Z</time>
      </trkpt>
      <trkpt lat="47.29123" lon="-1.60732">
        <ele>101</ele>
        <time>2022-01-27T15:42:13Z</time>
      </trkpt>
      <trkpt lat="47.29125" lon="-1.6073">
        <ele>100</ele>
        <time>2022-01-27T15:42:14Z</time>
      </trkpt>
      <trkpt lat="47.29126" lon="-1.60729">
        <ele>100</ele>
        <time>2022-01-27T15:42:15Z</time>
      </trkpt>
      <trkpt lat="47.29127" lon="-1.60727">
        <ele>101</ele>
        <time>2022-01-27T15:42:16Z</time>
      </trkpt>
      <trkpt lat="47.29128" lon="-1.60726">
        <ele>101</ele>
        <time>2022-01-27T15:42:17Z</time>
      </trkpt>
      <trkpt lat="47.29129" lon="-1.60724">
        <ele>101</ele>
        <time>2022-01-27T15:42:18Z</time>
      </trkpt>
      <trkpt lat="47.2913" lon="-1.60723">
        <ele>101</ele>
        <time>2022-01-27T15:42:19Z</time>
      </trkpt>
      <trkpt lat="47.29131" lon="-1.60722">
        <ele>100</ele>
        <time>2022-01-27T15:42:20Z</time>
      </trkpt>
      <trkpt lat="47.29131" lon="-1.60721">
        <ele>100</ele>
        <time>2022-01-27T15:42:21Z</time>
      </trkpt>
      <trkpt lat="47.29133" lon="-1.60719">
        <ele>100</ele>
        <time>2022-01-27T15:42:22Z</time>
      </trkpt>
      <trkpt lat="47.29134" lon="-1.60718">
        <ele>101</ele>
        <time>2022-01-27T15:42:23Z</time>
      </trkpt>
      <trkpt lat="47.29135" lon="-1.60716">
        <ele>100</ele>
        <time>2022-01-27T15:42:24Z</time>
      </trkpt>
      <trkpt lat="47.29136" lon="-1.60715">
        <ele>101</ele>
        <time>2022-01-27T15:42:25Z</time>
      </trkpt>
      <trkpt lat="47.29137" lon="-1.60714">
        <ele>101</ele>
        <time>2022-01-27T15:42:26Z</time>
      </trkpt>
      <trkpt lat="47.29138" lon="-1.60713">
        <ele>100</ele>
        <time>2022-01-27T15:42:27Z</time>
      </trkpt>
      <trkpt lat="47.29139" lon="-1.60712">
        <ele>100</ele>
        <time>2022-01-27T15:42:28Z</time>
      </trkpt>
      <trkpt lat="47.29139" lon="-1.60711">
        <ele>100</ele>
        <time>2022-01-27T15:42:29Z</time>
      </trkpt>
      <trkpt lat="47.29141" lon="-1.60709">
        <ele>100</ele>
        <time>2022-01-27T15:42:30Z</time>
      </trkpt>
      <trkpt lat="47.29142" lon="-1.60708">
        <ele>100</ele>
        <time>2022-01-27T15:42:31Z</time>
      </trkpt>
      <trkpt lat="47.29143" lon="-1.60706">
        <ele>101</ele>
        <time>2022-01-27T15:42:32Z</time>
      </trkpt>
      <trkpt lat="47.29144" lon="-1.60705">
        <ele>100</ele>
        <time>2022-01-27T15:42:33Z</time>
      </trkpt>
      <trkpt lat="47.29145" lon="-1.60704">
        <ele>100</ele>
        <time>2022-01-27T15:42:34Z</time>
      </trkpt>
      <trkpt lat="47.29146" lon="-1.60703">
        <ele>100</ele>
        <time>2022-01-27T15:42:35Z</time>
      </trkpt>
      <trkpt lat="47.29147" lon="-1.60701">
        <ele>100</ele>
        <time>2022-01-27T15:42:36Z</time>
      </trkpt>
      <trkpt lat="47.29148" lon="-1.607">
        <ele>101</ele>
        <time>2022-01-27T15:42:37Z</time>
      </trkpt>
      <trkpt lat="47.29149" lon="-1.60699">
        <ele>101</ele>
        <time>2022-01-27T15:42:38Z</time>
      </trkpt>
      <trkpt lat="47.2915" lon="-1.60698">
        <ele>101</ele>
        <time>2022-01-27T15:42:39Z</time>
      </trkpt>
      <trkpt lat="47.29152" lon="-1.60697">
        <ele>101</ele>
        <time>2022-01-27T15:42:40Z</time>
      </trkpt>
      <trkpt lat="47.29152" lon="-1.60696">
        <ele>101</ele>
        <time>2022-01-27T15:42:41Z</time>
      </trkpt>
      <trkpt lat="47.29153" lon="-1.60694">
        <ele>101</ele>
        <time>2022-01-27T15:42:42Z</time>
      </trkpt>
      <trkpt lat="47.29155" lon="-1.60693">
        <ele>100</ele>
        <time>2022-01-27T15:42:43Z</time>
      </trkpt>
      <trkpt lat="47.29156" lon="-1.60692">
        <ele>100</ele>
        <time>2022-01-27T15:42:44Z</time>
      </trkpt>
      <trkpt lat="47.29157" lon="-1.60691">
        <ele>100</ele>
        <time>2022-01-27T15:42:45Z</time>
      </trkpt>
      <trkpt lat="47.29158" lon="-1.6069">
        <ele>100</ele>
        <time>2022-01-27T15:42:46Z</time>
      </trkpt>
      <trkpt lat="47.29159" lon="-1.60689">
        <ele>100</ele>
        <time>2022-01-27T15:42:47Z</time>
      </trkpt>
      <trkpt lat="47.2916" lon="-1.60688">
        <ele>100</ele>
        <time>2022-01-27T15:42:48Z</time>
      </trkpt>
      <trkpt lat="47.29161" lon="-1.60687">
        <ele>100</ele>
        <time>2022-01-27T15:42:49Z</time>
      </trkpt>
      <trkpt lat="47.29162" lon="-1.60687">
        <ele>99</ele>
        <time>2022-01-27T15:42:50Z</time>
      </trkpt>
      <trkpt lat="47.29163" lon="-1.60687">
        <ele>99</ele>
        <time>2022-01-27T15:42:51Z</time>
      </trkpt>
      <trkpt lat="47.29164" lon="-1.60686">
        <ele>99</ele>
        <time>2022-01-27T15:42:52Z</time>
      </trkpt>
      <trkpt lat="47.29165" lon="-1.60685">
        <ele>98</ele>
        <time>2022-01-27T15:42:53Z</time>
      </trkpt>
      <trkpt lat="47.29166" lon="-1.60683">
        <ele>98</ele>
        <time>2022-01-27T15:42:54Z</time>
      </trkpt>
      <trkpt lat="47.29166" lon="-1.60682">
        <ele>98</ele>
        <time>2022-01-27T15:42:55Z</time>
      </trkpt>
      <trkpt lat="47.29167" lon="-1.6068">
        <ele>97</ele>
        <time>2022-01-27T15:42:56Z</time>
      </trkpt>
      <trkpt lat="47.29168" lon="-1.60679">
        <ele>97</ele>
        <time>2022-01-27T15:42:57Z</time>
      </trkpt>
      <trkpt lat="47.29169" lon="-1.60678">
        <ele>97</ele>
        <time>2022-01-27T15:42:58Z</time>
      </trkpt>
      <trkpt lat="47.2917" lon="-1.60676">
        <ele>96</ele>
        <time>2022-01-27T15:42:59Z</time>
      </trkpt>
      <trkpt lat="47.29171" lon="-1.60675">
        <ele>96</ele>
        <time>2022-01-27T15:43:00Z</time>
      </trkpt>
      <trkpt lat="47.29171" lon="-1.60673">
        <ele>97</ele>
        <time>2022-01-27T15:43:01Z</time>
      </trkpt>
      <trkpt lat="47.29172" lon="-1.60671">
        <ele>97</ele>
        <time>2022-01-27T15:43:02Z</time>
      </trkpt>
      <trkpt lat="47.29173" lon="-1.6067">
        <ele>97</ele>
        <time>2022-01-27T15:43:03Z</time>
      </trkpt>
      <trkpt lat="47.29174" lon="-1.60668">
        <ele>97</ele>
        <time>2022-01-27T15:43:04Z</time>
      </trkpt>
      <trkpt lat="47.29175" lon="-1.60667">
        <ele>97</ele>
        <time>2022-01-27T15:43:05Z</time>
      </trkpt>
      <trkpt lat="47.29176" lon="-1.60664">
        <ele>97</ele>
        <time>2022-01-27T15:43:06Z</time>
      </trkpt>
      <trkpt lat="47.29176" lon="-1.60663">
        <ele>97</ele>
        <time>2022-01-27T15:43:07Z</time>
      </trkpt>
      <trkpt lat="47.29177" lon="-1.60661">
        <ele>97</ele>
        <time>2022-01-27T15:43:08Z</time>
      </trkpt>
      <trkpt lat="47.29178" lon="-1.6066">
        <ele>96</ele>
        <time>2022-01-27T15:43:09Z</time>
      </trkpt>
      <trkpt lat="47.29179" lon="-1.60658">
        <ele>96</ele>
        <time>2022-01-27T15:43:10Z</time>
      </trkpt>
      <trkpt lat="47.29179" lon="-1.60656">
        <ele>96</ele>
        <time>2022-01-27T15:43:11Z</time>
      </trkpt>
      <trkpt lat="47.2918" lon="-1.60654">
        <ele>96</ele>
        <time>2022-01-27T15:43:12Z</time>
      </trkpt>
      <trkpt lat="47.2918" lon="-1.60652">
        <ele>96</ele>
        <time>2022-01-27T15:43:13Z</time>
      </trkpt>
      <trkpt lat="47.29181" lon="-1.6065">
        <ele>96</ele>
        <time>2022-01-27T15:43:14Z</time>
      </trkpt>
      <trkpt lat="47.29182" lon="-1.60648">
        <ele>96</ele>
        <time>2022-01-27T15:43:15Z</time>
      </trkpt>
      <trkpt lat="47.29182" lon="-1.60646">
        <ele>95</ele>
        <time>2022-01-27T15:43:16Z</time>
      </trkpt>
      <trkpt lat="47.29183" lon="-1.60645">
        <ele>95</ele>
        <time>2022-01-27T15:43:17Z</time>
      </trkpt>
      <trkpt lat="47.29183" lon="-1.60644">
        <ele>95</ele>
        <time>2022-01-27T15:43:18Z</time>
      </trkpt>
      <trkpt lat="47.29184" lon="-1.60642">
        <ele>95</ele>
        <time>2022-01-27T15:43:19Z</time>
      </trkpt>
      <trkpt lat="47.29185" lon="-1.6064">
        <ele>94</ele>
        <time>2022-01-27T15:43:20Z</time>
      </trkpt>
      <trkpt lat="47.29186" lon="-1.60639">
        <ele>94</ele>
        <time>2022-01-27T15:43:21Z</time>
      </trkpt>
      <trkpt lat="47.29186" lon="-1.60637">
        <ele>94</ele>
        <time>2022-01-27T15:43:22Z</time>
      </trkpt>
      <trkpt lat="47.29187" lon="-1.60635">
        <ele>94</ele>
        <time>2022-01-27T15:43:23Z</time>
      </trkpt>
      <trkpt lat="47.29187" lon="-1.60633">
        <ele>94</ele>
        <time>2022-01-27T15:43:24Z</time>
      </trkpt>
      <trkpt lat="47.29188" lon="-1.60631">
        <ele>94</ele>
        <time>2022-01-27T15:43:25Z</time>
      </trkpt>
      <trkpt lat="47.29189" lon="-1.6063">
        <ele>94</ele>
        <time>2022-01-27T15:43:26Z</time>
      </trkpt>
      <trkpt lat="47.2919" lon="-1.60628">
        <ele>94</ele>
        <time>2022-01-27T15:43:27Z</time>
      </trkpt>
      <trkpt lat="47.2919" lon="-1.60626">
        <ele>94</ele>
        <time>2022-01-27T15:43:28Z</time>
      </trkpt>
      <trkpt lat="47.29191" lon="-1.60624">
        <ele>94</ele>
        <time>2022-01-27T15:43:29Z</time>
      </trkpt>
      <trkpt lat="47.29192" lon="-1.60622">
        <ele>94</ele>
        <time>2022-01-27T15:43:30Z</time>
      </trkpt>
      <trkpt lat="47.29192" lon="-1.6062">
        <ele>94</ele>
        <time>2022-01-27T15:43:31Z</time>
      </trkpt>
      <trkpt lat="47.29193" lon="-1.60618">
        <ele>94</ele>
        <time>2022-01-27T15:43:32Z</time>
      </trkpt>
      <trkpt lat="47.29194" lon="-1.60616">
        <ele>94</ele>
        <time>2022-01-27T15:43:33Z</time>
      </trkpt>
      <trkpt lat="47.29194" lon="-1.60615">
        <ele>94</ele>
        <time>2022-01-27T15:43:34Z</time>
      </trkpt>
      <trkpt lat="47.29195" lon="-1.60613">
        <ele>94</ele>
        <time>2022-01-27T15:43:35Z</time>
      </trkpt>
      <trkpt lat="47.29196" lon="-1.60611">
        <ele>95</ele>
        <time>2022-01-27T15:43:36Z</time>
      </trkpt>
      <trkpt lat="47.29196" lon="-1.6061">
        <ele>95</ele>
        <time>2022-01-27T15:43:37Z</time>
      </trkpt>
      <trkpt lat="47.29197" lon="-1.60608">
        <ele>94</ele>
        <time>2022-01-27T15:43:38Z</time>
      </trkpt>
      <trkpt lat="47.29198" lon="-1.60606">
        <ele>94</ele>
        <time>2022-01-27T15:43:39Z</time>
      </trkpt>
      <trkpt lat="47.292" lon="-1.60602">
        <ele>95</ele>
        <time>2022-01-27T15:43:40Z</time>
      </trkpt>
      <trkpt lat="47.292" lon="-1.60602">
        <ele>95</ele>
        <time>2022-01-27T15:43:40Z</time>
      </trkpt>
      <trkpt lat="47.292" lon="-1.606">
        <ele>95</ele>
        <time>2022-01-27T15:43:42Z</time>
      </trkpt>
      <trkpt lat="47.29201" lon="-1.60598">
        <ele>95</ele>
        <time>2022-01-27T15:43:43Z</time>
      </trkpt>
      <trkpt lat="47.29202" lon="-1.60597">
        <ele>95</ele>
        <time>2022-01-27T15:43:44Z</time>
      </trkpt>
      <trkpt lat="47.29202" lon="-1.60596">
        <ele>95</ele>
        <time>2022-01-27T15:43:45Z</time>
      </trkpt>
      <trkpt lat="47.29203" lon="-1.60594">
        <ele>95</ele>
        <time>2022-01-27T15:43:46Z</time>
      </trkpt>
      <trkpt lat="47.29203" lon="-1.60593">
        <ele>95</ele>
        <time>2022-01-27T15:43:48Z</time>
      </trkpt>
      <trkpt lat="47.29205" lon="-1.60589">
        <ele>94</ele>
        <time>2022-01-27T15:43:49Z</time>
      </trkpt>
      <trkpt lat="47.29205" lon="-1.60589">
        <ele>94</ele>
        <time>2022-01-27T15:43:49Z</time>
      </trkpt>
      <trkpt lat="47.29205" lon="-1.60588">
        <ele>95</ele>
        <time>2022-01-27T15:43:51Z</time>
      </trkpt>
      <trkpt lat="47.29207" lon="-1.60584">
        <ele>94</ele>
        <time>2022-01-27T15:43:52Z</time>
      </trkpt>
      <trkpt lat="47.29207" lon="-1.60584">
        <ele>94</ele>
        <time>2022-01-27T15:43:52Z</time>
      </trkpt>
      <trkpt lat="47.29208" lon="-1.60581">
        <ele>94</ele>
        <time>2022-01-27T15:43:54Z</time>
      </trkpt>
      <trkpt lat="47.29208" lon="-1.60581">
        <ele>94</ele>
        <time>2022-01-27T15:43:54Z</time>
      </trkpt>
      <trkpt lat="47.29209" lon="-1.60578">
        <ele>94</ele>
        <time>2022-01-27T15:43:56Z</time>
      </trkpt>
      <trkpt lat="47.2921" lon="-1.60576">
        <ele>94</ele>
        <time>2022-01-27T15:43:57Z</time>
      </trkpt>
      <trkpt lat="47.29211" lon="-1.60575">
        <ele>94</ele>
        <time>2022-01-27T15:43:58Z</time>
      </trkpt>
      <trkpt lat="47.29211" lon="-1.60573">
        <ele>95</ele>
        <time>2022-01-27T15:43:59Z</time>
      </trkpt>
      <trkpt lat="47.29211" lon="-1.60573">
        <ele>95</ele>
        <time>2022-01-27T15:43:59Z</time>
      </trkpt>
      <trkpt lat="47.29213" lon="-1.60569">
        <ele>95</ele>
        <time>2022-01-27T15:44:01Z</time>
      </trkpt>
      <trkpt lat="47.29213" lon="-1.60567">
        <ele>95</ele>
        <time>2022-01-27T15:44:02Z</time>
      </trkpt>
      <trkpt lat="47.29213" lon="-1.60567">
        <ele>95</ele>
        <time>2022-01-27T15:44:02Z</time>
      </trkpt>
      <trkpt lat="47.29215" lon="-1.60563">
        <ele>95</ele>
        <time>2022-01-27T15:44:04Z</time>
      </trkpt>
      <trkpt lat="47.29215" lon="-1.60563">
        <ele>95</ele>
        <time>2022-01-27T15:44:04Z</time>
      </trkpt>
      <trkpt lat="47.29216" lon="-1.60561">
        <ele>95</ele>
        <time>2022-01-27T15:44:06Z</time>
      </trkpt>
      <trkpt lat="47.29217" lon="-1.60557">
        <ele>95</ele>
        <time>2022-01-27T15:44:07Z</time>
      </trkpt>
      <trkpt lat="47.29218" lon="-1.60555">
        <ele>95</ele>
        <time>2022-01-27T15:44:08Z</time>
      </trkpt>
      <trkpt lat="47.29218" lon="-1.60552">
        <ele>95</ele>
        <time>2022-01-27T15:44:09Z</time>
      </trkpt>
      <trkpt lat="47.29219" lon="-1.60551">
        <ele>95</ele>
        <time>2022-01-27T15:44:10Z</time>
      </trkpt>
      <trkpt lat="47.29219" lon="-1.60549">
        <ele>95</ele>
        <time>2022-01-27T15:44:11Z</time>
      </trkpt>
      <trkpt lat="47.2922" lon="-1.60547">
        <ele>95</ele>
        <time>2022-01-27T15:44:12Z</time>
      </trkpt>
      <trkpt lat="47.29221" lon="-1.60544">
        <ele>95</ele>
        <time>2022-01-27T15:44:13Z</time>
      </trkpt>
      <trkpt lat="47.29221" lon="-1.60542">
        <ele>96</ele>
        <time>2022-01-27T15:44:14Z</time>
      </trkpt>
      <trkpt lat="47.29222" lon="-1.6054">
        <ele>96</ele>
        <time>2022-01-27T15:44:15Z</time>
      </trkpt>
      <trkpt lat="47.29223" lon="-1.60538">
        <ele>96</ele>
        <time>2022-01-27T15:44:16Z</time>
      </trkpt>
      <trkpt lat="47.29224" lon="-1.60536">
        <ele>96</ele>
        <time>2022-01-27T15:44:17Z</time>
      </trkpt>
      <trkpt lat="47.29225" lon="-1.60534">
        <ele>96</ele>
        <time>2022-01-27T15:44:18Z</time>
      </trkpt>
      <trkpt lat="47.29226" lon="-1.60532">
        <ele>96</ele>
        <time>2022-01-27T15:44:19Z</time>
      </trkpt>
      <trkpt lat="47.29226" lon="-1.6053">
        <ele>96</ele>
        <time>2022-01-27T15:44:20Z</time>
      </trkpt>
      <trkpt lat="47.29227" lon="-1.60528">
        <ele>96</ele>
        <time>2022-01-27T15:44:21Z</time>
      </trkpt>
      <trkpt lat="47.29227" lon="-1.60527">
        <ele>96</ele>
        <time>2022-01-27T15:44:22Z</time>
      </trkpt>
      <trkpt lat="47.29229" lon="-1.60525">
        <ele>96</ele>
        <time>2022-01-27T15:44:23Z</time>
      </trkpt>
      <trkpt lat="47.29229" lon="-1.60523">
        <ele>96</ele>
        <time>2022-01-27T15:44:24Z</time>
      </trkpt>
      <trkpt lat="47.2923" lon="-1.60522">
        <ele>95</ele>
        <time>2022-01-27T15:44:25Z</time>
      </trkpt>
      <trkpt lat="47.29231" lon="-1.6052">
        <ele>95</ele>
        <time>2022-01-27T15:44:26Z</time>
      </trkpt>
      <trkpt lat="47.29232" lon="-1.60519">
        <ele>95</ele>
        <time>2022-01-27T15:44:27Z</time>
      </trkpt>
      <trkpt lat="47.29233" lon="-1.60518">
        <ele>95</ele>
        <time>2022-01-27T15:44:28Z</time>
      </trkpt>
      <trkpt lat="47.29234" lon="-1.60516">
        <ele>95</ele>
        <time>2022-01-27T15:44:29Z</time>
      </trkpt>
      <trkpt lat="47.29235" lon="-1.60515">
        <ele>94</ele>
        <time>2022-01-27T15:44:30Z</time>
      </trkpt>
      <trkpt lat="47.29236" lon="-1.60513">
        <ele>94</ele>
        <time>2022-01-27T15:44:31Z</time>
      </trkpt>
      <trkpt lat="47.29236" lon="-1.60511">
        <ele>94</ele>
        <time>2022-01-27T15:44:32Z</time>
      </trkpt>
      <trkpt lat="47.29237" lon="-1.6051">
        <ele>94</ele>
        <time>2022-01-27T15:44:33Z</time>
      </trkpt>
      <trkpt lat="47.29238" lon="-1.60508">
        <ele>94</ele>
        <time>2022-01-27T15:44:34Z</time>
      </trkpt>
      <trkpt lat="47.29239" lon="-1.60507">
        <ele>94</ele>
        <time>2022-01-27T15:44:35Z</time>
      </trkpt>
      <trkpt lat="47.2924" lon="-1.60505">
        <ele>94</ele>
        <time>2022-01-27T15:44:36Z</time>
      </trkpt>
      <trkpt lat="47.29241" lon="-1.60504">
        <ele>94</ele>
        <time>2022-01-27T15:44:37Z</time>
      </trkpt>
      <trkpt lat="47.29242" lon="-1.60502">
        <ele>95</ele>
        <time>2022-01-27T15:44:38Z</time>
      </trkpt>
      <trkpt lat="47.29243" lon="-1.60501">
        <ele>95</ele>
        <time>2022-01-27T15:44:39Z</time>
      </trkpt>
      <trkpt lat="47.29244" lon="-1.605">
        <ele>95</ele>
        <time>2022-01-27T15:44:40Z</time>
      </trkpt>
      <trkpt lat="47.29245" lon="-1.60498">
        <ele>95</ele>
        <time>2022-01-27T15:44:41Z</time>
      </trkpt>
      <trkpt lat="47.29247" lon="-1.60497">
        <ele>95</ele>
        <time>2022-01-27T15:44:42Z</time>
      </trkpt>
      <trkpt lat="47.29248" lon="-1.60496">
        <ele>95</ele>
        <time>2022-01-27T15:44:43Z</time>
      </trkpt>
      <trkpt lat="47.29248" lon="-1.60495">
        <ele>95</ele>
        <time>2022-01-27T15:44:44Z</time>
      </trkpt>
      <trkpt lat="47.2925" lon="-1.60494">
        <ele>96</ele>
        <time>2022-01-27T15:44:45Z</time>
      </trkpt>
      <trkpt lat="47.2925" lon="-1.60493">
        <ele>95</ele>
        <time>2022-01-27T15:44:46Z</time>
      </trkpt>
      <trkpt lat="47.29252" lon="-1.60492">
        <ele>96</ele>
        <time>2022-01-27T15:44:47Z</time>
      </trkpt>
      <trkpt lat="47.29253" lon="-1.60491">
        <ele>95</ele>
        <time>2022-01-27T15:44:48Z</time>
      </trkpt>
      <trkpt lat="47.29254" lon="-1.6049">
        <ele>95</ele>
        <time>2022-01-27T15:44:49Z</time>
      </trkpt>
      <trkpt lat="47.29255" lon="-1.60489">
        <ele>95</ele>
        <time>2022-01-27T15:44:50Z</time>
      </trkpt>
      <trkpt lat="47.29256" lon="-1.60489">
        <ele>95</ele>
        <time>2022-01-27T15:44:51Z</time>
      </trkpt>
      <trkpt lat="47.29258" lon="-1.60488">
        <ele>95</ele>
        <time>2022-01-27T15:44:52Z</time>
      </trkpt>
      <trkpt lat="47.29259" lon="-1.60487">
        <ele>95</ele>
        <time>2022-01-27T15:44:53Z</time>
      </trkpt>
      <trkpt lat="47.29261" lon="-1.60486">
        <ele>95</ele>
        <time>2022-01-27T15:44:54Z</time>
      </trkpt>
      <trkpt lat="47.29262" lon="-1.60486">
        <ele>94</ele>
        <time>2022-01-27T15:44:55Z</time>
      </trkpt>
      <trkpt lat="47.29263" lon="-1.60486">
        <ele>94</ele>
        <time>2022-01-27T15:44:56Z</time>
      </trkpt>
      <trkpt lat="47.29265" lon="-1.60485">
        <ele>94</ele>
        <time>2022-01-27T15:44:57Z</time>
      </trkpt>
      <trkpt lat="47.29266" lon="-1.60484">
        <ele>94</ele>
        <time>2022-01-27T15:44:58Z</time>
      </trkpt>
      <trkpt lat="47.29267" lon="-1.60483">
        <ele>94</ele>
        <time>2022-01-27T15:44:59Z</time>
      </trkpt>
      <trkpt lat="47.29268" lon="-1.60483">
        <ele>95</ele>
        <time>2022-01-27T15:45:00Z</time>
      </trkpt>
      <trkpt lat="47.29269" lon="-1.60482">
        <ele>96</ele>
        <time>2022-01-27T15:45:01Z</time>
      </trkpt>
      <trkpt lat="47.2927" lon="-1.60481">
        <ele>96</ele>
        <time>2022-01-27T15:45:02Z</time>
      </trkpt>
      <trkpt lat="47.29271" lon="-1.6048">
        <ele>96</ele>
        <time>2022-01-27T15:45:03Z</time>
      </trkpt>
      <trkpt lat="47.29273" lon="-1.60479">
        <ele>96</ele>
        <time>2022-01-27T15:45:04Z</time>
      </trkpt>
      <trkpt lat="47.29274" lon="-1.60478">
        <ele>97</ele>
        <time>2022-01-27T15:45:05Z</time>
      </trkpt>
      <trkpt lat="47.29275" lon="-1.60477">
        <ele>97</ele>
        <time>2022-01-27T15:45:06Z</time>
      </trkpt>
      <trkpt lat="47.29277" lon="-1.60477">
        <ele>97</ele>
        <time>2022-01-27T15:45:07Z</time>
      </trkpt>
      <trkpt lat="47.29278" lon="-1.60476">
        <ele>97</ele>
        <time>2022-01-27T15:45:08Z</time>
      </trkpt>
      <trkpt lat="47.29279" lon="-1.60475">
        <ele>97</ele>
        <time>2022-01-27T15:45:09Z</time>
      </trkpt>
      <trkpt lat="47.29281" lon="-1.60474">
        <ele>97</ele>
        <time>2022-01-27T15:45:10Z</time>
      </trkpt>
      <trkpt lat="47.29282" lon="-1.60473">
        <ele>97</ele>
        <time>2022-01-27T15:45:11Z</time>
      </trkpt>
      <trkpt lat="47.29282" lon="-1.60473">
        <ele>97</ele>
        <time>2022-01-27T15:45:12Z</time>
      </trkpt>
      <trkpt lat="47.29283" lon="-1.60471">
        <ele>97</ele>
        <time>2022-01-27T15:45:13Z</time>
      </trkpt>
      <trkpt lat="47.29285" lon="-1.60471">
        <ele>97</ele>
        <time>2022-01-27T15:45:14Z</time>
      </trkpt>
      <trkpt lat="47.29287" lon="-1.6047">
        <ele>97</ele>
        <time>2022-01-27T15:45:15Z</time>
      </trkpt>
      <trkpt lat="47.29288" lon="-1.6047">
        <ele>97</ele>
        <time>2022-01-27T15:45:16Z</time>
      </trkpt>
      <trkpt lat="47.29289" lon="-1.60469">
        <ele>97</ele>
        <time>2022-01-27T15:45:17Z</time>
      </trkpt>
      <trkpt lat="47.29291" lon="-1.60468">
        <ele>97</ele>
        <time>2022-01-27T15:45:18Z</time>
      </trkpt>
      <trkpt lat="47.29292" lon="-1.60467">
        <ele>97</ele>
        <time>2022-01-27T15:45:19Z</time>
      </trkpt>
      <trkpt lat="47.29293" lon="-1.60466">
        <ele>97</ele>
        <time>2022-01-27T15:45:20Z</time>
      </trkpt>
      <trkpt lat="47.29295" lon="-1.60464">
        <ele>97</ele>
        <time>2022-01-27T15:45:21Z</time>
      </trkpt>
      <trkpt lat="47.29295" lon="-1.60463">
        <ele>97</ele>
        <time>2022-01-27T15:45:22Z</time>
      </trkpt>
      <trkpt lat="47.29296" lon="-1.60462">
        <ele>96</ele>
        <time>2022-01-27T15:45:23Z</time>
      </trkpt>
      <trkpt lat="47.29297" lon="-1.60461">
        <ele>96</ele>
        <time>2022-01-27T15:45:24Z</time>
      </trkpt>
      <trkpt lat="47.29298" lon="-1.60459">
        <ele>96</ele>
        <time>2022-01-27T15:45:25Z</time>
      </trkpt>
      <trkpt lat="47.29299" lon="-1.60457">
        <ele>95</ele>
        <time>2022-01-27T15:45:26Z</time>
      </trkpt>
      <trkpt lat="47.29301" lon="-1.60456">
        <ele>95</ele>
        <time>2022-01-27T15:45:27Z</time>
      </trkpt>
      <trkpt lat="47.29302" lon="-1.60455">
        <ele>95</ele>
        <time>2022-01-27T15:45:28Z</time>
      </trkpt>
      <trkpt lat="47.29303" lon="-1.60454">
        <ele>95</ele>
        <time>2022-01-27T15:45:29Z</time>
      </trkpt>
      <trkpt lat="47.29304" lon="-1.60453">
        <ele>95</ele>
        <time>2022-01-27T15:45:30Z</time>
      </trkpt>
      <trkpt lat="47.29305" lon="-1.60452">
        <ele>95</ele>
        <time>2022-01-27T15:45:31Z</time>
      </trkpt>
      <trkpt lat="47.29307" lon="-1.60451">
        <ele>95</ele>
        <time>2022-01-27T15:45:32Z</time>
      </trkpt>
      <trkpt lat="47.29308" lon="-1.6045">
        <ele>95</ele>
        <time>2022-01-27T15:45:33Z</time>
      </trkpt>
      <trkpt lat="47.29309" lon="-1.60449">
        <ele>95</ele>
        <time>2022-01-27T15:45:34Z</time>
      </trkpt>
      <trkpt lat="47.29311" lon="-1.60448">
        <ele>95</ele>
        <time>2022-01-27T15:45:35Z</time>
      </trkpt>
      <trkpt lat="47.29312" lon="-1.60447">
        <ele>95</ele>
        <time>2022-01-27T15:45:36Z</time>
      </trkpt>
      <trkpt lat="47.29313" lon="-1.60445">
        <ele>95</ele>
        <time>2022-01-27T15:45:37Z</time>
      </trkpt>
      <trkpt lat="47.29314" lon="-1.60444">
        <ele>95</ele>
        <time>2022-01-27T15:45:38Z</time>
      </trkpt>
      <trkpt lat="47.29315" lon="-1.60442">
        <ele>95</ele>
        <time>2022-01-27T15:45:39Z</time>
      </trkpt>
      <trkpt lat="47.29316" lon="-1.60441">
        <ele>95</ele>
        <time>2022-01-27T15:45:40Z</time>
      </trkpt>
      <trkpt lat="47.29317" lon="-1.60439">
        <ele>95</ele>
        <time>2022-01-27T15:45:41Z</time>
      </trkpt>
      <trkpt lat="47.29318" lon="-1.60438">
        <ele>95</ele>
        <time>2022-01-27T15:45:42Z</time>
      </trkpt>
      <trkpt lat="47.29319" lon="-1.60436">
        <ele>96</ele>
        <time>2022-01-27T15:45:43Z</time>
      </trkpt>
      <trkpt lat="47.2932" lon="-1.60435">
        <ele>95</ele>
        <time>2022-01-27T15:45:44Z</time>
      </trkpt>
      <trkpt lat="47.29321" lon="-1.60433">
        <ele>95</ele>
        <time>2022-01-27T15:45:45Z</time>
      </trkpt>
      <trkpt lat="47.29322" lon="-1.60432">
        <ele>95</ele>
        <time>2022-01-27T15:45:46Z</time>
      </trkpt>
      <trkpt lat="47.29323" lon="-1.60431">
        <ele>96</ele>
        <time>2022-01-27T15:45:47Z</time>
      </trkpt>
      <trkpt lat="47.29324" lon="-1.6043">
        <ele>96</ele>
        <time>2022-01-27T15:45:48Z</time>
      </trkpt>
      <trkpt lat="47.29325" lon="-1.60429">
        <ele>96</ele>
        <time>2022-01-27T15:45:49Z</time>
      </trkpt>
      <trkpt lat="47.29326" lon="-1.60428">
        <ele>96</ele>
        <time>2022-01-27T15:45:50Z</time>
      </trkpt>
      <trkpt lat="47.29327" lon="-1.60427">
        <ele>96</ele>
        <time>2022-01-27T15:45:51Z</time>
      </trkpt>
      <trkpt lat="47.29328" lon="-1.60426">
        <ele>96</ele>
        <time>2022-01-27T15:45:52Z</time>
      </trkpt>
      <trkpt lat="47.29329" lon="-1.60424">
        <ele>96</ele>
        <time>2022-01-27T15:45:53Z</time>
      </trkpt>
      <trkpt lat="47.2933" lon="-1.60423">
        <ele>96</ele>
        <time>2022-01-27T15:45:54Z</time>
      </trkpt>
      <trkpt lat="47.29331" lon="-1.60422">
        <ele>96</ele>
        <time>2022-01-27T15:45:55Z</time>
      </trkpt>
      <trkpt lat="47.29332" lon="-1.6042">
        <ele>96</ele>
        <time>2022-01-27T15:45:56Z</time>
      </trkpt>
      <trkpt lat="47.29333" lon="-1.60419">
        <ele>96</ele>
        <time>2022-01-27T15:45:57Z</time>
      </trkpt>
      <trkpt lat="47.29334" lon="-1.60418">
        <ele>96</ele>
        <time>2022-01-27T15:45:58Z</time>
      </trkpt>
      <trkpt lat="47.29335" lon="-1.60417">
        <ele>97</ele>
        <time>2022-01-27T15:45:59Z</time>
      </trkpt>
      <trkpt lat="47.29336" lon="-1.60415">
        <ele>97</ele>
        <time>2022-01-27T15:46:00Z</time>
      </trkpt>
      <trkpt lat="47.29337" lon="-1.60414">
        <ele>97</ele>
        <time>2022-01-27T15:46:01Z</time>
      </trkpt>
      <trkpt lat="47.29338" lon="-1.60413">
        <ele>97</ele>
        <time>2022-01-27T15:46:02Z</time>
      </trkpt>
      <trkpt lat="47.29339" lon="-1.60411">
        <ele>97</ele>
        <time>2022-01-27T15:46:03Z</time>
      </trkpt>
      <trkpt lat="47.2934" lon="-1.60411">
        <ele>97</ele>
        <time>2022-01-27T15:46:04Z</time>
      </trkpt>
      <trkpt lat="47.29341" lon="-1.6041">
        <ele>97</ele>
        <time>2022-01-27T15:46:05Z</time>
      </trkpt>
      <trkpt lat="47.29342" lon="-1.60409">
        <ele>97</ele>
        <time>2022-01-27T15:46:06Z</time>
      </trkpt>
      <trkpt lat="47.29343" lon="-1.60407">
        <ele>96</ele>
        <time>2022-01-27T15:46:07Z</time>
      </trkpt>
      <trkpt lat="47.29344" lon="-1.60405">
        <ele>96</ele>
        <time>2022-01-27T15:46:08Z</time>
      </trkpt>
      <trkpt lat="47.29345" lon="-1.60404">
        <ele>96</ele>
        <time>2022-01-27T15:46:09Z</time>
      </trkpt>
      <trkpt lat="47.29346" lon="-1.60403">
        <ele>96</ele>
        <time>2022-01-27T15:46:10Z</time>
      </trkpt>
      <trkpt lat="47.29347" lon="-1.60401">
        <ele>97</ele>
        <time>2022-01-27T15:46:11Z</time>
      </trkpt>
      <trkpt lat="47.29347" lon="-1.604">
        <ele>97</ele>
        <time>2022-01-27T15:46:12Z</time>
      </trkpt>
      <trkpt lat="47.29348" lon="-1.60399">
        <ele>97</ele>
        <time>2022-01-27T15:46:13Z</time>
      </trkpt>
      <trkpt lat="47.29349" lon="-1.60398">
        <ele>96</ele>
        <time>2022-01-27T15:46:14Z</time>
      </trkpt>
      <trkpt lat="47.2935" lon="-1.60398">
        <ele>97</ele>
        <time>2022-01-27T15:46:15Z</time>
      </trkpt>
      <trkpt lat="47.29351" lon="-1.60396">
        <ele>96</ele>
        <time>2022-01-27T15:46:16Z</time>
      </trkpt>
      <trkpt lat="47.29352" lon="-1.60395">
        <ele>96</ele>
        <time>2022-01-27T15:46:17Z</time>
      </trkpt>
      <trkpt lat="47.29353" lon="-1.60394">
        <ele>97</ele>
        <time>2022-01-27T15:46:18Z</time>
      </trkpt>
      <trkpt lat="47.29354" lon="-1.60393">
        <ele>97</ele>
        <time>2022-01-27T15:46:19Z</time>
      </trkpt>
      <trkpt lat="47.29355" lon="-1.60392">
        <ele>96</ele>
        <time>2022-01-27T15:46:20Z</time>
      </trkpt>
      <trkpt lat="47.29355" lon="-1.60391">
        <ele>96</ele>
        <time>2022-01-27T15:46:21Z</time>
      </trkpt>
      <trkpt lat="47.29356" lon="-1.6039">
        <ele>96</ele>
        <time>2022-01-27T15:46:22Z</time>
      </trkpt>
      <trkpt lat="47.29358" lon="-1.60389">
        <ele>96</ele>
        <time>2022-01-27T15:46:23Z</time>
      </trkpt>
      <trkpt lat="47.29359" lon="-1.60388">
        <ele>96</ele>
        <time>2022-01-27T15:46:24Z</time>
      </trkpt>
      <trkpt lat="47.29359" lon="-1.60386">
        <ele>96</ele>
        <time>2022-01-27T15:46:25Z</time>
      </trkpt>
      <trkpt lat="47.2936" lon="-1.60385">
        <ele>96</ele>
        <time>2022-01-27T15:46:26Z</time>
      </trkpt>
      <trkpt lat="47.29361" lon="-1.60384">
        <ele>96</ele>
        <time>2022-01-27T15:46:27Z</time>
      </trkpt>
      <trkpt lat="47.29362" lon="-1.60382">
        <ele>96</ele>
        <time>2022-01-27T15:46:28Z</time>
      </trkpt>
      <trkpt lat="47.29363" lon="-1.60381">
        <ele>96</ele>
        <time>2022-01-27T15:46:29Z</time>
      </trkpt>
      <trkpt lat="47.29363" lon="-1.6038">
        <ele>96</ele>
        <time>2022-01-27T15:46:30Z</time>
      </trkpt>
      <trkpt lat="47.29364" lon="-1.60378">
        <ele>96</ele>
        <time>2022-01-27T15:46:31Z</time>
      </trkpt>
      <trkpt lat="47.29365" lon="-1.60377">
        <ele>96</ele>
        <time>2022-01-27T15:46:32Z</time>
      </trkpt>
      <trkpt lat="47.29366" lon="-1.60375">
        <ele>96</ele>
        <time>2022-01-27T15:46:33Z</time>
      </trkpt>
      <trkpt lat="47.29367" lon="-1.60373">
        <ele>95</ele>
        <time>2022-01-27T15:46:34Z</time>
      </trkpt>
      <trkpt lat="47.29367" lon="-1.60372">
        <ele>95</ele>
        <time>2022-01-27T15:46:35Z</time>
      </trkpt>
      <trkpt lat="47.29369" lon="-1.6037">
        <ele>95</ele>
        <time>2022-01-27T15:46:36Z</time>
      </trkpt>
      <trkpt lat="47.2937" lon="-1.60368">
        <ele>95</ele>
        <time>2022-01-27T15:46:37Z</time>
      </trkpt>
      <trkpt lat="47.29371" lon="-1.60366">
        <ele>95</ele>
        <time>2022-01-27T15:46:38Z</time>
      </trkpt>
      <trkpt lat="47.29372" lon="-1.60365">
        <ele>94</ele>
        <time>2022-01-27T15:46:39Z</time>
      </trkpt>
      <trkpt lat="47.29373" lon="-1.60363">
        <ele>94</ele>
        <time>2022-01-27T15:46:40Z</time>
      </trkpt>
      <trkpt lat="47.29374" lon="-1.60362">
        <ele>94</ele>
        <time>2022-01-27T15:46:41Z</time>
      </trkpt>
      <trkpt lat="47.29375" lon="-1.60361">
        <ele>95</ele>
        <time>2022-01-27T15:46:42Z</time>
      </trkpt>
      <trkpt lat="47.29376" lon="-1.6036">
        <ele>94</ele>
        <time>2022-01-27T15:46:43Z</time>
      </trkpt>
      <trkpt lat="47.29377" lon="-1.60358">
        <ele>94</ele>
        <time>2022-01-27T15:46:44Z</time>
      </trkpt>
      <trkpt lat="47.29378" lon="-1.60357">
        <ele>94</ele>
        <time>2022-01-27T15:46:45Z</time>
      </trkpt>
      <trkpt lat="47.29379" lon="-1.60355">
        <ele>94</ele>
        <time>2022-01-27T15:46:46Z</time>
      </trkpt>
      <trkpt lat="47.2938" lon="-1.60354">
        <ele>94</ele>
        <time>2022-01-27T15:46:47Z</time>
      </trkpt>
      <trkpt lat="47.29381" lon="-1.60353">
        <ele>94</ele>
        <time>2022-01-27T15:46:48Z</time>
      </trkpt>
      <trkpt lat="47.29382" lon="-1.60352">
        <ele>94</ele>
        <time>2022-01-27T15:46:49Z</time>
      </trkpt>
      <trkpt lat="47.29384" lon="-1.6035">
        <ele>94</ele>
        <time>2022-01-27T15:46:50Z</time>
      </trkpt>
      <trkpt lat="47.29385" lon="-1.60349">
        <ele>94</ele>
        <time>2022-01-27T15:46:51Z</time>
      </trkpt>
      <trkpt lat="47.29385" lon="-1.60347">
        <ele>94</ele>
        <time>2022-01-27T15:46:52Z</time>
      </trkpt>
      <trkpt lat="47.29387" lon="-1.60346">
        <ele>94</ele>
        <time>2022-01-27T15:46:53Z</time>
      </trkpt>
      <trkpt lat="47.29388" lon="-1.60345">
        <ele>94</ele>
        <time>2022-01-27T15:46:54Z</time>
      </trkpt>
      <trkpt lat="47.29389" lon="-1.60344">
        <ele>94</ele>
        <time>2022-01-27T15:46:55Z</time>
      </trkpt>
      <trkpt lat="47.2939" lon="-1.60343">
        <ele>94</ele>
        <time>2022-01-27T15:46:56Z</time>
      </trkpt>
      <trkpt lat="47.29391" lon="-1.60342">
        <ele>94</ele>
        <time>2022-01-27T15:46:57Z</time>
      </trkpt>
      <trkpt lat="47.29392" lon="-1.60341">
        <ele>94</ele>
        <time>2022-01-27T15:46:58Z</time>
      </trkpt>
      <trkpt lat="47.29393" lon="-1.6034">
        <ele>94</ele>
        <time>2022-01-27T15:46:59Z</time>
      </trkpt>
      <trkpt lat="47.29394" lon="-1.60339">
        <ele>94</ele>
        <time>2022-01-27T15:47:00Z</time>
      </trkpt>
      <trkpt lat="47.29395" lon="-1.60337">
        <ele>94</ele>
        <time>2022-01-27T15:47:01Z</time>
      </trkpt>
      <trkpt lat="47.29396" lon="-1.60336">
        <ele>94</ele>
        <time>2022-01-27T15:47:02Z</time>
      </trkpt>
      <trkpt lat="47.29396" lon="-1.60335">
        <ele>94</ele>
        <time>2022-01-27T15:47:03Z</time>
      </trkpt>
      <trkpt lat="47.29398" lon="-1.60333">
        <ele>95</ele>
        <time>2022-01-27T15:47:04Z</time>
      </trkpt>
      <trkpt lat="47.29398" lon="-1.60332">
        <ele>95</ele>
        <time>2022-01-27T15:47:05Z</time>
      </trkpt>
      <trkpt lat="47.29399" lon="-1.6033">
        <ele>95</ele>
        <time>2022-01-27T15:47:06Z</time>
      </trkpt>
      <trkpt lat="47.294" lon="-1.60329">
        <ele>95</ele>
        <time>2022-01-27T15:47:07Z</time>
      </trkpt>
      <trkpt lat="47.29401" lon="-1.60327">
        <ele>95</ele>
        <time>2022-01-27T15:47:08Z</time>
      </trkpt>
      <trkpt lat="47.29402" lon="-1.60325">
        <ele>95</ele>
        <time>2022-01-27T15:47:09Z</time>
      </trkpt>
      <trkpt lat="47.29403" lon="-1.60323">
        <ele>95</ele>
        <time>2022-01-27T15:47:10Z</time>
      </trkpt>
      <trkpt lat="47.29404" lon="-1.60322">
        <ele>95</ele>
        <time>2022-01-27T15:47:11Z</time>
      </trkpt>
      <trkpt lat="47.29405" lon="-1.60321">
        <ele>95</ele>
        <time>2022-01-27T15:47:12Z</time>
      </trkpt>
      <trkpt lat="47.29405" lon="-1.6032">
        <ele>95</ele>
        <time>2022-01-27T15:47:13Z</time>
      </trkpt>
      <trkpt lat="47.29406" lon="-1.60318">
        <ele>95</ele>
        <time>2022-01-27T15:47:14Z</time>
      </trkpt>
      <trkpt lat="47.29407" lon="-1.60317">
        <ele>95</ele>
        <time>2022-01-27T15:47:15Z</time>
      </trkpt>
      <trkpt lat="47.29408" lon="-1.60315">
        <ele>95</ele>
        <time>2022-01-27T15:47:16Z</time>
      </trkpt>
      <trkpt lat="47.29409" lon="-1.60313">
        <ele>96</ele>
        <time>2022-01-27T15:47:17Z</time>
      </trkpt>
      <trkpt lat="47.29409" lon="-1.60312">
        <ele>95</ele>
        <time>2022-01-27T15:47:18Z</time>
      </trkpt>
      <trkpt lat="47.2941" lon="-1.6031">
        <ele>95</ele>
        <time>2022-01-27T15:47:19Z</time>
      </trkpt>
      <trkpt lat="47.29411" lon="-1.60308">
        <ele>96</ele>
        <time>2022-01-27T15:47:20Z</time>
      </trkpt>
      <trkpt lat="47.29412" lon="-1.60306">
        <ele>95</ele>
        <time>2022-01-27T15:47:21Z</time>
      </trkpt>
      <trkpt lat="47.29413" lon="-1.60305">
        <ele>95</ele>
        <time>2022-01-27T15:47:22Z</time>
      </trkpt>
      <trkpt lat="47.29414" lon="-1.60303">
        <ele>96</ele>
        <time>2022-01-27T15:47:23Z</time>
      </trkpt>
      <trkpt lat="47.29414" lon="-1.60301">
        <ele>96</ele>
        <time>2022-01-27T15:47:24Z</time>
      </trkpt>
      <trkpt lat="47.29415" lon="-1.603">
        <ele>96</ele>
        <time>2022-01-27T15:47:25Z</time>
      </trkpt>
      <trkpt lat="47.29416" lon="-1.60298">
        <ele>96</ele>
        <time>2022-01-27T15:47:26Z</time>
      </trkpt>
      <trkpt lat="47.29417" lon="-1.60296">
        <ele>96</ele>
        <time>2022-01-27T15:47:27Z</time>
      </trkpt>
      <trkpt lat="47.29417" lon="-1.60295">
        <ele>96</ele>
        <time>2022-01-27T15:47:28Z</time>
      </trkpt>
      <trkpt lat="47.29419" lon="-1.60293">
        <ele>96</ele>
        <time>2022-01-27T15:47:29Z</time>
      </trkpt>
      <trkpt lat="47.29419" lon="-1.60292">
        <ele>97</ele>
        <time>2022-01-27T15:47:30Z</time>
      </trkpt>
      <trkpt lat="47.29421" lon="-1.60291">
        <ele>97</ele>
        <time>2022-01-27T15:47:31Z</time>
      </trkpt>
      <trkpt lat="47.29422" lon="-1.6029">
        <ele>97</ele>
        <time>2022-01-27T15:47:32Z</time>
      </trkpt>
      <trkpt lat="47.29422" lon="-1.60288">
        <ele>98</ele>
        <time>2022-01-27T15:47:33Z</time>
      </trkpt>
      <trkpt lat="47.29424" lon="-1.60287">
        <ele>98</ele>
        <time>2022-01-27T15:47:34Z</time>
      </trkpt>
      <trkpt lat="47.29424" lon="-1.60285">
        <ele>98</ele>
        <time>2022-01-27T15:47:35Z</time>
      </trkpt>
      <trkpt lat="47.29425" lon="-1.60284">
        <ele>98</ele>
        <time>2022-01-27T15:47:36Z</time>
      </trkpt>
      <trkpt lat="47.29426" lon="-1.60282">
        <ele>98</ele>
        <time>2022-01-27T15:47:37Z</time>
      </trkpt>
      <trkpt lat="47.29427" lon="-1.60281">
        <ele>99</ele>
        <time>2022-01-27T15:47:38Z</time>
      </trkpt>
      <trkpt lat="47.29427" lon="-1.60279">
        <ele>99</ele>
        <time>2022-01-27T15:47:39Z</time>
      </trkpt>
      <trkpt lat="47.29428" lon="-1.60277">
        <ele>99</ele>
        <time>2022-01-27T15:47:40Z</time>
      </trkpt>
      <trkpt lat="47.29429" lon="-1.60275">
        <ele>100</ele>
        <time>2022-01-27T15:47:41Z</time>
      </trkpt>
      <trkpt lat="47.29429" lon="-1.60272">
        <ele>100</ele>
        <time>2022-01-27T15:47:42Z</time>
      </trkpt>
      <trkpt lat="47.2943" lon="-1.6027">
        <ele>101</ele>
        <time>2022-01-27T15:47:43Z</time>
      </trkpt>
      <trkpt lat="47.29431" lon="-1.60268">
        <ele>101</ele>
        <time>2022-01-27T15:47:44Z</time>
      </trkpt>
      <trkpt lat="47.29431" lon="-1.60266">
        <ele>101</ele>
        <time>2022-01-27T15:47:45Z</time>
      </trkpt>
      <trkpt lat="47.29432" lon="-1.60265">
        <ele>101</ele>
        <time>2022-01-27T15:47:46Z</time>
      </trkpt>
      <trkpt lat="47.29433" lon="-1.60263">
        <ele>101</ele>
        <time>2022-01-27T15:47:47Z</time>
      </trkpt>
      <trkpt lat="47.29434" lon="-1.60262">
        <ele>102</ele>
        <time>2022-01-27T15:47:48Z</time>
      </trkpt>
      <trkpt lat="47.29435" lon="-1.6026">
        <ele>102</ele>
        <time>2022-01-27T15:47:49Z</time>
      </trkpt>
      <trkpt lat="47.29436" lon="-1.60259">
        <ele>102</ele>
        <time>2022-01-27T15:47:50Z</time>
      </trkpt>
      <trkpt lat="47.29437" lon="-1.60257">
        <ele>102</ele>
        <time>2022-01-27T15:47:51Z</time>
      </trkpt>
      <trkpt lat="47.29438" lon="-1.60255">
        <ele>102</ele>
        <time>2022-01-27T15:47:52Z</time>
      </trkpt>
      <trkpt lat="47.29439" lon="-1.60254">
        <ele>102</ele>
        <time>2022-01-27T15:47:53Z</time>
      </trkpt>
      <trkpt lat="47.2944" lon="-1.60252">
        <ele>103</ele>
        <time>2022-01-27T15:47:54Z</time>
      </trkpt>
      <trkpt lat="47.29441" lon="-1.60251">
        <ele>103</ele>
        <time>2022-01-27T15:47:55Z</time>
      </trkpt>
      <trkpt lat="47.29442" lon="-1.6025">
        <ele>102</ele>
        <time>2022-01-27T15:47:56Z</time>
      </trkpt>
      <trkpt lat="47.29443" lon="-1.60249">
        <ele>102</ele>
        <time>2022-01-27T15:47:57Z</time>
      </trkpt>
      <trkpt lat="47.29444" lon="-1.60247">
        <ele>102</ele>
        <time>2022-01-27T15:47:58Z</time>
      </trkpt>
      <trkpt lat="47.29445" lon="-1.60245">
        <ele>103</ele>
        <time>2022-01-27T15:47:59Z</time>
      </trkpt>
      <trkpt lat="47.29445" lon="-1.60244">
        <ele>103</ele>
        <time>2022-01-27T15:48:00Z</time>
      </trkpt>
      <trkpt lat="47.29446" lon="-1.60242">
        <ele>103</ele>
        <time>2022-01-27T15:48:01Z</time>
      </trkpt>
      <trkpt lat="47.29447" lon="-1.60241">
        <ele>103</ele>
        <time>2022-01-27T15:48:02Z</time>
      </trkpt>
      <trkpt lat="47.29448" lon="-1.6024">
        <ele>103</ele>
        <time>2022-01-27T15:48:03Z</time>
      </trkpt>
      <trkpt lat="47.29448" lon="-1.60238">
        <ele>103</ele>
        <time>2022-01-27T15:48:04Z</time>
      </trkpt>
      <trkpt lat="47.29449" lon="-1.60236">
        <ele>103</ele>
        <time>2022-01-27T15:48:05Z</time>
      </trkpt>
      <trkpt lat="47.2945" lon="-1.60235">
        <ele>103</ele>
        <time>2022-01-27T15:48:06Z</time>
      </trkpt>
      <trkpt lat="47.2945" lon="-1.60233">
        <ele>103</ele>
        <time>2022-01-27T15:48:07Z</time>
      </trkpt>
      <trkpt lat="47.29451" lon="-1.60231">
        <ele>103</ele>
        <time>2022-01-27T15:48:08Z</time>
      </trkpt>
      <trkpt lat="47.29451" lon="-1.60229">
        <ele>103</ele>
        <time>2022-01-27T15:48:09Z</time>
      </trkpt>
      <trkpt lat="47.29452" lon="-1.60227">
        <ele>103</ele>
        <time>2022-01-27T15:48:10Z</time>
      </trkpt>
      <trkpt lat="47.29453" lon="-1.60225">
        <ele>103</ele>
        <time>2022-01-27T15:48:11Z</time>
      </trkpt>
      <trkpt lat="47.29453" lon="-1.60223">
        <ele>103</ele>
        <time>2022-01-27T15:48:12Z</time>
      </trkpt>
      <trkpt lat="47.29453" lon="-1.60221">
        <ele>104</ele>
        <time>2022-01-27T15:48:13Z</time>
      </trkpt>
      <trkpt lat="47.29453" lon="-1.60219">
        <ele>104</ele>
        <time>2022-01-27T15:48:14Z</time>
      </trkpt>
      <trkpt lat="47.29453" lon="-1.60217">
        <ele>104</ele>
        <time>2022-01-27T15:48:15Z</time>
      </trkpt>
      <trkpt lat="47.29453" lon="-1.60215">
        <ele>104</ele>
        <time>2022-01-27T15:48:16Z</time>
      </trkpt>
      <trkpt lat="47.29453" lon="-1.60213">
        <ele>104</ele>
        <time>2022-01-27T15:48:17Z</time>
      </trkpt>
      <trkpt lat="47.29453" lon="-1.6021">
        <ele>104</ele>
        <time>2022-01-27T15:48:18Z</time>
      </trkpt>
      <trkpt lat="47.29453" lon="-1.60208">
        <ele>104</ele>
        <time>2022-01-27T15:48:19Z</time>
      </trkpt>
      <trkpt lat="47.29453" lon="-1.60207">
        <ele>105</ele>
        <time>2022-01-27T15:48:20Z</time>
      </trkpt>
      <trkpt lat="47.29453" lon="-1.60205">
        <ele>105</ele>
        <time>2022-01-27T15:48:21Z</time>
      </trkpt>
      <trkpt lat="47.29453" lon="-1.60203">
        <ele>105</ele>
        <time>2022-01-27T15:48:22Z</time>
      </trkpt>
      <trkpt lat="47.29453" lon="-1.60202">
        <ele>105</ele>
        <time>2022-01-27T15:48:23Z</time>
      </trkpt>
      <trkpt lat="47.29453" lon="-1.602">
        <ele>105</ele>
        <time>2022-01-27T15:48:24Z</time>
      </trkpt>
      <trkpt lat="47.29453" lon="-1.60198">
        <ele>105</ele>
        <time>2022-01-27T15:48:25Z</time>
      </trkpt>
      <trkpt lat="47.29454" lon="-1.60195">
        <ele>105</ele>
        <time>2022-01-27T15:48:26Z</time>
      </trkpt>
      <trkpt lat="47.29454" lon="-1.60193">
        <ele>104</ele>
        <time>2022-01-27T15:48:27Z</time>
      </trkpt>
      <trkpt lat="47.29454" lon="-1.60192">
        <ele>104</ele>
        <time>2022-01-27T15:48:28Z</time>
      </trkpt>
      <trkpt lat="47.29454" lon="-1.60189">
        <ele>104</ele>
        <time>2022-01-27T15:48:29Z</time>
      </trkpt>
      <trkpt lat="47.29454" lon="-1.60187">
        <ele>104</ele>
        <time>2022-01-27T15:48:30Z</time>
      </trkpt>
      <trkpt lat="47.29454" lon="-1.60186">
        <ele>104</ele>
        <time>2022-01-27T15:48:31Z</time>
      </trkpt>
      <trkpt lat="47.29455" lon="-1.60184">
        <ele>104</ele>
        <time>2022-01-27T15:48:32Z</time>
      </trkpt>
      <trkpt lat="47.29455" lon="-1.60182">
        <ele>104</ele>
        <time>2022-01-27T15:48:33Z</time>
      </trkpt>
      <trkpt lat="47.29454" lon="-1.6018">
        <ele>104</ele>
        <time>2022-01-27T15:48:34Z</time>
      </trkpt>
      <trkpt lat="47.29454" lon="-1.60178">
        <ele>104</ele>
        <time>2022-01-27T15:48:35Z</time>
      </trkpt>
      <trkpt lat="47.29454" lon="-1.60176">
        <ele>104</ele>
        <time>2022-01-27T15:48:36Z</time>
      </trkpt>
      <trkpt lat="47.29454" lon="-1.60175">
        <ele>104</ele>
        <time>2022-01-27T15:48:37Z</time>
      </trkpt>
      <trkpt lat="47.29454" lon="-1.60173">
        <ele>104</ele>
        <time>2022-01-27T15:48:38Z</time>
      </trkpt>
      <trkpt lat="47.29454" lon="-1.60171">
        <ele>104</ele>
        <time>2022-01-27T15:48:39Z</time>
      </trkpt>
      <trkpt lat="47.29453" lon="-1.6017">
        <ele>104</ele>
        <time>2022-01-27T15:48:40Z</time>
      </trkpt>
      <trkpt lat="47.29453" lon="-1.60168">
        <ele>104</ele>
        <time>2022-01-27T15:48:41Z</time>
      </trkpt>
      <trkpt lat="47.29453" lon="-1.60166">
        <ele>104</ele>
        <time>2022-01-27T15:48:42Z</time>
      </trkpt>
      <trkpt lat="47.29452" lon="-1.60164">
        <ele>104</ele>
        <time>2022-01-27T15:48:43Z</time>
      </trkpt>
      <trkpt lat="47.29452" lon="-1.60162">
        <ele>104</ele>
        <time>2022-01-27T15:48:44Z</time>
      </trkpt>
      <trkpt lat="47.29452" lon="-1.60161">
        <ele>104</ele>
        <time>2022-01-27T15:48:45Z</time>
      </trkpt>
      <trkpt lat="47.29452" lon="-1.60159">
        <ele>104</ele>
        <time>2022-01-27T15:48:46Z</time>
      </trkpt>
      <trkpt lat="47.29452" lon="-1.60156">
        <ele>104</ele>
        <time>2022-01-27T15:48:47Z</time>
      </trkpt>
      <trkpt lat="47.29452" lon="-1.60154">
        <ele>104</ele>
        <time>2022-01-27T15:48:48Z</time>
      </trkpt>
      <trkpt lat="47.29452" lon="-1.60153">
        <ele>104</ele>
        <time>2022-01-27T15:48:49Z</time>
      </trkpt>
      <trkpt lat="47.29452" lon="-1.60151">
        <ele>104</ele>
        <time>2022-01-27T15:48:50Z</time>
      </trkpt>
      <trkpt lat="47.29453" lon="-1.60149">
        <ele>104</ele>
        <time>2022-01-27T15:48:51Z</time>
      </trkpt>
      <trkpt lat="47.29453" lon="-1.60147">
        <ele>104</ele>
        <time>2022-01-27T15:48:52Z</time>
      </trkpt>
      <trkpt lat="47.29453" lon="-1.60145">
        <ele>104</ele>
        <time>2022-01-27T15:48:53Z</time>
      </trkpt>
      <trkpt lat="47.29453" lon="-1.60143">
        <ele>104</ele>
        <time>2022-01-27T15:48:54Z</time>
      </trkpt>
      <trkpt lat="47.29453" lon="-1.60142">
        <ele>104</ele>
        <time>2022-01-27T15:48:55Z</time>
      </trkpt>
      <trkpt lat="47.29453" lon="-1.60139">
        <ele>103</ele>
        <time>2022-01-27T15:48:56Z</time>
      </trkpt>
      <trkpt lat="47.29453" lon="-1.60137">
        <ele>104</ele>
        <time>2022-01-27T15:48:57Z</time>
      </trkpt>
      <trkpt lat="47.29452" lon="-1.60135">
        <ele>103</ele>
        <time>2022-01-27T15:48:58Z</time>
      </trkpt>
      <trkpt lat="47.29453" lon="-1.60132">
        <ele>103</ele>
        <time>2022-01-27T15:48:59Z</time>
      </trkpt>
      <trkpt lat="47.29452" lon="-1.6013">
        <ele>103</ele>
        <time>2022-01-27T15:49:00Z</time>
      </trkpt>
      <trkpt lat="47.29452" lon="-1.60128">
        <ele>103</ele>
        <time>2022-01-27T15:49:01Z</time>
      </trkpt>
      <trkpt lat="47.29452" lon="-1.60127">
        <ele>103</ele>
        <time>2022-01-27T15:49:02Z</time>
      </trkpt>
      <trkpt lat="47.29452" lon="-1.60125">
        <ele>103</ele>
        <time>2022-01-27T15:49:03Z</time>
      </trkpt>
      <trkpt lat="47.29452" lon="-1.60123">
        <ele>102</ele>
        <time>2022-01-27T15:49:04Z</time>
      </trkpt>
      <trkpt lat="47.29451" lon="-1.60121">
        <ele>102</ele>
        <time>2022-01-27T15:49:05Z</time>
      </trkpt>
      <trkpt lat="47.29451" lon="-1.6012">
        <ele>103</ele>
        <time>2022-01-27T15:49:06Z</time>
      </trkpt>
      <trkpt lat="47.29451" lon="-1.60118">
        <ele>103</ele>
        <time>2022-01-27T15:49:07Z</time>
      </trkpt>
      <trkpt lat="47.29451" lon="-1.60115">
        <ele>103</ele>
        <time>2022-01-27T15:49:08Z</time>
      </trkpt>
      <trkpt lat="47.29451" lon="-1.60114">
        <ele>103</ele>
        <time>2022-01-27T15:49:09Z</time>
      </trkpt>
      <trkpt lat="47.29451" lon="-1.60112">
        <ele>102</ele>
        <time>2022-01-27T15:49:10Z</time>
      </trkpt>
      <trkpt lat="47.29451" lon="-1.6011">
        <ele>102</ele>
        <time>2022-01-27T15:49:11Z</time>
      </trkpt>
      <trkpt lat="47.29451" lon="-1.60108">
        <ele>102</ele>
        <time>2022-01-27T15:49:12Z</time>
      </trkpt>
      <trkpt lat="47.29451" lon="-1.60106">
        <ele>101</ele>
        <time>2022-01-27T15:49:13Z</time>
      </trkpt>
      <trkpt lat="47.29451" lon="-1.60105">
        <ele>101</ele>
        <time>2022-01-27T15:49:14Z</time>
      </trkpt>
      <trkpt lat="47.29451" lon="-1.60103">
        <ele>101</ele>
        <time>2022-01-27T15:49:15Z</time>
      </trkpt>
      <trkpt lat="47.29451" lon="-1.60101">
        <ele>101</ele>
        <time>2022-01-27T15:49:16Z</time>
      </trkpt>
      <trkpt lat="47.29451" lon="-1.60099">
        <ele>101</ele>
        <time>2022-01-27T15:49:17Z</time>
      </trkpt>
      <trkpt lat="47.29451" lon="-1.60097">
        <ele>101</ele>
        <time>2022-01-27T15:49:18Z</time>
      </trkpt>
      <trkpt lat="47.29451" lon="-1.60095">
        <ele>101</ele>
        <time>2022-01-27T15:49:19Z</time>
      </trkpt>
      <trkpt lat="47.2945" lon="-1.60093">
        <ele>102</ele>
        <time>2022-01-27T15:49:20Z</time>
      </trkpt>
      <trkpt lat="47.2945" lon="-1.60091">
        <ele>101</ele>
        <time>2022-01-27T15:49:21Z</time>
      </trkpt>
      <trkpt lat="47.2945" lon="-1.60089">
        <ele>101</ele>
        <time>2022-01-27T15:49:22Z</time>
      </trkpt>
      <trkpt lat="47.2945" lon="-1.60087">
        <ele>101</ele>
        <time>2022-01-27T15:49:23Z</time>
      </trkpt>
      <trkpt lat="47.29449" lon="-1.60084">
        <ele>101</ele>
        <time>2022-01-27T15:49:24Z</time>
      </trkpt>
      <trkpt lat="47.29448" lon="-1.60082">
        <ele>101</ele>
        <time>2022-01-27T15:49:25Z</time>
      </trkpt>
      <trkpt lat="47.29449" lon="-1.6008">
        <ele>101</ele>
        <time>2022-01-27T15:49:26Z</time>
      </trkpt>
      <trkpt lat="47.29449" lon="-1.60078">
        <ele>101</ele>
        <time>2022-01-27T15:49:27Z</time>
      </trkpt>
      <trkpt lat="47.29449" lon="-1.60077">
        <ele>100</ele>
        <time>2022-01-27T15:49:28Z</time>
      </trkpt>
      <trkpt lat="47.2945" lon="-1.60076">
        <ele>100</ele>
        <time>2022-01-27T15:49:29Z</time>
      </trkpt>
      <trkpt lat="47.2945" lon="-1.60074">
        <ele>100</ele>
        <time>2022-01-27T15:49:30Z</time>
      </trkpt>
      <trkpt lat="47.29449" lon="-1.60072">
        <ele>100</ele>
        <time>2022-01-27T15:49:31Z</time>
      </trkpt>
      <trkpt lat="47.29449" lon="-1.6007">
        <ele>100</ele>
        <time>2022-01-27T15:49:32Z</time>
      </trkpt>
      <trkpt lat="47.29448" lon="-1.60068">
        <ele>100</ele>
        <time>2022-01-27T15:49:33Z</time>
      </trkpt>
      <trkpt lat="47.29448" lon="-1.60066">
        <ele>100</ele>
        <time>2022-01-27T15:49:34Z</time>
      </trkpt>
      <trkpt lat="47.29448" lon="-1.60063">
        <ele>100</ele>
        <time>2022-01-27T15:49:35Z</time>
      </trkpt>
      <trkpt lat="47.29448" lon="-1.60061">
        <ele>100</ele>
        <time>2022-01-27T15:49:36Z</time>
      </trkpt>
      <trkpt lat="47.29448" lon="-1.60059">
        <ele>100</ele>
        <time>2022-01-27T15:49:37Z</time>
      </trkpt>
      <trkpt lat="47.29448" lon="-1.60057">
        <ele>100</ele>
        <time>2022-01-27T15:49:38Z</time>
      </trkpt>
      <trkpt lat="47.29447" lon="-1.60055">
        <ele>100</ele>
        <time>2022-01-27T15:49:39Z</time>
      </trkpt>
      <trkpt lat="47.29447" lon="-1.60053">
        <ele>100</ele>
        <time>2022-01-27T15:49:40Z</time>
      </trkpt>
      <trkpt lat="47.29446" lon="-1.60051">
        <ele>100</ele>
        <time>2022-01-27T15:49:41Z</time>
      </trkpt>
      <trkpt lat="47.29446" lon="-1.60049">
        <ele>100</ele>
        <time>2022-01-27T15:49:42Z</time>
      </trkpt>
      <trkpt lat="47.29446" lon="-1.60047">
        <ele>100</ele>
        <time>2022-01-27T15:49:43Z</time>
      </trkpt>
      <trkpt lat="47.29445" lon="-1.60045">
        <ele>100</ele>
        <time>2022-01-27T15:49:44Z</time>
      </trkpt>
      <trkpt lat="47.29445" lon="-1.60042">
        <ele>100</ele>
        <time>2022-01-27T15:49:45Z</time>
      </trkpt>
      <trkpt lat="47.29445" lon="-1.6004">
        <ele>101</ele>
        <time>2022-01-27T15:49:46Z</time>
      </trkpt>
      <trkpt lat="47.29444" lon="-1.60037">
        <ele>101</ele>
        <time>2022-01-27T15:49:47Z</time>
      </trkpt>
      <trkpt lat="47.29444" lon="-1.60035">
        <ele>101</ele>
        <time>2022-01-27T15:49:48Z</time>
      </trkpt>
      <trkpt lat="47.29443" lon="-1.60033">
        <ele>101</ele>
        <time>2022-01-27T15:49:49Z</time>
      </trkpt>
      <trkpt lat="47.29443" lon="-1.6003">
        <ele>101</ele>
        <time>2022-01-27T15:49:50Z</time>
      </trkpt>
      <trkpt lat="47.29443" lon="-1.60028">
        <ele>100</ele>
        <time>2022-01-27T15:49:51Z</time>
      </trkpt>
      <trkpt lat="47.29443" lon="-1.60026">
        <ele>100</ele>
        <time>2022-01-27T15:49:52Z</time>
      </trkpt>
      <trkpt lat="47.29443" lon="-1.60024">
        <ele>100</ele>
        <time>2022-01-27T15:49:53Z</time>
      </trkpt>
      <trkpt lat="47.29443" lon="-1.60022">
        <ele>101</ele>
        <time>2022-01-27T15:49:54Z</time>
      </trkpt>
      <trkpt lat="47.29443" lon="-1.6002">
        <ele>100</ele>
        <time>2022-01-27T15:49:55Z</time>
      </trkpt>
      <trkpt lat="47.29443" lon="-1.60018">
        <ele>100</ele>
        <time>2022-01-27T15:49:56Z</time>
      </trkpt>
      <trkpt lat="47.29443" lon="-1.60016">
        <ele>100</ele>
        <time>2022-01-27T15:49:57Z</time>
      </trkpt>
      <trkpt lat="47.29443" lon="-1.60014">
        <ele>100</ele>
        <time>2022-01-27T15:49:58Z</time>
      </trkpt>
      <trkpt lat="47.29442" lon="-1.60012">
        <ele>100</ele>
        <time>2022-01-27T15:49:59Z</time>
      </trkpt>
      <trkpt lat="47.29442" lon="-1.6001">
        <ele>100</ele>
        <time>2022-01-27T15:50:00Z</time>
      </trkpt>
      <trkpt lat="47.29442" lon="-1.60008">
        <ele>101</ele>
        <time>2022-01-27T15:50:01Z</time>
      </trkpt>
      <trkpt lat="47.29442" lon="-1.60006">
        <ele>101</ele>
        <time>2022-01-27T15:50:02Z</time>
      </trkpt>
      <trkpt lat="47.29442" lon="-1.60004">
        <ele>100</ele>
        <time>2022-01-27T15:50:03Z</time>
      </trkpt>
      <trkpt lat="47.29441" lon="-1.60002">
        <ele>100</ele>
        <time>2022-01-27T15:50:04Z</time>
      </trkpt>
      <trkpt lat="47.29441" lon="-1.6">
        <ele>100</ele>
        <time>2022-01-27T15:50:05Z</time>
      </trkpt>
      <trkpt lat="47.2944" lon="-1.59997">
        <ele>100</ele>
        <time>2022-01-27T15:50:06Z</time>
      </trkpt>
      <trkpt lat="47.2944" lon="-1.59996">
        <ele>100</ele>
        <time>2022-01-27T15:50:07Z</time>
      </trkpt>
      <trkpt lat="47.2944" lon="-1.59993">
        <ele>100</ele>
        <time>2022-01-27T15:50:08Z</time>
      </trkpt>
      <trkpt lat="47.2944" lon="-1.59991">
        <ele>101</ele>
        <time>2022-01-27T15:50:09Z</time>
      </trkpt>
      <trkpt lat="47.2944" lon="-1.59989">
        <ele>100</ele>
        <time>2022-01-27T15:50:10Z</time>
      </trkpt>
      <trkpt lat="47.2944" lon="-1.59987">
        <ele>100</ele>
        <time>2022-01-27T15:50:11Z</time>
      </trkpt>
      <trkpt lat="47.2944" lon="-1.59985">
        <ele>100</ele>
        <time>2022-01-27T15:50:12Z</time>
      </trkpt>
      <trkpt lat="47.2944" lon="-1.59983">
        <ele>100</ele>
        <time>2022-01-27T15:50:13Z</time>
      </trkpt>
      <trkpt lat="47.2944" lon="-1.59981">
        <ele>99</ele>
        <time>2022-01-27T15:50:14Z</time>
      </trkpt>
      <trkpt lat="47.29439" lon="-1.59979">
        <ele>99</ele>
        <time>2022-01-27T15:50:15Z</time>
      </trkpt>
      <trkpt lat="47.29438" lon="-1.59977">
        <ele>99</ele>
        <time>2022-01-27T15:50:16Z</time>
      </trkpt>
      <trkpt lat="47.29438" lon="-1.59974">
        <ele>99</ele>
        <time>2022-01-27T15:50:17Z</time>
      </trkpt>
      <trkpt lat="47.29438" lon="-1.59972">
        <ele>99</ele>
        <time>2022-01-27T15:50:18Z</time>
      </trkpt>
      <trkpt lat="47.29438" lon="-1.5997">
        <ele>98</ele>
        <time>2022-01-27T15:50:19Z</time>
      </trkpt>
      <trkpt lat="47.29438" lon="-1.59967">
        <ele>98</ele>
        <time>2022-01-27T15:50:20Z</time>
      </trkpt>
      <trkpt lat="47.29438" lon="-1.59965">
        <ele>97</ele>
        <time>2022-01-27T15:50:21Z</time>
      </trkpt>
      <trkpt lat="47.29438" lon="-1.59962">
        <ele>97</ele>
        <time>2022-01-27T15:50:22Z</time>
      </trkpt>
      <trkpt lat="47.29438" lon="-1.5996">
        <ele>98</ele>
        <time>2022-01-27T15:50:23Z</time>
      </trkpt>
      <trkpt lat="47.29438" lon="-1.59957">
        <ele>97</ele>
        <time>2022-01-27T15:50:24Z</time>
      </trkpt>
      <trkpt lat="47.29438" lon="-1.59956">
        <ele>97</ele>
        <time>2022-01-27T15:50:25Z</time>
      </trkpt>
      <trkpt lat="47.29438" lon="-1.59954">
        <ele>97</ele>
        <time>2022-01-27T15:50:26Z</time>
      </trkpt>
      <trkpt lat="47.29439" lon="-1.59952">
        <ele>96</ele>
        <time>2022-01-27T15:50:27Z</time>
      </trkpt>
      <trkpt lat="47.29438" lon="-1.5995">
        <ele>96</ele>
        <time>2022-01-27T15:50:28Z</time>
      </trkpt>
      <trkpt lat="47.29438" lon="-1.59948">
        <ele>96</ele>
        <time>2022-01-27T15:50:29Z</time>
      </trkpt>
      <trkpt lat="47.29438" lon="-1.59946">
        <ele>96</ele>
        <time>2022-01-27T15:50:30Z</time>
      </trkpt>
      <trkpt lat="47.29438" lon="-1.59944">
        <ele>96</ele>
        <time>2022-01-27T15:50:31Z</time>
      </trkpt>
      <trkpt lat="47.29438" lon="-1.59943">
        <ele>96</ele>
        <time>2022-01-27T15:50:32Z</time>
      </trkpt>
      <trkpt lat="47.29438" lon="-1.5994">
        <ele>96</ele>
        <time>2022-01-27T15:50:33Z</time>
      </trkpt>
      <trkpt lat="47.29438" lon="-1.59938">
        <ele>96</ele>
        <time>2022-01-27T15:50:34Z</time>
      </trkpt>
      <trkpt lat="47.29438" lon="-1.59937">
        <ele>96</ele>
        <time>2022-01-27T15:50:35Z</time>
      </trkpt>
      <trkpt lat="47.29438" lon="-1.59935">
        <ele>95</ele>
        <time>2022-01-27T15:50:36Z</time>
      </trkpt>
      <trkpt lat="47.29438" lon="-1.59933">
        <ele>95</ele>
        <time>2022-01-27T15:50:37Z</time>
      </trkpt>
      <trkpt lat="47.29438" lon="-1.59932">
        <ele>95</ele>
        <time>2022-01-27T15:50:38Z</time>
      </trkpt>
      <trkpt lat="47.29438" lon="-1.5993">
        <ele>95</ele>
        <time>2022-01-27T15:50:39Z</time>
      </trkpt>
      <trkpt lat="47.29438" lon="-1.59928">
        <ele>95</ele>
        <time>2022-01-27T15:50:40Z</time>
      </trkpt>
      <trkpt lat="47.29437" lon="-1.59926">
        <ele>95</ele>
        <time>2022-01-27T15:50:41Z</time>
      </trkpt>
      <trkpt lat="47.29437" lon="-1.59924">
        <ele>94</ele>
        <time>2022-01-27T15:50:42Z</time>
      </trkpt>
      <trkpt lat="47.29437" lon="-1.59922">
        <ele>94</ele>
        <time>2022-01-27T15:50:43Z</time>
      </trkpt>
      <trkpt lat="47.29437" lon="-1.59919">
        <ele>94</ele>
        <time>2022-01-27T15:50:44Z</time>
      </trkpt>
      <trkpt lat="47.29436" lon="-1.59917">
        <ele>94</ele>
        <time>2022-01-27T15:50:45Z</time>
      </trkpt>
      <trkpt lat="47.29436" lon="-1.59916">
        <ele>94</ele>
        <time>2022-01-27T15:50:46Z</time>
      </trkpt>
      <trkpt lat="47.29437" lon="-1.59914">
        <ele>94</ele>
        <time>2022-01-27T15:50:47Z</time>
      </trkpt>
      <trkpt lat="47.29437" lon="-1.59912">
        <ele>94</ele>
        <time>2022-01-27T15:50:48Z</time>
      </trkpt>
      <trkpt lat="47.29437" lon="-1.59911">
        <ele>94</ele>
        <time>2022-01-27T15:50:49Z</time>
      </trkpt>
      <trkpt lat="47.29437" lon="-1.59909">
        <ele>93</ele>
        <time>2022-01-27T15:50:50Z</time>
      </trkpt>
      <trkpt lat="47.29437" lon="-1.59907">
        <ele>94</ele>
        <time>2022-01-27T15:50:51Z</time>
      </trkpt>
      <trkpt lat="47.29437" lon="-1.59905">
        <ele>94</ele>
        <time>2022-01-27T15:50:52Z</time>
      </trkpt>
      <trkpt lat="47.29437" lon="-1.59903">
        <ele>93</ele>
        <time>2022-01-27T15:50:53Z</time>
      </trkpt>
      <trkpt lat="47.29437" lon="-1.59902">
        <ele>93</ele>
        <time>2022-01-27T15:50:54Z</time>
      </trkpt>
      <trkpt lat="47.29438" lon="-1.599">
        <ele>93</ele>
        <time>2022-01-27T15:50:55Z</time>
      </trkpt>
      <trkpt lat="47.29438" lon="-1.59899">
        <ele>93</ele>
        <time>2022-01-27T15:50:56Z</time>
      </trkpt>
      <trkpt lat="47.29438" lon="-1.59897">
        <ele>93</ele>
        <time>2022-01-27T15:50:57Z</time>
      </trkpt>
      <trkpt lat="47.29438" lon="-1.59895">
        <ele>93</ele>
        <time>2022-01-27T15:50:58Z</time>
      </trkpt>
      <trkpt lat="47.29438" lon="-1.59894">
        <ele>93</ele>
        <time>2022-01-27T15:50:59Z</time>
      </trkpt>
      <trkpt lat="47.29438" lon="-1.59892">
        <ele>93</ele>
        <time>2022-01-27T15:51:00Z</time>
      </trkpt>
      <trkpt lat="47.29438" lon="-1.5989">
        <ele>93</ele>
        <time>2022-01-27T15:51:01Z</time>
      </trkpt>
      <trkpt lat="47.29438" lon="-1.59888">
        <ele>93</ele>
        <time>2022-01-27T15:51:02Z</time>
      </trkpt>
      <trkpt lat="47.29437" lon="-1.59886">
        <ele>93</ele>
        <time>2022-01-27T15:51:03Z</time>
      </trkpt>
      <trkpt lat="47.29437" lon="-1.59884">
        <ele>93</ele>
        <time>2022-01-27T15:51:04Z</time>
      </trkpt>
      <trkpt lat="47.29437" lon="-1.59882">
        <ele>93</ele>
        <time>2022-01-27T15:51:05Z</time>
      </trkpt>
      <trkpt lat="47.29436" lon="-1.5988">
        <ele>94</ele>
        <time>2022-01-27T15:51:06Z</time>
      </trkpt>
      <trkpt lat="47.29436" lon="-1.59878">
        <ele>94</ele>
        <time>2022-01-27T15:51:07Z</time>
      </trkpt>
      <trkpt lat="47.29435" lon="-1.59876">
        <ele>95</ele>
        <time>2022-01-27T15:51:08Z</time>
      </trkpt>
      <trkpt lat="47.29435" lon="-1.59873">
        <ele>95</ele>
        <time>2022-01-27T15:51:09Z</time>
      </trkpt>
      <trkpt lat="47.29436" lon="-1.59872">
        <ele>95</ele>
        <time>2022-01-27T15:51:10Z</time>
      </trkpt>
      <trkpt lat="47.29436" lon="-1.5987">
        <ele>94</ele>
        <time>2022-01-27T15:51:11Z</time>
      </trkpt>
      <trkpt lat="47.29436" lon="-1.59869">
        <ele>94</ele>
        <time>2022-01-27T15:51:12Z</time>
      </trkpt>
      <trkpt lat="47.29436" lon="-1.59867">
        <ele>93</ele>
        <time>2022-01-27T15:51:13Z</time>
      </trkpt>
      <trkpt lat="47.29436" lon="-1.59865">
        <ele>93</ele>
        <time>2022-01-27T15:51:14Z</time>
      </trkpt>
      <trkpt lat="47.29435" lon="-1.59863">
        <ele>94</ele>
        <time>2022-01-27T15:51:15Z</time>
      </trkpt>
      <trkpt lat="47.29435" lon="-1.59861">
        <ele>94</ele>
        <time>2022-01-27T15:51:16Z</time>
      </trkpt>
      <trkpt lat="47.29435" lon="-1.59858">
        <ele>94</ele>
        <time>2022-01-27T15:51:17Z</time>
      </trkpt>
      <trkpt lat="47.29435" lon="-1.59856">
        <ele>94</ele>
        <time>2022-01-27T15:51:18Z</time>
      </trkpt>
      <trkpt lat="47.29435" lon="-1.59855">
        <ele>94</ele>
        <time>2022-01-27T15:51:19Z</time>
      </trkpt>
      <trkpt lat="47.29435" lon="-1.59853">
        <ele>94</ele>
        <time>2022-01-27T15:51:20Z</time>
      </trkpt>
      <trkpt lat="47.29435" lon="-1.59851">
        <ele>95</ele>
        <time>2022-01-27T15:51:21Z</time>
      </trkpt>
      <trkpt lat="47.29435" lon="-1.59849">
        <ele>95</ele>
        <time>2022-01-27T15:51:22Z</time>
      </trkpt>
      <trkpt lat="47.29435" lon="-1.59848">
        <ele>95</ele>
        <time>2022-01-27T15:51:23Z</time>
      </trkpt>
      <trkpt lat="47.29435" lon="-1.59846">
        <ele>94</ele>
        <time>2022-01-27T15:51:24Z</time>
      </trkpt>
      <trkpt lat="47.29435" lon="-1.59844">
        <ele>94</ele>
        <time>2022-01-27T15:51:25Z</time>
      </trkpt>
      <trkpt lat="47.29435" lon="-1.59843">
        <ele>95</ele>
        <time>2022-01-27T15:51:26Z</time>
      </trkpt>
      <trkpt lat="47.29435" lon="-1.59841">
        <ele>95</ele>
        <time>2022-01-27T15:51:27Z</time>
      </trkpt>
      <trkpt lat="47.29435" lon="-1.59838">
        <ele>95</ele>
        <time>2022-01-27T15:51:28Z</time>
      </trkpt>
      <trkpt lat="47.29435" lon="-1.59837">
        <ele>95</ele>
        <time>2022-01-27T15:51:29Z</time>
      </trkpt>
      <trkpt lat="47.29434" lon="-1.59834">
        <ele>95</ele>
        <time>2022-01-27T15:51:30Z</time>
      </trkpt>
      <trkpt lat="47.29434" lon="-1.59832">
        <ele>95</ele>
        <time>2022-01-27T15:51:31Z</time>
      </trkpt>
      <trkpt lat="47.29434" lon="-1.5983">
        <ele>95</ele>
        <time>2022-01-27T15:51:32Z</time>
      </trkpt>
      <trkpt lat="47.29434" lon="-1.59828">
        <ele>95</ele>
        <time>2022-01-27T15:51:33Z</time>
      </trkpt>
      <trkpt lat="47.29434" lon="-1.59827">
        <ele>96</ele>
        <time>2022-01-27T15:51:34Z</time>
      </trkpt>
      <trkpt lat="47.29434" lon="-1.59825">
        <ele>96</ele>
        <time>2022-01-27T15:51:35Z</time>
      </trkpt>
      <trkpt lat="47.29434" lon="-1.59824">
        <ele>96</ele>
        <time>2022-01-27T15:51:36Z</time>
      </trkpt>
      <trkpt lat="47.29435" lon="-1.59822">
        <ele>97</ele>
        <time>2022-01-27T15:51:37Z</time>
      </trkpt>
      <trkpt lat="47.29435" lon="-1.5982">
        <ele>97</ele>
        <time>2022-01-27T15:51:38Z</time>
      </trkpt>
      <trkpt lat="47.29435" lon="-1.59819">
        <ele>97</ele>
        <time>2022-01-27T15:51:39Z</time>
      </trkpt>
      <trkpt lat="47.29434" lon="-1.59817">
        <ele>97</ele>
        <time>2022-01-27T15:51:40Z</time>
      </trkpt>
      <trkpt lat="47.29434" lon="-1.59815">
        <ele>97</ele>
        <time>2022-01-27T15:51:41Z</time>
      </trkpt>
      <trkpt lat="47.29435" lon="-1.59813">
        <ele>97</ele>
        <time>2022-01-27T15:51:42Z</time>
      </trkpt>
      <trkpt lat="47.29434" lon="-1.59812">
        <ele>97</ele>
        <time>2022-01-27T15:51:43Z</time>
      </trkpt>
      <trkpt lat="47.29434" lon="-1.59809">
        <ele>97</ele>
        <time>2022-01-27T15:51:44Z</time>
      </trkpt>
      <trkpt lat="47.29433" lon="-1.59807">
        <ele>97</ele>
        <time>2022-01-27T15:51:45Z</time>
      </trkpt>
      <trkpt lat="47.29433" lon="-1.59805">
        <ele>97</ele>
        <time>2022-01-27T15:51:46Z</time>
      </trkpt>
      <trkpt lat="47.29433" lon="-1.59803">
        <ele>97</ele>
        <time>2022-01-27T15:51:47Z</time>
      </trkpt>
      <trkpt lat="47.29433" lon="-1.59801">
        <ele>96</ele>
        <time>2022-01-27T15:51:48Z</time>
      </trkpt>
      <trkpt lat="47.29433" lon="-1.598">
        <ele>96</ele>
        <time>2022-01-27T15:51:49Z</time>
      </trkpt>
      <trkpt lat="47.29433" lon="-1.59798">
        <ele>95</ele>
        <time>2022-01-27T15:51:50Z</time>
      </trkpt>
      <trkpt lat="47.29434" lon="-1.59797">
        <ele>95</ele>
        <time>2022-01-27T15:51:51Z</time>
      </trkpt>
      <trkpt lat="47.29434" lon="-1.59796">
        <ele>95</ele>
        <time>2022-01-27T15:51:52Z</time>
      </trkpt>
      <trkpt lat="47.29434" lon="-1.59795">
        <ele>95</ele>
        <time>2022-01-27T15:51:53Z</time>
      </trkpt>
      <trkpt lat="47.29434" lon="-1.59793">
        <ele>95</ele>
        <time>2022-01-27T15:51:54Z</time>
      </trkpt>
      <trkpt lat="47.29434" lon="-1.5979">
        <ele>95</ele>
        <time>2022-01-27T15:51:55Z</time>
      </trkpt>
      <trkpt lat="47.29434" lon="-1.59788">
        <ele>95</ele>
        <time>2022-01-27T15:51:56Z</time>
      </trkpt>
      <trkpt lat="47.29434" lon="-1.59786">
        <ele>95</ele>
        <time>2022-01-27T15:51:57Z</time>
      </trkpt>
      <trkpt lat="47.29433" lon="-1.59784">
        <ele>95</ele>
        <time>2022-01-27T15:51:58Z</time>
      </trkpt>
      <trkpt lat="47.29433" lon="-1.59782">
        <ele>96</ele>
        <time>2022-01-27T15:51:59Z</time>
      </trkpt>
      <trkpt lat="47.29433" lon="-1.59779">
        <ele>95</ele>
        <time>2022-01-27T15:52:00Z</time>
      </trkpt>
      <trkpt lat="47.29432" lon="-1.59777">
        <ele>95</ele>
        <time>2022-01-27T15:52:01Z</time>
      </trkpt>
      <trkpt lat="47.29432" lon="-1.59775">
        <ele>95</ele>
        <time>2022-01-27T15:52:02Z</time>
      </trkpt>
      <trkpt lat="47.29432" lon="-1.59773">
        <ele>96</ele>
        <time>2022-01-27T15:52:03Z</time>
      </trkpt>
      <trkpt lat="47.29431" lon="-1.59771">
        <ele>96</ele>
        <time>2022-01-27T15:52:04Z</time>
      </trkpt>
      <trkpt lat="47.29431" lon="-1.59768">
        <ele>95</ele>
        <time>2022-01-27T15:52:05Z</time>
      </trkpt>
      <trkpt lat="47.29431" lon="-1.59766">
        <ele>95</ele>
        <time>2022-01-27T15:52:06Z</time>
      </trkpt>
      <trkpt lat="47.29431" lon="-1.59765">
        <ele>95</ele>
        <time>2022-01-27T15:52:07Z</time>
      </trkpt>
      <trkpt lat="47.29431" lon="-1.59763">
        <ele>96</ele>
        <time>2022-01-27T15:52:08Z</time>
      </trkpt>
      <trkpt lat="47.2943" lon="-1.59761">
        <ele>96</ele>
        <time>2022-01-27T15:52:09Z</time>
      </trkpt>
      <trkpt lat="47.2943" lon="-1.59759">
        <ele>96</ele>
        <time>2022-01-27T15:52:10Z</time>
      </trkpt>
      <trkpt lat="47.2943" lon="-1.59756">
        <ele>96</ele>
        <time>2022-01-27T15:52:11Z</time>
      </trkpt>
      <trkpt lat="47.2943" lon="-1.59754">
        <ele>95</ele>
        <time>2022-01-27T15:52:12Z</time>
      </trkpt>
      <trkpt lat="47.2943" lon="-1.59752">
        <ele>95</ele>
        <time>2022-01-27T15:52:13Z</time>
      </trkpt>
      <trkpt lat="47.2943" lon="-1.5975">
        <ele>95</ele>
        <time>2022-01-27T15:52:14Z</time>
      </trkpt>
      <trkpt lat="47.29429" lon="-1.59748">
        <ele>96</ele>
        <time>2022-01-27T15:52:15Z</time>
      </trkpt>
      <trkpt lat="47.29429" lon="-1.59746">
        <ele>96</ele>
        <time>2022-01-27T15:52:16Z</time>
      </trkpt>
      <trkpt lat="47.29429" lon="-1.59743">
        <ele>96</ele>
        <time>2022-01-27T15:52:17Z</time>
      </trkpt>
      <trkpt lat="47.29428" lon="-1.59741">
        <ele>96</ele>
        <time>2022-01-27T15:52:18Z</time>
      </trkpt>
      <trkpt lat="47.29427" lon="-1.59739">
        <ele>96</ele>
        <time>2022-01-27T15:52:19Z</time>
      </trkpt>
      <trkpt lat="47.29427" lon="-1.59737">
        <ele>96</ele>
        <time>2022-01-27T15:52:20Z</time>
      </trkpt>
      <trkpt lat="47.29426" lon="-1.59734">
        <ele>96</ele>
        <time>2022-01-27T15:52:21Z</time>
      </trkpt>
      <trkpt lat="47.29426" lon="-1.59732">
        <ele>96</ele>
        <time>2022-01-27T15:52:22Z</time>
      </trkpt>
      <trkpt lat="47.29426" lon="-1.59729">
        <ele>96</ele>
        <time>2022-01-27T15:52:23Z</time>
      </trkpt>
      <trkpt lat="47.29425" lon="-1.59727">
        <ele>95</ele>
        <time>2022-01-27T15:52:24Z</time>
      </trkpt>
      <trkpt lat="47.29424" lon="-1.59725">
        <ele>96</ele>
        <time>2022-01-27T15:52:25Z</time>
      </trkpt>
      <trkpt lat="47.29424" lon="-1.59724">
        <ele>96</ele>
        <time>2022-01-27T15:52:26Z</time>
      </trkpt>
      <trkpt lat="47.29423" lon="-1.59722">
        <ele>96</ele>
        <time>2022-01-27T15:52:27Z</time>
      </trkpt>
      <trkpt lat="47.29422" lon="-1.59721">
        <ele>96</ele>
        <time>2022-01-27T15:52:28Z</time>
      </trkpt>
      <trkpt lat="47.2942" lon="-1.59719">
        <ele>96</ele>
        <time>2022-01-27T15:52:29Z</time>
      </trkpt>
      <trkpt lat="47.29418" lon="-1.59718">
        <ele>96</ele>
        <time>2022-01-27T15:52:30Z</time>
      </trkpt>
      <trkpt lat="47.29417" lon="-1.59717">
        <ele>96</ele>
        <time>2022-01-27T15:52:31Z</time>
      </trkpt>
      <trkpt lat="47.29416" lon="-1.59716">
        <ele>97</ele>
        <time>2022-01-27T15:52:32Z</time>
      </trkpt>
      <trkpt lat="47.29414" lon="-1.59715">
        <ele>97</ele>
        <time>2022-01-27T15:52:33Z</time>
      </trkpt>
      <trkpt lat="47.29413" lon="-1.59714">
        <ele>98</ele>
        <time>2022-01-27T15:52:34Z</time>
      </trkpt>
      <trkpt lat="47.29411" lon="-1.59714">
        <ele>98</ele>
        <time>2022-01-27T15:52:35Z</time>
      </trkpt>
      <trkpt lat="47.2941" lon="-1.59713">
        <ele>98</ele>
        <time>2022-01-27T15:52:36Z</time>
      </trkpt>
      <trkpt lat="47.29408" lon="-1.59713">
        <ele>97</ele>
        <time>2022-01-27T15:52:37Z</time>
      </trkpt>
      <trkpt lat="47.29406" lon="-1.59713">
        <ele>98</ele>
        <time>2022-01-27T15:52:38Z</time>
      </trkpt>
      <trkpt lat="47.29405" lon="-1.59713">
        <ele>98</ele>
        <time>2022-01-27T15:52:39Z</time>
      </trkpt>
      <trkpt lat="47.29403" lon="-1.59713">
        <ele>98</ele>
        <time>2022-01-27T15:52:40Z</time>
      </trkpt>
      <trkpt lat="47.29402" lon="-1.59713">
        <ele>99</ele>
        <time>2022-01-27T15:52:41Z</time>
      </trkpt>
      <trkpt lat="47.29401" lon="-1.59713">
        <ele>99</ele>
        <time>2022-01-27T15:52:42Z</time>
      </trkpt>
      <trkpt lat="47.294" lon="-1.59713">
        <ele>99</ele>
        <time>2022-01-27T15:52:43Z</time>
      </trkpt>
      <trkpt lat="47.29398" lon="-1.59713">
        <ele>98</ele>
        <time>2022-01-27T15:52:44Z</time>
      </trkpt>
      <trkpt lat="47.29397" lon="-1.59713">
        <ele>98</ele>
        <time>2022-01-27T15:52:45Z</time>
      </trkpt>
      <trkpt lat="47.29396" lon="-1.59713">
        <ele>98</ele>
        <time>2022-01-27T15:52:46Z</time>
      </trkpt>
      <trkpt lat="47.29395" lon="-1.59713">
        <ele>98</ele>
        <time>2022-01-27T15:52:47Z</time>
      </trkpt>
      <trkpt lat="47.29393" lon="-1.59713">
        <ele>98</ele>
        <time>2022-01-27T15:52:48Z</time>
      </trkpt>
      <trkpt lat="47.29392" lon="-1.59713">
        <ele>99</ele>
        <time>2022-01-27T15:52:49Z</time>
      </trkpt>
      <trkpt lat="47.29391" lon="-1.59713">
        <ele>99</ele>
        <time>2022-01-27T15:52:50Z</time>
      </trkpt>
      <trkpt lat="47.2939" lon="-1.59713">
        <ele>100</ele>
        <time>2022-01-27T15:52:51Z</time>
      </trkpt>
      <trkpt lat="47.29388" lon="-1.59713">
        <ele>100</ele>
        <time>2022-01-27T15:52:52Z</time>
      </trkpt>
      <trkpt lat="47.29387" lon="-1.59713">
        <ele>100</ele>
        <time>2022-01-27T15:52:53Z</time>
      </trkpt>
      <trkpt lat="47.29385" lon="-1.59713">
        <ele>100</ele>
        <time>2022-01-27T15:52:54Z</time>
      </trkpt>
      <trkpt lat="47.29384" lon="-1.59713">
        <ele>99</ele>
        <time>2022-01-27T15:52:55Z</time>
      </trkpt>
      <trkpt lat="47.29383" lon="-1.59712">
        <ele>99</ele>
        <time>2022-01-27T15:52:56Z</time>
      </trkpt>
      <trkpt lat="47.29381" lon="-1.59712">
        <ele>99</ele>
        <time>2022-01-27T15:52:57Z</time>
      </trkpt>
      <trkpt lat="47.29379" lon="-1.59712">
        <ele>99</ele>
        <time>2022-01-27T15:52:58Z</time>
      </trkpt>
      <trkpt lat="47.29378" lon="-1.59713">
        <ele>99</ele>
        <time>2022-01-27T15:52:59Z</time>
      </trkpt>
      <trkpt lat="47.29376" lon="-1.59713">
        <ele>99</ele>
        <time>2022-01-27T15:53:00Z</time>
      </trkpt>
      <trkpt lat="47.29375" lon="-1.59712">
        <ele>98</ele>
        <time>2022-01-27T15:53:01Z</time>
      </trkpt>
      <trkpt lat="47.29374" lon="-1.59712">
        <ele>98</ele>
        <time>2022-01-27T15:53:02Z</time>
      </trkpt>
      <trkpt lat="47.29372" lon="-1.59712">
        <ele>98</ele>
        <time>2022-01-27T15:53:03Z</time>
      </trkpt>
      <trkpt lat="47.29371" lon="-1.59712">
        <ele>97</ele>
        <time>2022-01-27T15:53:04Z</time>
      </trkpt>
      <trkpt lat="47.29369" lon="-1.59711">
        <ele>97</ele>
        <time>2022-01-27T15:53:05Z</time>
      </trkpt>
      <trkpt lat="47.29368" lon="-1.59711">
        <ele>97</ele>
        <time>2022-01-27T15:53:06Z</time>
      </trkpt>
      <trkpt lat="47.29366" lon="-1.59711">
        <ele>97</ele>
        <time>2022-01-27T15:53:07Z</time>
      </trkpt>
      <trkpt lat="47.29365" lon="-1.59711">
        <ele>97</ele>
        <time>2022-01-27T15:53:08Z</time>
      </trkpt>
      <trkpt lat="47.29364" lon="-1.5971">
        <ele>97</ele>
        <time>2022-01-27T15:53:09Z</time>
      </trkpt>
      <trkpt lat="47.29363" lon="-1.5971">
        <ele>97</ele>
        <time>2022-01-27T15:53:10Z</time>
      </trkpt>
      <trkpt lat="47.29361" lon="-1.5971">
        <ele>97</ele>
        <time>2022-01-27T15:53:11Z</time>
      </trkpt>
      <trkpt lat="47.29359" lon="-1.59711">
        <ele>96</ele>
        <time>2022-01-27T15:53:12Z</time>
      </trkpt>
      <trkpt lat="47.29358" lon="-1.59711">
        <ele>97</ele>
        <time>2022-01-27T15:53:13Z</time>
      </trkpt>
      <trkpt lat="47.29356" lon="-1.59711">
        <ele>97</ele>
        <time>2022-01-27T15:53:14Z</time>
      </trkpt>
      <trkpt lat="47.29355" lon="-1.59711">
        <ele>97</ele>
        <time>2022-01-27T15:53:15Z</time>
      </trkpt>
      <trkpt lat="47.29353" lon="-1.5971">
        <ele>97</ele>
        <time>2022-01-27T15:53:16Z</time>
      </trkpt>
      <trkpt lat="47.29352" lon="-1.5971">
        <ele>97</ele>
        <time>2022-01-27T15:53:17Z</time>
      </trkpt>
      <trkpt lat="47.2935" lon="-1.59709">
        <ele>97</ele>
        <time>2022-01-27T15:53:18Z</time>
      </trkpt>
      <trkpt lat="47.29349" lon="-1.59709">
        <ele>97</ele>
        <time>2022-01-27T15:53:19Z</time>
      </trkpt>
      <trkpt lat="47.29348" lon="-1.59708">
        <ele>97</ele>
        <time>2022-01-27T15:53:20Z</time>
      </trkpt>
      <trkpt lat="47.29346" lon="-1.59707">
        <ele>97</ele>
        <time>2022-01-27T15:53:21Z</time>
      </trkpt>
      <trkpt lat="47.29345" lon="-1.59707">
        <ele>97</ele>
        <time>2022-01-27T15:53:22Z</time>
      </trkpt>
      <trkpt lat="47.29343" lon="-1.59708">
        <ele>97</ele>
        <time>2022-01-27T15:53:23Z</time>
      </trkpt>
      <trkpt lat="47.29342" lon="-1.59708">
        <ele>97</ele>
        <time>2022-01-27T15:53:24Z</time>
      </trkpt>
      <trkpt lat="47.2934" lon="-1.59708">
        <ele>97</ele>
        <time>2022-01-27T15:53:25Z</time>
      </trkpt>
      <trkpt lat="47.29339" lon="-1.59708">
        <ele>97</ele>
        <time>2022-01-27T15:53:26Z</time>
      </trkpt>
      <trkpt lat="47.29337" lon="-1.59708">
        <ele>98</ele>
        <time>2022-01-27T15:53:27Z</time>
      </trkpt>
      <trkpt lat="47.29335" lon="-1.59708">
        <ele>98</ele>
        <time>2022-01-27T15:53:28Z</time>
      </trkpt>
      <trkpt lat="47.29334" lon="-1.59708">
        <ele>98</ele>
        <time>2022-01-27T15:53:29Z</time>
      </trkpt>
      <trkpt lat="47.29332" lon="-1.59707">
        <ele>99</ele>
        <time>2022-01-27T15:53:30Z</time>
      </trkpt>
      <trkpt lat="47.29331" lon="-1.59707">
        <ele>99</ele>
        <time>2022-01-27T15:53:31Z</time>
      </trkpt>
      <trkpt lat="47.2933" lon="-1.59707">
        <ele>99</ele>
        <time>2022-01-27T15:53:32Z</time>
      </trkpt>
      <trkpt lat="47.29329" lon="-1.59706">
        <ele>99</ele>
        <time>2022-01-27T15:53:33Z</time>
      </trkpt>
      <trkpt lat="47.29327" lon="-1.59706">
        <ele>98</ele>
        <time>2022-01-27T15:53:34Z</time>
      </trkpt>
      <trkpt lat="47.29325" lon="-1.59706">
        <ele>98</ele>
        <time>2022-01-27T15:53:35Z</time>
      </trkpt>
      <trkpt lat="47.29323" lon="-1.59706">
        <ele>98</ele>
        <time>2022-01-27T15:53:36Z</time>
      </trkpt>
      <trkpt lat="47.29322" lon="-1.59707">
        <ele>98</ele>
        <time>2022-01-27T15:53:37Z</time>
      </trkpt>
      <trkpt lat="47.2932" lon="-1.59706">
        <ele>99</ele>
        <time>2022-01-27T15:53:38Z</time>
      </trkpt>
      <trkpt lat="47.29319" lon="-1.59706">
        <ele>99</ele>
        <time>2022-01-27T15:53:39Z</time>
      </trkpt>
      <trkpt lat="47.29318" lon="-1.59706">
        <ele>100</ele>
        <time>2022-01-27T15:53:40Z</time>
      </trkpt>
      <trkpt lat="47.29316" lon="-1.59706">
        <ele>100</ele>
        <time>2022-01-27T15:53:41Z</time>
      </trkpt>
      <trkpt lat="47.29315" lon="-1.59707">
        <ele>100</ele>
        <time>2022-01-27T15:53:42Z</time>
      </trkpt>
      <trkpt lat="47.29313" lon="-1.59707">
        <ele>100</ele>
        <time>2022-01-27T15:53:43Z</time>
      </trkpt>
      <trkpt lat="47.29312" lon="-1.59707">
        <ele>100</ele>
        <time>2022-01-27T15:53:44Z</time>
      </trkpt>
      <trkpt lat="47.29311" lon="-1.59707">
        <ele>100</ele>
        <time>2022-01-27T15:53:45Z</time>
      </trkpt>
      <trkpt lat="47.29309" lon="-1.59707">
        <ele>100</ele>
        <time>2022-01-27T15:53:46Z</time>
      </trkpt>
      <trkpt lat="47.29307" lon="-1.59708">
        <ele>101</ele>
        <time>2022-01-27T15:53:47Z</time>
      </trkpt>
      <trkpt lat="47.29306" lon="-1.59708">
        <ele>101</ele>
        <time>2022-01-27T15:53:48Z</time>
      </trkpt>
      <trkpt lat="47.29305" lon="-1.59708">
        <ele>101</ele>
        <time>2022-01-27T15:53:49Z</time>
      </trkpt>
      <trkpt lat="47.29305" lon="-1.59709">
        <ele>101</ele>
        <time>2022-01-27T15:53:50Z</time>
      </trkpt>
      <trkpt lat="47.29303" lon="-1.59708">
        <ele>100</ele>
        <time>2022-01-27T15:53:51Z</time>
      </trkpt>
      <trkpt lat="47.29303" lon="-1.59708">
        <ele>100</ele>
        <time>2022-01-27T15:53:52Z</time>
      </trkpt>
      <trkpt lat="47.29302" lon="-1.59708">
        <ele>100</ele>
        <time>2022-01-27T15:53:53Z</time>
      </trkpt>
      <trkpt lat="47.29302" lon="-1.59708">
        <ele>99</ele>
        <time>2022-01-27T15:53:54Z</time>
      </trkpt>
      <trkpt lat="47.29301" lon="-1.59708">
        <ele>99</ele>
        <time>2022-01-27T15:53:55Z</time>
      </trkpt>
      <trkpt lat="47.293" lon="-1.59709">
        <ele>99</ele>
        <time>2022-01-27T15:53:56Z</time>
      </trkpt>
      <trkpt lat="47.29298" lon="-1.59709">
        <ele>99</ele>
        <time>2022-01-27T15:53:57Z</time>
      </trkpt>
      <trkpt lat="47.29297" lon="-1.59709">
        <ele>100</ele>
        <time>2022-01-27T15:53:58Z</time>
      </trkpt>
      <trkpt lat="47.29295" lon="-1.59709">
        <ele>100</ele>
        <time>2022-01-27T15:53:59Z</time>
      </trkpt>
      <trkpt lat="47.29294" lon="-1.59709">
        <ele>100</ele>
        <time>2022-01-27T15:54:00Z</time>
      </trkpt>
      <trkpt lat="47.29293" lon="-1.59709">
        <ele>99</ele>
        <time>2022-01-27T15:54:01Z</time>
      </trkpt>
      <trkpt lat="47.29292" lon="-1.59708">
        <ele>99</ele>
        <time>2022-01-27T15:54:02Z</time>
      </trkpt>
      <trkpt lat="47.2929" lon="-1.59708">
        <ele>99</ele>
        <time>2022-01-27T15:54:03Z</time>
      </trkpt>
      <trkpt lat="47.29289" lon="-1.59708">
        <ele>99</ele>
        <time>2022-01-27T15:54:04Z</time>
      </trkpt>
      <trkpt lat="47.29287" lon="-1.59708">
        <ele>99</ele>
        <time>2022-01-27T15:54:05Z</time>
      </trkpt>
      <trkpt lat="47.29285" lon="-1.59708">
        <ele>99</ele>
        <time>2022-01-27T15:54:06Z</time>
      </trkpt>
      <trkpt lat="47.29284" lon="-1.59709">
        <ele>99</ele>
        <time>2022-01-27T15:54:07Z</time>
      </trkpt>
      <trkpt lat="47.29283" lon="-1.59709">
        <ele>99</ele>
        <time>2022-01-27T15:54:08Z</time>
      </trkpt>
      <trkpt lat="47.29281" lon="-1.59709">
        <ele>98</ele>
        <time>2022-01-27T15:54:09Z</time>
      </trkpt>
      <trkpt lat="47.2928" lon="-1.59709">
        <ele>98</ele>
        <time>2022-01-27T15:54:10Z</time>
      </trkpt>
      <trkpt lat="47.29278" lon="-1.59709">
        <ele>98</ele>
        <time>2022-01-27T15:54:11Z</time>
      </trkpt>
      <trkpt lat="47.29277" lon="-1.59709">
        <ele>98</ele>
        <time>2022-01-27T15:54:12Z</time>
      </trkpt>
      <trkpt lat="47.29276" lon="-1.59709">
        <ele>98</ele>
        <time>2022-01-27T15:54:13Z</time>
      </trkpt>
      <trkpt lat="47.29274" lon="-1.59709">
        <ele>98</ele>
        <time>2022-01-27T15:54:14Z</time>
      </trkpt>
      <trkpt lat="47.29273" lon="-1.59709">
        <ele>98</ele>
        <time>2022-01-27T15:54:15Z</time>
      </trkpt>
      <trkpt lat="47.29271" lon="-1.59708">
        <ele>98</ele>
        <time>2022-01-27T15:54:16Z</time>
      </trkpt>
      <trkpt lat="47.2927" lon="-1.59708">
        <ele>98</ele>
        <time>2022-01-27T15:54:17Z</time>
      </trkpt>
      <trkpt lat="47.29268" lon="-1.59708">
        <ele>97</ele>
        <time>2022-01-27T15:54:18Z</time>
      </trkpt>
      <trkpt lat="47.29267" lon="-1.59708">
        <ele>97</ele>
        <time>2022-01-27T15:54:19Z</time>
      </trkpt>
      <trkpt lat="47.29266" lon="-1.59707">
        <ele>97</ele>
        <time>2022-01-27T15:54:20Z</time>
      </trkpt>
      <trkpt lat="47.29264" lon="-1.59707">
        <ele>96</ele>
        <time>2022-01-27T15:54:21Z</time>
      </trkpt>
      <trkpt lat="47.29263" lon="-1.59707">
        <ele>96</ele>
        <time>2022-01-27T15:54:22Z</time>
      </trkpt>
      <trkpt lat="47.29261" lon="-1.59707">
        <ele>96</ele>
        <time>2022-01-27T15:54:23Z</time>
      </trkpt>
      <trkpt lat="47.2926" lon="-1.59707">
        <ele>96</ele>
        <time>2022-01-27T15:54:24Z</time>
      </trkpt>
      <trkpt lat="47.29258" lon="-1.59707">
        <ele>95</ele>
        <time>2022-01-27T15:54:25Z</time>
      </trkpt>
      <trkpt lat="47.29256" lon="-1.59707">
        <ele>95</ele>
        <time>2022-01-27T15:54:26Z</time>
      </trkpt>
      <trkpt lat="47.29255" lon="-1.59707">
        <ele>95</ele>
        <time>2022-01-27T15:54:27Z</time>
      </trkpt>
      <trkpt lat="47.29254" lon="-1.59706">
        <ele>95</ele>
        <time>2022-01-27T15:54:28Z</time>
      </trkpt>
      <trkpt lat="47.29252" lon="-1.59707">
        <ele>94</ele>
        <time>2022-01-27T15:54:29Z</time>
      </trkpt>
      <trkpt lat="47.29251" lon="-1.59707">
        <ele>94</ele>
        <time>2022-01-27T15:54:30Z</time>
      </trkpt>
      <trkpt lat="47.29249" lon="-1.59708">
        <ele>94</ele>
        <time>2022-01-27T15:54:31Z</time>
      </trkpt>
      <trkpt lat="47.29247" lon="-1.59708">
        <ele>94</ele>
        <time>2022-01-27T15:54:32Z</time>
      </trkpt>
      <trkpt lat="47.29246" lon="-1.59707">
        <ele>94</ele>
        <time>2022-01-27T15:54:33Z</time>
      </trkpt>
      <trkpt lat="47.29245" lon="-1.59707">
        <ele>93</ele>
        <time>2022-01-27T15:54:34Z</time>
      </trkpt>
      <trkpt lat="47.29244" lon="-1.59707">
        <ele>93</ele>
        <time>2022-01-27T15:54:35Z</time>
      </trkpt>
      <trkpt lat="47.29242" lon="-1.59707">
        <ele>94</ele>
        <time>2022-01-27T15:54:36Z</time>
      </trkpt>
      <trkpt lat="47.2924" lon="-1.59707">
        <ele>94</ele>
        <time>2022-01-27T15:54:37Z</time>
      </trkpt>
      <trkpt lat="47.29239" lon="-1.59707">
        <ele>94</ele>
        <time>2022-01-27T15:54:38Z</time>
      </trkpt>
      <trkpt lat="47.29237" lon="-1.59707">
        <ele>95</ele>
        <time>2022-01-27T15:54:39Z</time>
      </trkpt>
      <trkpt lat="47.29236" lon="-1.59707">
        <ele>94</ele>
        <time>2022-01-27T15:54:40Z</time>
      </trkpt>
      <trkpt lat="47.29235" lon="-1.59707">
        <ele>95</ele>
        <time>2022-01-27T15:54:41Z</time>
      </trkpt>
      <trkpt lat="47.29234" lon="-1.59707">
        <ele>95</ele>
        <time>2022-01-27T15:54:42Z</time>
      </trkpt>
      <trkpt lat="47.29234" lon="-1.59707">
        <ele>95</ele>
        <time>2022-01-27T15:54:43Z</time>
      </trkpt>
      <trkpt lat="47.29233" lon="-1.59707">
        <ele>95</ele>
        <time>2022-01-27T15:54:44Z</time>
      </trkpt>
      <trkpt lat="47.29231" lon="-1.59708">
        <ele>94</ele>
        <time>2022-01-27T15:54:45Z</time>
      </trkpt>
      <trkpt lat="47.2923" lon="-1.59708">
        <ele>95</ele>
        <time>2022-01-27T15:54:46Z</time>
      </trkpt>
      <trkpt lat="47.29229" lon="-1.59707">
        <ele>94</ele>
        <time>2022-01-27T15:54:47Z</time>
      </trkpt>
      <trkpt lat="47.29227" lon="-1.59707">
        <ele>95</ele>
        <time>2022-01-27T15:54:48Z</time>
      </trkpt>
      <trkpt lat="47.29225" lon="-1.59707">
        <ele>95</ele>
        <time>2022-01-27T15:54:49Z</time>
      </trkpt>
      <trkpt lat="47.29224" lon="-1.59706">
        <ele>95</ele>
        <time>2022-01-27T15:54:50Z</time>
      </trkpt>
      <trkpt lat="47.29222" lon="-1.59706">
        <ele>95</ele>
        <time>2022-01-27T15:54:51Z</time>
      </trkpt>
      <trkpt lat="47.29221" lon="-1.59706">
        <ele>95</ele>
        <time>2022-01-27T15:54:52Z</time>
      </trkpt>
      <trkpt lat="47.2922" lon="-1.59706">
        <ele>96</ele>
        <time>2022-01-27T15:54:53Z</time>
      </trkpt>
      <trkpt lat="47.29219" lon="-1.59706">
        <ele>95</ele>
        <time>2022-01-27T15:54:54Z</time>
      </trkpt>
      <trkpt lat="47.29217" lon="-1.59706">
        <ele>95</ele>
        <time>2022-01-27T15:54:55Z</time>
      </trkpt>
      <trkpt lat="47.29216" lon="-1.59706">
        <ele>95</ele>
        <time>2022-01-27T15:54:56Z</time>
      </trkpt>
      <trkpt lat="47.29215" lon="-1.59707">
        <ele>95</ele>
        <time>2022-01-27T15:54:57Z</time>
      </trkpt>
      <trkpt lat="47.29213" lon="-1.59706">
        <ele>95</ele>
        <time>2022-01-27T15:54:58Z</time>
      </trkpt>
      <trkpt lat="47.29211" lon="-1.59706">
        <ele>96</ele>
        <time>2022-01-27T15:54:59Z</time>
      </trkpt>
      <trkpt lat="47.2921" lon="-1.59706">
        <ele>97</ele>
        <time>2022-01-27T15:55:00Z</time>
      </trkpt>
      <trkpt lat="47.29209" lon="-1.59706">
        <ele>97</ele>
        <time>2022-01-27T15:55:01Z</time>
      </trkpt>
      <trkpt lat="47.29208" lon="-1.59706">
        <ele>98</ele>
        <time>2022-01-27T15:55:02Z</time>
      </trkpt>
      <trkpt lat="47.29207" lon="-1.59705">
        <ele>98</ele>
        <time>2022-01-27T15:55:03Z</time>
      </trkpt>
      <trkpt lat="47.29206" lon="-1.59705">
        <ele>97</ele>
        <time>2022-01-27T15:55:04Z</time>
      </trkpt>
      <trkpt lat="47.29205" lon="-1.59704">
        <ele>98</ele>
        <time>2022-01-27T15:55:05Z</time>
      </trkpt>
      <trkpt lat="47.29203" lon="-1.59704">
        <ele>98</ele>
        <time>2022-01-27T15:55:06Z</time>
      </trkpt>
      <trkpt lat="47.29202" lon="-1.59704">
        <ele>98</ele>
        <time>2022-01-27T15:55:07Z</time>
      </trkpt>
      <trkpt lat="47.29202" lon="-1.59703">
        <ele>98</ele>
        <time>2022-01-27T15:55:08Z</time>
      </trkpt>
      <trkpt lat="47.29201" lon="-1.59702">
        <ele>96</ele>
        <time>2022-01-27T15:55:09Z</time>
      </trkpt>
      <trkpt lat="47.29199" lon="-1.59701">
        <ele>96</ele>
        <time>2022-01-27T15:55:10Z</time>
      </trkpt>
      <trkpt lat="47.29198" lon="-1.597">
        <ele>96</ele>
        <time>2022-01-27T15:55:11Z</time>
      </trkpt>
      <trkpt lat="47.29197" lon="-1.597">
        <ele>96</ele>
        <time>2022-01-27T15:55:12Z</time>
      </trkpt>
      <trkpt lat="47.29195" lon="-1.59699">
        <ele>96</ele>
        <time>2022-01-27T15:55:13Z</time>
      </trkpt>
      <trkpt lat="47.29194" lon="-1.59699">
        <ele>95</ele>
        <time>2022-01-27T15:55:14Z</time>
      </trkpt>
      <trkpt lat="47.29192" lon="-1.59699">
        <ele>95</ele>
        <time>2022-01-27T15:55:15Z</time>
      </trkpt>
      <trkpt lat="47.2919" lon="-1.59699">
        <ele>96</ele>
        <time>2022-01-27T15:55:16Z</time>
      </trkpt>
      <trkpt lat="47.29189" lon="-1.59698">
        <ele>95</ele>
        <time>2022-01-27T15:55:17Z</time>
      </trkpt>
      <trkpt lat="47.29187" lon="-1.59698">
        <ele>95</ele>
        <time>2022-01-27T15:55:18Z</time>
      </trkpt>
      <trkpt lat="47.29186" lon="-1.59697">
        <ele>94</ele>
        <time>2022-01-27T15:55:19Z</time>
      </trkpt>
      <trkpt lat="47.29184" lon="-1.59697">
        <ele>94</ele>
        <time>2022-01-27T15:55:20Z</time>
      </trkpt>
      <trkpt lat="47.29183" lon="-1.59697">
        <ele>94</ele>
        <time>2022-01-27T15:55:21Z</time>
      </trkpt>
      <trkpt lat="47.29182" lon="-1.59696">
        <ele>94</ele>
        <time>2022-01-27T15:55:22Z</time>
      </trkpt>
      <trkpt lat="47.2918" lon="-1.59696">
        <ele>94</ele>
        <time>2022-01-27T15:55:23Z</time>
      </trkpt>
      <trkpt lat="47.29179" lon="-1.59696">
        <ele>94</ele>
        <time>2022-01-27T15:55:24Z</time>
      </trkpt>
      <trkpt lat="47.29178" lon="-1.59697">
        <ele>94</ele>
        <time>2022-01-27T15:55:25Z</time>
      </trkpt>
      <trkpt lat="47.29176" lon="-1.59697">
        <ele>94</ele>
        <time>2022-01-27T15:55:26Z</time>
      </trkpt>
      <trkpt lat="47.29175" lon="-1.59697">
        <ele>94</ele>
        <time>2022-01-27T15:55:27Z</time>
      </trkpt>
      <trkpt lat="47.29174" lon="-1.59696">
        <ele>94</ele>
        <time>2022-01-27T15:55:28Z</time>
      </trkpt>
      <trkpt lat="47.29173" lon="-1.59696">
        <ele>94</ele>
        <time>2022-01-27T15:55:29Z</time>
      </trkpt>
      <trkpt lat="47.29171" lon="-1.59696">
        <ele>95</ele>
        <time>2022-01-27T15:55:30Z</time>
      </trkpt>
      <trkpt lat="47.2917" lon="-1.59696">
        <ele>95</ele>
        <time>2022-01-27T15:55:31Z</time>
      </trkpt>
      <trkpt lat="47.29169" lon="-1.59697">
        <ele>95</ele>
        <time>2022-01-27T15:55:32Z</time>
      </trkpt>
      <trkpt lat="47.29168" lon="-1.59697">
        <ele>95</ele>
        <time>2022-01-27T15:55:33Z</time>
      </trkpt>
      <trkpt lat="47.29166" lon="-1.59697">
        <ele>95</ele>
        <time>2022-01-27T15:55:34Z</time>
      </trkpt>
      <trkpt lat="47.29165" lon="-1.59697">
        <ele>95</ele>
        <time>2022-01-27T15:55:35Z</time>
      </trkpt>
      <trkpt lat="47.29165" lon="-1.59697">
        <ele>96</ele>
        <time>2022-01-27T15:55:36Z</time>
      </trkpt>
      <trkpt lat="47.29163" lon="-1.59697">
        <ele>96</ele>
        <time>2022-01-27T15:55:37Z</time>
      </trkpt>
      <trkpt lat="47.29162" lon="-1.59698">
        <ele>95</ele>
        <time>2022-01-27T15:55:38Z</time>
      </trkpt>
      <trkpt lat="47.2916" lon="-1.59698">
        <ele>95</ele>
        <time>2022-01-27T15:55:39Z</time>
      </trkpt>
      <trkpt lat="47.29159" lon="-1.59699">
        <ele>96</ele>
        <time>2022-01-27T15:55:40Z</time>
      </trkpt>
      <trkpt lat="47.29157" lon="-1.59699">
        <ele>96</ele>
        <time>2022-01-27T15:55:41Z</time>
      </trkpt>
      <trkpt lat="47.29156" lon="-1.597">
        <ele>96</ele>
        <time>2022-01-27T15:55:42Z</time>
      </trkpt>
      <trkpt lat="47.29155" lon="-1.59701">
        <ele>96</ele>
        <time>2022-01-27T15:55:43Z</time>
      </trkpt>
      <trkpt lat="47.29154" lon="-1.59701">
        <ele>97</ele>
        <time>2022-01-27T15:55:44Z</time>
      </trkpt>
      <trkpt lat="47.29153" lon="-1.59702">
        <ele>97</ele>
        <time>2022-01-27T15:55:45Z</time>
      </trkpt>
      <trkpt lat="47.29151" lon="-1.59702">
        <ele>97</ele>
        <time>2022-01-27T15:55:46Z</time>
      </trkpt>
      <trkpt lat="47.2915" lon="-1.59703">
        <ele>97</ele>
        <time>2022-01-27T15:55:47Z</time>
      </trkpt>
      <trkpt lat="47.29149" lon="-1.59703">
        <ele>97</ele>
        <time>2022-01-27T15:55:48Z</time>
      </trkpt>
      <trkpt lat="47.29148" lon="-1.59704">
        <ele>97</ele>
        <time>2022-01-27T15:55:49Z</time>
      </trkpt>
      <trkpt lat="47.29147" lon="-1.59704">
        <ele>97</ele>
        <time>2022-01-27T15:55:50Z</time>
      </trkpt>
      <trkpt lat="47.29145" lon="-1.59704">
        <ele>97</ele>
        <time>2022-01-27T15:55:51Z</time>
      </trkpt>
      <trkpt lat="47.29144" lon="-1.59705">
        <ele>97</ele>
        <time>2022-01-27T15:55:52Z</time>
      </trkpt>
      <trkpt lat="47.29143" lon="-1.59705">
        <ele>98</ele>
        <time>2022-01-27T15:55:53Z</time>
      </trkpt>
      <trkpt lat="47.29142" lon="-1.59704">
        <ele>98</ele>
        <time>2022-01-27T15:55:54Z</time>
      </trkpt>
      <trkpt lat="47.2914" lon="-1.59704">
        <ele>98</ele>
        <time>2022-01-27T15:55:55Z</time>
      </trkpt>
      <trkpt lat="47.29139" lon="-1.59705">
        <ele>98</ele>
        <time>2022-01-27T15:55:56Z</time>
      </trkpt>
      <trkpt lat="47.29138" lon="-1.59706">
        <ele>98</ele>
        <time>2022-01-27T15:55:57Z</time>
      </trkpt>
      <trkpt lat="47.29136" lon="-1.59708">
        <ele>98</ele>
        <time>2022-01-27T15:55:58Z</time>
      </trkpt>
      <trkpt lat="47.29135" lon="-1.59708">
        <ele>98</ele>
        <time>2022-01-27T15:55:59Z</time>
      </trkpt>
      <trkpt lat="47.29133" lon="-1.59708">
        <ele>98</ele>
        <time>2022-01-27T15:56:00Z</time>
      </trkpt>
      <trkpt lat="47.29133" lon="-1.59708">
        <ele>98</ele>
        <time>2022-01-27T15:56:01Z</time>
      </trkpt>
      <trkpt lat="47.29131" lon="-1.59708">
        <ele>99</ele>
        <time>2022-01-27T15:56:02Z</time>
      </trkpt>
      <trkpt lat="47.29129" lon="-1.59708">
        <ele>100</ele>
        <time>2022-01-27T15:56:03Z</time>
      </trkpt>
      <trkpt lat="47.29128" lon="-1.59708">
        <ele>100</ele>
        <time>2022-01-27T15:56:04Z</time>
      </trkpt>
      <trkpt lat="47.29126" lon="-1.59708">
        <ele>100</ele>
        <time>2022-01-27T15:56:05Z</time>
      </trkpt>
      <trkpt lat="47.29124" lon="-1.59709">
        <ele>100</ele>
        <time>2022-01-27T15:56:06Z</time>
      </trkpt>
      <trkpt lat="47.29122" lon="-1.59709">
        <ele>100</ele>
        <time>2022-01-27T15:56:07Z</time>
      </trkpt>
      <trkpt lat="47.29121" lon="-1.59709">
        <ele>100</ele>
        <time>2022-01-27T15:56:08Z</time>
      </trkpt>
      <trkpt lat="47.29119" lon="-1.59709">
        <ele>100</ele>
        <time>2022-01-27T15:56:09Z</time>
      </trkpt>
      <trkpt lat="47.29118" lon="-1.59708">
        <ele>99</ele>
        <time>2022-01-27T15:56:10Z</time>
      </trkpt>
      <trkpt lat="47.29117" lon="-1.59708">
        <ele>99</ele>
        <time>2022-01-27T15:56:11Z</time>
      </trkpt>
      <trkpt lat="47.29116" lon="-1.59708">
        <ele>100</ele>
        <time>2022-01-27T15:56:12Z</time>
      </trkpt>
      <trkpt lat="47.29114" lon="-1.59708">
        <ele>99</ele>
        <time>2022-01-27T15:56:13Z</time>
      </trkpt>
      <trkpt lat="47.29113" lon="-1.59708">
        <ele>100</ele>
        <time>2022-01-27T15:56:14Z</time>
      </trkpt>
      <trkpt lat="47.29112" lon="-1.59708">
        <ele>101</ele>
        <time>2022-01-27T15:56:15Z</time>
      </trkpt>
      <trkpt lat="47.2911" lon="-1.59708">
        <ele>100</ele>
        <time>2022-01-27T15:56:16Z</time>
      </trkpt>
      <trkpt lat="47.29109" lon="-1.59708">
        <ele>100</ele>
        <time>2022-01-27T15:56:17Z</time>
      </trkpt>
      <trkpt lat="47.29107" lon="-1.59707">
        <ele>100</ele>
        <time>2022-01-27T15:56:18Z</time>
      </trkpt>
      <trkpt lat="47.29106" lon="-1.59707">
        <ele>100</ele>
        <time>2022-01-27T15:56:19Z</time>
      </trkpt>
      <trkpt lat="47.29104" lon="-1.59706">
        <ele>101</ele>
        <time>2022-01-27T15:56:20Z</time>
      </trkpt>
      <trkpt lat="47.29103" lon="-1.59706">
        <ele>101</ele>
        <time>2022-01-27T15:56:21Z</time>
      </trkpt>
      <trkpt lat="47.29101" lon="-1.59706">
        <ele>101</ele>
        <time>2022-01-27T15:56:22Z</time>
      </trkpt>
      <trkpt lat="47.291" lon="-1.59705">
        <ele>101</ele>
        <time>2022-01-27T15:56:23Z</time>
      </trkpt>
      <trkpt lat="47.29099" lon="-1.59705">
        <ele>100</ele>
        <time>2022-01-27T15:56:24Z</time>
      </trkpt>
      <trkpt lat="47.29097" lon="-1.59705">
        <ele>101</ele>
        <time>2022-01-27T15:56:25Z</time>
      </trkpt>
      <trkpt lat="47.29096" lon="-1.59705">
        <ele>101</ele>
        <time>2022-01-27T15:56:26Z</time>
      </trkpt>
      <trkpt lat="47.29095" lon="-1.59705">
        <ele>101</ele>
        <time>2022-01-27T15:56:27Z</time>
      </trkpt>
      <trkpt lat="47.29093" lon="-1.59705">
        <ele>100</ele>
        <time>2022-01-27T15:56:28Z</time>
      </trkpt>
      <trkpt lat="47.29092" lon="-1.59705">
        <ele>101</ele>
        <time>2022-01-27T15:56:29Z</time>
      </trkpt>
      <trkpt lat="47.29091" lon="-1.59705">
        <ele>101</ele>
        <time>2022-01-27T15:56:30Z</time>
      </trkpt>
      <trkpt lat="47.29089" lon="-1.59704">
        <ele>100</ele>
        <time>2022-01-27T15:56:31Z</time>
      </trkpt>
      <trkpt lat="47.29088" lon="-1.59703">
        <ele>100</ele>
        <time>2022-01-27T15:56:32Z</time>
      </trkpt>
      <trkpt lat="47.29087" lon="-1.59703">
        <ele>100</ele>
        <time>2022-01-27T15:56:33Z</time>
      </trkpt>
      <trkpt lat="47.29085" lon="-1.59703">
        <ele>100</ele>
        <time>2022-01-27T15:56:34Z</time>
      </trkpt>
      <trkpt lat="47.29084" lon="-1.59702">
        <ele>100</ele>
        <time>2022-01-27T15:56:35Z</time>
      </trkpt>
      <trkpt lat="47.29083" lon="-1.59702">
        <ele>100</ele>
        <time>2022-01-27T15:56:36Z</time>
      </trkpt>
      <trkpt lat="47.29081" lon="-1.59701">
        <ele>100</ele>
        <time>2022-01-27T15:56:37Z</time>
      </trkpt>
      <trkpt lat="47.29079" lon="-1.59701">
        <ele>101</ele>
        <time>2022-01-27T15:56:38Z</time>
      </trkpt>
      <trkpt lat="47.29078" lon="-1.59701">
        <ele>101</ele>
        <time>2022-01-27T15:56:39Z</time>
      </trkpt>
      <trkpt lat="47.29077" lon="-1.597">
        <ele>101</ele>
        <time>2022-01-27T15:56:40Z</time>
      </trkpt>
      <trkpt lat="47.29075" lon="-1.59699">
        <ele>101</ele>
        <time>2022-01-27T15:56:41Z</time>
      </trkpt>
      <trkpt lat="47.29074" lon="-1.59698">
        <ele>101</ele>
        <time>2022-01-27T15:56:42Z</time>
      </trkpt>
      <trkpt lat="47.29073" lon="-1.59697">
        <ele>101</ele>
        <time>2022-01-27T15:56:43Z</time>
      </trkpt>
      <trkpt lat="47.29071" lon="-1.59697">
        <ele>101</ele>
        <time>2022-01-27T15:56:44Z</time>
      </trkpt>
      <trkpt lat="47.2907" lon="-1.59696">
        <ele>101</ele>
        <time>2022-01-27T15:56:45Z</time>
      </trkpt>
      <trkpt lat="47.29069" lon="-1.59695">
        <ele>101</ele>
        <time>2022-01-27T15:56:46Z</time>
      </trkpt>
      <trkpt lat="47.29067" lon="-1.59694">
        <ele>101</ele>
        <time>2022-01-27T15:56:47Z</time>
      </trkpt>
      <trkpt lat="47.29066" lon="-1.59694">
        <ele>101</ele>
        <time>2022-01-27T15:56:48Z</time>
      </trkpt>
      <trkpt lat="47.29065" lon="-1.59693">
        <ele>101</ele>
        <time>2022-01-27T15:56:49Z</time>
      </trkpt>
      <trkpt lat="47.29064" lon="-1.59693">
        <ele>101</ele>
        <time>2022-01-27T15:56:50Z</time>
      </trkpt>
      <trkpt lat="47.29062" lon="-1.59692">
        <ele>101</ele>
        <time>2022-01-27T15:56:51Z</time>
      </trkpt>
      <trkpt lat="47.2906" lon="-1.59692">
        <ele>102</ele>
        <time>2022-01-27T15:56:52Z</time>
      </trkpt>
      <trkpt lat="47.29059" lon="-1.59691">
        <ele>102</ele>
        <time>2022-01-27T15:56:53Z</time>
      </trkpt>
      <trkpt lat="47.29057" lon="-1.59691">
        <ele>102</ele>
        <time>2022-01-27T15:56:54Z</time>
      </trkpt>
      <trkpt lat="47.29056" lon="-1.5969">
        <ele>102</ele>
        <time>2022-01-27T15:56:55Z</time>
      </trkpt>
      <trkpt lat="47.29055" lon="-1.59689">
        <ele>102</ele>
        <time>2022-01-27T15:56:56Z</time>
      </trkpt>
      <trkpt lat="47.29053" lon="-1.59688">
        <ele>102</ele>
        <time>2022-01-27T15:56:57Z</time>
      </trkpt>
      <trkpt lat="47.29052" lon="-1.59688">
        <ele>102</ele>
        <time>2022-01-27T15:56:58Z</time>
      </trkpt>
      <trkpt lat="47.2905" lon="-1.59688">
        <ele>102</ele>
        <time>2022-01-27T15:56:59Z</time>
      </trkpt>
      <trkpt lat="47.29049" lon="-1.59688">
        <ele>102</ele>
        <time>2022-01-27T15:57:00Z</time>
      </trkpt>
      <trkpt lat="47.29048" lon="-1.59688">
        <ele>103</ele>
        <time>2022-01-27T15:57:01Z</time>
      </trkpt>
      <trkpt lat="47.29046" lon="-1.59688">
        <ele>103</ele>
        <time>2022-01-27T15:57:02Z</time>
      </trkpt>
      <trkpt lat="47.29045" lon="-1.59688">
        <ele>103</ele>
        <time>2022-01-27T15:57:03Z</time>
      </trkpt>
      <trkpt lat="47.29043" lon="-1.59688">
        <ele>103</ele>
        <time>2022-01-27T15:57:04Z</time>
      </trkpt>
      <trkpt lat="47.29042" lon="-1.59687">
        <ele>104</ele>
        <time>2022-01-27T15:57:05Z</time>
      </trkpt>
      <trkpt lat="47.2904" lon="-1.59686">
        <ele>104</ele>
        <time>2022-01-27T15:57:06Z</time>
      </trkpt>
      <trkpt lat="47.29039" lon="-1.59686">
        <ele>104</ele>
        <time>2022-01-27T15:57:07Z</time>
      </trkpt>
      <trkpt lat="47.29038" lon="-1.59685">
        <ele>104</ele>
        <time>2022-01-27T15:57:08Z</time>
      </trkpt>
      <trkpt lat="47.29037" lon="-1.59685">
        <ele>104</ele>
        <time>2022-01-27T15:57:09Z</time>
      </trkpt>
      <trkpt lat="47.29035" lon="-1.59684">
        <ele>103</ele>
        <time>2022-01-27T15:57:10Z</time>
      </trkpt>
      <trkpt lat="47.29034" lon="-1.59684">
        <ele>104</ele>
        <time>2022-01-27T15:57:11Z</time>
      </trkpt>
      <trkpt lat="47.29032" lon="-1.59683">
        <ele>104</ele>
        <time>2022-01-27T15:57:12Z</time>
      </trkpt>
      <trkpt lat="47.29031" lon="-1.59683">
        <ele>104</ele>
        <time>2022-01-27T15:57:13Z</time>
      </trkpt>
      <trkpt lat="47.2903" lon="-1.59683">
        <ele>104</ele>
        <time>2022-01-27T15:57:14Z</time>
      </trkpt>
      <trkpt lat="47.29028" lon="-1.59682">
        <ele>104</ele>
        <time>2022-01-27T15:57:15Z</time>
      </trkpt>
      <trkpt lat="47.29026" lon="-1.59682">
        <ele>105</ele>
        <time>2022-01-27T15:57:16Z</time>
      </trkpt>
      <trkpt lat="47.29025" lon="-1.59681">
        <ele>105</ele>
        <time>2022-01-27T15:57:17Z</time>
      </trkpt>
      <trkpt lat="47.29023" lon="-1.59681">
        <ele>105</ele>
        <time>2022-01-27T15:57:18Z</time>
      </trkpt>
      <trkpt lat="47.29022" lon="-1.5968">
        <ele>105</ele>
        <time>2022-01-27T15:57:19Z</time>
      </trkpt>
      <trkpt lat="47.29021" lon="-1.59678">
        <ele>105</ele>
        <time>2022-01-27T15:57:20Z</time>
      </trkpt>
      <trkpt lat="47.2902" lon="-1.59678">
        <ele>105</ele>
        <time>2022-01-27T15:57:21Z</time>
      </trkpt>
      <trkpt lat="47.29018" lon="-1.59677">
        <ele>105</ele>
        <time>2022-01-27T15:57:22Z</time>
      </trkpt>
      <trkpt lat="47.29017" lon="-1.59677">
        <ele>105</ele>
        <time>2022-01-27T15:57:23Z</time>
      </trkpt>
      <trkpt lat="47.29016" lon="-1.59676">
        <ele>105</ele>
        <time>2022-01-27T15:57:24Z</time>
      </trkpt>
      <trkpt lat="47.29015" lon="-1.59676">
        <ele>105</ele>
        <time>2022-01-27T15:57:25Z</time>
      </trkpt>
      <trkpt lat="47.29013" lon="-1.59675">
        <ele>105</ele>
        <time>2022-01-27T15:57:26Z</time>
      </trkpt>
      <trkpt lat="47.29012" lon="-1.59675">
        <ele>105</ele>
        <time>2022-01-27T15:57:27Z</time>
      </trkpt>
      <trkpt lat="47.2901" lon="-1.59675">
        <ele>105</ele>
        <time>2022-01-27T15:57:28Z</time>
      </trkpt>
      <trkpt lat="47.29009" lon="-1.59675">
        <ele>106</ele>
        <time>2022-01-27T15:57:29Z</time>
      </trkpt>
      <trkpt lat="47.29008" lon="-1.59675">
        <ele>106</ele>
        <time>2022-01-27T15:57:30Z</time>
      </trkpt>
      <trkpt lat="47.29007" lon="-1.59674">
        <ele>105</ele>
        <time>2022-01-27T15:57:31Z</time>
      </trkpt>
      <trkpt lat="47.29005" lon="-1.59674">
        <ele>105</ele>
        <time>2022-01-27T15:57:32Z</time>
      </trkpt>
      <trkpt lat="47.29004" lon="-1.59674">
        <ele>105</ele>
        <time>2022-01-27T15:57:33Z</time>
      </trkpt>
      <trkpt lat="47.29003" lon="-1.59673">
        <ele>105</ele>
        <time>2022-01-27T15:57:34Z</time>
      </trkpt>
      <trkpt lat="47.29001" lon="-1.59673">
        <ele>106</ele>
        <time>2022-01-27T15:57:35Z</time>
      </trkpt>
      <trkpt lat="47.28999" lon="-1.59672">
        <ele>106</ele>
        <time>2022-01-27T15:57:36Z</time>
      </trkpt>
      <trkpt lat="47.28998" lon="-1.59672">
        <ele>106</ele>
        <time>2022-01-27T15:57:37Z</time>
      </trkpt>
      <trkpt lat="47.28996" lon="-1.59672">
        <ele>106</ele>
        <time>2022-01-27T15:57:38Z</time>
      </trkpt>
      <trkpt lat="47.28995" lon="-1.59671">
        <ele>106</ele>
        <time>2022-01-27T15:57:39Z</time>
      </trkpt>
      <trkpt lat="47.28993" lon="-1.59671">
        <ele>106</ele>
        <time>2022-01-27T15:57:40Z</time>
      </trkpt>
      <trkpt lat="47.28992" lon="-1.5967">
        <ele>106</ele>
        <time>2022-01-27T15:57:41Z</time>
      </trkpt>
      <trkpt lat="47.28991" lon="-1.5967">
        <ele>106</ele>
        <time>2022-01-27T15:57:42Z</time>
      </trkpt>
      <trkpt lat="47.28989" lon="-1.59669">
        <ele>106</ele>
        <time>2022-01-27T15:57:43Z</time>
      </trkpt>
      <trkpt lat="47.28988" lon="-1.59668">
        <ele>106</ele>
        <time>2022-01-27T15:57:44Z</time>
      </trkpt>
      <trkpt lat="47.28987" lon="-1.59668">
        <ele>106</ele>
        <time>2022-01-27T15:57:45Z</time>
      </trkpt>
      <trkpt lat="47.28985" lon="-1.59668">
        <ele>106</ele>
        <time>2022-01-27T15:57:46Z</time>
      </trkpt>
      <trkpt lat="47.28984" lon="-1.59667">
        <ele>106</ele>
        <time>2022-01-27T15:57:47Z</time>
      </trkpt>
      <trkpt lat="47.28983" lon="-1.59667">
        <ele>106</ele>
        <time>2022-01-27T15:57:48Z</time>
      </trkpt>
      <trkpt lat="47.28981" lon="-1.59666">
        <ele>105</ele>
        <time>2022-01-27T15:57:49Z</time>
      </trkpt>
      <trkpt lat="47.2898" lon="-1.59666">
        <ele>105</ele>
        <time>2022-01-27T15:57:50Z</time>
      </trkpt>
      <trkpt lat="47.28979" lon="-1.59665">
        <ele>105</ele>
        <time>2022-01-27T15:57:51Z</time>
      </trkpt>
      <trkpt lat="47.28978" lon="-1.59665">
        <ele>105</ele>
        <time>2022-01-27T15:57:52Z</time>
      </trkpt>
      <trkpt lat="47.28976" lon="-1.59664">
        <ele>105</ele>
        <time>2022-01-27T15:57:53Z</time>
      </trkpt>
      <trkpt lat="47.28975" lon="-1.59664">
        <ele>105</ele>
        <time>2022-01-27T15:57:54Z</time>
      </trkpt>
      <trkpt lat="47.28973" lon="-1.59663">
        <ele>105</ele>
        <time>2022-01-27T15:57:55Z</time>
      </trkpt>
      <trkpt lat="47.28972" lon="-1.59663">
        <ele>105</ele>
        <time>2022-01-27T15:57:56Z</time>
      </trkpt>
      <trkpt lat="47.2897" lon="-1.59662">
        <ele>105</ele>
        <time>2022-01-27T15:57:57Z</time>
      </trkpt>
      <trkpt lat="47.28968" lon="-1.59662">
        <ele>105</ele>
        <time>2022-01-27T15:57:58Z</time>
      </trkpt>
      <trkpt lat="47.28967" lon="-1.59661">
        <ele>105</ele>
        <time>2022-01-27T15:57:59Z</time>
      </trkpt>
      <trkpt lat="47.28965" lon="-1.59661">
        <ele>105</ele>
        <time>2022-01-27T15:58:00Z</time>
      </trkpt>
      <trkpt lat="47.28964" lon="-1.59661">
        <ele>106</ele>
        <time>2022-01-27T15:58:01Z</time>
      </trkpt>
      <trkpt lat="47.28963" lon="-1.59661">
        <ele>106</ele>
        <time>2022-01-27T15:58:02Z</time>
      </trkpt>
      <trkpt lat="47.28962" lon="-1.5966">
        <ele>106</ele>
        <time>2022-01-27T15:58:03Z</time>
      </trkpt>
      <trkpt lat="47.2896" lon="-1.5966">
        <ele>106</ele>
        <time>2022-01-27T15:58:04Z</time>
      </trkpt>
      <trkpt lat="47.28959" lon="-1.59659">
        <ele>105</ele>
        <time>2022-01-27T15:58:05Z</time>
      </trkpt>
      <trkpt lat="47.28958" lon="-1.59659">
        <ele>105</ele>
        <time>2022-01-27T15:58:06Z</time>
      </trkpt>
      <trkpt lat="47.28956" lon="-1.59658">
        <ele>105</ele>
        <time>2022-01-27T15:58:07Z</time>
      </trkpt>
      <trkpt lat="47.28955" lon="-1.59657">
        <ele>105</ele>
        <time>2022-01-27T15:58:08Z</time>
      </trkpt>
      <trkpt lat="47.28954" lon="-1.59657">
        <ele>105</ele>
        <time>2022-01-27T15:58:09Z</time>
      </trkpt>
      <trkpt lat="47.28953" lon="-1.59656">
        <ele>105</ele>
        <time>2022-01-27T15:58:10Z</time>
      </trkpt>
      <trkpt lat="47.28951" lon="-1.59656">
        <ele>104</ele>
        <time>2022-01-27T15:58:11Z</time>
      </trkpt>
      <trkpt lat="47.2895" lon="-1.59656">
        <ele>104</ele>
        <time>2022-01-27T15:58:12Z</time>
      </trkpt>
      <trkpt lat="47.28948" lon="-1.59656">
        <ele>105</ele>
        <time>2022-01-27T15:58:13Z</time>
      </trkpt>
      <trkpt lat="47.28946" lon="-1.59656">
        <ele>104</ele>
        <time>2022-01-27T15:58:14Z</time>
      </trkpt>
      <trkpt lat="47.28945" lon="-1.59656">
        <ele>104</ele>
        <time>2022-01-27T15:58:15Z</time>
      </trkpt>
      <trkpt lat="47.28944" lon="-1.59656">
        <ele>104</ele>
        <time>2022-01-27T15:58:16Z</time>
      </trkpt>
      <trkpt lat="47.28942" lon="-1.59656">
        <ele>104</ele>
        <time>2022-01-27T15:58:17Z</time>
      </trkpt>
      <trkpt lat="47.28941" lon="-1.59656">
        <ele>104</ele>
        <time>2022-01-27T15:58:18Z</time>
      </trkpt>
      <trkpt lat="47.28939" lon="-1.59656">
        <ele>103</ele>
        <time>2022-01-27T15:58:19Z</time>
      </trkpt>
      <trkpt lat="47.28938" lon="-1.59655">
        <ele>104</ele>
        <time>2022-01-27T15:58:20Z</time>
      </trkpt>
      <trkpt lat="47.28936" lon="-1.59655">
        <ele>104</ele>
        <time>2022-01-27T15:58:21Z</time>
      </trkpt>
      <trkpt lat="47.28934" lon="-1.59655">
        <ele>104</ele>
        <time>2022-01-27T15:58:22Z</time>
      </trkpt>
      <trkpt lat="47.28933" lon="-1.59654">
        <ele>104</ele>
        <time>2022-01-27T15:58:23Z</time>
      </trkpt>
      <trkpt lat="47.28931" lon="-1.59654">
        <ele>104</ele>
        <time>2022-01-27T15:58:24Z</time>
      </trkpt>
      <trkpt lat="47.2893" lon="-1.59654">
        <ele>104</ele>
        <time>2022-01-27T15:58:25Z</time>
      </trkpt>
      <trkpt lat="47.28928" lon="-1.59654">
        <ele>104</ele>
        <time>2022-01-27T15:58:26Z</time>
      </trkpt>
      <trkpt lat="47.28927" lon="-1.59654">
        <ele>104</ele>
        <time>2022-01-27T15:58:27Z</time>
      </trkpt>
      <trkpt lat="47.28925" lon="-1.59654">
        <ele>104</ele>
        <time>2022-01-27T15:58:28Z</time>
      </trkpt>
      <trkpt lat="47.28924" lon="-1.59654">
        <ele>104</ele>
        <time>2022-01-27T15:58:29Z</time>
      </trkpt>
      <trkpt lat="47.28922" lon="-1.59653">
        <ele>104</ele>
        <time>2022-01-27T15:58:30Z</time>
      </trkpt>
      <trkpt lat="47.28921" lon="-1.59653">
        <ele>103</ele>
        <time>2022-01-27T15:58:31Z</time>
      </trkpt>
      <trkpt lat="47.2892" lon="-1.59653">
        <ele>103</ele>
        <time>2022-01-27T15:58:32Z</time>
      </trkpt>
      <trkpt lat="47.28919" lon="-1.59653">
        <ele>103</ele>
        <time>2022-01-27T15:58:33Z</time>
      </trkpt>
      <trkpt lat="47.28917" lon="-1.59653">
        <ele>103</ele>
        <time>2022-01-27T15:58:34Z</time>
      </trkpt>
      <trkpt lat="47.28916" lon="-1.59653">
        <ele>103</ele>
        <time>2022-01-27T15:58:35Z</time>
      </trkpt>
      <trkpt lat="47.28915" lon="-1.59653">
        <ele>103</ele>
        <time>2022-01-27T15:58:36Z</time>
      </trkpt>
      <trkpt lat="47.28913" lon="-1.59653">
        <ele>103</ele>
        <time>2022-01-27T15:58:37Z</time>
      </trkpt>
      <trkpt lat="47.28912" lon="-1.59653">
        <ele>103</ele>
        <time>2022-01-27T15:58:38Z</time>
      </trkpt>
      <trkpt lat="47.2891" lon="-1.59653">
        <ele>103</ele>
        <time>2022-01-27T15:58:39Z</time>
      </trkpt>
      <trkpt lat="47.28909" lon="-1.59654">
        <ele>103</ele>
        <time>2022-01-27T15:58:40Z</time>
      </trkpt>
      <trkpt lat="47.28907" lon="-1.59654">
        <ele>103</ele>
        <time>2022-01-27T15:58:41Z</time>
      </trkpt>
      <trkpt lat="47.28906" lon="-1.59654">
        <ele>103</ele>
        <time>2022-01-27T15:58:42Z</time>
      </trkpt>
      <trkpt lat="47.28906" lon="-1.59654">
        <ele>103</ele>
        <time>2022-01-27T15:58:43Z</time>
      </trkpt>
      <trkpt lat="47.28904" lon="-1.59655">
        <ele>102</ele>
        <time>2022-01-27T15:58:44Z</time>
      </trkpt>
      <trkpt lat="47.28903" lon="-1.59655">
        <ele>101</ele>
        <time>2022-01-27T15:58:45Z</time>
      </trkpt>
      <trkpt lat="47.28902" lon="-1.59655">
        <ele>101</ele>
        <time>2022-01-27T15:58:46Z</time>
      </trkpt>
      <trkpt lat="47.28901" lon="-1.59655">
        <ele>101</ele>
        <time>2022-01-27T15:58:47Z</time>
      </trkpt>
      <trkpt lat="47.289" lon="-1.59655">
        <ele>101</ele>
        <time>2022-01-27T15:58:48Z</time>
      </trkpt>
      <trkpt lat="47.28899" lon="-1.59655">
        <ele>101</ele>
        <time>2022-01-27T15:58:49Z</time>
      </trkpt>
      <trkpt lat="47.28897" lon="-1.59655">
        <ele>101</ele>
        <time>2022-01-27T15:58:50Z</time>
      </trkpt>
      <trkpt lat="47.28896" lon="-1.59655">
        <ele>101</ele>
        <time>2022-01-27T15:58:51Z</time>
      </trkpt>
      <trkpt lat="47.28895" lon="-1.59655">
        <ele>101</ele>
        <time>2022-01-27T15:58:52Z</time>
      </trkpt>
      <trkpt lat="47.28893" lon="-1.59655">
        <ele>101</ele>
        <time>2022-01-27T15:58:53Z</time>
      </trkpt>
      <trkpt lat="47.28892" lon="-1.59655">
        <ele>101</ele>
        <time>2022-01-27T15:58:54Z</time>
      </trkpt>
      <trkpt lat="47.2889" lon="-1.59654">
        <ele>100</ele>
        <time>2022-01-27T15:58:55Z</time>
      </trkpt>
      <trkpt lat="47.28889" lon="-1.59653">
        <ele>101</ele>
        <time>2022-01-27T15:58:56Z</time>
      </trkpt>
      <trkpt lat="47.28888" lon="-1.59653">
        <ele>101</ele>
        <time>2022-01-27T15:58:57Z</time>
      </trkpt>
      <trkpt lat="47.28886" lon="-1.59653">
        <ele>100</ele>
        <time>2022-01-27T15:58:58Z</time>
      </trkpt>
      <trkpt lat="47.28884" lon="-1.59653">
        <ele>100</ele>
        <time>2022-01-27T15:58:59Z</time>
      </trkpt>
      <trkpt lat="47.28883" lon="-1.59653">
        <ele>100</ele>
        <time>2022-01-27T15:59:00Z</time>
      </trkpt>
      <trkpt lat="47.28881" lon="-1.59653">
        <ele>99</ele>
        <time>2022-01-27T15:59:01Z</time>
      </trkpt>
      <trkpt lat="47.2888" lon="-1.59653">
        <ele>99</ele>
        <time>2022-01-27T15:59:02Z</time>
      </trkpt>
      <trkpt lat="47.28878" lon="-1.59653">
        <ele>99</ele>
        <time>2022-01-27T15:59:03Z</time>
      </trkpt>
      <trkpt lat="47.28877" lon="-1.59653">
        <ele>99</ele>
        <time>2022-01-27T15:59:04Z</time>
      </trkpt>
      <trkpt lat="47.28876" lon="-1.59654">
        <ele>99</ele>
        <time>2022-01-27T15:59:05Z</time>
      </trkpt>
      <trkpt lat="47.28875" lon="-1.59654">
        <ele>98</ele>
        <time>2022-01-27T15:59:06Z</time>
      </trkpt>
      <trkpt lat="47.28873" lon="-1.59654">
        <ele>98</ele>
        <time>2022-01-27T15:59:07Z</time>
      </trkpt>
      <trkpt lat="47.28872" lon="-1.59655">
        <ele>98</ele>
        <time>2022-01-27T15:59:08Z</time>
      </trkpt>
      <trkpt lat="47.28871" lon="-1.59655">
        <ele>98</ele>
        <time>2022-01-27T15:59:09Z</time>
      </trkpt>
      <trkpt lat="47.2887" lon="-1.59654">
        <ele>98</ele>
        <time>2022-01-27T15:59:10Z</time>
      </trkpt>
      <trkpt lat="47.28869" lon="-1.59654">
        <ele>98</ele>
        <time>2022-01-27T15:59:11Z</time>
      </trkpt>
      <trkpt lat="47.28868" lon="-1.59654">
        <ele>98</ele>
        <time>2022-01-27T15:59:12Z</time>
      </trkpt>
      <trkpt lat="47.28866" lon="-1.59654">
        <ele>98</ele>
        <time>2022-01-27T15:59:13Z</time>
      </trkpt>
      <trkpt lat="47.28865" lon="-1.59654">
        <ele>98</ele>
        <time>2022-01-27T15:59:14Z</time>
      </trkpt>
      <trkpt lat="47.28863" lon="-1.59654">
        <ele>98</ele>
        <time>2022-01-27T15:59:15Z</time>
      </trkpt>
      <trkpt lat="47.28862" lon="-1.59654">
        <ele>98</ele>
        <time>2022-01-27T15:59:16Z</time>
      </trkpt>
      <trkpt lat="47.2886" lon="-1.59654">
        <ele>99</ele>
        <time>2022-01-27T15:59:17Z</time>
      </trkpt>
      <trkpt lat="47.28858" lon="-1.59655">
        <ele>99</ele>
        <time>2022-01-27T15:59:18Z</time>
      </trkpt>
      <trkpt lat="47.28857" lon="-1.59655">
        <ele>99</ele>
        <time>2022-01-27T15:59:19Z</time>
      </trkpt>
      <trkpt lat="47.28856" lon="-1.59656">
        <ele>99</ele>
        <time>2022-01-27T15:59:20Z</time>
      </trkpt>
      <trkpt lat="47.28854" lon="-1.59656">
        <ele>99</ele>
        <time>2022-01-27T15:59:21Z</time>
      </trkpt>
      <trkpt lat="47.28853" lon="-1.59657">
        <ele>99</ele>
        <time>2022-01-27T15:59:22Z</time>
      </trkpt>
      <trkpt lat="47.28852" lon="-1.59657">
        <ele>99</ele>
        <time>2022-01-27T15:59:23Z</time>
      </trkpt>
      <trkpt lat="47.28851" lon="-1.59657">
        <ele>99</ele>
        <time>2022-01-27T15:59:24Z</time>
      </trkpt>
      <trkpt lat="47.28849" lon="-1.59657">
        <ele>99</ele>
        <time>2022-01-27T15:59:25Z</time>
      </trkpt>
      <trkpt lat="47.28848" lon="-1.59657">
        <ele>100</ele>
        <time>2022-01-27T15:59:26Z</time>
      </trkpt>
      <trkpt lat="47.28847" lon="-1.59657">
        <ele>100</ele>
        <time>2022-01-27T15:59:27Z</time>
      </trkpt>
      <trkpt lat="47.28845" lon="-1.59657">
        <ele>100</ele>
        <time>2022-01-27T15:59:28Z</time>
      </trkpt>
      <trkpt lat="47.28844" lon="-1.59657">
        <ele>100</ele>
        <time>2022-01-27T15:59:29Z</time>
      </trkpt>
      <trkpt lat="47.28842" lon="-1.59657">
        <ele>100</ele>
        <time>2022-01-27T15:59:30Z</time>
      </trkpt>
      <trkpt lat="47.28841" lon="-1.59658">
        <ele>100</ele>
        <time>2022-01-27T15:59:31Z</time>
      </trkpt>
      <trkpt lat="47.28839" lon="-1.59658">
        <ele>100</ele>
        <time>2022-01-27T15:59:32Z</time>
      </trkpt>
      <trkpt lat="47.28838" lon="-1.59658">
        <ele>99</ele>
        <time>2022-01-27T15:59:33Z</time>
      </trkpt>
      <trkpt lat="47.28836" lon="-1.59658">
        <ele>99</ele>
        <time>2022-01-27T15:59:34Z</time>
      </trkpt>
      <trkpt lat="47.28835" lon="-1.59657">
        <ele>99</ele>
        <time>2022-01-27T15:59:35Z</time>
      </trkpt>
      <trkpt lat="47.28833" lon="-1.59657">
        <ele>98</ele>
        <time>2022-01-27T15:59:36Z</time>
      </trkpt>
      <trkpt lat="47.28832" lon="-1.59657">
        <ele>99</ele>
        <time>2022-01-27T15:59:37Z</time>
      </trkpt>
      <trkpt lat="47.28831" lon="-1.59657">
        <ele>99</ele>
        <time>2022-01-27T15:59:38Z</time>
      </trkpt>
      <trkpt lat="47.2883" lon="-1.59657">
        <ele>99</ele>
        <time>2022-01-27T15:59:39Z</time>
      </trkpt>
      <trkpt lat="47.28828" lon="-1.59656">
        <ele>99</ele>
        <time>2022-01-27T15:59:40Z</time>
      </trkpt>
      <trkpt lat="47.28827" lon="-1.59655">
        <ele>99</ele>
        <time>2022-01-27T15:59:41Z</time>
      </trkpt>
      <trkpt lat="47.28826" lon="-1.59655">
        <ele>98</ele>
        <time>2022-01-27T15:59:42Z</time>
      </trkpt>
      <trkpt lat="47.28825" lon="-1.59654">
        <ele>99</ele>
        <time>2022-01-27T15:59:43Z</time>
      </trkpt>
      <trkpt lat="47.28824" lon="-1.59654">
        <ele>99</ele>
        <time>2022-01-27T15:59:44Z</time>
      </trkpt>
      <trkpt lat="47.28822" lon="-1.59653">
        <ele>99</ele>
        <time>2022-01-27T15:59:45Z</time>
      </trkpt>
      <trkpt lat="47.28821" lon="-1.59653">
        <ele>99</ele>
        <time>2022-01-27T15:59:46Z</time>
      </trkpt>
      <trkpt lat="47.28819" lon="-1.59653">
        <ele>98</ele>
        <time>2022-01-27T15:59:47Z</time>
      </trkpt>
      <trkpt lat="47.28818" lon="-1.59652">
        <ele>99</ele>
        <time>2022-01-27T15:59:48Z</time>
      </trkpt>
      <trkpt lat="47.28816" lon="-1.5965">
        <ele>98</ele>
        <time>2022-01-27T15:59:49Z</time>
      </trkpt>
      <trkpt lat="47.28815" lon="-1.5965">
        <ele>98</ele>
        <time>2022-01-27T15:59:50Z</time>
      </trkpt>
      <trkpt lat="47.28814" lon="-1.59648">
        <ele>98</ele>
        <time>2022-01-27T15:59:51Z</time>
      </trkpt>
      <trkpt lat="47.28812" lon="-1.59648">
        <ele>99</ele>
        <time>2022-01-27T15:59:52Z</time>
      </trkpt>
      <trkpt lat="47.2881" lon="-1.59647">
        <ele>99</ele>
        <time>2022-01-27T15:59:53Z</time>
      </trkpt>
      <trkpt lat="47.28809" lon="-1.59646">
        <ele>99</ele>
        <time>2022-01-27T15:59:54Z</time>
      </trkpt>
      <trkpt lat="47.28807" lon="-1.59646">
        <ele>99</ele>
        <time>2022-01-27T15:59:55Z</time>
      </trkpt>
      <trkpt lat="47.28806" lon="-1.59645">
        <ele>99</ele>
        <time>2022-01-27T15:59:56Z</time>
      </trkpt>
      <trkpt lat="47.28804" lon="-1.59644">
        <ele>99</ele>
        <time>2022-01-27T15:59:57Z</time>
      </trkpt>
      <trkpt lat="47.28803" lon="-1.59643">
        <ele>99</ele>
        <time>2022-01-27T15:59:58Z</time>
      </trkpt>
      <trkpt lat="47.28801" lon="-1.59642">
        <ele>99</ele>
        <time>2022-01-27T15:59:59Z</time>
      </trkpt>
      <trkpt lat="47.288" lon="-1.5964">
        <ele>99</ele>
        <time>2022-01-27T16:00:00Z</time>
      </trkpt>
      <trkpt lat="47.288" lon="-1.59639">
        <ele>99</ele>
        <time>2022-01-27T16:00:01Z</time>
      </trkpt>
      <trkpt lat="47.28798" lon="-1.59638">
        <ele>99</ele>
        <time>2022-01-27T16:00:02Z</time>
      </trkpt>
      <trkpt lat="47.28797" lon="-1.59637">
        <ele>99</ele>
        <time>2022-01-27T16:00:03Z</time>
      </trkpt>
      <trkpt lat="47.28796" lon="-1.59635">
        <ele>99</ele>
        <time>2022-01-27T16:00:04Z</time>
      </trkpt>
      <trkpt lat="47.28795" lon="-1.59633">
        <ele>99</ele>
        <time>2022-01-27T16:00:05Z</time>
      </trkpt>
      <trkpt lat="47.28793" lon="-1.59632">
        <ele>99</ele>
        <time>2022-01-27T16:00:06Z</time>
      </trkpt>
      <trkpt lat="47.28793" lon="-1.59632">
        <ele>99</ele>
        <time>2022-01-27T16:00:07Z</time>
      </trkpt>
      <trkpt lat="47.28791" lon="-1.59631">
        <ele>99</ele>
        <time>2022-01-27T16:00:08Z</time>
      </trkpt>
      <trkpt lat="47.2879" lon="-1.59629">
        <ele>99</ele>
        <time>2022-01-27T16:00:09Z</time>
      </trkpt>
      <trkpt lat="47.28789" lon="-1.59628">
        <ele>99</ele>
        <time>2022-01-27T16:00:10Z</time>
      </trkpt>
      <trkpt lat="47.28788" lon="-1.59627">
        <ele>99</ele>
        <time>2022-01-27T16:00:11Z</time>
      </trkpt>
      <trkpt lat="47.28787" lon="-1.59626">
        <ele>98</ele>
        <time>2022-01-27T16:00:12Z</time>
      </trkpt>
      <trkpt lat="47.28786" lon="-1.59625">
        <ele>98</ele>
        <time>2022-01-27T16:00:13Z</time>
      </trkpt>
      <trkpt lat="47.28785" lon="-1.59623">
        <ele>98</ele>
        <time>2022-01-27T16:00:14Z</time>
      </trkpt>
      <trkpt lat="47.28784" lon="-1.59622">
        <ele>99</ele>
        <time>2022-01-27T16:00:15Z</time>
      </trkpt>
      <trkpt lat="47.28783" lon="-1.59621">
        <ele>99</ele>
        <time>2022-01-27T16:00:16Z</time>
      </trkpt>
      <trkpt lat="47.28782" lon="-1.59619">
        <ele>99</ele>
        <time>2022-01-27T16:00:17Z</time>
      </trkpt>
      <trkpt lat="47.28781" lon="-1.59618">
        <ele>99</ele>
        <time>2022-01-27T16:00:18Z</time>
      </trkpt>
      <trkpt lat="47.2878" lon="-1.59617">
        <ele>98</ele>
        <time>2022-01-27T16:00:19Z</time>
      </trkpt>
      <trkpt lat="47.28779" lon="-1.59616">
        <ele>98</ele>
        <time>2022-01-27T16:00:20Z</time>
      </trkpt>
      <trkpt lat="47.28779" lon="-1.59615">
        <ele>98</ele>
        <time>2022-01-27T16:00:21Z</time>
      </trkpt>
      <trkpt lat="47.28777" lon="-1.59614">
        <ele>98</ele>
        <time>2022-01-27T16:00:22Z</time>
      </trkpt>
      <trkpt lat="47.28776" lon="-1.59613">
        <ele>98</ele>
        <time>2022-01-27T16:00:23Z</time>
      </trkpt>
      <trkpt lat="47.28775" lon="-1.59611">
        <ele>98</ele>
        <time>2022-01-27T16:00:24Z</time>
      </trkpt>
      <trkpt lat="47.28774" lon="-1.5961">
        <ele>98</ele>
        <time>2022-01-27T16:00:25Z</time>
      </trkpt>
      <trkpt lat="47.28773" lon="-1.59609">
        <ele>97</ele>
        <time>2022-01-27T16:00:26Z</time>
      </trkpt>
      <trkpt lat="47.28771" lon="-1.59608">
        <ele>97</ele>
        <time>2022-01-27T16:00:27Z</time>
      </trkpt>
      <trkpt lat="47.2877" lon="-1.59606">
        <ele>97</ele>
        <time>2022-01-27T16:00:28Z</time>
      </trkpt>
      <trkpt lat="47.28769" lon="-1.59605">
        <ele>97</ele>
        <time>2022-01-27T16:00:29Z</time>
      </trkpt>
      <trkpt lat="47.28767" lon="-1.59604">
        <ele>98</ele>
        <time>2022-01-27T16:00:30Z</time>
      </trkpt>
      <trkpt lat="47.28766" lon="-1.59603">
        <ele>98</ele>
        <time>2022-01-27T16:00:31Z</time>
      </trkpt>
      <trkpt lat="47.28766" lon="-1.59602">
        <ele>99</ele>
        <time>2022-01-27T16:00:32Z</time>
      </trkpt>
      <trkpt lat="47.28764" lon="-1.596">
        <ele>99</ele>
        <time>2022-01-27T16:00:33Z</time>
      </trkpt>
      <trkpt lat="47.28764" lon="-1.59599">
        <ele>99</ele>
        <time>2022-01-27T16:00:34Z</time>
      </trkpt>
      <trkpt lat="47.28763" lon="-1.59597">
        <ele>99</ele>
        <time>2022-01-27T16:00:35Z</time>
      </trkpt>
      <trkpt lat="47.28762" lon="-1.59595">
        <ele>99</ele>
        <time>2022-01-27T16:00:36Z</time>
      </trkpt>
      <trkpt lat="47.28761" lon="-1.59593">
        <ele>98</ele>
        <time>2022-01-27T16:00:37Z</time>
      </trkpt>
      <trkpt lat="47.28759" lon="-1.59592">
        <ele>98</ele>
        <time>2022-01-27T16:00:38Z</time>
      </trkpt>
      <trkpt lat="47.28758" lon="-1.59591">
        <ele>99</ele>
        <time>2022-01-27T16:00:39Z</time>
      </trkpt>
      <trkpt lat="47.28756" lon="-1.59589">
        <ele>99</ele>
        <time>2022-01-27T16:00:40Z</time>
      </trkpt>
      <trkpt lat="47.28756" lon="-1.59588">
        <ele>98</ele>
        <time>2022-01-27T16:00:41Z</time>
      </trkpt>
      <trkpt lat="47.28755" lon="-1.59586">
        <ele>99</ele>
        <time>2022-01-27T16:00:42Z</time>
      </trkpt>
      <trkpt lat="47.28753" lon="-1.59585">
        <ele>99</ele>
        <time>2022-01-27T16:00:43Z</time>
      </trkpt>
      <trkpt lat="47.28753" lon="-1.59583">
        <ele>99</ele>
        <time>2022-01-27T16:00:44Z</time>
      </trkpt>
      <trkpt lat="47.28751" lon="-1.59582">
        <ele>99</ele>
        <time>2022-01-27T16:00:45Z</time>
      </trkpt>
      <trkpt lat="47.2875" lon="-1.5958">
        <ele>99</ele>
        <time>2022-01-27T16:00:46Z</time>
      </trkpt>
      <trkpt lat="47.28749" lon="-1.59579">
        <ele>99</ele>
        <time>2022-01-27T16:00:47Z</time>
      </trkpt>
      <trkpt lat="47.28748" lon="-1.59578">
        <ele>99</ele>
        <time>2022-01-27T16:00:48Z</time>
      </trkpt>
      <trkpt lat="47.28747" lon="-1.59577">
        <ele>99</ele>
        <time>2022-01-27T16:00:49Z</time>
      </trkpt>
      <trkpt lat="47.28746" lon="-1.59576">
        <ele>98</ele>
        <time>2022-01-27T16:00:50Z</time>
      </trkpt>
      <trkpt lat="47.28745" lon="-1.59575">
        <ele>99</ele>
        <time>2022-01-27T16:00:51Z</time>
      </trkpt>
      <trkpt lat="47.28744" lon="-1.59574">
        <ele>99</ele>
        <time>2022-01-27T16:00:52Z</time>
      </trkpt>
      <trkpt lat="47.28743" lon="-1.59573">
        <ele>99</ele>
        <time>2022-01-27T16:00:53Z</time>
      </trkpt>
      <trkpt lat="47.28742" lon="-1.59572">
        <ele>99</ele>
        <time>2022-01-27T16:00:54Z</time>
      </trkpt>
      <trkpt lat="47.2874" lon="-1.5957">
        <ele>99</ele>
        <time>2022-01-27T16:00:55Z</time>
      </trkpt>
      <trkpt lat="47.28739" lon="-1.5957">
        <ele>99</ele>
        <time>2022-01-27T16:00:56Z</time>
      </trkpt>
      <trkpt lat="47.28738" lon="-1.59568">
        <ele>99</ele>
        <time>2022-01-27T16:00:57Z</time>
      </trkpt>
      <trkpt lat="47.28737" lon="-1.59568">
        <ele>99</ele>
        <time>2022-01-27T16:00:58Z</time>
      </trkpt>
      <trkpt lat="47.28735" lon="-1.59567">
        <ele>99</ele>
        <time>2022-01-27T16:00:59Z</time>
      </trkpt>
      <trkpt lat="47.28733" lon="-1.59566">
        <ele>99</ele>
        <time>2022-01-27T16:01:00Z</time>
      </trkpt>
      <trkpt lat="47.28732" lon="-1.59564">
        <ele>99</ele>
        <time>2022-01-27T16:01:01Z</time>
      </trkpt>
      <trkpt lat="47.28731" lon="-1.59563">
        <ele>99</ele>
        <time>2022-01-27T16:01:02Z</time>
      </trkpt>
      <trkpt lat="47.2873" lon="-1.59562">
        <ele>99</ele>
        <time>2022-01-27T16:01:03Z</time>
      </trkpt>
      <trkpt lat="47.28729" lon="-1.59561">
        <ele>99</ele>
        <time>2022-01-27T16:01:04Z</time>
      </trkpt>
      <trkpt lat="47.28728" lon="-1.5956">
        <ele>99</ele>
        <time>2022-01-27T16:01:05Z</time>
      </trkpt>
      <trkpt lat="47.28727" lon="-1.59558">
        <ele>99</ele>
        <time>2022-01-27T16:01:06Z</time>
      </trkpt>
      <trkpt lat="47.28726" lon="-1.59557">
        <ele>99</ele>
        <time>2022-01-27T16:01:07Z</time>
      </trkpt>
      <trkpt lat="47.28725" lon="-1.59556">
        <ele>99</ele>
        <time>2022-01-27T16:01:08Z</time>
      </trkpt>
      <trkpt lat="47.28724" lon="-1.59555">
        <ele>99</ele>
        <time>2022-01-27T16:01:09Z</time>
      </trkpt>
      <trkpt lat="47.28722" lon="-1.59554">
        <ele>100</ele>
        <time>2022-01-27T16:01:10Z</time>
      </trkpt>
      <trkpt lat="47.28721" lon="-1.59553">
        <ele>99</ele>
        <time>2022-01-27T16:01:11Z</time>
      </trkpt>
      <trkpt lat="47.2872" lon="-1.59551">
        <ele>99</ele>
        <time>2022-01-27T16:01:12Z</time>
      </trkpt>
      <trkpt lat="47.28719" lon="-1.5955">
        <ele>99</ele>
        <time>2022-01-27T16:01:13Z</time>
      </trkpt>
      <trkpt lat="47.28719" lon="-1.5955">
        <ele>99</ele>
        <time>2022-01-27T16:01:14Z</time>
      </trkpt>
      <trkpt lat="47.28718" lon="-1.59548">
        <ele>99</ele>
        <time>2022-01-27T16:01:15Z</time>
      </trkpt>
      <trkpt lat="47.28717" lon="-1.59547">
        <ele>99</ele>
        <time>2022-01-27T16:01:16Z</time>
      </trkpt>
      <trkpt lat="47.28715" lon="-1.59546">
        <ele>99</ele>
        <time>2022-01-27T16:01:17Z</time>
      </trkpt>
      <trkpt lat="47.28714" lon="-1.59545">
        <ele>99</ele>
        <time>2022-01-27T16:01:18Z</time>
      </trkpt>
      <trkpt lat="47.28713" lon="-1.59544">
        <ele>98</ele>
        <time>2022-01-27T16:01:19Z</time>
      </trkpt>
      <trkpt lat="47.28712" lon="-1.59543">
        <ele>98</ele>
        <time>2022-01-27T16:01:20Z</time>
      </trkpt>
      <trkpt lat="47.2871" lon="-1.59542">
        <ele>98</ele>
        <time>2022-01-27T16:01:21Z</time>
      </trkpt>
      <trkpt lat="47.28709" lon="-1.59541">
        <ele>97</ele>
        <time>2022-01-27T16:01:22Z</time>
      </trkpt>
      <trkpt lat="47.28708" lon="-1.5954">
        <ele>98</ele>
        <time>2022-01-27T16:01:23Z</time>
      </trkpt>
      <trkpt lat="47.28707" lon="-1.59539">
        <ele>97</ele>
        <time>2022-01-27T16:01:24Z</time>
      </trkpt>
      <trkpt lat="47.28706" lon="-1.59538">
        <ele>97</ele>
        <time>2022-01-27T16:01:25Z</time>
      </trkpt>
      <trkpt lat="47.28705" lon="-1.59537">
        <ele>96</ele>
        <time>2022-01-27T16:01:26Z</time>
      </trkpt>
      <trkpt lat="47.28704" lon="-1.59536">
        <ele>96</ele>
        <time>2022-01-27T16:01:27Z</time>
      </trkpt>
      <trkpt lat="47.28703" lon="-1.59536">
        <ele>97</ele>
        <time>2022-01-27T16:01:28Z</time>
      </trkpt>
      <trkpt lat="47.28701" lon="-1.59534">
        <ele>97</ele>
        <time>2022-01-27T16:01:29Z</time>
      </trkpt>
      <trkpt lat="47.28701" lon="-1.59533">
        <ele>97</ele>
        <time>2022-01-27T16:01:30Z</time>
      </trkpt>
      <trkpt lat="47.28699" lon="-1.59532">
        <ele>97</ele>
        <time>2022-01-27T16:01:31Z</time>
      </trkpt>
      <trkpt lat="47.28698" lon="-1.59532">
        <ele>97</ele>
        <time>2022-01-27T16:01:32Z</time>
      </trkpt>
      <trkpt lat="47.28696" lon="-1.59531">
        <ele>97</ele>
        <time>2022-01-27T16:01:33Z</time>
      </trkpt>
      <trkpt lat="47.28695" lon="-1.5953">
        <ele>97</ele>
        <time>2022-01-27T16:01:34Z</time>
      </trkpt>
      <trkpt lat="47.28693" lon="-1.59529">
        <ele>97</ele>
        <time>2022-01-27T16:01:35Z</time>
      </trkpt>
      <trkpt lat="47.28692" lon="-1.59528">
        <ele>97</ele>
        <time>2022-01-27T16:01:36Z</time>
      </trkpt>
      <trkpt lat="47.28691" lon="-1.59527">
        <ele>97</ele>
        <time>2022-01-27T16:01:37Z</time>
      </trkpt>
      <trkpt lat="47.28689" lon="-1.59526">
        <ele>97</ele>
        <time>2022-01-27T16:01:38Z</time>
      </trkpt>
      <trkpt lat="47.28688" lon="-1.59525">
        <ele>97</ele>
        <time>2022-01-27T16:01:39Z</time>
      </trkpt>
      <trkpt lat="47.28687" lon="-1.59525">
        <ele>97</ele>
        <time>2022-01-27T16:01:40Z</time>
      </trkpt>
      <trkpt lat="47.28685" lon="-1.59524">
        <ele>97</ele>
        <time>2022-01-27T16:01:41Z</time>
      </trkpt>
      <trkpt lat="47.28684" lon="-1.59523">
        <ele>97</ele>
        <time>2022-01-27T16:01:42Z</time>
      </trkpt>
      <trkpt lat="47.28682" lon="-1.59522">
        <ele>97</ele>
        <time>2022-01-27T16:01:43Z</time>
      </trkpt>
      <trkpt lat="47.28681" lon="-1.59521">
        <ele>98</ele>
        <time>2022-01-27T16:01:44Z</time>
      </trkpt>
      <trkpt lat="47.28679" lon="-1.5952">
        <ele>97</ele>
        <time>2022-01-27T16:01:45Z</time>
      </trkpt>
      <trkpt lat="47.28678" lon="-1.5952">
        <ele>97</ele>
        <time>2022-01-27T16:01:46Z</time>
      </trkpt>
      <trkpt lat="47.28676" lon="-1.5952">
        <ele>98</ele>
        <time>2022-01-27T16:01:47Z</time>
      </trkpt>
      <trkpt lat="47.28676" lon="-1.59519">
        <ele>98</ele>
        <time>2022-01-27T16:01:48Z</time>
      </trkpt>
      <trkpt lat="47.28674" lon="-1.59518">
        <ele>98</ele>
        <time>2022-01-27T16:01:49Z</time>
      </trkpt>
      <trkpt lat="47.28672" lon="-1.59517">
        <ele>99</ele>
        <time>2022-01-27T16:01:50Z</time>
      </trkpt>
      <trkpt lat="47.28671" lon="-1.59516">
        <ele>99</ele>
        <time>2022-01-27T16:01:51Z</time>
      </trkpt>
      <trkpt lat="47.2867" lon="-1.59516">
        <ele>99</ele>
        <time>2022-01-27T16:01:52Z</time>
      </trkpt>
      <trkpt lat="47.28669" lon="-1.59516">
        <ele>99</ele>
        <time>2022-01-27T16:01:53Z</time>
      </trkpt>
      <trkpt lat="47.28667" lon="-1.59515">
        <ele>99</ele>
        <time>2022-01-27T16:01:54Z</time>
      </trkpt>
      <trkpt lat="47.28666" lon="-1.59515">
        <ele>99</ele>
        <time>2022-01-27T16:01:55Z</time>
      </trkpt>
      <trkpt lat="47.28665" lon="-1.59514">
        <ele>99</ele>
        <time>2022-01-27T16:01:56Z</time>
      </trkpt>
      <trkpt lat="47.28664" lon="-1.59514">
        <ele>99</ele>
        <time>2022-01-27T16:01:57Z</time>
      </trkpt>
      <trkpt lat="47.28663" lon="-1.59513">
        <ele>99</ele>
        <time>2022-01-27T16:01:58Z</time>
      </trkpt>
      <trkpt lat="47.28661" lon="-1.59513">
        <ele>99</ele>
        <time>2022-01-27T16:01:59Z</time>
      </trkpt>
      <trkpt lat="47.2866" lon="-1.59513">
        <ele>99</ele>
        <time>2022-01-27T16:02:00Z</time>
      </trkpt>
      <trkpt lat="47.28658" lon="-1.59513">
        <ele>99</ele>
        <time>2022-01-27T16:02:01Z</time>
      </trkpt>
      <trkpt lat="47.28657" lon="-1.59513">
        <ele>99</ele>
        <time>2022-01-27T16:02:02Z</time>
      </trkpt>
      <trkpt lat="47.28656" lon="-1.59512">
        <ele>98</ele>
        <time>2022-01-27T16:02:03Z</time>
      </trkpt>
      <trkpt lat="47.28655" lon="-1.59512">
        <ele>98</ele>
        <time>2022-01-27T16:02:04Z</time>
      </trkpt>
      <trkpt lat="47.28655" lon="-1.59512">
        <ele>98</ele>
        <time>2022-01-27T16:02:05Z</time>
      </trkpt>
      <trkpt lat="47.28653" lon="-1.59512">
        <ele>98</ele>
        <time>2022-01-27T16:02:06Z</time>
      </trkpt>
      <trkpt lat="47.28652" lon="-1.59512">
        <ele>98</ele>
        <time>2022-01-27T16:02:07Z</time>
      </trkpt>
      <trkpt lat="47.28651" lon="-1.59511">
        <ele>97</ele>
        <time>2022-01-27T16:02:08Z</time>
      </trkpt>
      <trkpt lat="47.28649" lon="-1.5951">
        <ele>97</ele>
        <time>2022-01-27T16:02:09Z</time>
      </trkpt>
      <trkpt lat="47.28648" lon="-1.5951">
        <ele>97</ele>
        <time>2022-01-27T16:02:10Z</time>
      </trkpt>
      <trkpt lat="47.28647" lon="-1.5951">
        <ele>97</ele>
        <time>2022-01-27T16:02:11Z</time>
      </trkpt>
      <trkpt lat="47.28645" lon="-1.59509">
        <ele>97</ele>
        <time>2022-01-27T16:02:12Z</time>
      </trkpt>
      <trkpt lat="47.28644" lon="-1.59509">
        <ele>97</ele>
        <time>2022-01-27T16:02:13Z</time>
      </trkpt>
      <trkpt lat="47.28642" lon="-1.59509">
        <ele>97</ele>
        <time>2022-01-27T16:02:14Z</time>
      </trkpt>
      <trkpt lat="47.2864" lon="-1.59509">
        <ele>97</ele>
        <time>2022-01-27T16:02:15Z</time>
      </trkpt>
      <trkpt lat="47.28639" lon="-1.59508">
        <ele>97</ele>
        <time>2022-01-27T16:02:16Z</time>
      </trkpt>
      <trkpt lat="47.28638" lon="-1.59508">
        <ele>97</ele>
        <time>2022-01-27T16:02:17Z</time>
      </trkpt>
      <trkpt lat="47.28636" lon="-1.59508">
        <ele>97</ele>
        <time>2022-01-27T16:02:18Z</time>
      </trkpt>
      <trkpt lat="47.28635" lon="-1.59508">
        <ele>96</ele>
        <time>2022-01-27T16:02:19Z</time>
      </trkpt>
      <trkpt lat="47.28633" lon="-1.59508">
        <ele>96</ele>
        <time>2022-01-27T16:02:20Z</time>
      </trkpt>
      <trkpt lat="47.28632" lon="-1.59507">
        <ele>96</ele>
        <time>2022-01-27T16:02:21Z</time>
      </trkpt>
      <trkpt lat="47.2863" lon="-1.59507">
        <ele>96</ele>
        <time>2022-01-27T16:02:22Z</time>
      </trkpt>
      <trkpt lat="47.28629" lon="-1.59507">
        <ele>96</ele>
        <time>2022-01-27T16:02:23Z</time>
      </trkpt>
      <trkpt lat="47.28627" lon="-1.59507">
        <ele>97</ele>
        <time>2022-01-27T16:02:24Z</time>
      </trkpt>
      <trkpt lat="47.28626" lon="-1.59506">
        <ele>97</ele>
        <time>2022-01-27T16:02:25Z</time>
      </trkpt>
      <trkpt lat="47.28625" lon="-1.59506">
        <ele>97</ele>
        <time>2022-01-27T16:02:26Z</time>
      </trkpt>
      <trkpt lat="47.28623" lon="-1.59506">
        <ele>96</ele>
        <time>2022-01-27T16:02:27Z</time>
      </trkpt>
      <trkpt lat="47.28622" lon="-1.59505">
        <ele>96</ele>
        <time>2022-01-27T16:02:28Z</time>
      </trkpt>
      <trkpt lat="47.28621" lon="-1.59505">
        <ele>97</ele>
        <time>2022-01-27T16:02:29Z</time>
      </trkpt>
      <trkpt lat="47.2862" lon="-1.59504">
        <ele>97</ele>
        <time>2022-01-27T16:02:30Z</time>
      </trkpt>
      <trkpt lat="47.28619" lon="-1.59504">
        <ele>97</ele>
        <time>2022-01-27T16:02:31Z</time>
      </trkpt>
      <trkpt lat="47.28617" lon="-1.59504">
        <ele>97</ele>
        <time>2022-01-27T16:02:32Z</time>
      </trkpt>
      <trkpt lat="47.28616" lon="-1.59504">
        <ele>97</ele>
        <time>2022-01-27T16:02:33Z</time>
      </trkpt>
      <trkpt lat="47.28615" lon="-1.59503">
        <ele>97</ele>
        <time>2022-01-27T16:02:34Z</time>
      </trkpt>
      <trkpt lat="47.28614" lon="-1.59502">
        <ele>97</ele>
        <time>2022-01-27T16:02:35Z</time>
      </trkpt>
      <trkpt lat="47.28612" lon="-1.59502">
        <ele>96</ele>
        <time>2022-01-27T16:02:36Z</time>
      </trkpt>
      <trkpt lat="47.28611" lon="-1.59502">
        <ele>96</ele>
        <time>2022-01-27T16:02:37Z</time>
      </trkpt>
      <trkpt lat="47.28609" lon="-1.59501">
        <ele>96</ele>
        <time>2022-01-27T16:02:38Z</time>
      </trkpt>
      <trkpt lat="47.28608" lon="-1.59501">
        <ele>96</ele>
        <time>2022-01-27T16:02:39Z</time>
      </trkpt>
      <trkpt lat="47.28607" lon="-1.595">
        <ele>95</ele>
        <time>2022-01-27T16:02:40Z</time>
      </trkpt>
      <trkpt lat="47.28606" lon="-1.59499">
        <ele>95</ele>
        <time>2022-01-27T16:02:41Z</time>
      </trkpt>
      <trkpt lat="47.28604" lon="-1.59499">
        <ele>95</ele>
        <time>2022-01-27T16:02:42Z</time>
      </trkpt>
      <trkpt lat="47.28603" lon="-1.59498">
        <ele>96</ele>
        <time>2022-01-27T16:02:43Z</time>
      </trkpt>
      <trkpt lat="47.28602" lon="-1.59497">
        <ele>96</ele>
        <time>2022-01-27T16:02:44Z</time>
      </trkpt>
      <trkpt lat="47.286" lon="-1.59497">
        <ele>96</ele>
        <time>2022-01-27T16:02:45Z</time>
      </trkpt>
      <trkpt lat="47.28598" lon="-1.59496">
        <ele>95</ele>
        <time>2022-01-27T16:02:46Z</time>
      </trkpt>
      <trkpt lat="47.28597" lon="-1.59496">
        <ele>96</ele>
        <time>2022-01-27T16:02:47Z</time>
      </trkpt>
      <trkpt lat="47.28596" lon="-1.59496">
        <ele>95</ele>
        <time>2022-01-27T16:02:48Z</time>
      </trkpt>
      <trkpt lat="47.28594" lon="-1.59495">
        <ele>95</ele>
        <time>2022-01-27T16:02:49Z</time>
      </trkpt>
      <trkpt lat="47.28593" lon="-1.59495">
        <ele>96</ele>
        <time>2022-01-27T16:02:50Z</time>
      </trkpt>
      <trkpt lat="47.28592" lon="-1.59494">
        <ele>96</ele>
        <time>2022-01-27T16:02:51Z</time>
      </trkpt>
      <trkpt lat="47.2859" lon="-1.59494">
        <ele>95</ele>
        <time>2022-01-27T16:02:52Z</time>
      </trkpt>
      <trkpt lat="47.28589" lon="-1.59493">
        <ele>95</ele>
        <time>2022-01-27T16:02:53Z</time>
      </trkpt>
      <trkpt lat="47.28587" lon="-1.59493">
        <ele>95</ele>
        <time>2022-01-27T16:02:54Z</time>
      </trkpt>
      <trkpt lat="47.28586" lon="-1.59493">
        <ele>95</ele>
        <time>2022-01-27T16:02:55Z</time>
      </trkpt>
      <trkpt lat="47.28585" lon="-1.59493">
        <ele>95</ele>
        <time>2022-01-27T16:02:56Z</time>
      </trkpt>
      <trkpt lat="47.28584" lon="-1.59492">
        <ele>95</ele>
        <time>2022-01-27T16:02:57Z</time>
      </trkpt>
      <trkpt lat="47.28583" lon="-1.59492">
        <ele>95</ele>
        <time>2022-01-27T16:02:58Z</time>
      </trkpt>
      <trkpt lat="47.28582" lon="-1.59492">
        <ele>95</ele>
        <time>2022-01-27T16:02:59Z</time>
      </trkpt>
      <trkpt lat="47.28581" lon="-1.59492">
        <ele>95</ele>
        <time>2022-01-27T16:03:00Z</time>
      </trkpt>
      <trkpt lat="47.28579" lon="-1.59491">
        <ele>96</ele>
        <time>2022-01-27T16:03:01Z</time>
      </trkpt>
      <trkpt lat="47.28578" lon="-1.59491">
        <ele>96</ele>
        <time>2022-01-27T16:03:02Z</time>
      </trkpt>
      <trkpt lat="47.28577" lon="-1.59491">
        <ele>96</ele>
        <time>2022-01-27T16:03:03Z</time>
      </trkpt>
      <trkpt lat="47.28576" lon="-1.59491">
        <ele>96</ele>
        <time>2022-01-27T16:03:04Z</time>
      </trkpt>
      <trkpt lat="47.28574" lon="-1.59491">
        <ele>96</ele>
        <time>2022-01-27T16:03:05Z</time>
      </trkpt>
      <trkpt lat="47.28573" lon="-1.59491">
        <ele>96</ele>
        <time>2022-01-27T16:03:06Z</time>
      </trkpt>
      <trkpt lat="47.28572" lon="-1.5949">
        <ele>96</ele>
        <time>2022-01-27T16:03:07Z</time>
      </trkpt>
      <trkpt lat="47.2857" lon="-1.5949">
        <ele>96</ele>
        <time>2022-01-27T16:03:08Z</time>
      </trkpt>
      <trkpt lat="47.28569" lon="-1.5949">
        <ele>96</ele>
        <time>2022-01-27T16:03:09Z</time>
      </trkpt>
      <trkpt lat="47.28568" lon="-1.59489">
        <ele>96</ele>
        <time>2022-01-27T16:03:10Z</time>
      </trkpt>
      <trkpt lat="47.28566" lon="-1.59489">
        <ele>97</ele>
        <time>2022-01-27T16:03:11Z</time>
      </trkpt>
      <trkpt lat="47.28565" lon="-1.59488">
        <ele>97</ele>
        <time>2022-01-27T16:03:12Z</time>
      </trkpt>
      <trkpt lat="47.28563" lon="-1.59487">
        <ele>98</ele>
        <time>2022-01-27T16:03:13Z</time>
      </trkpt>
      <trkpt lat="47.28561" lon="-1.59486">
        <ele>98</ele>
        <time>2022-01-27T16:03:14Z</time>
      </trkpt>
      <trkpt lat="47.28559" lon="-1.59486">
        <ele>98</ele>
        <time>2022-01-27T16:03:15Z</time>
      </trkpt>
      <trkpt lat="47.28558" lon="-1.59485">
        <ele>98</ele>
        <time>2022-01-27T16:03:16Z</time>
      </trkpt>
      <trkpt lat="47.28557" lon="-1.59485">
        <ele>98</ele>
        <time>2022-01-27T16:03:17Z</time>
      </trkpt>
      <trkpt lat="47.28556" lon="-1.59485">
        <ele>98</ele>
        <time>2022-01-27T16:03:18Z</time>
      </trkpt>
      <trkpt lat="47.28555" lon="-1.59485">
        <ele>98</ele>
        <time>2022-01-27T16:03:19Z</time>
      </trkpt>
      <trkpt lat="47.28553" lon="-1.59485">
        <ele>98</ele>
        <time>2022-01-27T16:03:20Z</time>
      </trkpt>
      <trkpt lat="47.28552" lon="-1.59484">
        <ele>97</ele>
        <time>2022-01-27T16:03:21Z</time>
      </trkpt>
      <trkpt lat="47.2855" lon="-1.59484">
        <ele>97</ele>
        <time>2022-01-27T16:03:22Z</time>
      </trkpt>
      <trkpt lat="47.28548" lon="-1.59483">
        <ele>97</ele>
        <time>2022-01-27T16:03:23Z</time>
      </trkpt>
      <trkpt lat="47.28548" lon="-1.59483">
        <ele>97</ele>
        <time>2022-01-27T16:03:24Z</time>
      </trkpt>
      <trkpt lat="47.28547" lon="-1.59482">
        <ele>97</ele>
        <time>2022-01-27T16:03:25Z</time>
      </trkpt>
      <trkpt lat="47.28545" lon="-1.59482">
        <ele>96</ele>
        <time>2022-01-27T16:03:26Z</time>
      </trkpt>
      <trkpt lat="47.28544" lon="-1.59481">
        <ele>96</ele>
        <time>2022-01-27T16:03:27Z</time>
      </trkpt>
      <trkpt lat="47.28542" lon="-1.5948">
        <ele>96</ele>
        <time>2022-01-27T16:03:28Z</time>
      </trkpt>
      <trkpt lat="47.28541" lon="-1.5948">
        <ele>95</ele>
        <time>2022-01-27T16:03:29Z</time>
      </trkpt>
      <trkpt lat="47.2854" lon="-1.5948">
        <ele>95</ele>
        <time>2022-01-27T16:03:30Z</time>
      </trkpt>
      <trkpt lat="47.28538" lon="-1.59479">
        <ele>95</ele>
        <time>2022-01-27T16:03:31Z</time>
      </trkpt>
      <trkpt lat="47.28536" lon="-1.59479">
        <ele>94</ele>
        <time>2022-01-27T16:03:32Z</time>
      </trkpt>
      <trkpt lat="47.28535" lon="-1.59479">
        <ele>94</ele>
        <time>2022-01-27T16:03:33Z</time>
      </trkpt>
      <trkpt lat="47.28533" lon="-1.59479">
        <ele>94</ele>
        <time>2022-01-27T16:03:34Z</time>
      </trkpt>
      <trkpt lat="47.28532" lon="-1.59478">
        <ele>94</ele>
        <time>2022-01-27T16:03:35Z</time>
      </trkpt>
      <trkpt lat="47.2853" lon="-1.59477">
        <ele>94</ele>
        <time>2022-01-27T16:03:36Z</time>
      </trkpt>
      <trkpt lat="47.28529" lon="-1.59477">
        <ele>94</ele>
        <time>2022-01-27T16:03:37Z</time>
      </trkpt>
      <trkpt lat="47.28528" lon="-1.59476">
        <ele>94</ele>
        <time>2022-01-27T16:03:38Z</time>
      </trkpt>
      <trkpt lat="47.28526" lon="-1.59476">
        <ele>94</ele>
        <time>2022-01-27T16:03:39Z</time>
      </trkpt>
      <trkpt lat="47.28525" lon="-1.59475">
        <ele>93</ele>
        <time>2022-01-27T16:03:40Z</time>
      </trkpt>
      <trkpt lat="47.28523" lon="-1.59475">
        <ele>93</ele>
        <time>2022-01-27T16:03:41Z</time>
      </trkpt>
      <trkpt lat="47.28522" lon="-1.59474">
        <ele>93</ele>
        <time>2022-01-27T16:03:42Z</time>
      </trkpt>
      <trkpt lat="47.2852" lon="-1.59473">
        <ele>93</ele>
        <time>2022-01-27T16:03:43Z</time>
      </trkpt>
      <trkpt lat="47.28518" lon="-1.59473">
        <ele>93</ele>
        <time>2022-01-27T16:03:44Z</time>
      </trkpt>
      <trkpt lat="47.28517" lon="-1.59473">
        <ele>93</ele>
        <time>2022-01-27T16:03:45Z</time>
      </trkpt>
      <trkpt lat="47.28516" lon="-1.59473">
        <ele>93</ele>
        <time>2022-01-27T16:03:46Z</time>
      </trkpt>
      <trkpt lat="47.28515" lon="-1.59472">
        <ele>93</ele>
        <time>2022-01-27T16:03:47Z</time>
      </trkpt>
      <trkpt lat="47.28513" lon="-1.59472">
        <ele>93</ele>
        <time>2022-01-27T16:03:48Z</time>
      </trkpt>
      <trkpt lat="47.28512" lon="-1.59471">
        <ele>93</ele>
        <time>2022-01-27T16:03:49Z</time>
      </trkpt>
      <trkpt lat="47.2851" lon="-1.59471">
        <ele>92</ele>
        <time>2022-01-27T16:03:50Z</time>
      </trkpt>
      <trkpt lat="47.28509" lon="-1.59471">
        <ele>93</ele>
        <time>2022-01-27T16:03:51Z</time>
      </trkpt>
      <trkpt lat="47.28508" lon="-1.59471">
        <ele>93</ele>
        <time>2022-01-27T16:03:52Z</time>
      </trkpt>
      <trkpt lat="47.28507" lon="-1.59471">
        <ele>93</ele>
        <time>2022-01-27T16:03:53Z</time>
      </trkpt>
      <trkpt lat="47.28505" lon="-1.59471">
        <ele>93</ele>
        <time>2022-01-27T16:03:54Z</time>
      </trkpt>
      <trkpt lat="47.28504" lon="-1.59471">
        <ele>93</ele>
        <time>2022-01-27T16:03:55Z</time>
      </trkpt>
      <trkpt lat="47.28502" lon="-1.5947">
        <ele>93</ele>
        <time>2022-01-27T16:03:56Z</time>
      </trkpt>
      <trkpt lat="47.28501" lon="-1.5947">
        <ele>93</ele>
        <time>2022-01-27T16:03:57Z</time>
      </trkpt>
      <trkpt lat="47.285" lon="-1.5947">
        <ele>93</ele>
        <time>2022-01-27T16:03:58Z</time>
      </trkpt>
      <trkpt lat="47.28499" lon="-1.59469">
        <ele>93</ele>
        <time>2022-01-27T16:03:59Z</time>
      </trkpt>
      <trkpt lat="47.28498" lon="-1.59469">
        <ele>94</ele>
        <time>2022-01-27T16:04:00Z</time>
      </trkpt>
      <trkpt lat="47.28497" lon="-1.59469">
        <ele>93</ele>
        <time>2022-01-27T16:04:01Z</time>
      </trkpt>
      <trkpt lat="47.28495" lon="-1.59469">
        <ele>93</ele>
        <time>2022-01-27T16:04:02Z</time>
      </trkpt>
      <trkpt lat="47.28495" lon="-1.59468">
        <ele>93</ele>
        <time>2022-01-27T16:04:03Z</time>
      </trkpt>
      <trkpt lat="47.28494" lon="-1.59468">
        <ele>93</ele>
        <time>2022-01-27T16:04:04Z</time>
      </trkpt>
      <trkpt lat="47.28492" lon="-1.59468">
        <ele>93</ele>
        <time>2022-01-27T16:04:05Z</time>
      </trkpt>
      <trkpt lat="47.28491" lon="-1.59467">
        <ele>93</ele>
        <time>2022-01-27T16:04:06Z</time>
      </trkpt>
      <trkpt lat="47.28489" lon="-1.59467">
        <ele>93</ele>
        <time>2022-01-27T16:04:07Z</time>
      </trkpt>
      <trkpt lat="47.28488" lon="-1.59467">
        <ele>94</ele>
        <time>2022-01-27T16:04:08Z</time>
      </trkpt>
      <trkpt lat="47.28487" lon="-1.59466">
        <ele>94</ele>
        <time>2022-01-27T16:04:09Z</time>
      </trkpt>
      <trkpt lat="47.28486" lon="-1.59466">
        <ele>93</ele>
        <time>2022-01-27T16:04:10Z</time>
      </trkpt>
      <trkpt lat="47.28484" lon="-1.59465">
        <ele>94</ele>
        <time>2022-01-27T16:04:11Z</time>
      </trkpt>
      <trkpt lat="47.28483" lon="-1.59465">
        <ele>94</ele>
        <time>2022-01-27T16:04:12Z</time>
      </trkpt>
      <trkpt lat="47.28481" lon="-1.59464">
        <ele>93</ele>
        <time>2022-01-27T16:04:13Z</time>
      </trkpt>
      <trkpt lat="47.2848" lon="-1.59464">
        <ele>93</ele>
        <time>2022-01-27T16:04:14Z</time>
      </trkpt>
      <trkpt lat="47.28478" lon="-1.59463">
        <ele>93</ele>
        <time>2022-01-27T16:04:15Z</time>
      </trkpt>
      <trkpt lat="47.28477" lon="-1.59463">
        <ele>93</ele>
        <time>2022-01-27T16:04:16Z</time>
      </trkpt>
      <trkpt lat="47.28476" lon="-1.59462">
        <ele>93</ele>
        <time>2022-01-27T16:04:17Z</time>
      </trkpt>
      <trkpt lat="47.28474" lon="-1.59462">
        <ele>93</ele>
        <time>2022-01-27T16:04:18Z</time>
      </trkpt>
      <trkpt lat="47.28473" lon="-1.59462">
        <ele>93</ele>
        <time>2022-01-27T16:04:19Z</time>
      </trkpt>
      <trkpt lat="47.28472" lon="-1.59462">
        <ele>93</ele>
        <time>2022-01-27T16:04:20Z</time>
      </trkpt>
      <trkpt lat="47.28471" lon="-1.59461">
        <ele>92</ele>
        <time>2022-01-27T16:04:21Z</time>
      </trkpt>
      <trkpt lat="47.28469" lon="-1.59461">
        <ele>92</ele>
        <time>2022-01-27T16:04:22Z</time>
      </trkpt>
      <trkpt lat="47.28468" lon="-1.5946">
        <ele>92</ele>
        <time>2022-01-27T16:04:23Z</time>
      </trkpt>
      <trkpt lat="47.28466" lon="-1.59459">
        <ele>92</ele>
        <time>2022-01-27T16:04:24Z</time>
      </trkpt>
      <trkpt lat="47.28465" lon="-1.59459">
        <ele>92</ele>
        <time>2022-01-27T16:04:25Z</time>
      </trkpt>
      <trkpt lat="47.28463" lon="-1.59459">
        <ele>92</ele>
        <time>2022-01-27T16:04:26Z</time>
      </trkpt>
      <trkpt lat="47.28462" lon="-1.59459">
        <ele>93</ele>
        <time>2022-01-27T16:04:27Z</time>
      </trkpt>
      <trkpt lat="47.28461" lon="-1.59458">
        <ele>92</ele>
        <time>2022-01-27T16:04:28Z</time>
      </trkpt>
      <trkpt lat="47.2846" lon="-1.59458">
        <ele>92</ele>
        <time>2022-01-27T16:04:29Z</time>
      </trkpt>
      <trkpt lat="47.28459" lon="-1.59458">
        <ele>92</ele>
        <time>2022-01-27T16:04:30Z</time>
      </trkpt>
      <trkpt lat="47.28458" lon="-1.59457">
        <ele>92</ele>
        <time>2022-01-27T16:04:31Z</time>
      </trkpt>
      <trkpt lat="47.28457" lon="-1.59458">
        <ele>93</ele>
        <time>2022-01-27T16:04:32Z</time>
      </trkpt>
      <trkpt lat="47.28455" lon="-1.59457">
        <ele>92</ele>
        <time>2022-01-27T16:04:33Z</time>
      </trkpt>
      <trkpt lat="47.28454" lon="-1.59457">
        <ele>92</ele>
        <time>2022-01-27T16:04:34Z</time>
      </trkpt>
      <trkpt lat="47.28453" lon="-1.59457">
        <ele>93</ele>
        <time>2022-01-27T16:04:35Z</time>
      </trkpt>
      <trkpt lat="47.28452" lon="-1.59457">
        <ele>92</ele>
        <time>2022-01-27T16:04:36Z</time>
      </trkpt>
      <trkpt lat="47.28451" lon="-1.59456">
        <ele>92</ele>
        <time>2022-01-27T16:04:37Z</time>
      </trkpt>
      <trkpt lat="47.2845" lon="-1.59455">
        <ele>92</ele>
        <time>2022-01-27T16:04:38Z</time>
      </trkpt>
      <trkpt lat="47.28449" lon="-1.59456">
        <ele>92</ele>
        <time>2022-01-27T16:04:39Z</time>
      </trkpt>
      <trkpt lat="47.28447" lon="-1.59456">
        <ele>92</ele>
        <time>2022-01-27T16:04:40Z</time>
      </trkpt>
      <trkpt lat="47.28446" lon="-1.59456">
        <ele>93</ele>
        <time>2022-01-27T16:04:41Z</time>
      </trkpt>
      <trkpt lat="47.28445" lon="-1.59457">
        <ele>93</ele>
        <time>2022-01-27T16:04:42Z</time>
      </trkpt>
      <trkpt lat="47.28443" lon="-1.59457">
        <ele>93</ele>
        <time>2022-01-27T16:04:43Z</time>
      </trkpt>
      <trkpt lat="47.28442" lon="-1.59457">
        <ele>92</ele>
        <time>2022-01-27T16:04:44Z</time>
      </trkpt>
      <trkpt lat="47.28441" lon="-1.59456">
        <ele>92</ele>
        <time>2022-01-27T16:04:45Z</time>
      </trkpt>
      <trkpt lat="47.2844" lon="-1.59456">
        <ele>92</ele>
        <time>2022-01-27T16:04:46Z</time>
      </trkpt>
      <trkpt lat="47.28439" lon="-1.59455">
        <ele>93</ele>
        <time>2022-01-27T16:04:47Z</time>
      </trkpt>
      <trkpt lat="47.28438" lon="-1.59455">
        <ele>92</ele>
        <time>2022-01-27T16:04:48Z</time>
      </trkpt>
      <trkpt lat="47.28436" lon="-1.59455">
        <ele>92</ele>
        <time>2022-01-27T16:04:49Z</time>
      </trkpt>
      <trkpt lat="47.28436" lon="-1.59455">
        <ele>92</ele>
        <time>2022-01-27T16:04:50Z</time>
      </trkpt>
      <trkpt lat="47.28434" lon="-1.59454">
        <ele>92</ele>
        <time>2022-01-27T16:04:51Z</time>
      </trkpt>
      <trkpt lat="47.28433" lon="-1.59454">
        <ele>92</ele>
        <time>2022-01-27T16:04:52Z</time>
      </trkpt>
      <trkpt lat="47.28432" lon="-1.59454">
        <ele>92</ele>
        <time>2022-01-27T16:04:53Z</time>
      </trkpt>
      <trkpt lat="47.28431" lon="-1.59453">
        <ele>92</ele>
        <time>2022-01-27T16:04:54Z</time>
      </trkpt>
      <trkpt lat="47.28429" lon="-1.59453">
        <ele>93</ele>
        <time>2022-01-27T16:04:55Z</time>
      </trkpt>
      <trkpt lat="47.28428" lon="-1.59453">
        <ele>93</ele>
        <time>2022-01-27T16:04:56Z</time>
      </trkpt>
      <trkpt lat="47.28427" lon="-1.59453">
        <ele>93</ele>
        <time>2022-01-27T16:04:57Z</time>
      </trkpt>
      <trkpt lat="47.28426" lon="-1.59452">
        <ele>93</ele>
        <time>2022-01-27T16:04:58Z</time>
      </trkpt>
      <trkpt lat="47.28424" lon="-1.59452">
        <ele>93</ele>
        <time>2022-01-27T16:04:59Z</time>
      </trkpt>
      <trkpt lat="47.28422" lon="-1.59452">
        <ele>93</ele>
        <time>2022-01-27T16:05:00Z</time>
      </trkpt>
      <trkpt lat="47.28421" lon="-1.59452">
        <ele>93</ele>
        <time>2022-01-27T16:05:01Z</time>
      </trkpt>
      <trkpt lat="47.2842" lon="-1.59453">
        <ele>92</ele>
        <time>2022-01-27T16:05:02Z</time>
      </trkpt>
      <trkpt lat="47.28418" lon="-1.59452">
        <ele>92</ele>
        <time>2022-01-27T16:05:03Z</time>
      </trkpt>
      <trkpt lat="47.28417" lon="-1.59451">
        <ele>93</ele>
        <time>2022-01-27T16:05:04Z</time>
      </trkpt>
      <trkpt lat="47.28416" lon="-1.5945">
        <ele>93</ele>
        <time>2022-01-27T16:05:05Z</time>
      </trkpt>
      <trkpt lat="47.28415" lon="-1.5945">
        <ele>93</ele>
        <time>2022-01-27T16:05:06Z</time>
      </trkpt>
      <trkpt lat="47.28413" lon="-1.5945">
        <ele>93</ele>
        <time>2022-01-27T16:05:07Z</time>
      </trkpt>
      <trkpt lat="47.28412" lon="-1.59449">
        <ele>92</ele>
        <time>2022-01-27T16:05:08Z</time>
      </trkpt>
      <trkpt lat="47.28411" lon="-1.59449">
        <ele>92</ele>
        <time>2022-01-27T16:05:09Z</time>
      </trkpt>
      <trkpt lat="47.2841" lon="-1.59449">
        <ele>92</ele>
        <time>2022-01-27T16:05:10Z</time>
      </trkpt>
      <trkpt lat="47.28408" lon="-1.59449">
        <ele>92</ele>
        <time>2022-01-27T16:05:11Z</time>
      </trkpt>
      <trkpt lat="47.28407" lon="-1.59448">
        <ele>91</ele>
        <time>2022-01-27T16:05:12Z</time>
      </trkpt>
      <trkpt lat="47.28406" lon="-1.59448">
        <ele>92</ele>
        <time>2022-01-27T16:05:13Z</time>
      </trkpt>
      <trkpt lat="47.28405" lon="-1.59447">
        <ele>92</ele>
        <time>2022-01-27T16:05:14Z</time>
      </trkpt>
      <trkpt lat="47.28403" lon="-1.59447">
        <ele>92</ele>
        <time>2022-01-27T16:05:15Z</time>
      </trkpt>
      <trkpt lat="47.28402" lon="-1.59447">
        <ele>93</ele>
        <time>2022-01-27T16:05:16Z</time>
      </trkpt>
      <trkpt lat="47.284" lon="-1.59447">
        <ele>93</ele>
        <time>2022-01-27T16:05:17Z</time>
      </trkpt>
      <trkpt lat="47.28397" lon="-1.59446">
        <ele>93</ele>
        <time>2022-01-27T16:05:18Z</time>
      </trkpt>
      <trkpt lat="47.28396" lon="-1.59446">
        <ele>93</ele>
        <time>2022-01-27T16:05:19Z</time>
      </trkpt>
      <trkpt lat="47.28395" lon="-1.59445">
        <ele>94</ele>
        <time>2022-01-27T16:05:20Z</time>
      </trkpt>
      <trkpt lat="47.28394" lon="-1.59445">
        <ele>94</ele>
        <time>2022-01-27T16:05:21Z</time>
      </trkpt>
      <trkpt lat="47.28392" lon="-1.59445">
        <ele>94</ele>
        <time>2022-01-27T16:05:22Z</time>
      </trkpt>
      <trkpt lat="47.28391" lon="-1.59445">
        <ele>94</ele>
        <time>2022-01-27T16:05:23Z</time>
      </trkpt>
      <trkpt lat="47.28389" lon="-1.59444">
        <ele>94</ele>
        <time>2022-01-27T16:05:24Z</time>
      </trkpt>
      <trkpt lat="47.28388" lon="-1.59444">
        <ele>94</ele>
        <time>2022-01-27T16:05:25Z</time>
      </trkpt>
      <trkpt lat="47.28386" lon="-1.59444">
        <ele>94</ele>
        <time>2022-01-27T16:05:26Z</time>
      </trkpt>
      <trkpt lat="47.28384" lon="-1.59443">
        <ele>95</ele>
        <time>2022-01-27T16:05:27Z</time>
      </trkpt>
      <trkpt lat="47.28383" lon="-1.59443">
        <ele>95</ele>
        <time>2022-01-27T16:05:28Z</time>
      </trkpt>
      <trkpt lat="47.28381" lon="-1.59442">
        <ele>94</ele>
        <time>2022-01-27T16:05:29Z</time>
      </trkpt>
      <trkpt lat="47.2838" lon="-1.59442">
        <ele>95</ele>
        <time>2022-01-27T16:05:30Z</time>
      </trkpt>
      <trkpt lat="47.28379" lon="-1.59441">
        <ele>95</ele>
        <time>2022-01-27T16:05:31Z</time>
      </trkpt>
      <trkpt lat="47.28378" lon="-1.59441">
        <ele>95</ele>
        <time>2022-01-27T16:05:32Z</time>
      </trkpt>
      <trkpt lat="47.28377" lon="-1.59439">
        <ele>95</ele>
        <time>2022-01-27T16:05:33Z</time>
      </trkpt>
      <trkpt lat="47.28376" lon="-1.59439">
        <ele>95</ele>
        <time>2022-01-27T16:05:34Z</time>
      </trkpt>
      <trkpt lat="47.28374" lon="-1.59439">
        <ele>95</ele>
        <time>2022-01-27T16:05:35Z</time>
      </trkpt>
      <trkpt lat="47.28373" lon="-1.59439">
        <ele>95</ele>
        <time>2022-01-27T16:05:36Z</time>
      </trkpt>
      <trkpt lat="47.28371" lon="-1.59438">
        <ele>95</ele>
        <time>2022-01-27T16:05:37Z</time>
      </trkpt>
      <trkpt lat="47.2837" lon="-1.59438">
        <ele>95</ele>
        <time>2022-01-27T16:05:38Z</time>
      </trkpt>
      <trkpt lat="47.28369" lon="-1.59438">
        <ele>95</ele>
        <time>2022-01-27T16:05:39Z</time>
      </trkpt>
      <trkpt lat="47.28368" lon="-1.59437">
        <ele>95</ele>
        <time>2022-01-27T16:05:40Z</time>
      </trkpt>
      <trkpt lat="47.28367" lon="-1.59437">
        <ele>94</ele>
        <time>2022-01-27T16:05:41Z</time>
      </trkpt>
      <trkpt lat="47.28365" lon="-1.59437">
        <ele>94</ele>
        <time>2022-01-27T16:05:42Z</time>
      </trkpt>
      <trkpt lat="47.28364" lon="-1.59436">
        <ele>94</ele>
        <time>2022-01-27T16:05:43Z</time>
      </trkpt>
      <trkpt lat="47.28363" lon="-1.59436">
        <ele>94</ele>
        <time>2022-01-27T16:05:44Z</time>
      </trkpt>
      <trkpt lat="47.28362" lon="-1.59435">
        <ele>94</ele>
        <time>2022-01-27T16:05:45Z</time>
      </trkpt>
      <trkpt lat="47.2836" lon="-1.59435">
        <ele>94</ele>
        <time>2022-01-27T16:05:46Z</time>
      </trkpt>
      <trkpt lat="47.28359" lon="-1.59435">
        <ele>95</ele>
        <time>2022-01-27T16:05:47Z</time>
      </trkpt>
      <trkpt lat="47.28357" lon="-1.59435">
        <ele>95</ele>
        <time>2022-01-27T16:05:48Z</time>
      </trkpt>
      <trkpt lat="47.28356" lon="-1.59435">
        <ele>96</ele>
        <time>2022-01-27T16:05:49Z</time>
      </trkpt>
      <trkpt lat="47.28355" lon="-1.59434">
        <ele>96</ele>
        <time>2022-01-27T16:05:50Z</time>
      </trkpt>
      <trkpt lat="47.28353" lon="-1.59434">
        <ele>96</ele>
        <time>2022-01-27T16:05:51Z</time>
      </trkpt>
      <trkpt lat="47.28352" lon="-1.59433">
        <ele>96</ele>
        <time>2022-01-27T16:05:52Z</time>
      </trkpt>
      <trkpt lat="47.2835" lon="-1.59433">
        <ele>96</ele>
        <time>2022-01-27T16:05:53Z</time>
      </trkpt>
      <trkpt lat="47.28349" lon="-1.59432">
        <ele>96</ele>
        <time>2022-01-27T16:05:54Z</time>
      </trkpt>
      <trkpt lat="47.28348" lon="-1.59432">
        <ele>97</ele>
        <time>2022-01-27T16:05:55Z</time>
      </trkpt>
      <trkpt lat="47.28347" lon="-1.59431">
        <ele>97</ele>
        <time>2022-01-27T16:05:56Z</time>
      </trkpt>
      <trkpt lat="47.28346" lon="-1.59431">
        <ele>97</ele>
        <time>2022-01-27T16:05:57Z</time>
      </trkpt>
      <trkpt lat="47.28345" lon="-1.5943">
        <ele>97</ele>
        <time>2022-01-27T16:05:58Z</time>
      </trkpt>
      <trkpt lat="47.28344" lon="-1.5943">
        <ele>97</ele>
        <time>2022-01-27T16:05:59Z</time>
      </trkpt>
      <trkpt lat="47.28342" lon="-1.59429">
        <ele>97</ele>
        <time>2022-01-27T16:06:00Z</time>
      </trkpt>
      <trkpt lat="47.28341" lon="-1.59429">
        <ele>97</ele>
        <time>2022-01-27T16:06:01Z</time>
      </trkpt>
      <trkpt lat="47.28339" lon="-1.59428">
        <ele>97</ele>
        <time>2022-01-27T16:06:02Z</time>
      </trkpt>
      <trkpt lat="47.28338" lon="-1.59427">
        <ele>97</ele>
        <time>2022-01-27T16:06:03Z</time>
      </trkpt>
      <trkpt lat="47.28336" lon="-1.59427">
        <ele>97</ele>
        <time>2022-01-27T16:06:04Z</time>
      </trkpt>
      <trkpt lat="47.28335" lon="-1.59427">
        <ele>97</ele>
        <time>2022-01-27T16:06:05Z</time>
      </trkpt>
      <trkpt lat="47.28333" lon="-1.59427">
        <ele>97</ele>
        <time>2022-01-27T16:06:06Z</time>
      </trkpt>
      <trkpt lat="47.28331" lon="-1.59427">
        <ele>97</ele>
        <time>2022-01-27T16:06:07Z</time>
      </trkpt>
      <trkpt lat="47.2833" lon="-1.59427">
        <ele>98</ele>
        <time>2022-01-27T16:06:08Z</time>
      </trkpt>
      <trkpt lat="47.28328" lon="-1.59427">
        <ele>97</ele>
        <time>2022-01-27T16:06:09Z</time>
      </trkpt>
      <trkpt lat="47.28326" lon="-1.59427">
        <ele>97</ele>
        <time>2022-01-27T16:06:10Z</time>
      </trkpt>
      <trkpt lat="47.28325" lon="-1.59427">
        <ele>98</ele>
        <time>2022-01-27T16:06:11Z</time>
      </trkpt>
      <trkpt lat="47.28323" lon="-1.59426">
        <ele>98</ele>
        <time>2022-01-27T16:06:12Z</time>
      </trkpt>
      <trkpt lat="47.28323" lon="-1.59426">
        <ele>98</ele>
        <time>2022-01-27T16:06:13Z</time>
      </trkpt>
      <trkpt lat="47.28321" lon="-1.59425">
        <ele>97</ele>
        <time>2022-01-27T16:06:14Z</time>
      </trkpt>
      <trkpt lat="47.2832" lon="-1.59424">
        <ele>97</ele>
        <time>2022-01-27T16:06:15Z</time>
      </trkpt>
      <trkpt lat="47.28319" lon="-1.59424">
        <ele>96</ele>
        <time>2022-01-27T16:06:16Z</time>
      </trkpt>
      <trkpt lat="47.28318" lon="-1.59423">
        <ele>96</ele>
        <time>2022-01-27T16:06:17Z</time>
      </trkpt>
      <trkpt lat="47.28317" lon="-1.59422">
        <ele>96</ele>
        <time>2022-01-27T16:06:18Z</time>
      </trkpt>
      <trkpt lat="47.28315" lon="-1.59421">
        <ele>96</ele>
        <time>2022-01-27T16:06:19Z</time>
      </trkpt>
      <trkpt lat="47.28314" lon="-1.5942">
        <ele>96</ele>
        <time>2022-01-27T16:06:20Z</time>
      </trkpt>
      <trkpt lat="47.28313" lon="-1.59419">
        <ele>96</ele>
        <time>2022-01-27T16:06:21Z</time>
      </trkpt>
      <trkpt lat="47.28312" lon="-1.59419">
        <ele>95</ele>
        <time>2022-01-27T16:06:22Z</time>
      </trkpt>
      <trkpt lat="47.2831" lon="-1.59418">
        <ele>95</ele>
        <time>2022-01-27T16:06:23Z</time>
      </trkpt>
      <trkpt lat="47.28309" lon="-1.59417">
        <ele>95</ele>
        <time>2022-01-27T16:06:24Z</time>
      </trkpt>
      <trkpt lat="47.28307" lon="-1.59417">
        <ele>96</ele>
        <time>2022-01-27T16:06:25Z</time>
      </trkpt>
      <trkpt lat="47.28307" lon="-1.59415">
        <ele>96</ele>
        <time>2022-01-27T16:06:26Z</time>
      </trkpt>
      <trkpt lat="47.28305" lon="-1.59414">
        <ele>96</ele>
        <time>2022-01-27T16:06:27Z</time>
      </trkpt>
      <trkpt lat="47.28305" lon="-1.59413">
        <ele>96</ele>
        <time>2022-01-27T16:06:28Z</time>
      </trkpt>
      <trkpt lat="47.28304" lon="-1.59412">
        <ele>96</ele>
        <time>2022-01-27T16:06:29Z</time>
      </trkpt>
      <trkpt lat="47.28303" lon="-1.59411">
        <ele>97</ele>
        <time>2022-01-27T16:06:30Z</time>
      </trkpt>
      <trkpt lat="47.28302" lon="-1.5941">
        <ele>97</ele>
        <time>2022-01-27T16:06:31Z</time>
      </trkpt>
      <trkpt lat="47.28302" lon="-1.5941">
        <ele>97</ele>
        <time>2022-01-27T16:06:32Z</time>
      </trkpt>
      <trkpt lat="47.28301" lon="-1.5941">
        <ele>97</ele>
        <time>2022-01-27T16:06:33Z</time>
      </trkpt>
      <trkpt lat="47.283" lon="-1.5941">
        <ele>97</ele>
        <time>2022-01-27T16:06:34Z</time>
      </trkpt>
      <trkpt lat="47.28299" lon="-1.59409">
        <ele>97</ele>
        <time>2022-01-27T16:06:35Z</time>
      </trkpt>
      <trkpt lat="47.28298" lon="-1.59408">
        <ele>97</ele>
        <time>2022-01-27T16:06:36Z</time>
      </trkpt>
      <trkpt lat="47.28297" lon="-1.59407">
        <ele>97</ele>
        <time>2022-01-27T16:06:37Z</time>
      </trkpt>
      <trkpt lat="47.28296" lon="-1.59406">
        <ele>97</ele>
        <time>2022-01-27T16:06:38Z</time>
      </trkpt>
      <trkpt lat="47.28295" lon="-1.59405">
        <ele>97</ele>
        <time>2022-01-27T16:06:39Z</time>
      </trkpt>
      <trkpt lat="47.28294" lon="-1.59404">
        <ele>97</ele>
        <time>2022-01-27T16:06:40Z</time>
      </trkpt>
      <trkpt lat="47.28293" lon="-1.59403">
        <ele>97</ele>
        <time>2022-01-27T16:06:41Z</time>
      </trkpt>
      <trkpt lat="47.28292" lon="-1.59402">
        <ele>97</ele>
        <time>2022-01-27T16:06:42Z</time>
      </trkpt>
      <trkpt lat="47.28291" lon="-1.59401">
        <ele>97</ele>
        <time>2022-01-27T16:06:43Z</time>
      </trkpt>
      <trkpt lat="47.28289" lon="-1.59401">
        <ele>97</ele>
        <time>2022-01-27T16:06:44Z</time>
      </trkpt>
      <trkpt lat="47.28288" lon="-1.594">
        <ele>96</ele>
        <time>2022-01-27T16:06:45Z</time>
      </trkpt>
      <trkpt lat="47.28286" lon="-1.59399">
        <ele>96</ele>
        <time>2022-01-27T16:06:46Z</time>
      </trkpt>
      <trkpt lat="47.28285" lon="-1.59398">
        <ele>96</ele>
        <time>2022-01-27T16:06:47Z</time>
      </trkpt>
      <trkpt lat="47.28285" lon="-1.59398">
        <ele>96</ele>
        <time>2022-01-27T16:06:48Z</time>
      </trkpt>
      <trkpt lat="47.28283" lon="-1.59397">
        <ele>96</ele>
        <time>2022-01-27T16:06:49Z</time>
      </trkpt>
      <trkpt lat="47.28283" lon="-1.59396">
        <ele>96</ele>
        <time>2022-01-27T16:06:50Z</time>
      </trkpt>
      <trkpt lat="47.28282" lon="-1.59395">
        <ele>96</ele>
        <time>2022-01-27T16:06:51Z</time>
      </trkpt>
      <trkpt lat="47.28281" lon="-1.59394">
        <ele>96</ele>
        <time>2022-01-27T16:06:52Z</time>
      </trkpt>
      <trkpt lat="47.2828" lon="-1.59393">
        <ele>96</ele>
        <time>2022-01-27T16:06:53Z</time>
      </trkpt>
      <trkpt lat="47.28279" lon="-1.59392">
        <ele>96</ele>
        <time>2022-01-27T16:06:54Z</time>
      </trkpt>
      <trkpt lat="47.28278" lon="-1.59391">
        <ele>96</ele>
        <time>2022-01-27T16:06:55Z</time>
      </trkpt>
      <trkpt lat="47.28277" lon="-1.5939">
        <ele>96</ele>
        <time>2022-01-27T16:06:56Z</time>
      </trkpt>
      <trkpt lat="47.28276" lon="-1.59389">
        <ele>96</ele>
        <time>2022-01-27T16:06:57Z</time>
      </trkpt>
      <trkpt lat="47.28275" lon="-1.59388">
        <ele>96</ele>
        <time>2022-01-27T16:06:58Z</time>
      </trkpt>
      <trkpt lat="47.28273" lon="-1.59387">
        <ele>97</ele>
        <time>2022-01-27T16:06:59Z</time>
      </trkpt>
      <trkpt lat="47.28272" lon="-1.59386">
        <ele>97</ele>
        <time>2022-01-27T16:07:00Z</time>
      </trkpt>
      <trkpt lat="47.28271" lon="-1.59385">
        <ele>97</ele>
        <time>2022-01-27T16:07:01Z</time>
      </trkpt>
      <trkpt lat="47.2827" lon="-1.59384">
        <ele>97</ele>
        <time>2022-01-27T16:07:02Z</time>
      </trkpt>
      <trkpt lat="47.28268" lon="-1.59383">
        <ele>97</ele>
        <time>2022-01-27T16:07:03Z</time>
      </trkpt>
      <trkpt lat="47.28268" lon="-1.59383">
        <ele>98</ele>
        <time>2022-01-27T16:07:04Z</time>
      </trkpt>
      <trkpt lat="47.28267" lon="-1.59382">
        <ele>97</ele>
        <time>2022-01-27T16:07:05Z</time>
      </trkpt>
      <trkpt lat="47.28265" lon="-1.59381">
        <ele>97</ele>
        <time>2022-01-27T16:07:06Z</time>
      </trkpt>
      <trkpt lat="47.28264" lon="-1.5938">
        <ele>97</ele>
        <time>2022-01-27T16:07:07Z</time>
      </trkpt>
      <trkpt lat="47.28262" lon="-1.59379">
        <ele>97</ele>
        <time>2022-01-27T16:07:08Z</time>
      </trkpt>
      <trkpt lat="47.28261" lon="-1.59379">
        <ele>97</ele>
        <time>2022-01-27T16:07:09Z</time>
      </trkpt>
      <trkpt lat="47.28259" lon="-1.59378">
        <ele>97</ele>
        <time>2022-01-27T16:07:10Z</time>
      </trkpt>
      <trkpt lat="47.28258" lon="-1.59377">
        <ele>97</ele>
        <time>2022-01-27T16:07:11Z</time>
      </trkpt>
      <trkpt lat="47.28256" lon="-1.59376">
        <ele>96</ele>
        <time>2022-01-27T16:07:12Z</time>
      </trkpt>
      <trkpt lat="47.28255" lon="-1.59375">
        <ele>96</ele>
        <time>2022-01-27T16:07:13Z</time>
      </trkpt>
      <trkpt lat="47.28253" lon="-1.59375">
        <ele>96</ele>
        <time>2022-01-27T16:07:14Z</time>
      </trkpt>
      <trkpt lat="47.28252" lon="-1.59374">
        <ele>96</ele>
        <time>2022-01-27T16:07:15Z</time>
      </trkpt>
      <trkpt lat="47.28251" lon="-1.59373">
        <ele>96</ele>
        <time>2022-01-27T16:07:16Z</time>
      </trkpt>
      <trkpt lat="47.2825" lon="-1.59372">
        <ele>97</ele>
        <time>2022-01-27T16:07:17Z</time>
      </trkpt>
      <trkpt lat="47.28249" lon="-1.59372">
        <ele>97</ele>
        <time>2022-01-27T16:07:18Z</time>
      </trkpt>
      <trkpt lat="47.28248" lon="-1.59371">
        <ele>97</ele>
        <time>2022-01-27T16:07:19Z</time>
      </trkpt>
      <trkpt lat="47.28247" lon="-1.5937">
        <ele>96</ele>
        <time>2022-01-27T16:07:20Z</time>
      </trkpt>
      <trkpt lat="47.28246" lon="-1.59368">
        <ele>96</ele>
        <time>2022-01-27T16:07:21Z</time>
      </trkpt>
      <trkpt lat="47.28245" lon="-1.59368">
        <ele>96</ele>
        <time>2022-01-27T16:07:22Z</time>
      </trkpt>
      <trkpt lat="47.28244" lon="-1.59367">
        <ele>96</ele>
        <time>2022-01-27T16:07:23Z</time>
      </trkpt>
      <trkpt lat="47.28243" lon="-1.59366">
        <ele>95</ele>
        <time>2022-01-27T16:07:24Z</time>
      </trkpt>
      <trkpt lat="47.28241" lon="-1.59365">
        <ele>94</ele>
        <time>2022-01-27T16:07:25Z</time>
      </trkpt>
      <trkpt lat="47.2824" lon="-1.59365">
        <ele>94</ele>
        <time>2022-01-27T16:07:26Z</time>
      </trkpt>
      <trkpt lat="47.28239" lon="-1.59364">
        <ele>94</ele>
        <time>2022-01-27T16:07:27Z</time>
      </trkpt>
      <trkpt lat="47.28237" lon="-1.59363">
        <ele>94</ele>
        <time>2022-01-27T16:07:28Z</time>
      </trkpt>
      <trkpt lat="47.28236" lon="-1.59361">
        <ele>93</ele>
        <time>2022-01-27T16:07:29Z</time>
      </trkpt>
      <trkpt lat="47.28234" lon="-1.5936">
        <ele>94</ele>
        <time>2022-01-27T16:07:30Z</time>
      </trkpt>
      <trkpt lat="47.28232" lon="-1.59358">
        <ele>94</ele>
        <time>2022-01-27T16:07:31Z</time>
      </trkpt>
      <trkpt lat="47.2823" lon="-1.59357">
        <ele>94</ele>
        <time>2022-01-27T16:07:32Z</time>
      </trkpt>
      <trkpt lat="47.28228" lon="-1.59355">
        <ele>96</ele>
        <time>2022-01-27T16:07:33Z</time>
      </trkpt>
      <trkpt lat="47.28227" lon="-1.59354">
        <ele>96</ele>
        <time>2022-01-27T16:07:34Z</time>
      </trkpt>
      <trkpt lat="47.28226" lon="-1.59353">
        <ele>97</ele>
        <time>2022-01-27T16:07:35Z</time>
      </trkpt>
      <trkpt lat="47.28225" lon="-1.59351">
        <ele>97</ele>
        <time>2022-01-27T16:07:36Z</time>
      </trkpt>
      <trkpt lat="47.28223" lon="-1.59351">
        <ele>97</ele>
        <time>2022-01-27T16:07:37Z</time>
      </trkpt>
      <trkpt lat="47.28223" lon="-1.59351">
        <ele>97</ele>
        <time>2022-01-27T16:07:38Z</time>
      </trkpt>
      <trkpt lat="47.28223" lon="-1.59351">
        <ele>97</ele>
        <time>2022-01-27T16:07:39Z</time>
      </trkpt>
      <trkpt lat="47.28223" lon="-1.59351">
        <ele>97</ele>
        <time>2022-01-27T16:07:40Z</time>
      </trkpt>
      <trkpt lat="47.28223" lon="-1.59351">
        <ele>97</ele>
        <time>2022-01-27T16:07:41Z</time>
      </trkpt>
      <trkpt lat="47.28223" lon="-1.59351">
        <ele>97</ele>
        <time>2022-01-27T16:07:41Z</time>
      </trkpt>
      <trkpt lat="47.28219" lon="-1.59342">
        <ele>97</ele>
        <time>2022-01-27T16:07:48Z</time>
      </trkpt>
      <trkpt lat="47.28218" lon="-1.5934">
        <ele>97</ele>
        <time>2022-01-27T16:07:49Z</time>
      </trkpt>
      <trkpt lat="47.28217" lon="-1.59339">
        <ele>96</ele>
        <time>2022-01-27T16:07:50Z</time>
      </trkpt>
      <trkpt lat="47.28217" lon="-1.59337">
        <ele>97</ele>
        <time>2022-01-27T16:07:51Z</time>
      </trkpt>
      <trkpt lat="47.28217" lon="-1.59337">
        <ele>97</ele>
        <time>2022-01-27T16:07:52Z</time>
      </trkpt>
      <trkpt lat="47.28217" lon="-1.59337">
        <ele>97</ele>
        <time>2022-01-27T16:07:53Z</time>
      </trkpt>
      <trkpt lat="47.28217" lon="-1.59337">
        <ele>97</ele>
        <time>2022-01-27T16:07:54Z</time>
      </trkpt>
      <trkpt lat="47.28217" lon="-1.59337">
        <ele>97</ele>
        <time>2022-01-27T16:07:55Z</time>
      </trkpt>
      <trkpt lat="47.28217" lon="-1.59337">
        <ele>97</ele>
        <time>2022-01-27T16:07:56Z</time>
      </trkpt>
      <trkpt lat="47.28217" lon="-1.59337">
        <ele>97</ele>
        <time>2022-01-27T16:07:57Z</time>
      </trkpt>
      <trkpt lat="47.28217" lon="-1.59337">
        <ele>97</ele>
        <time>2022-01-27T16:07:57Z</time>
      </trkpt>
      <trkpt lat="47.28217" lon="-1.59337">
        <ele>97</ele>
        <time>2022-01-27T16:07:57Z</time>
      </trkpt>
      <trkpt lat="47.28214" lon="-1.59327">
        <ele>96</ele>
        <time>2022-01-27T16:08:04Z</time>
      </trkpt>
      <trkpt lat="47.28213" lon="-1.59326">
        <ele>96</ele>
        <time>2022-01-27T16:08:05Z</time>
      </trkpt>
      <trkpt lat="47.28212" lon="-1.59324">
        <ele>97</ele>
        <time>2022-01-27T16:08:06Z</time>
      </trkpt>
      <trkpt lat="47.28211" lon="-1.59323">
        <ele>97</ele>
        <time>2022-01-27T16:08:07Z</time>
      </trkpt>
      <trkpt lat="47.2821" lon="-1.59322">
        <ele>97</ele>
        <time>2022-01-27T16:08:08Z</time>
      </trkpt>
      <trkpt lat="47.28209" lon="-1.5932">
        <ele>97</ele>
        <time>2022-01-27T16:08:09Z</time>
      </trkpt>
      <trkpt lat="47.28208" lon="-1.59319">
        <ele>97</ele>
        <time>2022-01-27T16:08:10Z</time>
      </trkpt>
      <trkpt lat="47.28207" lon="-1.59317">
        <ele>97</ele>
        <time>2022-01-27T16:08:11Z</time>
      </trkpt>
      <trkpt lat="47.28206" lon="-1.59316">
        <ele>98</ele>
        <time>2022-01-27T16:08:12Z</time>
      </trkpt>
      <trkpt lat="47.28206" lon="-1.59315">
        <ele>98</ele>
        <time>2022-01-27T16:08:13Z</time>
      </trkpt>
      <trkpt lat="47.28205" lon="-1.59313">
        <ele>97</ele>
        <time>2022-01-27T16:08:14Z</time>
      </trkpt>
      <trkpt lat="47.28204" lon="-1.59312">
        <ele>97</ele>
        <time>2022-01-27T16:08:15Z</time>
      </trkpt>
      <trkpt lat="47.28203" lon="-1.5931">
        <ele>97</ele>
        <time>2022-01-27T16:08:16Z</time>
      </trkpt>
      <trkpt lat="47.28202" lon="-1.5931">
        <ele>97</ele>
        <time>2022-01-27T16:08:17Z</time>
      </trkpt>
      <trkpt lat="47.28201" lon="-1.59309">
        <ele>98</ele>
        <time>2022-01-27T16:08:18Z</time>
      </trkpt>
      <trkpt lat="47.28199" lon="-1.59307">
        <ele>97</ele>
        <time>2022-01-27T16:08:19Z</time>
      </trkpt>
      <trkpt lat="47.28198" lon="-1.59306">
        <ele>98</ele>
        <time>2022-01-27T16:08:20Z</time>
      </trkpt>
      <trkpt lat="47.28198" lon="-1.59305">
        <ele>98</ele>
        <time>2022-01-27T16:08:21Z</time>
      </trkpt>
      <trkpt lat="47.28196" lon="-1.59304">
        <ele>98</ele>
        <time>2022-01-27T16:08:22Z</time>
      </trkpt>
      <trkpt lat="47.28196" lon="-1.59303">
        <ele>98</ele>
        <time>2022-01-27T16:08:23Z</time>
      </trkpt>
      <trkpt lat="47.28195" lon="-1.59302">
        <ele>98</ele>
        <time>2022-01-27T16:08:24Z</time>
      </trkpt>
      <trkpt lat="47.28195" lon="-1.59301">
        <ele>98</ele>
        <time>2022-01-27T16:08:25Z</time>
      </trkpt>
      <trkpt lat="47.28194" lon="-1.593">
        <ele>99</ele>
        <time>2022-01-27T16:08:26Z</time>
      </trkpt>
      <trkpt lat="47.28194" lon="-1.59299">
        <ele>99</ele>
        <time>2022-01-27T16:08:27Z</time>
      </trkpt>
      <trkpt lat="47.28193" lon="-1.59298">
        <ele>99</ele>
        <time>2022-01-27T16:08:28Z</time>
      </trkpt>
      <trkpt lat="47.28191" lon="-1.59296">
        <ele>98</ele>
        <time>2022-01-27T16:08:29Z</time>
      </trkpt>
      <trkpt lat="47.28191" lon="-1.59295">
        <ele>98</ele>
        <time>2022-01-27T16:08:30Z</time>
      </trkpt>
      <trkpt lat="47.2819" lon="-1.59293">
        <ele>98</ele>
        <time>2022-01-27T16:08:31Z</time>
      </trkpt>
      <trkpt lat="47.2819" lon="-1.59292">
        <ele>98</ele>
        <time>2022-01-27T16:08:32Z</time>
      </trkpt>
      <trkpt lat="47.28189" lon="-1.59291">
        <ele>97</ele>
        <time>2022-01-27T16:08:33Z</time>
      </trkpt>
      <trkpt lat="47.28188" lon="-1.5929">
        <ele>97</ele>
        <time>2022-01-27T16:08:34Z</time>
      </trkpt>
      <trkpt lat="47.28187" lon="-1.59289">
        <ele>97</ele>
        <time>2022-01-27T16:08:35Z</time>
      </trkpt>
      <trkpt lat="47.28186" lon="-1.59288">
        <ele>96</ele>
        <time>2022-01-27T16:08:36Z</time>
      </trkpt>
      <trkpt lat="47.28185" lon="-1.59288">
        <ele>97</ele>
        <time>2022-01-27T16:08:37Z</time>
      </trkpt>
      <trkpt lat="47.28183" lon="-1.59287">
        <ele>97</ele>
        <time>2022-01-27T16:08:38Z</time>
      </trkpt>
      <trkpt lat="47.28183" lon="-1.59286">
        <ele>96</ele>
        <time>2022-01-27T16:08:39Z</time>
      </trkpt>
      <trkpt lat="47.28181" lon="-1.59284">
        <ele>96</ele>
        <time>2022-01-27T16:08:40Z</time>
      </trkpt>
      <trkpt lat="47.28179" lon="-1.59282">
        <ele>95</ele>
        <time>2022-01-27T16:08:41Z</time>
      </trkpt>
      <trkpt lat="47.28178" lon="-1.59281">
        <ele>96</ele>
        <time>2022-01-27T16:08:42Z</time>
      </trkpt>
      <trkpt lat="47.28177" lon="-1.59279">
        <ele>96</ele>
        <time>2022-01-27T16:08:43Z</time>
      </trkpt>
      <trkpt lat="47.28175" lon="-1.59278">
        <ele>97</ele>
        <time>2022-01-27T16:08:44Z</time>
      </trkpt>
      <trkpt lat="47.28174" lon="-1.59276">
        <ele>97</ele>
        <time>2022-01-27T16:08:45Z</time>
      </trkpt>
      <trkpt lat="47.28173" lon="-1.59275">
        <ele>97</ele>
        <time>2022-01-27T16:08:46Z</time>
      </trkpt>
      <trkpt lat="47.28172" lon="-1.59273">
        <ele>96</ele>
        <time>2022-01-27T16:08:47Z</time>
      </trkpt>
      <trkpt lat="47.2817" lon="-1.59271">
        <ele>96</ele>
        <time>2022-01-27T16:08:48Z</time>
      </trkpt>
      <trkpt lat="47.2817" lon="-1.5927">
        <ele>96</ele>
        <time>2022-01-27T16:08:49Z</time>
      </trkpt>
      <trkpt lat="47.28169" lon="-1.59268">
        <ele>96</ele>
        <time>2022-01-27T16:08:50Z</time>
      </trkpt>
      <trkpt lat="47.28168" lon="-1.59267">
        <ele>96</ele>
        <time>2022-01-27T16:08:51Z</time>
      </trkpt>
      <trkpt lat="47.28167" lon="-1.59266">
        <ele>96</ele>
        <time>2022-01-27T16:08:52Z</time>
      </trkpt>
      <trkpt lat="47.28166" lon="-1.59266">
        <ele>96</ele>
        <time>2022-01-27T16:08:53Z</time>
      </trkpt>
      <trkpt lat="47.28165" lon="-1.59265">
        <ele>95</ele>
        <time>2022-01-27T16:08:54Z</time>
      </trkpt>
      <trkpt lat="47.28164" lon="-1.59263">
        <ele>96</ele>
        <time>2022-01-27T16:08:55Z</time>
      </trkpt>
      <trkpt lat="47.28163" lon="-1.59262">
        <ele>97</ele>
        <time>2022-01-27T16:08:56Z</time>
      </trkpt>
      <trkpt lat="47.28162" lon="-1.59261">
        <ele>97</ele>
        <time>2022-01-27T16:08:57Z</time>
      </trkpt>
      <trkpt lat="47.28161" lon="-1.5926">
        <ele>97</ele>
        <time>2022-01-27T16:08:58Z</time>
      </trkpt>
      <trkpt lat="47.2816" lon="-1.59259">
        <ele>98</ele>
        <time>2022-01-27T16:08:59Z</time>
      </trkpt>
      <trkpt lat="47.28159" lon="-1.59258">
        <ele>98</ele>
        <time>2022-01-27T16:09:00Z</time>
      </trkpt>
      <trkpt lat="47.28158" lon="-1.59256">
        <ele>98</ele>
        <time>2022-01-27T16:09:01Z</time>
      </trkpt>
      <trkpt lat="47.28156" lon="-1.59255">
        <ele>98</ele>
        <time>2022-01-27T16:09:02Z</time>
      </trkpt>
      <trkpt lat="47.28155" lon="-1.59254">
        <ele>98</ele>
        <time>2022-01-27T16:09:03Z</time>
      </trkpt>
      <trkpt lat="47.28154" lon="-1.59253">
        <ele>98</ele>
        <time>2022-01-27T16:09:04Z</time>
      </trkpt>
      <trkpt lat="47.28153" lon="-1.59252">
        <ele>98</ele>
        <time>2022-01-27T16:09:05Z</time>
      </trkpt>
      <trkpt lat="47.28153" lon="-1.59251">
        <ele>97</ele>
        <time>2022-01-27T16:09:06Z</time>
      </trkpt>
      <trkpt lat="47.28151" lon="-1.5925">
        <ele>97</ele>
        <time>2022-01-27T16:09:07Z</time>
      </trkpt>
      <trkpt lat="47.2815" lon="-1.59249">
        <ele>98</ele>
        <time>2022-01-27T16:09:08Z</time>
      </trkpt>
      <trkpt lat="47.28149" lon="-1.59248">
        <ele>97</ele>
        <time>2022-01-27T16:09:09Z</time>
      </trkpt>
      <trkpt lat="47.28148" lon="-1.59245">
        <ele>97</ele>
        <time>2022-01-27T16:09:10Z</time>
      </trkpt>
      <trkpt lat="47.28146" lon="-1.59244">
        <ele>97</ele>
        <time>2022-01-27T16:09:11Z</time>
      </trkpt>
      <trkpt lat="47.28145" lon="-1.59242">
        <ele>97</ele>
        <time>2022-01-27T16:09:12Z</time>
      </trkpt>
      <trkpt lat="47.28145" lon="-1.59241">
        <ele>97</ele>
        <time>2022-01-27T16:09:13Z</time>
      </trkpt>
      <trkpt lat="47.28143" lon="-1.5924">
        <ele>97</ele>
        <time>2022-01-27T16:09:14Z</time>
      </trkpt>
      <trkpt lat="47.28142" lon="-1.59239">
        <ele>97</ele>
        <time>2022-01-27T16:09:15Z</time>
      </trkpt>
      <trkpt lat="47.28141" lon="-1.59238">
        <ele>97</ele>
        <time>2022-01-27T16:09:16Z</time>
      </trkpt>
      <trkpt lat="47.2814" lon="-1.59236">
        <ele>97</ele>
        <time>2022-01-27T16:09:17Z</time>
      </trkpt>
      <trkpt lat="47.28139" lon="-1.59235">
        <ele>97</ele>
        <time>2022-01-27T16:09:18Z</time>
      </trkpt>
      <trkpt lat="47.28138" lon="-1.59234">
        <ele>97</ele>
        <time>2022-01-27T16:09:19Z</time>
      </trkpt>
      <trkpt lat="47.28138" lon="-1.59233">
        <ele>97</ele>
        <time>2022-01-27T16:09:20Z</time>
      </trkpt>
      <trkpt lat="47.28136" lon="-1.59232">
        <ele>97</ele>
        <time>2022-01-27T16:09:21Z</time>
      </trkpt>
      <trkpt lat="47.28136" lon="-1.5923">
        <ele>97</ele>
        <time>2022-01-27T16:09:22Z</time>
      </trkpt>
      <trkpt lat="47.28135" lon="-1.5923">
        <ele>97</ele>
        <time>2022-01-27T16:09:23Z</time>
      </trkpt>
      <trkpt lat="47.28134" lon="-1.59229">
        <ele>97</ele>
        <time>2022-01-27T16:09:24Z</time>
      </trkpt>
      <trkpt lat="47.28133" lon="-1.59229">
        <ele>97</ele>
        <time>2022-01-27T16:09:25Z</time>
      </trkpt>
      <trkpt lat="47.28132" lon="-1.59228">
        <ele>96</ele>
        <time>2022-01-27T16:09:26Z</time>
      </trkpt>
      <trkpt lat="47.28131" lon="-1.59228">
        <ele>96</ele>
        <time>2022-01-27T16:09:27Z</time>
      </trkpt>
      <trkpt lat="47.2813" lon="-1.59228">
        <ele>97</ele>
        <time>2022-01-27T16:09:28Z</time>
      </trkpt>
      <trkpt lat="47.28129" lon="-1.59226">
        <ele>96</ele>
        <time>2022-01-27T16:09:29Z</time>
      </trkpt>
      <trkpt lat="47.2813" lon="-1.59226">
        <ele>97</ele>
        <time>2022-01-27T16:09:30Z</time>
      </trkpt>
      <trkpt lat="47.28129" lon="-1.59225">
        <ele>97</ele>
        <time>2022-01-27T16:09:31Z</time>
      </trkpt>
      <trkpt lat="47.28128" lon="-1.59225">
        <ele>97</ele>
        <time>2022-01-27T16:09:32Z</time>
      </trkpt>
      <trkpt lat="47.28128" lon="-1.59225">
        <ele>97</ele>
        <time>2022-01-27T16:09:33Z</time>
      </trkpt>
      <trkpt lat="47.28128" lon="-1.59226">
        <ele>97</ele>
        <time>2022-01-27T16:09:34Z</time>
      </trkpt>
      <trkpt lat="47.28128" lon="-1.59226">
        <ele>97</ele>
        <time>2022-01-27T16:09:35Z</time>
      </trkpt>
      <trkpt lat="47.28128" lon="-1.59226">
        <ele>97</ele>
        <time>2022-01-27T16:09:36Z</time>
      </trkpt>
      <trkpt lat="47.28127" lon="-1.59227">
        <ele>97</ele>
        <time>2022-01-27T16:09:37Z</time>
      </trkpt>
      <trkpt lat="47.28127" lon="-1.59227">
        <ele>97</ele>
        <time>2022-01-27T16:09:38Z</time>
      </trkpt>
      <trkpt lat="47.28126" lon="-1.59228">
        <ele>97</ele>
        <time>2022-01-27T16:09:39Z</time>
      </trkpt>
      <trkpt lat="47.28126" lon="-1.59229">
        <ele>96</ele>
        <time>2022-01-27T16:09:40Z</time>
      </trkpt>
      <trkpt lat="47.28126" lon="-1.5923">
        <ele>96</ele>
        <time>2022-01-27T16:09:41Z</time>
      </trkpt>
      <trkpt lat="47.28125" lon="-1.59231">
        <ele>96</ele>
        <time>2022-01-27T16:09:42Z</time>
      </trkpt>
      <trkpt lat="47.28124" lon="-1.59233">
        <ele>96</ele>
        <time>2022-01-27T16:09:43Z</time>
      </trkpt>
      <trkpt lat="47.28124" lon="-1.59234">
        <ele>96</ele>
        <time>2022-01-27T16:09:44Z</time>
      </trkpt>
      <trkpt lat="47.28123" lon="-1.59235">
        <ele>96</ele>
        <time>2022-01-27T16:09:45Z</time>
      </trkpt>
      <trkpt lat="47.28123" lon="-1.59237">
        <ele>96</ele>
        <time>2022-01-27T16:09:46Z</time>
      </trkpt>
      <trkpt lat="47.28122" lon="-1.59238">
        <ele>96</ele>
        <time>2022-01-27T16:09:47Z</time>
      </trkpt>
      <trkpt lat="47.28121" lon="-1.5924">
        <ele>97</ele>
        <time>2022-01-27T16:09:48Z</time>
      </trkpt>
      <trkpt lat="47.2812" lon="-1.59242">
        <ele>96</ele>
        <time>2022-01-27T16:09:49Z</time>
      </trkpt>
      <trkpt lat="47.2812" lon="-1.59244">
        <ele>96</ele>
        <time>2022-01-27T16:09:50Z</time>
      </trkpt>
      <trkpt lat="47.28119" lon="-1.59245">
        <ele>96</ele>
        <time>2022-01-27T16:09:51Z</time>
      </trkpt>
      <trkpt lat="47.28119" lon="-1.59247">
        <ele>95</ele>
        <time>2022-01-27T16:09:52Z</time>
      </trkpt>
      <trkpt lat="47.28118" lon="-1.59249">
        <ele>95</ele>
        <time>2022-01-27T16:09:53Z</time>
      </trkpt>
      <trkpt lat="47.28117" lon="-1.59251">
        <ele>95</ele>
        <time>2022-01-27T16:09:54Z</time>
      </trkpt>
      <trkpt lat="47.28117" lon="-1.59252">
        <ele>94</ele>
        <time>2022-01-27T16:09:55Z</time>
      </trkpt>
      <trkpt lat="47.28116" lon="-1.59254">
        <ele>94</ele>
        <time>2022-01-27T16:09:56Z</time>
      </trkpt>
      <trkpt lat="47.28115" lon="-1.59255">
        <ele>94</ele>
        <time>2022-01-27T16:09:57Z</time>
      </trkpt>
      <trkpt lat="47.28114" lon="-1.59257">
        <ele>94</ele>
        <time>2022-01-27T16:09:58Z</time>
      </trkpt>
      <trkpt lat="47.28114" lon="-1.59259">
        <ele>95</ele>
        <time>2022-01-27T16:09:59Z</time>
      </trkpt>
      <trkpt lat="47.28113" lon="-1.59261">
        <ele>95</ele>
        <time>2022-01-27T16:10:00Z</time>
      </trkpt>
      <trkpt lat="47.28112" lon="-1.59263">
        <ele>95</ele>
        <time>2022-01-27T16:10:01Z</time>
      </trkpt>
      <trkpt lat="47.28112" lon="-1.59265">
        <ele>96</ele>
        <time>2022-01-27T16:10:02Z</time>
      </trkpt>
      <trkpt lat="47.28111" lon="-1.59267">
        <ele>96</ele>
        <time>2022-01-27T16:10:03Z</time>
      </trkpt>
      <trkpt lat="47.28111" lon="-1.59269">
        <ele>95</ele>
        <time>2022-01-27T16:10:04Z</time>
      </trkpt>
      <trkpt lat="47.28109" lon="-1.5927">
        <ele>95</ele>
        <time>2022-01-27T16:10:05Z</time>
      </trkpt>
      <trkpt lat="47.28109" lon="-1.59272">
        <ele>94</ele>
        <time>2022-01-27T16:10:06Z</time>
      </trkpt>
      <trkpt lat="47.28108" lon="-1.59273">
        <ele>94</ele>
        <time>2022-01-27T16:10:07Z</time>
      </trkpt>
      <trkpt lat="47.28107" lon="-1.59275">
        <ele>94</ele>
        <time>2022-01-27T16:10:08Z</time>
      </trkpt>
      <trkpt lat="47.28106" lon="-1.59276">
        <ele>93</ele>
        <time>2022-01-27T16:10:09Z</time>
      </trkpt>
      <trkpt lat="47.28105" lon="-1.59278">
        <ele>93</ele>
        <time>2022-01-27T16:10:10Z</time>
      </trkpt>
      <trkpt lat="47.28104" lon="-1.59279">
        <ele>93</ele>
        <time>2022-01-27T16:10:11Z</time>
      </trkpt>
      <trkpt lat="47.28104" lon="-1.59281">
        <ele>94</ele>
        <time>2022-01-27T16:10:12Z</time>
      </trkpt>
      <trkpt lat="47.28103" lon="-1.59283">
        <ele>94</ele>
        <time>2022-01-27T16:10:13Z</time>
      </trkpt>
      <trkpt lat="47.28103" lon="-1.59284">
        <ele>94</ele>
        <time>2022-01-27T16:10:14Z</time>
      </trkpt>
      <trkpt lat="47.28103" lon="-1.59286">
        <ele>94</ele>
        <time>2022-01-27T16:10:15Z</time>
      </trkpt>
      <trkpt lat="47.28101" lon="-1.59287">
        <ele>93</ele>
        <time>2022-01-27T16:10:16Z</time>
      </trkpt>
      <trkpt lat="47.28101" lon="-1.59289">
        <ele>93</ele>
        <time>2022-01-27T16:10:17Z</time>
      </trkpt>
      <trkpt lat="47.281" lon="-1.59291">
        <ele>93</ele>
        <time>2022-01-27T16:10:18Z</time>
      </trkpt>
      <trkpt lat="47.281" lon="-1.59292">
        <ele>93</ele>
        <time>2022-01-27T16:10:19Z</time>
      </trkpt>
      <trkpt lat="47.28099" lon="-1.59294">
        <ele>93</ele>
        <time>2022-01-27T16:10:20Z</time>
      </trkpt>
      <trkpt lat="47.28098" lon="-1.59296">
        <ele>93</ele>
        <time>2022-01-27T16:10:21Z</time>
      </trkpt>
      <trkpt lat="47.28098" lon="-1.59298">
        <ele>92</ele>
        <time>2022-01-27T16:10:22Z</time>
      </trkpt>
      <trkpt lat="47.28098" lon="-1.59299">
        <ele>92</ele>
        <time>2022-01-27T16:10:23Z</time>
      </trkpt>
      <trkpt lat="47.28097" lon="-1.59301">
        <ele>92</ele>
        <time>2022-01-27T16:10:24Z</time>
      </trkpt>
      <trkpt lat="47.28096" lon="-1.59302">
        <ele>91</ele>
        <time>2022-01-27T16:10:25Z</time>
      </trkpt>
      <trkpt lat="47.28095" lon="-1.59304">
        <ele>91</ele>
        <time>2022-01-27T16:10:26Z</time>
      </trkpt>
      <trkpt lat="47.28094" lon="-1.59306">
        <ele>90</ele>
        <time>2022-01-27T16:10:27Z</time>
      </trkpt>
      <trkpt lat="47.28094" lon="-1.59307">
        <ele>91</ele>
        <time>2022-01-27T16:10:28Z</time>
      </trkpt>
      <trkpt lat="47.28093" lon="-1.59309">
        <ele>91</ele>
        <time>2022-01-27T16:10:29Z</time>
      </trkpt>
      <trkpt lat="47.28092" lon="-1.5931">
        <ele>91</ele>
        <time>2022-01-27T16:10:30Z</time>
      </trkpt>
      <trkpt lat="47.28092" lon="-1.59312">
        <ele>92</ele>
        <time>2022-01-27T16:10:31Z</time>
      </trkpt>
      <trkpt lat="47.28091" lon="-1.59313">
        <ele>92</ele>
        <time>2022-01-27T16:10:32Z</time>
      </trkpt>
      <trkpt lat="47.28091" lon="-1.59316">
        <ele>92</ele>
        <time>2022-01-27T16:10:33Z</time>
      </trkpt>
      <trkpt lat="47.2809" lon="-1.59318">
        <ele>91</ele>
        <time>2022-01-27T16:10:34Z</time>
      </trkpt>
      <trkpt lat="47.28089" lon="-1.5932">
        <ele>91</ele>
        <time>2022-01-27T16:10:35Z</time>
      </trkpt>
      <trkpt lat="47.28088" lon="-1.59322">
        <ele>92</ele>
        <time>2022-01-27T16:10:36Z</time>
      </trkpt>
      <trkpt lat="47.28088" lon="-1.59324">
        <ele>92</ele>
        <time>2022-01-27T16:10:37Z</time>
      </trkpt>
      <trkpt lat="47.28088" lon="-1.59326">
        <ele>92</ele>
        <time>2022-01-27T16:10:38Z</time>
      </trkpt>
      <trkpt lat="47.28087" lon="-1.59327">
        <ele>92</ele>
        <time>2022-01-27T16:10:39Z</time>
      </trkpt>
      <trkpt lat="47.28087" lon="-1.59329">
        <ele>93</ele>
        <time>2022-01-27T16:10:40Z</time>
      </trkpt>
      <trkpt lat="47.28086" lon="-1.5933">
        <ele>93</ele>
        <time>2022-01-27T16:10:41Z</time>
      </trkpt>
      <trkpt lat="47.28086" lon="-1.59332">
        <ele>93</ele>
        <time>2022-01-27T16:10:42Z</time>
      </trkpt>
      <trkpt lat="47.28085" lon="-1.59333">
        <ele>93</ele>
        <time>2022-01-27T16:10:43Z</time>
      </trkpt>
      <trkpt lat="47.28085" lon="-1.59335">
        <ele>92</ele>
        <time>2022-01-27T16:10:44Z</time>
      </trkpt>
      <trkpt lat="47.28084" lon="-1.59337">
        <ele>92</ele>
        <time>2022-01-27T16:10:45Z</time>
      </trkpt>
      <trkpt lat="47.28083" lon="-1.59339">
        <ele>92</ele>
        <time>2022-01-27T16:10:46Z</time>
      </trkpt>
      <trkpt lat="47.28082" lon="-1.59342">
        <ele>91</ele>
        <time>2022-01-27T16:10:47Z</time>
      </trkpt>
      <trkpt lat="47.28082" lon="-1.59344">
        <ele>91</ele>
        <time>2022-01-27T16:10:48Z</time>
      </trkpt>
      <trkpt lat="47.2808" lon="-1.59346">
        <ele>91</ele>
        <time>2022-01-27T16:10:49Z</time>
      </trkpt>
      <trkpt lat="47.2808" lon="-1.59348">
        <ele>91</ele>
        <time>2022-01-27T16:10:50Z</time>
      </trkpt>
      <trkpt lat="47.28079" lon="-1.5935">
        <ele>91</ele>
        <time>2022-01-27T16:10:51Z</time>
      </trkpt>
      <trkpt lat="47.28078" lon="-1.59351">
        <ele>91</ele>
        <time>2022-01-27T16:10:52Z</time>
      </trkpt>
      <trkpt lat="47.28078" lon="-1.59353">
        <ele>91</ele>
        <time>2022-01-27T16:10:53Z</time>
      </trkpt>
      <trkpt lat="47.28077" lon="-1.59355">
        <ele>91</ele>
        <time>2022-01-27T16:10:54Z</time>
      </trkpt>
      <trkpt lat="47.28077" lon="-1.59356">
        <ele>91</ele>
        <time>2022-01-27T16:10:55Z</time>
      </trkpt>
      <trkpt lat="47.28075" lon="-1.59359">
        <ele>91</ele>
        <time>2022-01-27T16:10:56Z</time>
      </trkpt>
      <trkpt lat="47.28075" lon="-1.5936">
        <ele>92</ele>
        <time>2022-01-27T16:10:57Z</time>
      </trkpt>
      <trkpt lat="47.28074" lon="-1.59362">
        <ele>92</ele>
        <time>2022-01-27T16:10:58Z</time>
      </trkpt>
      <trkpt lat="47.28073" lon="-1.59364">
        <ele>92</ele>
        <time>2022-01-27T16:10:59Z</time>
      </trkpt>
      <trkpt lat="47.28072" lon="-1.59365">
        <ele>92</ele>
        <time>2022-01-27T16:11:00Z</time>
      </trkpt>
      <trkpt lat="47.28071" lon="-1.59367">
        <ele>93</ele>
        <time>2022-01-27T16:11:01Z</time>
      </trkpt>
      <trkpt lat="47.2807" lon="-1.59368">
        <ele>93</ele>
        <time>2022-01-27T16:11:02Z</time>
      </trkpt>
      <trkpt lat="47.2807" lon="-1.5937">
        <ele>93</ele>
        <time>2022-01-27T16:11:03Z</time>
      </trkpt>
      <trkpt lat="47.28069" lon="-1.59372">
        <ele>93</ele>
        <time>2022-01-27T16:11:04Z</time>
      </trkpt>
      <trkpt lat="47.28069" lon="-1.59374">
        <ele>93</ele>
        <time>2022-01-27T16:11:05Z</time>
      </trkpt>
      <trkpt lat="47.28067" lon="-1.59376">
        <ele>93</ele>
        <time>2022-01-27T16:11:06Z</time>
      </trkpt>
      <trkpt lat="47.28067" lon="-1.59377">
        <ele>93</ele>
        <time>2022-01-27T16:11:07Z</time>
      </trkpt>
      <trkpt lat="47.28066" lon="-1.59379">
        <ele>93</ele>
        <time>2022-01-27T16:11:08Z</time>
      </trkpt>
      <trkpt lat="47.28065" lon="-1.59381">
        <ele>93</ele>
        <time>2022-01-27T16:11:09Z</time>
      </trkpt>
      <trkpt lat="47.28064" lon="-1.59383">
        <ele>93</ele>
        <time>2022-01-27T16:11:10Z</time>
      </trkpt>
      <trkpt lat="47.28063" lon="-1.59384">
        <ele>94</ele>
        <time>2022-01-27T16:11:11Z</time>
      </trkpt>
      <trkpt lat="47.28062" lon="-1.59386">
        <ele>94</ele>
        <time>2022-01-27T16:11:12Z</time>
      </trkpt>
      <trkpt lat="47.28061" lon="-1.59388">
        <ele>94</ele>
        <time>2022-01-27T16:11:13Z</time>
      </trkpt>
      <trkpt lat="47.28061" lon="-1.5939">
        <ele>94</ele>
        <time>2022-01-27T16:11:14Z</time>
      </trkpt>
      <trkpt lat="47.28061" lon="-1.59392">
        <ele>94</ele>
        <time>2022-01-27T16:11:15Z</time>
      </trkpt>
      <trkpt lat="47.2806" lon="-1.59394">
        <ele>95</ele>
        <time>2022-01-27T16:11:16Z</time>
      </trkpt>
      <trkpt lat="47.28059" lon="-1.59396">
        <ele>95</ele>
        <time>2022-01-27T16:11:17Z</time>
      </trkpt>
      <trkpt lat="47.28059" lon="-1.59398">
        <ele>95</ele>
        <time>2022-01-27T16:11:18Z</time>
      </trkpt>
      <trkpt lat="47.28058" lon="-1.594">
        <ele>95</ele>
        <time>2022-01-27T16:11:19Z</time>
      </trkpt>
      <trkpt lat="47.28057" lon="-1.59402">
        <ele>95</ele>
        <time>2022-01-27T16:11:20Z</time>
      </trkpt>
      <trkpt lat="47.28056" lon="-1.59404">
        <ele>95</ele>
        <time>2022-01-27T16:11:21Z</time>
      </trkpt>
      <trkpt lat="47.28056" lon="-1.59406">
        <ele>95</ele>
        <time>2022-01-27T16:11:22Z</time>
      </trkpt>
      <trkpt lat="47.28055" lon="-1.59407">
        <ele>96</ele>
        <time>2022-01-27T16:11:23Z</time>
      </trkpt>
      <trkpt lat="47.28054" lon="-1.59409">
        <ele>96</ele>
        <time>2022-01-27T16:11:24Z</time>
      </trkpt>
      <trkpt lat="47.28054" lon="-1.59411">
        <ele>96</ele>
        <time>2022-01-27T16:11:25Z</time>
      </trkpt>
      <trkpt lat="47.28054" lon="-1.59412">
        <ele>96</ele>
        <time>2022-01-27T16:11:26Z</time>
      </trkpt>
      <trkpt lat="47.28053" lon="-1.59414">
        <ele>96</ele>
        <time>2022-01-27T16:11:27Z</time>
      </trkpt>
      <trkpt lat="47.28053" lon="-1.59416">
        <ele>96</ele>
        <time>2022-01-27T16:11:28Z</time>
      </trkpt>
      <trkpt lat="47.28052" lon="-1.59418">
        <ele>96</ele>
        <time>2022-01-27T16:11:29Z</time>
      </trkpt>
      <trkpt lat="47.28051" lon="-1.5942">
        <ele>96</ele>
        <time>2022-01-27T16:11:30Z</time>
      </trkpt>
      <trkpt lat="47.28051" lon="-1.59422">
        <ele>96</ele>
        <time>2022-01-27T16:11:31Z</time>
      </trkpt>
      <trkpt lat="47.2805" lon="-1.59424">
        <ele>95</ele>
        <time>2022-01-27T16:11:32Z</time>
      </trkpt>
      <trkpt lat="47.28049" lon="-1.59426">
        <ele>95</ele>
        <time>2022-01-27T16:11:33Z</time>
      </trkpt>
      <trkpt lat="47.28048" lon="-1.59427">
        <ele>95</ele>
        <time>2022-01-27T16:11:34Z</time>
      </trkpt>
      <trkpt lat="47.28048" lon="-1.59428">
        <ele>95</ele>
        <time>2022-01-27T16:11:35Z</time>
      </trkpt>
      <trkpt lat="47.28047" lon="-1.5943">
        <ele>95</ele>
        <time>2022-01-27T16:11:36Z</time>
      </trkpt>
      <trkpt lat="47.28046" lon="-1.59431">
        <ele>94</ele>
        <time>2022-01-27T16:11:37Z</time>
      </trkpt>
      <trkpt lat="47.28046" lon="-1.59433">
        <ele>94</ele>
        <time>2022-01-27T16:11:38Z</time>
      </trkpt>
      <trkpt lat="47.28045" lon="-1.59434">
        <ele>95</ele>
        <time>2022-01-27T16:11:39Z</time>
      </trkpt>
      <trkpt lat="47.28044" lon="-1.59436">
        <ele>95</ele>
        <time>2022-01-27T16:11:40Z</time>
      </trkpt>
      <trkpt lat="47.28043" lon="-1.59438">
        <ele>95</ele>
        <time>2022-01-27T16:11:41Z</time>
      </trkpt>
      <trkpt lat="47.28042" lon="-1.59441">
        <ele>95</ele>
        <time>2022-01-27T16:11:42Z</time>
      </trkpt>
      <trkpt lat="47.2804" lon="-1.59443">
        <ele>95</ele>
        <time>2022-01-27T16:11:43Z</time>
      </trkpt>
      <trkpt lat="47.2804" lon="-1.59444">
        <ele>95</ele>
        <time>2022-01-27T16:11:44Z</time>
      </trkpt>
      <trkpt lat="47.28039" lon="-1.59446">
        <ele>95</ele>
        <time>2022-01-27T16:11:45Z</time>
      </trkpt>
      <trkpt lat="47.28038" lon="-1.59448">
        <ele>95</ele>
        <time>2022-01-27T16:11:46Z</time>
      </trkpt>
      <trkpt lat="47.28037" lon="-1.59449">
        <ele>96</ele>
        <time>2022-01-27T16:11:47Z</time>
      </trkpt>
      <trkpt lat="47.28037" lon="-1.59451">
        <ele>96</ele>
        <time>2022-01-27T16:11:48Z</time>
      </trkpt>
      <trkpt lat="47.28036" lon="-1.59453">
        <ele>96</ele>
        <time>2022-01-27T16:11:49Z</time>
      </trkpt>
      <trkpt lat="47.28035" lon="-1.59455">
        <ele>96</ele>
        <time>2022-01-27T16:11:50Z</time>
      </trkpt>
      <trkpt lat="47.28035" lon="-1.59457">
        <ele>96</ele>
        <time>2022-01-27T16:11:51Z</time>
      </trkpt>
      <trkpt lat="47.28034" lon="-1.59459">
        <ele>96</ele>
        <time>2022-01-27T16:11:52Z</time>
      </trkpt>
      <trkpt lat="47.28033" lon="-1.59461">
        <ele>96</ele>
        <time>2022-01-27T16:11:53Z</time>
      </trkpt>
      <trkpt lat="47.28032" lon="-1.59463">
        <ele>97</ele>
        <time>2022-01-27T16:11:54Z</time>
      </trkpt>
      <trkpt lat="47.28031" lon="-1.59465">
        <ele>97</ele>
        <time>2022-01-27T16:11:55Z</time>
      </trkpt>
      <trkpt lat="47.2803" lon="-1.59466">
        <ele>97</ele>
        <time>2022-01-27T16:11:56Z</time>
      </trkpt>
      <trkpt lat="47.2803" lon="-1.59468">
        <ele>98</ele>
        <time>2022-01-27T16:11:57Z</time>
      </trkpt>
      <trkpt lat="47.28029" lon="-1.59469">
        <ele>97</ele>
        <time>2022-01-27T16:11:58Z</time>
      </trkpt>
      <trkpt lat="47.28027" lon="-1.5947">
        <ele>97</ele>
        <time>2022-01-27T16:11:59Z</time>
      </trkpt>
      <trkpt lat="47.28026" lon="-1.59471">
        <ele>97</ele>
        <time>2022-01-27T16:12:00Z</time>
      </trkpt>
      <trkpt lat="47.28025" lon="-1.59473">
        <ele>98</ele>
        <time>2022-01-27T16:12:01Z</time>
      </trkpt>
      <trkpt lat="47.28024" lon="-1.59474">
        <ele>98</ele>
        <time>2022-01-27T16:12:02Z</time>
      </trkpt>
      <trkpt lat="47.28023" lon="-1.59475">
        <ele>98</ele>
        <time>2022-01-27T16:12:03Z</time>
      </trkpt>
      <trkpt lat="47.28022" lon="-1.59476">
        <ele>97</ele>
        <time>2022-01-27T16:12:04Z</time>
      </trkpt>
      <trkpt lat="47.28021" lon="-1.59477">
        <ele>97</ele>
        <time>2022-01-27T16:12:05Z</time>
      </trkpt>
      <trkpt lat="47.28019" lon="-1.59478">
        <ele>98</ele>
        <time>2022-01-27T16:12:06Z</time>
      </trkpt>
      <trkpt lat="47.28018" lon="-1.59479">
        <ele>98</ele>
        <time>2022-01-27T16:12:07Z</time>
      </trkpt>
      <trkpt lat="47.28017" lon="-1.59481">
        <ele>98</ele>
        <time>2022-01-27T16:12:08Z</time>
      </trkpt>
      <trkpt lat="47.28016" lon="-1.59482">
        <ele>97</ele>
        <time>2022-01-27T16:12:09Z</time>
      </trkpt>
      <trkpt lat="47.28014" lon="-1.59483">
        <ele>97</ele>
        <time>2022-01-27T16:12:10Z</time>
      </trkpt>
      <trkpt lat="47.28014" lon="-1.59485">
        <ele>97</ele>
        <time>2022-01-27T16:12:11Z</time>
      </trkpt>
      <trkpt lat="47.28013" lon="-1.59486">
        <ele>98</ele>
        <time>2022-01-27T16:12:12Z</time>
      </trkpt>
      <trkpt lat="47.28013" lon="-1.59488">
        <ele>98</ele>
        <time>2022-01-27T16:12:13Z</time>
      </trkpt>
      <trkpt lat="47.28012" lon="-1.59489">
        <ele>98</ele>
        <time>2022-01-27T16:12:14Z</time>
      </trkpt>
      <trkpt lat="47.28011" lon="-1.59491">
        <ele>98</ele>
        <time>2022-01-27T16:12:15Z</time>
      </trkpt>
      <trkpt lat="47.2801" lon="-1.59493">
        <ele>98</ele>
        <time>2022-01-27T16:12:16Z</time>
      </trkpt>
      <trkpt lat="47.28009" lon="-1.59495">
        <ele>99</ele>
        <time>2022-01-27T16:12:17Z</time>
      </trkpt>
      <trkpt lat="47.28008" lon="-1.59496">
        <ele>99</ele>
        <time>2022-01-27T16:12:18Z</time>
      </trkpt>
      <trkpt lat="47.28008" lon="-1.59498">
        <ele>99</ele>
        <time>2022-01-27T16:12:19Z</time>
      </trkpt>
      <trkpt lat="47.28007" lon="-1.595">
        <ele>99</ele>
        <time>2022-01-27T16:12:20Z</time>
      </trkpt>
      <trkpt lat="47.28006" lon="-1.59501">
        <ele>99</ele>
        <time>2022-01-27T16:12:21Z</time>
      </trkpt>
      <trkpt lat="47.28005" lon="-1.59503">
        <ele>99</ele>
        <time>2022-01-27T16:12:22Z</time>
      </trkpt>
      <trkpt lat="47.28005" lon="-1.59505">
        <ele>99</ele>
        <time>2022-01-27T16:12:23Z</time>
      </trkpt>
      <trkpt lat="47.28004" lon="-1.59506">
        <ele>99</ele>
        <time>2022-01-27T16:12:24Z</time>
      </trkpt>
      <trkpt lat="47.28004" lon="-1.59508">
        <ele>99</ele>
        <time>2022-01-27T16:12:25Z</time>
      </trkpt>
      <trkpt lat="47.28003" lon="-1.59509">
        <ele>99</ele>
        <time>2022-01-27T16:12:26Z</time>
      </trkpt>
      <trkpt lat="47.28003" lon="-1.59511">
        <ele>99</ele>
        <time>2022-01-27T16:12:27Z</time>
      </trkpt>
      <trkpt lat="47.28002" lon="-1.59513">
        <ele>98</ele>
        <time>2022-01-27T16:12:28Z</time>
      </trkpt>
      <trkpt lat="47.28001" lon="-1.59516">
        <ele>98</ele>
        <time>2022-01-27T16:12:29Z</time>
      </trkpt>
      <trkpt lat="47.28" lon="-1.59517">
        <ele>98</ele>
        <time>2022-01-27T16:12:30Z</time>
      </trkpt>
      <trkpt lat="47.27999" lon="-1.59519">
        <ele>98</ele>
        <time>2022-01-27T16:12:31Z</time>
      </trkpt>
      <trkpt lat="47.27998" lon="-1.5952">
        <ele>98</ele>
        <time>2022-01-27T16:12:32Z</time>
      </trkpt>
      <trkpt lat="47.27996" lon="-1.59521">
        <ele>98</ele>
        <time>2022-01-27T16:12:33Z</time>
      </trkpt>
      <trkpt lat="47.27995" lon="-1.59521">
        <ele>97</ele>
        <time>2022-01-27T16:12:34Z</time>
      </trkpt>
      <trkpt lat="47.27993" lon="-1.59522">
        <ele>97</ele>
        <time>2022-01-27T16:12:35Z</time>
      </trkpt>
      <trkpt lat="47.27992" lon="-1.59521">
        <ele>96</ele>
        <time>2022-01-27T16:12:36Z</time>
      </trkpt>
      <trkpt lat="47.2799" lon="-1.59521">
        <ele>96</ele>
        <time>2022-01-27T16:12:37Z</time>
      </trkpt>
      <trkpt lat="47.27989" lon="-1.59521">
        <ele>96</ele>
        <time>2022-01-27T16:12:38Z</time>
      </trkpt>
      <trkpt lat="47.27988" lon="-1.5952">
        <ele>95</ele>
        <time>2022-01-27T16:12:39Z</time>
      </trkpt>
      <trkpt lat="47.27987" lon="-1.5952">
        <ele>95</ele>
        <time>2022-01-27T16:12:40Z</time>
      </trkpt>
      <trkpt lat="47.27986" lon="-1.5952">
        <ele>95</ele>
        <time>2022-01-27T16:12:41Z</time>
      </trkpt>
      <trkpt lat="47.27984" lon="-1.59519">
        <ele>95</ele>
        <time>2022-01-27T16:12:42Z</time>
      </trkpt>
      <trkpt lat="47.27983" lon="-1.59518">
        <ele>95</ele>
        <time>2022-01-27T16:12:43Z</time>
      </trkpt>
      <trkpt lat="47.27982" lon="-1.59518">
        <ele>95</ele>
        <time>2022-01-27T16:12:44Z</time>
      </trkpt>
      <trkpt lat="47.2798" lon="-1.59517">
        <ele>95</ele>
        <time>2022-01-27T16:12:45Z</time>
      </trkpt>
      <trkpt lat="47.27979" lon="-1.59515">
        <ele>95</ele>
        <time>2022-01-27T16:12:46Z</time>
      </trkpt>
      <trkpt lat="47.27978" lon="-1.59514">
        <ele>95</ele>
        <time>2022-01-27T16:12:47Z</time>
      </trkpt>
      <trkpt lat="47.27977" lon="-1.59513">
        <ele>95</ele>
        <time>2022-01-27T16:12:48Z</time>
      </trkpt>
      <trkpt lat="47.27976" lon="-1.59512">
        <ele>94</ele>
        <time>2022-01-27T16:12:49Z</time>
      </trkpt>
      <trkpt lat="47.27974" lon="-1.59512">
        <ele>94</ele>
        <time>2022-01-27T16:12:50Z</time>
      </trkpt>
      <trkpt lat="47.27974" lon="-1.59512">
        <ele>94</ele>
        <time>2022-01-27T16:12:51Z</time>
      </trkpt>
      <trkpt lat="47.27973" lon="-1.59513">
        <ele>94</ele>
        <time>2022-01-27T16:12:52Z</time>
      </trkpt>
      <trkpt lat="47.27973" lon="-1.59513">
        <ele>94</ele>
        <time>2022-01-27T16:12:53Z</time>
      </trkpt>
      <trkpt lat="47.27972" lon="-1.59514">
        <ele>94</ele>
        <time>2022-01-27T16:12:54Z</time>
      </trkpt>
      <trkpt lat="47.27972" lon="-1.59515">
        <ele>94</ele>
        <time>2022-01-27T16:12:55Z</time>
      </trkpt>
      <trkpt lat="47.27972" lon="-1.59516">
        <ele>94</ele>
        <time>2022-01-27T16:12:56Z</time>
      </trkpt>
      <trkpt lat="47.27972" lon="-1.59517">
        <ele>94</ele>
        <time>2022-01-27T16:12:57Z</time>
      </trkpt>
      <trkpt lat="47.27971" lon="-1.59519">
        <ele>94</ele>
        <time>2022-01-27T16:12:58Z</time>
      </trkpt>
      <trkpt lat="47.27971" lon="-1.5952">
        <ele>94</ele>
        <time>2022-01-27T16:12:59Z</time>
      </trkpt>
      <trkpt lat="47.2797" lon="-1.59521">
        <ele>94</ele>
        <time>2022-01-27T16:13:00Z</time>
      </trkpt>
      <trkpt lat="47.27969" lon="-1.59521">
        <ele>94</ele>
        <time>2022-01-27T16:13:01Z</time>
      </trkpt>
      <trkpt lat="47.27968" lon="-1.59522">
        <ele>94</ele>
        <time>2022-01-27T16:13:02Z</time>
      </trkpt>
      <trkpt lat="47.27968" lon="-1.59523">
        <ele>94</ele>
        <time>2022-01-27T16:13:03Z</time>
      </trkpt>
      <trkpt lat="47.27967" lon="-1.59524">
        <ele>94</ele>
        <time>2022-01-27T16:13:04Z</time>
      </trkpt>
      <trkpt lat="47.27966" lon="-1.59526">
        <ele>94</ele>
        <time>2022-01-27T16:13:05Z</time>
      </trkpt>
      <trkpt lat="47.27966" lon="-1.59528">
        <ele>93</ele>
        <time>2022-01-27T16:13:06Z</time>
      </trkpt>
      <trkpt lat="47.27965" lon="-1.59529">
        <ele>94</ele>
        <time>2022-01-27T16:13:07Z</time>
      </trkpt>
      <trkpt lat="47.27964" lon="-1.5953">
        <ele>94</ele>
        <time>2022-01-27T16:13:08Z</time>
      </trkpt>
      <trkpt lat="47.27964" lon="-1.59531">
        <ele>94</ele>
        <time>2022-01-27T16:13:09Z</time>
      </trkpt>
      <trkpt lat="47.27963" lon="-1.59533">
        <ele>96</ele>
        <time>2022-01-27T16:13:10Z</time>
      </trkpt>
      <trkpt lat="47.27962" lon="-1.59534">
        <ele>96</ele>
        <time>2022-01-27T16:13:11Z</time>
      </trkpt>
      <trkpt lat="47.27962" lon="-1.59534">
        <ele>96</ele>
        <time>2022-01-27T16:13:11Z</time>
      </trkpt>
      <trkpt lat="47.2796" lon="-1.59536">
        <ele>97</ele>
        <time>2022-01-27T16:13:13Z</time>
      </trkpt>
      <trkpt lat="47.27959" lon="-1.59536">
        <ele>98</ele>
        <time>2022-01-27T16:13:14Z</time>
      </trkpt>
      <trkpt lat="47.27958" lon="-1.59537">
        <ele>98</ele>
        <time>2022-01-27T16:13:15Z</time>
      </trkpt>
      <trkpt lat="47.27956" lon="-1.59538">
        <ele>98</ele>
        <time>2022-01-27T16:13:16Z</time>
      </trkpt>
      <trkpt lat="47.27956" lon="-1.59538">
        <ele>98</ele>
        <time>2022-01-27T16:13:17Z</time>
      </trkpt>
      <trkpt lat="47.27956" lon="-1.59538">
        <ele>98</ele>
        <time>2022-01-27T16:13:18Z</time>
      </trkpt>
      <trkpt lat="47.27956" lon="-1.59538">
        <ele>98</ele>
        <time>2022-01-27T16:13:19Z</time>
      </trkpt>
      <trkpt lat="47.27956" lon="-1.59538">
        <ele>98</ele>
        <time>2022-01-27T16:13:20Z</time>
      </trkpt>
      <trkpt lat="47.27956" lon="-1.59538">
        <ele>98</ele>
        <time>2022-01-27T16:13:21Z</time>
      </trkpt>
      <trkpt lat="47.27956" lon="-1.59538">
        <ele>98</ele>
        <time>2022-01-27T16:13:21Z</time>
      </trkpt>
      <trkpt lat="47.27956" lon="-1.59538">
        <ele>98</ele>
        <time>2022-01-27T16:13:21Z</time>
      </trkpt>
    </trkseg>
  </trk>
</gpx>